<?xml version='1.0' encoding='UTF-8'?><gpx version="1.1" creator="JPX - https://github.com/jenetics/jpx" xmlns="http://www.topografix.com/GPX/1/1"><trk><trkseg><trkpt lat="45.6037229" lon="8.9306676"><ele>208.0</ele><time>2026-04-12T07:42:15.171Z</time></trkpt><trkpt lat="45.6038322" lon="8.9305751"><ele>208.0</ele><time>2026-04-12T07:42:17.145Z</time></trkpt><trkpt lat="45.6039431" lon="8.9304761"><ele>208.0</ele><time>2026-04-12T07:42:18.159Z</time></trkpt><trkpt lat="45.604014" lon="8.9304249"><ele>208.0</ele><time>2026-04-12T07:42:19.156Z</time></trkpt><trkpt lat="45.6040787" lon="8.9303802"><ele>208.0</ele><time>2026-04-12T07:42:20.156Z</time></trkpt><trkpt lat="45.6041513" lon="8.9303061"><ele>207.99999999999997</ele><time>2026-04-12T07:42:21.147Z</time></trkpt><trkpt lat="45.6042174" lon="8.9302392"><ele>208.0</ele><time>2026-04-12T07:42:22.154Z</time></trkpt><trkpt lat="45.6042781" lon="8.9301792"><ele>208.0</ele><time>2026-04-12T07:42:23.193Z</time></trkpt><trkpt lat="45.6043278" lon="8.9301132"><ele>208.0</ele><time>2026-04-12T07:42:24.173Z</time></trkpt><trkpt lat="45.6043822" lon="8.9299842"><ele>207.99999999999997</ele><time>2026-04-12T07:42:26.156Z</time></trkpt><trkpt lat="45.6043627" lon="8.929875"><ele>208.0</ele><time>2026-04-12T07:42:28.143Z</time></trkpt><trkpt lat="45.6042817" lon="8.9297551"><ele>207.8</ele><time>2026-04-12T07:42:29.161Z</time></trkpt><trkpt lat="45.6042405" lon="8.929658"><ele>207.60000000000002</ele><time>2026-04-12T07:42:30.151Z</time></trkpt><trkpt lat="45.6041914" lon="8.929545"><ele>207.39999999999998</ele><time>2026-04-12T07:42:31.142Z</time></trkpt><trkpt lat="45.604143" lon="8.9294352"><ele>207.2</ele><time>2026-04-12T07:42:32.155Z</time></trkpt><trkpt lat="45.604086" lon="8.9292991"><ele>207.0</ele><time>2026-04-12T07:42:33.154Z</time></trkpt><trkpt lat="45.604026" lon="8.9291464"><ele>206.66666666666669</ele><time>2026-04-12T07:42:34.164Z</time></trkpt><trkpt lat="45.6039592" lon="8.9289475"><ele>206.33333333333334</ele><time>2026-04-12T07:42:35.16Z</time></trkpt><trkpt lat="45.6038749" lon="8.928747"><ele>206.0</ele><time>2026-04-12T07:42:36.157Z</time></trkpt><trkpt lat="45.6038046" lon="8.9285728"><ele>207.0</ele><time>2026-04-12T07:42:37.152Z</time></trkpt><trkpt lat="45.6037243" lon="8.9283809"><ele>208.0</ele><time>2026-04-12T07:42:38.156Z</time></trkpt><trkpt lat="45.6036545" lon="8.9281903"><ele>209.0</ele><time>2026-04-12T07:42:39.158Z</time></trkpt><trkpt lat="45.6035838" lon="8.9279959"><ele>209.0</ele><time>2026-04-12T07:42:40.159Z</time></trkpt><trkpt lat="45.6035125" lon="8.9278146"><ele>209.0</ele><time>2026-04-12T07:42:41.158Z</time></trkpt><trkpt lat="45.6034303" lon="8.9276273"><ele>209.0</ele><time>2026-04-12T07:42:42.157Z</time></trkpt><trkpt lat="45.603373" lon="8.9274471"><ele>209.0</ele><time>2026-04-12T07:42:43.155Z</time></trkpt><trkpt lat="45.6033164" lon="8.9272938"><ele>208.0</ele><time>2026-04-12T07:42:44.158Z</time></trkpt><trkpt lat="45.6032591" lon="8.9271496"><ele>207.0</ele><time>2026-04-12T07:42:45.151Z</time></trkpt><trkpt lat="45.6032008" lon="8.9270269"><ele>206.0</ele><time>2026-04-12T07:42:46.158Z</time></trkpt><trkpt lat="45.603154" lon="8.9269135"><ele>205.0</ele><time>2026-04-12T07:42:47.15Z</time></trkpt><trkpt lat="45.603119" lon="8.9268137"><ele>204.0</ele><time>2026-04-12T07:42:48.154Z</time></trkpt><trkpt lat="45.6030833" lon="8.9267199"><ele>203.79999999999998</ele><time>2026-04-12T07:42:49.154Z</time></trkpt><trkpt lat="45.6030461" lon="8.9266316"><ele>203.6</ele><time>2026-04-12T07:42:50.164Z</time></trkpt><trkpt lat="45.6029971" lon="8.9265165"><ele>203.4</ele><time>2026-04-12T07:42:51.16Z</time></trkpt><trkpt lat="45.6029486" lon="8.92638"><ele>203.2</ele><time>2026-04-12T07:42:52.163Z</time></trkpt><trkpt lat="45.6028924" lon="8.9262103"><ele>203.0</ele><time>2026-04-12T07:42:53.16Z</time></trkpt><trkpt lat="45.6028188" lon="8.9260109"><ele>204.33333333333334</ele><time>2026-04-12T07:42:54.16Z</time></trkpt><trkpt lat="45.6027386" lon="8.9257915"><ele>205.66666666666669</ele><time>2026-04-12T07:42:55.157Z</time></trkpt><trkpt lat="45.6026574" lon="8.9255706"><ele>207.0</ele><time>2026-04-12T07:42:56.162Z</time></trkpt><trkpt lat="45.6025704" lon="8.9253462"><ele>207.0</ele><time>2026-04-12T07:42:57.158Z</time></trkpt><trkpt lat="45.6024812" lon="8.9251279"><ele>207.0</ele><time>2026-04-12T07:42:58.16Z</time></trkpt><trkpt lat="45.6024036" lon="8.9249065"><ele>207.0</ele><time>2026-04-12T07:42:59.156Z</time></trkpt><trkpt lat="45.6023213" lon="8.9246841"><ele>207.33333333333331</ele><time>2026-04-12T07:43:00.161Z</time></trkpt><trkpt lat="45.6022344" lon="8.9244748"><ele>207.66666666666666</ele><time>2026-04-12T07:43:01.164Z</time></trkpt><trkpt lat="45.6021474" lon="8.9242508"><ele>208.0</ele><time>2026-04-12T07:43:02.154Z</time></trkpt><trkpt lat="45.6020708" lon="8.9240459"><ele>207.33333333333331</ele><time>2026-04-12T07:43:03.159Z</time></trkpt><trkpt lat="45.6019941" lon="8.9238371"><ele>206.66666666666669</ele><time>2026-04-12T07:43:04.16Z</time></trkpt><trkpt lat="45.6019213" lon="8.9236394"><ele>206.0</ele><time>2026-04-12T07:43:05.169Z</time></trkpt><trkpt lat="45.601854" lon="8.9234658"><ele>206.60000000000002</ele><time>2026-04-12T07:43:06.161Z</time></trkpt><trkpt lat="45.6018086" lon="8.9232983"><ele>207.2</ele><time>2026-04-12T07:43:07.165Z</time></trkpt><trkpt lat="45.6017625" lon="8.9231485"><ele>207.8</ele><time>2026-04-12T07:43:08.154Z</time></trkpt><trkpt lat="45.6017101" lon="8.9230218"><ele>208.39999999999998</ele><time>2026-04-12T07:43:09.154Z</time></trkpt><trkpt lat="45.601673" lon="8.9229161"><ele>209.0</ele><time>2026-04-12T07:43:10.159Z</time></trkpt><trkpt lat="45.6016267" lon="8.9228214"><ele>209.0</ele><time>2026-04-12T07:43:11.16Z</time></trkpt><trkpt lat="45.6015854" lon="8.9227241"><ele>209.0</ele><time>2026-04-12T07:43:12.157Z</time></trkpt><trkpt lat="45.6015422" lon="8.9226171"><ele>209.0</ele><time>2026-04-12T07:43:13.161Z</time></trkpt><trkpt lat="45.6015" lon="8.922493"><ele>209.0</ele><time>2026-04-12T07:43:14.157Z</time></trkpt><trkpt lat="45.6014493" lon="8.9223603"><ele>209.0</ele><time>2026-04-12T07:43:15.161Z</time></trkpt><trkpt lat="45.6013914" lon="8.922206"><ele>208.66666666666669</ele><time>2026-04-12T07:43:16.164Z</time></trkpt><trkpt lat="45.6013217" lon="8.9220258"><ele>208.33333333333331</ele><time>2026-04-12T07:43:17.157Z</time></trkpt><trkpt lat="45.6012378" lon="8.9218136"><ele>208.0</ele><time>2026-04-12T07:43:18.159Z</time></trkpt><trkpt lat="45.6011591" lon="8.9215794"><ele>208.0</ele><time>2026-04-12T07:43:19.158Z</time></trkpt><trkpt lat="45.6010733" lon="8.9213467"><ele>208.0</ele><time>2026-04-12T07:43:20.155Z</time></trkpt><trkpt lat="45.6009978" lon="8.9211389"><ele>208.0</ele><time>2026-04-12T07:43:21.161Z</time></trkpt><trkpt lat="45.6009252" lon="8.9209316"><ele>208.0</ele><time>2026-04-12T07:43:22.159Z</time></trkpt><trkpt lat="45.6008596" lon="8.9207504"><ele>208.0</ele><time>2026-04-12T07:43:23.147Z</time></trkpt><trkpt lat="45.6007882" lon="8.9205782"><ele>208.0</ele><time>2026-04-12T07:43:24.154Z</time></trkpt><trkpt lat="45.6007279" lon="8.9204234"><ele>208.0</ele><time>2026-04-12T07:43:25.159Z</time></trkpt><trkpt lat="45.6006822" lon="8.9202615"><ele>208.0</ele><time>2026-04-12T07:43:26.157Z</time></trkpt><trkpt lat="45.6006258" lon="8.9201038"><ele>208.0</ele><time>2026-04-12T07:43:27.159Z</time></trkpt><trkpt lat="45.6005608" lon="8.9199467"><ele>208.0</ele><time>2026-04-12T07:43:28.162Z</time></trkpt><trkpt lat="45.6004919" lon="8.9197746"><ele>208.0</ele><time>2026-04-12T07:43:29.174Z</time></trkpt><trkpt lat="45.6004163" lon="8.9195596"><ele>206.66666666666666</ele><time>2026-04-12T07:43:30.192Z</time></trkpt><trkpt lat="45.6003288" lon="8.9193426"><ele>205.33333333333331</ele><time>2026-04-12T07:43:31.187Z</time></trkpt><trkpt lat="45.6002534" lon="8.9191474"><ele>204.0</ele><time>2026-04-12T07:43:32.172Z</time></trkpt><trkpt lat="45.6001899" lon="8.9189741"><ele>204.0</ele><time>2026-04-12T07:43:33.165Z</time></trkpt><trkpt lat="45.60013" lon="8.9188198"><ele>204.0</ele><time>2026-04-12T07:43:34.163Z</time></trkpt><trkpt lat="45.6000774" lon="8.9186758"><ele>204.0</ele><time>2026-04-12T07:43:35.155Z</time></trkpt><trkpt lat="45.6000308" lon="8.918555"><ele>204.0</ele><time>2026-04-12T07:43:36.147Z</time></trkpt><trkpt lat="45.5999971" lon="8.9184583"><ele>204.0</ele><time>2026-04-12T07:43:37.155Z</time></trkpt><trkpt lat="45.6000013" lon="8.9183124"><ele>204.0</ele><time>2026-04-12T07:43:39.149Z</time></trkpt><trkpt lat="45.6000485" lon="8.9181991"><ele>204.0</ele><time>2026-04-12T07:43:41.151Z</time></trkpt><trkpt lat="45.6000966" lon="8.9181339"><ele>204.0</ele><time>2026-04-12T07:43:45.155Z</time></trkpt><trkpt lat="45.600178" lon="8.9180819"><ele>204.0</ele><time>2026-04-12T07:48:36.147Z</time></trkpt><trkpt lat="45.6001657" lon="8.9179779"><ele>204.0</ele><time>2026-04-12T07:48:51.141Z</time></trkpt><trkpt lat="45.6000841" lon="8.9180015"><ele>204.0</ele><time>2026-04-12T07:48:54.163Z</time></trkpt><trkpt lat="45.5999621" lon="8.9181279"><ele>204.0</ele><time>2026-04-12T07:48:55.2Z</time></trkpt><trkpt lat="45.5998355" lon="8.9183295"><ele>204.0</ele><time>2026-04-12T07:48:56.157Z</time></trkpt><trkpt lat="45.5997364" lon="8.9184443"><ele>204.0</ele><time>2026-04-12T07:48:57.161Z</time></trkpt><trkpt lat="45.5996602" lon="8.918541"><ele>204.0</ele><time>2026-04-12T07:48:58.149Z</time></trkpt><trkpt lat="45.5995877" lon="8.9186236"><ele>204.0</ele><time>2026-04-12T07:48:59.157Z</time></trkpt><trkpt lat="45.5995177" lon="8.9187074"><ele>204.0</ele><time>2026-04-12T07:49:00.194Z</time></trkpt><trkpt lat="45.5994484" lon="8.9187995"><ele>204.0</ele><time>2026-04-12T07:49:01.164Z</time></trkpt><trkpt lat="45.599383" lon="8.9188856"><ele>204.0</ele><time>2026-04-12T07:49:02.163Z</time></trkpt><trkpt lat="45.5993214" lon="8.9189619"><ele>204.0</ele><time>2026-04-12T07:49:03.197Z</time></trkpt><trkpt lat="45.5992654" lon="8.9190399"><ele>204.0</ele><time>2026-04-12T07:49:04.159Z</time></trkpt><trkpt lat="45.5992132" lon="8.919096"><ele>204.0</ele><time>2026-04-12T07:49:05.194Z</time></trkpt><trkpt lat="45.5991545" lon="8.9191437"><ele>204.0</ele><time>2026-04-12T07:49:06.166Z</time></trkpt><trkpt lat="45.5991048" lon="8.9192245"><ele>204.0</ele><time>2026-04-12T07:49:07.165Z</time></trkpt><trkpt lat="45.5990447" lon="8.9192921"><ele>204.0</ele><time>2026-04-12T07:49:08.158Z</time></trkpt><trkpt lat="45.5989859" lon="8.9193547"><ele>204.0</ele><time>2026-04-12T07:49:09.157Z</time></trkpt><trkpt lat="45.5989327" lon="8.9194296"><ele>204.0</ele><time>2026-04-12T07:49:10.17Z</time></trkpt><trkpt lat="45.5988913" lon="8.9194988"><ele>204.0</ele><time>2026-04-12T07:49:11.165Z</time></trkpt><trkpt lat="45.5988434" lon="8.9195737"><ele>204.2</ele><time>2026-04-12T07:49:12.166Z</time></trkpt><trkpt lat="45.5987916" lon="8.9196537"><ele>204.39999999999998</ele><time>2026-04-12T07:49:13.167Z</time></trkpt><trkpt lat="45.5987333" lon="8.9197384"><ele>204.6</ele><time>2026-04-12T07:49:14.152Z</time></trkpt><trkpt lat="45.5986615" lon="8.9198351"><ele>204.8</ele><time>2026-04-12T07:49:15.144Z</time></trkpt><trkpt lat="45.5985979" lon="8.9199189"><ele>205.0</ele><time>2026-04-12T07:49:16.142Z</time></trkpt><trkpt lat="45.5984714" lon="8.9201327"><ele>205.0</ele><time>2026-04-12T07:49:18.17Z</time></trkpt><trkpt lat="45.5983956" lon="8.9202274"><ele>205.0</ele><time>2026-04-12T07:49:19.153Z</time></trkpt><trkpt lat="45.5982709" lon="8.9204071"><ele>205.0</ele><time>2026-04-12T07:49:21.156Z</time></trkpt><trkpt lat="45.5981998" lon="8.9205063"><ele>205.0</ele><time>2026-04-12T07:49:22.149Z</time></trkpt><trkpt lat="45.5981383" lon="8.9205963"><ele>204.99999999999997</ele><time>2026-04-12T07:49:23.192Z</time></trkpt><trkpt lat="45.5980841" lon="8.9206725"><ele>205.0</ele><time>2026-04-12T07:49:24.154Z</time></trkpt><trkpt lat="45.5980078" lon="8.9207824"><ele>205.0</ele><time>2026-04-12T07:49:26.151Z</time></trkpt><trkpt lat="45.5979413" lon="8.9208887"><ele>205.0</ele><time>2026-04-12T07:49:28.162Z</time></trkpt><trkpt lat="45.5978946" lon="8.9209618"><ele>204.99999999999997</ele><time>2026-04-12T07:49:30.164Z</time></trkpt><trkpt lat="45.5978407" lon="8.9210313"><ele>205.0</ele><time>2026-04-12T07:49:32.143Z</time></trkpt><trkpt lat="45.597758" lon="8.9210547"><ele>204.8</ele><time>2026-04-12T07:49:34.198Z</time></trkpt><trkpt lat="45.5976743" lon="8.9209719"><ele>204.6</ele><time>2026-04-12T07:49:36.158Z</time></trkpt><trkpt lat="45.5976362" lon="8.9208128"><ele>204.39999999999998</ele><time>2026-04-12T07:49:38.165Z</time></trkpt><trkpt lat="45.5975964" lon="8.9206598"><ele>204.2</ele><time>2026-04-12T07:49:40.172Z</time></trkpt><trkpt lat="45.5975729" lon="8.9205757"><ele>204.0</ele><time>2026-04-12T07:49:41.166Z</time></trkpt><trkpt lat="45.5975218" lon="8.9204147"><ele>204.0</ele><time>2026-04-12T07:49:43.155Z</time></trkpt><trkpt lat="45.597496" lon="8.9203317"><ele>204.0</ele><time>2026-04-12T07:49:44.168Z</time></trkpt><trkpt lat="45.5974504" lon="8.9201745"><ele>204.0</ele><time>2026-04-12T07:49:46.152Z</time></trkpt><trkpt lat="45.5974048" lon="8.9200072"><ele>204.0</ele><time>2026-04-12T07:49:48.167Z</time></trkpt><trkpt lat="45.5973804" lon="8.919915"><ele>204.0</ele><time>2026-04-12T07:49:49.161Z</time></trkpt><trkpt lat="45.5973491" lon="8.9198109"><ele>204.16666666666666</ele><time>2026-04-12T07:49:50.173Z</time></trkpt><trkpt lat="45.597324" lon="8.9196912"><ele>204.33333333333331</ele><time>2026-04-12T07:49:51.162Z</time></trkpt><trkpt lat="45.5972998" lon="8.9195919"><ele>204.5</ele><time>2026-04-12T07:49:52.159Z</time></trkpt><trkpt lat="45.5972681" lon="8.9194888"><ele>204.66666666666666</ele><time>2026-04-12T07:49:53.191Z</time></trkpt><trkpt lat="45.5972365" lon="8.919395"><ele>204.83333333333331</ele><time>2026-04-12T07:49:54.158Z</time></trkpt><trkpt lat="45.5972087" lon="8.9193007"><ele>205.0</ele><time>2026-04-12T07:49:55.149Z</time></trkpt><trkpt lat="45.5971826" lon="8.9192039"><ele>204.99999999999997</ele><time>2026-04-12T07:49:56.153Z</time></trkpt><trkpt lat="45.5971549" lon="8.9191073"><ele>205.0</ele><time>2026-04-12T07:49:57.167Z</time></trkpt><trkpt lat="45.597131" lon="8.9190116"><ele>205.0</ele><time>2026-04-12T07:49:58.173Z</time></trkpt><trkpt lat="45.5971057" lon="8.9189145"><ele>205.0</ele><time>2026-04-12T07:49:59.189Z</time></trkpt><trkpt lat="45.5970634" lon="8.9187465"><ele>204.99999999999997</ele><time>2026-04-12T07:50:01.158Z</time></trkpt><trkpt lat="45.5970442" lon="8.918598"><ele>205.0</ele><time>2026-04-12T07:50:03.166Z</time></trkpt><trkpt lat="45.5970546" lon="8.9184275"><ele>204.99999999999997</ele><time>2026-04-12T07:50:05.167Z</time></trkpt><trkpt lat="45.5970332" lon="8.9182584"><ele>205.0</ele><time>2026-04-12T07:50:07.163Z</time></trkpt><trkpt lat="45.5969967" lon="8.9181647"><ele>205.0</ele><time>2026-04-12T07:50:08.17Z</time></trkpt><trkpt lat="45.5969515" lon="8.9180817"><ele>205.0</ele><time>2026-04-12T07:50:09.168Z</time></trkpt><trkpt lat="45.5969067" lon="8.9180039"><ele>204.99999999999997</ele><time>2026-04-12T07:50:10.161Z</time></trkpt><trkpt lat="45.596867" lon="8.9179263"><ele>205.0</ele><time>2026-04-12T07:50:11.161Z</time></trkpt><trkpt lat="45.5968169" lon="8.917754"><ele>204.99999999999997</ele><time>2026-04-12T07:50:13.171Z</time></trkpt><trkpt lat="45.5967935" lon="8.917661"><ele>205.0</ele><time>2026-04-12T07:50:14.198Z</time></trkpt><trkpt lat="45.5967671" lon="8.9175636"><ele>205.0</ele><time>2026-04-12T07:50:15.163Z</time></trkpt><trkpt lat="45.5967245" lon="8.9174534"><ele>205.0</ele><time>2026-04-12T07:50:17.17Z</time></trkpt><trkpt lat="45.5966758" lon="8.9173247"><ele>204.99999999999997</ele><time>2026-04-12T07:50:21.169Z</time></trkpt><trkpt lat="45.5966264" lon="8.9171838"><ele>205.0</ele><time>2026-04-12T07:50:23.159Z</time></trkpt><trkpt lat="45.5965882" lon="8.9170911"><ele>205.16666666666666</ele><time>2026-04-12T07:50:24.198Z</time></trkpt><trkpt lat="45.5965527" lon="8.9170052"><ele>205.33333333333331</ele><time>2026-04-12T07:50:25.156Z</time></trkpt><trkpt lat="45.5965228" lon="8.9169136"><ele>205.5</ele><time>2026-04-12T07:50:26.16Z</time></trkpt><trkpt lat="45.5964806" lon="8.9168141"><ele>205.66666666666669</ele><time>2026-04-12T07:50:27.162Z</time></trkpt><trkpt lat="45.5964363" lon="8.9167033"><ele>205.83333333333334</ele><time>2026-04-12T07:50:28.18Z</time></trkpt><trkpt lat="45.596391" lon="8.916571"><ele>206.0</ele><time>2026-04-12T07:50:29.192Z</time></trkpt><trkpt lat="45.5963282" lon="8.9164525"><ele>206.00000000000003</ele><time>2026-04-12T07:50:30.163Z</time></trkpt><trkpt lat="45.5962836" lon="8.9163438"><ele>206.0</ele><time>2026-04-12T07:50:31.154Z</time></trkpt><trkpt lat="45.5962487" lon="8.9162295"><ele>206.0</ele><time>2026-04-12T07:50:32.165Z</time></trkpt><trkpt lat="45.5962045" lon="8.9161254"><ele>206.0</ele><time>2026-04-12T07:50:33.159Z</time></trkpt><trkpt lat="45.5961704" lon="8.9160362"><ele>206.00000000000003</ele><time>2026-04-12T07:50:34.162Z</time></trkpt><trkpt lat="45.5961307" lon="8.9159164"><ele>206.0</ele><time>2026-04-12T07:50:36.167Z</time></trkpt><trkpt lat="45.5960982" lon="8.9158078"><ele>205.8</ele><time>2026-04-12T07:50:38.171Z</time></trkpt><trkpt lat="45.5960664" lon="8.9157207"><ele>205.60000000000002</ele><time>2026-04-12T07:50:40.201Z</time></trkpt><trkpt lat="45.5960349" lon="8.9156356"><ele>205.4</ele><time>2026-04-12T07:50:42.169Z</time></trkpt><trkpt lat="45.5959969" lon="8.9155456"><ele>205.2</ele><time>2026-04-12T07:50:44.156Z</time></trkpt><trkpt lat="45.5959291" lon="8.9153594"><ele>205.0</ele><time>2026-04-12T07:50:46.169Z</time></trkpt><trkpt lat="45.595878" lon="8.915226"><ele>205.0</ele><time>2026-04-12T07:50:47.159Z</time></trkpt><trkpt lat="45.5958142" lon="8.9150361"><ele>205.0</ele><time>2026-04-12T07:50:48.181Z</time></trkpt><trkpt lat="45.5957577" lon="8.9148376"><ele>205.0</ele><time>2026-04-12T07:50:49.15Z</time></trkpt><trkpt lat="45.5956968" lon="8.9146554"><ele>205.0</ele><time>2026-04-12T07:50:50.167Z</time></trkpt><trkpt lat="45.595648" lon="8.9145091"><ele>204.99999999999997</ele><time>2026-04-12T07:50:51.187Z</time></trkpt><trkpt lat="45.5955947" lon="8.9143769"><ele>205.0</ele><time>2026-04-12T07:50:52.164Z</time></trkpt><trkpt lat="45.5955433" lon="8.91426"><ele>205.0</ele><time>2026-04-12T07:50:53.162Z</time></trkpt><trkpt lat="45.5955028" lon="8.91415"><ele>205.0</ele><time>2026-04-12T07:50:54.17Z</time></trkpt><trkpt lat="45.5954912" lon="8.9140492"><ele>204.99999999999997</ele><time>2026-04-12T07:50:55.2Z</time></trkpt><trkpt lat="45.5955089" lon="8.9139332"><ele>205.0</ele><time>2026-04-12T07:50:56.158Z</time></trkpt><trkpt lat="45.595527" lon="8.9138277"><ele>205.2</ele><time>2026-04-12T07:50:57.161Z</time></trkpt><trkpt lat="45.5955333" lon="8.9137279"><ele>205.4</ele><time>2026-04-12T07:50:58.203Z</time></trkpt><trkpt lat="45.5955153" lon="8.9135828"><ele>205.60000000000002</ele><time>2026-04-12T07:51:00.175Z</time></trkpt><trkpt lat="45.5953998" lon="8.9134713"><ele>205.8</ele><time>2026-04-12T07:51:02.172Z</time></trkpt><trkpt lat="45.5953337" lon="8.9134177"><ele>206.0</ele><time>2026-04-12T07:51:03.196Z</time></trkpt><trkpt lat="45.5952899" lon="8.9133476"><ele>206.60000000000002</ele><time>2026-04-12T07:51:04.163Z</time></trkpt><trkpt lat="45.5952259" lon="8.9132086"><ele>207.2</ele><time>2026-04-12T07:51:06.157Z</time></trkpt><trkpt lat="45.5951879" lon="8.9131284"><ele>207.8</ele><time>2026-04-12T07:51:07.157Z</time></trkpt><trkpt lat="45.5951242" lon="8.912992"><ele>208.39999999999998</ele><time>2026-04-12T07:51:09.161Z</time></trkpt><trkpt lat="45.5950716" lon="8.9128755"><ele>209.0</ele><time>2026-04-12T07:51:11.156Z</time></trkpt><trkpt lat="45.5950403" lon="8.9127751"><ele>209.00000000000003</ele><time>2026-04-12T07:51:13.19Z</time></trkpt><trkpt lat="45.5949832" lon="8.9126721"><ele>209.0</ele><time>2026-04-12T07:51:16.157Z</time></trkpt><trkpt lat="45.5949539" lon="8.9125823"><ele>209.0</ele><time>2026-04-12T07:51:19.162Z</time></trkpt><trkpt lat="45.5949376" lon="8.912476"><ele>209.0</ele><time>2026-04-12T07:51:21.166Z</time></trkpt><trkpt lat="45.5949592" lon="8.912303"><ele>209.00000000000003</ele><time>2026-04-12T07:51:23.156Z</time></trkpt><trkpt lat="45.5949767" lon="8.9122154"><ele>209.0</ele><time>2026-04-12T07:51:24.162Z</time></trkpt><trkpt lat="45.5949938" lon="8.9120621"><ele>209.2</ele><time>2026-04-12T07:51:26.159Z</time></trkpt><trkpt lat="45.5949523" lon="8.9118877"><ele>209.39999999999998</ele><time>2026-04-12T07:51:28.191Z</time></trkpt><trkpt lat="45.5949346" lon="8.911791"><ele>209.6</ele><time>2026-04-12T07:51:29.176Z</time></trkpt><trkpt lat="45.5949111" lon="8.9116736"><ele>209.8</ele><time>2026-04-12T07:51:30.168Z</time></trkpt><trkpt lat="45.5948785" lon="8.9115435"><ele>210.0</ele><time>2026-04-12T07:51:31.154Z</time></trkpt><trkpt lat="45.5948094" lon="8.9113748"><ele>210.0</ele><time>2026-04-12T07:51:32.17Z</time></trkpt><trkpt lat="45.59473" lon="8.9111666"><ele>210.0</ele><time>2026-04-12T07:51:33.176Z</time></trkpt><trkpt lat="45.5946369" lon="8.9109171"><ele>210.0</ele><time>2026-04-12T07:51:34.172Z</time></trkpt><trkpt lat="45.5945388" lon="8.9106519"><ele>210.5</ele><time>2026-04-12T07:51:35.196Z</time></trkpt><trkpt lat="45.5944345" lon="8.9103511"><ele>211.0</ele><time>2026-04-12T07:51:36.162Z</time></trkpt><trkpt lat="45.5943265" lon="8.9100515"><ele>211.0</ele><time>2026-04-12T07:51:37.161Z</time></trkpt><trkpt lat="45.5942156" lon="8.909778"><ele>211.0</ele><time>2026-04-12T07:51:38.165Z</time></trkpt><trkpt lat="45.594127" lon="8.9095176"><ele>211.0</ele><time>2026-04-12T07:51:39.167Z</time></trkpt><trkpt lat="45.5940503" lon="8.9092873"><ele>211.0</ele><time>2026-04-12T07:51:40.159Z</time></trkpt><trkpt lat="45.5939706" lon="8.9090917"><ele>211.0</ele><time>2026-04-12T07:51:41.161Z</time></trkpt><trkpt lat="45.5938927" lon="8.9089103"><ele>211.0</ele><time>2026-04-12T07:51:42.157Z</time></trkpt><trkpt lat="45.5937928" lon="8.908796"><ele>211.0</ele><time>2026-04-12T07:51:43.176Z</time></trkpt><trkpt lat="45.5937042" lon="8.9086649"><ele>211.0</ele><time>2026-04-12T07:51:44.189Z</time></trkpt><trkpt lat="45.5936237" lon="8.9085482"><ele>211.0</ele><time>2026-04-12T07:51:45.165Z</time></trkpt><trkpt lat="45.5935601" lon="8.9084184"><ele>211.0</ele><time>2026-04-12T07:51:46.158Z</time></trkpt><trkpt lat="45.5935225" lon="8.9082945"><ele>211.0</ele><time>2026-04-12T07:51:47.161Z</time></trkpt><trkpt lat="45.5934623" lon="8.9081782"><ele>211.0</ele><time>2026-04-12T07:51:48.176Z</time></trkpt><trkpt lat="45.593423" lon="8.908093"><ele>210.99999999999997</ele><time>2026-04-12T07:51:49.162Z</time></trkpt><trkpt lat="45.5934015" lon="8.9079943"><ele>211.0</ele><time>2026-04-12T07:51:51.153Z</time></trkpt><trkpt lat="45.5933461" lon="8.9079082"><ele>211.0</ele><time>2026-04-12T07:52:29.163Z</time></trkpt><trkpt lat="45.5933119" lon="8.9078204"><ele>211.0</ele><time>2026-04-12T07:52:31.159Z</time></trkpt><trkpt lat="45.5932736" lon="8.907692"><ele>210.99999999999997</ele><time>2026-04-12T07:52:32.173Z</time></trkpt><trkpt lat="45.5932407" lon="8.9075592"><ele>211.0</ele><time>2026-04-12T07:52:33.163Z</time></trkpt><trkpt lat="45.5931892" lon="8.9073811"><ele>211.0</ele><time>2026-04-12T07:52:34.157Z</time></trkpt><trkpt lat="45.5931328" lon="8.9072431"><ele>211.0</ele><time>2026-04-12T07:52:35.16Z</time></trkpt><trkpt lat="45.5931121" lon="8.9070986"><ele>211.0</ele><time>2026-04-12T07:52:36.162Z</time></trkpt><trkpt lat="45.5930696" lon="8.9069698"><ele>211.0</ele><time>2026-04-12T07:52:37.163Z</time></trkpt><trkpt lat="45.5930184" lon="8.906839"><ele>211.0</ele><time>2026-04-12T07:52:38.173Z</time></trkpt><trkpt lat="45.5929777" lon="8.9067106"><ele>211.0</ele><time>2026-04-12T07:52:39.162Z</time></trkpt><trkpt lat="45.5929261" lon="8.906572"><ele>211.0</ele><time>2026-04-12T07:52:40.156Z</time></trkpt><trkpt lat="45.5928728" lon="8.9064282"><ele>211.0</ele><time>2026-04-12T07:52:41.162Z</time></trkpt><trkpt lat="45.5928188" lon="8.9062856"><ele>211.0</ele><time>2026-04-12T07:52:42.165Z</time></trkpt><trkpt lat="45.5927705" lon="8.9061395"><ele>211.0</ele><time>2026-04-12T07:52:43.162Z</time></trkpt><trkpt lat="45.5927214" lon="8.9059809"><ele>211.0</ele><time>2026-04-12T07:52:44.202Z</time></trkpt><trkpt lat="45.5926656" lon="8.9058186"><ele>211.0</ele><time>2026-04-12T07:52:45.189Z</time></trkpt><trkpt lat="45.5926125" lon="8.9056436"><ele>211.0</ele><time>2026-04-12T07:52:46.156Z</time></trkpt><trkpt lat="45.5925465" lon="8.9054653"><ele>211.33333333333331</ele><time>2026-04-12T07:52:47.168Z</time></trkpt><trkpt lat="45.5924885" lon="8.9052742"><ele>211.66666666666669</ele><time>2026-04-12T07:52:48.162Z</time></trkpt><trkpt lat="45.5924081" lon="8.905074"><ele>212.0</ele><time>2026-04-12T07:52:49.163Z</time></trkpt><trkpt lat="45.5923353" lon="8.9048785"><ele>212.0</ele><time>2026-04-12T07:52:50.161Z</time></trkpt><trkpt lat="45.5922635" lon="8.9046955"><ele>212.0</ele><time>2026-04-12T07:52:51.167Z</time></trkpt><trkpt lat="45.5921984" lon="8.9045226"><ele>212.0</ele><time>2026-04-12T07:52:52.164Z</time></trkpt><trkpt lat="45.5921312" lon="8.9043685"><ele>212.0</ele><time>2026-04-12T07:52:53.167Z</time></trkpt><trkpt lat="45.5920748" lon="8.9042209"><ele>212.0</ele><time>2026-04-12T07:52:54.16Z</time></trkpt><trkpt lat="45.5920269" lon="8.9040777"><ele>212.0</ele><time>2026-04-12T07:52:55.154Z</time></trkpt><trkpt lat="45.5920027" lon="8.9039288"><ele>212.0</ele><time>2026-04-12T07:52:56.152Z</time></trkpt><trkpt lat="45.5919565" lon="8.9037683"><ele>212.0</ele><time>2026-04-12T07:52:57.163Z</time></trkpt><trkpt lat="45.5919016" lon="8.9035989"><ele>212.0</ele><time>2026-04-12T07:52:58.164Z</time></trkpt><trkpt lat="45.5918509" lon="8.9034181"><ele>212.0</ele><time>2026-04-12T07:52:59.152Z</time></trkpt><trkpt lat="45.5917926" lon="8.9032377"><ele>212.0</ele><time>2026-04-12T07:53:00.192Z</time></trkpt><trkpt lat="45.5917368" lon="8.9030566"><ele>212.0</ele><time>2026-04-12T07:53:01.177Z</time></trkpt><trkpt lat="45.5916837" lon="8.9028827"><ele>212.0</ele><time>2026-04-12T07:53:02.162Z</time></trkpt><trkpt lat="45.5916304" lon="8.9027185"><ele>212.0</ele><time>2026-04-12T07:53:03.193Z</time></trkpt><trkpt lat="45.5915764" lon="8.9025545"><ele>212.0</ele><time>2026-04-12T07:53:04.193Z</time></trkpt><trkpt lat="45.5915249" lon="8.9023965"><ele>212.0</ele><time>2026-04-12T07:53:05.173Z</time></trkpt><trkpt lat="45.5914772" lon="8.9022356"><ele>211.75</ele><time>2026-04-12T07:53:06.165Z</time></trkpt><trkpt lat="45.5914134" lon="8.9020813"><ele>211.5</ele><time>2026-04-12T07:53:07.165Z</time></trkpt><trkpt lat="45.591353" lon="8.9019267"><ele>211.25</ele><time>2026-04-12T07:53:08.163Z</time></trkpt><trkpt lat="45.5912897" lon="8.9017701"><ele>211.0</ele><time>2026-04-12T07:53:09.166Z</time></trkpt><trkpt lat="45.5912317" lon="8.9016112"><ele>210.75</ele><time>2026-04-12T07:53:10.205Z</time></trkpt><trkpt lat="45.5911813" lon="8.9014517"><ele>210.5</ele><time>2026-04-12T07:53:11.156Z</time></trkpt><trkpt lat="45.5911313" lon="8.9012936"><ele>210.25</ele><time>2026-04-12T07:53:12.174Z</time></trkpt><trkpt lat="45.5910795" lon="8.9011469"><ele>210.0</ele><time>2026-04-12T07:53:13.163Z</time></trkpt><trkpt lat="45.5910284" lon="8.9010091"><ele>210.0</ele><time>2026-04-12T07:53:14.194Z</time></trkpt><trkpt lat="45.5909797" lon="8.900884"><ele>210.0</ele><time>2026-04-12T07:53:15.176Z</time></trkpt><trkpt lat="45.5909363" lon="8.9007767"><ele>210.0</ele><time>2026-04-12T07:53:16.16Z</time></trkpt><trkpt lat="45.5908962" lon="8.9006903"><ele>210.0</ele><time>2026-04-12T07:53:17.157Z</time></trkpt><trkpt lat="45.5908525" lon="8.9005277"><ele>210.0</ele><time>2026-04-12T07:53:19.162Z</time></trkpt><trkpt lat="45.5908342" lon="8.900439"><ele>210.0</ele><time>2026-04-12T07:53:20.157Z</time></trkpt><trkpt lat="45.5908143" lon="8.900348"><ele>210.0</ele><time>2026-04-12T07:53:21.155Z</time></trkpt><trkpt lat="45.5907901" lon="8.9002457"><ele>210.0</ele><time>2026-04-12T07:53:22.165Z</time></trkpt><trkpt lat="45.5907635" lon="8.9001257"><ele>210.0</ele><time>2026-04-12T07:53:23.197Z</time></trkpt><trkpt lat="45.5907468" lon="8.8999993"><ele>210.0</ele><time>2026-04-12T07:53:24.198Z</time></trkpt><trkpt lat="45.5907191" lon="8.8998727"><ele>210.0</ele><time>2026-04-12T07:53:25.186Z</time></trkpt><trkpt lat="45.5906007" lon="8.8997801"><ele>209.8</ele><time>2026-04-12T07:53:26.159Z</time></trkpt><trkpt lat="45.5905525" lon="8.8996434"><ele>209.6</ele><time>2026-04-12T07:53:27.164Z</time></trkpt><trkpt lat="45.5905045" lon="8.8995023"><ele>209.39999999999998</ele><time>2026-04-12T07:53:28.161Z</time></trkpt><trkpt lat="45.5904569" lon="8.8993606"><ele>209.2</ele><time>2026-04-12T07:53:29.159Z</time></trkpt><trkpt lat="45.5904074" lon="8.8992184"><ele>209.0</ele><time>2026-04-12T07:53:30.173Z</time></trkpt><trkpt lat="45.5903599" lon="8.8990756"><ele>209.0</ele><time>2026-04-12T07:53:31.159Z</time></trkpt><trkpt lat="45.5903102" lon="8.8989243"><ele>209.0</ele><time>2026-04-12T07:53:32.17Z</time></trkpt><trkpt lat="45.5902559" lon="8.8987542"><ele>209.0</ele><time>2026-04-12T07:53:33.196Z</time></trkpt><trkpt lat="45.5901943" lon="8.8985652"><ele>209.0</ele><time>2026-04-12T07:53:34.194Z</time></trkpt><trkpt lat="45.5901281" lon="8.8983795"><ele>209.0</ele><time>2026-04-12T07:53:35.153Z</time></trkpt><trkpt lat="45.5900616" lon="8.8982026"><ele>209.0</ele><time>2026-04-12T07:53:36.159Z</time></trkpt><trkpt lat="45.5900081" lon="8.8980228"><ele>209.0</ele><time>2026-04-12T07:53:37.165Z</time></trkpt><trkpt lat="45.5899442" lon="8.8978489"><ele>209.0</ele><time>2026-04-12T07:53:38.175Z</time></trkpt><trkpt lat="45.5898827" lon="8.897671"><ele>209.0</ele><time>2026-04-12T07:53:39.166Z</time></trkpt><trkpt lat="45.5898167" lon="8.8974947"><ele>209.0</ele><time>2026-04-12T07:53:40.161Z</time></trkpt><trkpt lat="45.5897509" lon="8.8973227"><ele>209.0</ele><time>2026-04-12T07:53:41.157Z</time></trkpt><trkpt lat="45.5896925" lon="8.8971529"><ele>209.0</ele><time>2026-04-12T07:53:42.161Z</time></trkpt><trkpt lat="45.5896312" lon="8.8969814"><ele>209.0</ele><time>2026-04-12T07:53:43.153Z</time></trkpt><trkpt lat="45.5895684" lon="8.8967995"><ele>209.0</ele><time>2026-04-12T07:53:44.16Z</time></trkpt><trkpt lat="45.5895089" lon="8.8966089"><ele>209.0</ele><time>2026-04-12T07:53:45.16Z</time></trkpt><trkpt lat="45.5894543" lon="8.8964095"><ele>209.0</ele><time>2026-04-12T07:53:46.154Z</time></trkpt><trkpt lat="45.5893935" lon="8.8962081"><ele>209.25</ele><time>2026-04-12T07:53:47.162Z</time></trkpt><trkpt lat="45.5893311" lon="8.8960221"><ele>209.5</ele><time>2026-04-12T07:53:48.158Z</time></trkpt><trkpt lat="45.5892692" lon="8.8958374"><ele>209.75</ele><time>2026-04-12T07:53:49.165Z</time></trkpt><trkpt lat="45.5892061" lon="8.8956619"><ele>210.0</ele><time>2026-04-12T07:53:50.167Z</time></trkpt><trkpt lat="45.5891509" lon="8.8954903"><ele>209.75</ele><time>2026-04-12T07:53:51.165Z</time></trkpt><trkpt lat="45.5890955" lon="8.8953251"><ele>209.5</ele><time>2026-04-12T07:53:52.163Z</time></trkpt><trkpt lat="45.5890409" lon="8.8951649"><ele>209.25</ele><time>2026-04-12T07:53:53.156Z</time></trkpt><trkpt lat="45.5889883" lon="8.8950067"><ele>209.0</ele><time>2026-04-12T07:53:54.159Z</time></trkpt><trkpt lat="45.588938" lon="8.8948517"><ele>209.0</ele><time>2026-04-12T07:53:55.197Z</time></trkpt><trkpt lat="45.5888852" lon="8.8946974"><ele>209.0</ele><time>2026-04-12T07:53:56.16Z</time></trkpt><trkpt lat="45.5888341" lon="8.8945441"><ele>209.0</ele><time>2026-04-12T07:53:57.167Z</time></trkpt><trkpt lat="45.5887861" lon="8.8943917"><ele>209.0</ele><time>2026-04-12T07:53:58.176Z</time></trkpt><trkpt lat="45.5887362" lon="8.8942394"><ele>209.0</ele><time>2026-04-12T07:53:59.162Z</time></trkpt><trkpt lat="45.5886869" lon="8.8940842"><ele>209.0</ele><time>2026-04-12T07:54:00.167Z</time></trkpt><trkpt lat="45.5886367" lon="8.8939292"><ele>209.0</ele><time>2026-04-12T07:54:01.157Z</time></trkpt><trkpt lat="45.5885853" lon="8.8937749"><ele>209.0</ele><time>2026-04-12T07:54:02.158Z</time></trkpt><trkpt lat="45.5885327" lon="8.8936256"><ele>209.0</ele><time>2026-04-12T07:54:03.159Z</time></trkpt><trkpt lat="45.5884812" lon="8.8934917"><ele>209.0</ele><time>2026-04-12T07:54:04.161Z</time></trkpt><trkpt lat="45.5884339" lon="8.8933683"><ele>209.0</ele><time>2026-04-12T07:54:05.2Z</time></trkpt><trkpt lat="45.5883977" lon="8.8932432"><ele>209.0</ele><time>2026-04-12T07:54:06.159Z</time></trkpt><trkpt lat="45.5883523" lon="8.8930854"><ele>209.0</ele><time>2026-04-12T07:54:07.163Z</time></trkpt><trkpt lat="45.5883109" lon="8.8928811"><ele>208.66666666666669</ele><time>2026-04-12T07:54:08.161Z</time></trkpt><trkpt lat="45.5882677" lon="8.8926358"><ele>208.33333333333331</ele><time>2026-04-12T07:54:09.156Z</time></trkpt><trkpt lat="45.5882216" lon="8.8923587"><ele>208.0</ele><time>2026-04-12T07:54:10.163Z</time></trkpt><trkpt lat="45.5881522" lon="8.8920576"><ele>207.5</ele><time>2026-04-12T07:54:11.161Z</time></trkpt><trkpt lat="45.5880075" lon="8.8916947"><ele>207.0</ele><time>2026-04-12T07:54:12.164Z</time></trkpt><trkpt lat="45.5878802" lon="8.8913359"><ele>207.5</ele><time>2026-04-12T07:54:13.161Z</time></trkpt><trkpt lat="45.5877765" lon="8.8909946"><ele>208.0</ele><time>2026-04-12T07:54:14.197Z</time></trkpt><trkpt lat="45.5876364" lon="8.890666"><ele>208.0</ele><time>2026-04-12T07:54:15.187Z</time></trkpt><trkpt lat="45.587533" lon="8.8903875"><ele>208.0</ele><time>2026-04-12T07:54:16.162Z</time></trkpt><trkpt lat="45.5874331" lon="8.8901416"><ele>208.0</ele><time>2026-04-12T07:54:17.144Z</time></trkpt><trkpt lat="45.5873543" lon="8.8899332"><ele>208.0</ele><time>2026-04-12T07:54:18.169Z</time></trkpt><trkpt lat="45.5872961" lon="8.8897476"><ele>208.0</ele><time>2026-04-12T07:54:19.162Z</time></trkpt><trkpt lat="45.587263" lon="8.8895967"><ele>208.0</ele><time>2026-04-12T07:54:20.156Z</time></trkpt><trkpt lat="45.5872458" lon="8.8894596"><ele>208.0</ele><time>2026-04-12T07:54:21.162Z</time></trkpt><trkpt lat="45.58724" lon="8.8893352"><ele>208.0</ele><time>2026-04-12T07:54:22.164Z</time></trkpt><trkpt lat="45.5872278" lon="8.8892276"><ele>207.99999999999997</ele><time>2026-04-12T07:54:23.175Z</time></trkpt><trkpt lat="45.5871958" lon="8.8891361"><ele>208.0</ele><time>2026-04-12T07:54:24.16Z</time></trkpt><trkpt lat="45.5871436" lon="8.8890625"><ele>208.0</ele><time>2026-04-12T07:54:25.187Z</time></trkpt><trkpt lat="45.5870814" lon="8.8889807"><ele>208.0</ele><time>2026-04-12T07:54:26.155Z</time></trkpt><trkpt lat="45.5870255" lon="8.8888852"><ele>207.99999999999997</ele><time>2026-04-12T07:54:27.158Z</time></trkpt><trkpt lat="45.5869768" lon="8.8887805"><ele>208.0</ele><time>2026-04-12T07:54:28.195Z</time></trkpt><trkpt lat="45.586933" lon="8.8886565"><ele>208.25</ele><time>2026-04-12T07:54:29.173Z</time></trkpt><trkpt lat="45.5868909" lon="8.8885246"><ele>208.5</ele><time>2026-04-12T07:54:30.162Z</time></trkpt><trkpt lat="45.5868461" lon="8.8883822"><ele>208.75</ele><time>2026-04-12T07:54:31.148Z</time></trkpt><trkpt lat="45.5867965" lon="8.8882326"><ele>209.0</ele><time>2026-04-12T07:54:32.16Z</time></trkpt><trkpt lat="45.5867484" lon="8.8880671"><ele>209.25</ele><time>2026-04-12T07:54:33.165Z</time></trkpt><trkpt lat="45.5866955" lon="8.8878963"><ele>209.5</ele><time>2026-04-12T07:54:34.163Z</time></trkpt><trkpt lat="45.5866428" lon="8.887733"><ele>209.75</ele><time>2026-04-12T07:54:35.163Z</time></trkpt><trkpt lat="45.586591" lon="8.8875726"><ele>210.0</ele><time>2026-04-12T07:54:36.163Z</time></trkpt><trkpt lat="45.5865386" lon="8.8874135"><ele>209.5</ele><time>2026-04-12T07:54:37.158Z</time></trkpt><trkpt lat="45.5864828" lon="8.8872515"><ele>209.0</ele><time>2026-04-12T07:54:38.16Z</time></trkpt><trkpt lat="45.586429" lon="8.8870903"><ele>208.5</ele><time>2026-04-12T07:54:39.16Z</time></trkpt><trkpt lat="45.5863828" lon="8.8869367"><ele>208.0</ele><time>2026-04-12T07:54:40.162Z</time></trkpt><trkpt lat="45.5863492" lon="8.8867868"><ele>207.60000000000002</ele><time>2026-04-12T07:54:41.159Z</time></trkpt><trkpt lat="45.5863383" lon="8.8866319"><ele>207.20000000000002</ele><time>2026-04-12T07:54:42.166Z</time></trkpt><trkpt lat="45.586345" lon="8.8864731"><ele>206.8</ele><time>2026-04-12T07:54:43.164Z</time></trkpt><trkpt lat="45.5863448" lon="8.8863204"><ele>206.4</ele><time>2026-04-12T07:54:44.157Z</time></trkpt><trkpt lat="45.5863178" lon="8.8861796"><ele>206.0</ele><time>2026-04-12T07:54:45.162Z</time></trkpt><trkpt lat="45.5862596" lon="8.8860504"><ele>206.0</ele><time>2026-04-12T07:54:46.158Z</time></trkpt><trkpt lat="45.5861739" lon="8.8859304"><ele>206.0</ele><time>2026-04-12T07:54:47.162Z</time></trkpt><trkpt lat="45.5860807" lon="8.8857982"><ele>206.0</ele><time>2026-04-12T07:54:48.162Z</time></trkpt><trkpt lat="45.5859989" lon="8.8856512"><ele>206.0</ele><time>2026-04-12T07:54:49.162Z</time></trkpt><trkpt lat="45.585928" lon="8.8854821"><ele>206.0</ele><time>2026-04-12T07:54:50.158Z</time></trkpt><trkpt lat="45.5858611" lon="8.885297"><ele>206.0</ele><time>2026-04-12T07:54:51.162Z</time></trkpt><trkpt lat="45.585796" lon="8.8851006"><ele>206.0</ele><time>2026-04-12T07:54:52.157Z</time></trkpt><trkpt lat="45.5857304" lon="8.8848924"><ele>205.66666666666669</ele><time>2026-04-12T07:54:53.165Z</time></trkpt><trkpt lat="45.585659" lon="8.8846753"><ele>205.33333333333331</ele><time>2026-04-12T07:54:54.167Z</time></trkpt><trkpt lat="45.5855865" lon="8.8844578"><ele>205.0</ele><time>2026-04-12T07:54:55.167Z</time></trkpt><trkpt lat="45.5855148" lon="8.8842433"><ele>205.0</ele><time>2026-04-12T07:54:56.155Z</time></trkpt><trkpt lat="45.585445" lon="8.8840346"><ele>205.0</ele><time>2026-04-12T07:54:57.167Z</time></trkpt><trkpt lat="45.585379" lon="8.8838353"><ele>205.0</ele><time>2026-04-12T07:54:58.161Z</time></trkpt><trkpt lat="45.5853143" lon="8.8836387"><ele>205.0</ele><time>2026-04-12T07:54:59.165Z</time></trkpt><trkpt lat="45.5852492" lon="8.8834417"><ele>205.0</ele><time>2026-04-12T07:55:00.16Z</time></trkpt><trkpt lat="45.5851821" lon="8.8832403"><ele>205.0</ele><time>2026-04-12T07:55:01.157Z</time></trkpt><trkpt lat="45.5851143" lon="8.8830387"><ele>205.33333333333331</ele><time>2026-04-12T07:55:02.167Z</time></trkpt><trkpt lat="45.585047" lon="8.8828345"><ele>205.66666666666669</ele><time>2026-04-12T07:55:03.164Z</time></trkpt><trkpt lat="45.5849792" lon="8.8826297"><ele>206.0</ele><time>2026-04-12T07:55:04.163Z</time></trkpt><trkpt lat="45.5849094" lon="8.8824245"><ele>205.66666666666669</ele><time>2026-04-12T07:55:05.158Z</time></trkpt><trkpt lat="45.5848373" lon="8.8822169"><ele>205.33333333333331</ele><time>2026-04-12T07:55:06.161Z</time></trkpt><trkpt lat="45.5847618" lon="8.8819931"><ele>205.0</ele><time>2026-04-12T07:55:07.159Z</time></trkpt><trkpt lat="45.5846787" lon="8.8817482"><ele>205.0</ele><time>2026-04-12T07:55:08.157Z</time></trkpt><trkpt lat="45.5845829" lon="8.8814714"><ele>205.0</ele><time>2026-04-12T07:55:09.159Z</time></trkpt><trkpt lat="45.5844795" lon="8.881169"><ele>205.5</ele><time>2026-04-12T07:55:10.159Z</time></trkpt><trkpt lat="45.5843744" lon="8.880862"><ele>206.0</ele><time>2026-04-12T07:55:11.167Z</time></trkpt><trkpt lat="45.5842671" lon="8.8805506"><ele>206.0</ele><time>2026-04-12T07:55:12.164Z</time></trkpt><trkpt lat="45.584162" lon="8.88024"><ele>206.0</ele><time>2026-04-12T07:55:13.164Z</time></trkpt><trkpt lat="45.5840617" lon="8.8799405"><ele>205.66666666666669</ele><time>2026-04-12T07:55:14.156Z</time></trkpt><trkpt lat="45.5839659" lon="8.8796532"><ele>205.33333333333331</ele><time>2026-04-12T07:55:15.159Z</time></trkpt><trkpt lat="45.5838731" lon="8.879378"><ele>205.0</ele><time>2026-04-12T07:55:16.164Z</time></trkpt><trkpt lat="45.583781" lon="8.8791162"><ele>204.66666666666666</ele><time>2026-04-12T07:55:17.161Z</time></trkpt><trkpt lat="45.5836911" lon="8.8788663"><ele>204.33333333333331</ele><time>2026-04-12T07:55:18.169Z</time></trkpt><trkpt lat="45.5836007" lon="8.87862"><ele>204.0</ele><time>2026-04-12T07:55:19.161Z</time></trkpt><trkpt lat="45.5835055" lon="8.878369"><ele>204.33333333333331</ele><time>2026-04-12T07:55:20.161Z</time></trkpt><trkpt lat="45.5834076" lon="8.8781068"><ele>204.66666666666666</ele><time>2026-04-12T07:55:21.165Z</time></trkpt><trkpt lat="45.5833094" lon="8.8778332"><ele>205.0</ele><time>2026-04-12T07:55:22.154Z</time></trkpt><trkpt lat="45.5832067" lon="8.877548"><ele>205.0</ele><time>2026-04-12T07:55:23.166Z</time></trkpt><trkpt lat="45.5831011" lon="8.8772579"><ele>205.0</ele><time>2026-04-12T07:55:24.159Z</time></trkpt><trkpt lat="45.5830027" lon="8.8769839"><ele>205.0</ele><time>2026-04-12T07:55:25.161Z</time></trkpt><trkpt lat="45.5829141" lon="8.8767381"><ele>205.25</ele><time>2026-04-12T07:55:26.163Z</time></trkpt><trkpt lat="45.5828418" lon="8.876531"><ele>205.5</ele><time>2026-04-12T07:55:27.16Z</time></trkpt><trkpt lat="45.5827793" lon="8.8763479"><ele>205.75</ele><time>2026-04-12T07:55:28.164Z</time></trkpt><trkpt lat="45.5827251" lon="8.8761893"><ele>206.0</ele><time>2026-04-12T07:55:29.165Z</time></trkpt><trkpt lat="45.5826801" lon="8.8760525"><ele>206.00000000000003</ele><time>2026-04-12T07:55:30.167Z</time></trkpt><trkpt lat="45.5826425" lon="8.8759388"><ele>206.0</ele><time>2026-04-12T07:55:31.162Z</time></trkpt><trkpt lat="45.5826123" lon="8.8758456"><ele>206.0</ele><time>2026-04-12T07:55:32.195Z</time></trkpt><trkpt lat="45.5825716" lon="8.8757167"><ele>206.0</ele><time>2026-04-12T07:55:34.16Z</time></trkpt><trkpt lat="45.5825433" lon="8.8756232"><ele>206.00000000000003</ele><time>2026-04-12T07:55:45.163Z</time></trkpt><trkpt lat="45.5825074" lon="8.8755327"><ele>206.0</ele><time>2026-04-12T07:55:47.157Z</time></trkpt><trkpt lat="45.5824767" lon="8.8754385"><ele>206.5</ele><time>2026-04-12T07:55:48.153Z</time></trkpt><trkpt lat="45.5824335" lon="8.8753131"><ele>207.0</ele><time>2026-04-12T07:55:49.141Z</time></trkpt><trkpt lat="45.5823818" lon="8.8751677"><ele>207.5</ele><time>2026-04-12T07:55:50.166Z</time></trkpt><trkpt lat="45.5823161" lon="8.8749991"><ele>208.0</ele><time>2026-04-12T07:55:51.166Z</time></trkpt><trkpt lat="45.5822499" lon="8.8748095"><ele>208.33333333333331</ele><time>2026-04-12T07:55:52.165Z</time></trkpt><trkpt lat="45.5821793" lon="8.8745809"><ele>208.66666666666669</ele><time>2026-04-12T07:55:53.174Z</time></trkpt><trkpt lat="45.5820944" lon="8.874322"><ele>209.0</ele><time>2026-04-12T07:55:54.172Z</time></trkpt><trkpt lat="45.581993" lon="8.8740145"><ele>208.0</ele><time>2026-04-12T07:55:55.162Z</time></trkpt><trkpt lat="45.5818772" lon="8.8736686"><ele>207.0</ele><time>2026-04-12T07:55:56.165Z</time></trkpt><trkpt lat="45.5817549" lon="8.8732855"><ele>207.0</ele><time>2026-04-12T07:55:57.158Z</time></trkpt><trkpt lat="45.5816329" lon="8.8729097"><ele>207.0</ele><time>2026-04-12T07:55:58.165Z</time></trkpt><trkpt lat="45.5815182" lon="8.8725591"><ele>207.0</ele><time>2026-04-12T07:55:59.163Z</time></trkpt><trkpt lat="45.5814133" lon="8.8722413"><ele>207.0</ele><time>2026-04-12T07:56:00.158Z</time></trkpt><trkpt lat="45.5813185" lon="8.8719501"><ele>207.33333333333331</ele><time>2026-04-12T07:56:01.17Z</time></trkpt><trkpt lat="45.5812305" lon="8.8716823"><ele>207.66666666666666</ele><time>2026-04-12T07:56:02.166Z</time></trkpt><trkpt lat="45.5811484" lon="8.871436"><ele>208.0</ele><time>2026-04-12T07:56:03.159Z</time></trkpt><trkpt lat="45.5810726" lon="8.8712076"><ele>207.33333333333331</ele><time>2026-04-12T07:56:04.164Z</time></trkpt><trkpt lat="45.581002" lon="8.8709952"><ele>206.66666666666669</ele><time>2026-04-12T07:56:05.161Z</time></trkpt><trkpt lat="45.5809365" lon="8.870797"><ele>206.0</ele><time>2026-04-12T07:56:06.167Z</time></trkpt><trkpt lat="45.580876" lon="8.8706109"><ele>205.75</ele><time>2026-04-12T07:56:07.163Z</time></trkpt><trkpt lat="45.5808252" lon="8.8704383"><ele>205.5</ele><time>2026-04-12T07:56:08.167Z</time></trkpt><trkpt lat="45.5807861" lon="8.8702739"><ele>205.25</ele><time>2026-04-12T07:56:09.17Z</time></trkpt><trkpt lat="45.5807637" lon="8.8701155"><ele>205.0</ele><time>2026-04-12T07:56:10.161Z</time></trkpt><trkpt lat="45.5807517" lon="8.8699629"><ele>205.0</ele><time>2026-04-12T07:56:11.168Z</time></trkpt><trkpt lat="45.580723" lon="8.8698228"><ele>205.0</ele><time>2026-04-12T07:56:12.162Z</time></trkpt><trkpt lat="45.5806631" lon="8.8696943"><ele>205.0</ele><time>2026-04-12T07:56:13.165Z</time></trkpt><trkpt lat="45.5805745" lon="8.8695649"><ele>205.0</ele><time>2026-04-12T07:56:14.196Z</time></trkpt><trkpt lat="45.5804828" lon="8.8693928"><ele>205.0</ele><time>2026-04-12T07:56:15.17Z</time></trkpt><trkpt lat="45.5803861" lon="8.8691679"><ele>205.0</ele><time>2026-04-12T07:56:16.159Z</time></trkpt><trkpt lat="45.58029" lon="8.8688933"><ele>205.0</ele><time>2026-04-12T07:56:17.172Z</time></trkpt><trkpt lat="45.5801992" lon="8.8686082"><ele>205.5</ele><time>2026-04-12T07:56:18.197Z</time></trkpt><trkpt lat="45.580116" lon="8.8683078"><ele>206.0</ele><time>2026-04-12T07:56:19.159Z</time></trkpt><trkpt lat="45.5800437" lon="8.8679999"><ele>206.0</ele><time>2026-04-12T07:56:20.198Z</time></trkpt><trkpt lat="45.579991" lon="8.8676904"><ele>206.0</ele><time>2026-04-12T07:56:21.174Z</time></trkpt><trkpt lat="45.5799667" lon="8.8673676"><ele>206.0</ele><time>2026-04-12T07:56:22.165Z</time></trkpt><trkpt lat="45.5799707" lon="8.8670322"><ele>206.0</ele><time>2026-04-12T07:56:23.194Z</time></trkpt><trkpt lat="45.5799932" lon="8.8667032"><ele>205.66666666666669</ele><time>2026-04-12T07:56:24.212Z</time></trkpt><trkpt lat="45.5800288" lon="8.8663831"><ele>205.33333333333331</ele><time>2026-04-12T07:56:25.168Z</time></trkpt><trkpt lat="45.5800755" lon="8.8660778"><ele>205.0</ele><time>2026-04-12T07:56:26.154Z</time></trkpt><trkpt lat="45.5801151" lon="8.8657754"><ele>205.0</ele><time>2026-04-12T07:56:27.162Z</time></trkpt><trkpt lat="45.5801526" lon="8.8654828"><ele>205.0</ele><time>2026-04-12T07:56:28.2Z</time></trkpt><trkpt lat="45.5801896" lon="8.865194"><ele>205.0</ele><time>2026-04-12T07:56:29.173Z</time></trkpt><trkpt lat="45.5802249" lon="8.864911"><ele>205.0</ele><time>2026-04-12T07:56:30.163Z</time></trkpt><trkpt lat="45.5802587" lon="8.8646315"><ele>205.0</ele><time>2026-04-12T07:56:31.155Z</time></trkpt><trkpt lat="45.5802941" lon="8.8643541"><ele>205.0</ele><time>2026-04-12T07:56:32.16Z</time></trkpt><trkpt lat="45.5803283" lon="8.8640779"><ele>204.5</ele><time>2026-04-12T07:56:33.195Z</time></trkpt><trkpt lat="45.5803611" lon="8.8638"><ele>204.0</ele><time>2026-04-12T07:56:34.151Z</time></trkpt><trkpt lat="45.5804249" lon="8.8632444"><ele>204.0</ele><time>2026-04-12T07:56:36.153Z</time></trkpt><trkpt lat="45.5804555" lon="8.8629704"><ele>204.0</ele><time>2026-04-12T07:56:37.163Z</time></trkpt><trkpt lat="45.5804908" lon="8.8627038"><ele>204.0</ele><time>2026-04-12T07:56:38.197Z</time></trkpt><trkpt lat="45.5805235" lon="8.8624399"><ele>204.0</ele><time>2026-04-12T07:56:39.157Z</time></trkpt><trkpt lat="45.5805535" lon="8.8621804"><ele>204.0</ele><time>2026-04-12T07:56:40.189Z</time></trkpt><trkpt lat="45.580584" lon="8.8619221"><ele>204.0</ele><time>2026-04-12T07:56:41.159Z</time></trkpt><trkpt lat="45.580613" lon="8.8616682"><ele>204.0</ele><time>2026-04-12T07:56:42.166Z</time></trkpt><trkpt lat="45.5806438" lon="8.861417"><ele>204.0</ele><time>2026-04-12T07:56:43.167Z</time></trkpt><trkpt lat="45.5806749" lon="8.861169"><ele>204.0</ele><time>2026-04-12T07:56:44.16Z</time></trkpt><trkpt lat="45.5807038" lon="8.8609242"><ele>204.0</ele><time>2026-04-12T07:56:45.162Z</time></trkpt><trkpt lat="45.5807345" lon="8.8606834"><ele>204.0</ele><time>2026-04-12T07:56:46.164Z</time></trkpt><trkpt lat="45.5807624" lon="8.8604445"><ele>204.0</ele><time>2026-04-12T07:56:47.161Z</time></trkpt><trkpt lat="45.5807888" lon="8.8602111"><ele>204.0</ele><time>2026-04-12T07:56:48.152Z</time></trkpt><trkpt lat="45.5808161" lon="8.8599836"><ele>204.0</ele><time>2026-04-12T07:56:49.158Z</time></trkpt><trkpt lat="45.5808687" lon="8.859544"><ele>204.0</ele><time>2026-04-12T07:56:51.163Z</time></trkpt><trkpt lat="45.5808961" lon="8.8593361"><ele>204.0</ele><time>2026-04-12T07:56:52.159Z</time></trkpt><trkpt lat="45.58092" lon="8.8591339"><ele>204.0</ele><time>2026-04-12T07:56:53.168Z</time></trkpt><trkpt lat="45.5809436" lon="8.858948"><ele>204.0</ele><time>2026-04-12T07:56:54.159Z</time></trkpt><trkpt lat="45.5809651" lon="8.8587741"><ele>204.39999999999998</ele><time>2026-04-12T07:56:55.162Z</time></trkpt><trkpt lat="45.580985" lon="8.8586106"><ele>204.8</ele><time>2026-04-12T07:56:56.158Z</time></trkpt><trkpt lat="45.5810091" lon="8.858462"><ele>205.2</ele><time>2026-04-12T07:56:57.163Z</time></trkpt><trkpt lat="45.5810367" lon="8.8583249"><ele>205.60000000000002</ele><time>2026-04-12T07:56:58.161Z</time></trkpt><trkpt lat="45.5810704" lon="8.858187"><ele>206.0</ele><time>2026-04-12T07:56:59.171Z</time></trkpt><trkpt lat="45.5811003" lon="8.8580581"><ele>206.0</ele><time>2026-04-12T07:57:00.199Z</time></trkpt><trkpt lat="45.5811171" lon="8.8579215"><ele>206.0</ele><time>2026-04-12T07:57:01.152Z</time></trkpt><trkpt lat="45.5811197" lon="8.8577605"><ele>206.0</ele><time>2026-04-12T07:57:02.165Z</time></trkpt><trkpt lat="45.581125" lon="8.857575"><ele>206.0</ele><time>2026-04-12T07:57:03.195Z</time></trkpt><trkpt lat="45.5811427" lon="8.8573596"><ele>206.0</ele><time>2026-04-12T07:57:04.167Z</time></trkpt><trkpt lat="45.5811711" lon="8.8571103"><ele>206.0</ele><time>2026-04-12T07:57:05.171Z</time></trkpt><trkpt lat="45.581206" lon="8.8568299"><ele>206.0</ele><time>2026-04-12T07:57:06.162Z</time></trkpt><trkpt lat="45.5812429" lon="8.8565357"><ele>206.33333333333334</ele><time>2026-04-12T07:57:07.165Z</time></trkpt><trkpt lat="45.5812796" lon="8.8562442"><ele>206.66666666666669</ele><time>2026-04-12T07:57:08.164Z</time></trkpt><trkpt lat="45.5813135" lon="8.8559615"><ele>207.0</ele><time>2026-04-12T07:57:09.161Z</time></trkpt><trkpt lat="45.5813483" lon="8.8556889"><ele>207.0</ele><time>2026-04-12T07:57:10.167Z</time></trkpt><trkpt lat="45.5813822" lon="8.8554244"><ele>207.0</ele><time>2026-04-12T07:57:11.161Z</time></trkpt><trkpt lat="45.581417" lon="8.8551672"><ele>207.0</ele><time>2026-04-12T07:57:12.16Z</time></trkpt><trkpt lat="45.5814476" lon="8.8549095"><ele>207.0</ele><time>2026-04-12T07:57:13.163Z</time></trkpt><trkpt lat="45.5814776" lon="8.854655"><ele>207.0</ele><time>2026-04-12T07:57:14.154Z</time></trkpt><trkpt lat="45.5815069" lon="8.8544053"><ele>207.0</ele><time>2026-04-12T07:57:15.199Z</time></trkpt><trkpt lat="45.5815351" lon="8.8541529"><ele>206.66666666666669</ele><time>2026-04-12T07:57:16.157Z</time></trkpt><trkpt lat="45.5815634" lon="8.8539003"><ele>206.33333333333334</ele><time>2026-04-12T07:57:17.206Z</time></trkpt><trkpt lat="45.5815928" lon="8.8536436"><ele>206.0</ele><time>2026-04-12T07:57:18.16Z</time></trkpt><trkpt lat="45.5816206" lon="8.8533873"><ele>206.66666666666669</ele><time>2026-04-12T07:57:19.155Z</time></trkpt><trkpt lat="45.5816496" lon="8.8531313"><ele>207.33333333333331</ele><time>2026-04-12T07:57:20.156Z</time></trkpt><trkpt lat="45.5816798" lon="8.8528766"><ele>208.0</ele><time>2026-04-12T07:57:21.162Z</time></trkpt><trkpt lat="45.5817111" lon="8.8526259"><ele>208.0</ele><time>2026-04-12T07:57:22.155Z</time></trkpt><trkpt lat="45.5817396" lon="8.852377"><ele>208.0</ele><time>2026-04-12T07:57:23.147Z</time></trkpt><trkpt lat="45.5817714" lon="8.8521392"><ele>208.0</ele><time>2026-04-12T07:57:24.16Z</time></trkpt><trkpt lat="45.5818067" lon="8.8519171"><ele>207.33333333333331</ele><time>2026-04-12T07:57:25.199Z</time></trkpt><trkpt lat="45.5818391" lon="8.8516834"><ele>206.66666666666669</ele><time>2026-04-12T07:57:26.161Z</time></trkpt><trkpt lat="45.5818671" lon="8.8514368"><ele>206.0</ele><time>2026-04-12T07:57:27.157Z</time></trkpt><trkpt lat="45.5818946" lon="8.8511761"><ele>206.33333333333334</ele><time>2026-04-12T07:57:28.158Z</time></trkpt><trkpt lat="45.5819253" lon="8.8509168"><ele>206.66666666666669</ele><time>2026-04-12T07:57:29.198Z</time></trkpt><trkpt lat="45.5819558" lon="8.8506558"><ele>207.0</ele><time>2026-04-12T07:57:30.197Z</time></trkpt><trkpt lat="45.5819876" lon="8.850397"><ele>207.0</ele><time>2026-04-12T07:57:31.166Z</time></trkpt><trkpt lat="45.5820216" lon="8.8501429"><ele>207.0</ele><time>2026-04-12T07:57:32.153Z</time></trkpt><trkpt lat="45.5820529" lon="8.8498833"><ele>207.0</ele><time>2026-04-12T07:57:33.173Z</time></trkpt><trkpt lat="45.5820846" lon="8.849624"><ele>206.66666666666669</ele><time>2026-04-12T07:57:34.161Z</time></trkpt><trkpt lat="45.582119" lon="8.8493642"><ele>206.33333333333334</ele><time>2026-04-12T07:57:35.165Z</time></trkpt><trkpt lat="45.5821523" lon="8.8491082"><ele>206.0</ele><time>2026-04-12T07:57:36.153Z</time></trkpt><trkpt lat="45.5821851" lon="8.8488632"><ele>206.0</ele><time>2026-04-12T07:57:37.164Z</time></trkpt><trkpt lat="45.5822172" lon="8.8486206"><ele>206.0</ele><time>2026-04-12T07:57:38.161Z</time></trkpt><trkpt lat="45.582246" lon="8.8483776"><ele>206.0</ele><time>2026-04-12T07:57:39.168Z</time></trkpt><trkpt lat="45.582267" lon="8.8481338"><ele>206.0</ele><time>2026-04-12T07:57:40.16Z</time></trkpt><trkpt lat="45.5822969" lon="8.8478893"><ele>206.0</ele><time>2026-04-12T07:57:41.162Z</time></trkpt><trkpt lat="45.5823266" lon="8.8476394"><ele>206.0</ele><time>2026-04-12T07:57:42.164Z</time></trkpt><trkpt lat="45.5823603" lon="8.8473957"><ele>206.0</ele><time>2026-04-12T07:57:43.174Z</time></trkpt><trkpt lat="45.582394" lon="8.8471518"><ele>206.0</ele><time>2026-04-12T07:57:44.157Z</time></trkpt><trkpt lat="45.5824238" lon="8.8469079"><ele>206.0</ele><time>2026-04-12T07:57:45.164Z</time></trkpt><trkpt lat="45.5824518" lon="8.8466604"><ele>206.0</ele><time>2026-04-12T07:57:46.164Z</time></trkpt><trkpt lat="45.5824803" lon="8.8464101"><ele>206.0</ele><time>2026-04-12T07:57:47.163Z</time></trkpt><trkpt lat="45.5825089" lon="8.8461545"><ele>206.0</ele><time>2026-04-12T07:57:48.167Z</time></trkpt><trkpt lat="45.5825393" lon="8.8458988"><ele>206.0</ele><time>2026-04-12T07:57:49.164Z</time></trkpt><trkpt lat="45.5825709" lon="8.8456418"><ele>206.0</ele><time>2026-04-12T07:57:50.168Z</time></trkpt><trkpt lat="45.582603" lon="8.8453832"><ele>206.0</ele><time>2026-04-12T07:57:51.16Z</time></trkpt><trkpt lat="45.5826355" lon="8.8451259"><ele>205.66666666666669</ele><time>2026-04-12T07:57:52.166Z</time></trkpt><trkpt lat="45.5826669" lon="8.844872"><ele>205.33333333333331</ele><time>2026-04-12T07:57:53.154Z</time></trkpt><trkpt lat="45.5826977" lon="8.8446278"><ele>205.0</ele><time>2026-04-12T07:57:54.167Z</time></trkpt><trkpt lat="45.5827272" lon="8.8443954"><ele>205.0</ele><time>2026-04-12T07:57:55.169Z</time></trkpt><trkpt lat="45.582755" lon="8.8441729"><ele>205.0</ele><time>2026-04-12T07:57:56.155Z</time></trkpt><trkpt lat="45.5827808" lon="8.8439639"><ele>205.0</ele><time>2026-04-12T07:57:57.166Z</time></trkpt><trkpt lat="45.5828057" lon="8.843767"><ele>205.0</ele><time>2026-04-12T07:57:58.194Z</time></trkpt><trkpt lat="45.5828293" lon="8.8435803"><ele>205.2</ele><time>2026-04-12T07:57:59.172Z</time></trkpt><trkpt lat="45.5828574" lon="8.8434065"><ele>205.4</ele><time>2026-04-12T07:58:00.17Z</time></trkpt><trkpt lat="45.5828932" lon="8.8432488"><ele>205.60000000000002</ele><time>2026-04-12T07:58:01.157Z</time></trkpt><trkpt lat="45.5829419" lon="8.8431135"><ele>205.8</ele><time>2026-04-12T07:58:02.166Z</time></trkpt><trkpt lat="45.5830037" lon="8.8430002"><ele>206.0</ele><time>2026-04-12T07:58:03.16Z</time></trkpt><trkpt lat="45.5830512" lon="8.8428865"><ele>206.00000000000003</ele><time>2026-04-12T07:58:04.164Z</time></trkpt><trkpt lat="45.5830664" lon="8.8427746"><ele>206.0</ele><time>2026-04-12T07:58:05.158Z</time></trkpt><trkpt lat="45.5830482" lon="8.8426793"><ele>206.0</ele><time>2026-04-12T07:58:06.157Z</time></trkpt><trkpt lat="45.5829955" lon="8.8426028"><ele>206.0</ele><time>2026-04-12T07:58:07.162Z</time></trkpt><trkpt lat="45.5829113" lon="8.842532"><ele>206.00000000000003</ele><time>2026-04-12T07:58:08.169Z</time></trkpt><trkpt lat="45.582822" lon="8.8424399"><ele>206.0</ele><time>2026-04-12T07:58:09.152Z</time></trkpt><trkpt lat="45.5827297" lon="8.8423109"><ele>205.25</ele><time>2026-04-12T07:58:10.192Z</time></trkpt><trkpt lat="45.582643" lon="8.8421485"><ele>204.5</ele><time>2026-04-12T07:58:11.156Z</time></trkpt><trkpt lat="45.5825629" lon="8.8419803"><ele>203.75</ele><time>2026-04-12T07:58:12.16Z</time></trkpt><trkpt lat="45.5824967" lon="8.8418165"><ele>203.0</ele><time>2026-04-12T07:58:13.173Z</time></trkpt><trkpt lat="45.5824274" lon="8.8416452"><ele>203.0</ele><time>2026-04-12T07:58:14.196Z</time></trkpt><trkpt lat="45.5823553" lon="8.8414706"><ele>203.0</ele><time>2026-04-12T07:58:15.202Z</time></trkpt><trkpt lat="45.5822829" lon="8.8412898"><ele>203.0</ele><time>2026-04-12T07:58:16.163Z</time></trkpt><trkpt lat="45.58221" lon="8.8411061"><ele>203.0</ele><time>2026-04-12T07:58:17.166Z</time></trkpt><trkpt lat="45.5821202" lon="8.8408981"><ele>203.0</ele><time>2026-04-12T07:58:18.175Z</time></trkpt><trkpt lat="45.5820229" lon="8.8406751"><ele>203.0</ele><time>2026-04-12T07:58:19.156Z</time></trkpt><trkpt lat="45.5819277" lon="8.8404556"><ele>203.0</ele><time>2026-04-12T07:58:20.156Z</time></trkpt><trkpt lat="45.5818418" lon="8.8402441"><ele>202.0</ele><time>2026-04-12T07:58:21.163Z</time></trkpt><trkpt lat="45.5817611" lon="8.840047"><ele>201.0</ele><time>2026-04-12T07:58:22.161Z</time></trkpt><trkpt lat="45.5816827" lon="8.8398564"><ele>200.0</ele><time>2026-04-12T07:58:23.164Z</time></trkpt><trkpt lat="45.5816048" lon="8.8396661"><ele>200.0</ele><time>2026-04-12T07:58:24.188Z</time></trkpt><trkpt lat="45.5815268" lon="8.8394705"><ele>200.0</ele><time>2026-04-12T07:58:25.17Z</time></trkpt><trkpt lat="45.5814442" lon="8.8392572"><ele>200.0</ele><time>2026-04-12T07:58:26.158Z</time></trkpt><trkpt lat="45.5813446" lon="8.8390171"><ele>200.5</ele><time>2026-04-12T07:58:27.148Z</time></trkpt><trkpt lat="45.5812341" lon="8.8387337"><ele>201.0</ele><time>2026-04-12T07:58:28.153Z</time></trkpt><trkpt lat="45.5811216" lon="8.8384002"><ele>201.5</ele><time>2026-04-12T07:58:29.161Z</time></trkpt><trkpt lat="45.5810078" lon="8.838045"><ele>202.0</ele><time>2026-04-12T07:58:30.159Z</time></trkpt><trkpt lat="45.5808816" lon="8.8376578"><ele>203.0</ele><time>2026-04-12T07:58:31.161Z</time></trkpt><trkpt lat="45.5807424" lon="8.83725"><ele>204.0</ele><time>2026-04-12T07:58:32.158Z</time></trkpt><trkpt lat="45.5806089" lon="8.8368693"><ele>203.5</ele><time>2026-04-12T07:58:33.175Z</time></trkpt><trkpt lat="45.5804861" lon="8.836518"><ele>203.0</ele><time>2026-04-12T07:58:34.162Z</time></trkpt><trkpt lat="45.5803727" lon="8.8361957"><ele>202.66666666666669</ele><time>2026-04-12T07:58:35.157Z</time></trkpt><trkpt lat="45.5802709" lon="8.8359114"><ele>202.33333333333331</ele><time>2026-04-12T07:58:36.156Z</time></trkpt><trkpt lat="45.5801825" lon="8.8356712"><ele>202.0</ele><time>2026-04-12T07:58:37.152Z</time></trkpt><trkpt lat="45.5801064" lon="8.8354681"><ele>202.0</ele><time>2026-04-12T07:58:38.156Z</time></trkpt><trkpt lat="45.5800533" lon="8.8352971"><ele>202.0</ele><time>2026-04-12T07:58:39.155Z</time></trkpt><trkpt lat="45.5800312" lon="8.8351432"><ele>202.0</ele><time>2026-04-12T07:58:40.162Z</time></trkpt><trkpt lat="45.5800391" lon="8.835005"><ele>202.0</ele><time>2026-04-12T07:58:41.166Z</time></trkpt><trkpt lat="45.5800657" lon="8.8348821"><ele>202.0</ele><time>2026-04-12T07:58:42.159Z</time></trkpt><trkpt lat="45.5800831" lon="8.8347671"><ele>202.16666666666666</ele><time>2026-04-12T07:58:43.159Z</time></trkpt><trkpt lat="45.5800767" lon="8.8346575"><ele>202.33333333333331</ele><time>2026-04-12T07:58:44.157Z</time></trkpt><trkpt lat="45.5800429" lon="8.8345626"><ele>202.5</ele><time>2026-04-12T07:58:45.181Z</time></trkpt><trkpt lat="45.5799855" lon="8.8344908"><ele>202.66666666666669</ele><time>2026-04-12T07:58:46.162Z</time></trkpt><trkpt lat="45.5799171" lon="8.8344642"><ele>202.83333333333334</ele><time>2026-04-12T07:58:47.159Z</time></trkpt><trkpt lat="45.5798236" lon="8.8344816"><ele>203.0</ele><time>2026-04-12T07:58:48.198Z</time></trkpt><trkpt lat="45.5797371" lon="8.8345398"><ele>203.0</ele><time>2026-04-12T07:58:49.16Z</time></trkpt><trkpt lat="45.5796435" lon="8.8346091"><ele>203.0</ele><time>2026-04-12T07:58:50.164Z</time></trkpt><trkpt lat="45.5795425" lon="8.8346616"><ele>203.0</ele><time>2026-04-12T07:58:51.16Z</time></trkpt><trkpt lat="45.5794232" lon="8.8347052"><ele>203.0</ele><time>2026-04-12T07:58:52.168Z</time></trkpt><trkpt lat="45.579296" lon="8.8347258"><ele>202.75</ele><time>2026-04-12T07:58:53.198Z</time></trkpt><trkpt lat="45.5791548" lon="8.8347337"><ele>202.5</ele><time>2026-04-12T07:58:54.168Z</time></trkpt><trkpt lat="45.5790162" lon="8.8347413"><ele>202.25</ele><time>2026-04-12T07:58:55.188Z</time></trkpt><trkpt lat="45.5788866" lon="8.8347497"><ele>202.0</ele><time>2026-04-12T07:58:56.16Z</time></trkpt><trkpt lat="45.5787646" lon="8.8347561"><ele>202.0</ele><time>2026-04-12T07:58:57.168Z</time></trkpt><trkpt lat="45.5786429" lon="8.8347645"><ele>202.0</ele><time>2026-04-12T07:58:58.16Z</time></trkpt><trkpt lat="45.5785166" lon="8.8347745"><ele>202.0</ele><time>2026-04-12T07:58:59.158Z</time></trkpt><trkpt lat="45.5783883" lon="8.8347793"><ele>202.0</ele><time>2026-04-12T07:59:00.196Z</time></trkpt><trkpt lat="45.5782573" lon="8.834793"><ele>202.0</ele><time>2026-04-12T07:59:01.154Z</time></trkpt><trkpt lat="45.5781215" lon="8.8348049"><ele>202.0</ele><time>2026-04-12T07:59:02.161Z</time></trkpt><trkpt lat="45.5779775" lon="8.8348146"><ele>202.0</ele><time>2026-04-12T07:59:03.173Z</time></trkpt><trkpt lat="45.5778261" lon="8.83482"><ele>202.0</ele><time>2026-04-12T07:59:04.163Z</time></trkpt><trkpt lat="45.5776702" lon="8.8348264"><ele>201.0</ele><time>2026-04-12T07:59:05.19Z</time></trkpt><trkpt lat="45.5775148" lon="8.8348336"><ele>200.0</ele><time>2026-04-12T07:59:06.158Z</time></trkpt><trkpt lat="45.5773605" lon="8.8348495"><ele>199.0</ele><time>2026-04-12T07:59:07.165Z</time></trkpt><trkpt lat="45.5772101" lon="8.8348678"><ele>199.0</ele><time>2026-04-12T07:59:08.165Z</time></trkpt><trkpt lat="45.5770607" lon="8.8348916"><ele>199.0</ele><time>2026-04-12T07:59:09.187Z</time></trkpt><trkpt lat="45.576907" lon="8.8349221"><ele>199.0</ele><time>2026-04-12T07:59:10.165Z</time></trkpt><trkpt lat="45.5767583" lon="8.8349581"><ele>198.33333333333331</ele><time>2026-04-12T07:59:11.158Z</time></trkpt><trkpt lat="45.5766083" lon="8.8350014"><ele>197.66666666666669</ele><time>2026-04-12T07:59:12.159Z</time></trkpt><trkpt lat="45.5764507" lon="8.835039"><ele>197.0</ele><time>2026-04-12T07:59:13.158Z</time></trkpt><trkpt lat="45.5762795" lon="8.8350716"><ele>197.33333333333334</ele><time>2026-04-12T07:59:14.158Z</time></trkpt><trkpt lat="45.5760981" lon="8.8351028"><ele>197.66666666666669</ele><time>2026-04-12T07:59:15.163Z</time></trkpt><trkpt lat="45.575917" lon="8.8351358"><ele>198.0</ele><time>2026-04-12T07:59:16.157Z</time></trkpt><trkpt lat="45.5757423" lon="8.8351725"><ele>198.0</ele><time>2026-04-12T07:59:17.164Z</time></trkpt><trkpt lat="45.5755726" lon="8.835209"><ele>198.0</ele><time>2026-04-12T07:59:18.163Z</time></trkpt><trkpt lat="45.5754002" lon="8.8352484"><ele>198.0</ele><time>2026-04-12T07:59:19.161Z</time></trkpt><trkpt lat="45.5752213" lon="8.835292"><ele>198.0</ele><time>2026-04-12T07:59:20.163Z</time></trkpt><trkpt lat="45.5750341" lon="8.8353485"><ele>198.0</ele><time>2026-04-12T07:59:21.152Z</time></trkpt><trkpt lat="45.5748388" lon="8.8354244"><ele>198.0</ele><time>2026-04-12T07:59:22.164Z</time></trkpt><trkpt lat="45.5746177" lon="8.8355159"><ele>197.5</ele><time>2026-04-12T07:59:23.156Z</time></trkpt><trkpt lat="45.5743678" lon="8.8355997"><ele>197.0</ele><time>2026-04-12T07:59:24.15Z</time></trkpt><trkpt lat="45.5741016" lon="8.8356744"><ele>197.0</ele><time>2026-04-12T07:59:25.177Z</time></trkpt><trkpt lat="45.5738468" lon="8.8357307"><ele>197.0</ele><time>2026-04-12T07:59:26.16Z</time></trkpt><trkpt lat="45.5736123" lon="8.8357789"><ele>197.0</ele><time>2026-04-12T07:59:27.159Z</time></trkpt><trkpt lat="45.5733909" lon="8.8358229"><ele>197.0</ele><time>2026-04-12T07:59:28.168Z</time></trkpt><trkpt lat="45.5731908" lon="8.8358622"><ele>197.0</ele><time>2026-04-12T07:59:29.219Z</time></trkpt><trkpt lat="45.5730151" lon="8.8358969"><ele>197.0</ele><time>2026-04-12T07:59:30.164Z</time></trkpt><trkpt lat="45.5728577" lon="8.8359214"><ele>197.0</ele><time>2026-04-12T07:59:31.161Z</time></trkpt><trkpt lat="45.5727206" lon="8.8359188"><ele>197.0</ele><time>2026-04-12T07:59:32.161Z</time></trkpt><trkpt lat="45.5726069" lon="8.8358943"><ele>197.0</ele><time>2026-04-12T07:59:33.162Z</time></trkpt><trkpt lat="45.5725128" lon="8.8358375"><ele>197.5</ele><time>2026-04-12T07:59:34.163Z</time></trkpt><trkpt lat="45.5724415" lon="8.8357471"><ele>198.0</ele><time>2026-04-12T07:59:35.167Z</time></trkpt><trkpt lat="45.5723796" lon="8.8356069"><ele>198.5</ele><time>2026-04-12T07:59:36.16Z</time></trkpt><trkpt lat="45.5723263" lon="8.8354178"><ele>199.0</ele><time>2026-04-12T07:59:37.164Z</time></trkpt><trkpt lat="45.5722783" lon="8.835169"><ele>199.0</ele><time>2026-04-12T07:59:38.164Z</time></trkpt><trkpt lat="45.5722392" lon="8.8348723"><ele>199.0</ele><time>2026-04-12T07:59:39.164Z</time></trkpt><trkpt lat="45.5721968" lon="8.83454"><ele>199.0</ele><time>2026-04-12T07:59:40.159Z</time></trkpt><trkpt lat="45.572152" lon="8.8341945"><ele>199.0</ele><time>2026-04-12T07:59:41.166Z</time></trkpt><trkpt lat="45.5721072" lon="8.833849"><ele>199.0</ele><time>2026-04-12T07:59:42.16Z</time></trkpt><trkpt lat="45.5720582" lon="8.833506"><ele>201.0</ele><time>2026-04-12T07:59:43.158Z</time></trkpt><trkpt lat="45.5720071" lon="8.8331577"><ele>203.0</ele><time>2026-04-12T07:59:44.166Z</time></trkpt><trkpt lat="45.5719549" lon="8.8328028"><ele>203.0</ele><time>2026-04-12T07:59:45.161Z</time></trkpt><trkpt lat="45.5719013" lon="8.8324396"><ele>203.0</ele><time>2026-04-12T07:59:46.165Z</time></trkpt><trkpt lat="45.5718461" lon="8.8320697"><ele>203.0</ele><time>2026-04-12T07:59:47.16Z</time></trkpt><trkpt lat="45.5717923" lon="8.8317033"><ele>203.0</ele><time>2026-04-12T07:59:48.17Z</time></trkpt><trkpt lat="45.5717384" lon="8.8313401"><ele>203.0</ele><time>2026-04-12T07:59:49.17Z</time></trkpt><trkpt lat="45.5716853" lon="8.8309831"><ele>203.0</ele><time>2026-04-12T07:59:50.199Z</time></trkpt><trkpt lat="45.5716317" lon="8.8306303"><ele>202.0</ele><time>2026-04-12T07:59:51.165Z</time></trkpt><trkpt lat="45.5715793" lon="8.8302768"><ele>201.0</ele><time>2026-04-12T07:59:52.162Z</time></trkpt><trkpt lat="45.5715333" lon="8.8299211"><ele>200.5</ele><time>2026-04-12T07:59:53.17Z</time></trkpt><trkpt lat="45.5714954" lon="8.8295677"><ele>200.0</ele><time>2026-04-12T07:59:54.152Z</time></trkpt><trkpt lat="45.5714623" lon="8.8292156"><ele>200.0</ele><time>2026-04-12T07:59:55.165Z</time></trkpt><trkpt lat="45.571431" lon="8.8288651"><ele>200.0</ele><time>2026-04-12T07:59:56.162Z</time></trkpt><trkpt lat="45.5714021" lon="8.8285177"><ele>200.0</ele><time>2026-04-12T07:59:57.169Z</time></trkpt><trkpt lat="45.5713728" lon="8.8281778"><ele>200.0</ele><time>2026-04-12T07:59:58.168Z</time></trkpt><trkpt lat="45.5713421" lon="8.8278486"><ele>199.33333333333334</ele><time>2026-04-12T07:59:59.169Z</time></trkpt><trkpt lat="45.5713141" lon="8.827536"><ele>198.66666666666669</ele><time>2026-04-12T08:00:00.16Z</time></trkpt><trkpt lat="45.5712888" lon="8.8272458"><ele>198.0</ele><time>2026-04-12T08:00:01.17Z</time></trkpt><trkpt lat="45.5712664" lon="8.8269717"><ele>196.0</ele><time>2026-04-12T08:00:02.163Z</time></trkpt><trkpt lat="45.5712448" lon="8.8267128"><ele>194.0</ele><time>2026-04-12T08:00:03.164Z</time></trkpt><trkpt lat="45.5712249" lon="8.826471"><ele>192.0</ele><time>2026-04-12T08:00:04.161Z</time></trkpt><trkpt lat="45.5712077" lon="8.8262404"><ele>192.0</ele><time>2026-04-12T08:00:05.163Z</time></trkpt><trkpt lat="45.5712011" lon="8.8260216"><ele>192.0</ele><time>2026-04-12T08:00:06.16Z</time></trkpt><trkpt lat="45.5712143" lon="8.8258172"><ele>192.0</ele><time>2026-04-12T08:00:07.162Z</time></trkpt><trkpt lat="45.5712518" lon="8.8256371"><ele>192.0</ele><time>2026-04-12T08:00:08.162Z</time></trkpt><trkpt lat="45.5712834" lon="8.8254877"><ele>191.8</ele><time>2026-04-12T08:00:09.2Z</time></trkpt><trkpt lat="45.5712882" lon="8.8253526"><ele>191.6</ele><time>2026-04-12T08:00:10.196Z</time></trkpt><trkpt lat="45.5712559" lon="8.8252282"><ele>191.4</ele><time>2026-04-12T08:00:11.158Z</time></trkpt><trkpt lat="45.5711991" lon="8.8250997"><ele>191.20000000000002</ele><time>2026-04-12T08:00:12.159Z</time></trkpt><trkpt lat="45.571145" lon="8.8249349"><ele>191.0</ele><time>2026-04-12T08:00:13.17Z</time></trkpt><trkpt lat="45.5711015" lon="8.8247286"><ele>192.0</ele><time>2026-04-12T08:00:14.154Z</time></trkpt><trkpt lat="45.5710675" lon="8.8244862"><ele>193.0</ele><time>2026-04-12T08:00:15.168Z</time></trkpt><trkpt lat="45.5710299" lon="8.8242157"><ele>194.0</ele><time>2026-04-12T08:00:16.16Z</time></trkpt><trkpt lat="45.5709813" lon="8.8239267"><ele>194.0</ele><time>2026-04-12T08:00:17.187Z</time></trkpt><trkpt lat="45.5709181" lon="8.8236257"><ele>194.0</ele><time>2026-04-12T08:00:18.159Z</time></trkpt><trkpt lat="45.5708405" lon="8.82335"><ele>194.0</ele><time>2026-04-12T08:00:19.179Z</time></trkpt><trkpt lat="45.5707591" lon="8.8230936"><ele>193.66666666666669</ele><time>2026-04-12T08:00:20.161Z</time></trkpt><trkpt lat="45.5706729" lon="8.8228553"><ele>193.33333333333331</ele><time>2026-04-12T08:00:21.16Z</time></trkpt><trkpt lat="45.5705844" lon="8.8226333"><ele>193.0</ele><time>2026-04-12T08:00:22.16Z</time></trkpt><trkpt lat="45.5704902" lon="8.8224229"><ele>193.0</ele><time>2026-04-12T08:00:23.202Z</time></trkpt><trkpt lat="45.5703768" lon="8.822223"><ele>193.0</ele><time>2026-04-12T08:00:24.206Z</time></trkpt><trkpt lat="45.5702593" lon="8.8220294"><ele>193.0</ele><time>2026-04-12T08:00:25.16Z</time></trkpt><trkpt lat="45.5701393" lon="8.8218406"><ele>192.0</ele><time>2026-04-12T08:00:26.168Z</time></trkpt><trkpt lat="45.5700172" lon="8.8216579"><ele>191.0</ele><time>2026-04-12T08:00:27.16Z</time></trkpt><trkpt lat="45.5698948" lon="8.8214783"><ele>190.0</ele><time>2026-04-12T08:00:28.169Z</time></trkpt><trkpt lat="45.5697745" lon="8.8212989"><ele>190.0</ele><time>2026-04-12T08:00:29.169Z</time></trkpt><trkpt lat="45.5696584" lon="8.8211167"><ele>190.0</ele><time>2026-04-12T08:00:30.205Z</time></trkpt><trkpt lat="45.5695472" lon="8.8209306"><ele>190.0</ele><time>2026-04-12T08:00:31.164Z</time></trkpt><trkpt lat="45.5694415" lon="8.8207375"><ele>190.33333333333334</ele><time>2026-04-12T08:00:32.162Z</time></trkpt><trkpt lat="45.5693417" lon="8.8205385"><ele>190.66666666666666</ele><time>2026-04-12T08:00:33.163Z</time></trkpt><trkpt lat="45.5692481" lon="8.8203376"><ele>191.0</ele><time>2026-04-12T08:00:34.19Z</time></trkpt><trkpt lat="45.5691601" lon="8.8201304"><ele>191.0</ele><time>2026-04-12T08:00:35.158Z</time></trkpt><trkpt lat="45.5690786" lon="8.8199196"><ele>191.0</ele><time>2026-04-12T08:00:36.168Z</time></trkpt><trkpt lat="45.5690078" lon="8.819705"><ele>191.0</ele><time>2026-04-12T08:00:37.164Z</time></trkpt><trkpt lat="45.5689437" lon="8.8194864"><ele>192.0</ele><time>2026-04-12T08:00:38.166Z</time></trkpt><trkpt lat="45.568886" lon="8.8192674"><ele>193.0</ele><time>2026-04-12T08:00:39.164Z</time></trkpt><trkpt lat="45.5688398" lon="8.8190444"><ele>194.0</ele><time>2026-04-12T08:00:40.166Z</time></trkpt><trkpt lat="45.5688001" lon="8.8188198"><ele>194.0</ele><time>2026-04-12T08:00:41.152Z</time></trkpt><trkpt lat="45.5687659" lon="8.818594"><ele>194.0</ele><time>2026-04-12T08:00:42.168Z</time></trkpt><trkpt lat="45.5687405" lon="8.8183678"><ele>194.0</ele><time>2026-04-12T08:00:43.163Z</time></trkpt><trkpt lat="45.5687241" lon="8.8181387"><ele>193.0</ele><time>2026-04-12T08:00:44.171Z</time></trkpt><trkpt lat="45.5687139" lon="8.8179096"><ele>192.0</ele><time>2026-04-12T08:00:45.197Z</time></trkpt><trkpt lat="45.5687092" lon="8.8176818"><ele>191.0</ele><time>2026-04-12T08:00:46.162Z</time></trkpt><trkpt lat="45.5687069" lon="8.8174597"><ele>191.0</ele><time>2026-04-12T08:00:47.17Z</time></trkpt><trkpt lat="45.5687072" lon="8.8172501"><ele>191.0</ele><time>2026-04-12T08:00:48.168Z</time></trkpt><trkpt lat="45.568707" lon="8.8170517"><ele>191.0</ele><time>2026-04-12T08:00:49.17Z</time></trkpt><trkpt lat="45.5687085" lon="8.8168685"><ele>191.0</ele><time>2026-04-12T08:00:50.15Z</time></trkpt><trkpt lat="45.5687212" lon="8.8166994"><ele>191.20000000000002</ele><time>2026-04-12T08:00:51.155Z</time></trkpt><trkpt lat="45.5687525" lon="8.8165429"><ele>191.4</ele><time>2026-04-12T08:00:52.157Z</time></trkpt><trkpt lat="45.5687959" lon="8.8164002"><ele>191.6</ele><time>2026-04-12T08:00:53.153Z</time></trkpt><trkpt lat="45.5688273" lon="8.8162602"><ele>191.8</ele><time>2026-04-12T08:00:54.166Z</time></trkpt><trkpt lat="45.5688287" lon="8.816118"><ele>192.0</ele><time>2026-04-12T08:00:55.154Z</time></trkpt><trkpt lat="45.5687933" lon="8.8159764"><ele>192.0</ele><time>2026-04-12T08:00:56.16Z</time></trkpt><trkpt lat="45.5687255" lon="8.8158416"><ele>192.0</ele><time>2026-04-12T08:00:57.169Z</time></trkpt><trkpt lat="45.5686606" lon="8.8156702"><ele>192.0</ele><time>2026-04-12T08:00:58.161Z</time></trkpt><trkpt lat="45.5686125" lon="8.8154623"><ele>192.0</ele><time>2026-04-12T08:00:59.162Z</time></trkpt><trkpt lat="45.5685884" lon="8.8152148"><ele>190.33333333333334</ele><time>2026-04-12T08:01:00.162Z</time></trkpt><trkpt lat="45.5685832" lon="8.8149392"><ele>188.66666666666669</ele><time>2026-04-12T08:01:01.164Z</time></trkpt><trkpt lat="45.5685915" lon="8.8146572"><ele>187.0</ele><time>2026-04-12T08:01:02.161Z</time></trkpt><trkpt lat="45.5686012" lon="8.814371"><ele>187.0</ele><time>2026-04-12T08:01:03.153Z</time></trkpt><trkpt lat="45.5686188" lon="8.8140937"><ele>187.0</ele><time>2026-04-12T08:01:04.166Z</time></trkpt><trkpt lat="45.5686496" lon="8.8138297"><ele>187.0</ele><time>2026-04-12T08:01:05.16Z</time></trkpt><trkpt lat="45.5686866" lon="8.8135496"><ele>188.0</ele><time>2026-04-12T08:01:06.169Z</time></trkpt><trkpt lat="45.5687379" lon="8.8132874"><ele>189.0</ele><time>2026-04-12T08:01:07.179Z</time></trkpt><trkpt lat="45.5688024" lon="8.8130329"><ele>190.0</ele><time>2026-04-12T08:01:08.148Z</time></trkpt><trkpt lat="45.5688767" lon="8.812785"><ele>190.66666666666669</ele><time>2026-04-12T08:01:09.197Z</time></trkpt><trkpt lat="45.5689623" lon="8.8125401"><ele>191.33333333333334</ele><time>2026-04-12T08:01:10.167Z</time></trkpt><trkpt lat="45.5690575" lon="8.8122969"><ele>192.0</ele><time>2026-04-12T08:01:11.165Z</time></trkpt><trkpt lat="45.5691625" lon="8.812057"><ele>192.0</ele><time>2026-04-12T08:01:12.172Z</time></trkpt><trkpt lat="45.5692769" lon="8.8118238"><ele>192.0</ele><time>2026-04-12T08:01:13.162Z</time></trkpt><trkpt lat="45.5693995" lon="8.8115981"><ele>192.0</ele><time>2026-04-12T08:01:14.191Z</time></trkpt><trkpt lat="45.569527" lon="8.8113884"><ele>191.66666666666666</ele><time>2026-04-12T08:01:15.165Z</time></trkpt><trkpt lat="45.5696538" lon="8.8111994"><ele>191.33333333333331</ele><time>2026-04-12T08:01:16.161Z</time></trkpt><trkpt lat="45.569778" lon="8.8110302"><ele>191.0</ele><time>2026-04-12T08:01:17.157Z</time></trkpt><trkpt lat="45.569898" lon="8.8108797"><ele>191.0</ele><time>2026-04-12T08:01:18.167Z</time></trkpt><trkpt lat="45.5700063" lon="8.810752"><ele>191.0</ele><time>2026-04-12T08:01:19.162Z</time></trkpt><trkpt lat="45.570101" lon="8.8106539"><ele>191.0</ele><time>2026-04-12T08:01:20.285Z</time></trkpt><trkpt lat="45.5702957" lon="8.8105905"><ele>190.66666666666666</ele><time>2026-04-12T08:01:22.158Z</time></trkpt><trkpt lat="45.5703991" lon="8.8105959"><ele>190.33333333333331</ele><time>2026-04-12T08:01:23.202Z</time></trkpt><trkpt lat="45.5704908" lon="8.8105753"><ele>190.0</ele><time>2026-04-12T08:01:24.159Z</time></trkpt><trkpt lat="45.5705615" lon="8.8105192"><ele>189.66666666666666</ele><time>2026-04-12T08:01:25.195Z</time></trkpt><trkpt lat="45.5706144" lon="8.8104273"><ele>189.33333333333334</ele><time>2026-04-12T08:01:26.162Z</time></trkpt><trkpt lat="45.5706388" lon="8.8103086"><ele>189.0</ele><time>2026-04-12T08:01:27.163Z</time></trkpt><trkpt lat="45.5706259" lon="8.8101725"><ele>190.0</ele><time>2026-04-12T08:01:28.163Z</time></trkpt><trkpt lat="45.5705762" lon="8.8100213"><ele>191.0</ele><time>2026-04-12T08:01:29.165Z</time></trkpt><trkpt lat="45.5705193" lon="8.8098372"><ele>192.0</ele><time>2026-04-12T08:01:30.165Z</time></trkpt><trkpt lat="45.5704823" lon="8.8096064"><ele>193.0</ele><time>2026-04-12T08:01:31.164Z</time></trkpt><trkpt lat="45.5704703" lon="8.8093467"><ele>193.33333333333331</ele><time>2026-04-12T08:01:32.166Z</time></trkpt><trkpt lat="45.5704783" lon="8.809084"><ele>193.66666666666669</ele><time>2026-04-12T08:01:33.147Z</time></trkpt><trkpt lat="45.5704885" lon="8.8087825"><ele>194.0</ele><time>2026-04-12T08:01:34.165Z</time></trkpt><trkpt lat="45.5705012" lon="8.808495"><ele>193.33333333333334</ele><time>2026-04-12T08:01:35.17Z</time></trkpt><trkpt lat="45.5705126" lon="8.808205"><ele>192.66666666666669</ele><time>2026-04-12T08:01:36.159Z</time></trkpt><trkpt lat="45.570512" lon="8.8078986"><ele>192.0</ele><time>2026-04-12T08:01:37.167Z</time></trkpt><trkpt lat="45.5705105" lon="8.8075875"><ele>191.66666666666666</ele><time>2026-04-12T08:01:38.202Z</time></trkpt><trkpt lat="45.5705142" lon="8.8072873"><ele>191.33333333333331</ele><time>2026-04-12T08:01:39.2Z</time></trkpt><trkpt lat="45.5705186" lon="8.8069876"><ele>191.0</ele><time>2026-04-12T08:01:40.157Z</time></trkpt><trkpt lat="45.5705243" lon="8.8066875"><ele>191.0</ele><time>2026-04-12T08:01:41.159Z</time></trkpt><trkpt lat="45.5705294" lon="8.8063854"><ele>191.0</ele><time>2026-04-12T08:01:42.159Z</time></trkpt><trkpt lat="45.5705357" lon="8.8060797"><ele>191.0</ele><time>2026-04-12T08:01:43.161Z</time></trkpt><trkpt lat="45.5705425" lon="8.8057652"><ele>191.5</ele><time>2026-04-12T08:01:44.16Z</time></trkpt><trkpt lat="45.5705493" lon="8.8054446"><ele>192.0</ele><time>2026-04-12T08:01:45.187Z</time></trkpt><trkpt lat="45.5705551" lon="8.8050788"><ele>192.0</ele><time>2026-04-12T08:01:46.162Z</time></trkpt><trkpt lat="45.5705624" lon="8.8046828"><ele>192.0</ele><time>2026-04-12T08:01:47.168Z</time></trkpt><trkpt lat="45.5705695" lon="8.804304"><ele>193.0</ele><time>2026-04-12T08:01:48.173Z</time></trkpt><trkpt lat="45.5705747" lon="8.803953"><ele>194.0</ele><time>2026-04-12T08:01:49.175Z</time></trkpt><trkpt lat="45.570579" lon="8.803627"><ele>194.0</ele><time>2026-04-12T08:01:50.179Z</time></trkpt><trkpt lat="45.5705821" lon="8.8033266"><ele>194.0</ele><time>2026-04-12T08:01:51.158Z</time></trkpt><trkpt lat="45.5705842" lon="8.8030503"><ele>194.0</ele><time>2026-04-12T08:01:52.161Z</time></trkpt><trkpt lat="45.5705865" lon="8.802797"><ele>193.0</ele><time>2026-04-12T08:01:53.161Z</time></trkpt><trkpt lat="45.5705881" lon="8.8025614"><ele>192.0</ele><time>2026-04-12T08:01:54.17Z</time></trkpt><trkpt lat="45.570588" lon="8.8023449"><ele>191.0</ele><time>2026-04-12T08:01:55.161Z</time></trkpt><trkpt lat="45.5706038" lon="8.802147"><ele>191.0</ele><time>2026-04-12T08:01:56.165Z</time></trkpt><trkpt lat="45.5706466" lon="8.8019646"><ele>191.0</ele><time>2026-04-12T08:01:57.163Z</time></trkpt><trkpt lat="45.570705" lon="8.8018146"><ele>191.0</ele><time>2026-04-12T08:01:58.172Z</time></trkpt><trkpt lat="45.5707539" lon="8.8016782"><ele>191.0</ele><time>2026-04-12T08:01:59.167Z</time></trkpt><trkpt lat="45.5707748" lon="8.8015397"><ele>191.75</ele><time>2026-04-12T08:02:00.187Z</time></trkpt><trkpt lat="45.5707584" lon="8.8014099"><ele>192.5</ele><time>2026-04-12T08:02:01.163Z</time></trkpt><trkpt lat="45.570714" lon="8.8012671"><ele>193.25</ele><time>2026-04-12T08:02:02.165Z</time></trkpt><trkpt lat="45.5706596" lon="8.801092"><ele>194.0</ele><time>2026-04-12T08:02:03.197Z</time></trkpt><trkpt lat="45.5706206" lon="8.8008792"><ele>194.33333333333334</ele><time>2026-04-12T08:02:04.176Z</time></trkpt><trkpt lat="45.5706067" lon="8.800622"><ele>194.66666666666669</ele><time>2026-04-12T08:02:05.165Z</time></trkpt><trkpt lat="45.5706107" lon="8.8003154"><ele>195.0</ele><time>2026-04-12T08:02:06.162Z</time></trkpt><trkpt lat="45.5706262" lon="8.7999817"><ele>194.5</ele><time>2026-04-12T08:02:07.161Z</time></trkpt><trkpt lat="45.5706408" lon="8.7996497"><ele>194.0</ele><time>2026-04-12T08:02:08.162Z</time></trkpt><trkpt lat="45.5706596" lon="8.7993168"><ele>194.0</ele><time>2026-04-12T08:02:09.164Z</time></trkpt><trkpt lat="45.5706788" lon="8.7989866"><ele>194.0</ele><time>2026-04-12T08:02:10.177Z</time></trkpt><trkpt lat="45.5707" lon="8.7986472"><ele>193.0</ele><time>2026-04-12T08:02:11.171Z</time></trkpt><trkpt lat="45.5707188" lon="8.7982953"><ele>192.0</ele><time>2026-04-12T08:02:12.167Z</time></trkpt><trkpt lat="45.5707335" lon="8.797946"><ele>192.0</ele><time>2026-04-12T08:02:13.175Z</time></trkpt><trkpt lat="45.5707391" lon="8.7976138"><ele>192.0</ele><time>2026-04-12T08:02:14.19Z</time></trkpt><trkpt lat="45.5707412" lon="8.7972997"><ele>192.0</ele><time>2026-04-12T08:02:15.194Z</time></trkpt><trkpt lat="45.5707431" lon="8.7970039"><ele>192.0</ele><time>2026-04-12T08:02:16.154Z</time></trkpt><trkpt lat="45.5707453" lon="8.7967195"><ele>192.0</ele><time>2026-04-12T08:02:17.171Z</time></trkpt><trkpt lat="45.5707467" lon="8.7964405"><ele>192.0</ele><time>2026-04-12T08:02:18.165Z</time></trkpt><trkpt lat="45.5707493" lon="8.7961749"><ele>192.0</ele><time>2026-04-12T08:02:19.191Z</time></trkpt><trkpt lat="45.5707507" lon="8.7959242"><ele>192.0</ele><time>2026-04-12T08:02:20.158Z</time></trkpt><trkpt lat="45.5707513" lon="8.7956875"><ele>192.0</ele><time>2026-04-12T08:02:21.164Z</time></trkpt><trkpt lat="45.5707529" lon="8.7954571"><ele>192.0</ele><time>2026-04-12T08:02:22.166Z</time></trkpt><trkpt lat="45.5707537" lon="8.7952244"><ele>192.0</ele><time>2026-04-12T08:02:23.179Z</time></trkpt><trkpt lat="45.5707554" lon="8.794995"><ele>192.0</ele><time>2026-04-12T08:02:24.159Z</time></trkpt><trkpt lat="45.5707565" lon="8.7947734"><ele>192.0</ele><time>2026-04-12T08:02:25.174Z</time></trkpt><trkpt lat="45.5707573" lon="8.7945622"><ele>192.0</ele><time>2026-04-12T08:02:26.155Z</time></trkpt><trkpt lat="45.570758" lon="8.7943645"><ele>192.0</ele><time>2026-04-12T08:02:27.172Z</time></trkpt><trkpt lat="45.5707582" lon="8.7941781"><ele>192.39999999999998</ele><time>2026-04-12T08:02:28.162Z</time></trkpt><trkpt lat="45.5707594" lon="8.7940028"><ele>192.79999999999998</ele><time>2026-04-12T08:02:29.163Z</time></trkpt><trkpt lat="45.5707603" lon="8.7938376"><ele>193.2</ele><time>2026-04-12T08:02:30.149Z</time></trkpt><trkpt lat="45.5707611" lon="8.7936833"><ele>193.6</ele><time>2026-04-12T08:02:31.17Z</time></trkpt><trkpt lat="45.5707673" lon="8.7935366"><ele>194.0</ele><time>2026-04-12T08:02:32.17Z</time></trkpt><trkpt lat="45.5707887" lon="8.793406"><ele>194.33333333333334</ele><time>2026-04-12T08:02:33.193Z</time></trkpt><trkpt lat="45.5708231" lon="8.7932888"><ele>194.66666666666669</ele><time>2026-04-12T08:02:34.198Z</time></trkpt><trkpt lat="45.5708437" lon="8.793181"><ele>195.0</ele><time>2026-04-12T08:02:35.16Z</time></trkpt><trkpt lat="45.5708" lon="8.7930357"><ele>195.33333333333331</ele><time>2026-04-12T08:02:37.15Z</time></trkpt><trkpt lat="45.5707328" lon="8.7929919"><ele>195.66666666666666</ele><time>2026-04-12T08:02:38.17Z</time></trkpt><trkpt lat="45.5706436" lon="8.7929653"><ele>196.0</ele><time>2026-04-12T08:02:39.158Z</time></trkpt><trkpt lat="45.5705144" lon="8.7929492"><ele>196.0</ele><time>2026-04-12T08:02:40.163Z</time></trkpt><trkpt lat="45.5703592" lon="8.792925"><ele>196.0</ele><time>2026-04-12T08:02:41.168Z</time></trkpt><trkpt lat="45.5702025" lon="8.7929018"><ele>196.0</ele><time>2026-04-12T08:02:42.164Z</time></trkpt><trkpt lat="45.5700541" lon="8.792876"><ele>195.75</ele><time>2026-04-12T08:02:43.168Z</time></trkpt><trkpt lat="45.5699111" lon="8.7928469"><ele>195.5</ele><time>2026-04-12T08:02:44.159Z</time></trkpt><trkpt lat="45.5697709" lon="8.7928118"><ele>195.25</ele><time>2026-04-12T08:02:45.159Z</time></trkpt><trkpt lat="45.5696314" lon="8.792768"><ele>195.0</ele><time>2026-04-12T08:02:46.162Z</time></trkpt><trkpt lat="45.5694919" lon="8.7927134"><ele>194.33333333333331</ele><time>2026-04-12T08:02:47.167Z</time></trkpt><trkpt lat="45.5693527" lon="8.792645"><ele>193.66666666666666</ele><time>2026-04-12T08:02:48.198Z</time></trkpt><trkpt lat="45.5692128" lon="8.7925635"><ele>193.0</ele><time>2026-04-12T08:02:49.17Z</time></trkpt><trkpt lat="45.5690727" lon="8.7924704"><ele>193.0</ele><time>2026-04-12T08:02:50.155Z</time></trkpt><trkpt lat="45.5689338" lon="8.7923652"><ele>193.0</ele><time>2026-04-12T08:02:51.159Z</time></trkpt><trkpt lat="45.5688011" lon="8.7922469"><ele>193.0</ele><time>2026-04-12T08:02:52.171Z</time></trkpt><trkpt lat="45.5686721" lon="8.7921169"><ele>193.33333333333331</ele><time>2026-04-12T08:02:53.172Z</time></trkpt><trkpt lat="45.5685489" lon="8.7919753"><ele>193.66666666666669</ele><time>2026-04-12T08:02:54.157Z</time></trkpt><trkpt lat="45.5684299" lon="8.7918235"><ele>194.0</ele><time>2026-04-12T08:02:55.193Z</time></trkpt><trkpt lat="45.5683159" lon="8.7916645"><ele>193.33333333333334</ele><time>2026-04-12T08:02:56.164Z</time></trkpt><trkpt lat="45.5682032" lon="8.7915007"><ele>192.66666666666669</ele><time>2026-04-12T08:02:57.163Z</time></trkpt><trkpt lat="45.5680939" lon="8.7913358"><ele>192.0</ele><time>2026-04-12T08:02:58.174Z</time></trkpt><trkpt lat="45.5679844" lon="8.7911689"><ele>192.0</ele><time>2026-04-12T08:02:59.198Z</time></trkpt><trkpt lat="45.5678767" lon="8.7910041"><ele>192.0</ele><time>2026-04-12T08:03:00.203Z</time></trkpt><trkpt lat="45.5677698" lon="8.7908407"><ele>192.0</ele><time>2026-04-12T08:03:01.163Z</time></trkpt><trkpt lat="45.5676626" lon="8.7906785"><ele>192.0</ele><time>2026-04-12T08:03:02.166Z</time></trkpt><trkpt lat="45.5675555" lon="8.7905189"><ele>192.0</ele><time>2026-04-12T08:03:03.165Z</time></trkpt><trkpt lat="45.5674499" lon="8.7903597"><ele>192.0</ele><time>2026-04-12T08:03:04.194Z</time></trkpt><trkpt lat="45.5673426" lon="8.790205"><ele>192.0</ele><time>2026-04-12T08:03:05.167Z</time></trkpt><trkpt lat="45.5672327" lon="8.7900569"><ele>192.0</ele><time>2026-04-12T08:03:06.165Z</time></trkpt><trkpt lat="45.567119" lon="8.7899155"><ele>192.0</ele><time>2026-04-12T08:03:07.156Z</time></trkpt><trkpt lat="45.5669992" lon="8.7897854"><ele>192.0</ele><time>2026-04-12T08:03:08.196Z</time></trkpt><trkpt lat="45.5668729" lon="8.7896695"><ele>192.0</ele><time>2026-04-12T08:03:09.179Z</time></trkpt><trkpt lat="45.5667407" lon="8.7895629"><ele>192.0</ele><time>2026-04-12T08:03:10.162Z</time></trkpt><trkpt lat="45.5666028" lon="8.7894619"><ele>192.0</ele><time>2026-04-12T08:03:11.157Z</time></trkpt><trkpt lat="45.566451" lon="8.7893588"><ele>192.0</ele><time>2026-04-12T08:03:12.161Z</time></trkpt><trkpt lat="45.5662836" lon="8.789243"><ele>192.0</ele><time>2026-04-12T08:03:13.166Z</time></trkpt><trkpt lat="45.5661086" lon="8.7891228"><ele>193.66666666666669</ele><time>2026-04-12T08:03:14.168Z</time></trkpt><trkpt lat="45.5659438" lon="8.7890023"><ele>195.33333333333334</ele><time>2026-04-12T08:03:15.16Z</time></trkpt><trkpt lat="45.56579" lon="8.7888761"><ele>197.0</ele><time>2026-04-12T08:03:16.149Z</time></trkpt><trkpt lat="45.5656435" lon="8.7887327"><ele>197.0</ele><time>2026-04-12T08:03:17.194Z</time></trkpt><trkpt lat="45.5655053" lon="8.7885683"><ele>197.0</ele><time>2026-04-12T08:03:18.17Z</time></trkpt><trkpt lat="45.5653766" lon="8.7883841"><ele>197.0</ele><time>2026-04-12T08:03:19.16Z</time></trkpt><trkpt lat="45.5652596" lon="8.7881797"><ele>196.33333333333334</ele><time>2026-04-12T08:03:20.154Z</time></trkpt><trkpt lat="45.5651563" lon="8.7879589"><ele>195.66666666666669</ele><time>2026-04-12T08:03:21.164Z</time></trkpt><trkpt lat="45.5650696" lon="8.7877246"><ele>195.0</ele><time>2026-04-12T08:03:22.166Z</time></trkpt><trkpt lat="45.5649998" lon="8.7874811"><ele>195.0</ele><time>2026-04-12T08:03:23.169Z</time></trkpt><trkpt lat="45.5649452" lon="8.7872295"><ele>195.0</ele><time>2026-04-12T08:03:24.159Z</time></trkpt><trkpt lat="45.5648992" lon="8.7869717"><ele>195.0</ele><time>2026-04-12T08:03:25.158Z</time></trkpt><trkpt lat="45.5648571" lon="8.7867091"><ele>194.66666666666669</ele><time>2026-04-12T08:03:26.154Z</time></trkpt><trkpt lat="45.5648165" lon="8.7864445"><ele>194.33333333333334</ele><time>2026-04-12T08:03:27.163Z</time></trkpt><trkpt lat="45.5647759" lon="8.7861828"><ele>194.0</ele><time>2026-04-12T08:03:28.173Z</time></trkpt><trkpt lat="45.564736" lon="8.7859319"><ele>194.0</ele><time>2026-04-12T08:03:29.172Z</time></trkpt><trkpt lat="45.5646987" lon="8.785694"><ele>194.0</ele><time>2026-04-12T08:03:30.162Z</time></trkpt><trkpt lat="45.5646631" lon="8.7854655"><ele>194.0</ele><time>2026-04-12T08:03:31.164Z</time></trkpt><trkpt lat="45.5646327" lon="8.7852447"><ele>193.5</ele><time>2026-04-12T08:03:32.163Z</time></trkpt><trkpt lat="45.564609" lon="8.7850284"><ele>193.0</ele><time>2026-04-12T08:03:33.199Z</time></trkpt><trkpt lat="45.5645938" lon="8.7848156"><ele>192.5</ele><time>2026-04-12T08:03:34.179Z</time></trkpt><trkpt lat="45.5645819" lon="8.7846076"><ele>192.0</ele><time>2026-04-12T08:03:35.163Z</time></trkpt><trkpt lat="45.56457" lon="8.7844102"><ele>192.0</ele><time>2026-04-12T08:03:36.161Z</time></trkpt><trkpt lat="45.5645512" lon="8.7842332"><ele>192.0</ele><time>2026-04-12T08:03:37.16Z</time></trkpt><trkpt lat="45.5645305" lon="8.7840827"><ele>192.0</ele><time>2026-04-12T08:03:38.189Z</time></trkpt><trkpt lat="45.5645166" lon="8.7839664"><ele>192.0</ele><time>2026-04-12T08:03:39.174Z</time></trkpt><trkpt lat="45.5645121" lon="8.7838242"><ele>192.0</ele><time>2026-04-12T08:03:41.163Z</time></trkpt><trkpt lat="45.5645304" lon="8.783718"><ele>192.0</ele><time>2026-04-12T08:03:45.164Z</time></trkpt><trkpt lat="45.5645315" lon="8.783589"><ele>192.0</ele><time>2026-04-12T08:03:47.163Z</time></trkpt><trkpt lat="45.5644962" lon="8.7834422"><ele>192.0</ele><time>2026-04-12T08:03:49.166Z</time></trkpt><trkpt lat="45.5643913" lon="8.7833442"><ele>192.0</ele><time>2026-04-12T08:03:51.168Z</time></trkpt><trkpt lat="45.5643252" lon="8.7833483"><ele>192.0</ele><time>2026-04-12T08:03:52.175Z</time></trkpt><trkpt lat="45.5642632" lon="8.7833985"><ele>191.39999999999998</ele><time>2026-04-12T08:03:53.173Z</time></trkpt><trkpt lat="45.5642123" lon="8.7834855"><ele>190.79999999999998</ele><time>2026-04-12T08:03:54.165Z</time></trkpt><trkpt lat="45.5641662" lon="8.783587"><ele>190.2</ele><time>2026-04-12T08:03:55.165Z</time></trkpt><trkpt lat="45.5641035" lon="8.7836891"><ele>189.6</ele><time>2026-04-12T08:03:56.165Z</time></trkpt><trkpt lat="45.5640204" lon="8.7837844"><ele>189.0</ele><time>2026-04-12T08:03:57.17Z</time></trkpt><trkpt lat="45.5639234" lon="8.7838563"><ele>189.0</ele><time>2026-04-12T08:03:58.175Z</time></trkpt><trkpt lat="45.5638074" lon="8.7838923"><ele>189.0</ele><time>2026-04-12T08:03:59.2Z</time></trkpt><trkpt lat="45.5636905" lon="8.7838858"><ele>189.0</ele><time>2026-04-12T08:04:00.177Z</time></trkpt><trkpt lat="45.5635827" lon="8.7838485"><ele>189.0</ele><time>2026-04-12T08:04:01.158Z</time></trkpt><trkpt lat="45.5634922" lon="8.7837835"><ele>189.0</ele><time>2026-04-12T08:04:02.178Z</time></trkpt><trkpt lat="45.563433" lon="8.7836825"><ele>189.0</ele><time>2026-04-12T08:04:03.176Z</time></trkpt><trkpt lat="45.5633954" lon="8.7835584"><ele>189.0</ele><time>2026-04-12T08:04:04.164Z</time></trkpt><trkpt lat="45.5633823" lon="8.7834091"><ele>189.0</ele><time>2026-04-12T08:04:05.176Z</time></trkpt><trkpt lat="45.5633924" lon="8.783233"><ele>189.0</ele><time>2026-04-12T08:04:06.164Z</time></trkpt><trkpt lat="45.5634243" lon="8.7830376"><ele>189.0</ele><time>2026-04-12T08:04:07.166Z</time></trkpt><trkpt lat="45.5634806" lon="8.7828188"><ele>189.0</ele><time>2026-04-12T08:04:08.169Z</time></trkpt><trkpt lat="45.5635596" lon="8.7825476"><ele>189.0</ele><time>2026-04-12T08:04:09.151Z</time></trkpt><trkpt lat="45.5636554" lon="8.7822187"><ele>188.0</ele><time>2026-04-12T08:04:10.177Z</time></trkpt><trkpt lat="45.5637602" lon="8.7818713"><ele>187.0</ele><time>2026-04-12T08:04:11.159Z</time></trkpt><trkpt lat="45.5638611" lon="8.7815399"><ele>187.0</ele><time>2026-04-12T08:04:12.163Z</time></trkpt><trkpt lat="45.5639539" lon="8.7812349"><ele>187.0</ele><time>2026-04-12T08:04:13.165Z</time></trkpt><trkpt lat="45.5640486" lon="8.780959"><ele>187.0</ele><time>2026-04-12T08:04:14.215Z</time></trkpt><trkpt lat="45.5641508" lon="8.7807082"><ele>187.66666666666669</ele><time>2026-04-12T08:04:15.199Z</time></trkpt><trkpt lat="45.5642619" lon="8.7804721"><ele>188.33333333333334</ele><time>2026-04-12T08:04:16.172Z</time></trkpt><trkpt lat="45.56438" lon="8.7802391"><ele>189.0</ele><time>2026-04-12T08:04:17.155Z</time></trkpt><trkpt lat="45.5645039" lon="8.7800044"><ele>189.0</ele><time>2026-04-12T08:04:18.162Z</time></trkpt><trkpt lat="45.5646352" lon="8.7797672"><ele>189.0</ele><time>2026-04-12T08:04:19.162Z</time></trkpt><trkpt lat="45.5647739" lon="8.7795318"><ele>189.0</ele><time>2026-04-12T08:04:20.158Z</time></trkpt><trkpt lat="45.5649133" lon="8.7793089"><ele>189.33333333333334</ele><time>2026-04-12T08:04:21.153Z</time></trkpt><trkpt lat="45.5650583" lon="8.7790893"><ele>189.66666666666669</ele><time>2026-04-12T08:04:22.159Z</time></trkpt><trkpt lat="45.5652063" lon="8.7788728"><ele>190.0</ele><time>2026-04-12T08:04:23.18Z</time></trkpt><trkpt lat="45.5653585" lon="8.7786597"><ele>191.33333333333334</ele><time>2026-04-12T08:04:24.176Z</time></trkpt><trkpt lat="45.5655125" lon="8.7784523"><ele>192.66666666666669</ele><time>2026-04-12T08:04:25.165Z</time></trkpt><trkpt lat="45.5656696" lon="8.7782554"><ele>194.0</ele><time>2026-04-12T08:04:26.161Z</time></trkpt><trkpt lat="45.5658299" lon="8.7780671"><ele>194.0</ele><time>2026-04-12T08:04:27.151Z</time></trkpt><trkpt lat="45.5660584" lon="8.7778198"><ele>194.0</ele><time>2026-04-12T08:04:28.19Z</time></trkpt><trkpt lat="45.5662335" lon="8.7776427"><ele>194.33333333333334</ele><time>2026-04-12T08:04:29.165Z</time></trkpt><trkpt lat="45.5664009" lon="8.7774609"><ele>194.66666666666669</ele><time>2026-04-12T08:04:30.163Z</time></trkpt><trkpt lat="45.5665748" lon="8.7773"><ele>195.0</ele><time>2026-04-12T08:04:31.154Z</time></trkpt><trkpt lat="45.5667534" lon="8.7771493"><ele>195.0</ele><time>2026-04-12T08:04:32.162Z</time></trkpt><trkpt lat="45.5669346" lon="8.7770007"><ele>195.0</ele><time>2026-04-12T08:04:33.17Z</time></trkpt><trkpt lat="45.567116" lon="8.7768529"><ele>195.0</ele><time>2026-04-12T08:04:34.162Z</time></trkpt><trkpt lat="45.5673058" lon="8.7767048"><ele>195.33333333333331</ele><time>2026-04-12T08:04:35.145Z</time></trkpt><trkpt lat="45.5674952" lon="8.7765495"><ele>195.66666666666666</ele><time>2026-04-12T08:04:36.159Z</time></trkpt><trkpt lat="45.5676771" lon="8.7763988"><ele>196.0</ele><time>2026-04-12T08:04:37.166Z</time></trkpt><trkpt lat="45.5678593" lon="8.7762608"><ele>196.0</ele><time>2026-04-12T08:04:38.167Z</time></trkpt><trkpt lat="45.5680428" lon="8.7761251"><ele>196.0</ele><time>2026-04-12T08:04:39.173Z</time></trkpt><trkpt lat="45.5682257" lon="8.7759849"><ele>196.0</ele><time>2026-04-12T08:04:40.189Z</time></trkpt><trkpt lat="45.5684048" lon="8.7758476"><ele>195.66666666666666</ele><time>2026-04-12T08:04:41.163Z</time></trkpt><trkpt lat="45.5685793" lon="8.7757183"><ele>195.33333333333331</ele><time>2026-04-12T08:04:42.169Z</time></trkpt><trkpt lat="45.5687468" lon="8.7755864"><ele>195.0</ele><time>2026-04-12T08:04:43.169Z</time></trkpt><trkpt lat="45.5689103" lon="8.7754562"><ele>195.0</ele><time>2026-04-12T08:04:44.143Z</time></trkpt><trkpt lat="45.5690747" lon="8.7753325"><ele>195.0</ele><time>2026-04-12T08:04:45.174Z</time></trkpt><trkpt lat="45.569238" lon="8.7752062"><ele>195.0</ele><time>2026-04-12T08:04:46.167Z</time></trkpt><trkpt lat="45.5694018" lon="8.7750822"><ele>194.66666666666669</ele><time>2026-04-12T08:04:47.17Z</time></trkpt><trkpt lat="45.5695626" lon="8.7749534"><ele>194.33333333333334</ele><time>2026-04-12T08:04:48.17Z</time></trkpt><trkpt lat="45.5697245" lon="8.7748274"><ele>194.0</ele><time>2026-04-12T08:04:49.202Z</time></trkpt><trkpt lat="45.5698863" lon="8.7747007"><ele>194.0</ele><time>2026-04-12T08:04:50.191Z</time></trkpt><trkpt lat="45.5700469" lon="8.7745751"><ele>194.0</ele><time>2026-04-12T08:04:51.156Z</time></trkpt><trkpt lat="45.5702089" lon="8.7744464"><ele>194.0</ele><time>2026-04-12T08:04:52.155Z</time></trkpt><trkpt lat="45.5703708" lon="8.7743172"><ele>195.33333333333334</ele><time>2026-04-12T08:04:53.192Z</time></trkpt><trkpt lat="45.5705342" lon="8.7741863"><ele>196.66666666666669</ele><time>2026-04-12T08:04:54.171Z</time></trkpt><trkpt lat="45.5706982" lon="8.7740536"><ele>198.0</ele><time>2026-04-12T08:04:55.169Z</time></trkpt><trkpt lat="45.5708627" lon="8.7739161"><ele>198.0</ele><time>2026-04-12T08:04:56.169Z</time></trkpt><trkpt lat="45.5710303" lon="8.7737693"><ele>198.0</ele><time>2026-04-12T08:04:57.161Z</time></trkpt><trkpt lat="45.5712058" lon="8.7736062"><ele>198.0</ele><time>2026-04-12T08:04:58.166Z</time></trkpt><trkpt lat="45.5713861" lon="8.7734306"><ele>198.0</ele><time>2026-04-12T08:04:59.163Z</time></trkpt><trkpt lat="45.5715653" lon="8.7732506"><ele>198.0</ele><time>2026-04-12T08:05:00.162Z</time></trkpt><trkpt lat="45.5717421" lon="8.773065"><ele>198.0</ele><time>2026-04-12T08:05:01.163Z</time></trkpt><trkpt lat="45.5719171" lon="8.7728708"><ele>198.0</ele><time>2026-04-12T08:05:02.149Z</time></trkpt><trkpt lat="45.5720881" lon="8.7726704"><ele>198.0</ele><time>2026-04-12T08:05:03.17Z</time></trkpt><trkpt lat="45.5722539" lon="8.7724634"><ele>198.0</ele><time>2026-04-12T08:05:04.171Z</time></trkpt><trkpt lat="45.5724139" lon="8.7722498"><ele>198.0</ele><time>2026-04-12T08:05:05.161Z</time></trkpt><trkpt lat="45.5725686" lon="8.7720286"><ele>198.0</ele><time>2026-04-12T08:05:06.161Z</time></trkpt><trkpt lat="45.5727169" lon="8.7718001"><ele>198.0</ele><time>2026-04-12T08:05:07.162Z</time></trkpt><trkpt lat="45.5728574" lon="8.7715644"><ele>198.33333333333331</ele><time>2026-04-12T08:05:08.198Z</time></trkpt><trkpt lat="45.5729905" lon="8.7713218"><ele>198.66666666666666</ele><time>2026-04-12T08:05:09.157Z</time></trkpt><trkpt lat="45.5731173" lon="8.7710754"><ele>199.0</ele><time>2026-04-12T08:05:10.192Z</time></trkpt><trkpt lat="45.5732368" lon="8.7708267"><ele>199.0</ele><time>2026-04-12T08:05:11.172Z</time></trkpt><trkpt lat="45.5733492" lon="8.7705756"><ele>199.0</ele><time>2026-04-12T08:05:12.163Z</time></trkpt><trkpt lat="45.5734559" lon="8.7703204"><ele>199.0</ele><time>2026-04-12T08:05:13.152Z</time></trkpt><trkpt lat="45.5735776" lon="8.7700713"><ele>199.0</ele><time>2026-04-12T08:05:14.154Z</time></trkpt><trkpt lat="45.5736702" lon="8.7698286"><ele>199.0</ele><time>2026-04-12T08:05:15.167Z</time></trkpt><trkpt lat="45.5737668" lon="8.7695514"><ele>199.0</ele><time>2026-04-12T08:05:16.168Z</time></trkpt><trkpt lat="45.5738553" lon="8.7692639"><ele>199.0</ele><time>2026-04-12T08:05:17.206Z</time></trkpt><trkpt lat="45.5739377" lon="8.7689722"><ele>199.0</ele><time>2026-04-12T08:05:18.208Z</time></trkpt><trkpt lat="45.5740077" lon="8.7686796"><ele>199.0</ele><time>2026-04-12T08:05:19.172Z</time></trkpt><trkpt lat="45.5740675" lon="8.7683871"><ele>199.33333333333331</ele><time>2026-04-12T08:05:20.163Z</time></trkpt><trkpt lat="45.5741254" lon="8.7680977"><ele>199.66666666666669</ele><time>2026-04-12T08:05:21.157Z</time></trkpt><trkpt lat="45.5741741" lon="8.7678059"><ele>200.0</ele><time>2026-04-12T08:05:22.163Z</time></trkpt><trkpt lat="45.5742167" lon="8.7675145"><ele>200.66666666666669</ele><time>2026-04-12T08:05:23.172Z</time></trkpt><trkpt lat="45.5742548" lon="8.7672204"><ele>201.33333333333331</ele><time>2026-04-12T08:05:24.159Z</time></trkpt><trkpt lat="45.5742843" lon="8.7669215"><ele>202.0</ele><time>2026-04-12T08:05:25.159Z</time></trkpt><trkpt lat="45.5743063" lon="8.7666208"><ele>202.0</ele><time>2026-04-12T08:05:26.16Z</time></trkpt><trkpt lat="45.574322" lon="8.7663233"><ele>202.0</ele><time>2026-04-12T08:05:27.16Z</time></trkpt><trkpt lat="45.5743301" lon="8.7660241"><ele>202.0</ele><time>2026-04-12T08:05:28.175Z</time></trkpt><trkpt lat="45.5743326" lon="8.7657219"><ele>201.33333333333331</ele><time>2026-04-12T08:05:29.159Z</time></trkpt><trkpt lat="45.5743317" lon="8.7654186"><ele>200.66666666666669</ele><time>2026-04-12T08:05:30.164Z</time></trkpt><trkpt lat="45.5743235" lon="8.7651181"><ele>200.0</ele><time>2026-04-12T08:05:31.163Z</time></trkpt><trkpt lat="45.5743068" lon="8.7648154"><ele>199.0</ele><time>2026-04-12T08:05:32.162Z</time></trkpt><trkpt lat="45.5742852" lon="8.7645145"><ele>198.0</ele><time>2026-04-12T08:05:33.17Z</time></trkpt><trkpt lat="45.5742629" lon="8.7642159"><ele>197.0</ele><time>2026-04-12T08:05:34.161Z</time></trkpt><trkpt lat="45.5742377" lon="8.7639161"><ele>195.66666666666669</ele><time>2026-04-12T08:05:35.161Z</time></trkpt><trkpt lat="45.5742093" lon="8.7636141"><ele>194.33333333333331</ele><time>2026-04-12T08:05:36.158Z</time></trkpt><trkpt lat="45.5741767" lon="8.7633119"><ele>193.0</ele><time>2026-04-12T08:05:37.159Z</time></trkpt><trkpt lat="45.574138" lon="8.7630113"><ele>193.0</ele><time>2026-04-12T08:05:38.199Z</time></trkpt><trkpt lat="45.5741014" lon="8.7627101"><ele>193.0</ele><time>2026-04-12T08:05:39.167Z</time></trkpt><trkpt lat="45.5740609" lon="8.7624058"><ele>193.0</ele><time>2026-04-12T08:05:40.167Z</time></trkpt><trkpt lat="45.5740203" lon="8.762101"><ele>194.33333333333331</ele><time>2026-04-12T08:05:41.161Z</time></trkpt><trkpt lat="45.5739795" lon="8.7617948"><ele>195.66666666666669</ele><time>2026-04-12T08:05:42.165Z</time></trkpt><trkpt lat="45.5739389" lon="8.7614936"><ele>197.0</ele><time>2026-04-12T08:05:43.176Z</time></trkpt><trkpt lat="45.5738984" lon="8.7611927"><ele>196.0</ele><time>2026-04-12T08:05:44.163Z</time></trkpt><trkpt lat="45.5738589" lon="8.7608973"><ele>195.0</ele><time>2026-04-12T08:05:45.158Z</time></trkpt><trkpt lat="45.5738197" lon="8.7606051"><ele>194.0</ele><time>2026-04-12T08:05:46.186Z</time></trkpt><trkpt lat="45.5737798" lon="8.7603121"><ele>194.33333333333334</ele><time>2026-04-12T08:05:47.194Z</time></trkpt><trkpt lat="45.5737405" lon="8.76002"><ele>194.66666666666669</ele><time>2026-04-12T08:05:48.168Z</time></trkpt><trkpt lat="45.5737013" lon="8.7597292"><ele>195.0</ele><time>2026-04-12T08:05:49.16Z</time></trkpt><trkpt lat="45.5736633" lon="8.7594409"><ele>193.66666666666666</ele><time>2026-04-12T08:05:50.157Z</time></trkpt><trkpt lat="45.5736253" lon="8.7591545"><ele>192.33333333333331</ele><time>2026-04-12T08:05:51.167Z</time></trkpt><trkpt lat="45.5735873" lon="8.7588736"><ele>191.0</ele><time>2026-04-12T08:05:52.15Z</time></trkpt><trkpt lat="45.5735484" lon="8.7585926"><ele>191.33333333333331</ele><time>2026-04-12T08:05:53.156Z</time></trkpt><trkpt lat="45.5735083" lon="8.7583104"><ele>191.66666666666666</ele><time>2026-04-12T08:05:54.163Z</time></trkpt><trkpt lat="45.5734695" lon="8.7580297"><ele>192.0</ele><time>2026-04-12T08:05:55.154Z</time></trkpt><trkpt lat="45.5734302" lon="8.7577479"><ele>192.33333333333331</ele><time>2026-04-12T08:05:56.141Z</time></trkpt><trkpt lat="45.5733912" lon="8.7574657"><ele>192.66666666666666</ele><time>2026-04-12T08:05:57.16Z</time></trkpt><trkpt lat="45.5733521" lon="8.7571811"><ele>193.0</ele><time>2026-04-12T08:05:58.16Z</time></trkpt><trkpt lat="45.5733127" lon="8.7568954"><ele>193.0</ele><time>2026-04-12T08:05:59.16Z</time></trkpt><trkpt lat="45.5732733" lon="8.7566082"><ele>193.0</ele><time>2026-04-12T08:06:00.162Z</time></trkpt><trkpt lat="45.5732323" lon="8.7563216"><ele>193.0</ele><time>2026-04-12T08:06:01.154Z</time></trkpt><trkpt lat="45.5731919" lon="8.756035"><ele>193.0</ele><time>2026-04-12T08:06:02.188Z</time></trkpt><trkpt lat="45.5731517" lon="8.7557485"><ele>193.0</ele><time>2026-04-12T08:06:03.191Z</time></trkpt><trkpt lat="45.5731088" lon="8.7554644"><ele>193.0</ele><time>2026-04-12T08:06:04.172Z</time></trkpt><trkpt lat="45.5730648" lon="8.7551796"><ele>193.33333333333331</ele><time>2026-04-12T08:06:05.197Z</time></trkpt><trkpt lat="45.5730193" lon="8.7548985"><ele>193.66666666666669</ele><time>2026-04-12T08:06:06.158Z</time></trkpt><trkpt lat="45.5729745" lon="8.75462"><ele>194.0</ele><time>2026-04-12T08:06:07.165Z</time></trkpt><trkpt lat="45.5729271" lon="8.7543422"><ele>194.33333333333334</ele><time>2026-04-12T08:06:08.169Z</time></trkpt><trkpt lat="45.5728779" lon="8.7540638"><ele>194.66666666666669</ele><time>2026-04-12T08:06:09.165Z</time></trkpt><trkpt lat="45.5728262" lon="8.7537854"><ele>195.0</ele><time>2026-04-12T08:06:10.166Z</time></trkpt><trkpt lat="45.5727713" lon="8.7535046"><ele>193.33333333333334</ele><time>2026-04-12T08:06:11.154Z</time></trkpt><trkpt lat="45.5727152" lon="8.7532256"><ele>191.66666666666669</ele><time>2026-04-12T08:06:12.16Z</time></trkpt><trkpt lat="45.572654" lon="8.7529505"><ele>190.0</ele><time>2026-04-12T08:06:13.171Z</time></trkpt><trkpt lat="45.5725933" lon="8.7526773"><ele>190.0</ele><time>2026-04-12T08:06:14.155Z</time></trkpt><trkpt lat="45.5725315" lon="8.7524051"><ele>190.0</ele><time>2026-04-12T08:06:15.166Z</time></trkpt><trkpt lat="45.5724662" lon="8.7521334"><ele>190.0</ele><time>2026-04-12T08:06:16.155Z</time></trkpt><trkpt lat="45.572399" lon="8.7518609"><ele>190.66666666666669</ele><time>2026-04-12T08:06:17.159Z</time></trkpt><trkpt lat="45.5723284" lon="8.7515895"><ele>191.33333333333334</ele><time>2026-04-12T08:06:18.175Z</time></trkpt><trkpt lat="45.5722566" lon="8.7513168"><ele>192.0</ele><time>2026-04-12T08:06:19.168Z</time></trkpt><trkpt lat="45.5721829" lon="8.7510449"><ele>192.0</ele><time>2026-04-12T08:06:20.157Z</time></trkpt><trkpt lat="45.5721086" lon="8.7507763"><ele>192.0</ele><time>2026-04-12T08:06:21.161Z</time></trkpt><trkpt lat="45.5720347" lon="8.7505078"><ele>192.0</ele><time>2026-04-12T08:06:22.171Z</time></trkpt><trkpt lat="45.5719613" lon="8.7502421"><ele>193.0</ele><time>2026-04-12T08:06:23.162Z</time></trkpt><trkpt lat="45.5718874" lon="8.7499785"><ele>194.0</ele><time>2026-04-12T08:06:24.182Z</time></trkpt><trkpt lat="45.5718147" lon="8.7497139"><ele>195.0</ele><time>2026-04-12T08:06:25.168Z</time></trkpt><trkpt lat="45.5717434" lon="8.7494489"><ele>195.33333333333331</ele><time>2026-04-12T08:06:26.161Z</time></trkpt><trkpt lat="45.5716756" lon="8.7491821"><ele>195.66666666666666</ele><time>2026-04-12T08:06:27.168Z</time></trkpt><trkpt lat="45.5716085" lon="8.7489136"><ele>196.0</ele><time>2026-04-12T08:06:28.162Z</time></trkpt><trkpt lat="45.5715437" lon="8.7486507"><ele>196.66666666666666</ele><time>2026-04-12T08:06:29.188Z</time></trkpt><trkpt lat="45.5714829" lon="8.7483859"><ele>197.33333333333331</ele><time>2026-04-12T08:06:30.163Z</time></trkpt><trkpt lat="45.5714275" lon="8.7481313"><ele>198.0</ele><time>2026-04-12T08:06:31.165Z</time></trkpt><trkpt lat="45.5713775" lon="8.7478847"><ele>198.33333333333331</ele><time>2026-04-12T08:06:32.153Z</time></trkpt><trkpt lat="45.5713272" lon="8.7476178"><ele>198.66666666666666</ele><time>2026-04-12T08:06:33.171Z</time></trkpt><trkpt lat="45.5712778" lon="8.7473239"><ele>199.0</ele><time>2026-04-12T08:06:34.162Z</time></trkpt><trkpt lat="45.5712308" lon="8.7469955"><ele>199.5</ele><time>2026-04-12T08:06:35.168Z</time></trkpt><trkpt lat="45.5711928" lon="8.7466414"><ele>200.0</ele><time>2026-04-12T08:06:36.167Z</time></trkpt><trkpt lat="45.5711642" lon="8.7462739"><ele>199.0</ele><time>2026-04-12T08:06:37.164Z</time></trkpt><trkpt lat="45.5711465" lon="8.7458992"><ele>198.0</ele><time>2026-04-12T08:06:38.164Z</time></trkpt><trkpt lat="45.5711425" lon="8.745528"><ele>199.0</ele><time>2026-04-12T08:06:39.168Z</time></trkpt><trkpt lat="45.5711514" lon="8.7451602"><ele>200.0</ele><time>2026-04-12T08:06:40.161Z</time></trkpt><trkpt lat="45.5711737" lon="8.7447947"><ele>200.5</ele><time>2026-04-12T08:06:41.167Z</time></trkpt><trkpt lat="45.5712083" lon="8.7444324"><ele>201.0</ele><time>2026-04-12T08:06:42.166Z</time></trkpt><trkpt lat="45.5712547" lon="8.7440731"><ele>201.0</ele><time>2026-04-12T08:06:43.17Z</time></trkpt><trkpt lat="45.5713117" lon="8.7437207"><ele>201.0</ele><time>2026-04-12T08:06:44.166Z</time></trkpt><trkpt lat="45.5713792" lon="8.7433745"><ele>199.5</ele><time>2026-04-12T08:06:45.164Z</time></trkpt><trkpt lat="45.5714571" lon="8.7430317"><ele>198.0</ele><time>2026-04-12T08:06:46.17Z</time></trkpt><trkpt lat="45.5715463" lon="8.7426929"><ele>198.0</ele><time>2026-04-12T08:06:47.168Z</time></trkpt><trkpt lat="45.5716489" lon="8.742359"><ele>198.0</ele><time>2026-04-12T08:06:48.167Z</time></trkpt><trkpt lat="45.5717658" lon="8.7420357"><ele>197.5</ele><time>2026-04-12T08:06:49.196Z</time></trkpt><trkpt lat="45.5718922" lon="8.741717"><ele>197.0</ele><time>2026-04-12T08:06:50.191Z</time></trkpt><trkpt lat="45.5720277" lon="8.7414098"><ele>198.0</ele><time>2026-04-12T08:06:51.167Z</time></trkpt><trkpt lat="45.5722106" lon="8.7411117"><ele>199.0</ele><time>2026-04-12T08:06:52.163Z</time></trkpt><trkpt lat="45.5723622" lon="8.74084"><ele>199.0</ele><time>2026-04-12T08:06:53.155Z</time></trkpt><trkpt lat="45.5725194" lon="8.7405721"><ele>199.0</ele><time>2026-04-12T08:06:54.154Z</time></trkpt><trkpt lat="45.572671" lon="8.7403103"><ele>198.5</ele><time>2026-04-12T08:06:55.157Z</time></trkpt><trkpt lat="45.5728287" lon="8.7400496"><ele>198.0</ele><time>2026-04-12T08:06:56.154Z</time></trkpt><trkpt lat="45.5729941" lon="8.7397828"><ele>198.0</ele><time>2026-04-12T08:06:57.158Z</time></trkpt><trkpt lat="45.5731638" lon="8.7395241"><ele>198.0</ele><time>2026-04-12T08:06:58.164Z</time></trkpt><trkpt lat="45.5733349" lon="8.7392673"><ele>196.0</ele><time>2026-04-12T08:06:59.159Z</time></trkpt><trkpt lat="45.5740097" lon="8.7382686"><ele>196.0</ele><time>2026-04-12T08:07:03.168Z</time></trkpt><trkpt lat="45.574173" lon="8.7380397"><ele>196.0</ele><time>2026-04-12T08:07:04.166Z</time></trkpt><trkpt lat="45.5743387" lon="8.737815"><ele>195.5</ele><time>2026-04-12T08:07:05.159Z</time></trkpt><trkpt lat="45.5745104" lon="8.7375798"><ele>195.0</ele><time>2026-04-12T08:07:06.156Z</time></trkpt><trkpt lat="45.5746766" lon="8.7373387"><ele>195.0</ele><time>2026-04-12T08:07:07.165Z</time></trkpt><trkpt lat="45.5748499" lon="8.7371045"><ele>195.0</ele><time>2026-04-12T08:07:08.174Z</time></trkpt><trkpt lat="45.5750239" lon="8.7368719"><ele>196.5</ele><time>2026-04-12T08:07:09.189Z</time></trkpt><trkpt lat="45.5751878" lon="8.7366135"><ele>198.0</ele><time>2026-04-12T08:07:10.165Z</time></trkpt><trkpt lat="45.575356" lon="8.7363721"><ele>198.0</ele><time>2026-04-12T08:07:11.158Z</time></trkpt><trkpt lat="45.5755228" lon="8.7361387"><ele>198.0</ele><time>2026-04-12T08:07:12.157Z</time></trkpt><trkpt lat="45.5756927" lon="8.7359058"><ele>196.5</ele><time>2026-04-12T08:07:13.155Z</time></trkpt><trkpt lat="45.5758634" lon="8.735672"><ele>195.0</ele><time>2026-04-12T08:07:14.204Z</time></trkpt><trkpt lat="45.5760287" lon="8.7354389"><ele>196.0</ele><time>2026-04-12T08:07:15.17Z</time></trkpt><trkpt lat="45.5761927" lon="8.7352077"><ele>197.0</ele><time>2026-04-12T08:07:16.158Z</time></trkpt><trkpt lat="45.5763498" lon="8.7349723"><ele>197.0</ele><time>2026-04-12T08:07:17.154Z</time></trkpt><trkpt lat="45.576501" lon="8.734727"><ele>197.0</ele><time>2026-04-12T08:07:18.164Z</time></trkpt><trkpt lat="45.5766412" lon="8.7344781"><ele>199.0</ele><time>2026-04-12T08:07:19.168Z</time></trkpt><trkpt lat="45.5799299" lon="8.7297507"><ele>199.0</ele><time>2026-04-12T08:07:38.142Z</time></trkpt><trkpt lat="45.5801613" lon="8.7296045"><ele>199.0</ele><time>2026-04-12T08:07:39.143Z</time></trkpt><trkpt lat="45.5803832" lon="8.7294466"><ele>200.5</ele><time>2026-04-12T08:07:40.153Z</time></trkpt><trkpt lat="45.5805978" lon="8.7292777"><ele>202.0</ele><time>2026-04-12T08:07:41.163Z</time></trkpt><trkpt lat="45.5808097" lon="8.7291093"><ele>202.0</ele><time>2026-04-12T08:07:42.147Z</time></trkpt><trkpt lat="45.5810212" lon="8.7289496"><ele>202.0</ele><time>2026-04-12T08:07:43.148Z</time></trkpt><trkpt lat="45.5812504" lon="8.7288087"><ele>200.5</ele><time>2026-04-12T08:07:44.146Z</time></trkpt><trkpt lat="45.5814913" lon="8.7287054"><ele>199.0</ele><time>2026-04-12T08:07:45.151Z</time></trkpt><trkpt lat="45.581721" lon="8.7286123"><ele>199.5</ele><time>2026-04-12T08:07:46.168Z</time></trkpt><trkpt lat="45.5819347" lon="8.7284673"><ele>200.0</ele><time>2026-04-12T08:07:47.173Z</time></trkpt><trkpt lat="45.5821529" lon="8.7283285"><ele>200.0</ele><time>2026-04-12T08:07:48.189Z</time></trkpt><trkpt lat="45.5823685" lon="8.728184"><ele>200.0</ele><time>2026-04-12T08:07:49.171Z</time></trkpt><trkpt lat="45.5825934" lon="8.7280362"><ele>200.0</ele><time>2026-04-12T08:07:50.156Z</time></trkpt><trkpt lat="45.5828129" lon="8.7278725"><ele>200.0</ele><time>2026-04-12T08:07:51.149Z</time></trkpt><trkpt lat="45.5830373" lon="8.7277115"><ele>198.0</ele><time>2026-04-12T08:07:52.161Z</time></trkpt><trkpt lat="45.5832597" lon="8.7275279"><ele>196.0</ele><time>2026-04-12T08:07:53.162Z</time></trkpt><trkpt lat="45.5834712" lon="8.7273451"><ele>196.0</ele><time>2026-04-12T08:07:54.193Z</time></trkpt><trkpt lat="45.5836568" lon="8.7271585"><ele>196.0</ele><time>2026-04-12T08:07:55.157Z</time></trkpt><trkpt lat="45.5838195" lon="8.7269742"><ele>196.0</ele><time>2026-04-12T08:07:56.159Z</time></trkpt><trkpt lat="45.5839607" lon="8.7267938"><ele>196.0</ele><time>2026-04-12T08:07:57.16Z</time></trkpt><trkpt lat="45.5840878" lon="8.7266137"><ele>196.0</ele><time>2026-04-12T08:07:58.148Z</time></trkpt><trkpt lat="45.5841898" lon="8.7264606"><ele>196.0</ele><time>2026-04-12T08:07:59.175Z</time></trkpt><trkpt lat="45.5842782" lon="8.7263185"><ele>196.0</ele><time>2026-04-12T08:08:00.158Z</time></trkpt><trkpt lat="45.5843634" lon="8.7261994"><ele>196.0</ele><time>2026-04-12T08:08:01.162Z</time></trkpt><trkpt lat="45.5844736" lon="8.7261305"><ele>196.0</ele><time>2026-04-12T08:08:02.178Z</time></trkpt><trkpt lat="45.5845878" lon="8.7260794"><ele>196.0</ele><time>2026-04-12T08:08:03.2Z</time></trkpt><trkpt lat="45.5846625" lon="8.7259709"><ele>197.20000000000002</ele><time>2026-04-12T08:08:04.163Z</time></trkpt><trkpt lat="45.584732" lon="8.7258655"><ele>198.4</ele><time>2026-04-12T08:08:05.161Z</time></trkpt><trkpt lat="45.584767" lon="8.7257377"><ele>199.6</ele><time>2026-04-12T08:08:06.158Z</time></trkpt><trkpt lat="45.5847854" lon="8.7256096"><ele>200.8</ele><time>2026-04-12T08:08:07.164Z</time></trkpt><trkpt lat="45.5847692" lon="8.7254668"><ele>202.0</ele><time>2026-04-12T08:08:08.16Z</time></trkpt><trkpt lat="45.5847448" lon="8.7253384"><ele>201.5</ele><time>2026-04-12T08:08:09.164Z</time></trkpt><trkpt lat="45.5846549" lon="8.7252157"><ele>201.0</ele><time>2026-04-12T08:08:10.162Z</time></trkpt><trkpt lat="45.584557" lon="8.725106"><ele>200.5</ele><time>2026-04-12T08:08:11.164Z</time></trkpt><trkpt lat="45.5844436" lon="8.7250343"><ele>200.0</ele><time>2026-04-12T08:08:12.192Z</time></trkpt><trkpt lat="45.5843179" lon="8.724999"><ele>199.25</ele><time>2026-04-12T08:08:13.192Z</time></trkpt><trkpt lat="45.5841979" lon="8.7249959"><ele>198.5</ele><time>2026-04-12T08:08:14.167Z</time></trkpt><trkpt lat="45.5840874" lon="8.7249695"><ele>197.75</ele><time>2026-04-12T08:08:15.156Z</time></trkpt><trkpt lat="45.5839857" lon="8.7249028"><ele>197.0</ele><time>2026-04-12T08:08:16.158Z</time></trkpt><trkpt lat="45.5839024" lon="8.7247958"><ele>197.0</ele><time>2026-04-12T08:08:17.17Z</time></trkpt><trkpt lat="45.5838071" lon="8.7246799"><ele>197.0</ele><time>2026-04-12T08:08:18.195Z</time></trkpt><trkpt lat="45.583714" lon="8.724543"><ele>197.0</ele><time>2026-04-12T08:08:19.152Z</time></trkpt><trkpt lat="45.5836191" lon="8.7243974"><ele>197.0</ele><time>2026-04-12T08:08:20.155Z</time></trkpt><trkpt lat="45.583516" lon="8.7242407"><ele>198.0</ele><time>2026-04-12T08:08:21.157Z</time></trkpt><trkpt lat="45.5834058" lon="8.7240789"><ele>199.0</ele><time>2026-04-12T08:08:22.166Z</time></trkpt><trkpt lat="45.5832918" lon="8.7239016"><ele>200.0</ele><time>2026-04-12T08:08:23.194Z</time></trkpt><trkpt lat="45.5831602" lon="8.7236967"><ele>199.5</ele><time>2026-04-12T08:08:24.169Z</time></trkpt><trkpt lat="45.5830138" lon="8.7234657"><ele>199.0</ele><time>2026-04-12T08:08:25.166Z</time></trkpt><trkpt lat="45.5828584" lon="8.7232018"><ele>199.0</ele><time>2026-04-12T08:08:26.162Z</time></trkpt><trkpt lat="45.5826792" lon="8.7229118"><ele>199.0</ele><time>2026-04-12T08:08:27.158Z</time></trkpt><trkpt lat="45.5824738" lon="8.7225816"><ele>199.0</ele><time>2026-04-12T08:08:28.143Z</time></trkpt><trkpt lat="45.58229" lon="8.7222935"><ele>199.0</ele><time>2026-04-12T08:08:29.152Z</time></trkpt><trkpt lat="45.5821129" lon="8.7220199"><ele>197.0</ele><time>2026-04-12T08:08:30.156Z</time></trkpt><trkpt lat="45.5819449" lon="8.7217637"><ele>195.0</ele><time>2026-04-12T08:08:31.161Z</time></trkpt><trkpt lat="45.5817833" lon="8.7215059"><ele>195.0</ele><time>2026-04-12T08:08:32.166Z</time></trkpt><trkpt lat="45.5816283" lon="8.7212628"><ele>195.0</ele><time>2026-04-12T08:08:33.159Z</time></trkpt><trkpt lat="45.581476" lon="8.7210279"><ele>195.33333333333331</ele><time>2026-04-12T08:08:34.164Z</time></trkpt><trkpt lat="45.5813299" lon="8.7208008"><ele>195.66666666666666</ele><time>2026-04-12T08:08:35.154Z</time></trkpt><trkpt lat="45.5811904" lon="8.7205818"><ele>196.0</ele><time>2026-04-12T08:08:36.163Z</time></trkpt><trkpt lat="45.5810593" lon="8.7203732"><ele>196.0</ele><time>2026-04-12T08:08:37.151Z</time></trkpt><trkpt lat="45.5809307" lon="8.7201836"><ele>196.0</ele><time>2026-04-12T08:08:38.16Z</time></trkpt><trkpt lat="45.5808102" lon="8.7199972"><ele>196.0</ele><time>2026-04-12T08:08:39.159Z</time></trkpt><trkpt lat="45.5806934" lon="8.7198134"><ele>196.0</ele><time>2026-04-12T08:08:40.17Z</time></trkpt><trkpt lat="45.5805759" lon="8.7196366"><ele>196.0</ele><time>2026-04-12T08:08:41.168Z</time></trkpt><trkpt lat="45.580463" lon="8.7194636"><ele>196.0</ele><time>2026-04-12T08:08:42.203Z</time></trkpt><trkpt lat="45.5803556" lon="8.7192891"><ele>195.75</ele><time>2026-04-12T08:08:43.192Z</time></trkpt><trkpt lat="45.5802511" lon="8.7191194"><ele>195.5</ele><time>2026-04-12T08:08:44.163Z</time></trkpt><trkpt lat="45.5801555" lon="8.7189589"><ele>195.25</ele><time>2026-04-12T08:08:45.159Z</time></trkpt><trkpt lat="45.580061" lon="8.7188099"><ele>195.0</ele><time>2026-04-12T08:08:46.207Z</time></trkpt><trkpt lat="45.5799652" lon="8.7186556"><ele>195.25</ele><time>2026-04-12T08:08:47.161Z</time></trkpt><trkpt lat="45.5798695" lon="8.718503"><ele>195.5</ele><time>2026-04-12T08:08:48.16Z</time></trkpt><trkpt lat="45.5797744" lon="8.7183515"><ele>195.75</ele><time>2026-04-12T08:08:49.196Z</time></trkpt><trkpt lat="45.5796843" lon="8.718205"><ele>196.0</ele><time>2026-04-12T08:08:50.163Z</time></trkpt><trkpt lat="45.5796053" lon="8.7180725"><ele>195.99999999999997</ele><time>2026-04-12T08:08:51.171Z</time></trkpt><trkpt lat="45.5795302" lon="8.7179406"><ele>196.0</ele><time>2026-04-12T08:08:52.186Z</time></trkpt><trkpt lat="45.5794688" lon="8.7178345"><ele>196.0</ele><time>2026-04-12T08:08:53.195Z</time></trkpt><trkpt lat="45.5794173" lon="8.7177464"><ele>196.0</ele><time>2026-04-12T08:08:54.19Z</time></trkpt><trkpt lat="45.5793814" lon="8.7176593"><ele>195.99999999999997</ele><time>2026-04-12T08:08:55.159Z</time></trkpt><trkpt lat="45.5793553" lon="8.7175707"><ele>196.0</ele><time>2026-04-12T08:08:56.171Z</time></trkpt><trkpt lat="45.5793457" lon="8.7174662"><ele>196.0</ele><time>2026-04-12T08:08:57.173Z</time></trkpt><trkpt lat="45.5793421" lon="8.7173659"><ele>196.0</ele><time>2026-04-12T08:08:58.202Z</time></trkpt><trkpt lat="45.5793285" lon="8.7172736"><ele>196.0</ele><time>2026-04-12T08:08:59.178Z</time></trkpt><trkpt lat="45.5793056" lon="8.7171855"><ele>196.0</ele><time>2026-04-12T08:09:00.152Z</time></trkpt><trkpt lat="45.5792633" lon="8.717114"><ele>196.0</ele><time>2026-04-12T08:09:01.159Z</time></trkpt><trkpt lat="45.5792062" lon="8.7170596"><ele>196.0</ele><time>2026-04-12T08:09:02.162Z</time></trkpt><trkpt lat="45.5791425" lon="8.7170289"><ele>196.0</ele><time>2026-04-12T08:09:03.161Z</time></trkpt><trkpt lat="45.5790804" lon="8.7170054"><ele>196.0</ele><time>2026-04-12T08:09:04.168Z</time></trkpt><trkpt lat="45.5790092" lon="8.7169789"><ele>196.0</ele><time>2026-04-12T08:09:05.159Z</time></trkpt><trkpt lat="45.5789238" lon="8.7169116"><ele>196.0</ele><time>2026-04-12T08:09:06.157Z</time></trkpt><trkpt lat="45.5788217" lon="8.7168143"><ele>196.0</ele><time>2026-04-12T08:09:07.215Z</time></trkpt><trkpt lat="45.5787226" lon="8.7167126"><ele>196.0</ele><time>2026-04-12T08:09:08.164Z</time></trkpt><trkpt lat="45.5786199" lon="8.7165623"><ele>194.33333333333331</ele><time>2026-04-12T08:09:09.175Z</time></trkpt><trkpt lat="45.5785124" lon="8.7164011"><ele>192.66666666666666</ele><time>2026-04-12T08:09:10.16Z</time></trkpt><trkpt lat="45.5783729" lon="8.7161952"><ele>191.0</ele><time>2026-04-12T08:09:11.157Z</time></trkpt><trkpt lat="45.5782083" lon="8.7159395"><ele>191.0</ele><time>2026-04-12T08:09:12.173Z</time></trkpt><trkpt lat="45.5779755" lon="8.7155296"><ele>191.0</ele><time>2026-04-12T08:09:13.2Z</time></trkpt><trkpt lat="45.5777811" lon="8.7152004"><ele>189.33333333333331</ele><time>2026-04-12T08:09:14.193Z</time></trkpt><trkpt lat="45.5776851" lon="8.7150143"><ele>187.66666666666666</ele><time>2026-04-12T08:09:15.16Z</time></trkpt><trkpt lat="45.5775743" lon="8.7148071"><ele>186.0</ele><time>2026-04-12T08:09:16.159Z</time></trkpt><trkpt lat="45.5774713" lon="8.7145882"><ele>187.75</ele><time>2026-04-12T08:09:17.167Z</time></trkpt><trkpt lat="45.5773974" lon="8.714391"><ele>189.5</ele><time>2026-04-12T08:09:18.148Z</time></trkpt><trkpt lat="45.5773492" lon="8.7141967"><ele>191.25</ele><time>2026-04-12T08:09:19.16Z</time></trkpt><trkpt lat="45.5773163" lon="8.7140024"><ele>193.0</ele><time>2026-04-12T08:09:20.172Z</time></trkpt><trkpt lat="45.5772959" lon="8.713802"><ele>193.0</ele><time>2026-04-12T08:09:21.147Z</time></trkpt><trkpt lat="45.577281" lon="8.7136015"><ele>193.0</ele><time>2026-04-12T08:09:22.162Z</time></trkpt><trkpt lat="45.5772716" lon="8.7134004"><ele>193.0</ele><time>2026-04-12T08:09:23.162Z</time></trkpt><trkpt lat="45.5772648" lon="8.7132068"><ele>193.0</ele><time>2026-04-12T08:09:24.198Z</time></trkpt><trkpt lat="45.577278" lon="8.713022"><ele>192.25</ele><time>2026-04-12T08:09:25.164Z</time></trkpt><trkpt lat="45.5773053" lon="8.7128481"><ele>191.5</ele><time>2026-04-12T08:09:26.163Z</time></trkpt><trkpt lat="45.5773569" lon="8.7126845"><ele>190.75</ele><time>2026-04-12T08:09:27.193Z</time></trkpt><trkpt lat="45.5774302" lon="8.712538"><ele>190.0</ele><time>2026-04-12T08:09:28.16Z</time></trkpt><trkpt lat="45.5775265" lon="8.7124195"><ele>189.75</ele><time>2026-04-12T08:09:29.196Z</time></trkpt><trkpt lat="45.5776374" lon="8.7123288"><ele>189.5</ele><time>2026-04-12T08:09:30.157Z</time></trkpt><trkpt lat="45.5777572" lon="8.7122583"><ele>189.25</ele><time>2026-04-12T08:09:31.163Z</time></trkpt><trkpt lat="45.5778904" lon="8.7122051"><ele>189.0</ele><time>2026-04-12T08:09:32.172Z</time></trkpt><trkpt lat="45.5780314" lon="8.7121405"><ele>189.0</ele><time>2026-04-12T08:09:33.19Z</time></trkpt><trkpt lat="45.5781816" lon="8.7120649"><ele>189.0</ele><time>2026-04-12T08:09:34.171Z</time></trkpt><trkpt lat="45.5783362" lon="8.7119908"><ele>189.0</ele><time>2026-04-12T08:09:35.156Z</time></trkpt><trkpt lat="45.5784868" lon="8.7119115"><ele>187.66666666666666</ele><time>2026-04-12T08:09:36.162Z</time></trkpt><trkpt lat="45.5786373" lon="8.7118216"><ele>186.33333333333331</ele><time>2026-04-12T08:09:37.207Z</time></trkpt><trkpt lat="45.578803" lon="8.7117054"><ele>185.0</ele><time>2026-04-12T08:09:38.196Z</time></trkpt><trkpt lat="45.5789913" lon="8.7115593"><ele>185.0</ele><time>2026-04-12T08:09:39.198Z</time></trkpt><trkpt lat="45.5792" lon="8.7113859"><ele>185.0</ele><time>2026-04-12T08:09:40.155Z</time></trkpt><trkpt lat="45.5794133" lon="8.7111984"><ele>184.0</ele><time>2026-04-12T08:09:41.16Z</time></trkpt><trkpt lat="45.5796303" lon="8.7109671"><ele>183.0</ele><time>2026-04-12T08:09:42.188Z</time></trkpt><trkpt lat="45.5798655" lon="8.7106932"><ele>183.0</ele><time>2026-04-12T08:09:43.19Z</time></trkpt><trkpt lat="45.5800907" lon="8.7104141"><ele>183.0</ele><time>2026-04-12T08:09:44.17Z</time></trkpt><trkpt lat="45.5803192" lon="8.7101245"><ele>183.0</ele><time>2026-04-12T08:09:45.159Z</time></trkpt><trkpt lat="45.5805524" lon="8.7098324"><ele>183.0</ele><time>2026-04-12T08:09:46.16Z</time></trkpt><trkpt lat="45.5807627" lon="8.709562"><ele>177.5</ele><time>2026-04-12T08:09:47.192Z</time></trkpt><trkpt lat="45.5809697" lon="8.7093103"><ele>172.0</ele><time>2026-04-12T08:09:48.184Z</time></trkpt><trkpt lat="45.5811655" lon="8.7090872"><ele>174.5</ele><time>2026-04-12T08:09:49.155Z</time></trkpt><trkpt lat="45.5813367" lon="8.7088458"><ele>177.0</ele><time>2026-04-12T08:09:50.159Z</time></trkpt><trkpt lat="45.5814761" lon="8.7085739"><ele>177.0</ele><time>2026-04-12T08:09:51.166Z</time></trkpt><trkpt lat="45.5816012" lon="8.7083051"><ele>177.0</ele><time>2026-04-12T08:09:52.152Z</time></trkpt><trkpt lat="45.5817252" lon="8.7080439"><ele>177.0</ele><time>2026-04-12T08:09:53.144Z</time></trkpt><trkpt lat="45.5818823" lon="8.7077909"><ele>176.5</ele><time>2026-04-12T08:09:54.161Z</time></trkpt><trkpt lat="45.5820613" lon="8.7075804"><ele>176.0</ele><time>2026-04-12T08:09:55.159Z</time></trkpt><trkpt lat="45.5822616" lon="8.7074091"><ele>176.0</ele><time>2026-04-12T08:09:56.164Z</time></trkpt><trkpt lat="45.5824728" lon="8.7072697"><ele>176.0</ele><time>2026-04-12T08:09:57.146Z</time></trkpt><trkpt lat="45.5826642" lon="8.7071578"><ele>176.0</ele><time>2026-04-12T08:09:58.165Z</time></trkpt><trkpt lat="45.5828403" lon="8.7071033"><ele>177.33333333333331</ele><time>2026-04-12T08:09:59.162Z</time></trkpt><trkpt lat="45.5830191" lon="8.7070956"><ele>178.66666666666666</ele><time>2026-04-12T08:10:00.163Z</time></trkpt><trkpt lat="45.5832098" lon="8.7071311"><ele>180.0</ele><time>2026-04-12T08:10:01.193Z</time></trkpt><trkpt lat="45.5833956" lon="8.7071683"><ele>180.0</ele><time>2026-04-12T08:10:02.194Z</time></trkpt><trkpt lat="45.5835832" lon="8.7072026"><ele>180.0</ele><time>2026-04-12T08:10:03.166Z</time></trkpt><trkpt lat="45.5837689" lon="8.7072373"><ele>180.0</ele><time>2026-04-12T08:10:04.163Z</time></trkpt><trkpt lat="45.5839524" lon="8.7072834"><ele>177.66666666666666</ele><time>2026-04-12T08:10:05.159Z</time></trkpt><trkpt lat="45.584128" lon="8.7073368"><ele>175.33333333333331</ele><time>2026-04-12T08:10:06.166Z</time></trkpt><trkpt lat="45.5842963" lon="8.7073873"><ele>173.0</ele><time>2026-04-12T08:10:07.198Z</time></trkpt><trkpt lat="45.5844639" lon="8.707421"><ele>173.0</ele><time>2026-04-12T08:10:08.194Z</time></trkpt><trkpt lat="45.5846509" lon="8.7074504"><ele>173.0</ele><time>2026-04-12T08:10:09.194Z</time></trkpt><trkpt lat="45.5848438" lon="8.7074831"><ele>173.0</ele><time>2026-04-12T08:10:10.159Z</time></trkpt><trkpt lat="45.5850387" lon="8.7075063"><ele>173.0</ele><time>2026-04-12T08:10:11.164Z</time></trkpt><trkpt lat="45.5852334" lon="8.707515"><ele>173.0</ele><time>2026-04-12T08:10:12.169Z</time></trkpt><trkpt lat="45.5854332" lon="8.7075182"><ele>173.0</ele><time>2026-04-12T08:10:13.167Z</time></trkpt><trkpt lat="45.5856332" lon="8.7075071"><ele>173.66666666666666</ele><time>2026-04-12T08:10:14.201Z</time></trkpt><trkpt lat="45.5858278" lon="8.7074748"><ele>174.33333333333334</ele><time>2026-04-12T08:10:15.146Z</time></trkpt><trkpt lat="45.5860141" lon="8.7074234"><ele>175.0</ele><time>2026-04-12T08:10:16.147Z</time></trkpt><trkpt lat="45.5861837" lon="8.7073779"><ele>175.0</ele><time>2026-04-12T08:10:17.156Z</time></trkpt><trkpt lat="45.5863124" lon="8.7072664"><ele>175.0</ele><time>2026-04-12T08:10:18.156Z</time></trkpt><trkpt lat="45.586423" lon="8.7071357"><ele>175.0</ele><time>2026-04-12T08:10:19.166Z</time></trkpt><trkpt lat="45.5865172" lon="8.70697"><ele>175.0</ele><time>2026-04-12T08:10:20.158Z</time></trkpt><trkpt lat="45.5865935" lon="8.7067828"><ele>171.75</ele><time>2026-04-12T08:10:21.159Z</time></trkpt><trkpt lat="45.586661" lon="8.7066053"><ele>168.5</ele><time>2026-04-12T08:10:22.16Z</time></trkpt><trkpt lat="45.5867292" lon="8.7064346"><ele>165.25</ele><time>2026-04-12T08:10:23.168Z</time></trkpt><trkpt lat="45.5867971" lon="8.7062923"><ele>162.0</ele><time>2026-04-12T08:10:24.166Z</time></trkpt><trkpt lat="45.5868757" lon="8.7061636"><ele>160.75</ele><time>2026-04-12T08:10:25.16Z</time></trkpt><trkpt lat="45.5869692" lon="8.7060569"><ele>159.5</ele><time>2026-04-12T08:10:26.165Z</time></trkpt><trkpt lat="45.5870765" lon="8.7059674"><ele>158.25</ele><time>2026-04-12T08:10:27.148Z</time></trkpt><trkpt lat="45.587199" lon="8.7058949"><ele>157.0</ele><time>2026-04-12T08:10:28.171Z</time></trkpt><trkpt lat="45.5873321" lon="8.70585"><ele>157.0</ele><time>2026-04-12T08:10:29.182Z</time></trkpt><trkpt lat="45.587479" lon="8.7058465"><ele>157.0</ele><time>2026-04-12T08:10:30.172Z</time></trkpt><trkpt lat="45.5876487" lon="8.7059028"><ele>157.0</ele><time>2026-04-12T08:10:31.158Z</time></trkpt><trkpt lat="45.5878096" lon="8.7059772"><ele>156.0</ele><time>2026-04-12T08:10:32.19Z</time></trkpt><trkpt lat="45.5879697" lon="8.7060698"><ele>155.0</ele><time>2026-04-12T08:10:33.156Z</time></trkpt><trkpt lat="45.5881261" lon="8.7061673"><ele>154.0</ele><time>2026-04-12T08:10:34.195Z</time></trkpt><trkpt lat="45.5882787" lon="8.7062558"><ele>155.66666666666669</ele><time>2026-04-12T08:10:35.152Z</time></trkpt><trkpt lat="45.5884288" lon="8.7063412"><ele>157.33333333333334</ele><time>2026-04-12T08:10:36.157Z</time></trkpt><trkpt lat="45.5885769" lon="8.7064237"><ele>159.0</ele><time>2026-04-12T08:10:37.174Z</time></trkpt><trkpt lat="45.5887219" lon="8.7064947"><ele>159.0</ele><time>2026-04-12T08:10:38.162Z</time></trkpt><trkpt lat="45.5888463" lon="8.7065358"><ele>159.0</ele><time>2026-04-12T08:10:39.153Z</time></trkpt><trkpt lat="45.5889765" lon="8.7065308"><ele>159.0</ele><time>2026-04-12T08:10:40.165Z</time></trkpt><trkpt lat="45.5891" lon="8.7064887"><ele>159.0</ele><time>2026-04-12T08:10:41.167Z</time></trkpt><trkpt lat="45.5892067" lon="8.706411"><ele>159.0</ele><time>2026-04-12T08:10:42.157Z</time></trkpt><trkpt lat="45.5892965" lon="8.706311"><ele>159.0</ele><time>2026-04-12T08:10:43.157Z</time></trkpt><trkpt lat="45.5893768" lon="8.7061921"><ele>159.0</ele><time>2026-04-12T08:10:44.164Z</time></trkpt><trkpt lat="45.5894333" lon="8.706059"><ele>159.0</ele><time>2026-04-12T08:10:45.162Z</time></trkpt><trkpt lat="45.5894697" lon="8.7059334"><ele>159.0</ele><time>2026-04-12T08:10:46.162Z</time></trkpt><trkpt lat="45.5894878" lon="8.7058196"><ele>158.0</ele><time>2026-04-12T08:10:47.211Z</time></trkpt><trkpt lat="45.58949" lon="8.7056903"><ele>157.0</ele><time>2026-04-12T08:10:48.174Z</time></trkpt><trkpt lat="45.5894876" lon="8.7055426"><ele>156.0</ele><time>2026-04-12T08:10:49.172Z</time></trkpt><trkpt lat="45.5894882" lon="8.7054031"><ele>155.0</ele><time>2026-04-12T08:10:50.162Z</time></trkpt><trkpt lat="45.5894932" lon="8.705265"><ele>154.0</ele><time>2026-04-12T08:10:51.163Z</time></trkpt><trkpt lat="45.5895118" lon="8.7051356"><ele>153.0</ele><time>2026-04-12T08:10:52.148Z</time></trkpt><trkpt lat="45.5895153" lon="8.7049906"><ele>152.0</ele><time>2026-04-12T08:10:53.161Z</time></trkpt><trkpt lat="45.5895136" lon="8.7048233"><ele>151.0</ele><time>2026-04-12T08:10:54.161Z</time></trkpt><trkpt lat="45.5895046" lon="8.7046071"><ele>150.0</ele><time>2026-04-12T08:10:55.16Z</time></trkpt><trkpt lat="45.5895103" lon="8.7043507"><ele>147.0</ele><time>2026-04-12T08:10:56.168Z</time></trkpt><trkpt lat="45.5895501" lon="8.7040399"><ele>144.0</ele><time>2026-04-12T08:10:57.191Z</time></trkpt><trkpt lat="45.5896109" lon="8.7036155"><ele>148.5</ele><time>2026-04-12T08:10:58.16Z</time></trkpt><trkpt lat="45.5896115" lon="8.7031905"><ele>153.0</ele><time>2026-04-12T08:10:59.159Z</time></trkpt><trkpt lat="45.5896763" lon="8.7027924"><ele>154.5</ele><time>2026-04-12T08:11:00.163Z</time></trkpt><trkpt lat="45.5897346" lon="8.7023661"><ele>156.0</ele><time>2026-04-12T08:11:01.154Z</time></trkpt><trkpt lat="45.5896882" lon="8.7016923"><ele>156.5</ele><time>2026-04-12T08:11:02.156Z</time></trkpt><trkpt lat="45.5897247" lon="8.7012532"><ele>157.0</ele><time>2026-04-12T08:11:03.201Z</time></trkpt><trkpt lat="45.58975" lon="8.7008416"><ele>156.0</ele><time>2026-04-12T08:11:04.174Z</time></trkpt><trkpt lat="45.5897847" lon="8.7004724"><ele>155.0</ele><time>2026-04-12T08:11:05.159Z</time></trkpt><trkpt lat="45.5898541" lon="8.7001023"><ele>155.0</ele><time>2026-04-12T08:11:06.177Z</time></trkpt><trkpt lat="45.5899461" lon="8.6996926"><ele>155.0</ele><time>2026-04-12T08:11:07.156Z</time></trkpt><trkpt lat="45.5900435" lon="8.6992748"><ele>155.0</ele><time>2026-04-12T08:11:08.163Z</time></trkpt><trkpt lat="45.5901663" lon="8.6987844"><ele>155.0</ele><time>2026-04-12T08:11:09.159Z</time></trkpt><trkpt lat="45.5902766" lon="8.6983617"><ele>154.5</ele><time>2026-04-12T08:11:10.157Z</time></trkpt><trkpt lat="45.5903793" lon="8.6979605"><ele>154.0</ele><time>2026-04-12T08:11:11.193Z</time></trkpt><trkpt lat="45.590481" lon="8.6975748"><ele>154.0</ele><time>2026-04-12T08:11:12.157Z</time></trkpt><trkpt lat="45.5905753" lon="8.6971907"><ele>154.0</ele><time>2026-04-12T08:11:13.161Z</time></trkpt><trkpt lat="45.5906683" lon="8.6968246"><ele>155.0</ele><time>2026-04-12T08:11:14.155Z</time></trkpt><trkpt lat="45.5907626" lon="8.6964559"><ele>156.0</ele><time>2026-04-12T08:11:15.163Z</time></trkpt><trkpt lat="45.5908557" lon="8.6960955"><ele>156.0</ele><time>2026-04-12T08:11:16.167Z</time></trkpt><trkpt lat="45.5909452" lon="8.6957448"><ele>156.0</ele><time>2026-04-12T08:11:17.161Z</time></trkpt><trkpt lat="45.5910309" lon="8.6954047"><ele>156.0</ele><time>2026-04-12T08:11:18.163Z</time></trkpt><trkpt lat="45.5911091" lon="8.6950791"><ele>156.0</ele><time>2026-04-12T08:11:19.158Z</time></trkpt><trkpt lat="45.5911875" lon="8.6947827"><ele>156.0</ele><time>2026-04-12T08:11:20.162Z</time></trkpt><trkpt lat="45.5912579" lon="8.6944974"><ele>156.0</ele><time>2026-04-12T08:11:21.168Z</time></trkpt><trkpt lat="45.5913298" lon="8.6942148"><ele>156.0</ele><time>2026-04-12T08:11:22.172Z</time></trkpt><trkpt lat="45.5914153" lon="8.6939536"><ele>156.0</ele><time>2026-04-12T08:11:23.168Z</time></trkpt><trkpt lat="45.5915215" lon="8.6937014"><ele>156.0</ele><time>2026-04-12T08:11:24.157Z</time></trkpt><trkpt lat="45.5916376" lon="8.6934628"><ele>156.0</ele><time>2026-04-12T08:11:25.16Z</time></trkpt><trkpt lat="45.5917571" lon="8.6932328"><ele>156.0</ele><time>2026-04-12T08:11:26.205Z</time></trkpt><trkpt lat="45.5918851" lon="8.6930022"><ele>156.0</ele><time>2026-04-12T08:11:27.16Z</time></trkpt><trkpt lat="45.5920197" lon="8.6927721"><ele>156.0</ele><time>2026-04-12T08:11:28.163Z</time></trkpt><trkpt lat="45.5921539" lon="8.6925397"><ele>156.0</ele><time>2026-04-12T08:11:29.159Z</time></trkpt><trkpt lat="45.5922828" lon="8.6923119"><ele>156.0</ele><time>2026-04-12T08:11:30.157Z</time></trkpt><trkpt lat="45.5924131" lon="8.6920851"><ele>156.0</ele><time>2026-04-12T08:11:31.168Z</time></trkpt><trkpt lat="45.5925436" lon="8.6918552"><ele>156.0</ele><time>2026-04-12T08:11:32.192Z</time></trkpt><trkpt lat="45.5926715" lon="8.6916258"><ele>156.0</ele><time>2026-04-12T08:11:33.205Z</time></trkpt><trkpt lat="45.5928001" lon="8.6913938"><ele>156.0</ele><time>2026-04-12T08:11:34.19Z</time></trkpt><trkpt lat="45.5929329" lon="8.6911674"><ele>155.66666666666666</ele><time>2026-04-12T08:11:35.159Z</time></trkpt><trkpt lat="45.5930588" lon="8.6909367"><ele>155.33333333333331</ele><time>2026-04-12T08:11:36.163Z</time></trkpt><trkpt lat="45.5931794" lon="8.6907235"><ele>155.0</ele><time>2026-04-12T08:11:37.172Z</time></trkpt><trkpt lat="45.5932964" lon="8.6905217"><ele>155.0</ele><time>2026-04-12T08:11:38.188Z</time></trkpt><trkpt lat="45.5934084" lon="8.6903279"><ele>155.0</ele><time>2026-04-12T08:11:39.158Z</time></trkpt><trkpt lat="45.593514" lon="8.6901437"><ele>155.0</ele><time>2026-04-12T08:11:40.16Z</time></trkpt><trkpt lat="45.5936158" lon="8.6899608"><ele>154.66666666666666</ele><time>2026-04-12T08:11:41.17Z</time></trkpt><trkpt lat="45.5937122" lon="8.6897798"><ele>154.33333333333334</ele><time>2026-04-12T08:11:42.165Z</time></trkpt><trkpt lat="45.5938114" lon="8.6896127"><ele>154.0</ele><time>2026-04-12T08:11:43.161Z</time></trkpt><trkpt lat="45.5938937" lon="8.6894369"><ele>154.25</ele><time>2026-04-12T08:11:44.159Z</time></trkpt><trkpt lat="45.5939773" lon="8.6892674"><ele>154.5</ele><time>2026-04-12T08:11:45.16Z</time></trkpt><trkpt lat="45.5940496" lon="8.6890972"><ele>154.75</ele><time>2026-04-12T08:11:46.156Z</time></trkpt><trkpt lat="45.5941203" lon="8.6889316"><ele>155.0</ele><time>2026-04-12T08:11:47.204Z</time></trkpt><trkpt lat="45.5941748" lon="8.6887448"><ele>155.0</ele><time>2026-04-12T08:11:48.194Z</time></trkpt><trkpt lat="45.5942172" lon="8.6885491"><ele>155.0</ele><time>2026-04-12T08:11:49.162Z</time></trkpt><trkpt lat="45.59425" lon="8.6883558"><ele>155.0</ele><time>2026-04-12T08:11:50.16Z</time></trkpt><trkpt lat="45.5942733" lon="8.6881628"><ele>155.0</ele><time>2026-04-12T08:11:51.156Z</time></trkpt><trkpt lat="45.5942648" lon="8.687981"><ele>155.0</ele><time>2026-04-12T08:11:52.169Z</time></trkpt><trkpt lat="45.5942555" lon="8.6877909"><ele>155.0</ele><time>2026-04-12T08:11:53.202Z</time></trkpt><trkpt lat="45.5942383" lon="8.6875952"><ele>155.0</ele><time>2026-04-12T08:11:54.17Z</time></trkpt><trkpt lat="45.5942199" lon="8.6873848"><ele>155.0</ele><time>2026-04-12T08:11:55.163Z</time></trkpt><trkpt lat="45.594196" lon="8.6871711"><ele>155.0</ele><time>2026-04-12T08:11:56.166Z</time></trkpt><trkpt lat="45.5941718" lon="8.6869586"><ele>155.0</ele><time>2026-04-12T08:11:57.156Z</time></trkpt><trkpt lat="45.5941484" lon="8.686746"><ele>155.0</ele><time>2026-04-12T08:11:58.164Z</time></trkpt><trkpt lat="45.5941253" lon="8.6865347"><ele>155.0</ele><time>2026-04-12T08:11:59.206Z</time></trkpt><trkpt lat="45.5941024" lon="8.6863215"><ele>155.0</ele><time>2026-04-12T08:12:00.171Z</time></trkpt><trkpt lat="45.5940741" lon="8.686102"><ele>155.0</ele><time>2026-04-12T08:12:01.165Z</time></trkpt><trkpt lat="45.594049" lon="8.6858809"><ele>154.66666666666666</ele><time>2026-04-12T08:12:02.172Z</time></trkpt><trkpt lat="45.5940138" lon="8.6856277"><ele>154.33333333333334</ele><time>2026-04-12T08:12:03.195Z</time></trkpt><trkpt lat="45.5939763" lon="8.6853556"><ele>154.0</ele><time>2026-04-12T08:12:04.151Z</time></trkpt><trkpt lat="45.5939402" lon="8.6850656"><ele>154.0</ele><time>2026-04-12T08:12:05.162Z</time></trkpt><trkpt lat="45.5939096" lon="8.684784"><ele>154.0</ele><time>2026-04-12T08:12:06.159Z</time></trkpt><trkpt lat="45.5938788" lon="8.6845075"><ele>154.0</ele><time>2026-04-12T08:12:07.171Z</time></trkpt><trkpt lat="45.5938474" lon="8.6842474"><ele>154.0</ele><time>2026-04-12T08:12:08.159Z</time></trkpt><trkpt lat="45.593818" lon="8.6840023"><ele>154.0</ele><time>2026-04-12T08:12:09.196Z</time></trkpt><trkpt lat="45.5937911" lon="8.6837679"><ele>154.0</ele><time>2026-04-12T08:12:10.164Z</time></trkpt><trkpt lat="45.5937638" lon="8.6835338"><ele>154.0</ele><time>2026-04-12T08:12:11.159Z</time></trkpt><trkpt lat="45.5937357" lon="8.6832926"><ele>154.0</ele><time>2026-04-12T08:12:12.15Z</time></trkpt><trkpt lat="45.5937062" lon="8.6830388"><ele>154.0</ele><time>2026-04-12T08:12:13.193Z</time></trkpt><trkpt lat="45.5936769" lon="8.6827769"><ele>153.66666666666669</ele><time>2026-04-12T08:12:14.168Z</time></trkpt><trkpt lat="45.593645" lon="8.6825085"><ele>153.33333333333334</ele><time>2026-04-12T08:12:15.162Z</time></trkpt><trkpt lat="45.5936089" lon="8.6822414"><ele>153.0</ele><time>2026-04-12T08:12:16.158Z</time></trkpt><trkpt lat="45.5935815" lon="8.681977"><ele>152.33333333333334</ele><time>2026-04-12T08:12:17.168Z</time></trkpt><trkpt lat="45.5935511" lon="8.6817121"><ele>151.66666666666669</ele><time>2026-04-12T08:12:18.201Z</time></trkpt><trkpt lat="45.5935231" lon="8.6814537"><ele>151.0</ele><time>2026-04-12T08:12:19.169Z</time></trkpt><trkpt lat="45.5934965" lon="8.681203"><ele>152.0</ele><time>2026-04-12T08:12:20.158Z</time></trkpt><trkpt lat="45.593466" lon="8.6809596"><ele>153.0</ele><time>2026-04-12T08:12:21.167Z</time></trkpt><trkpt lat="45.5934376" lon="8.6807295"><ele>154.0</ele><time>2026-04-12T08:12:22.164Z</time></trkpt><trkpt lat="45.5934144" lon="8.6805063"><ele>154.0</ele><time>2026-04-12T08:12:23.159Z</time></trkpt><trkpt lat="45.5933843" lon="8.680291"><ele>154.0</ele><time>2026-04-12T08:12:24.19Z</time></trkpt><trkpt lat="45.5933528" lon="8.68008"><ele>154.0</ele><time>2026-04-12T08:12:25.152Z</time></trkpt><trkpt lat="45.5933029" lon="8.6798834"><ele>154.0</ele><time>2026-04-12T08:12:26.162Z</time></trkpt><trkpt lat="45.5932295" lon="8.6797015"><ele>154.0</ele><time>2026-04-12T08:12:27.171Z</time></trkpt><trkpt lat="45.5931396" lon="8.679542"><ele>154.0</ele><time>2026-04-12T08:12:28.2Z</time></trkpt><trkpt lat="45.5930291" lon="8.6794108"><ele>154.0</ele><time>2026-04-12T08:12:29.201Z</time></trkpt><trkpt lat="45.5929016" lon="8.6793065"><ele>155.75</ele><time>2026-04-12T08:12:30.155Z</time></trkpt><trkpt lat="45.5927649" lon="8.6792394"><ele>157.5</ele><time>2026-04-12T08:12:31.16Z</time></trkpt><trkpt lat="45.5926251" lon="8.6792076"><ele>159.25</ele><time>2026-04-12T08:12:32.158Z</time></trkpt><trkpt lat="45.5924862" lon="8.679211"><ele>161.0</ele><time>2026-04-12T08:12:33.145Z</time></trkpt><trkpt lat="45.5923476" lon="8.6792451"><ele>161.0</ele><time>2026-04-12T08:12:34.144Z</time></trkpt><trkpt lat="45.5922127" lon="8.6792943"><ele>161.0</ele><time>2026-04-12T08:12:35.145Z</time></trkpt><trkpt lat="45.592086" lon="8.6793418"><ele>161.0</ele><time>2026-04-12T08:12:36.149Z</time></trkpt><trkpt lat="45.5919679" lon="8.6793895"><ele>161.0</ele><time>2026-04-12T08:12:37.146Z</time></trkpt><trkpt lat="45.591858" lon="8.6794347"><ele>161.5</ele><time>2026-04-12T08:12:38.151Z</time></trkpt><trkpt lat="45.5917346" lon="8.6794749"><ele>162.0</ele><time>2026-04-12T08:12:39.149Z</time></trkpt><trkpt lat="45.5916091" lon="8.679512"><ele>162.5</ele><time>2026-04-12T08:12:40.154Z</time></trkpt><trkpt lat="45.5914803" lon="8.6795322"><ele>163.0</ele><time>2026-04-12T08:12:41.147Z</time></trkpt><trkpt lat="45.5913448" lon="8.6795369"><ele>163.0</ele><time>2026-04-12T08:12:42.186Z</time></trkpt><trkpt lat="45.5912044" lon="8.6795226"><ele>163.0</ele><time>2026-04-12T08:12:43.212Z</time></trkpt><trkpt lat="45.5910642" lon="8.6794951"><ele>163.0</ele><time>2026-04-12T08:12:44.203Z</time></trkpt><trkpt lat="45.5909012" lon="8.6794562"><ele>163.0</ele><time>2026-04-12T08:12:45.16Z</time></trkpt><trkpt lat="45.5907039" lon="8.679382"><ele>167.5</ele><time>2026-04-12T08:12:46.165Z</time></trkpt><trkpt lat="45.5904842" lon="8.6792757"><ele>172.0</ele><time>2026-04-12T08:12:47.149Z</time></trkpt><trkpt lat="45.5902315" lon="8.6791481"><ele>172.0</ele><time>2026-04-12T08:12:48.172Z</time></trkpt><trkpt lat="45.5899527" lon="8.6790106"><ele>172.0</ele><time>2026-04-12T08:12:49.209Z</time></trkpt><trkpt lat="45.589695" lon="8.6788784"><ele>171.66666666666669</ele><time>2026-04-12T08:12:50.147Z</time></trkpt><trkpt lat="45.5894766" lon="8.6787626"><ele>171.33333333333334</ele><time>2026-04-12T08:12:51.163Z</time></trkpt><trkpt lat="45.5892751" lon="8.6786575"><ele>171.0</ele><time>2026-04-12T08:12:52.159Z</time></trkpt><trkpt lat="45.5890859" lon="8.6785535"><ele>171.0</ele><time>2026-04-12T08:12:53.202Z</time></trkpt><trkpt lat="45.5889346" lon="8.6784789"><ele>171.0</ele><time>2026-04-12T08:12:54.168Z</time></trkpt><trkpt lat="45.5888018" lon="8.6784058"><ele>171.0</ele><time>2026-04-12T08:12:55.157Z</time></trkpt><trkpt lat="45.5886804" lon="8.6783419"><ele>171.0</ele><time>2026-04-12T08:12:56.159Z</time></trkpt><trkpt lat="45.5885726" lon="8.6782743"><ele>170.75</ele><time>2026-04-12T08:12:57.168Z</time></trkpt><trkpt lat="45.5884815" lon="8.6781794"><ele>170.5</ele><time>2026-04-12T08:12:58.178Z</time></trkpt><trkpt lat="45.5884104" lon="8.6780488"><ele>170.25</ele><time>2026-04-12T08:12:59.205Z</time></trkpt><trkpt lat="45.58836" lon="8.6778943"><ele>170.0</ele><time>2026-04-12T08:13:00.16Z</time></trkpt><trkpt lat="45.5883403" lon="8.6777154"><ele>171.0</ele><time>2026-04-12T08:13:01.166Z</time></trkpt><trkpt lat="45.5883592" lon="8.67754"><ele>172.0</ele><time>2026-04-12T08:13:02.201Z</time></trkpt><trkpt lat="45.5884072" lon="8.6773588"><ele>173.0</ele><time>2026-04-12T08:13:03.182Z</time></trkpt><trkpt lat="45.5884855" lon="8.6771903"><ele>174.0</ele><time>2026-04-12T08:13:04.18Z</time></trkpt><trkpt lat="45.5885986" lon="8.6770508"><ele>176.66666666666666</ele><time>2026-04-12T08:13:05.157Z</time></trkpt><trkpt lat="45.5887165" lon="8.676914"><ele>179.33333333333331</ele><time>2026-04-12T08:13:06.16Z</time></trkpt><trkpt lat="45.5888615" lon="8.676769"><ele>182.0</ele><time>2026-04-12T08:13:07.151Z</time></trkpt><trkpt lat="45.5890013" lon="8.676625"><ele>182.0</ele><time>2026-04-12T08:13:08.16Z</time></trkpt><trkpt lat="45.5891971" lon="8.6764699"><ele>182.0</ele><time>2026-04-12T08:13:09.173Z</time></trkpt><trkpt lat="45.5893775" lon="8.6763113"><ele>182.0</ele><time>2026-04-12T08:13:10.152Z</time></trkpt><trkpt lat="45.5895644" lon="8.6761396"><ele>185.5</ele><time>2026-04-12T08:13:11.162Z</time></trkpt><trkpt lat="45.5897543" lon="8.6759629"><ele>189.0</ele><time>2026-04-12T08:13:12.16Z</time></trkpt><trkpt lat="45.5899488" lon="8.6757879"><ele>189.0</ele><time>2026-04-12T08:13:13.169Z</time></trkpt><trkpt lat="45.5901498" lon="8.6756266"><ele>189.0</ele><time>2026-04-12T08:13:14.172Z</time></trkpt><trkpt lat="45.5903377" lon="8.675461"><ele>188.66666666666666</ele><time>2026-04-12T08:13:15.166Z</time></trkpt><trkpt lat="45.5905157" lon="8.6753008"><ele>188.33333333333331</ele><time>2026-04-12T08:13:16.188Z</time></trkpt><trkpt lat="45.590678" lon="8.6751524"><ele>188.0</ele><time>2026-04-12T08:13:17.167Z</time></trkpt><trkpt lat="45.5908225" lon="8.6750067"><ele>188.0</ele><time>2026-04-12T08:13:18.191Z</time></trkpt><trkpt lat="45.5909305" lon="8.6748344"><ele>188.0</ele><time>2026-04-12T08:13:19.198Z</time></trkpt><trkpt lat="45.5910221" lon="8.6746267"><ele>188.0</ele><time>2026-04-12T08:13:20.159Z</time></trkpt><trkpt lat="45.5910971" lon="8.6744039"><ele>187.33333333333331</ele><time>2026-04-12T08:13:21.164Z</time></trkpt><trkpt lat="45.5911378" lon="8.6741015"><ele>186.66666666666666</ele><time>2026-04-12T08:13:22.198Z</time></trkpt><trkpt lat="45.5911807" lon="8.673807"><ele>186.0</ele><time>2026-04-12T08:13:23.168Z</time></trkpt><trkpt lat="45.5912239" lon="8.6735245"><ele>184.66666666666666</ele><time>2026-04-12T08:13:24.165Z</time></trkpt><trkpt lat="45.5912729" lon="8.673245"><ele>183.33333333333331</ele><time>2026-04-12T08:13:25.154Z</time></trkpt><trkpt lat="45.5913098" lon="8.672983"><ele>182.0</ele><time>2026-04-12T08:13:26.161Z</time></trkpt><trkpt lat="45.591345" lon="8.6727291"><ele>181.33333333333331</ele><time>2026-04-12T08:13:27.169Z</time></trkpt><trkpt lat="45.5913817" lon="8.6724815"><ele>180.66666666666666</ele><time>2026-04-12T08:13:28.199Z</time></trkpt><trkpt lat="45.5914168" lon="8.6722289"><ele>180.0</ele><time>2026-04-12T08:13:29.196Z</time></trkpt><trkpt lat="45.5914528" lon="8.6719889"><ele>181.66666666666666</ele><time>2026-04-12T08:13:30.16Z</time></trkpt><trkpt lat="45.5914789" lon="8.671735"><ele>183.33333333333331</ele><time>2026-04-12T08:13:31.163Z</time></trkpt><trkpt lat="45.5915125" lon="8.6714883"><ele>185.0</ele><time>2026-04-12T08:13:32.206Z</time></trkpt><trkpt lat="45.5915487" lon="8.6712473"><ele>185.66666666666666</ele><time>2026-04-12T08:13:33.203Z</time></trkpt><trkpt lat="45.5915842" lon="8.6710068"><ele>186.33333333333334</ele><time>2026-04-12T08:13:34.164Z</time></trkpt><trkpt lat="45.5916206" lon="8.6707797"><ele>187.0</ele><time>2026-04-12T08:13:35.171Z</time></trkpt><trkpt lat="45.5916474" lon="8.6705693"><ele>187.0</ele><time>2026-04-12T08:13:36.169Z</time></trkpt><trkpt lat="45.5916756" lon="8.6703745"><ele>187.0</ele><time>2026-04-12T08:13:37.167Z</time></trkpt><trkpt lat="45.5917031" lon="8.6701868"><ele>187.0</ele><time>2026-04-12T08:13:38.192Z</time></trkpt><trkpt lat="45.5917289" lon="8.6700038"><ele>187.0</ele><time>2026-04-12T08:13:39.174Z</time></trkpt><trkpt lat="45.591753" lon="8.669844"><ele>187.25</ele><time>2026-04-12T08:13:40.169Z</time></trkpt><trkpt lat="45.5917766" lon="8.6696848"><ele>187.5</ele><time>2026-04-12T08:13:41.16Z</time></trkpt><trkpt lat="45.591801" lon="8.6695098"><ele>187.75</ele><time>2026-04-12T08:13:42.161Z</time></trkpt><trkpt lat="45.5918268" lon="8.6693305"><ele>188.0</ele><time>2026-04-12T08:13:43.169Z</time></trkpt><trkpt lat="45.5918505" lon="8.6691442"><ele>188.25</ele><time>2026-04-12T08:13:44.177Z</time></trkpt><trkpt lat="45.5918785" lon="8.6689568"><ele>188.5</ele><time>2026-04-12T08:13:45.164Z</time></trkpt><trkpt lat="45.5919085" lon="8.6687635"><ele>188.75</ele><time>2026-04-12T08:13:46.166Z</time></trkpt><trkpt lat="45.5919344" lon="8.6685758"><ele>189.0</ele><time>2026-04-12T08:13:47.155Z</time></trkpt><trkpt lat="45.5919685" lon="8.6683924"><ele>188.75</ele><time>2026-04-12T08:13:48.196Z</time></trkpt><trkpt lat="45.5919996" lon="8.6682029"><ele>188.5</ele><time>2026-04-12T08:13:49.16Z</time></trkpt><trkpt lat="45.5920266" lon="8.6680002"><ele>188.25</ele><time>2026-04-12T08:13:50.163Z</time></trkpt><trkpt lat="45.5920471" lon="8.6677915"><ele>188.0</ele><time>2026-04-12T08:13:51.167Z</time></trkpt><trkpt lat="45.5920645" lon="8.6675768"><ele>187.75</ele><time>2026-04-12T08:13:52.172Z</time></trkpt><trkpt lat="45.5920751" lon="8.6673671"><ele>187.5</ele><time>2026-04-12T08:13:53.15Z</time></trkpt><trkpt lat="45.5920812" lon="8.6671591"><ele>187.25</ele><time>2026-04-12T08:13:54.153Z</time></trkpt><trkpt lat="45.5920793" lon="8.6669488"><ele>187.0</ele><time>2026-04-12T08:13:55.197Z</time></trkpt><trkpt lat="45.5920773" lon="8.6667401"><ele>187.0</ele><time>2026-04-12T08:13:56.196Z</time></trkpt><trkpt lat="45.5920773" lon="8.6665344"><ele>187.0</ele><time>2026-04-12T08:13:57.165Z</time></trkpt><trkpt lat="45.5920771" lon="8.6663261"><ele>187.0</ele><time>2026-04-12T08:13:58.163Z</time></trkpt><trkpt lat="45.5920754" lon="8.6661182"><ele>187.0</ele><time>2026-04-12T08:13:59.196Z</time></trkpt><trkpt lat="45.5920758" lon="8.6659088"><ele>187.25</ele><time>2026-04-12T08:14:00.159Z</time></trkpt><trkpt lat="45.5920747" lon="8.6657072"><ele>187.5</ele><time>2026-04-12T08:14:01.16Z</time></trkpt><trkpt lat="45.5920752" lon="8.6655124"><ele>187.75</ele><time>2026-04-12T08:14:02.171Z</time></trkpt><trkpt lat="45.5920746" lon="8.6653287"><ele>188.0</ele><time>2026-04-12T08:14:03.162Z</time></trkpt><trkpt lat="45.5920708" lon="8.6651575"><ele>188.0</ele><time>2026-04-12T08:14:04.158Z</time></trkpt><trkpt lat="45.5920622" lon="8.664996"><ele>188.0</ele><time>2026-04-12T08:14:05.158Z</time></trkpt><trkpt lat="45.5920548" lon="8.6648635"><ele>188.0</ele><time>2026-04-12T08:14:06.159Z</time></trkpt><trkpt lat="45.5920595" lon="8.664755"><ele>188.0</ele><time>2026-04-12T08:14:07.201Z</time></trkpt><trkpt lat="45.5920715" lon="8.6646543"><ele>188.0</ele><time>2026-04-12T08:14:08.195Z</time></trkpt><trkpt lat="45.5920788" lon="8.6645505"><ele>188.0</ele><time>2026-04-12T08:14:09.158Z</time></trkpt><trkpt lat="45.5920688" lon="8.6644391"><ele>188.0</ele><time>2026-04-12T08:14:10.165Z</time></trkpt><trkpt lat="45.5920325" lon="8.6643249"><ele>188.0</ele><time>2026-04-12T08:14:11.163Z</time></trkpt><trkpt lat="45.59198" lon="8.6641709"><ele>188.0</ele><time>2026-04-12T08:14:12.163Z</time></trkpt><trkpt lat="45.5919315" lon="8.6639676"><ele>188.0</ele><time>2026-04-12T08:14:13.163Z</time></trkpt><trkpt lat="45.5918845" lon="8.6637299"><ele>188.0</ele><time>2026-04-12T08:14:14.155Z</time></trkpt><trkpt lat="45.5918269" lon="8.6634431"><ele>188.0</ele><time>2026-04-12T08:14:15.159Z</time></trkpt><trkpt lat="45.5917738" lon="8.6631612"><ele>188.0</ele><time>2026-04-12T08:14:16.171Z</time></trkpt><trkpt lat="45.5917187" lon="8.6628904"><ele>188.0</ele><time>2026-04-12T08:14:17.2Z</time></trkpt><trkpt lat="45.5916729" lon="8.6626172"><ele>188.0</ele><time>2026-04-12T08:14:18.172Z</time></trkpt><trkpt lat="45.5916237" lon="8.6623268"><ele>188.0</ele><time>2026-04-12T08:14:19.156Z</time></trkpt><trkpt lat="45.5915842" lon="8.6620422"><ele>187.66666666666666</ele><time>2026-04-12T08:14:20.16Z</time></trkpt><trkpt lat="45.5915601" lon="8.6617612"><ele>187.33333333333334</ele><time>2026-04-12T08:14:21.166Z</time></trkpt><trkpt lat="45.5915443" lon="8.6614877"><ele>187.0</ele><time>2026-04-12T08:14:22.176Z</time></trkpt><trkpt lat="45.5915325" lon="8.6612223"><ele>187.33333333333334</ele><time>2026-04-12T08:14:23.168Z</time></trkpt><trkpt lat="45.5915249" lon="8.6609609"><ele>187.66666666666666</ele><time>2026-04-12T08:14:24.202Z</time></trkpt><trkpt lat="45.5915249" lon="8.6606946"><ele>188.0</ele><time>2026-04-12T08:14:25.16Z</time></trkpt><trkpt lat="45.5915266" lon="8.6604304"><ele>189.33333333333331</ele><time>2026-04-12T08:14:26.161Z</time></trkpt><trkpt lat="45.591531" lon="8.6601697"><ele>190.66666666666666</ele><time>2026-04-12T08:14:27.165Z</time></trkpt><trkpt lat="45.5915329" lon="8.6599074"><ele>192.0</ele><time>2026-04-12T08:14:28.197Z</time></trkpt><trkpt lat="45.5915381" lon="8.6596444"><ele>195.0</ele><time>2026-04-12T08:14:29.196Z</time></trkpt><trkpt lat="45.5915412" lon="8.6593848"><ele>198.0</ele><time>2026-04-12T08:14:30.163Z</time></trkpt><trkpt lat="45.5915475" lon="8.6591299"><ele>201.0</ele><time>2026-04-12T08:14:31.161Z</time></trkpt><trkpt lat="45.5915546" lon="8.6588739"><ele>202.0</ele><time>2026-04-12T08:14:32.176Z</time></trkpt><trkpt lat="45.5915651" lon="8.6586154"><ele>203.0</ele><time>2026-04-12T08:14:33.171Z</time></trkpt><trkpt lat="45.5915785" lon="8.6583573"><ele>204.0</ele><time>2026-04-12T08:14:34.2Z</time></trkpt><trkpt lat="45.5915989" lon="8.658102"><ele>204.0</ele><time>2026-04-12T08:14:35.158Z</time></trkpt><trkpt lat="45.5916213" lon="8.6578562"><ele>204.0</ele><time>2026-04-12T08:14:36.164Z</time></trkpt><trkpt lat="45.5916421" lon="8.6576262"><ele>204.0</ele><time>2026-04-12T08:14:37.177Z</time></trkpt><trkpt lat="45.591661" lon="8.6574156"><ele>204.0</ele><time>2026-04-12T08:14:38.164Z</time></trkpt><trkpt lat="45.5916846" lon="8.65722"><ele>204.0</ele><time>2026-04-12T08:14:39.212Z</time></trkpt><trkpt lat="45.5917013" lon="8.6570366"><ele>204.0</ele><time>2026-04-12T08:14:40.165Z</time></trkpt><trkpt lat="45.5917194" lon="8.6568726"><ele>204.0</ele><time>2026-04-12T08:14:41.167Z</time></trkpt><trkpt lat="45.5917373" lon="8.6567146"><ele>203.79999999999998</ele><time>2026-04-12T08:14:42.198Z</time></trkpt><trkpt lat="45.5917534" lon="8.6565745"><ele>203.6</ele><time>2026-04-12T08:14:43.156Z</time></trkpt><trkpt lat="45.5917703" lon="8.6564456"><ele>203.4</ele><time>2026-04-12T08:14:44.187Z</time></trkpt><trkpt lat="45.5917866" lon="8.6563283"><ele>203.2</ele><time>2026-04-12T08:14:45.165Z</time></trkpt><trkpt lat="45.5917959" lon="8.6562295"><ele>203.0</ele><time>2026-04-12T08:14:46.168Z</time></trkpt><trkpt lat="45.591813" lon="8.6560773"><ele>203.0</ele><time>2026-04-12T08:14:48.163Z</time></trkpt><trkpt lat="45.591817" lon="8.655963"><ele>203.0</ele><time>2026-04-12T08:14:51.162Z</time></trkpt><trkpt lat="45.5918058" lon="8.6558551"><ele>203.0</ele><time>2026-04-12T08:15:07.165Z</time></trkpt><trkpt lat="45.5918183" lon="8.6556946"><ele>203.0</ele><time>2026-04-12T08:15:09.166Z</time></trkpt><trkpt lat="45.5918282" lon="8.6555059"><ele>203.0</ele><time>2026-04-12T08:15:11.165Z</time></trkpt><trkpt lat="45.5918334" lon="8.6553899"><ele>202.75</ele><time>2026-04-12T08:15:12.161Z</time></trkpt><trkpt lat="45.5918382" lon="8.6552544"><ele>202.5</ele><time>2026-04-12T08:15:13.155Z</time></trkpt><trkpt lat="45.5918359" lon="8.6550941"><ele>202.25</ele><time>2026-04-12T08:15:14.163Z</time></trkpt><trkpt lat="45.5918347" lon="8.654874"><ele>202.0</ele><time>2026-04-12T08:15:15.159Z</time></trkpt><trkpt lat="45.5918431" lon="8.6546391"><ele>202.0</ele><time>2026-04-12T08:15:16.169Z</time></trkpt><trkpt lat="45.5918499" lon="8.6543175"><ele>202.0</ele><time>2026-04-12T08:15:17.155Z</time></trkpt><trkpt lat="45.5918634" lon="8.6540482"><ele>202.0</ele><time>2026-04-12T08:15:18.195Z</time></trkpt><trkpt lat="45.5918712" lon="8.6537993"><ele>202.0</ele><time>2026-04-12T08:15:19.2Z</time></trkpt><trkpt lat="45.5918972" lon="8.6535782"><ele>202.0</ele><time>2026-04-12T08:15:20.162Z</time></trkpt><trkpt lat="45.5919485" lon="8.6533895"><ele>202.0</ele><time>2026-04-12T08:15:21.162Z</time></trkpt><trkpt lat="45.5919954" lon="8.6531978"><ele>202.0</ele><time>2026-04-12T08:15:22.174Z</time></trkpt><trkpt lat="45.5920429" lon="8.6530103"><ele>202.0</ele><time>2026-04-12T08:15:23.16Z</time></trkpt><trkpt lat="45.5920813" lon="8.6528337"><ele>202.0</ele><time>2026-04-12T08:15:24.149Z</time></trkpt><trkpt lat="45.592122" lon="8.6526681"><ele>202.0</ele><time>2026-04-12T08:15:25.166Z</time></trkpt><trkpt lat="45.5921577" lon="8.6524944"><ele>202.0</ele><time>2026-04-12T08:15:26.163Z</time></trkpt><trkpt lat="45.5921851" lon="8.6523168"><ele>201.75</ele><time>2026-04-12T08:15:27.181Z</time></trkpt><trkpt lat="45.5922141" lon="8.6521357"><ele>201.5</ele><time>2026-04-12T08:15:28.159Z</time></trkpt><trkpt lat="45.5922398" lon="8.6519511"><ele>201.25</ele><time>2026-04-12T08:15:29.171Z</time></trkpt><trkpt lat="45.592268" lon="8.6517687"><ele>201.0</ele><time>2026-04-12T08:15:30.164Z</time></trkpt><trkpt lat="45.5922965" lon="8.6515823"><ele>201.0</ele><time>2026-04-12T08:15:31.152Z</time></trkpt><trkpt lat="45.5923287" lon="8.651399"><ele>201.0</ele><time>2026-04-12T08:15:32.173Z</time></trkpt><trkpt lat="45.5923612" lon="8.6512187"><ele>201.0</ele><time>2026-04-12T08:15:33.203Z</time></trkpt><trkpt lat="45.5923964" lon="8.6510383"><ele>201.0</ele><time>2026-04-12T08:15:34.174Z</time></trkpt><trkpt lat="45.5924269" lon="8.6508465"><ele>201.25</ele><time>2026-04-12T08:15:35.163Z</time></trkpt><trkpt lat="45.5924541" lon="8.6506516"><ele>201.5</ele><time>2026-04-12T08:15:36.167Z</time></trkpt><trkpt lat="45.5924882" lon="8.6504563"><ele>201.75</ele><time>2026-04-12T08:15:37.174Z</time></trkpt><trkpt lat="45.5925116" lon="8.650252"><ele>202.0</ele><time>2026-04-12T08:15:38.16Z</time></trkpt><trkpt lat="45.5925454" lon="8.6500559"><ele>202.25</ele><time>2026-04-12T08:15:39.176Z</time></trkpt><trkpt lat="45.592577" lon="8.6498484"><ele>202.5</ele><time>2026-04-12T08:15:40.161Z</time></trkpt><trkpt lat="45.5926097" lon="8.6496579"><ele>202.75</ele><time>2026-04-12T08:15:41.166Z</time></trkpt><trkpt lat="45.5926428" lon="8.6494558"><ele>203.0</ele><time>2026-04-12T08:15:42.175Z</time></trkpt><trkpt lat="45.5926795" lon="8.6492613"><ele>203.0</ele><time>2026-04-12T08:15:43.148Z</time></trkpt><trkpt lat="45.5927155" lon="8.6490711"><ele>203.0</ele><time>2026-04-12T08:15:44.182Z</time></trkpt><trkpt lat="45.5927479" lon="8.6488681"><ele>203.0</ele><time>2026-04-12T08:15:45.165Z</time></trkpt><trkpt lat="45.592783" lon="8.6486654"><ele>203.0</ele><time>2026-04-12T08:15:46.162Z</time></trkpt><trkpt lat="45.5928122" lon="8.6484622"><ele>202.75</ele><time>2026-04-12T08:15:47.179Z</time></trkpt><trkpt lat="45.5928412" lon="8.6482662"><ele>202.5</ele><time>2026-04-12T08:15:48.166Z</time></trkpt><trkpt lat="45.5928776" lon="8.6480687"><ele>202.25</ele><time>2026-04-12T08:15:49.161Z</time></trkpt><trkpt lat="45.5929133" lon="8.6478686"><ele>202.0</ele><time>2026-04-12T08:15:50.154Z</time></trkpt><trkpt lat="45.5929455" lon="8.6476688"><ele>202.0</ele><time>2026-04-12T08:15:51.166Z</time></trkpt><trkpt lat="45.5929775" lon="8.6474628"><ele>202.0</ele><time>2026-04-12T08:15:52.159Z</time></trkpt><trkpt lat="45.5930134" lon="8.6472607"><ele>202.0</ele><time>2026-04-12T08:15:53.2Z</time></trkpt><trkpt lat="45.5930464" lon="8.6470669"><ele>202.0</ele><time>2026-04-12T08:15:54.159Z</time></trkpt><trkpt lat="45.5930782" lon="8.6468745"><ele>202.25</ele><time>2026-04-12T08:15:55.162Z</time></trkpt><trkpt lat="45.5931115" lon="8.646688"><ele>202.5</ele><time>2026-04-12T08:15:56.198Z</time></trkpt><trkpt lat="45.593144" lon="8.6465029"><ele>202.75</ele><time>2026-04-12T08:15:57.173Z</time></trkpt><trkpt lat="45.5931821" lon="8.6463115"><ele>203.0</ele><time>2026-04-12T08:15:58.191Z</time></trkpt><trkpt lat="45.5932161" lon="8.6461223"><ele>203.0</ele><time>2026-04-12T08:15:59.17Z</time></trkpt><trkpt lat="45.5932507" lon="8.6459299"><ele>203.0</ele><time>2026-04-12T08:16:00.162Z</time></trkpt><trkpt lat="45.5932844" lon="8.6457461"><ele>203.0</ele><time>2026-04-12T08:16:01.17Z</time></trkpt><trkpt lat="45.5933152" lon="8.6455645"><ele>203.0</ele><time>2026-04-12T08:16:02.177Z</time></trkpt><trkpt lat="45.5933486" lon="8.6453795"><ele>203.5</ele><time>2026-04-12T08:16:03.162Z</time></trkpt><trkpt lat="45.5933808" lon="8.6451948"><ele>204.0</ele><time>2026-04-12T08:16:04.164Z</time></trkpt><trkpt lat="45.5934144" lon="8.6450101"><ele>204.5</ele><time>2026-04-12T08:16:05.167Z</time></trkpt><trkpt lat="45.5934466" lon="8.6448323"><ele>205.0</ele><time>2026-04-12T08:16:06.165Z</time></trkpt><trkpt lat="45.5934731" lon="8.6446612"><ele>205.0</ele><time>2026-04-12T08:16:07.162Z</time></trkpt><trkpt lat="45.593506" lon="8.6444834"><ele>205.0</ele><time>2026-04-12T08:16:08.171Z</time></trkpt><trkpt lat="45.5935395" lon="8.6443117"><ele>205.0</ele><time>2026-04-12T08:16:09.164Z</time></trkpt><trkpt lat="45.5935657" lon="8.644144"><ele>205.0</ele><time>2026-04-12T08:16:10.165Z</time></trkpt><trkpt lat="45.5935879" lon="8.6439714"><ele>204.75</ele><time>2026-04-12T08:16:11.16Z</time></trkpt><trkpt lat="45.5935904" lon="8.6437929"><ele>204.5</ele><time>2026-04-12T08:16:12.173Z</time></trkpt><trkpt lat="45.5935814" lon="8.6436165"><ele>204.25</ele><time>2026-04-12T08:16:13.152Z</time></trkpt><trkpt lat="45.5935611" lon="8.6434393"><ele>204.0</ele><time>2026-04-12T08:16:14.165Z</time></trkpt><trkpt lat="45.5935348" lon="8.6432624"><ele>204.0</ele><time>2026-04-12T08:16:15.16Z</time></trkpt><trkpt lat="45.593507" lon="8.6430789"><ele>204.0</ele><time>2026-04-12T08:16:16.165Z</time></trkpt><trkpt lat="45.593477" lon="8.6428945"><ele>204.0</ele><time>2026-04-12T08:16:17.171Z</time></trkpt><trkpt lat="45.5934465" lon="8.6427081"><ele>204.0</ele><time>2026-04-12T08:16:18.17Z</time></trkpt><trkpt lat="45.5934147" lon="8.6425308"><ele>204.5</ele><time>2026-04-12T08:16:19.166Z</time></trkpt><trkpt lat="45.5933814" lon="8.6423539"><ele>205.0</ele><time>2026-04-12T08:16:20.17Z</time></trkpt><trkpt lat="45.5933489" lon="8.6421738"><ele>205.5</ele><time>2026-04-12T08:16:21.163Z</time></trkpt><trkpt lat="45.5933171" lon="8.6419986"><ele>206.0</ele><time>2026-04-12T08:16:22.174Z</time></trkpt><trkpt lat="45.5932924" lon="8.6418306"><ele>206.4</ele><time>2026-04-12T08:16:23.162Z</time></trkpt><trkpt lat="45.5932648" lon="8.6416655"><ele>206.8</ele><time>2026-04-12T08:16:24.168Z</time></trkpt><trkpt lat="45.5932392" lon="8.6415127"><ele>207.20000000000002</ele><time>2026-04-12T08:16:25.169Z</time></trkpt><trkpt lat="45.5932153" lon="8.6413666"><ele>207.60000000000002</ele><time>2026-04-12T08:16:26.17Z</time></trkpt><trkpt lat="45.5931937" lon="8.6412326"><ele>208.0</ele><time>2026-04-12T08:16:27.171Z</time></trkpt><trkpt lat="45.5931766" lon="8.6411195"><ele>208.33333333333331</ele><time>2026-04-12T08:16:28.16Z</time></trkpt><trkpt lat="45.5931593" lon="8.6410121"><ele>208.66666666666666</ele><time>2026-04-12T08:16:29.161Z</time></trkpt><trkpt lat="45.5931488" lon="8.6409127"><ele>209.0</ele><time>2026-04-12T08:16:30.158Z</time></trkpt><trkpt lat="45.593149" lon="8.6408171"><ele>209.33333333333331</ele><time>2026-04-12T08:16:31.17Z</time></trkpt><trkpt lat="45.5931422" lon="8.6407227"><ele>209.66666666666666</ele><time>2026-04-12T08:16:32.205Z</time></trkpt><trkpt lat="45.5930926" lon="8.6405699"><ele>210.0</ele><time>2026-04-12T08:16:34.192Z</time></trkpt><trkpt lat="45.5930724" lon="8.6404823"><ele>210.0</ele><time>2026-04-12T08:16:35.164Z</time></trkpt><trkpt lat="45.593059" lon="8.6403844"><ele>210.0</ele><time>2026-04-12T08:16:36.161Z</time></trkpt><trkpt lat="45.5930419" lon="8.6402844"><ele>210.0</ele><time>2026-04-12T08:16:37.189Z</time></trkpt><trkpt lat="45.5930275" lon="8.6401847"><ele>210.0</ele><time>2026-04-12T08:16:38.2Z</time></trkpt><trkpt lat="45.5930116" lon="8.6400793"><ele>210.0</ele><time>2026-04-12T08:16:39.199Z</time></trkpt><trkpt lat="45.5929908" lon="8.6399681"><ele>210.0</ele><time>2026-04-12T08:16:40.16Z</time></trkpt><trkpt lat="45.5929725" lon="8.6398501"><ele>210.5</ele><time>2026-04-12T08:16:41.167Z</time></trkpt><trkpt lat="45.5929529" lon="8.6397315"><ele>211.0</ele><time>2026-04-12T08:16:42.167Z</time></trkpt><trkpt lat="45.5929319" lon="8.6396124"><ele>211.5</ele><time>2026-04-12T08:16:43.194Z</time></trkpt><trkpt lat="45.5929132" lon="8.6394923"><ele>212.0</ele><time>2026-04-12T08:16:44.173Z</time></trkpt><trkpt lat="45.5928931" lon="8.6393771"><ele>212.5</ele><time>2026-04-12T08:16:45.166Z</time></trkpt><trkpt lat="45.5928753" lon="8.6392632"><ele>213.0</ele><time>2026-04-12T08:16:46.165Z</time></trkpt><trkpt lat="45.5928527" lon="8.6391522"><ele>212.99999999999997</ele><time>2026-04-12T08:16:47.164Z</time></trkpt><trkpt lat="45.5928268" lon="8.6390498"><ele>213.0</ele><time>2026-04-12T08:16:48.161Z</time></trkpt><trkpt lat="45.5927978" lon="8.6389584"><ele>213.0</ele><time>2026-04-12T08:16:49.196Z</time></trkpt><trkpt lat="45.5927615" lon="8.6388815"><ele>213.0</ele><time>2026-04-12T08:16:50.169Z</time></trkpt><trkpt lat="45.5927449" lon="8.6387859"><ele>213.0</ele><time>2026-04-12T08:16:51.165Z</time></trkpt><trkpt lat="45.5927449" lon="8.6386761"><ele>212.99999999999997</ele><time>2026-04-12T08:16:52.169Z</time></trkpt><trkpt lat="45.5927549" lon="8.6385702"><ele>213.0</ele><time>2026-04-12T08:16:53.162Z</time></trkpt><trkpt lat="45.5927667" lon="8.6384614"><ele>213.66666666666666</ele><time>2026-04-12T08:16:54.164Z</time></trkpt><trkpt lat="45.592813" lon="8.6383729"><ele>214.33333333333331</ele><time>2026-04-12T08:16:55.158Z</time></trkpt><trkpt lat="45.5928844" lon="8.6383082"><ele>215.0</ele><time>2026-04-12T08:16:56.166Z</time></trkpt><trkpt lat="45.5929561" lon="8.6382708"><ele>215.66666666666666</ele><time>2026-04-12T08:16:57.2Z</time></trkpt><trkpt lat="45.5930402" lon="8.6382501"><ele>216.33333333333331</ele><time>2026-04-12T08:16:58.166Z</time></trkpt><trkpt lat="45.593122" lon="8.6382173"><ele>217.0</ele><time>2026-04-12T08:16:59.169Z</time></trkpt><trkpt lat="45.5932145" lon="8.6381908"><ele>217.2</ele><time>2026-04-12T08:17:00.165Z</time></trkpt><trkpt lat="45.593304" lon="8.6381637"><ele>217.39999999999998</ele><time>2026-04-12T08:17:01.164Z</time></trkpt><trkpt lat="45.5933939" lon="8.6381357"><ele>217.60000000000002</ele><time>2026-04-12T08:17:02.16Z</time></trkpt><trkpt lat="45.5934903" lon="8.6381102"><ele>217.8</ele><time>2026-04-12T08:17:03.17Z</time></trkpt><trkpt lat="45.5935791" lon="8.6380808"><ele>218.0</ele><time>2026-04-12T08:17:04.191Z</time></trkpt><trkpt lat="45.5936642" lon="8.6380495"><ele>217.66666666666669</ele><time>2026-04-12T08:17:05.156Z</time></trkpt><trkpt lat="45.5937496" lon="8.6380119"><ele>217.33333333333334</ele><time>2026-04-12T08:17:06.163Z</time></trkpt><trkpt lat="45.5938351" lon="8.6379774"><ele>217.0</ele><time>2026-04-12T08:17:07.15Z</time></trkpt><trkpt lat="45.5939188" lon="8.6379374"><ele>216.66666666666669</ele><time>2026-04-12T08:17:08.166Z</time></trkpt><trkpt lat="45.593997" lon="8.637906"><ele>216.33333333333334</ele><time>2026-04-12T08:17:09.162Z</time></trkpt><trkpt lat="45.5940714" lon="8.6378856"><ele>216.0</ele><time>2026-04-12T08:17:10.169Z</time></trkpt><trkpt lat="45.594182" lon="8.6378458"><ele>216.0</ele><time>2026-04-12T08:17:12.212Z</time></trkpt><trkpt lat="45.5942431" lon="8.637808"><ele>216.0</ele><time>2026-04-12T08:17:14.167Z</time></trkpt><trkpt lat="45.594307" lon="8.637761"><ele>216.0</ele><time>2026-04-12T08:17:18.166Z</time></trkpt><trkpt lat="45.5943718" lon="8.6376778"><ele>216.0</ele><time>2026-04-12T08:17:21.155Z</time></trkpt><trkpt lat="45.5943994" lon="8.6375832"><ele>216.0</ele><time>2026-04-12T08:17:23.197Z</time></trkpt><trkpt lat="45.5944137" lon="8.6374292"><ele>216.0</ele><time>2026-04-12T08:17:25.174Z</time></trkpt><trkpt lat="45.5944376" lon="8.6373212"><ele>217.83333333333334</ele><time>2026-04-12T08:17:26.164Z</time></trkpt><trkpt lat="45.5944639" lon="8.6372297"><ele>219.66666666666669</ele><time>2026-04-12T08:17:27.168Z</time></trkpt><trkpt lat="45.5944962" lon="8.6371513"><ele>221.5</ele><time>2026-04-12T08:17:28.174Z</time></trkpt><trkpt lat="45.5945357" lon="8.6370687"><ele>223.33333333333334</ele><time>2026-04-12T08:17:29.161Z</time></trkpt><trkpt lat="45.5946097" lon="8.6369331"><ele>225.16666666666669</ele><time>2026-04-12T08:17:31.159Z</time></trkpt><trkpt lat="45.5946516" lon="8.6368588"><ele>227.0</ele><time>2026-04-12T08:17:32.167Z</time></trkpt><trkpt lat="45.5947001" lon="8.6367882"><ele>227.85714285714286</ele><time>2026-04-12T08:17:33.174Z</time></trkpt><trkpt lat="45.5947487" lon="8.636717"><ele>228.71428571428572</ele><time>2026-04-12T08:17:34.16Z</time></trkpt><trkpt lat="45.5947909" lon="8.6366332"><ele>229.57142857142858</ele><time>2026-04-12T08:17:35.163Z</time></trkpt><trkpt lat="45.5948343" lon="8.6365514"><ele>230.42857142857144</ele><time>2026-04-12T08:17:36.172Z</time></trkpt><trkpt lat="45.5948637" lon="8.63646"><ele>231.28571428571428</ele><time>2026-04-12T08:17:37.161Z</time></trkpt><trkpt lat="45.5948876" lon="8.636358"><ele>232.14285714285717</ele><time>2026-04-12T08:17:38.157Z</time></trkpt><trkpt lat="45.594898" lon="8.6362555"><ele>233.0</ele><time>2026-04-12T08:17:39.173Z</time></trkpt><trkpt lat="45.59491" lon="8.636146"><ele>232.85714285714286</ele><time>2026-04-12T08:17:40.167Z</time></trkpt><trkpt lat="45.5949218" lon="8.6360356"><ele>232.71428571428572</ele><time>2026-04-12T08:17:41.172Z</time></trkpt><trkpt lat="45.5949293" lon="8.6359327"><ele>232.57142857142858</ele><time>2026-04-12T08:17:42.171Z</time></trkpt><trkpt lat="45.5949391" lon="8.6358321"><ele>232.42857142857144</ele><time>2026-04-12T08:17:43.162Z</time></trkpt><trkpt lat="45.594946" lon="8.6357351"><ele>232.28571428571428</ele><time>2026-04-12T08:17:44.2Z</time></trkpt><trkpt lat="45.5949541" lon="8.6356448"><ele>232.14285714285717</ele><time>2026-04-12T08:17:45.169Z</time></trkpt><trkpt lat="45.5949658" lon="8.6355536"><ele>232.00000000000003</ele><time>2026-04-12T08:17:46.164Z</time></trkpt><trkpt lat="45.5949816" lon="8.6354632"><ele>231.99999999999997</ele><time>2026-04-12T08:17:47.155Z</time></trkpt><trkpt lat="45.5949983" lon="8.6353745"><ele>232.0</ele><time>2026-04-12T08:17:48.177Z</time></trkpt><trkpt lat="45.5950517" lon="8.6352291"><ele>232.0</ele><time>2026-04-12T08:17:50.168Z</time></trkpt><trkpt lat="45.5951026" lon="8.6351429"><ele>232.0</ele><time>2026-04-12T08:17:52.205Z</time></trkpt><trkpt lat="45.5951625" lon="8.635098"><ele>231.99999999999997</ele><time>2026-04-12T08:17:54.177Z</time></trkpt><trkpt lat="45.5952497" lon="8.6350408"><ele>232.0</ele><time>2026-04-12T08:17:56.167Z</time></trkpt><trkpt lat="45.5953006" lon="8.6349032"><ele>232.0</ele><time>2026-04-12T08:17:58.166Z</time></trkpt><trkpt lat="45.5953172" lon="8.6348107"><ele>232.0</ele><time>2026-04-12T08:17:59.174Z</time></trkpt><trkpt lat="45.5953511" lon="8.6346342"><ele>232.0</ele><time>2026-04-12T08:18:01.17Z</time></trkpt><trkpt lat="45.5953748" lon="8.6344871"><ele>232.0</ele><time>2026-04-12T08:18:03.161Z</time></trkpt><trkpt lat="45.5953282" lon="8.6343069"><ele>232.0</ele><time>2026-04-12T08:18:05.161Z</time></trkpt><trkpt lat="45.5952674" lon="8.6341633"><ele>233.0</ele><time>2026-04-12T08:18:06.166Z</time></trkpt><trkpt lat="45.5952053" lon="8.6339619"><ele>234.0</ele><time>2026-04-12T08:18:07.164Z</time></trkpt><trkpt lat="45.595137" lon="8.6337527"><ele>235.0</ele><time>2026-04-12T08:18:08.163Z</time></trkpt><trkpt lat="45.5950746" lon="8.6335522"><ele>235.25</ele><time>2026-04-12T08:18:09.173Z</time></trkpt><trkpt lat="45.5950264" lon="8.6333688"><ele>235.5</ele><time>2026-04-12T08:18:10.16Z</time></trkpt><trkpt lat="45.5949948" lon="8.6331736"><ele>235.75</ele><time>2026-04-12T08:18:11.174Z</time></trkpt><trkpt lat="45.5949695" lon="8.63299"><ele>236.0</ele><time>2026-04-12T08:18:12.172Z</time></trkpt><trkpt lat="45.5949665" lon="8.6328178"><ele>236.5</ele><time>2026-04-12T08:18:13.198Z</time></trkpt><trkpt lat="45.5949574" lon="8.6326289"><ele>237.0</ele><time>2026-04-12T08:18:14.201Z</time></trkpt><trkpt lat="45.5949334" lon="8.6324295"><ele>237.5</ele><time>2026-04-12T08:18:15.164Z</time></trkpt><trkpt lat="45.5949326" lon="8.6322326"><ele>238.0</ele><time>2026-04-12T08:18:16.162Z</time></trkpt><trkpt lat="45.5949304" lon="8.6320344"><ele>238.0</ele><time>2026-04-12T08:18:17.193Z</time></trkpt><trkpt lat="45.5949306" lon="8.6318368"><ele>238.0</ele><time>2026-04-12T08:18:18.174Z</time></trkpt><trkpt lat="45.5949196" lon="8.63164"><ele>238.0</ele><time>2026-04-12T08:18:19.195Z</time></trkpt><trkpt lat="45.5949163" lon="8.6314463"><ele>238.0</ele><time>2026-04-12T08:18:20.165Z</time></trkpt><trkpt lat="45.5949187" lon="8.6312535"><ele>237.75</ele><time>2026-04-12T08:18:21.166Z</time></trkpt><trkpt lat="45.5949191" lon="8.6310617"><ele>237.5</ele><time>2026-04-12T08:18:22.194Z</time></trkpt><trkpt lat="45.5949196" lon="8.6308762"><ele>237.25</ele><time>2026-04-12T08:18:23.162Z</time></trkpt><trkpt lat="45.5949192" lon="8.6306937"><ele>237.0</ele><time>2026-04-12T08:18:24.171Z</time></trkpt><trkpt lat="45.5949177" lon="8.6304988"><ele>237.0</ele><time>2026-04-12T08:18:25.158Z</time></trkpt><trkpt lat="45.5949105" lon="8.6303135"><ele>237.0</ele><time>2026-04-12T08:18:26.165Z</time></trkpt><trkpt lat="45.5949082" lon="8.6301282"><ele>237.0</ele><time>2026-04-12T08:18:27.181Z</time></trkpt><trkpt lat="45.5949074" lon="8.6299475"><ele>237.0</ele><time>2026-04-12T08:18:28.174Z</time></trkpt><trkpt lat="45.5949039" lon="8.6297651"><ele>237.5</ele><time>2026-04-12T08:18:29.162Z</time></trkpt><trkpt lat="45.5948984" lon="8.6295906"><ele>238.0</ele><time>2026-04-12T08:18:30.157Z</time></trkpt><trkpt lat="45.5948983" lon="8.6294145"><ele>238.5</ele><time>2026-04-12T08:18:31.172Z</time></trkpt><trkpt lat="45.5948925" lon="8.6292365"><ele>239.0</ele><time>2026-04-12T08:18:32.199Z</time></trkpt><trkpt lat="45.5948871" lon="8.6290686"><ele>239.0</ele><time>2026-04-12T08:18:33.167Z</time></trkpt><trkpt lat="45.5948852" lon="8.6288942"><ele>239.0</ele><time>2026-04-12T08:18:34.162Z</time></trkpt><trkpt lat="45.5948827" lon="8.6287236"><ele>239.0</ele><time>2026-04-12T08:18:35.158Z</time></trkpt><trkpt lat="45.5948785" lon="8.6285501"><ele>239.0</ele><time>2026-04-12T08:18:36.165Z</time></trkpt><trkpt lat="45.5948736" lon="8.6283876"><ele>238.25</ele><time>2026-04-12T08:18:37.195Z</time></trkpt><trkpt lat="45.594865" lon="8.6282216"><ele>237.5</ele><time>2026-04-12T08:18:38.203Z</time></trkpt><trkpt lat="45.5948648" lon="8.6280577"><ele>236.75</ele><time>2026-04-12T08:18:39.163Z</time></trkpt><trkpt lat="45.5948633" lon="8.627897"><ele>236.0</ele><time>2026-04-12T08:18:40.162Z</time></trkpt><trkpt lat="45.5948577" lon="8.6277328"><ele>235.4</ele><time>2026-04-12T08:18:41.171Z</time></trkpt><trkpt lat="45.5948534" lon="8.6275738"><ele>234.8</ele><time>2026-04-12T08:18:42.163Z</time></trkpt><trkpt lat="45.5948469" lon="8.6274135"><ele>234.20000000000002</ele><time>2026-04-12T08:18:43.169Z</time></trkpt><trkpt lat="45.5948472" lon="8.6272646"><ele>233.60000000000002</ele><time>2026-04-12T08:18:44.165Z</time></trkpt><trkpt lat="45.5948448" lon="8.6271261"><ele>233.0</ele><time>2026-04-12T08:18:45.157Z</time></trkpt><trkpt lat="45.5948447" lon="8.6270086"><ele>232.50000000000003</ele><time>2026-04-12T08:18:46.16Z</time></trkpt><trkpt lat="45.5948482" lon="8.6269104"><ele>232.0</ele><time>2026-04-12T08:18:47.154Z</time></trkpt><trkpt lat="45.59486" lon="8.6268078"><ele>231.5</ele><time>2026-04-12T08:18:49.2Z</time></trkpt><trkpt lat="45.5948937" lon="8.6267308"><ele>231.0</ele><time>2026-04-12T08:18:52.173Z</time></trkpt><trkpt lat="45.5950006" lon="8.6266237"><ele>230.50000000000003</ele><time>2026-04-12T08:18:54.199Z</time></trkpt><trkpt lat="45.5950649" lon="8.6266094"><ele>230.0</ele><time>2026-04-12T08:18:55.163Z</time></trkpt><trkpt lat="45.5951398" lon="8.6266089"><ele>230.0</ele><time>2026-04-12T08:18:56.168Z</time></trkpt><trkpt lat="45.595223" lon="8.6266016"><ele>230.0</ele><time>2026-04-12T08:18:57.157Z</time></trkpt><trkpt lat="45.5953168" lon="8.6265955"><ele>230.0</ele><time>2026-04-12T08:18:58.165Z</time></trkpt><trkpt lat="45.595428" lon="8.6265896"><ele>230.0</ele><time>2026-04-12T08:18:59.183Z</time></trkpt><trkpt lat="45.5955325" lon="8.6265853"><ele>230.0</ele><time>2026-04-12T08:19:00.159Z</time></trkpt><trkpt lat="45.5956314" lon="8.6265724"><ele>230.0</ele><time>2026-04-12T08:19:01.166Z</time></trkpt><trkpt lat="45.595735" lon="8.626555"><ele>230.0</ele><time>2026-04-12T08:19:02.161Z</time></trkpt><trkpt lat="45.5958502" lon="8.6265402"><ele>230.0</ele><time>2026-04-12T08:19:03.2Z</time></trkpt><trkpt lat="45.5959726" lon="8.6265295"><ele>230.0</ele><time>2026-04-12T08:19:04.207Z</time></trkpt><trkpt lat="45.5960892" lon="8.6265148"><ele>230.5</ele><time>2026-04-12T08:19:05.161Z</time></trkpt><trkpt lat="45.5962066" lon="8.6264953"><ele>231.0</ele><time>2026-04-12T08:19:06.165Z</time></trkpt><trkpt lat="45.5963192" lon="8.6264667"><ele>231.5</ele><time>2026-04-12T08:19:07.19Z</time></trkpt><trkpt lat="45.5964331" lon="8.6264306"><ele>232.0</ele><time>2026-04-12T08:19:08.198Z</time></trkpt><trkpt lat="45.59655" lon="8.6263909"><ele>232.0</ele><time>2026-04-12T08:19:09.169Z</time></trkpt><trkpt lat="45.5966674" lon="8.6263453"><ele>232.0</ele><time>2026-04-12T08:19:10.171Z</time></trkpt><trkpt lat="45.5967867" lon="8.6262987"><ele>232.0</ele><time>2026-04-12T08:19:11.165Z</time></trkpt><trkpt lat="45.5969155" lon="8.6262429"><ele>232.0</ele><time>2026-04-12T08:19:12.198Z</time></trkpt><trkpt lat="45.5970423" lon="8.626194"><ele>231.0</ele><time>2026-04-12T08:19:13.162Z</time></trkpt><trkpt lat="45.5971675" lon="8.6261435"><ele>230.0</ele><time>2026-04-12T08:19:14.192Z</time></trkpt><trkpt lat="45.5972956" lon="8.6260949"><ele>229.0</ele><time>2026-04-12T08:19:15.167Z</time></trkpt><trkpt lat="45.5974239" lon="8.6260455"><ele>228.0</ele><time>2026-04-12T08:19:16.162Z</time></trkpt><trkpt lat="45.5975579" lon="8.6259928"><ele>228.0</ele><time>2026-04-12T08:19:17.167Z</time></trkpt><trkpt lat="45.5976879" lon="8.6259373"><ele>228.0</ele><time>2026-04-12T08:19:18.167Z</time></trkpt><trkpt lat="45.5979402" lon="8.6258233"><ele>228.0</ele><time>2026-04-12T08:19:20.161Z</time></trkpt><trkpt lat="45.5980545" lon="8.6257442"><ele>228.5</ele><time>2026-04-12T08:19:21.165Z</time></trkpt><trkpt lat="45.5981656" lon="8.6256377"><ele>229.0</ele><time>2026-04-12T08:19:22.182Z</time></trkpt><trkpt lat="45.5982738" lon="8.6255089"><ele>229.5</ele><time>2026-04-12T08:19:23.173Z</time></trkpt><trkpt lat="45.598378" lon="8.6253846"><ele>230.0</ele><time>2026-04-12T08:19:24.172Z</time></trkpt><trkpt lat="45.5984874" lon="8.6252755"><ele>230.0</ele><time>2026-04-12T08:19:25.161Z</time></trkpt><trkpt lat="45.5985978" lon="8.6251886"><ele>230.0</ele><time>2026-04-12T08:19:26.165Z</time></trkpt><trkpt lat="45.598709" lon="8.6251267"><ele>230.0</ele><time>2026-04-12T08:19:27.155Z</time></trkpt><trkpt lat="45.5988134" lon="8.6250765"><ele>230.0</ele><time>2026-04-12T08:19:28.179Z</time></trkpt><trkpt lat="45.5989116" lon="8.6250313"><ele>230.6</ele><time>2026-04-12T08:19:29.207Z</time></trkpt><trkpt lat="45.5990029" lon="8.624991"><ele>231.2</ele><time>2026-04-12T08:19:30.165Z</time></trkpt><trkpt lat="45.5990815" lon="8.624956"><ele>231.8</ele><time>2026-04-12T08:19:31.17Z</time></trkpt><trkpt lat="45.5991499" lon="8.6249222"><ele>232.4</ele><time>2026-04-12T08:19:32.159Z</time></trkpt><trkpt lat="45.5992558" lon="8.6248712"><ele>233.0</ele><time>2026-04-12T08:19:34.148Z</time></trkpt><trkpt lat="45.5993526" lon="8.624825"><ele>233.00000000000003</ele><time>2026-04-12T08:19:36.163Z</time></trkpt><trkpt lat="45.5994689" lon="8.6247795"><ele>233.0</ele><time>2026-04-12T08:19:38.167Z</time></trkpt><trkpt lat="45.5995309" lon="8.624757"><ele>233.0</ele><time>2026-04-12T08:19:39.165Z</time></trkpt><trkpt lat="45.5996093" lon="8.6247345"><ele>233.0</ele><time>2026-04-12T08:19:40.161Z</time></trkpt><trkpt lat="45.5996865" lon="8.6247062"><ele>233.00000000000003</ele><time>2026-04-12T08:19:41.167Z</time></trkpt><trkpt lat="45.5997587" lon="8.6246764"><ele>233.0</ele><time>2026-04-12T08:19:42.19Z</time></trkpt><trkpt lat="45.5998275" lon="8.6246505"><ele>232.85714285714286</ele><time>2026-04-12T08:19:43.162Z</time></trkpt><trkpt lat="45.5998931" lon="8.6246255"><ele>232.71428571428572</ele><time>2026-04-12T08:19:44.165Z</time></trkpt><trkpt lat="45.5999582" lon="8.6245948"><ele>232.57142857142858</ele><time>2026-04-12T08:19:45.167Z</time></trkpt><trkpt lat="45.6000254" lon="8.6245746"><ele>232.42857142857144</ele><time>2026-04-12T08:19:46.165Z</time></trkpt><trkpt lat="45.6000894" lon="8.6245484"><ele>232.28571428571428</ele><time>2026-04-12T08:19:47.157Z</time></trkpt><trkpt lat="45.6001656" lon="8.6245156"><ele>232.14285714285717</ele><time>2026-04-12T08:19:48.2Z</time></trkpt><trkpt lat="45.600256" lon="8.6244783"><ele>232.00000000000003</ele><time>2026-04-12T08:19:49.164Z</time></trkpt><trkpt lat="45.6003432" lon="8.6244333"><ele>231.75</ele><time>2026-04-12T08:19:50.171Z</time></trkpt><trkpt lat="45.600439" lon="8.6243886"><ele>231.5</ele><time>2026-04-12T08:19:51.165Z</time></trkpt><trkpt lat="45.6005473" lon="8.6243282"><ele>231.25</ele><time>2026-04-12T08:19:52.173Z</time></trkpt><trkpt lat="45.6006706" lon="8.6242654"><ele>231.0</ele><time>2026-04-12T08:19:53.165Z</time></trkpt><trkpt lat="45.6007861" lon="8.6242245"><ele>231.0</ele><time>2026-04-12T08:19:54.165Z</time></trkpt><trkpt lat="45.6008938" lon="8.6241882"><ele>231.00000000000003</ele><time>2026-04-12T08:19:55.166Z</time></trkpt><trkpt lat="45.6009947" lon="8.6241508"><ele>231.00000000000003</ele><time>2026-04-12T08:19:56.165Z</time></trkpt><trkpt lat="45.6010942" lon="8.6241093"><ele>231.0</ele><time>2026-04-12T08:19:57.174Z</time></trkpt><trkpt lat="45.6011892" lon="8.6240668"><ele>231.0</ele><time>2026-04-12T08:19:58.182Z</time></trkpt><trkpt lat="45.6012906" lon="8.6240171"><ele>231.25</ele><time>2026-04-12T08:19:59.168Z</time></trkpt><trkpt lat="45.6014055" lon="8.6239668"><ele>231.5</ele><time>2026-04-12T08:20:00.156Z</time></trkpt><trkpt lat="45.6015398" lon="8.6239075"><ele>231.75</ele><time>2026-04-12T08:20:01.167Z</time></trkpt><trkpt lat="45.6016749" lon="8.6238489"><ele>232.0</ele><time>2026-04-12T08:20:02.175Z</time></trkpt><trkpt lat="45.6018027" lon="8.623792"><ele>232.0</ele><time>2026-04-12T08:20:03.203Z</time></trkpt><trkpt lat="45.6019285" lon="8.6237342"><ele>232.0</ele><time>2026-04-12T08:20:04.16Z</time></trkpt><trkpt lat="45.6020599" lon="8.6236739"><ele>232.0</ele><time>2026-04-12T08:20:05.163Z</time></trkpt><trkpt lat="45.6021913" lon="8.6236145"><ele>232.0</ele><time>2026-04-12T08:20:06.166Z</time></trkpt><trkpt lat="45.6023201" lon="8.6235553"><ele>232.0</ele><time>2026-04-12T08:20:07.166Z</time></trkpt><trkpt lat="45.602448" lon="8.623489"><ele>232.0</ele><time>2026-04-12T08:20:08.202Z</time></trkpt><trkpt lat="45.6025788" lon="8.6234305"><ele>232.0</ele><time>2026-04-12T08:20:09.192Z</time></trkpt><trkpt lat="45.6027082" lon="8.6233753"><ele>232.0</ele><time>2026-04-12T08:20:10.159Z</time></trkpt><trkpt lat="45.6028294" lon="8.6233151"><ele>231.75</ele><time>2026-04-12T08:20:11.164Z</time></trkpt><trkpt lat="45.6029523" lon="8.6232594"><ele>231.5</ele><time>2026-04-12T08:20:12.2Z</time></trkpt><trkpt lat="45.6030667" lon="8.6232053"><ele>231.25</ele><time>2026-04-12T08:20:13.193Z</time></trkpt><trkpt lat="45.6031888" lon="8.6231523"><ele>231.0</ele><time>2026-04-12T08:20:14.17Z</time></trkpt><trkpt lat="45.6033122" lon="8.6231011"><ele>231.0</ele><time>2026-04-12T08:20:15.16Z</time></trkpt><trkpt lat="45.6034381" lon="8.6230506"><ele>231.0</ele><time>2026-04-12T08:20:16.171Z</time></trkpt><trkpt lat="45.6035664" lon="8.6229973"><ele>231.0</ele><time>2026-04-12T08:20:17.163Z</time></trkpt><trkpt lat="45.6036896" lon="8.622947"><ele>231.0</ele><time>2026-04-12T08:20:18.174Z</time></trkpt><trkpt lat="45.6038123" lon="8.6228961"><ele>231.25</ele><time>2026-04-12T08:20:19.17Z</time></trkpt><trkpt lat="45.6039337" lon="8.6228446"><ele>231.5</ele><time>2026-04-12T08:20:20.16Z</time></trkpt><trkpt lat="45.6040542" lon="8.6227953"><ele>231.75</ele><time>2026-04-12T08:20:21.163Z</time></trkpt><trkpt lat="45.6041752" lon="8.6227517"><ele>232.0</ele><time>2026-04-12T08:20:22.166Z</time></trkpt><trkpt lat="45.604294" lon="8.6227006"><ele>232.0</ele><time>2026-04-12T08:20:23.156Z</time></trkpt><trkpt lat="45.6044091" lon="8.6226553"><ele>232.0</ele><time>2026-04-12T08:20:24.198Z</time></trkpt><trkpt lat="45.6045279" lon="8.6226046"><ele>232.0</ele><time>2026-04-12T08:20:25.169Z</time></trkpt><trkpt lat="45.6046502" lon="8.6225563"><ele>232.0</ele><time>2026-04-12T08:20:26.168Z</time></trkpt><trkpt lat="45.6047754" lon="8.6225119"><ele>232.25</ele><time>2026-04-12T08:20:27.189Z</time></trkpt><trkpt lat="45.6049037" lon="8.6224611"><ele>232.5</ele><time>2026-04-12T08:20:28.206Z</time></trkpt><trkpt lat="45.6050392" lon="8.6224046"><ele>232.75</ele><time>2026-04-12T08:20:29.169Z</time></trkpt><trkpt lat="45.6051882" lon="8.6223449"><ele>233.0</ele><time>2026-04-12T08:20:30.159Z</time></trkpt><trkpt lat="45.6053458" lon="8.6222756"><ele>233.0</ele><time>2026-04-12T08:20:31.17Z</time></trkpt><trkpt lat="45.6055461" lon="8.6221979"><ele>233.0</ele><time>2026-04-12T08:20:32.176Z</time></trkpt><trkpt lat="45.605764" lon="8.6221026"><ele>233.0</ele><time>2026-04-12T08:20:33.171Z</time></trkpt><trkpt lat="45.6059887" lon="8.622008"><ele>234.0</ele><time>2026-04-12T08:20:34.168Z</time></trkpt><trkpt lat="45.606207" lon="8.6219083"><ele>235.0</ele><time>2026-04-12T08:20:35.161Z</time></trkpt><trkpt lat="45.606432" lon="8.6217949"><ele>235.0</ele><time>2026-04-12T08:20:36.168Z</time></trkpt><trkpt lat="45.6066599" lon="8.6216641"><ele>235.0</ele><time>2026-04-12T08:20:37.171Z</time></trkpt><trkpt lat="45.6068886" lon="8.6215297"><ele>235.0</ele><time>2026-04-12T08:20:38.159Z</time></trkpt><trkpt lat="45.607118" lon="8.621389"><ele>235.0</ele><time>2026-04-12T08:20:39.162Z</time></trkpt><trkpt lat="45.6073476" lon="8.6212421"><ele>235.0</ele><time>2026-04-12T08:20:40.164Z</time></trkpt><trkpt lat="45.607583" lon="8.6210953"><ele>235.0</ele><time>2026-04-12T08:20:41.165Z</time></trkpt><trkpt lat="45.6078189" lon="8.6209577"><ele>235.0</ele><time>2026-04-12T08:20:42.152Z</time></trkpt><trkpt lat="45.6080481" lon="8.6208442"><ele>235.0</ele><time>2026-04-12T08:20:43.167Z</time></trkpt><trkpt lat="45.6082791" lon="8.6207302"><ele>235.0</ele><time>2026-04-12T08:20:44.165Z</time></trkpt><trkpt lat="45.6085105" lon="8.6206203"><ele>235.0</ele><time>2026-04-12T08:20:45.168Z</time></trkpt><trkpt lat="45.6087385" lon="8.620515"><ele>235.0</ele><time>2026-04-12T08:20:46.156Z</time></trkpt><trkpt lat="45.6089634" lon="8.6204147"><ele>235.0</ele><time>2026-04-12T08:20:47.199Z</time></trkpt><trkpt lat="45.6091835" lon="8.6203183"><ele>235.0</ele><time>2026-04-12T08:20:48.175Z</time></trkpt><trkpt lat="45.6093998" lon="8.6202206"><ele>235.0</ele><time>2026-04-12T08:20:49.198Z</time></trkpt><trkpt lat="45.6096094" lon="8.6201286"><ele>235.0</ele><time>2026-04-12T08:20:50.161Z</time></trkpt><trkpt lat="45.6098128" lon="8.6200329"><ele>235.33333333333331</ele><time>2026-04-12T08:20:51.163Z</time></trkpt><trkpt lat="45.6100128" lon="8.6199329"><ele>235.66666666666669</ele><time>2026-04-12T08:20:52.206Z</time></trkpt><trkpt lat="45.6102045" lon="8.6198141"><ele>236.0</ele><time>2026-04-12T08:20:53.163Z</time></trkpt><trkpt lat="45.6103965" lon="8.6196669"><ele>236.0</ele><time>2026-04-12T08:20:54.155Z</time></trkpt><trkpt lat="45.6105751" lon="8.6194855"><ele>236.0</ele><time>2026-04-12T08:20:55.153Z</time></trkpt><trkpt lat="45.6107457" lon="8.6192759"><ele>236.0</ele><time>2026-04-12T08:20:56.16Z</time></trkpt><trkpt lat="45.6109078" lon="8.6190498"><ele>236.0</ele><time>2026-04-12T08:20:57.167Z</time></trkpt><trkpt lat="45.6110603" lon="8.6188189"><ele>236.0</ele><time>2026-04-12T08:20:58.205Z</time></trkpt><trkpt lat="45.6112104" lon="8.6185904"><ele>236.0</ele><time>2026-04-12T08:20:59.19Z</time></trkpt><trkpt lat="45.6113554" lon="8.6183668"><ele>236.33333333333334</ele><time>2026-04-12T08:21:00.163Z</time></trkpt><trkpt lat="45.6114981" lon="8.6181482"><ele>236.66666666666669</ele><time>2026-04-12T08:21:01.17Z</time></trkpt><trkpt lat="45.6116306" lon="8.617939"><ele>237.0</ele><time>2026-04-12T08:21:02.165Z</time></trkpt><trkpt lat="45.6117588" lon="8.6177469"><ele>237.33333333333331</ele><time>2026-04-12T08:21:03.198Z</time></trkpt><trkpt lat="45.6118818" lon="8.6175695"><ele>237.66666666666666</ele><time>2026-04-12T08:21:04.198Z</time></trkpt><trkpt lat="45.6119994" lon="8.6173838"><ele>238.0</ele><time>2026-04-12T08:21:05.161Z</time></trkpt><trkpt lat="45.612118" lon="8.6171918"><ele>238.33333333333331</ele><time>2026-04-12T08:21:06.163Z</time></trkpt><trkpt lat="45.61224" lon="8.6170036"><ele>238.66666666666669</ele><time>2026-04-12T08:21:07.205Z</time></trkpt><trkpt lat="45.6123613" lon="8.6168119"><ele>239.0</ele><time>2026-04-12T08:21:08.17Z</time></trkpt><trkpt lat="45.6124862" lon="8.6166204"><ele>239.0</ele><time>2026-04-12T08:21:09.17Z</time></trkpt><trkpt lat="45.6126092" lon="8.6164279"><ele>239.0</ele><time>2026-04-12T08:21:10.159Z</time></trkpt><trkpt lat="45.612732" lon="8.6162382"><ele>239.0</ele><time>2026-04-12T08:21:11.166Z</time></trkpt><trkpt lat="45.6128523" lon="8.6160535"><ele>239.0</ele><time>2026-04-12T08:21:12.17Z</time></trkpt><trkpt lat="45.6129788" lon="8.6158592"><ele>239.0</ele><time>2026-04-12T08:21:13.172Z</time></trkpt><trkpt lat="45.6131058" lon="8.6156635"><ele>239.0</ele><time>2026-04-12T08:21:14.167Z</time></trkpt><trkpt lat="45.6132248" lon="8.6154716"><ele>239.33333333333334</ele><time>2026-04-12T08:21:15.162Z</time></trkpt><trkpt lat="45.6133464" lon="8.615286"><ele>239.66666666666669</ele><time>2026-04-12T08:21:16.17Z</time></trkpt><trkpt lat="45.6134664" lon="8.615099"><ele>240.0</ele><time>2026-04-12T08:21:17.159Z</time></trkpt><trkpt lat="45.613589" lon="8.6149136"><ele>240.0</ele><time>2026-04-12T08:21:18.193Z</time></trkpt><trkpt lat="45.6137123" lon="8.6147207"><ele>240.0</ele><time>2026-04-12T08:21:19.152Z</time></trkpt><trkpt lat="45.613836" lon="8.6145315"><ele>240.0</ele><time>2026-04-12T08:21:20.156Z</time></trkpt><trkpt lat="45.6139603" lon="8.6143375"><ele>240.0</ele><time>2026-04-12T08:21:21.174Z</time></trkpt><trkpt lat="45.614087" lon="8.61415"><ele>240.0</ele><time>2026-04-12T08:21:22.165Z</time></trkpt><trkpt lat="45.6142129" lon="8.6139585"><ele>240.0</ele><time>2026-04-12T08:21:23.202Z</time></trkpt><trkpt lat="45.614338" lon="8.6137693"><ele>240.0</ele><time>2026-04-12T08:21:24.172Z</time></trkpt><trkpt lat="45.6144635" lon="8.6135806"><ele>240.0</ele><time>2026-04-12T08:21:25.172Z</time></trkpt><trkpt lat="45.6145877" lon="8.6133971"><ele>240.0</ele><time>2026-04-12T08:21:26.168Z</time></trkpt><trkpt lat="45.6147064" lon="8.6132095"><ele>239.66666666666669</ele><time>2026-04-12T08:21:27.166Z</time></trkpt><trkpt lat="45.6148281" lon="8.6130266"><ele>239.33333333333334</ele><time>2026-04-12T08:21:28.171Z</time></trkpt><trkpt lat="45.6149498" lon="8.6128452"><ele>239.0</ele><time>2026-04-12T08:21:29.155Z</time></trkpt><trkpt lat="45.6150742" lon="8.6126783"><ele>239.0</ele><time>2026-04-12T08:21:30.16Z</time></trkpt><trkpt lat="45.6152049" lon="8.6125381"><ele>239.0</ele><time>2026-04-12T08:21:31.168Z</time></trkpt><trkpt lat="45.6153389" lon="8.6124199"><ele>239.0</ele><time>2026-04-12T08:21:32.167Z</time></trkpt><trkpt lat="45.6154701" lon="8.6123021"><ele>239.33333333333334</ele><time>2026-04-12T08:21:33.171Z</time></trkpt><trkpt lat="45.6156061" lon="8.6121863"><ele>239.66666666666669</ele><time>2026-04-12T08:21:34.171Z</time></trkpt><trkpt lat="45.6157435" lon="8.6120703"><ele>240.0</ele><time>2026-04-12T08:21:35.162Z</time></trkpt><trkpt lat="45.6158848" lon="8.6119631"><ele>240.0</ele><time>2026-04-12T08:21:36.178Z</time></trkpt><trkpt lat="45.6160211" lon="8.6118595"><ele>240.0</ele><time>2026-04-12T08:21:37.162Z</time></trkpt><trkpt lat="45.6161567" lon="8.6117462"><ele>240.0</ele><time>2026-04-12T08:21:38.153Z</time></trkpt><trkpt lat="45.6162881" lon="8.6116404"><ele>240.0</ele><time>2026-04-12T08:21:39.165Z</time></trkpt><trkpt lat="45.6164141" lon="8.6115398"><ele>240.0</ele><time>2026-04-12T08:21:40.168Z</time></trkpt><trkpt lat="45.6165357" lon="8.6114454"><ele>240.0</ele><time>2026-04-12T08:21:41.171Z</time></trkpt><trkpt lat="45.6166519" lon="8.6113581"><ele>240.0</ele><time>2026-04-12T08:21:42.163Z</time></trkpt><trkpt lat="45.6167648" lon="8.6112838"><ele>240.0</ele><time>2026-04-12T08:21:43.201Z</time></trkpt><trkpt lat="45.6168778" lon="8.6112157"><ele>240.0</ele><time>2026-04-12T08:21:44.16Z</time></trkpt><trkpt lat="45.6169828" lon="8.6111574"><ele>240.0</ele><time>2026-04-12T08:21:45.161Z</time></trkpt><trkpt lat="45.6170832" lon="8.611107"><ele>240.0</ele><time>2026-04-12T08:21:46.165Z</time></trkpt><trkpt lat="45.6171745" lon="8.6110597"><ele>240.0</ele><time>2026-04-12T08:21:47.162Z</time></trkpt><trkpt lat="45.6172563" lon="8.6110227"><ele>240.33333333333334</ele><time>2026-04-12T08:21:48.166Z</time></trkpt><trkpt lat="45.6173373" lon="8.6109822"><ele>240.66666666666669</ele><time>2026-04-12T08:21:49.163Z</time></trkpt><trkpt lat="45.6174118" lon="8.6109527"><ele>241.0</ele><time>2026-04-12T08:21:50.164Z</time></trkpt><trkpt lat="45.6174893" lon="8.6109472"><ele>241.33333333333334</ele><time>2026-04-12T08:21:51.163Z</time></trkpt><trkpt lat="45.6175631" lon="8.6109523"><ele>241.66666666666669</ele><time>2026-04-12T08:21:52.167Z</time></trkpt><trkpt lat="45.6176631" lon="8.6108815"><ele>242.0</ele><time>2026-04-12T08:21:54.2Z</time></trkpt><trkpt lat="45.6176754" lon="8.610764"><ele>242.0</ele><time>2026-04-12T08:21:56.162Z</time></trkpt><trkpt lat="45.6176454" lon="8.6106073"><ele>242.0</ele><time>2026-04-12T08:21:58.208Z</time></trkpt><trkpt lat="45.6176321" lon="8.6104944"><ele>242.0</ele><time>2026-04-12T08:21:59.173Z</time></trkpt><trkpt lat="45.6176159" lon="8.6103673"><ele>242.0</ele><time>2026-04-12T08:22:00.163Z</time></trkpt><trkpt lat="45.6175924" lon="8.6102154"><ele>242.0</ele><time>2026-04-12T08:22:01.164Z</time></trkpt><trkpt lat="45.6175707" lon="8.6100513"><ele>242.0</ele><time>2026-04-12T08:22:02.179Z</time></trkpt><trkpt lat="45.6175466" lon="8.6098727"><ele>242.0</ele><time>2026-04-12T08:22:03.156Z</time></trkpt><trkpt lat="45.6175138" lon="8.6096761"><ele>242.0</ele><time>2026-04-12T08:22:04.163Z</time></trkpt><trkpt lat="45.6174827" lon="8.6094653"><ele>242.0</ele><time>2026-04-12T08:22:05.172Z</time></trkpt><trkpt lat="45.617457" lon="8.6092335"><ele>242.0</ele><time>2026-04-12T08:22:06.166Z</time></trkpt><trkpt lat="45.6174533" lon="8.6090103"><ele>242.0</ele><time>2026-04-12T08:22:07.169Z</time></trkpt><trkpt lat="45.6174611" lon="8.6087966"><ele>242.0</ele><time>2026-04-12T08:22:08.181Z</time></trkpt><trkpt lat="45.6174731" lon="8.6085806"><ele>242.5</ele><time>2026-04-12T08:22:09.207Z</time></trkpt><trkpt lat="45.6174813" lon="8.6083667"><ele>243.0</ele><time>2026-04-12T08:22:10.171Z</time></trkpt><trkpt lat="45.617494" lon="8.6081634"><ele>243.5</ele><time>2026-04-12T08:22:11.166Z</time></trkpt><trkpt lat="45.6175116" lon="8.6079703"><ele>244.0</ele><time>2026-04-12T08:22:12.166Z</time></trkpt><trkpt lat="45.617532" lon="8.6077992"><ele>244.6</ele><time>2026-04-12T08:22:13.165Z</time></trkpt><trkpt lat="45.6175529" lon="8.6076385"><ele>245.2</ele><time>2026-04-12T08:22:14.167Z</time></trkpt><trkpt lat="45.6175776" lon="8.6074982"><ele>245.79999999999998</ele><time>2026-04-12T08:22:15.16Z</time></trkpt><trkpt lat="45.617595" lon="8.6073618"><ele>246.39999999999998</ele><time>2026-04-12T08:22:16.165Z</time></trkpt><trkpt lat="45.6176133" lon="8.6072497"><ele>247.0</ele><time>2026-04-12T08:22:17.173Z</time></trkpt><trkpt lat="45.6176278" lon="8.6071489"><ele>246.99999999999997</ele><time>2026-04-12T08:22:18.165Z</time></trkpt><trkpt lat="45.6176425" lon="8.6070451"><ele>247.0</ele><time>2026-04-12T08:22:19.161Z</time></trkpt><trkpt lat="45.6176562" lon="8.6069273"><ele>247.0</ele><time>2026-04-12T08:22:20.157Z</time></trkpt><trkpt lat="45.617662" lon="8.6068064"><ele>247.0</ele><time>2026-04-12T08:22:21.167Z</time></trkpt><trkpt lat="45.617666" lon="8.606695"><ele>246.99999999999997</ele><time>2026-04-12T08:22:22.167Z</time></trkpt><trkpt lat="45.6176636" lon="8.6065845"><ele>247.0</ele><time>2026-04-12T08:22:23.159Z</time></trkpt><trkpt lat="45.6176598" lon="8.6064713"><ele>247.49999999999997</ele><time>2026-04-12T08:22:24.164Z</time></trkpt><trkpt lat="45.6176631" lon="8.6063589"><ele>248.0</ele><time>2026-04-12T08:22:25.162Z</time></trkpt><trkpt lat="45.6176798" lon="8.6062518"><ele>248.5</ele><time>2026-04-12T08:22:26.167Z</time></trkpt><trkpt lat="45.6177158" lon="8.606156"><ele>249.0</ele><time>2026-04-12T08:22:27.199Z</time></trkpt><trkpt lat="45.6177669" lon="8.6060751"><ele>249.49999999999997</ele><time>2026-04-12T08:22:28.198Z</time></trkpt><trkpt lat="45.6178313" lon="8.6060132"><ele>250.0</ele><time>2026-04-12T08:22:29.154Z</time></trkpt><trkpt lat="45.6179116" lon="8.6059625"><ele>250.2</ele><time>2026-04-12T08:22:30.16Z</time></trkpt><trkpt lat="45.6179961" lon="8.6059229"><ele>250.4</ele><time>2026-04-12T08:22:31.163Z</time></trkpt><trkpt lat="45.618093" lon="8.6058902"><ele>250.60000000000002</ele><time>2026-04-12T08:22:32.194Z</time></trkpt><trkpt lat="45.6181929" lon="8.6058639"><ele>250.8</ele><time>2026-04-12T08:22:33.173Z</time></trkpt><trkpt lat="45.6182951" lon="8.6058452"><ele>251.0</ele><time>2026-04-12T08:22:34.194Z</time></trkpt><trkpt lat="45.6183884" lon="8.605824"><ele>251.00000000000003</ele><time>2026-04-12T08:22:35.157Z</time></trkpt><trkpt lat="45.6184732" lon="8.6058069"><ele>251.0</ele><time>2026-04-12T08:22:36.162Z</time></trkpt><trkpt lat="45.6185513" lon="8.6058009"><ele>251.0</ele><time>2026-04-12T08:22:37.204Z</time></trkpt><trkpt lat="45.6186228" lon="8.6057917"><ele>251.0</ele><time>2026-04-12T08:22:38.173Z</time></trkpt><trkpt lat="45.6186935" lon="8.6057732"><ele>251.00000000000003</ele><time>2026-04-12T08:22:39.206Z</time></trkpt><trkpt lat="45.6187631" lon="8.6057558"><ele>251.0</ele><time>2026-04-12T08:22:40.162Z</time></trkpt><trkpt lat="45.6188368" lon="8.6057309"><ele>251.33333333333334</ele><time>2026-04-12T08:22:41.164Z</time></trkpt><trkpt lat="45.6189044" lon="8.6057137"><ele>251.66666666666669</ele><time>2026-04-12T08:22:42.171Z</time></trkpt><trkpt lat="45.6189752" lon="8.6056895"><ele>252.0</ele><time>2026-04-12T08:22:43.163Z</time></trkpt><trkpt lat="45.6190438" lon="8.6056783"><ele>252.33333333333331</ele><time>2026-04-12T08:22:44.167Z</time></trkpt><trkpt lat="45.6191186" lon="8.6056631"><ele>252.66666666666666</ele><time>2026-04-12T08:22:45.154Z</time></trkpt><trkpt lat="45.6192512" lon="8.6056495"><ele>253.0</ele><time>2026-04-12T08:22:47.167Z</time></trkpt><trkpt lat="45.6193195" lon="8.6056414"><ele>252.99999999999997</ele><time>2026-04-12T08:22:48.165Z</time></trkpt><trkpt lat="45.6193869" lon="8.6056303"><ele>253.0</ele><time>2026-04-12T08:22:49.199Z</time></trkpt><trkpt lat="45.6194562" lon="8.6056227"><ele>253.0</ele><time>2026-04-12T08:22:50.173Z</time></trkpt><trkpt lat="45.619539" lon="8.6056119"><ele>253.0</ele><time>2026-04-12T08:22:51.155Z</time></trkpt><trkpt lat="45.619603" lon="8.6056014"><ele>252.99999999999997</ele><time>2026-04-12T08:22:52.206Z</time></trkpt><trkpt lat="45.6196669" lon="8.6055895"><ele>253.0</ele><time>2026-04-12T08:22:53.198Z</time></trkpt><trkpt lat="45.6197661" lon="8.6055643"><ele>252.99999999999997</ele><time>2026-04-12T08:22:55.16Z</time></trkpt><trkpt lat="45.61984" lon="8.6055419"><ele>253.0</ele><time>2026-04-12T08:22:57.174Z</time></trkpt><trkpt lat="45.6199188" lon="8.6055135"><ele>253.0</ele><time>2026-04-12T08:23:00.159Z</time></trkpt><trkpt lat="45.6199848" lon="8.605492"><ele>253.0</ele><time>2026-04-12T08:23:03.21Z</time></trkpt><trkpt lat="45.6200138" lon="8.6054026"><ele>252.99999999999997</ele><time>2026-04-12T08:23:05.161Z</time></trkpt><trkpt lat="45.6200365" lon="8.605309"><ele>253.0</ele><time>2026-04-12T08:23:06.174Z</time></trkpt><trkpt lat="45.6200673" lon="8.6051927"><ele>253.33333333333331</ele><time>2026-04-12T08:23:07.206Z</time></trkpt><trkpt lat="45.620104" lon="8.605091"><ele>253.66666666666666</ele><time>2026-04-12T08:23:08.192Z</time></trkpt><trkpt lat="45.6201357" lon="8.6050018"><ele>254.0</ele><time>2026-04-12T08:23:09.166Z</time></trkpt><trkpt lat="45.6201691" lon="8.6049176"><ele>254.33333333333331</ele><time>2026-04-12T08:23:10.166Z</time></trkpt><trkpt lat="45.6201987" lon="8.6048292"><ele>254.66666666666666</ele><time>2026-04-12T08:23:11.169Z</time></trkpt><trkpt lat="45.6202863" lon="8.6046945"><ele>255.0</ele><time>2026-04-12T08:23:13.197Z</time></trkpt><trkpt lat="45.6203801" lon="8.604584"><ele>255.33333333333334</ele><time>2026-04-12T08:23:15.164Z</time></trkpt><trkpt lat="45.620478" lon="8.6045522"><ele>255.66666666666669</ele><time>2026-04-12T08:23:16.171Z</time></trkpt><trkpt lat="45.6205509" lon="8.6045141"><ele>256.0</ele><time>2026-04-12T08:23:17.2Z</time></trkpt><trkpt lat="45.6206167" lon="8.6044952"><ele>256.33333333333337</ele><time>2026-04-12T08:23:18.203Z</time></trkpt><trkpt lat="45.6206739" lon="8.604444"><ele>256.6666666666667</ele><time>2026-04-12T08:23:20.163Z</time></trkpt><trkpt lat="45.6207746" lon="8.6043696"><ele>257.0</ele><time>2026-04-12T08:23:24.165Z</time></trkpt><trkpt lat="45.6208418" lon="8.6043183"><ele>257.0</ele><time>2026-04-12T08:23:26.199Z</time></trkpt><trkpt lat="45.6208569" lon="8.6042044"><ele>257.0</ele><time>2026-04-12T08:23:31.151Z</time></trkpt><trkpt lat="45.6208333" lon="8.6040512"><ele>257.0</ele><time>2026-04-12T08:23:33.205Z</time></trkpt><trkpt lat="45.6208074" lon="8.6039582"><ele>257.0</ele><time>2026-04-12T08:23:34.169Z</time></trkpt><trkpt lat="45.6208579" lon="8.6038257"><ele>257.0</ele><time>2026-04-12T08:23:36.17Z</time></trkpt><trkpt lat="45.6209619" lon="8.6037469"><ele>257.0</ele><time>2026-04-12T08:23:38.162Z</time></trkpt><trkpt lat="45.6210892" lon="8.6036861"><ele>257.0</ele><time>2026-04-12T08:23:40.162Z</time></trkpt><trkpt lat="45.6211635" lon="8.6036438"><ele>257.0</ele><time>2026-04-12T08:23:41.202Z</time></trkpt><trkpt lat="45.6212445" lon="8.6035969"><ele>257.0</ele><time>2026-04-12T08:23:42.166Z</time></trkpt><trkpt lat="45.6213299" lon="8.6035607"><ele>257.0</ele><time>2026-04-12T08:23:43.214Z</time></trkpt><trkpt lat="45.6214267" lon="8.6035176"><ele>256.6666666666667</ele><time>2026-04-12T08:23:44.17Z</time></trkpt><trkpt lat="45.6215213" lon="8.6034762"><ele>256.33333333333337</ele><time>2026-04-12T08:23:45.151Z</time></trkpt><trkpt lat="45.6216101" lon="8.6034232"><ele>256.0</ele><time>2026-04-12T08:23:46.161Z</time></trkpt><trkpt lat="45.6216862" lon="8.6033815"><ele>255.66666666666669</ele><time>2026-04-12T08:23:47.161Z</time></trkpt><trkpt lat="45.6217528" lon="8.6033362"><ele>255.33333333333334</ele><time>2026-04-12T08:23:48.156Z</time></trkpt><trkpt lat="45.6218218" lon="8.6032999"><ele>255.0</ele><time>2026-04-12T08:23:49.198Z</time></trkpt><trkpt lat="45.6218909" lon="8.6032702"><ele>255.0</ele><time>2026-04-12T08:23:50.161Z</time></trkpt><trkpt lat="45.6219777" lon="8.6032051"><ele>255.0</ele><time>2026-04-12T08:23:51.169Z</time></trkpt><trkpt lat="45.6220806" lon="8.6031522"><ele>255.0</ele><time>2026-04-12T08:23:52.211Z</time></trkpt><trkpt lat="45.6221868" lon="8.6031007"><ele>255.0</ele><time>2026-04-12T08:23:53.165Z</time></trkpt><trkpt lat="45.6222827" lon="8.60303"><ele>255.0</ele><time>2026-04-12T08:23:54.201Z</time></trkpt><trkpt lat="45.6223861" lon="8.6029629"><ele>254.75</ele><time>2026-04-12T08:23:55.161Z</time></trkpt><trkpt lat="45.6224924" lon="8.6028934"><ele>254.5</ele><time>2026-04-12T08:23:56.159Z</time></trkpt><trkpt lat="45.6225991" lon="8.6028205"><ele>254.25</ele><time>2026-04-12T08:23:57.182Z</time></trkpt><trkpt lat="45.6227107" lon="8.60274"><ele>254.0</ele><time>2026-04-12T08:23:58.202Z</time></trkpt><trkpt lat="45.6228285" lon="8.6026562"><ele>254.0</ele><time>2026-04-12T08:23:59.182Z</time></trkpt><trkpt lat="45.6229483" lon="8.6025714"><ele>254.0</ele><time>2026-04-12T08:24:00.158Z</time></trkpt><trkpt lat="45.623068" lon="8.6024808"><ele>254.0</ele><time>2026-04-12T08:24:01.166Z</time></trkpt><trkpt lat="45.6231843" lon="8.6023959"><ele>254.0</ele><time>2026-04-12T08:24:02.171Z</time></trkpt><trkpt lat="45.6232902" lon="8.6023078"><ele>254.0</ele><time>2026-04-12T08:24:03.172Z</time></trkpt><trkpt lat="45.623391" lon="8.6022176"><ele>253.99999999999997</ele><time>2026-04-12T08:24:04.175Z</time></trkpt><trkpt lat="45.623486" lon="8.6021286"><ele>253.99999999999997</ele><time>2026-04-12T08:24:05.161Z</time></trkpt><trkpt lat="45.6235806" lon="8.6020545"><ele>254.0</ele><time>2026-04-12T08:24:06.168Z</time></trkpt><trkpt lat="45.6236663" lon="8.6019894"><ele>254.0</ele><time>2026-04-12T08:24:07.202Z</time></trkpt><trkpt lat="45.6237453" lon="8.6019142"><ele>254.6</ele><time>2026-04-12T08:24:08.173Z</time></trkpt><trkpt lat="45.6237916" lon="8.6018057"><ele>255.2</ele><time>2026-04-12T08:24:09.196Z</time></trkpt><trkpt lat="45.623814" lon="8.601678"><ele>255.79999999999998</ele><time>2026-04-12T08:24:10.162Z</time></trkpt><trkpt lat="45.6238203" lon="8.6015374"><ele>256.4</ele><time>2026-04-12T08:24:11.164Z</time></trkpt><trkpt lat="45.6238196" lon="8.6013946"><ele>257.0</ele><time>2026-04-12T08:24:12.167Z</time></trkpt><trkpt lat="45.6238226" lon="8.6012599"><ele>256.75</ele><time>2026-04-12T08:24:13.199Z</time></trkpt><trkpt lat="45.6238437" lon="8.6011261"><ele>256.5</ele><time>2026-04-12T08:24:14.159Z</time></trkpt><trkpt lat="45.6238921" lon="8.6009967"><ele>256.25</ele><time>2026-04-12T08:24:15.161Z</time></trkpt><trkpt lat="45.6239773" lon="8.6008836"><ele>256.0</ele><time>2026-04-12T08:24:16.164Z</time></trkpt><trkpt lat="45.6240999" lon="8.6007818"><ele>256.0</ele><time>2026-04-12T08:24:17.162Z</time></trkpt><trkpt lat="45.6242312" lon="8.600672"><ele>256.0</ele><time>2026-04-12T08:24:18.158Z</time></trkpt><trkpt lat="45.6243532" lon="8.6005659"><ele>256.0</ele><time>2026-04-12T08:24:19.195Z</time></trkpt><trkpt lat="45.6244669" lon="8.6004535"><ele>256.0</ele><time>2026-04-12T08:24:20.164Z</time></trkpt><trkpt lat="45.6245747" lon="8.600307"><ele>257.0</ele><time>2026-04-12T08:24:21.16Z</time></trkpt><trkpt lat="45.6246641" lon="8.6001426"><ele>258.0</ele><time>2026-04-12T08:24:22.164Z</time></trkpt><trkpt lat="45.6247361" lon="8.5999496"><ele>259.0</ele><time>2026-04-12T08:24:23.167Z</time></trkpt><trkpt lat="45.6247731" lon="8.5995808"><ele>259.3333333333333</ele><time>2026-04-12T08:24:24.149Z</time></trkpt><trkpt lat="45.6248149" lon="8.5992839"><ele>259.6666666666667</ele><time>2026-04-12T08:24:25.152Z</time></trkpt><trkpt lat="45.6248557" lon="8.5990155"><ele>260.0</ele><time>2026-04-12T08:24:26.166Z</time></trkpt><trkpt lat="45.6249021" lon="8.5987521"><ele>260.6666666666667</ele><time>2026-04-12T08:24:27.16Z</time></trkpt><trkpt lat="45.6249477" lon="8.5984944"><ele>261.3333333333333</ele><time>2026-04-12T08:24:28.163Z</time></trkpt><trkpt lat="45.6249912" lon="8.5982317"><ele>262.0</ele><time>2026-04-12T08:24:29.162Z</time></trkpt><trkpt lat="45.6250348" lon="8.5979647"><ele>263.0</ele><time>2026-04-12T08:24:30.165Z</time></trkpt><trkpt lat="45.6250755" lon="8.5976987"><ele>264.0</ele><time>2026-04-12T08:24:31.175Z</time></trkpt><trkpt lat="45.6251213" lon="8.5974395"><ele>265.0</ele><time>2026-04-12T08:24:32.2Z</time></trkpt><trkpt lat="45.6251646" lon="8.597185"><ele>268.3333333333333</ele><time>2026-04-12T08:24:33.176Z</time></trkpt><trkpt lat="45.6252022" lon="8.5969481"><ele>271.6666666666667</ele><time>2026-04-12T08:24:34.201Z</time></trkpt><trkpt lat="45.6252349" lon="8.5967124"><ele>275.0</ele><time>2026-04-12T08:24:35.158Z</time></trkpt><trkpt lat="45.6252686" lon="8.5964787"><ele>275.0</ele><time>2026-04-12T08:24:36.168Z</time></trkpt><trkpt lat="45.6253062" lon="8.5962425"><ele>275.0</ele><time>2026-04-12T08:24:37.162Z</time></trkpt><trkpt lat="45.6253564" lon="8.5960141"><ele>275.0</ele><time>2026-04-12T08:24:38.207Z</time></trkpt><trkpt lat="45.6253932" lon="8.5957953"><ele>276.5</ele><time>2026-04-12T08:24:39.206Z</time></trkpt><trkpt lat="45.6254239" lon="8.595599"><ele>278.0</ele><time>2026-04-12T08:24:40.162Z</time></trkpt><trkpt lat="45.6254547" lon="8.5954263"><ele>279.5</ele><time>2026-04-12T08:24:41.166Z</time></trkpt><trkpt lat="45.6254814" lon="8.5952792"><ele>281.0</ele><time>2026-04-12T08:24:42.18Z</time></trkpt><trkpt lat="45.6255047" lon="8.5951442"><ele>281.40000000000003</ele><time>2026-04-12T08:24:43.206Z</time></trkpt><trkpt lat="45.6255251" lon="8.5950152"><ele>281.8</ele><time>2026-04-12T08:24:44.172Z</time></trkpt><trkpt lat="45.6255476" lon="8.5948945"><ele>282.20000000000005</ele><time>2026-04-12T08:24:45.173Z</time></trkpt><trkpt lat="45.6255922" lon="8.5947804"><ele>282.6</ele><time>2026-04-12T08:24:46.164Z</time></trkpt><trkpt lat="45.6256413" lon="8.5946735"><ele>283.0</ele><time>2026-04-12T08:24:47.177Z</time></trkpt><trkpt lat="45.6257125" lon="8.5945915"><ele>283.0</ele><time>2026-04-12T08:24:48.175Z</time></trkpt><trkpt lat="45.6257832" lon="8.5945051"><ele>283.0</ele><time>2026-04-12T08:24:49.16Z</time></trkpt><trkpt lat="45.6258399" lon="8.5943962"><ele>283.0</ele><time>2026-04-12T08:24:50.166Z</time></trkpt><trkpt lat="45.6258732" lon="8.5942561"><ele>283.0</ele><time>2026-04-12T08:24:51.166Z</time></trkpt><trkpt lat="45.625886" lon="8.5940928"><ele>283.0</ele><time>2026-04-12T08:24:52.175Z</time></trkpt><trkpt lat="45.6258815" lon="8.5939066"><ele>283.0</ele><time>2026-04-12T08:24:53.208Z</time></trkpt><trkpt lat="45.6258704" lon="8.5937075"><ele>283.0</ele><time>2026-04-12T08:24:54.2Z</time></trkpt><trkpt lat="45.6258611" lon="8.5935091"><ele>283.0</ele><time>2026-04-12T08:24:55.162Z</time></trkpt><trkpt lat="45.6258511" lon="8.5933212"><ele>283.0</ele><time>2026-04-12T08:24:56.164Z</time></trkpt><trkpt lat="45.625846" lon="8.5931447"><ele>283.0</ele><time>2026-04-12T08:24:57.167Z</time></trkpt><trkpt lat="45.6258507" lon="8.5929846"><ele>283.0</ele><time>2026-04-12T08:24:58.197Z</time></trkpt><trkpt lat="45.6258752" lon="8.5928342"><ele>283.0</ele><time>2026-04-12T08:24:59.165Z</time></trkpt><trkpt lat="45.6259286" lon="8.5926901"><ele>283.0</ele><time>2026-04-12T08:25:00.166Z</time></trkpt><trkpt lat="45.6260146" lon="8.5925469"><ele>282.8</ele><time>2026-04-12T08:25:01.169Z</time></trkpt><trkpt lat="45.6261157" lon="8.592432"><ele>282.6</ele><time>2026-04-12T08:25:02.201Z</time></trkpt><trkpt lat="45.6262139" lon="8.5923544"><ele>282.4</ele><time>2026-04-12T08:25:03.163Z</time></trkpt><trkpt lat="45.6262843" lon="8.5922802"><ele>282.2</ele><time>2026-04-12T08:25:04.195Z</time></trkpt><trkpt lat="45.6263215" lon="8.5921786"><ele>282.0</ele><time>2026-04-12T08:25:05.16Z</time></trkpt><trkpt lat="45.6263352" lon="8.5920781"><ele>281.5</ele><time>2026-04-12T08:25:06.164Z</time></trkpt><trkpt lat="45.6263361" lon="8.5919353"><ele>281.0</ele><time>2026-04-12T08:25:07.203Z</time></trkpt><trkpt lat="45.6263312" lon="8.5917658"><ele>280.5</ele><time>2026-04-12T08:25:08.194Z</time></trkpt><trkpt lat="45.6263216" lon="8.5915447"><ele>280.0</ele><time>2026-04-12T08:25:09.167Z</time></trkpt><trkpt lat="45.6263136" lon="8.5913413"><ele>281.5</ele><time>2026-04-12T08:25:10.168Z</time></trkpt><trkpt lat="45.6263098" lon="8.5911506"><ele>283.0</ele><time>2026-04-12T08:25:11.165Z</time></trkpt><trkpt lat="45.6263347" lon="8.5909673"><ele>284.5</ele><time>2026-04-12T08:25:12.213Z</time></trkpt><trkpt lat="45.6263868" lon="8.5907535"><ele>286.0</ele><time>2026-04-12T08:25:13.184Z</time></trkpt><trkpt lat="45.6264524" lon="8.5905041"><ele>287.3333333333333</ele><time>2026-04-12T08:25:14.195Z</time></trkpt><trkpt lat="45.6265172" lon="8.590251"><ele>288.6666666666667</ele><time>2026-04-12T08:25:15.156Z</time></trkpt><trkpt lat="45.6265772" lon="8.5900089"><ele>290.0</ele><time>2026-04-12T08:25:16.162Z</time></trkpt><trkpt lat="45.6266381" lon="8.5897539"><ele>290.5</ele><time>2026-04-12T08:25:17.186Z</time></trkpt><trkpt lat="45.6266901" lon="8.5894445"><ele>291.0</ele><time>2026-04-12T08:25:18.212Z</time></trkpt><trkpt lat="45.6267412" lon="8.5890745"><ele>291.0</ele><time>2026-04-12T08:25:19.166Z</time></trkpt><trkpt lat="45.6267905" lon="8.5886983"><ele>291.0</ele><time>2026-04-12T08:25:20.163Z</time></trkpt><trkpt lat="45.6268335" lon="8.5883694"><ele>290.3333333333333</ele><time>2026-04-12T08:25:21.163Z</time></trkpt><trkpt lat="45.6268777" lon="8.5880694"><ele>289.66666666666663</ele><time>2026-04-12T08:25:22.165Z</time></trkpt><trkpt lat="45.6269141" lon="8.5878143"><ele>289.0</ele><time>2026-04-12T08:25:23.196Z</time></trkpt><trkpt lat="45.6269466" lon="8.5876079"><ele>289.2</ele><time>2026-04-12T08:25:24.208Z</time></trkpt><trkpt lat="45.6269872" lon="8.5874518"><ele>289.4</ele><time>2026-04-12T08:25:25.164Z</time></trkpt><trkpt lat="45.6270463" lon="8.5873403"><ele>289.6</ele><time>2026-04-12T08:25:26.166Z</time></trkpt><trkpt lat="45.6271226" lon="8.5872782"><ele>289.8</ele><time>2026-04-12T08:25:27.202Z</time></trkpt><trkpt lat="45.6272137" lon="8.587254"><ele>290.0</ele><time>2026-04-12T08:25:28.161Z</time></trkpt><trkpt lat="45.6273246" lon="8.5872498"><ele>290.0</ele><time>2026-04-12T08:25:29.166Z</time></trkpt><trkpt lat="45.6274477" lon="8.587248"><ele>290.0</ele><time>2026-04-12T08:25:30.16Z</time></trkpt><trkpt lat="45.6275574" lon="8.5872407"><ele>290.0</ele><time>2026-04-12T08:25:31.17Z</time></trkpt><trkpt lat="45.6276654" lon="8.5872204"><ele>290.0</ele><time>2026-04-12T08:25:32.176Z</time></trkpt><trkpt lat="45.6277634" lon="8.5871665"><ele>290.0</ele><time>2026-04-12T08:25:33.196Z</time></trkpt><trkpt lat="45.6278628" lon="8.587075"><ele>290.5</ele><time>2026-04-12T08:25:34.166Z</time></trkpt><trkpt lat="45.627954" lon="8.5869534"><ele>291.0</ele><time>2026-04-12T08:25:35.166Z</time></trkpt><trkpt lat="45.6280392" lon="8.5868027"><ele>291.5</ele><time>2026-04-12T08:25:36.164Z</time></trkpt><trkpt lat="45.6281137" lon="8.5866322"><ele>292.0</ele><time>2026-04-12T08:25:37.175Z</time></trkpt><trkpt lat="45.6281666" lon="8.5864356"><ele>292.0</ele><time>2026-04-12T08:25:38.198Z</time></trkpt><trkpt lat="45.6281908" lon="8.5862499"><ele>292.0</ele><time>2026-04-12T08:25:39.2Z</time></trkpt><trkpt lat="45.6281914" lon="8.5860759"><ele>292.0</ele><time>2026-04-12T08:25:40.164Z</time></trkpt><trkpt lat="45.6281581" lon="8.5859042"><ele>292.0</ele><time>2026-04-12T08:25:41.165Z</time></trkpt><trkpt lat="45.6281014" lon="8.5856979"><ele>285.5</ele><time>2026-04-12T08:25:42.166Z</time></trkpt><trkpt lat="45.6279671" lon="8.5851511"><ele>279.0</ele><time>2026-04-12T08:25:44.195Z</time></trkpt><trkpt lat="45.6279038" lon="8.5848761"><ele>279.0</ele><time>2026-04-12T08:25:45.188Z</time></trkpt><trkpt lat="45.6278403" lon="8.5846068"><ele>279.0</ele><time>2026-04-12T08:25:46.166Z</time></trkpt><trkpt lat="45.6277758" lon="8.5843483"><ele>279.0</ele><time>2026-04-12T08:25:47.168Z</time></trkpt><trkpt lat="45.6277236" lon="8.5841234"><ele>276.0</ele><time>2026-04-12T08:25:48.176Z</time></trkpt><trkpt lat="45.6276766" lon="8.5839258"><ele>273.0</ele><time>2026-04-12T08:25:49.168Z</time></trkpt><trkpt lat="45.6276542" lon="8.5837743"><ele>270.0</ele><time>2026-04-12T08:25:50.162Z</time></trkpt><trkpt lat="45.6276552" lon="8.5836342"><ele>267.0</ele><time>2026-04-12T08:25:51.167Z</time></trkpt><trkpt lat="45.627694" lon="8.5835055"><ele>267.0</ele><time>2026-04-12T08:25:52.162Z</time></trkpt><trkpt lat="45.6277554" lon="8.5833981"><ele>267.0</ele><time>2026-04-12T08:25:53.167Z</time></trkpt><trkpt lat="45.6278554" lon="8.5832899"><ele>267.0</ele><time>2026-04-12T08:25:54.163Z</time></trkpt><trkpt lat="45.6280001" lon="8.5832292"><ele>267.0</ele><time>2026-04-12T08:25:55.16Z</time></trkpt><trkpt lat="45.628128" lon="8.5831598"><ele>266.8</ele><time>2026-04-12T08:25:56.162Z</time></trkpt><trkpt lat="45.6282437" lon="8.5831014"><ele>266.6</ele><time>2026-04-12T08:25:57.166Z</time></trkpt><trkpt lat="45.6283346" lon="8.5830379"><ele>266.40000000000003</ele><time>2026-04-12T08:25:58.199Z</time></trkpt><trkpt lat="45.6283957" lon="8.5829608"><ele>266.2</ele><time>2026-04-12T08:25:59.17Z</time></trkpt><trkpt lat="45.6284528" lon="8.582877"><ele>266.0</ele><time>2026-04-12T08:26:00.159Z</time></trkpt><trkpt lat="45.6285103" lon="8.5827687"><ele>266.0</ele><time>2026-04-12T08:26:01.162Z</time></trkpt><trkpt lat="45.62854" lon="8.5825245"><ele>266.0</ele><time>2026-04-12T08:26:02.17Z</time></trkpt><trkpt lat="45.6285583" lon="8.5821824"><ele>266.0</ele><time>2026-04-12T08:26:03.169Z</time></trkpt><trkpt lat="45.62861" lon="8.5819406"><ele>267.6666666666667</ele><time>2026-04-12T08:26:04.164Z</time></trkpt><trkpt lat="45.6286586" lon="8.5816968"><ele>269.3333333333333</ele><time>2026-04-12T08:26:05.166Z</time></trkpt><trkpt lat="45.6287107" lon="8.5814463"><ele>271.0</ele><time>2026-04-12T08:26:06.171Z</time></trkpt><trkpt lat="45.628769" lon="8.5811674"><ele>271.3333333333333</ele><time>2026-04-12T08:26:07.156Z</time></trkpt><trkpt lat="45.628831" lon="8.5809002"><ele>271.6666666666667</ele><time>2026-04-12T08:26:08.155Z</time></trkpt><trkpt lat="45.628886" lon="8.5806529"><ele>272.0</ele><time>2026-04-12T08:26:09.168Z</time></trkpt><trkpt lat="45.6289323" lon="8.5804314"><ele>272.75</ele><time>2026-04-12T08:26:10.165Z</time></trkpt><trkpt lat="45.6289756" lon="8.5802204"><ele>273.5</ele><time>2026-04-12T08:26:11.155Z</time></trkpt><trkpt lat="45.62902" lon="8.5800277"><ele>274.25</ele><time>2026-04-12T08:26:12.17Z</time></trkpt><trkpt lat="45.6290627" lon="8.5798505"><ele>275.0</ele><time>2026-04-12T08:26:13.153Z</time></trkpt><trkpt lat="45.6290798" lon="8.5796712"><ele>277.0</ele><time>2026-04-12T08:26:14.171Z</time></trkpt><trkpt lat="45.629074" lon="8.5794848"><ele>279.0</ele><time>2026-04-12T08:26:15.165Z</time></trkpt><trkpt lat="45.629043" lon="8.5792771"><ele>281.0</ele><time>2026-04-12T08:26:16.171Z</time></trkpt><trkpt lat="45.6289965" lon="8.5790456"><ele>283.0</ele><time>2026-04-12T08:26:17.167Z</time></trkpt><trkpt lat="45.628954" lon="8.5787829"><ele>279.66666666666663</ele><time>2026-04-12T08:26:18.167Z</time></trkpt><trkpt lat="45.6289184" lon="8.5784699"><ele>276.3333333333333</ele><time>2026-04-12T08:26:19.169Z</time></trkpt><trkpt lat="45.6288891" lon="8.5781628"><ele>273.0</ele><time>2026-04-12T08:26:20.162Z</time></trkpt><trkpt lat="45.6288606" lon="8.57787"><ele>271.0</ele><time>2026-04-12T08:26:21.168Z</time></trkpt><trkpt lat="45.6288371" lon="8.5775942"><ele>269.0</ele><time>2026-04-12T08:26:22.166Z</time></trkpt><trkpt lat="45.6288134" lon="8.5773352"><ele>267.0</ele><time>2026-04-12T08:26:23.166Z</time></trkpt><trkpt lat="45.6287912" lon="8.5771143"><ele>266.25</ele><time>2026-04-12T08:26:24.171Z</time></trkpt><trkpt lat="45.6287916" lon="8.5769267"><ele>265.5</ele><time>2026-04-12T08:26:25.166Z</time></trkpt><trkpt lat="45.6288168" lon="8.5767722"><ele>264.75</ele><time>2026-04-12T08:26:26.168Z</time></trkpt><trkpt lat="45.6288649" lon="8.5766409"><ele>264.0</ele><time>2026-04-12T08:26:27.162Z</time></trkpt><trkpt lat="45.6289598" lon="8.576533"><ele>264.0</ele><time>2026-04-12T08:26:28.171Z</time></trkpt><trkpt lat="45.6290768" lon="8.5764297"><ele>264.0</ele><time>2026-04-12T08:26:29.168Z</time></trkpt><trkpt lat="45.6292302" lon="8.5763211"><ele>264.0</ele><time>2026-04-12T08:26:30.167Z</time></trkpt><trkpt lat="45.6294047" lon="8.5761985"><ele>264.3333333333333</ele><time>2026-04-12T08:26:31.16Z</time></trkpt><trkpt lat="45.6295899" lon="8.5760791"><ele>264.66666666666663</ele><time>2026-04-12T08:26:32.171Z</time></trkpt><trkpt lat="45.6297652" lon="8.5759725"><ele>265.0</ele><time>2026-04-12T08:26:33.169Z</time></trkpt><trkpt lat="45.6299375" lon="8.5758632"><ele>265.0</ele><time>2026-04-12T08:26:34.169Z</time></trkpt><trkpt lat="45.6301173" lon="8.5757264"><ele>265.0</ele><time>2026-04-12T08:26:35.156Z</time></trkpt><trkpt lat="45.6302925" lon="8.5755543"><ele>265.0</ele><time>2026-04-12T08:26:36.171Z</time></trkpt><trkpt lat="45.6304706" lon="8.5753799"><ele>265.0</ele><time>2026-04-12T08:26:37.159Z</time></trkpt><trkpt lat="45.6306658" lon="8.5752342"><ele>265.0</ele><time>2026-04-12T08:26:38.176Z</time></trkpt><trkpt lat="45.6308701" lon="8.5750988"><ele>265.0</ele><time>2026-04-12T08:26:39.182Z</time></trkpt><trkpt lat="45.6310549" lon="8.5749777"><ele>266.0</ele><time>2026-04-12T08:26:40.161Z</time></trkpt><trkpt lat="45.6312279" lon="8.5748649"><ele>267.0</ele><time>2026-04-12T08:26:41.171Z</time></trkpt><trkpt lat="45.6313921" lon="8.5747518"><ele>268.0</ele><time>2026-04-12T08:26:42.154Z</time></trkpt><trkpt lat="45.6315557" lon="8.5745988"><ele>268.0</ele><time>2026-04-12T08:26:43.163Z</time></trkpt><trkpt lat="45.6317052" lon="8.5744099"><ele>268.0</ele><time>2026-04-12T08:26:44.159Z</time></trkpt><trkpt lat="45.6318395" lon="8.5741954"><ele>268.0</ele><time>2026-04-12T08:26:45.161Z</time></trkpt><trkpt lat="45.6320072" lon="8.5739914"><ele>268.0</ele><time>2026-04-12T08:26:46.164Z</time></trkpt><trkpt lat="45.6322166" lon="8.5737731"><ele>268.0</ele><time>2026-04-12T08:26:47.153Z</time></trkpt><trkpt lat="45.6324246" lon="8.5735754"><ele>268.3333333333333</ele><time>2026-04-12T08:26:48.162Z</time></trkpt><trkpt lat="45.6326191" lon="8.5734063"><ele>268.6666666666667</ele><time>2026-04-12T08:26:49.153Z</time></trkpt><trkpt lat="45.6328033" lon="8.5732499"><ele>269.0</ele><time>2026-04-12T08:26:50.162Z</time></trkpt><trkpt lat="45.6329741" lon="8.5730963"><ele>269.0</ele><time>2026-04-12T08:26:51.162Z</time></trkpt><trkpt lat="45.6331323" lon="8.572958"><ele>269.0</ele><time>2026-04-12T08:26:52.161Z</time></trkpt><trkpt lat="45.6332819" lon="8.5728214"><ele>269.0</ele><time>2026-04-12T08:26:53.161Z</time></trkpt><trkpt lat="45.6334306" lon="8.5727063"><ele>269.0</ele><time>2026-04-12T08:26:54.164Z</time></trkpt><trkpt lat="45.6335773" lon="8.5726119"><ele>269.0</ele><time>2026-04-12T08:26:55.164Z</time></trkpt><trkpt lat="45.6337227" lon="8.5725529"><ele>269.0</ele><time>2026-04-12T08:26:56.165Z</time></trkpt><trkpt lat="45.6338722" lon="8.5725335"><ele>269.0</ele><time>2026-04-12T08:26:57.158Z</time></trkpt><trkpt lat="45.6340278" lon="8.57255"><ele>269.0</ele><time>2026-04-12T08:26:58.169Z</time></trkpt><trkpt lat="45.6341793" lon="8.5725665"><ele>269.0</ele><time>2026-04-12T08:26:59.162Z</time></trkpt><trkpt lat="45.6343306" lon="8.5725564"><ele>269.25</ele><time>2026-04-12T08:27:00.157Z</time></trkpt><trkpt lat="45.6344753" lon="8.5725266"><ele>269.5</ele><time>2026-04-12T08:27:01.171Z</time></trkpt><trkpt lat="45.6346082" lon="8.572499"><ele>269.75</ele><time>2026-04-12T08:27:02.169Z</time></trkpt><trkpt lat="45.6347327" lon="8.5724622"><ele>270.0</ele><time>2026-04-12T08:27:03.173Z</time></trkpt><trkpt lat="45.6348506" lon="8.5724091"><ele>270.0</ele><time>2026-04-12T08:27:04.167Z</time></trkpt><trkpt lat="45.6349521" lon="8.5723267"><ele>270.0</ele><time>2026-04-12T08:27:05.165Z</time></trkpt><trkpt lat="45.6350303" lon="8.5722092"><ele>270.0</ele><time>2026-04-12T08:27:06.172Z</time></trkpt><trkpt lat="45.6350841" lon="8.5720677"><ele>270.0</ele><time>2026-04-12T08:27:07.167Z</time></trkpt><trkpt lat="45.6351189" lon="8.5719244"><ele>270.0</ele><time>2026-04-12T08:27:08.201Z</time></trkpt><trkpt lat="45.6351399" lon="8.571781"><ele>270.0</ele><time>2026-04-12T08:27:09.174Z</time></trkpt><trkpt lat="45.6351322" lon="8.5716396"><ele>270.0</ele><time>2026-04-12T08:27:10.17Z</time></trkpt><trkpt lat="45.6351037" lon="8.5715203"><ele>270.0</ele><time>2026-04-12T08:27:11.164Z</time></trkpt><trkpt lat="45.6350632" lon="8.5714188"><ele>270.0</ele><time>2026-04-12T08:27:12.154Z</time></trkpt><trkpt lat="45.6350148" lon="8.5713276"><ele>270.0</ele><time>2026-04-12T08:27:13.166Z</time></trkpt><trkpt lat="45.6349639" lon="8.5712356"><ele>270.0</ele><time>2026-04-12T08:27:14.171Z</time></trkpt><trkpt lat="45.6349152" lon="8.5711436"><ele>270.0</ele><time>2026-04-12T08:27:15.157Z</time></trkpt><trkpt lat="45.6348671" lon="8.5710492"><ele>270.0</ele><time>2026-04-12T08:27:16.173Z</time></trkpt><trkpt lat="45.6348221" lon="8.5709483"><ele>270.0</ele><time>2026-04-12T08:27:17.149Z</time></trkpt><trkpt lat="45.6347902" lon="8.5708275"><ele>270.0</ele><time>2026-04-12T08:27:18.169Z</time></trkpt><trkpt lat="45.634744" lon="8.5707054"><ele>270.0</ele><time>2026-04-12T08:27:19.165Z</time></trkpt><trkpt lat="45.6347275" lon="8.570567"><ele>270.0</ele><time>2026-04-12T08:27:20.168Z</time></trkpt><trkpt lat="45.6347208" lon="8.5704181"><ele>270.0</ele><time>2026-04-12T08:27:21.176Z</time></trkpt><trkpt lat="45.6347269" lon="8.5702563"><ele>270.0</ele><time>2026-04-12T08:27:22.198Z</time></trkpt><trkpt lat="45.6347351" lon="8.5700982"><ele>270.0</ele><time>2026-04-12T08:27:23.17Z</time></trkpt><trkpt lat="45.6347407" lon="8.569932"><ele>270.0</ele><time>2026-04-12T08:27:24.171Z</time></trkpt><trkpt lat="45.6347492" lon="8.569759"><ele>270.0</ele><time>2026-04-12T08:27:25.159Z</time></trkpt><trkpt lat="45.6347539" lon="8.5695864"><ele>270.0</ele><time>2026-04-12T08:27:26.167Z</time></trkpt><trkpt lat="45.6347602" lon="8.5694231"><ele>270.0</ele><time>2026-04-12T08:27:27.201Z</time></trkpt><trkpt lat="45.634766" lon="8.5692661"><ele>270.0</ele><time>2026-04-12T08:27:28.173Z</time></trkpt><trkpt lat="45.6347726" lon="8.5691167"><ele>269.6</ele><time>2026-04-12T08:27:29.201Z</time></trkpt><trkpt lat="45.6347813" lon="8.5689707"><ele>269.2</ele><time>2026-04-12T08:27:30.157Z</time></trkpt><trkpt lat="45.6347882" lon="8.5688262"><ele>268.8</ele><time>2026-04-12T08:27:31.169Z</time></trkpt><trkpt lat="45.6347932" lon="8.5686835"><ele>268.4</ele><time>2026-04-12T08:27:32.164Z</time></trkpt><trkpt lat="45.6348005" lon="8.5685377"><ele>268.0</ele><time>2026-04-12T08:27:33.205Z</time></trkpt><trkpt lat="45.6348015" lon="8.5683888"><ele>267.4</ele><time>2026-04-12T08:27:34.173Z</time></trkpt><trkpt lat="45.634789" lon="8.5682411"><ele>266.8</ele><time>2026-04-12T08:27:35.169Z</time></trkpt><trkpt lat="45.6347609" lon="8.5680988"><ele>266.2</ele><time>2026-04-12T08:27:36.164Z</time></trkpt><trkpt lat="45.6347132" lon="8.5679514"><ele>265.6</ele><time>2026-04-12T08:27:37.17Z</time></trkpt><trkpt lat="45.6346548" lon="8.5678132"><ele>265.0</ele><time>2026-04-12T08:27:38.174Z</time></trkpt><trkpt lat="45.6345869" lon="8.5676846"><ele>265.0</ele><time>2026-04-12T08:27:39.173Z</time></trkpt><trkpt lat="45.634517" lon="8.5675519"><ele>265.0</ele><time>2026-04-12T08:27:40.159Z</time></trkpt><trkpt lat="45.6344525" lon="8.5674146"><ele>265.0</ele><time>2026-04-12T08:27:41.162Z</time></trkpt><trkpt lat="45.6343941" lon="8.56727"><ele>265.0</ele><time>2026-04-12T08:27:42.164Z</time></trkpt><trkpt lat="45.6343367" lon="8.5671271"><ele>264.75</ele><time>2026-04-12T08:27:43.173Z</time></trkpt><trkpt lat="45.6342807" lon="8.5669733"><ele>264.5</ele><time>2026-04-12T08:27:44.168Z</time></trkpt><trkpt lat="45.6342235" lon="8.5668325"><ele>264.25</ele><time>2026-04-12T08:27:45.165Z</time></trkpt><trkpt lat="45.6341665" lon="8.5666787"><ele>264.0</ele><time>2026-04-12T08:27:46.144Z</time></trkpt><trkpt lat="45.6340993" lon="8.5665131"><ele>264.0</ele><time>2026-04-12T08:27:47.157Z</time></trkpt><trkpt lat="45.6340379" lon="8.566361"><ele>264.0</ele><time>2026-04-12T08:27:48.161Z</time></trkpt><trkpt lat="45.6339807" lon="8.5662017"><ele>264.0</ele><time>2026-04-12T08:27:49.149Z</time></trkpt><trkpt lat="45.6339259" lon="8.5660504"><ele>264.0</ele><time>2026-04-12T08:27:50.155Z</time></trkpt><trkpt lat="45.6338777" lon="8.5658843"><ele>264.0</ele><time>2026-04-12T08:27:51.152Z</time></trkpt><trkpt lat="45.6338328" lon="8.5657141"><ele>264.0</ele><time>2026-04-12T08:27:52.197Z</time></trkpt><trkpt lat="45.6337944" lon="8.5655473"><ele>264.0</ele><time>2026-04-12T08:27:53.203Z</time></trkpt><trkpt lat="45.6337578" lon="8.5653797"><ele>264.0</ele><time>2026-04-12T08:27:54.205Z</time></trkpt><trkpt lat="45.6337286" lon="8.5652036"><ele>263.75</ele><time>2026-04-12T08:27:55.158Z</time></trkpt><trkpt lat="45.6337019" lon="8.565024"><ele>263.5</ele><time>2026-04-12T08:27:56.163Z</time></trkpt><trkpt lat="45.6336964" lon="8.5648593"><ele>263.25</ele><time>2026-04-12T08:27:57.157Z</time></trkpt><trkpt lat="45.6336853" lon="8.5646761"><ele>263.0</ele><time>2026-04-12T08:27:58.201Z</time></trkpt><trkpt lat="45.6336721" lon="8.5644912"><ele>263.0</ele><time>2026-04-12T08:27:59.175Z</time></trkpt><trkpt lat="45.6336595" lon="8.5643031"><ele>263.0</ele><time>2026-04-12T08:28:00.161Z</time></trkpt><trkpt lat="45.6336408" lon="8.5641218"><ele>263.0</ele><time>2026-04-12T08:28:01.171Z</time></trkpt><trkpt lat="45.6336226" lon="8.5639465"><ele>263.0</ele><time>2026-04-12T08:28:02.202Z</time></trkpt><trkpt lat="45.6336089" lon="8.5637746"><ele>262.75</ele><time>2026-04-12T08:28:03.169Z</time></trkpt><trkpt lat="45.6336098" lon="8.5636005"><ele>262.5</ele><time>2026-04-12T08:28:04.2Z</time></trkpt><trkpt lat="45.6336408" lon="8.5634272"><ele>262.25</ele><time>2026-04-12T08:28:05.165Z</time></trkpt><trkpt lat="45.6336834" lon="8.56326"><ele>262.0</ele><time>2026-04-12T08:28:06.165Z</time></trkpt><trkpt lat="45.6337226" lon="8.56308"><ele>262.0</ele><time>2026-04-12T08:28:07.194Z</time></trkpt><trkpt lat="45.6337656" lon="8.5628895"><ele>262.0</ele><time>2026-04-12T08:28:08.171Z</time></trkpt><trkpt lat="45.6338132" lon="8.5627107"><ele>262.0</ele><time>2026-04-12T08:28:09.203Z</time></trkpt><trkpt lat="45.63387" lon="8.5625352"><ele>262.0</ele><time>2026-04-12T08:28:10.167Z</time></trkpt><trkpt lat="45.6339429" lon="8.5623722"><ele>262.0</ele><time>2026-04-12T08:28:11.161Z</time></trkpt><trkpt lat="45.6340165" lon="8.5622154"><ele>262.0</ele><time>2026-04-12T08:28:12.166Z</time></trkpt><trkpt lat="45.6341107" lon="8.5620958"><ele>262.0</ele><time>2026-04-12T08:28:13.164Z</time></trkpt><trkpt lat="45.6342094" lon="8.5620151"><ele>262.0</ele><time>2026-04-12T08:28:14.166Z</time></trkpt><trkpt lat="45.6342996" lon="8.5619211"><ele>261.66666666666663</ele><time>2026-04-12T08:28:15.161Z</time></trkpt><trkpt lat="45.6343805" lon="8.5617698"><ele>261.3333333333333</ele><time>2026-04-12T08:28:16.171Z</time></trkpt><trkpt lat="45.6344741" lon="8.5616104"><ele>261.0</ele><time>2026-04-12T08:28:17.166Z</time></trkpt><trkpt lat="45.6345216" lon="8.5613628"><ele>261.3333333333333</ele><time>2026-04-12T08:28:18.166Z</time></trkpt><trkpt lat="45.6345776" lon="8.5611537"><ele>261.66666666666663</ele><time>2026-04-12T08:28:19.164Z</time></trkpt><trkpt lat="45.6346289" lon="8.5609482"><ele>262.0</ele><time>2026-04-12T08:28:20.156Z</time></trkpt><trkpt lat="45.6346781" lon="8.5607402"><ele>262.0</ele><time>2026-04-12T08:28:21.168Z</time></trkpt><trkpt lat="45.6347141" lon="8.5605333"><ele>262.0</ele><time>2026-04-12T08:28:22.174Z</time></trkpt><trkpt lat="45.6347484" lon="8.5603218"><ele>262.0</ele><time>2026-04-12T08:28:23.2Z</time></trkpt><trkpt lat="45.6347939" lon="8.5601199"><ele>262.0</ele><time>2026-04-12T08:28:24.178Z</time></trkpt><trkpt lat="45.6348633" lon="8.5599384"><ele>262.0</ele><time>2026-04-12T08:28:25.164Z</time></trkpt><trkpt lat="45.6349325" lon="8.5597667"><ele>262.0</ele><time>2026-04-12T08:28:26.169Z</time></trkpt><trkpt lat="45.6349892" lon="8.5595949"><ele>262.0</ele><time>2026-04-12T08:28:27.164Z</time></trkpt><trkpt lat="45.6350296" lon="8.5594054"><ele>262.0</ele><time>2026-04-12T08:28:28.214Z</time></trkpt><trkpt lat="45.6350352" lon="8.5592021"><ele>261.75</ele><time>2026-04-12T08:28:29.174Z</time></trkpt><trkpt lat="45.6350242" lon="8.5589951"><ele>261.5</ele><time>2026-04-12T08:28:30.161Z</time></trkpt><trkpt lat="45.6349935" lon="8.5588114"><ele>261.25</ele><time>2026-04-12T08:28:31.163Z</time></trkpt><trkpt lat="45.6349568" lon="8.5586258"><ele>261.0</ele><time>2026-04-12T08:28:32.2Z</time></trkpt><trkpt lat="45.6349221" lon="8.5584532"><ele>261.25</ele><time>2026-04-12T08:28:33.176Z</time></trkpt><trkpt lat="45.6348807" lon="8.5582666"><ele>261.5</ele><time>2026-04-12T08:28:34.194Z</time></trkpt><trkpt lat="45.6348364" lon="8.5580889"><ele>261.75</ele><time>2026-04-12T08:28:35.166Z</time></trkpt><trkpt lat="45.6347845" lon="8.5579166"><ele>262.0</ele><time>2026-04-12T08:28:36.165Z</time></trkpt><trkpt lat="45.6347319" lon="8.5577453"><ele>262.0</ele><time>2026-04-12T08:28:37.2Z</time></trkpt><trkpt lat="45.6346813" lon="8.5575872"><ele>262.0</ele><time>2026-04-12T08:28:38.172Z</time></trkpt><trkpt lat="45.6346334" lon="8.5574386"><ele>262.0</ele><time>2026-04-12T08:28:39.17Z</time></trkpt><trkpt lat="45.6345847" lon="8.5572909"><ele>262.0</ele><time>2026-04-12T08:28:40.165Z</time></trkpt><trkpt lat="45.6345427" lon="8.5571471"><ele>262.25</ele><time>2026-04-12T08:28:41.203Z</time></trkpt><trkpt lat="45.634499" lon="8.5569937"><ele>262.5</ele><time>2026-04-12T08:28:42.153Z</time></trkpt><trkpt lat="45.6344557" lon="8.5568227"><ele>262.75</ele><time>2026-04-12T08:28:43.194Z</time></trkpt><trkpt lat="45.6344262" lon="8.5566323"><ele>263.0</ele><time>2026-04-12T08:28:44.161Z</time></trkpt><trkpt lat="45.6343939" lon="8.5564334"><ele>261.6666666666667</ele><time>2026-04-12T08:28:45.157Z</time></trkpt><trkpt lat="45.6343632" lon="8.5562223"><ele>260.3333333333333</ele><time>2026-04-12T08:28:46.155Z</time></trkpt><trkpt lat="45.6343344" lon="8.5560032"><ele>259.0</ele><time>2026-04-12T08:28:47.154Z</time></trkpt><trkpt lat="45.6343025" lon="8.5557852"><ele>258.66666666666663</ele><time>2026-04-12T08:28:48.157Z</time></trkpt><trkpt lat="45.6342733" lon="8.5555591"><ele>258.3333333333333</ele><time>2026-04-12T08:28:49.152Z</time></trkpt><trkpt lat="45.6342438" lon="8.5553298"><ele>258.0</ele><time>2026-04-12T08:28:50.157Z</time></trkpt><trkpt lat="45.6342077" lon="8.5551117"><ele>258.5</ele><time>2026-04-12T08:28:51.165Z</time></trkpt><trkpt lat="45.6341778" lon="8.5549071"><ele>259.0</ele><time>2026-04-12T08:28:52.165Z</time></trkpt><trkpt lat="45.6341456" lon="8.5546994"><ele>259.5</ele><time>2026-04-12T08:28:53.155Z</time></trkpt><trkpt lat="45.6341154" lon="8.5544842"><ele>260.0</ele><time>2026-04-12T08:28:54.158Z</time></trkpt><trkpt lat="45.6340865" lon="8.5542692"><ele>260.0</ele><time>2026-04-12T08:28:55.168Z</time></trkpt><trkpt lat="45.6340595" lon="8.5540583"><ele>260.0</ele><time>2026-04-12T08:28:56.167Z</time></trkpt><trkpt lat="45.6340346" lon="8.5538488"><ele>260.0</ele><time>2026-04-12T08:28:57.153Z</time></trkpt><trkpt lat="45.6340143" lon="8.5536386"><ele>260.0</ele><time>2026-04-12T08:28:58.161Z</time></trkpt><trkpt lat="45.6339957" lon="8.553436"><ele>259.75</ele><time>2026-04-12T08:28:59.164Z</time></trkpt><trkpt lat="45.633978" lon="8.5532327"><ele>259.5</ele><time>2026-04-12T08:29:00.16Z</time></trkpt><trkpt lat="45.6339623" lon="8.5530305"><ele>259.25</ele><time>2026-04-12T08:29:01.166Z</time></trkpt><trkpt lat="45.633947" lon="8.5528326"><ele>259.0</ele><time>2026-04-12T08:29:02.178Z</time></trkpt><trkpt lat="45.6339345" lon="8.5526292"><ele>259.0</ele><time>2026-04-12T08:29:03.161Z</time></trkpt><trkpt lat="45.6339195" lon="8.5524147"><ele>259.0</ele><time>2026-04-12T08:29:04.17Z</time></trkpt><trkpt lat="45.6339137" lon="8.5522027"><ele>259.0</ele><time>2026-04-12T08:29:05.163Z</time></trkpt><trkpt lat="45.6339093" lon="8.5519878"><ele>259.0</ele><time>2026-04-12T08:29:06.165Z</time></trkpt><trkpt lat="45.6339057" lon="8.5517772"><ele>259.3333333333333</ele><time>2026-04-12T08:29:07.183Z</time></trkpt><trkpt lat="45.6339039" lon="8.5515602"><ele>259.6666666666667</ele><time>2026-04-12T08:29:08.162Z</time></trkpt><trkpt lat="45.6338996" lon="8.5513363"><ele>260.0</ele><time>2026-04-12T08:29:09.206Z</time></trkpt><trkpt lat="45.6338903" lon="8.5511064"><ele>260.0</ele><time>2026-04-12T08:29:10.155Z</time></trkpt><trkpt lat="45.6338779" lon="8.550875"><ele>260.0</ele><time>2026-04-12T08:29:11.151Z</time></trkpt><trkpt lat="45.6338667" lon="8.5506392"><ele>260.0</ele><time>2026-04-12T08:29:12.163Z</time></trkpt><trkpt lat="45.6338515" lon="8.5504013"><ele>260.6666666666667</ele><time>2026-04-12T08:29:13.152Z</time></trkpt><trkpt lat="45.6338385" lon="8.5501754"><ele>261.3333333333333</ele><time>2026-04-12T08:29:14.203Z</time></trkpt><trkpt lat="45.6338247" lon="8.5499448"><ele>262.0</ele><time>2026-04-12T08:29:15.153Z</time></trkpt><trkpt lat="45.6338043" lon="8.5497129"><ele>262.0</ele><time>2026-04-12T08:29:16.153Z</time></trkpt><trkpt lat="45.6337865" lon="8.5494906"><ele>262.0</ele><time>2026-04-12T08:29:17.166Z</time></trkpt><trkpt lat="45.6337665" lon="8.5492726"><ele>262.0</ele><time>2026-04-12T08:29:18.152Z</time></trkpt><trkpt lat="45.6337444" lon="8.5490423"><ele>262.0</ele><time>2026-04-12T08:29:19.154Z</time></trkpt><trkpt lat="45.633727" lon="8.5488105"><ele>262.0</ele><time>2026-04-12T08:29:20.157Z</time></trkpt><trkpt lat="45.6337042" lon="8.548573"><ele>262.0</ele><time>2026-04-12T08:29:21.154Z</time></trkpt><trkpt lat="45.6336828" lon="8.5483393"><ele>262.0</ele><time>2026-04-12T08:29:22.156Z</time></trkpt><trkpt lat="45.6336639" lon="8.5481084"><ele>262.0</ele><time>2026-04-12T08:29:23.16Z</time></trkpt><trkpt lat="45.6336508" lon="8.5478819"><ele>262.0</ele><time>2026-04-12T08:29:24.176Z</time></trkpt><trkpt lat="45.6336379" lon="8.5476533"><ele>262.0</ele><time>2026-04-12T08:29:25.151Z</time></trkpt><trkpt lat="45.6336254" lon="8.5474267"><ele>262.0</ele><time>2026-04-12T08:29:26.159Z</time></trkpt><trkpt lat="45.6336139" lon="8.5472043"><ele>262.0</ele><time>2026-04-12T08:29:27.153Z</time></trkpt><trkpt lat="45.6336034" lon="8.546982"><ele>262.0</ele><time>2026-04-12T08:29:28.15Z</time></trkpt><trkpt lat="45.6335932" lon="8.5467605"><ele>262.0</ele><time>2026-04-12T08:29:29.192Z</time></trkpt><trkpt lat="45.6335817" lon="8.5465327"><ele>262.0</ele><time>2026-04-12T08:29:30.157Z</time></trkpt><trkpt lat="45.6335706" lon="8.5462993"><ele>262.0</ele><time>2026-04-12T08:29:31.16Z</time></trkpt><trkpt lat="45.6335615" lon="8.5460749"><ele>262.0</ele><time>2026-04-12T08:29:32.188Z</time></trkpt><trkpt lat="45.6335544" lon="8.5458661"><ele>262.0</ele><time>2026-04-12T08:29:33.192Z</time></trkpt><trkpt lat="45.6335447" lon="8.545667"><ele>262.0</ele><time>2026-04-12T08:29:34.195Z</time></trkpt><trkpt lat="45.6335363" lon="8.545484"><ele>262.25</ele><time>2026-04-12T08:29:35.158Z</time></trkpt><trkpt lat="45.6335251" lon="8.5453002"><ele>262.5</ele><time>2026-04-12T08:29:36.149Z</time></trkpt><trkpt lat="45.633511" lon="8.5451267"><ele>262.75</ele><time>2026-04-12T08:29:37.179Z</time></trkpt><trkpt lat="45.6334952" lon="8.5449646"><ele>263.0</ele><time>2026-04-12T08:29:38.168Z</time></trkpt><trkpt lat="45.6334778" lon="8.5448082"><ele>263.0</ele><time>2026-04-12T08:29:39.163Z</time></trkpt><trkpt lat="45.6334614" lon="8.544648"><ele>263.0</ele><time>2026-04-12T08:29:40.154Z</time></trkpt><trkpt lat="45.6334491" lon="8.544503"><ele>263.0</ele><time>2026-04-12T08:29:41.159Z</time></trkpt><trkpt lat="45.6334381" lon="8.5443636"><ele>263.0</ele><time>2026-04-12T08:29:42.158Z</time></trkpt><trkpt lat="45.6334271" lon="8.5442303"><ele>263.0</ele><time>2026-04-12T08:29:43.161Z</time></trkpt><trkpt lat="45.6334237" lon="8.5441064"><ele>263.0</ele><time>2026-04-12T08:29:44.159Z</time></trkpt><trkpt lat="45.633425" lon="8.543984"><ele>263.0</ele><time>2026-04-12T08:29:45.171Z</time></trkpt><trkpt lat="45.6334313" lon="8.5438596"><ele>263.0</ele><time>2026-04-12T08:29:46.161Z</time></trkpt><trkpt lat="45.6334457" lon="8.5437358"><ele>263.0</ele><time>2026-04-12T08:29:47.166Z</time></trkpt><trkpt lat="45.6334706" lon="8.5436219"><ele>263.0</ele><time>2026-04-12T08:29:48.155Z</time></trkpt><trkpt lat="45.6335018" lon="8.5435135"><ele>263.0</ele><time>2026-04-12T08:29:49.204Z</time></trkpt><trkpt lat="45.6335385" lon="8.5434294"><ele>262.6666666666667</ele><time>2026-04-12T08:29:50.166Z</time></trkpt><trkpt lat="45.6335771" lon="8.5433461"><ele>262.33333333333337</ele><time>2026-04-12T08:29:51.175Z</time></trkpt><trkpt lat="45.6336292" lon="8.5432664"><ele>262.0</ele><time>2026-04-12T08:29:52.196Z</time></trkpt><trkpt lat="45.6336772" lon="8.5431692"><ele>261.6666666666667</ele><time>2026-04-12T08:29:53.175Z</time></trkpt><trkpt lat="45.6337205" lon="8.5430654"><ele>261.3333333333333</ele><time>2026-04-12T08:29:54.205Z</time></trkpt><trkpt lat="45.6337572" lon="8.5429451"><ele>261.0</ele><time>2026-04-12T08:29:55.164Z</time></trkpt><trkpt lat="45.6337952" lon="8.5428065"><ele>260.6</ele><time>2026-04-12T08:29:56.165Z</time></trkpt><trkpt lat="45.6338291" lon="8.5426655"><ele>260.20000000000005</ele><time>2026-04-12T08:29:57.201Z</time></trkpt><trkpt lat="45.6338646" lon="8.5425306"><ele>259.79999999999995</ele><time>2026-04-12T08:29:58.199Z</time></trkpt><trkpt lat="45.6339028" lon="8.5424004"><ele>259.4</ele><time>2026-04-12T08:29:59.17Z</time></trkpt><trkpt lat="45.6339428" lon="8.5422677"><ele>259.0</ele><time>2026-04-12T08:30:00.163Z</time></trkpt><trkpt lat="45.6339874" lon="8.5421409"><ele>258.59999999999997</ele><time>2026-04-12T08:30:01.164Z</time></trkpt><trkpt lat="45.6340474" lon="8.5420284"><ele>258.2</ele><time>2026-04-12T08:30:02.18Z</time></trkpt><trkpt lat="45.6340979" lon="8.5419071"><ele>257.79999999999995</ele><time>2026-04-12T08:30:03.162Z</time></trkpt><trkpt lat="45.6341417" lon="8.5417893"><ele>257.4</ele><time>2026-04-12T08:30:04.171Z</time></trkpt><trkpt lat="45.6341725" lon="8.5416478"><ele>257.0</ele><time>2026-04-12T08:30:05.157Z</time></trkpt><trkpt lat="45.6341939" lon="8.5415115"><ele>257.0</ele><time>2026-04-12T08:30:06.166Z</time></trkpt><trkpt lat="45.6342025" lon="8.5413718"><ele>257.0</ele><time>2026-04-12T08:30:07.176Z</time></trkpt><trkpt lat="45.6341946" lon="8.5412371"><ele>257.0</ele><time>2026-04-12T08:30:08.163Z</time></trkpt><trkpt lat="45.6341728" lon="8.5410967"><ele>257.0</ele><time>2026-04-12T08:30:09.173Z</time></trkpt><trkpt lat="45.6341618" lon="8.5409798"><ele>257.0</ele><time>2026-04-12T08:30:10.16Z</time></trkpt><trkpt lat="45.6341482" lon="8.5408548"><ele>257.0</ele><time>2026-04-12T08:30:11.17Z</time></trkpt><trkpt lat="45.6341346" lon="8.5407424"><ele>257.0</ele><time>2026-04-12T08:30:12.167Z</time></trkpt><trkpt lat="45.6341251" lon="8.5406428"><ele>257.0</ele><time>2026-04-12T08:30:13.169Z</time></trkpt><trkpt lat="45.634121" lon="8.5405001"><ele>257.0</ele><time>2026-04-12T08:30:15.159Z</time></trkpt><trkpt lat="45.6340676" lon="8.5404048"><ele>257.0</ele><time>2026-04-12T08:30:45.157Z</time></trkpt><trkpt lat="45.6340386" lon="8.5402895"><ele>257.0</ele><time>2026-04-12T08:31:00.157Z</time></trkpt><trkpt lat="45.6340265" lon="8.5401623"><ele>257.0</ele><time>2026-04-12T08:31:01.156Z</time></trkpt><trkpt lat="45.6340161" lon="8.5400507"><ele>257.0</ele><time>2026-04-12T08:31:02.156Z</time></trkpt><trkpt lat="45.6340163" lon="8.5399012"><ele>257.0</ele><time>2026-04-12T08:31:03.2Z</time></trkpt><trkpt lat="45.6340447" lon="8.5397163"><ele>257.0</ele><time>2026-04-12T08:31:04.201Z</time></trkpt><trkpt lat="45.6340412" lon="8.539445"><ele>256.5</ele><time>2026-04-12T08:31:05.159Z</time></trkpt><trkpt lat="45.6340733" lon="8.539241"><ele>256.0</ele><time>2026-04-12T08:31:06.16Z</time></trkpt><trkpt lat="45.6340889" lon="8.5390385"><ele>255.5</ele><time>2026-04-12T08:31:07.167Z</time></trkpt><trkpt lat="45.6341047" lon="8.5388412"><ele>255.0</ele><time>2026-04-12T08:31:08.168Z</time></trkpt><trkpt lat="45.6340996" lon="8.5386323"><ele>255.0</ele><time>2026-04-12T08:31:09.165Z</time></trkpt><trkpt lat="45.6340857" lon="8.5384024"><ele>255.0</ele><time>2026-04-12T08:31:10.16Z</time></trkpt><trkpt lat="45.6340644" lon="8.5381414"><ele>255.0</ele><time>2026-04-12T08:31:11.16Z</time></trkpt><trkpt lat="45.6340452" lon="8.5378657"><ele>255.66666666666669</ele><time>2026-04-12T08:31:12.166Z</time></trkpt><trkpt lat="45.6340262" lon="8.5375824"><ele>256.33333333333337</ele><time>2026-04-12T08:31:13.165Z</time></trkpt><trkpt lat="45.6340085" lon="8.5373174"><ele>257.0</ele><time>2026-04-12T08:31:14.163Z</time></trkpt><trkpt lat="45.6339897" lon="8.5370585"><ele>258.33333333333337</ele><time>2026-04-12T08:31:15.157Z</time></trkpt><trkpt lat="45.6339724" lon="8.5367932"><ele>259.6666666666667</ele><time>2026-04-12T08:31:16.165Z</time></trkpt><trkpt lat="45.6339545" lon="8.5365315"><ele>261.0</ele><time>2026-04-12T08:31:17.165Z</time></trkpt><trkpt lat="45.6339331" lon="8.536273"><ele>261.6666666666667</ele><time>2026-04-12T08:31:18.162Z</time></trkpt><trkpt lat="45.6339201" lon="8.5360287"><ele>262.33333333333337</ele><time>2026-04-12T08:31:19.205Z</time></trkpt><trkpt lat="45.6339062" lon="8.5357966"><ele>263.0</ele><time>2026-04-12T08:31:20.166Z</time></trkpt><trkpt lat="45.6338922" lon="8.535582"><ele>263.0</ele><time>2026-04-12T08:31:21.167Z</time></trkpt><trkpt lat="45.6338809" lon="8.5353832"><ele>263.0</ele><time>2026-04-12T08:31:22.198Z</time></trkpt><trkpt lat="45.6338698" lon="8.5351906"><ele>263.0</ele><time>2026-04-12T08:31:23.205Z</time></trkpt><trkpt lat="45.6338517" lon="8.5349793"><ele>263.0</ele><time>2026-04-12T08:31:24.2Z</time></trkpt><trkpt lat="45.6338338" lon="8.5347619"><ele>262.5</ele><time>2026-04-12T08:31:25.162Z</time></trkpt><trkpt lat="45.6338165" lon="8.5345471"><ele>262.0</ele><time>2026-04-12T08:31:26.164Z</time></trkpt><trkpt lat="45.6338004" lon="8.5343405"><ele>261.5</ele><time>2026-04-12T08:31:27.175Z</time></trkpt><trkpt lat="45.6337873" lon="8.5341474"><ele>261.0</ele><time>2026-04-12T08:31:28.166Z</time></trkpt><trkpt lat="45.633775" lon="8.5339622"><ele>261.0</ele><time>2026-04-12T08:31:29.164Z</time></trkpt><trkpt lat="45.6337634" lon="8.5337811"><ele>261.0</ele><time>2026-04-12T08:31:30.158Z</time></trkpt><trkpt lat="45.6337491" lon="8.5335941"><ele>261.0</ele><time>2026-04-12T08:31:31.17Z</time></trkpt><trkpt lat="45.6337357" lon="8.5334098"><ele>261.0</ele><time>2026-04-12T08:31:32.168Z</time></trkpt><trkpt lat="45.6337247" lon="8.5332137"><ele>261.0</ele><time>2026-04-12T08:31:33.199Z</time></trkpt><trkpt lat="45.6337273" lon="8.5330124"><ele>261.0</ele><time>2026-04-12T08:31:34.198Z</time></trkpt><trkpt lat="45.6337446" lon="8.5328138"><ele>261.0</ele><time>2026-04-12T08:31:35.163Z</time></trkpt><trkpt lat="45.6337724" lon="8.5326189"><ele>261.0</ele><time>2026-04-12T08:31:36.17Z</time></trkpt><trkpt lat="45.6338061" lon="8.5324337"><ele>261.0</ele><time>2026-04-12T08:31:37.175Z</time></trkpt><trkpt lat="45.6338404" lon="8.5322369"><ele>261.0</ele><time>2026-04-12T08:31:38.199Z</time></trkpt><trkpt lat="45.6338714" lon="8.5320412"><ele>261.0</ele><time>2026-04-12T08:31:39.167Z</time></trkpt><trkpt lat="45.6339077" lon="8.5318431"><ele>261.0</ele><time>2026-04-12T08:31:40.169Z</time></trkpt><trkpt lat="45.633943" lon="8.5316519"><ele>261.25</ele><time>2026-04-12T08:31:41.171Z</time></trkpt><trkpt lat="45.6339765" lon="8.5314682"><ele>261.5</ele><time>2026-04-12T08:31:42.172Z</time></trkpt><trkpt lat="45.6340096" lon="8.5312833"><ele>261.75</ele><time>2026-04-12T08:31:43.193Z</time></trkpt><trkpt lat="45.6340415" lon="8.5311001"><ele>262.0</ele><time>2026-04-12T08:31:44.213Z</time></trkpt><trkpt lat="45.6340728" lon="8.530932"><ele>261.6</ele><time>2026-04-12T08:31:45.162Z</time></trkpt><trkpt lat="45.634095" lon="8.5307843"><ele>261.2</ele><time>2026-04-12T08:31:46.165Z</time></trkpt><trkpt lat="45.6341186" lon="8.5306393"><ele>260.8</ele><time>2026-04-12T08:31:47.181Z</time></trkpt><trkpt lat="45.634144" lon="8.5305068"><ele>260.4</ele><time>2026-04-12T08:31:48.171Z</time></trkpt><trkpt lat="45.6341671" lon="8.5303822"><ele>260.0</ele><time>2026-04-12T08:31:49.167Z</time></trkpt><trkpt lat="45.634186" lon="8.5302707"><ele>259.8</ele><time>2026-04-12T08:31:50.168Z</time></trkpt><trkpt lat="45.6342069" lon="8.5301606"><ele>259.6</ele><time>2026-04-12T08:31:51.169Z</time></trkpt><trkpt lat="45.6342248" lon="8.5300503"><ele>259.4</ele><time>2026-04-12T08:31:52.158Z</time></trkpt><trkpt lat="45.634252" lon="8.5299006"><ele>259.2</ele><time>2026-04-12T08:31:53.161Z</time></trkpt><trkpt lat="45.6342866" lon="8.5296995"><ele>259.0</ele><time>2026-04-12T08:31:54.214Z</time></trkpt><trkpt lat="45.6343309" lon="8.5294319"><ele>258.0</ele><time>2026-04-12T08:31:55.155Z</time></trkpt><trkpt lat="45.6343862" lon="8.5291056"><ele>257.0</ele><time>2026-04-12T08:31:56.174Z</time></trkpt><trkpt lat="45.6344503" lon="8.5287478"><ele>257.6666666666667</ele><time>2026-04-12T08:31:57.179Z</time></trkpt><trkpt lat="45.6345062" lon="8.5284217"><ele>258.3333333333333</ele><time>2026-04-12T08:31:58.161Z</time></trkpt><trkpt lat="45.6345628" lon="8.5281257"><ele>259.0</ele><time>2026-04-12T08:31:59.161Z</time></trkpt><trkpt lat="45.6346172" lon="8.5278508"><ele>259.0</ele><time>2026-04-12T08:32:00.156Z</time></trkpt><trkpt lat="45.6346919" lon="8.5275935"><ele>259.0</ele><time>2026-04-12T08:32:01.203Z</time></trkpt><trkpt lat="45.6348123" lon="8.5273414"><ele>259.0</ele><time>2026-04-12T08:32:02.176Z</time></trkpt><trkpt lat="45.6349588" lon="8.5270885"><ele>259.0</ele><time>2026-04-12T08:32:03.176Z</time></trkpt><trkpt lat="45.6351234" lon="8.5268409"><ele>259.0</ele><time>2026-04-12T08:32:04.153Z</time></trkpt><trkpt lat="45.6353061" lon="8.5265852"><ele>259.5</ele><time>2026-04-12T08:32:05.15Z</time></trkpt><trkpt lat="45.6355237" lon="8.5263106"><ele>260.0</ele><time>2026-04-12T08:32:06.149Z</time></trkpt><trkpt lat="45.635765" lon="8.5260199"><ele>260.0</ele><time>2026-04-12T08:32:07.155Z</time></trkpt><trkpt lat="45.6360118" lon="8.525724"><ele>260.0</ele><time>2026-04-12T08:32:08.158Z</time></trkpt><trkpt lat="45.6362591" lon="8.5254313"><ele>261.5</ele><time>2026-04-12T08:32:09.158Z</time></trkpt><trkpt lat="45.6365099" lon="8.5251422"><ele>263.0</ele><time>2026-04-12T08:32:10.171Z</time></trkpt><trkpt lat="45.6367708" lon="8.5248461"><ele>262.5</ele><time>2026-04-12T08:32:11.171Z</time></trkpt><trkpt lat="45.6370529" lon="8.5245361"><ele>262.0</ele><time>2026-04-12T08:32:12.176Z</time></trkpt><trkpt lat="45.6373275" lon="8.5242459"><ele>262.0</ele><time>2026-04-12T08:32:13.171Z</time></trkpt><trkpt lat="45.6375798" lon="8.5239769"><ele>262.0</ele><time>2026-04-12T08:32:14.167Z</time></trkpt><trkpt lat="45.6378079" lon="8.5237378"><ele>262.0</ele><time>2026-04-12T08:32:15.164Z</time></trkpt><trkpt lat="45.6380252" lon="8.5235085"><ele>262.0</ele><time>2026-04-12T08:32:16.167Z</time></trkpt><trkpt lat="45.6382344" lon="8.5232858"><ele>262.0</ele><time>2026-04-12T08:32:17.156Z</time></trkpt><trkpt lat="45.6384384" lon="8.5230603"><ele>262.0</ele><time>2026-04-12T08:32:18.165Z</time></trkpt><trkpt lat="45.638643" lon="8.5228118"><ele>263.0</ele><time>2026-04-12T08:32:19.164Z</time></trkpt><trkpt lat="45.6388408" lon="8.5225358"><ele>264.0</ele><time>2026-04-12T08:32:20.168Z</time></trkpt><trkpt lat="45.6390311" lon="8.5222463"><ele>264.0</ele><time>2026-04-12T08:32:21.15Z</time></trkpt><trkpt lat="45.6392091" lon="8.5219609"><ele>264.0</ele><time>2026-04-12T08:32:22.159Z</time></trkpt><trkpt lat="45.6393885" lon="8.5216772"><ele>264.0</ele><time>2026-04-12T08:32:23.169Z</time></trkpt><trkpt lat="45.639561" lon="8.5213986"><ele>264.0</ele><time>2026-04-12T08:32:24.166Z</time></trkpt><trkpt lat="45.6397266" lon="8.521122"><ele>263.0</ele><time>2026-04-12T08:32:25.165Z</time></trkpt><trkpt lat="45.6398911" lon="8.5208464"><ele>262.0</ele><time>2026-04-12T08:32:26.166Z</time></trkpt><trkpt lat="45.6400562" lon="8.5205759"><ele>263.0</ele><time>2026-04-12T08:32:27.205Z</time></trkpt><trkpt lat="45.6402203" lon="8.520295"><ele>264.0</ele><time>2026-04-12T08:32:28.198Z</time></trkpt><trkpt lat="45.6403862" lon="8.5200191"><ele>264.0</ele><time>2026-04-12T08:32:29.205Z</time></trkpt><trkpt lat="45.6405495" lon="8.5197429"><ele>264.0</ele><time>2026-04-12T08:32:30.16Z</time></trkpt><trkpt lat="45.6407106" lon="8.519485"><ele>264.0</ele><time>2026-04-12T08:32:31.181Z</time></trkpt><trkpt lat="45.6408708" lon="8.5192362"><ele>264.0</ele><time>2026-04-12T08:32:32.213Z</time></trkpt><trkpt lat="45.6410293" lon="8.5190003"><ele>264.3333333333333</ele><time>2026-04-12T08:32:33.165Z</time></trkpt><trkpt lat="45.6411874" lon="8.5187729"><ele>264.66666666666663</ele><time>2026-04-12T08:32:34.17Z</time></trkpt><trkpt lat="45.6413405" lon="8.5185526"><ele>265.0</ele><time>2026-04-12T08:32:35.175Z</time></trkpt><trkpt lat="45.6414927" lon="8.5183398"><ele>265.0</ele><time>2026-04-12T08:32:36.176Z</time></trkpt><trkpt lat="45.6416391" lon="8.5181332"><ele>265.0</ele><time>2026-04-12T08:32:37.177Z</time></trkpt><trkpt lat="45.6417923" lon="8.5179203"><ele>265.0</ele><time>2026-04-12T08:32:38.168Z</time></trkpt><trkpt lat="45.6419418" lon="8.5177105"><ele>266.3333333333333</ele><time>2026-04-12T08:32:39.174Z</time></trkpt><trkpt lat="45.6420852" lon="8.5175069"><ele>267.6666666666667</ele><time>2026-04-12T08:32:40.172Z</time></trkpt><trkpt lat="45.6422343" lon="8.5173022"><ele>269.0</ele><time>2026-04-12T08:32:41.166Z</time></trkpt><trkpt lat="45.6423817" lon="8.5170954"><ele>269.0</ele><time>2026-04-12T08:32:42.205Z</time></trkpt><trkpt lat="45.6425315" lon="8.5168896"><ele>269.0</ele><time>2026-04-12T08:32:43.161Z</time></trkpt><trkpt lat="45.6426792" lon="8.5166814"><ele>269.0</ele><time>2026-04-12T08:32:44.171Z</time></trkpt><trkpt lat="45.6428264" lon="8.5164732"><ele>268.33333333333337</ele><time>2026-04-12T08:32:45.166Z</time></trkpt><trkpt lat="45.6429707" lon="8.5162724"><ele>267.6666666666667</ele><time>2026-04-12T08:32:46.169Z</time></trkpt><trkpt lat="45.6431079" lon="8.5160694"><ele>267.0</ele><time>2026-04-12T08:32:47.166Z</time></trkpt><trkpt lat="45.6432436" lon="8.5158696"><ele>267.0</ele><time>2026-04-12T08:32:48.169Z</time></trkpt><trkpt lat="45.6433785" lon="8.5156735"><ele>267.0</ele><time>2026-04-12T08:32:49.185Z</time></trkpt><trkpt lat="45.643516" lon="8.5154738"><ele>267.0</ele><time>2026-04-12T08:32:50.161Z</time></trkpt><trkpt lat="45.6436544" lon="8.5152757"><ele>267.6666666666667</ele><time>2026-04-12T08:32:51.168Z</time></trkpt><trkpt lat="45.6437926" lon="8.5150744"><ele>268.33333333333337</ele><time>2026-04-12T08:32:52.181Z</time></trkpt><trkpt lat="45.6439302" lon="8.5148772"><ele>269.0</ele><time>2026-04-12T08:32:53.178Z</time></trkpt><trkpt lat="45.6440631" lon="8.5146787"><ele>269.0</ele><time>2026-04-12T08:32:54.165Z</time></trkpt><trkpt lat="45.6441928" lon="8.5144911"><ele>269.0</ele><time>2026-04-12T08:32:55.174Z</time></trkpt><trkpt lat="45.6443246" lon="8.5143154"><ele>269.0</ele><time>2026-04-12T08:32:56.171Z</time></trkpt><trkpt lat="45.6444525" lon="8.5141447"><ele>269.33333333333337</ele><time>2026-04-12T08:32:57.215Z</time></trkpt><trkpt lat="45.644576" lon="8.5139753"><ele>269.6666666666667</ele><time>2026-04-12T08:32:58.168Z</time></trkpt><trkpt lat="45.6446985" lon="8.5138071"><ele>270.0</ele><time>2026-04-12T08:32:59.206Z</time></trkpt><trkpt lat="45.6448125" lon="8.513647"><ele>270.0</ele><time>2026-04-12T08:33:00.172Z</time></trkpt><trkpt lat="45.644928" lon="8.5134831"><ele>270.0</ele><time>2026-04-12T08:33:01.174Z</time></trkpt><trkpt lat="45.6450374" lon="8.5133278"><ele>270.0</ele><time>2026-04-12T08:33:02.212Z</time></trkpt><trkpt lat="45.6451451" lon="8.5131771"><ele>270.0</ele><time>2026-04-12T08:33:03.201Z</time></trkpt><trkpt lat="45.6452509" lon="8.5130282"><ele>270.0</ele><time>2026-04-12T08:33:04.171Z</time></trkpt><trkpt lat="45.6453534" lon="8.5128793"><ele>270.0</ele><time>2026-04-12T08:33:05.169Z</time></trkpt><trkpt lat="45.6454542" lon="8.5127265"><ele>270.0</ele><time>2026-04-12T08:33:06.174Z</time></trkpt><trkpt lat="45.6455506" lon="8.5125941"><ele>269.75</ele><time>2026-04-12T08:33:07.176Z</time></trkpt><trkpt lat="45.6456479" lon="8.5124563"><ele>269.5</ele><time>2026-04-12T08:33:08.171Z</time></trkpt><trkpt lat="45.6457413" lon="8.5123254"><ele>269.25</ele><time>2026-04-12T08:33:09.2Z</time></trkpt><trkpt lat="45.6458282" lon="8.5122001"><ele>269.0</ele><time>2026-04-12T08:33:10.17Z</time></trkpt><trkpt lat="45.6459125" lon="8.5120791"><ele>268.4</ele><time>2026-04-12T08:33:11.164Z</time></trkpt><trkpt lat="45.6459974" lon="8.5119649"><ele>267.79999999999995</ele><time>2026-04-12T08:33:12.17Z</time></trkpt><trkpt lat="45.6460741" lon="8.5118588"><ele>267.20000000000005</ele><time>2026-04-12T08:33:13.157Z</time></trkpt><trkpt lat="45.6461465" lon="8.5117594"><ele>266.6</ele><time>2026-04-12T08:33:14.206Z</time></trkpt><trkpt lat="45.6462033" lon="8.5116526"><ele>266.0</ele><time>2026-04-12T08:33:15.161Z</time></trkpt><trkpt lat="45.6462386" lon="8.511538"><ele>266.0</ele><time>2026-04-12T08:33:16.163Z</time></trkpt><trkpt lat="45.6462425" lon="8.5114237"><ele>266.0</ele><time>2026-04-12T08:33:17.163Z</time></trkpt><trkpt lat="45.6462278" lon="8.5113079"><ele>266.0</ele><time>2026-04-12T08:33:18.16Z</time></trkpt><trkpt lat="45.6461967" lon="8.5111788"><ele>266.0</ele><time>2026-04-12T08:33:19.162Z</time></trkpt><trkpt lat="45.6461624" lon="8.5110353"><ele>266.0</ele><time>2026-04-12T08:33:20.164Z</time></trkpt><trkpt lat="45.6461231" lon="8.5108908"><ele>265.8</ele><time>2026-04-12T08:33:21.168Z</time></trkpt><trkpt lat="45.6460779" lon="8.510754"><ele>265.6</ele><time>2026-04-12T08:33:22.159Z</time></trkpt><trkpt lat="45.6460372" lon="8.5106117"><ele>265.4</ele><time>2026-04-12T08:33:23.165Z</time></trkpt><trkpt lat="45.645995" lon="8.5104705"><ele>265.2</ele><time>2026-04-12T08:33:24.179Z</time></trkpt><trkpt lat="45.6459549" lon="8.5103286"><ele>265.0</ele><time>2026-04-12T08:33:25.149Z</time></trkpt><trkpt lat="45.6459148" lon="8.5101898"><ele>265.0</ele><time>2026-04-12T08:33:26.166Z</time></trkpt><trkpt lat="45.6458739" lon="8.5100482"><ele>265.0</ele><time>2026-04-12T08:33:27.182Z</time></trkpt><trkpt lat="45.6458354" lon="8.5099081"><ele>265.0</ele><time>2026-04-12T08:33:28.17Z</time></trkpt><trkpt lat="45.6457951" lon="8.5097721"><ele>265.0</ele><time>2026-04-12T08:33:29.166Z</time></trkpt><trkpt lat="45.6457622" lon="8.5096317"><ele>265.0</ele><time>2026-04-12T08:33:30.169Z</time></trkpt><trkpt lat="45.6457328" lon="8.509495"><ele>265.3333333333333</ele><time>2026-04-12T08:33:31.162Z</time></trkpt><trkpt lat="45.6457112" lon="8.50935"><ele>265.66666666666663</ele><time>2026-04-12T08:33:32.177Z</time></trkpt><trkpt lat="45.6456959" lon="8.5092155"><ele>266.0</ele><time>2026-04-12T08:33:33.171Z</time></trkpt><trkpt lat="45.6456817" lon="8.509089"><ele>266.3333333333333</ele><time>2026-04-12T08:33:34.207Z</time></trkpt><trkpt lat="45.6456782" lon="8.5089726"><ele>266.6666666666667</ele><time>2026-04-12T08:33:35.174Z</time></trkpt><trkpt lat="45.645693" lon="8.5088657"><ele>267.0</ele><time>2026-04-12T08:33:36.171Z</time></trkpt><trkpt lat="45.6457119" lon="8.5087739"><ele>267.6</ele><time>2026-04-12T08:33:37.174Z</time></trkpt><trkpt lat="45.6457301" lon="8.508582"><ele>268.2</ele><time>2026-04-12T08:33:39.17Z</time></trkpt><trkpt lat="45.6457124" lon="8.508471"><ele>268.8</ele><time>2026-04-12T08:33:40.172Z</time></trkpt><trkpt lat="45.6456733" lon="8.5083647"><ele>269.4</ele><time>2026-04-12T08:33:41.168Z</time></trkpt><trkpt lat="45.6456535" lon="8.5082436"><ele>270.0</ele><time>2026-04-12T08:33:42.184Z</time></trkpt><trkpt lat="45.6456427" lon="8.5081217"><ele>270.0</ele><time>2026-04-12T08:33:43.171Z</time></trkpt><trkpt lat="45.6456347" lon="8.5080178"><ele>270.0</ele><time>2026-04-12T08:33:44.17Z</time></trkpt><trkpt lat="45.6456266" lon="8.5078529"><ele>270.0</ele><time>2026-04-12T08:33:46.17Z</time></trkpt><trkpt lat="45.6456705" lon="8.5077441"><ele>270.0</ele><time>2026-04-12T08:33:48.196Z</time></trkpt><trkpt lat="45.6457582" lon="8.5077022"><ele>270.0</ele><time>2026-04-12T08:33:50.17Z</time></trkpt><trkpt lat="45.6458416" lon="8.5077119"><ele>270.0</ele><time>2026-04-12T08:33:51.179Z</time></trkpt><trkpt lat="45.6459185" lon="8.5077153"><ele>270.0</ele><time>2026-04-12T08:33:52.178Z</time></trkpt><trkpt lat="45.646003" lon="8.5077054"><ele>270.0</ele><time>2026-04-12T08:33:53.177Z</time></trkpt><trkpt lat="45.6460816" lon="8.5076951"><ele>270.0</ele><time>2026-04-12T08:33:54.149Z</time></trkpt><trkpt lat="45.6461545" lon="8.5077007"><ele>270.0</ele><time>2026-04-12T08:33:55.165Z</time></trkpt><trkpt lat="45.646225" lon="8.5076976"><ele>270.0</ele><time>2026-04-12T08:33:56.172Z</time></trkpt><trkpt lat="45.6462945" lon="8.5076997"><ele>270.0</ele><time>2026-04-12T08:33:57.156Z</time></trkpt><trkpt lat="45.6463656" lon="8.5076925"><ele>270.0</ele><time>2026-04-12T08:33:58.166Z</time></trkpt><trkpt lat="45.6464386" lon="8.507688"><ele>270.0</ele><time>2026-04-12T08:33:59.153Z</time></trkpt><trkpt lat="45.6465095" lon="8.5076819"><ele>270.0</ele><time>2026-04-12T08:34:00.165Z</time></trkpt><trkpt lat="45.6465815" lon="8.507682"><ele>270.0</ele><time>2026-04-12T08:34:01.171Z</time></trkpt><trkpt lat="45.6466469" lon="8.5076748"><ele>270.0</ele><time>2026-04-12T08:34:02.165Z</time></trkpt><trkpt lat="45.6467244" lon="8.5076726"><ele>270.0</ele><time>2026-04-12T08:34:04.19Z</time></trkpt><trkpt lat="45.6468091" lon="8.507665"><ele>270.0</ele><time>2026-04-12T08:34:06.165Z</time></trkpt><trkpt lat="45.6468996" lon="8.5076475"><ele>270.0</ele><time>2026-04-12T08:34:08.166Z</time></trkpt><trkpt lat="45.6470353" lon="8.5077052"><ele>270.0</ele><time>2026-04-12T08:34:10.157Z</time></trkpt><trkpt lat="45.6471151" lon="8.5077185"><ele>270.0</ele><time>2026-04-12T08:34:11.165Z</time></trkpt><trkpt lat="45.6472271" lon="8.5077181"><ele>270.0</ele><time>2026-04-12T08:34:13.16Z</time></trkpt><trkpt lat="45.6472948" lon="8.5077403"><ele>270.6</ele><time>2026-04-12T08:34:14.163Z</time></trkpt><trkpt lat="45.6473635" lon="8.507727"><ele>271.2</ele><time>2026-04-12T08:34:15.17Z</time></trkpt><trkpt lat="45.647437" lon="8.5077395"><ele>271.8</ele><time>2026-04-12T08:34:16.165Z</time></trkpt><trkpt lat="45.6475161" lon="8.5077421"><ele>272.4</ele><time>2026-04-12T08:34:17.183Z</time></trkpt><trkpt lat="45.6476467" lon="8.5077558"><ele>273.0</ele><time>2026-04-12T08:34:19.165Z</time></trkpt><trkpt lat="45.6477818" lon="8.5077636"><ele>273.0</ele><time>2026-04-12T08:34:21.171Z</time></trkpt><trkpt lat="45.6478584" lon="8.5077607"><ele>273.0</ele><time>2026-04-12T08:34:22.171Z</time></trkpt><trkpt lat="45.6479342" lon="8.5077783"><ele>273.0</ele><time>2026-04-12T08:34:23.164Z</time></trkpt><trkpt lat="45.6480141" lon="8.5077765"><ele>273.0</ele><time>2026-04-12T08:34:24.208Z</time></trkpt><trkpt lat="45.6480867" lon="8.5077808"><ele>273.0</ele><time>2026-04-12T08:34:25.167Z</time></trkpt><trkpt lat="45.648164" lon="8.5077813"><ele>273.0</ele><time>2026-04-12T08:34:26.17Z</time></trkpt><trkpt lat="45.6482325" lon="8.5077688"><ele>273.0</ele><time>2026-04-12T08:34:27.17Z</time></trkpt><trkpt lat="45.6483094" lon="8.5077961"><ele>273.0</ele><time>2026-04-12T08:34:28.166Z</time></trkpt><trkpt lat="45.648375" lon="8.5078305"><ele>273.0</ele><time>2026-04-12T08:34:29.176Z</time></trkpt><trkpt lat="45.6484361" lon="8.507882"><ele>273.0</ele><time>2026-04-12T08:34:30.161Z</time></trkpt><trkpt lat="45.6484715" lon="8.507983"><ele>273.0</ele><time>2026-04-12T08:34:31.171Z</time></trkpt><trkpt lat="45.6485093" lon="8.5080699"><ele>273.0</ele><time>2026-04-12T08:34:32.207Z</time></trkpt><trkpt lat="45.6485453" lon="8.5081461"><ele>273.0</ele><time>2026-04-12T08:34:33.169Z</time></trkpt><trkpt lat="45.6486314" lon="8.5082674"><ele>272.3333333333333</ele><time>2026-04-12T08:34:35.168Z</time></trkpt><trkpt lat="45.6487139" lon="8.5083477"><ele>271.6666666666667</ele><time>2026-04-12T08:34:37.187Z</time></trkpt><trkpt lat="45.648785" lon="8.5084004"><ele>271.0</ele><time>2026-04-12T08:34:39.206Z</time></trkpt><trkpt lat="45.6488544" lon="8.508432"><ele>270.33333333333337</ele><time>2026-04-12T08:34:41.16Z</time></trkpt><trkpt lat="45.6489255" lon="8.508424"><ele>269.6666666666667</ele><time>2026-04-12T08:34:44.176Z</time></trkpt><trkpt lat="45.6489984" lon="8.5084126"><ele>269.0</ele><time>2026-04-12T08:34:48.172Z</time></trkpt><trkpt lat="45.6490759" lon="8.5084005"><ele>269.0</ele><time>2026-04-12T08:34:52.177Z</time></trkpt><trkpt lat="45.6491478" lon="8.5083791"><ele>269.0</ele><time>2026-04-12T08:34:56.168Z</time></trkpt><trkpt lat="45.6492265" lon="8.5083719"><ele>269.0</ele><time>2026-04-12T08:35:00.159Z</time></trkpt><trkpt lat="45.6493018" lon="8.5083983"><ele>269.0</ele><time>2026-04-12T08:35:02.157Z</time></trkpt><trkpt lat="45.6493684" lon="8.5084635"><ele>269.0</ele><time>2026-04-12T08:35:04.191Z</time></trkpt><trkpt lat="45.6494277" lon="8.5085164"><ele>269.0</ele><time>2026-04-12T08:35:06.175Z</time></trkpt><trkpt lat="45.6494894" lon="8.5085671"><ele>268.83333333333337</ele><time>2026-04-12T08:35:08.168Z</time></trkpt><trkpt lat="45.6495609" lon="8.5086312"><ele>268.6666666666667</ele><time>2026-04-12T08:35:10.153Z</time></trkpt><trkpt lat="45.6496314" lon="8.5086382"><ele>268.5</ele><time>2026-04-12T08:35:12.161Z</time></trkpt><trkpt lat="45.6496971" lon="8.5085893"><ele>268.3333333333333</ele><time>2026-04-12T08:35:14.149Z</time></trkpt><trkpt lat="45.6497481" lon="8.5085335"><ele>268.16666666666663</ele><time>2026-04-12T08:35:16.168Z</time></trkpt><trkpt lat="45.6498231" lon="8.5084586"><ele>268.0</ele><time>2026-04-12T08:35:19.175Z</time></trkpt><trkpt lat="45.649897" lon="8.5083889"><ele>268.0</ele><time>2026-04-12T08:35:21.163Z</time></trkpt><trkpt lat="45.6499713" lon="8.5083035"><ele>268.0</ele><time>2026-04-12T08:35:23.17Z</time></trkpt><trkpt lat="45.6500379" lon="8.5082314"><ele>268.0</ele><time>2026-04-12T08:35:25.159Z</time></trkpt><trkpt lat="45.6501276" lon="8.5081486"><ele>268.0</ele><time>2026-04-12T08:35:27.164Z</time></trkpt><trkpt lat="45.6502243" lon="8.5080522"><ele>268.0</ele><time>2026-04-12T08:35:29.169Z</time></trkpt><trkpt lat="45.6503165" lon="8.5079607"><ele>267.75</ele><time>2026-04-12T08:35:31.177Z</time></trkpt><trkpt lat="45.6504145" lon="8.5078599"><ele>267.5</ele><time>2026-04-12T08:35:33.164Z</time></trkpt><trkpt lat="45.6505121" lon="8.5077697"><ele>267.25</ele><time>2026-04-12T08:35:35.161Z</time></trkpt><trkpt lat="45.6506514" lon="8.5076273"><ele>267.0</ele><time>2026-04-12T08:35:38.173Z</time></trkpt><trkpt lat="45.6507476" lon="8.5075344"><ele>267.0</ele><time>2026-04-12T08:35:40.168Z</time></trkpt><trkpt lat="45.6508447" lon="8.5074446"><ele>267.0</ele><time>2026-04-12T08:35:42.165Z</time></trkpt><trkpt lat="45.6509361" lon="8.5073607"><ele>267.0</ele><time>2026-04-12T08:35:44.16Z</time></trkpt><trkpt lat="45.6510056" lon="8.5072883"><ele>267.0</ele><time>2026-04-12T08:35:46.166Z</time></trkpt><trkpt lat="45.651073" lon="8.5072422"><ele>267.0</ele><time>2026-04-12T08:35:48.208Z</time></trkpt><trkpt lat="45.6511369" lon="8.5071855"><ele>267.0</ele><time>2026-04-12T08:35:50.165Z</time></trkpt><trkpt lat="45.6512165" lon="8.5071124"><ele>267.0</ele><time>2026-04-12T08:35:52.176Z</time></trkpt><trkpt lat="45.6513014" lon="8.5070299"><ele>267.0</ele><time>2026-04-12T08:35:54.204Z</time></trkpt><trkpt lat="45.6513966" lon="8.5069439"><ele>267.0</ele><time>2026-04-12T08:35:56.17Z</time></trkpt><trkpt lat="45.6514965" lon="8.5068581"><ele>267.0</ele><time>2026-04-12T08:35:58.162Z</time></trkpt><trkpt lat="45.6515935" lon="8.50677"><ele>267.0</ele><time>2026-04-12T08:36:00.161Z</time></trkpt><trkpt lat="45.6516839" lon="8.5066794"><ele>267.0</ele><time>2026-04-12T08:36:02.202Z</time></trkpt><trkpt lat="45.651739" lon="8.5066346"><ele>267.0</ele><time>2026-04-12T08:36:03.164Z</time></trkpt><trkpt lat="45.6518322" lon="8.5065425"><ele>267.0</ele><time>2026-04-12T08:36:05.166Z</time></trkpt><trkpt lat="45.6519219" lon="8.5064491"><ele>267.0</ele><time>2026-04-12T08:36:07.21Z</time></trkpt><trkpt lat="45.6520068" lon="8.5063562"><ele>267.0</ele><time>2026-04-12T08:36:09.202Z</time></trkpt><trkpt lat="45.6520862" lon="8.5062533"><ele>267.0</ele><time>2026-04-12T08:36:11.168Z</time></trkpt><trkpt lat="45.652169" lon="8.5061398"><ele>267.0</ele><time>2026-04-12T08:36:13.171Z</time></trkpt><trkpt lat="45.6522573" lon="8.5060206"><ele>267.0</ele><time>2026-04-12T08:36:15.164Z</time></trkpt><trkpt lat="45.6523082" lon="8.5059585"><ele>267.0</ele><time>2026-04-12T08:36:16.166Z</time></trkpt><trkpt lat="45.6523604" lon="8.5058977"><ele>267.14285714285717</ele><time>2026-04-12T08:36:17.171Z</time></trkpt><trkpt lat="45.6524118" lon="8.5058344"><ele>267.2857142857143</ele><time>2026-04-12T08:36:18.165Z</time></trkpt><trkpt lat="45.6524626" lon="8.5057738"><ele>267.42857142857144</ele><time>2026-04-12T08:36:19.199Z</time></trkpt><trkpt lat="45.6525179" lon="8.5057125"><ele>267.57142857142856</ele><time>2026-04-12T08:36:20.163Z</time></trkpt><trkpt lat="45.6525739" lon="8.5056532"><ele>267.7142857142857</ele><time>2026-04-12T08:36:21.16Z</time></trkpt><trkpt lat="45.6526333" lon="8.5056047"><ele>267.8571428571429</ele><time>2026-04-12T08:36:22.165Z</time></trkpt><trkpt lat="45.6526973" lon="8.5055613"><ele>268.0</ele><time>2026-04-12T08:36:23.169Z</time></trkpt><trkpt lat="45.6527608" lon="8.5055168"><ele>268.0</ele><time>2026-04-12T08:36:24.163Z</time></trkpt><trkpt lat="45.6528221" lon="8.5054713"><ele>268.0</ele><time>2026-04-12T08:36:25.154Z</time></trkpt><trkpt lat="45.6528855" lon="8.5054286"><ele>268.0</ele><time>2026-04-12T08:36:26.171Z</time></trkpt><trkpt lat="45.6529486" lon="8.5053866"><ele>268.0</ele><time>2026-04-12T08:36:27.189Z</time></trkpt><trkpt lat="45.6530103" lon="8.5053442"><ele>268.0</ele><time>2026-04-12T08:36:28.175Z</time></trkpt><trkpt lat="45.6530689" lon="8.5052983"><ele>268.0</ele><time>2026-04-12T08:36:29.208Z</time></trkpt><trkpt lat="45.6531277" lon="8.5052571"><ele>268.0</ele><time>2026-04-12T08:36:30.161Z</time></trkpt><trkpt lat="45.6531866" lon="8.5052138"><ele>268.2</ele><time>2026-04-12T08:36:31.172Z</time></trkpt><trkpt lat="45.6532812" lon="8.5051265"><ele>268.4</ele><time>2026-04-12T08:36:33.168Z</time></trkpt><trkpt lat="45.6533513" lon="8.5050601"><ele>268.59999999999997</ele><time>2026-04-12T08:36:35.166Z</time></trkpt><trkpt lat="45.653364" lon="8.504959"><ele>268.8</ele><time>2026-04-12T08:38:28.164Z</time></trkpt><trkpt lat="45.6534401" lon="8.504767"><ele>269.0</ele><time>2026-04-12T08:38:30.161Z</time></trkpt><trkpt lat="45.6535255" lon="8.5046073"><ele>269.0</ele><time>2026-04-12T08:38:31.166Z</time></trkpt><trkpt lat="45.6536251" lon="8.5044228"><ele>269.0</ele><time>2026-04-12T08:38:32.164Z</time></trkpt><trkpt lat="45.6537384" lon="8.5042244"><ele>269.0</ele><time>2026-04-12T08:38:33.158Z</time></trkpt><trkpt lat="45.6538323" lon="8.5040097"><ele>269.0</ele><time>2026-04-12T08:38:34.17Z</time></trkpt><trkpt lat="45.6539136" lon="8.503817"><ele>269.0</ele><time>2026-04-12T08:38:35.175Z</time></trkpt><trkpt lat="45.6539554" lon="8.5036411"><ele>269.0</ele><time>2026-04-12T08:38:36.167Z</time></trkpt><trkpt lat="45.6539872" lon="8.5034235"><ele>269.0</ele><time>2026-04-12T08:38:37.165Z</time></trkpt><trkpt lat="45.6539866" lon="8.5031934"><ele>269.6666666666667</ele><time>2026-04-12T08:38:38.163Z</time></trkpt><trkpt lat="45.6539606" lon="8.5028929"><ele>270.3333333333333</ele><time>2026-04-12T08:38:39.168Z</time></trkpt><trkpt lat="45.6539426" lon="8.5026527"><ele>271.0</ele><time>2026-04-12T08:38:40.167Z</time></trkpt><trkpt lat="45.6539296" lon="8.5024736"><ele>271.0</ele><time>2026-04-12T08:38:41.166Z</time></trkpt><trkpt lat="45.6539292" lon="8.5023198"><ele>271.0</ele><time>2026-04-12T08:38:42.201Z</time></trkpt><trkpt lat="45.6539601" lon="8.5021754"><ele>271.0</ele><time>2026-04-12T08:38:43.203Z</time></trkpt><trkpt lat="45.654022" lon="8.5020301"><ele>271.0</ele><time>2026-04-12T08:38:44.207Z</time></trkpt><trkpt lat="45.6541085" lon="8.5018871"><ele>271.0</ele><time>2026-04-12T08:38:45.17Z</time></trkpt><trkpt lat="45.6542539" lon="8.5017184"><ele>271.0</ele><time>2026-04-12T08:38:46.172Z</time></trkpt><trkpt lat="45.6544134" lon="8.5015538"><ele>271.0</ele><time>2026-04-12T08:38:47.196Z</time></trkpt><trkpt lat="45.6545692" lon="8.501377"><ele>271.0</ele><time>2026-04-12T08:38:48.171Z</time></trkpt><trkpt lat="45.6547329" lon="8.5011849"><ele>271.0</ele><time>2026-04-12T08:38:49.205Z</time></trkpt><trkpt lat="45.6549074" lon="8.5010118"><ele>271.0</ele><time>2026-04-12T08:38:50.166Z</time></trkpt><trkpt lat="45.6550863" lon="8.5008714"><ele>271.0</ele><time>2026-04-12T08:38:51.164Z</time></trkpt><trkpt lat="45.6552651" lon="8.5007532"><ele>271.0</ele><time>2026-04-12T08:38:52.17Z</time></trkpt><trkpt lat="45.6554458" lon="8.5006434"><ele>271.0</ele><time>2026-04-12T08:38:53.169Z</time></trkpt><trkpt lat="45.6556348" lon="8.5005513"><ele>271.0</ele><time>2026-04-12T08:38:54.164Z</time></trkpt><trkpt lat="45.6558223" lon="8.5004813"><ele>271.0</ele><time>2026-04-12T08:38:55.166Z</time></trkpt><trkpt lat="45.6560142" lon="8.5004196"><ele>271.0</ele><time>2026-04-12T08:38:56.168Z</time></trkpt><trkpt lat="45.6562017" lon="8.5003347"><ele>271.0</ele><time>2026-04-12T08:38:57.17Z</time></trkpt><trkpt lat="45.6563902" lon="8.5002518"><ele>271.0</ele><time>2026-04-12T08:38:58.209Z</time></trkpt><trkpt lat="45.6565723" lon="8.5001677"><ele>271.0</ele><time>2026-04-12T08:38:59.166Z</time></trkpt><trkpt lat="45.656756" lon="8.5000877"><ele>271.0</ele><time>2026-04-12T08:39:00.167Z</time></trkpt><trkpt lat="45.6569343" lon="8.5000056"><ele>271.0</ele><time>2026-04-12T08:39:01.165Z</time></trkpt><trkpt lat="45.6571171" lon="8.4998995"><ele>271.0</ele><time>2026-04-12T08:39:02.18Z</time></trkpt><trkpt lat="45.6573262" lon="8.499686"><ele>272.0</ele><time>2026-04-12T08:39:03.183Z</time></trkpt><trkpt lat="45.6575444" lon="8.4995038"><ele>273.0</ele><time>2026-04-12T08:39:04.168Z</time></trkpt><trkpt lat="45.6577912" lon="8.4992019"><ele>273.0</ele><time>2026-04-12T08:39:05.166Z</time></trkpt><trkpt lat="45.6580487" lon="8.4989296"><ele>273.0</ele><time>2026-04-12T08:39:06.173Z</time></trkpt><trkpt lat="45.6582948" lon="8.4986633"><ele>273.0</ele><time>2026-04-12T08:39:07.175Z</time></trkpt><trkpt lat="45.6585225" lon="8.4984189"><ele>273.0</ele><time>2026-04-12T08:39:08.171Z</time></trkpt><trkpt lat="45.6587372" lon="8.4981844"><ele>273.5</ele><time>2026-04-12T08:39:09.163Z</time></trkpt><trkpt lat="45.658934" lon="8.4979659"><ele>274.0</ele><time>2026-04-12T08:39:10.171Z</time></trkpt><trkpt lat="45.6591185" lon="8.4977588"><ele>274.0</ele><time>2026-04-12T08:39:11.17Z</time></trkpt><trkpt lat="45.6592807" lon="8.4975725"><ele>274.0</ele><time>2026-04-12T08:39:12.168Z</time></trkpt><trkpt lat="45.6594379" lon="8.4974026"><ele>274.0</ele><time>2026-04-12T08:39:13.204Z</time></trkpt><trkpt lat="45.6595886" lon="8.4972486"><ele>274.0</ele><time>2026-04-12T08:39:14.206Z</time></trkpt><trkpt lat="45.6597413" lon="8.4971267"><ele>274.0</ele><time>2026-04-12T08:39:15.178Z</time></trkpt><trkpt lat="45.6598932" lon="8.4970294"><ele>274.0</ele><time>2026-04-12T08:39:16.17Z</time></trkpt><trkpt lat="45.6600421" lon="8.4969383"><ele>274.0</ele><time>2026-04-12T08:39:17.172Z</time></trkpt><trkpt lat="45.6601904" lon="8.4968427"><ele>274.0</ele><time>2026-04-12T08:39:18.165Z</time></trkpt><trkpt lat="45.6603971" lon="8.4966779"><ele>274.0</ele><time>2026-04-12T08:39:20.16Z</time></trkpt><trkpt lat="45.660431" lon="8.4965696"><ele>274.0</ele><time>2026-04-12T08:39:21.171Z</time></trkpt><trkpt lat="45.6604442" lon="8.4964552"><ele>274.0</ele><time>2026-04-12T08:39:22.182Z</time></trkpt><trkpt lat="45.6604227" lon="8.496339"><ele>274.0</ele><time>2026-04-12T08:39:23.201Z</time></trkpt><trkpt lat="45.6603786" lon="8.4961813"><ele>274.0</ele><time>2026-04-12T08:39:24.204Z</time></trkpt><trkpt lat="45.6603266" lon="8.4959897"><ele>274.0</ele><time>2026-04-12T08:39:25.172Z</time></trkpt><trkpt lat="45.6602859" lon="8.4958104"><ele>274.5</ele><time>2026-04-12T08:39:26.172Z</time></trkpt><trkpt lat="45.6602439" lon="8.4956327"><ele>275.0</ele><time>2026-04-12T08:39:27.168Z</time></trkpt><trkpt lat="45.6602005" lon="8.4954623"><ele>275.5</ele><time>2026-04-12T08:39:28.168Z</time></trkpt><trkpt lat="45.6601676" lon="8.4953028"><ele>276.0</ele><time>2026-04-12T08:39:29.208Z</time></trkpt><trkpt lat="45.6601481" lon="8.4951448"><ele>276.0</ele><time>2026-04-12T08:39:30.164Z</time></trkpt><trkpt lat="45.6601265" lon="8.494982"><ele>276.0</ele><time>2026-04-12T08:39:31.166Z</time></trkpt><trkpt lat="45.6601091" lon="8.4948331"><ele>276.0</ele><time>2026-04-12T08:39:32.169Z</time></trkpt><trkpt lat="45.6600943" lon="8.4946816"><ele>276.0</ele><time>2026-04-12T08:39:33.181Z</time></trkpt><trkpt lat="45.660078" lon="8.494527"><ele>276.0</ele><time>2026-04-12T08:39:34.168Z</time></trkpt><trkpt lat="45.6600564" lon="8.4943741"><ele>276.0</ele><time>2026-04-12T08:39:35.172Z</time></trkpt><trkpt lat="45.6600365" lon="8.4942303"><ele>276.0</ele><time>2026-04-12T08:39:36.175Z</time></trkpt><trkpt lat="45.6600249" lon="8.4941"><ele>276.0</ele><time>2026-04-12T08:39:37.157Z</time></trkpt><trkpt lat="45.660035" lon="8.4939818"><ele>276.0</ele><time>2026-04-12T08:39:38.17Z</time></trkpt><trkpt lat="45.6600639" lon="8.4938683"><ele>276.0</ele><time>2026-04-12T08:39:39.178Z</time></trkpt><trkpt lat="45.6601163" lon="8.4937717"><ele>276.0</ele><time>2026-04-12T08:39:40.167Z</time></trkpt><trkpt lat="45.6601764" lon="8.4937127"><ele>276.0</ele><time>2026-04-12T08:39:41.172Z</time></trkpt><trkpt lat="45.6602634" lon="8.4936571"><ele>276.0</ele><time>2026-04-12T08:39:42.174Z</time></trkpt><trkpt lat="45.6603638" lon="8.4936159"><ele>276.0</ele><time>2026-04-12T08:39:43.171Z</time></trkpt><trkpt lat="45.660475" lon="8.493582"><ele>276.0</ele><time>2026-04-12T08:39:44.167Z</time></trkpt><trkpt lat="45.6605974" lon="8.4935281"><ele>276.0</ele><time>2026-04-12T08:39:45.155Z</time></trkpt><trkpt lat="45.6607467" lon="8.4934783"><ele>276.0</ele><time>2026-04-12T08:39:46.174Z</time></trkpt><trkpt lat="45.660891" lon="8.4934382"><ele>276.0</ele><time>2026-04-12T08:39:47.208Z</time></trkpt><trkpt lat="45.6610506" lon="8.4933881"><ele>276.0</ele><time>2026-04-12T08:39:48.166Z</time></trkpt><trkpt lat="45.6612336" lon="8.4933136"><ele>275.5</ele><time>2026-04-12T08:39:49.159Z</time></trkpt><trkpt lat="45.6614565" lon="8.4932316"><ele>275.0</ele><time>2026-04-12T08:39:50.164Z</time></trkpt><trkpt lat="45.6616903" lon="8.4931757"><ele>275.0</ele><time>2026-04-12T08:39:51.171Z</time></trkpt><trkpt lat="45.6619431" lon="8.4931122"><ele>275.0</ele><time>2026-04-12T08:39:52.177Z</time></trkpt><trkpt lat="45.6622144" lon="8.4930298"><ele>276.5</ele><time>2026-04-12T08:39:53.166Z</time></trkpt><trkpt lat="45.6624851" lon="8.4929451"><ele>278.0</ele><time>2026-04-12T08:39:54.203Z</time></trkpt><trkpt lat="45.6627569" lon="8.4928613"><ele>279.5</ele><time>2026-04-12T08:39:55.168Z</time></trkpt><trkpt lat="45.6630127" lon="8.4927825"><ele>281.0</ele><time>2026-04-12T08:39:56.163Z</time></trkpt><trkpt lat="45.663254" lon="8.4927058"><ele>281.0</ele><time>2026-04-12T08:39:57.174Z</time></trkpt><trkpt lat="45.6634946" lon="8.4926067"><ele>281.0</ele><time>2026-04-12T08:39:58.167Z</time></trkpt><trkpt lat="45.6637351" lon="8.492484"><ele>280.5</ele><time>2026-04-12T08:39:59.206Z</time></trkpt><trkpt lat="45.6639661" lon="8.492327"><ele>280.0</ele><time>2026-04-12T08:40:00.167Z</time></trkpt><trkpt lat="45.6641868" lon="8.4921518"><ele>279.5</ele><time>2026-04-12T08:40:01.164Z</time></trkpt><trkpt lat="45.664403" lon="8.491991"><ele>279.0</ele><time>2026-04-12T08:40:02.16Z</time></trkpt><trkpt lat="45.6646047" lon="8.4918396"><ele>279.6666666666667</ele><time>2026-04-12T08:40:03.163Z</time></trkpt><trkpt lat="45.6647956" lon="8.4916937"><ele>280.33333333333337</ele><time>2026-04-12T08:40:04.162Z</time></trkpt><trkpt lat="45.6649891" lon="8.4915527"><ele>281.0</ele><time>2026-04-12T08:40:05.168Z</time></trkpt><trkpt lat="45.6651914" lon="8.4914192"><ele>280.6666666666667</ele><time>2026-04-12T08:40:06.175Z</time></trkpt><trkpt lat="45.665398" lon="8.491301"><ele>280.3333333333333</ele><time>2026-04-12T08:40:07.172Z</time></trkpt><trkpt lat="45.6656094" lon="8.4911998"><ele>280.0</ele><time>2026-04-12T08:40:08.162Z</time></trkpt><trkpt lat="45.6658265" lon="8.4911168"><ele>280.0</ele><time>2026-04-12T08:40:09.165Z</time></trkpt><trkpt lat="45.6660471" lon="8.4910532"><ele>280.0</ele><time>2026-04-12T08:40:10.176Z</time></trkpt><trkpt lat="45.6662636" lon="8.4909936"><ele>280.0</ele><time>2026-04-12T08:40:11.164Z</time></trkpt><trkpt lat="45.6664793" lon="8.4909363"><ele>280.66666666666663</ele><time>2026-04-12T08:40:12.203Z</time></trkpt><trkpt lat="45.6666928" lon="8.4908697"><ele>281.3333333333333</ele><time>2026-04-12T08:40:13.21Z</time></trkpt><trkpt lat="45.666901" lon="8.4908141"><ele>282.0</ele><time>2026-04-12T08:40:14.204Z</time></trkpt><trkpt lat="45.6671099" lon="8.4907528"><ele>282.6666666666667</ele><time>2026-04-12T08:40:15.173Z</time></trkpt><trkpt lat="45.6673204" lon="8.4906977"><ele>283.33333333333337</ele><time>2026-04-12T08:40:16.167Z</time></trkpt><trkpt lat="45.6675383" lon="8.4906364"><ele>284.0</ele><time>2026-04-12T08:40:17.213Z</time></trkpt><trkpt lat="45.6677534" lon="8.49057"><ele>283.33333333333337</ele><time>2026-04-12T08:40:18.19Z</time></trkpt><trkpt lat="45.6679649" lon="8.4904827"><ele>282.6666666666667</ele><time>2026-04-12T08:40:19.168Z</time></trkpt><trkpt lat="45.6681745" lon="8.490391"><ele>282.0</ele><time>2026-04-12T08:40:20.168Z</time></trkpt><trkpt lat="45.6683849" lon="8.4902999"><ele>282.0</ele><time>2026-04-12T08:40:21.162Z</time></trkpt><trkpt lat="45.6685905" lon="8.4902042"><ele>282.0</ele><time>2026-04-12T08:40:22.166Z</time></trkpt><trkpt lat="45.6687951" lon="8.4901046"><ele>282.0</ele><time>2026-04-12T08:40:23.207Z</time></trkpt><trkpt lat="45.6690045" lon="8.4900055"><ele>282.3333333333333</ele><time>2026-04-12T08:40:24.171Z</time></trkpt><trkpt lat="45.6692113" lon="8.4898992"><ele>282.66666666666663</ele><time>2026-04-12T08:40:25.165Z</time></trkpt><trkpt lat="45.6694243" lon="8.4897778"><ele>283.0</ele><time>2026-04-12T08:40:26.166Z</time></trkpt><trkpt lat="45.6696375" lon="8.4896612"><ele>283.0</ele><time>2026-04-12T08:40:27.172Z</time></trkpt><trkpt lat="45.6698451" lon="8.4895333"><ele>283.0</ele><time>2026-04-12T08:40:28.161Z</time></trkpt><trkpt lat="45.6700521" lon="8.489408"><ele>283.0</ele><time>2026-04-12T08:40:29.214Z</time></trkpt><trkpt lat="45.6702561" lon="8.4892809"><ele>283.0</ele><time>2026-04-12T08:40:30.175Z</time></trkpt><trkpt lat="45.6704431" lon="8.4891617"><ele>283.0</ele><time>2026-04-12T08:40:31.162Z</time></trkpt><trkpt lat="45.6706204" lon="8.4890489"><ele>283.3333333333333</ele><time>2026-04-12T08:40:32.172Z</time></trkpt><trkpt lat="45.6707828" lon="8.488937"><ele>283.6666666666667</ele><time>2026-04-12T08:40:33.2Z</time></trkpt><trkpt lat="45.6709386" lon="8.4888303"><ele>284.0</ele><time>2026-04-12T08:40:34.169Z</time></trkpt><trkpt lat="45.6710911" lon="8.4887327"><ele>284.6666666666667</ele><time>2026-04-12T08:40:35.173Z</time></trkpt><trkpt lat="45.6712366" lon="8.4886373"><ele>285.3333333333333</ele><time>2026-04-12T08:40:36.164Z</time></trkpt><trkpt lat="45.6713803" lon="8.4885484"><ele>286.0</ele><time>2026-04-12T08:40:37.173Z</time></trkpt><trkpt lat="45.6715149" lon="8.4884628"><ele>286.0</ele><time>2026-04-12T08:40:38.214Z</time></trkpt><trkpt lat="45.6716458" lon="8.4883696"><ele>286.0</ele><time>2026-04-12T08:40:39.172Z</time></trkpt><trkpt lat="45.6717693" lon="8.4882676"><ele>286.0</ele><time>2026-04-12T08:40:40.17Z</time></trkpt><trkpt lat="45.671879" lon="8.4881516"><ele>286.0</ele><time>2026-04-12T08:40:41.173Z</time></trkpt><trkpt lat="45.6719684" lon="8.4880131"><ele>286.0</ele><time>2026-04-12T08:40:42.169Z</time></trkpt><trkpt lat="45.6720435" lon="8.4878691"><ele>286.0</ele><time>2026-04-12T08:40:43.171Z</time></trkpt><trkpt lat="45.6720998" lon="8.4876981"><ele>286.0</ele><time>2026-04-12T08:40:44.17Z</time></trkpt><trkpt lat="45.6721463" lon="8.4875309"><ele>286.0</ele><time>2026-04-12T08:40:45.164Z</time></trkpt><trkpt lat="45.6721892" lon="8.4873605"><ele>286.0</ele><time>2026-04-12T08:40:46.16Z</time></trkpt><trkpt lat="45.6722552" lon="8.4871835"><ele>286.0</ele><time>2026-04-12T08:40:47.171Z</time></trkpt><trkpt lat="45.6723458" lon="8.4870024"><ele>286.0</ele><time>2026-04-12T08:40:48.172Z</time></trkpt><trkpt lat="45.6724608" lon="8.486824"><ele>286.3333333333333</ele><time>2026-04-12T08:40:49.191Z</time></trkpt><trkpt lat="45.6726244" lon="8.4866885"><ele>286.6666666666667</ele><time>2026-04-12T08:40:50.163Z</time></trkpt><trkpt lat="45.6728067" lon="8.486566"><ele>287.0</ele><time>2026-04-12T08:40:51.182Z</time></trkpt><trkpt lat="45.6729864" lon="8.4864592"><ele>287.0</ele><time>2026-04-12T08:40:52.197Z</time></trkpt><trkpt lat="45.6731534" lon="8.4863701"><ele>287.0</ele><time>2026-04-12T08:40:53.18Z</time></trkpt><trkpt lat="45.6733115" lon="8.4862806"><ele>287.0</ele><time>2026-04-12T08:40:54.17Z</time></trkpt><trkpt lat="45.6734673" lon="8.4862015"><ele>287.0</ele><time>2026-04-12T08:40:55.167Z</time></trkpt><trkpt lat="45.6736205" lon="8.4861246"><ele>287.0</ele><time>2026-04-12T08:40:56.22Z</time></trkpt><trkpt lat="45.6737675" lon="8.4860401"><ele>287.0</ele><time>2026-04-12T08:40:57.179Z</time></trkpt><trkpt lat="45.6739191" lon="8.4859539"><ele>287.0</ele><time>2026-04-12T08:40:58.207Z</time></trkpt><trkpt lat="45.6740713" lon="8.4858724"><ele>287.0</ele><time>2026-04-12T08:40:59.173Z</time></trkpt><trkpt lat="45.6742102" lon="8.4858001"><ele>287.0</ele><time>2026-04-12T08:41:00.173Z</time></trkpt><trkpt lat="45.6743443" lon="8.4857234"><ele>287.0</ele><time>2026-04-12T08:41:01.168Z</time></trkpt><trkpt lat="45.6744749" lon="8.4856489"><ele>287.0</ele><time>2026-04-12T08:41:02.183Z</time></trkpt><trkpt lat="45.6745981" lon="8.4855735"><ele>287.0</ele><time>2026-04-12T08:41:03.2Z</time></trkpt><trkpt lat="45.674708" lon="8.4855053"><ele>287.0</ele><time>2026-04-12T08:41:04.195Z</time></trkpt><trkpt lat="45.6747984" lon="8.4854252"><ele>287.0</ele><time>2026-04-12T08:41:05.162Z</time></trkpt><trkpt lat="45.674865" lon="8.4853353"><ele>287.0</ele><time>2026-04-12T08:41:06.159Z</time></trkpt><trkpt lat="45.6749167" lon="8.4852437"><ele>287.0</ele><time>2026-04-12T08:41:07.18Z</time></trkpt><trkpt lat="45.6749759" lon="8.48516"><ele>287.0</ele><time>2026-04-12T08:41:08.166Z</time></trkpt><trkpt lat="45.6750473" lon="8.4850994"><ele>287.0</ele><time>2026-04-12T08:41:09.208Z</time></trkpt><trkpt lat="45.6751227" lon="8.485047"><ele>287.0</ele><time>2026-04-12T08:41:10.161Z</time></trkpt><trkpt lat="45.6752228" lon="8.4850078"><ele>287.0</ele><time>2026-04-12T08:41:11.169Z</time></trkpt><trkpt lat="45.6753332" lon="8.4849689"><ele>287.0</ele><time>2026-04-12T08:41:12.205Z</time></trkpt><trkpt lat="45.6754383" lon="8.4849235"><ele>287.0</ele><time>2026-04-12T08:41:13.202Z</time></trkpt><trkpt lat="45.6755316" lon="8.4848719"><ele>287.0</ele><time>2026-04-12T08:41:14.207Z</time></trkpt><trkpt lat="45.6756176" lon="8.4847849"><ele>287.0</ele><time>2026-04-12T08:41:15.168Z</time></trkpt><trkpt lat="45.6756806" lon="8.4846888"><ele>287.0</ele><time>2026-04-12T08:41:16.166Z</time></trkpt><trkpt lat="45.6757526" lon="8.4845795"><ele>287.0</ele><time>2026-04-12T08:41:17.166Z</time></trkpt><trkpt lat="45.6758276" lon="8.4844789"><ele>287.0</ele><time>2026-04-12T08:41:18.163Z</time></trkpt><trkpt lat="45.6759096" lon="8.4843918"><ele>287.0</ele><time>2026-04-12T08:41:19.156Z</time></trkpt><trkpt lat="45.6760039" lon="8.4843165"><ele>287.0</ele><time>2026-04-12T08:41:20.161Z</time></trkpt><trkpt lat="45.6761112" lon="8.484242"><ele>287.25</ele><time>2026-04-12T08:41:21.167Z</time></trkpt><trkpt lat="45.676234" lon="8.4841745"><ele>287.5</ele><time>2026-04-12T08:41:22.21Z</time></trkpt><trkpt lat="45.6763613" lon="8.4841095"><ele>287.75</ele><time>2026-04-12T08:41:23.161Z</time></trkpt><trkpt lat="45.6764987" lon="8.4840444"><ele>288.0</ele><time>2026-04-12T08:41:24.171Z</time></trkpt><trkpt lat="45.6766289" lon="8.4839881"><ele>288.0</ele><time>2026-04-12T08:41:25.165Z</time></trkpt><trkpt lat="45.6767562" lon="8.4839283"><ele>288.0</ele><time>2026-04-12T08:41:26.17Z</time></trkpt><trkpt lat="45.6768826" lon="8.4838724"><ele>288.0</ele><time>2026-04-12T08:41:27.172Z</time></trkpt><trkpt lat="45.6770067" lon="8.4838141"><ele>288.0</ele><time>2026-04-12T08:41:28.167Z</time></trkpt><trkpt lat="45.6771325" lon="8.4837532"><ele>288.25</ele><time>2026-04-12T08:41:29.193Z</time></trkpt><trkpt lat="45.6772577" lon="8.4837"><ele>288.5</ele><time>2026-04-12T08:41:30.165Z</time></trkpt><trkpt lat="45.6773894" lon="8.4836229"><ele>288.75</ele><time>2026-04-12T08:41:31.17Z</time></trkpt><trkpt lat="45.677515" lon="8.4835469"><ele>289.0</ele><time>2026-04-12T08:41:32.18Z</time></trkpt><trkpt lat="45.6776298" lon="8.4834639"><ele>289.0</ele><time>2026-04-12T08:41:33.193Z</time></trkpt><trkpt lat="45.6777534" lon="8.4833759"><ele>289.0</ele><time>2026-04-12T08:41:34.167Z</time></trkpt><trkpt lat="45.6778882" lon="8.4832869"><ele>289.0</ele><time>2026-04-12T08:41:35.179Z</time></trkpt><trkpt lat="45.6780329" lon="8.4831861"><ele>289.0</ele><time>2026-04-12T08:41:36.167Z</time></trkpt><trkpt lat="45.6781831" lon="8.4830761"><ele>289.66666666666663</ele><time>2026-04-12T08:41:37.174Z</time></trkpt><trkpt lat="45.6783433" lon="8.4829687"><ele>290.3333333333333</ele><time>2026-04-12T08:41:38.194Z</time></trkpt><trkpt lat="45.6785006" lon="8.4828669"><ele>291.0</ele><time>2026-04-12T08:41:39.165Z</time></trkpt><trkpt lat="45.6786529" lon="8.4827742"><ele>291.0</ele><time>2026-04-12T08:41:40.169Z</time></trkpt><trkpt lat="45.6787989" lon="8.4826741"><ele>291.0</ele><time>2026-04-12T08:41:41.163Z</time></trkpt><trkpt lat="45.6789418" lon="8.4825728"><ele>291.0</ele><time>2026-04-12T08:41:42.172Z</time></trkpt><trkpt lat="45.6790879" lon="8.482469"><ele>291.0</ele><time>2026-04-12T08:41:43.209Z</time></trkpt><trkpt lat="45.6792322" lon="8.4823654"><ele>291.0</ele><time>2026-04-12T08:41:44.207Z</time></trkpt><trkpt lat="45.6793765" lon="8.4822619"><ele>291.0</ele><time>2026-04-12T08:41:45.16Z</time></trkpt><trkpt lat="45.6795195" lon="8.4821584"><ele>291.3333333333333</ele><time>2026-04-12T08:41:46.165Z</time></trkpt><trkpt lat="45.6796615" lon="8.4820548"><ele>291.66666666666663</ele><time>2026-04-12T08:41:47.189Z</time></trkpt><trkpt lat="45.6798041" lon="8.4819539"><ele>292.0</ele><time>2026-04-12T08:41:48.172Z</time></trkpt><trkpt lat="45.6799475" lon="8.4818527"><ele>292.0</ele><time>2026-04-12T08:41:49.169Z</time></trkpt><trkpt lat="45.6800913" lon="8.4817572"><ele>292.0</ele><time>2026-04-12T08:41:50.163Z</time></trkpt><trkpt lat="45.6802289" lon="8.4816545"><ele>292.0</ele><time>2026-04-12T08:41:51.165Z</time></trkpt><trkpt lat="45.6803689" lon="8.481547"><ele>292.66666666666663</ele><time>2026-04-12T08:41:52.154Z</time></trkpt><trkpt lat="45.6805174" lon="8.4814438"><ele>293.3333333333333</ele><time>2026-04-12T08:41:53.158Z</time></trkpt><trkpt lat="45.6806684" lon="8.4813388"><ele>294.0</ele><time>2026-04-12T08:41:54.17Z</time></trkpt><trkpt lat="45.6808241" lon="8.4812325"><ele>294.0</ele><time>2026-04-12T08:41:55.17Z</time></trkpt><trkpt lat="45.6809815" lon="8.4811192"><ele>294.0</ele><time>2026-04-12T08:41:56.17Z</time></trkpt><trkpt lat="45.6811405" lon="8.4809967"><ele>294.0</ele><time>2026-04-12T08:41:57.175Z</time></trkpt><trkpt lat="45.6813027" lon="8.4808722"><ele>294.0</ele><time>2026-04-12T08:41:58.17Z</time></trkpt><trkpt lat="45.68147" lon="8.4807541"><ele>294.0</ele><time>2026-04-12T08:41:59.203Z</time></trkpt><trkpt lat="45.6816373" lon="8.4806349"><ele>294.0</ele><time>2026-04-12T08:42:00.163Z</time></trkpt><trkpt lat="45.6818042" lon="8.4805177"><ele>294.3333333333333</ele><time>2026-04-12T08:42:01.166Z</time></trkpt><trkpt lat="45.6819639" lon="8.4804027"><ele>294.66666666666663</ele><time>2026-04-12T08:42:02.183Z</time></trkpt><trkpt lat="45.6821259" lon="8.4802873"><ele>295.0</ele><time>2026-04-12T08:42:03.163Z</time></trkpt><trkpt lat="45.6822878" lon="8.4801678"><ele>295.0</ele><time>2026-04-12T08:42:04.18Z</time></trkpt><trkpt lat="45.6824529" lon="8.480048"><ele>295.0</ele><time>2026-04-12T08:42:05.169Z</time></trkpt><trkpt lat="45.6826214" lon="8.4799275"><ele>295.0</ele><time>2026-04-12T08:42:06.166Z</time></trkpt><trkpt lat="45.6827955" lon="8.4798056"><ele>295.0</ele><time>2026-04-12T08:42:07.174Z</time></trkpt><trkpt lat="45.6829649" lon="8.4796881"><ele>295.0</ele><time>2026-04-12T08:42:08.163Z</time></trkpt><trkpt lat="45.6831308" lon="8.4795678"><ele>295.0</ele><time>2026-04-12T08:42:09.177Z</time></trkpt><trkpt lat="45.6832944" lon="8.4794476"><ele>295.3333333333333</ele><time>2026-04-12T08:42:10.167Z</time></trkpt><trkpt lat="45.6834546" lon="8.4793315"><ele>295.6666666666667</ele><time>2026-04-12T08:42:11.166Z</time></trkpt><trkpt lat="45.6836153" lon="8.4792172"><ele>296.0</ele><time>2026-04-12T08:42:12.178Z</time></trkpt><trkpt lat="45.683773" lon="8.4791025"><ele>296.33333333333337</ele><time>2026-04-12T08:42:13.168Z</time></trkpt><trkpt lat="45.6839272" lon="8.4789914"><ele>296.6666666666667</ele><time>2026-04-12T08:42:14.176Z</time></trkpt><trkpt lat="45.6840732" lon="8.4788814"><ele>297.0</ele><time>2026-04-12T08:42:15.168Z</time></trkpt><trkpt lat="45.6842125" lon="8.4787681"><ele>296.6666666666667</ele><time>2026-04-12T08:42:16.17Z</time></trkpt><trkpt lat="45.6843493" lon="8.4786546"><ele>296.33333333333337</ele><time>2026-04-12T08:42:17.159Z</time></trkpt><trkpt lat="45.6844887" lon="8.4785439"><ele>296.0</ele><time>2026-04-12T08:42:18.166Z</time></trkpt><trkpt lat="45.6846218" lon="8.4784355"><ele>296.5</ele><time>2026-04-12T08:42:19.164Z</time></trkpt><trkpt lat="45.684749" lon="8.4783306"><ele>297.0</ele><time>2026-04-12T08:42:20.162Z</time></trkpt><trkpt lat="45.6848751" lon="8.4782234"><ele>297.5</ele><time>2026-04-12T08:42:21.207Z</time></trkpt><trkpt lat="45.6849943" lon="8.4781212"><ele>298.0</ele><time>2026-04-12T08:42:22.204Z</time></trkpt><trkpt lat="45.6851095" lon="8.4780255"><ele>298.25</ele><time>2026-04-12T08:42:23.153Z</time></trkpt><trkpt lat="45.6852161" lon="8.477935"><ele>298.5</ele><time>2026-04-12T08:42:24.17Z</time></trkpt><trkpt lat="45.6853206" lon="8.4778427"><ele>298.75</ele><time>2026-04-12T08:42:25.16Z</time></trkpt><trkpt lat="45.6854153" lon="8.4777619"><ele>299.0</ele><time>2026-04-12T08:42:26.17Z</time></trkpt><trkpt lat="45.6854987" lon="8.4776843"><ele>299.0</ele><time>2026-04-12T08:42:27.187Z</time></trkpt><trkpt lat="45.6855733" lon="8.4776228"><ele>299.0</ele><time>2026-04-12T08:42:28.197Z</time></trkpt><trkpt lat="45.6856569" lon="8.4775466"><ele>299.0</ele><time>2026-04-12T08:42:29.16Z</time></trkpt><trkpt lat="45.6857523" lon="8.47746"><ele>299.0</ele><time>2026-04-12T08:42:30.165Z</time></trkpt><trkpt lat="45.6858575" lon="8.4773753"><ele>299.0</ele><time>2026-04-12T08:42:31.169Z</time></trkpt><trkpt lat="45.6859651" lon="8.4772814"><ele>299.0</ele><time>2026-04-12T08:42:32.201Z</time></trkpt><trkpt lat="45.6860846" lon="8.4771791"><ele>299.0</ele><time>2026-04-12T08:42:33.169Z</time></trkpt><trkpt lat="45.6862118" lon="8.477069"><ele>299.0</ele><time>2026-04-12T08:42:34.179Z</time></trkpt><trkpt lat="45.6863525" lon="8.4769451"><ele>299.0</ele><time>2026-04-12T08:42:35.162Z</time></trkpt><trkpt lat="45.6865125" lon="8.4768062"><ele>299.0</ele><time>2026-04-12T08:42:36.163Z</time></trkpt><trkpt lat="45.6866556" lon="8.4766809"><ele>299.0</ele><time>2026-04-12T08:42:37.162Z</time></trkpt><trkpt lat="45.6869124" lon="8.4764616"><ele>299.0</ele><time>2026-04-12T08:42:39.165Z</time></trkpt><trkpt lat="45.6870143" lon="8.476381"><ele>299.0</ele><time>2026-04-12T08:42:40.172Z</time></trkpt><trkpt lat="45.6870962" lon="8.4763118"><ele>299.0</ele><time>2026-04-12T08:42:41.153Z</time></trkpt><trkpt lat="45.6871718" lon="8.4762447"><ele>299.0</ele><time>2026-04-12T08:42:42.165Z</time></trkpt><trkpt lat="45.6872484" lon="8.4761738"><ele>299.0</ele><time>2026-04-12T08:42:43.166Z</time></trkpt><trkpt lat="45.6873398" lon="8.4760949"><ele>299.0</ele><time>2026-04-12T08:42:44.18Z</time></trkpt><trkpt lat="45.6874385" lon="8.4760061"><ele>299.0</ele><time>2026-04-12T08:42:45.158Z</time></trkpt><trkpt lat="45.687556" lon="8.4759068"><ele>299.0</ele><time>2026-04-12T08:42:46.171Z</time></trkpt><trkpt lat="45.6876776" lon="8.4758017"><ele>299.0</ele><time>2026-04-12T08:42:47.174Z</time></trkpt><trkpt lat="45.6878023" lon="8.4756958"><ele>299.25</ele><time>2026-04-12T08:42:48.168Z</time></trkpt><trkpt lat="45.6879198" lon="8.4755925"><ele>299.5</ele><time>2026-04-12T08:42:49.205Z</time></trkpt><trkpt lat="45.6880284" lon="8.4754974"><ele>299.75</ele><time>2026-04-12T08:42:50.168Z</time></trkpt><trkpt lat="45.6881304" lon="8.4754081"><ele>300.0</ele><time>2026-04-12T08:42:51.166Z</time></trkpt><trkpt lat="45.6882255" lon="8.4753258"><ele>300.0</ele><time>2026-04-12T08:42:52.172Z</time></trkpt><trkpt lat="45.6883125" lon="8.4752546"><ele>300.0</ele><time>2026-04-12T08:42:53.196Z</time></trkpt><trkpt lat="45.688392" lon="8.4751866"><ele>300.0</ele><time>2026-04-12T08:42:54.175Z</time></trkpt><trkpt lat="45.6884638" lon="8.4751254"><ele>300.0</ele><time>2026-04-12T08:42:55.162Z</time></trkpt><trkpt lat="45.6885303" lon="8.4750657"><ele>300.0</ele><time>2026-04-12T08:42:56.168Z</time></trkpt><trkpt lat="45.6886028" lon="8.4750068"><ele>300.0</ele><time>2026-04-12T08:42:57.169Z</time></trkpt><trkpt lat="45.688692" lon="8.4749292"><ele>300.5</ele><time>2026-04-12T08:42:58.162Z</time></trkpt><trkpt lat="45.6887888" lon="8.4748416"><ele>301.0</ele><time>2026-04-12T08:42:59.205Z</time></trkpt><trkpt lat="45.6888972" lon="8.4747502"><ele>301.5</ele><time>2026-04-12T08:43:00.168Z</time></trkpt><trkpt lat="45.6890147" lon="8.4746547"><ele>302.0</ele><time>2026-04-12T08:43:01.162Z</time></trkpt><trkpt lat="45.6891213" lon="8.4745613"><ele>302.0</ele><time>2026-04-12T08:43:02.183Z</time></trkpt><trkpt lat="45.6892125" lon="8.474473"><ele>302.0</ele><time>2026-04-12T08:43:03.154Z</time></trkpt><trkpt lat="45.6893024" lon="8.4743935"><ele>302.0</ele><time>2026-04-12T08:43:04.169Z</time></trkpt><trkpt lat="45.6893825" lon="8.474325"><ele>302.0</ele><time>2026-04-12T08:43:05.164Z</time></trkpt><trkpt lat="45.689458" lon="8.4742581"><ele>302.0</ele><time>2026-04-12T08:43:06.172Z</time></trkpt><trkpt lat="45.6895303" lon="8.4741899"><ele>302.5</ele><time>2026-04-12T08:43:07.182Z</time></trkpt><trkpt lat="45.6896153" lon="8.4741135"><ele>303.0</ele><time>2026-04-12T08:43:08.166Z</time></trkpt><trkpt lat="45.6897116" lon="8.4740334"><ele>303.5</ele><time>2026-04-12T08:43:09.205Z</time></trkpt><trkpt lat="45.6898125" lon="8.4739456"><ele>304.0</ele><time>2026-04-12T08:43:10.163Z</time></trkpt><trkpt lat="45.6899183" lon="8.4738567"><ele>303.25</ele><time>2026-04-12T08:43:11.167Z</time></trkpt><trkpt lat="45.6900249" lon="8.4737646"><ele>302.5</ele><time>2026-04-12T08:43:12.163Z</time></trkpt><trkpt lat="45.690127" lon="8.473667"><ele>301.75</ele><time>2026-04-12T08:43:13.16Z</time></trkpt><trkpt lat="45.6902252" lon="8.4735634"><ele>301.0</ele><time>2026-04-12T08:43:14.15Z</time></trkpt><trkpt lat="45.6903182" lon="8.4734403"><ele>301.0</ele><time>2026-04-12T08:43:15.153Z</time></trkpt><trkpt lat="45.6904074" lon="8.4733139"><ele>301.0</ele><time>2026-04-12T08:43:16.156Z</time></trkpt><trkpt lat="45.6904946" lon="8.4731859"><ele>301.0</ele><time>2026-04-12T08:43:17.154Z</time></trkpt><trkpt lat="45.6905852" lon="8.4730599"><ele>301.0</ele><time>2026-04-12T08:43:18.146Z</time></trkpt><trkpt lat="45.6906633" lon="8.4729396"><ele>301.0</ele><time>2026-04-12T08:43:19.157Z</time></trkpt><trkpt lat="45.6907425" lon="8.4728267"><ele>301.0</ele><time>2026-04-12T08:43:20.156Z</time></trkpt><trkpt lat="45.69081" lon="8.4727259"><ele>301.0</ele><time>2026-04-12T08:43:21.153Z</time></trkpt><trkpt lat="45.6908748" lon="8.4726308"><ele>301.0</ele><time>2026-04-12T08:43:22.159Z</time></trkpt><trkpt lat="45.6909348" lon="8.4725445"><ele>301.0</ele><time>2026-04-12T08:43:23.162Z</time></trkpt><trkpt lat="45.6909943" lon="8.4724567"><ele>301.0</ele><time>2026-04-12T08:43:24.163Z</time></trkpt><trkpt lat="45.6910651" lon="8.4723468"><ele>301.0</ele><time>2026-04-12T08:43:25.164Z</time></trkpt><trkpt lat="45.6911362" lon="8.4722396"><ele>301.0</ele><time>2026-04-12T08:43:26.166Z</time></trkpt><trkpt lat="45.6912185" lon="8.4721215"><ele>301.0</ele><time>2026-04-12T08:43:27.165Z</time></trkpt><trkpt lat="45.6913079" lon="8.4719925"><ele>301.0</ele><time>2026-04-12T08:43:28.163Z</time></trkpt><trkpt lat="45.6913968" lon="8.4718628"><ele>301.0</ele><time>2026-04-12T08:43:29.169Z</time></trkpt><trkpt lat="45.6914859" lon="8.4717277"><ele>301.0</ele><time>2026-04-12T08:43:30.168Z</time></trkpt><trkpt lat="45.6915724" lon="8.471598"><ele>301.0</ele><time>2026-04-12T08:43:31.168Z</time></trkpt><trkpt lat="45.6916563" lon="8.4714927"><ele>301.0</ele><time>2026-04-12T08:43:32.168Z</time></trkpt><trkpt lat="45.691733" lon="8.4713794"><ele>301.0</ele><time>2026-04-12T08:43:33.202Z</time></trkpt><trkpt lat="45.6918023" lon="8.4712654"><ele>301.0</ele><time>2026-04-12T08:43:34.166Z</time></trkpt><trkpt lat="45.6918605" lon="8.471178"><ele>301.0</ele><time>2026-04-12T08:43:35.161Z</time></trkpt><trkpt lat="45.6919243" lon="8.4710984"><ele>301.0</ele><time>2026-04-12T08:43:36.171Z</time></trkpt><trkpt lat="45.6919825" lon="8.4710329"><ele>301.16666666666663</ele><time>2026-04-12T08:43:37.199Z</time></trkpt><trkpt lat="45.6920363" lon="8.4709623"><ele>301.3333333333333</ele><time>2026-04-12T08:43:38.167Z</time></trkpt><trkpt lat="45.6920895" lon="8.470892"><ele>301.5</ele><time>2026-04-12T08:43:39.205Z</time></trkpt><trkpt lat="45.6921384" lon="8.470812"><ele>301.6666666666667</ele><time>2026-04-12T08:43:40.172Z</time></trkpt><trkpt lat="45.6921815" lon="8.4707458"><ele>301.83333333333337</ele><time>2026-04-12T08:43:41.161Z</time></trkpt><trkpt lat="45.6922416" lon="8.4706378"><ele>302.0</ele><time>2026-04-12T08:43:43.197Z</time></trkpt><trkpt lat="45.6922845" lon="8.4705449"><ele>302.0</ele><time>2026-04-12T08:43:47.158Z</time></trkpt><trkpt lat="45.692307" lon="8.4704508"><ele>302.0</ele><time>2026-04-12T08:43:51.169Z</time></trkpt><trkpt lat="45.6922377" lon="8.4703608"><ele>302.0</ele><time>2026-04-12T08:43:54.177Z</time></trkpt><trkpt lat="45.692162" lon="8.4704183"><ele>302.0</ele><time>2026-04-12T08:43:57.162Z</time></trkpt><trkpt lat="45.6921269" lon="8.4705093"><ele>302.0</ele><time>2026-04-12T08:43:58.169Z</time></trkpt><trkpt lat="45.6920946" lon="8.4706769"><ele>302.0</ele><time>2026-04-12T08:44:00.168Z</time></trkpt><trkpt lat="45.6920557" lon="8.4708375"><ele>302.0</ele><time>2026-04-12T08:44:02.164Z</time></trkpt><trkpt lat="45.692024" lon="8.4709246"><ele>302.0</ele><time>2026-04-12T08:44:03.169Z</time></trkpt><trkpt lat="45.6919671" lon="8.4709873"><ele>302.0</ele><time>2026-04-12T08:44:04.185Z</time></trkpt><trkpt lat="45.6919155" lon="8.4710446"><ele>302.0</ele><time>2026-04-12T08:44:05.153Z</time></trkpt><trkpt lat="45.6918223" lon="8.4711472"><ele>302.0</ele><time>2026-04-12T08:44:07.151Z</time></trkpt><trkpt lat="45.6917416" lon="8.4712251"><ele>302.0</ele><time>2026-04-12T08:44:09.167Z</time></trkpt><trkpt lat="45.6916799" lon="8.4713026"><ele>301.0</ele><time>2026-04-12T08:44:12.161Z</time></trkpt><trkpt lat="45.691614" lon="8.4713414"><ele>301.0</ele><time>2026-04-12T08:44:18.167Z</time></trkpt><trkpt lat="45.6915289" lon="8.4714389"><ele>301.0</ele><time>2026-04-12T08:44:44.166Z</time></trkpt><trkpt lat="45.6914884" lon="8.4715155"><ele>301.0</ele><time>2026-04-12T08:44:51.155Z</time></trkpt></trkseg><trkseg><trkpt lat="45.691732" lon="8.471361"><ele>301.0</ele><time>2026-04-12T09:07:28.165Z</time></trkpt><trkpt lat="45.6917882" lon="8.4712913"><ele>301.0</ele><time>2026-04-12T09:07:29.16Z</time></trkpt><trkpt lat="45.6918367" lon="8.4712234"><ele>301.0</ele><time>2026-04-12T09:07:30.153Z</time></trkpt><trkpt lat="45.6919173" lon="8.4711122"><ele>301.0</ele><time>2026-04-12T09:07:32.167Z</time></trkpt><trkpt lat="45.6919882" lon="8.4709978"><ele>301.0</ele><time>2026-04-12T09:07:34.178Z</time></trkpt><trkpt lat="45.6920654" lon="8.4708767"><ele>301.2</ele><time>2026-04-12T09:07:36.176Z</time></trkpt><trkpt lat="45.6921448" lon="8.4707742"><ele>301.40000000000003</ele><time>2026-04-12T09:07:38.171Z</time></trkpt><trkpt lat="45.6922437" lon="8.4706488"><ele>301.6</ele><time>2026-04-12T09:07:40.165Z</time></trkpt><trkpt lat="45.6922982" lon="8.4705776"><ele>301.8</ele><time>2026-04-12T09:07:41.17Z</time></trkpt><trkpt lat="45.692353" lon="8.4705015"><ele>302.0</ele><time>2026-04-12T09:07:42.169Z</time></trkpt><trkpt lat="45.692408" lon="8.47042"><ele>302.0</ele><time>2026-04-12T09:07:43.17Z</time></trkpt><trkpt lat="45.6924621" lon="8.4703464"><ele>302.0</ele><time>2026-04-12T09:07:44.171Z</time></trkpt><trkpt lat="45.692519" lon="8.4702682"><ele>302.0</ele><time>2026-04-12T09:07:45.166Z</time></trkpt><trkpt lat="45.6925772" lon="8.4701847"><ele>302.0</ele><time>2026-04-12T09:07:46.17Z</time></trkpt><trkpt lat="45.6926346" lon="8.4700995"><ele>302.0</ele><time>2026-04-12T09:07:47.17Z</time></trkpt><trkpt lat="45.6926938" lon="8.4700131"><ele>302.0</ele><time>2026-04-12T09:07:48.17Z</time></trkpt><trkpt lat="45.6927508" lon="8.4699308"><ele>302.28571428571433</ele><time>2026-04-12T09:07:49.178Z</time></trkpt><trkpt lat="45.6928096" lon="8.4698449"><ele>302.57142857142856</ele><time>2026-04-12T09:07:50.174Z</time></trkpt><trkpt lat="45.6928677" lon="8.4697564"><ele>302.8571428571429</ele><time>2026-04-12T09:07:51.186Z</time></trkpt><trkpt lat="45.6929214" lon="8.4696738"><ele>303.14285714285717</ele><time>2026-04-12T09:07:52.178Z</time></trkpt><trkpt lat="45.692967" lon="8.4696024"><ele>303.42857142857144</ele><time>2026-04-12T09:07:53.165Z</time></trkpt><trkpt lat="45.6930142" lon="8.4695388"><ele>303.7142857142857</ele><time>2026-04-12T09:07:54.181Z</time></trkpt><trkpt lat="45.693068" lon="8.4694769"><ele>304.0</ele><time>2026-04-12T09:07:55.181Z</time></trkpt><trkpt lat="45.6931268" lon="8.4694347"><ele>304.0</ele><time>2026-04-12T09:07:56.177Z</time></trkpt><trkpt lat="45.6931816" lon="8.4693863"><ele>304.0</ele><time>2026-04-12T09:07:57.17Z</time></trkpt><trkpt lat="45.6932328" lon="8.4692799"><ele>304.0</ele><time>2026-04-12T09:07:59.181Z</time></trkpt><trkpt lat="45.6931937" lon="8.4691595"><ele>304.0</ele><time>2026-04-12T09:08:01.185Z</time></trkpt><trkpt lat="45.6931179" lon="8.4690146"><ele>304.0</ele><time>2026-04-12T09:08:03.181Z</time></trkpt><trkpt lat="45.6930832" lon="8.4689273"><ele>304.0</ele><time>2026-04-12T09:08:04.207Z</time></trkpt><trkpt lat="45.6930537" lon="8.4688436"><ele>304.16666666666663</ele><time>2026-04-12T09:08:05.168Z</time></trkpt><trkpt lat="45.6930204" lon="8.4687579"><ele>304.3333333333333</ele><time>2026-04-12T09:08:06.203Z</time></trkpt><trkpt lat="45.6929812" lon="8.4686784"><ele>304.5</ele><time>2026-04-12T09:08:07.169Z</time></trkpt><trkpt lat="45.6929458" lon="8.4685833"><ele>304.6666666666667</ele><time>2026-04-12T09:08:08.171Z</time></trkpt><trkpt lat="45.6928986" lon="8.4684784"><ele>304.83333333333337</ele><time>2026-04-12T09:08:09.197Z</time></trkpt><trkpt lat="45.6928351" lon="8.468346"><ele>305.0</ele><time>2026-04-12T09:08:10.183Z</time></trkpt><trkpt lat="45.6927685" lon="8.4681976"><ele>305.0</ele><time>2026-04-12T09:08:11.2Z</time></trkpt><trkpt lat="45.6927096" lon="8.4680449"><ele>305.0</ele><time>2026-04-12T09:08:12.164Z</time></trkpt><trkpt lat="45.6926475" lon="8.4679046"><ele>305.0</ele><time>2026-04-12T09:08:13.181Z</time></trkpt><trkpt lat="45.6925818" lon="8.4677496"><ele>305.0</ele><time>2026-04-12T09:08:14.22Z</time></trkpt><trkpt lat="45.6925094" lon="8.4675933"><ele>305.0</ele><time>2026-04-12T09:08:15.173Z</time></trkpt><trkpt lat="45.6924389" lon="8.4674351"><ele>305.0</ele><time>2026-04-12T09:08:16.2Z</time></trkpt><trkpt lat="45.6923585" lon="8.4672809"><ele>305.0</ele><time>2026-04-12T09:08:17.168Z</time></trkpt><trkpt lat="45.6922859" lon="8.4671148"><ele>305.0</ele><time>2026-04-12T09:08:18.173Z</time></trkpt><trkpt lat="45.6922113" lon="8.4669489"><ele>304.75</ele><time>2026-04-12T09:08:19.178Z</time></trkpt><trkpt lat="45.6921403" lon="8.4667881"><ele>304.5</ele><time>2026-04-12T09:08:20.184Z</time></trkpt><trkpt lat="45.6920697" lon="8.4666216"><ele>304.25</ele><time>2026-04-12T09:08:21.175Z</time></trkpt><trkpt lat="45.6919989" lon="8.4664623"><ele>304.0</ele><time>2026-04-12T09:08:22.17Z</time></trkpt><trkpt lat="45.6919272" lon="8.4663084"><ele>303.75</ele><time>2026-04-12T09:08:23.181Z</time></trkpt><trkpt lat="45.6918699" lon="8.4661426"><ele>303.5</ele><time>2026-04-12T09:08:24.211Z</time></trkpt><trkpt lat="45.6918284" lon="8.4659644"><ele>303.25</ele><time>2026-04-12T09:08:25.17Z</time></trkpt><trkpt lat="45.6918049" lon="8.4657983"><ele>303.0</ele><time>2026-04-12T09:08:26.17Z</time></trkpt><trkpt lat="45.6917992" lon="8.4656397"><ele>303.0</ele><time>2026-04-12T09:08:27.171Z</time></trkpt><trkpt lat="45.6918031" lon="8.4654974"><ele>303.0</ele><time>2026-04-12T09:08:28.17Z</time></trkpt><trkpt lat="45.6918161" lon="8.4653644"><ele>303.0</ele><time>2026-04-12T09:08:29.152Z</time></trkpt><trkpt lat="45.6918357" lon="8.4652385"><ele>303.0</ele><time>2026-04-12T09:08:30.169Z</time></trkpt><trkpt lat="45.6918633" lon="8.4651164"><ele>303.0</ele><time>2026-04-12T09:08:31.165Z</time></trkpt><trkpt lat="45.6918924" lon="8.4650065"><ele>303.0</ele><time>2026-04-12T09:08:32.174Z</time></trkpt><trkpt lat="45.6919021" lon="8.4649075"><ele>303.0</ele><time>2026-04-12T09:08:33.172Z</time></trkpt><trkpt lat="45.6918564" lon="8.4647551"><ele>303.0</ele><time>2026-04-12T09:08:35.173Z</time></trkpt><trkpt lat="45.6917363" lon="8.4646881"><ele>303.0</ele><time>2026-04-12T09:08:37.164Z</time></trkpt><trkpt lat="45.6916585" lon="8.4646452"><ele>303.0</ele><time>2026-04-12T09:08:38.168Z</time></trkpt><trkpt lat="45.6915748" lon="8.464583"><ele>303.0</ele><time>2026-04-12T09:08:39.208Z</time></trkpt><trkpt lat="45.6914801" lon="8.4645103"><ele>303.0</ele><time>2026-04-12T09:08:40.172Z</time></trkpt><trkpt lat="45.6913905" lon="8.4644193"><ele>303.0</ele><time>2026-04-12T09:08:41.177Z</time></trkpt><trkpt lat="45.6913018" lon="8.4643153"><ele>303.0</ele><time>2026-04-12T09:08:42.168Z</time></trkpt><trkpt lat="45.6912086" lon="8.4642042"><ele>303.0</ele><time>2026-04-12T09:08:43.168Z</time></trkpt><trkpt lat="45.6911145" lon="8.4640881"><ele>303.0</ele><time>2026-04-12T09:08:44.17Z</time></trkpt><trkpt lat="45.6910146" lon="8.4639669"><ele>303.0</ele><time>2026-04-12T09:08:45.209Z</time></trkpt><trkpt lat="45.6909214" lon="8.4638475"><ele>303.0</ele><time>2026-04-12T09:08:46.17Z</time></trkpt><trkpt lat="45.6908303" lon="8.463727"><ele>302.5</ele><time>2026-04-12T09:08:47.304Z</time></trkpt><trkpt lat="45.6906364" lon="8.4634699"><ele>302.0</ele><time>2026-04-12T09:08:49.172Z</time></trkpt><trkpt lat="45.6904397" lon="8.4632052"><ele>302.0</ele><time>2026-04-12T09:08:51.184Z</time></trkpt><trkpt lat="45.6903455" lon="8.4630679"><ele>302.0</ele><time>2026-04-12T09:08:52.173Z</time></trkpt><trkpt lat="45.6902582" lon="8.4629189"><ele>302.0</ele><time>2026-04-12T09:08:53.17Z</time></trkpt><trkpt lat="45.6901761" lon="8.4627531"><ele>302.0</ele><time>2026-04-12T09:08:54.202Z</time></trkpt><trkpt lat="45.6901015" lon="8.4625702"><ele>301.6666666666667</ele><time>2026-04-12T09:08:55.174Z</time></trkpt><trkpt lat="45.6900343" lon="8.4623719"><ele>301.3333333333333</ele><time>2026-04-12T09:08:56.17Z</time></trkpt><trkpt lat="45.6899788" lon="8.4621609"><ele>301.0</ele><time>2026-04-12T09:08:57.168Z</time></trkpt><trkpt lat="45.6899345" lon="8.4619501"><ele>300.75</ele><time>2026-04-12T09:08:58.172Z</time></trkpt><trkpt lat="45.6899014" lon="8.4617465"><ele>300.5</ele><time>2026-04-12T09:08:59.203Z</time></trkpt><trkpt lat="45.6898749" lon="8.4615451"><ele>300.25</ele><time>2026-04-12T09:09:00.163Z</time></trkpt><trkpt lat="45.6898488" lon="8.46134"><ele>300.0</ele><time>2026-04-12T09:09:01.162Z</time></trkpt><trkpt lat="45.6898252" lon="8.4611319"><ele>300.5</ele><time>2026-04-12T09:09:02.161Z</time></trkpt><trkpt lat="45.6897895" lon="8.4609227"><ele>301.0</ele><time>2026-04-12T09:09:03.168Z</time></trkpt><trkpt lat="45.6897626" lon="8.4607129"><ele>301.5</ele><time>2026-04-12T09:09:04.168Z</time></trkpt><trkpt lat="45.6897333" lon="8.4605038"><ele>302.0</ele><time>2026-04-12T09:09:05.167Z</time></trkpt><trkpt lat="45.6897071" lon="8.4602914"><ele>302.0</ele><time>2026-04-12T09:09:06.169Z</time></trkpt><trkpt lat="45.6896863" lon="8.460083"><ele>302.0</ele><time>2026-04-12T09:09:07.182Z</time></trkpt><trkpt lat="45.6896641" lon="8.4598759"><ele>302.0</ele><time>2026-04-12T09:09:08.17Z</time></trkpt><trkpt lat="45.6896443" lon="8.4596777"><ele>302.0</ele><time>2026-04-12T09:09:09.179Z</time></trkpt><trkpt lat="45.6896209" lon="8.4594917"><ele>302.0</ele><time>2026-04-12T09:09:10.168Z</time></trkpt><trkpt lat="45.6895953" lon="8.4593169"><ele>302.0</ele><time>2026-04-12T09:09:11.172Z</time></trkpt><trkpt lat="45.6895639" lon="8.4591467"><ele>302.0</ele><time>2026-04-12T09:09:12.172Z</time></trkpt><trkpt lat="45.689525" lon="8.4589916"><ele>302.0</ele><time>2026-04-12T09:09:13.171Z</time></trkpt><trkpt lat="45.6894841" lon="8.4588473"><ele>302.0</ele><time>2026-04-12T09:09:14.169Z</time></trkpt><trkpt lat="45.6894448" lon="8.4587059"><ele>302.0</ele><time>2026-04-12T09:09:15.171Z</time></trkpt><trkpt lat="45.689404" lon="8.458568"><ele>302.0</ele><time>2026-04-12T09:09:16.171Z</time></trkpt><trkpt lat="45.6893654" lon="8.4584379"><ele>302.0</ele><time>2026-04-12T09:09:17.169Z</time></trkpt><trkpt lat="45.6893307" lon="8.4583096"><ele>302.0</ele><time>2026-04-12T09:09:18.167Z</time></trkpt><trkpt lat="45.6892988" lon="8.4581874"><ele>302.0</ele><time>2026-04-12T09:09:19.172Z</time></trkpt><trkpt lat="45.6892664" lon="8.4580694"><ele>302.0</ele><time>2026-04-12T09:09:20.176Z</time></trkpt><trkpt lat="45.6892273" lon="8.4579774"><ele>302.0</ele><time>2026-04-12T09:09:21.168Z</time></trkpt><trkpt lat="45.6891912" lon="8.4578878"><ele>302.0</ele><time>2026-04-12T09:09:22.169Z</time></trkpt><trkpt lat="45.689122" lon="8.4577611"><ele>302.0</ele><time>2026-04-12T09:09:24.179Z</time></trkpt><trkpt lat="45.689064" lon="8.4576421"><ele>302.1666666666667</ele><time>2026-04-12T09:09:26.209Z</time></trkpt><trkpt lat="45.6890433" lon="8.4575537"><ele>302.33333333333337</ele><time>2026-04-12T09:09:27.171Z</time></trkpt><trkpt lat="45.6890401" lon="8.4574468"><ele>302.5</ele><time>2026-04-12T09:09:28.176Z</time></trkpt><trkpt lat="45.6890522" lon="8.4573503"><ele>302.6666666666667</ele><time>2026-04-12T09:09:29.169Z</time></trkpt><trkpt lat="45.6890596" lon="8.4572597"><ele>302.8333333333333</ele><time>2026-04-12T09:09:30.171Z</time></trkpt><trkpt lat="45.6890811" lon="8.4571151"><ele>303.0</ele><time>2026-04-12T09:09:32.159Z</time></trkpt><trkpt lat="45.6890932" lon="8.4569838"><ele>303.4</ele><time>2026-04-12T09:09:34.161Z</time></trkpt><trkpt lat="45.6891111" lon="8.4568194"><ele>303.8</ele><time>2026-04-12T09:09:36.171Z</time></trkpt><trkpt lat="45.6890683" lon="8.4566977"><ele>304.2</ele><time>2026-04-12T09:09:38.204Z</time></trkpt><trkpt lat="45.6889555" lon="8.456699"><ele>304.6</ele><time>2026-04-12T09:09:40.213Z</time></trkpt><trkpt lat="45.6888994" lon="8.4567523"><ele>305.0</ele><time>2026-04-12T09:09:41.168Z</time></trkpt><trkpt lat="45.688845" lon="8.4568103"><ele>305.0</ele><time>2026-04-12T09:09:42.169Z</time></trkpt><trkpt lat="45.6887938" lon="8.4568637"><ele>305.0</ele><time>2026-04-12T09:09:43.171Z</time></trkpt><trkpt lat="45.6887367" lon="8.4569026"><ele>305.0</ele><time>2026-04-12T09:09:44.176Z</time></trkpt><trkpt lat="45.6886483" lon="8.4569106"><ele>305.0</ele><time>2026-04-12T09:09:45.169Z</time></trkpt><trkpt lat="45.6885581" lon="8.4569086"><ele>305.0</ele><time>2026-04-12T09:09:46.214Z</time></trkpt><trkpt lat="45.6884554" lon="8.4568991"><ele>305.0</ele><time>2026-04-12T09:09:47.17Z</time></trkpt><trkpt lat="45.6883435" lon="8.4568865"><ele>305.0</ele><time>2026-04-12T09:09:48.174Z</time></trkpt><trkpt lat="45.6882309" lon="8.456889"><ele>305.0</ele><time>2026-04-12T09:09:49.204Z</time></trkpt><trkpt lat="45.6881244" lon="8.4568789"><ele>305.0</ele><time>2026-04-12T09:09:50.171Z</time></trkpt><trkpt lat="45.6880153" lon="8.4568686"><ele>305.0</ele><time>2026-04-12T09:09:51.214Z</time></trkpt><trkpt lat="45.6879024" lon="8.45686"><ele>305.0</ele><time>2026-04-12T09:09:52.169Z</time></trkpt><trkpt lat="45.6876628" lon="8.4568434"><ele>305.0</ele><time>2026-04-12T09:09:54.215Z</time></trkpt><trkpt lat="45.6875427" lon="8.4568361"><ele>305.0</ele><time>2026-04-12T09:09:55.18Z</time></trkpt><trkpt lat="45.6874235" lon="8.45683"><ele>305.0</ele><time>2026-04-12T09:09:56.168Z</time></trkpt><trkpt lat="45.6873089" lon="8.4568222"><ele>305.0</ele><time>2026-04-12T09:09:57.172Z</time></trkpt><trkpt lat="45.6872035" lon="8.4568105"><ele>305.0</ele><time>2026-04-12T09:09:58.172Z</time></trkpt><trkpt lat="45.6870893" lon="8.4568109"><ele>305.0</ele><time>2026-04-12T09:09:59.18Z</time></trkpt><trkpt lat="45.6869784" lon="8.4567991"><ele>305.0</ele><time>2026-04-12T09:10:00.205Z</time></trkpt><trkpt lat="45.6868622" lon="8.4567911"><ele>305.0</ele><time>2026-04-12T09:10:01.172Z</time></trkpt><trkpt lat="45.6867482" lon="8.4567861"><ele>304.6</ele><time>2026-04-12T09:10:02.174Z</time></trkpt><trkpt lat="45.686642" lon="8.4567745"><ele>304.2</ele><time>2026-04-12T09:10:03.163Z</time></trkpt><trkpt lat="45.6865407" lon="8.456762"><ele>303.8</ele><time>2026-04-12T09:10:04.162Z</time></trkpt><trkpt lat="45.686441" lon="8.456752"><ele>303.4</ele><time>2026-04-12T09:10:05.166Z</time></trkpt><trkpt lat="45.6863537" lon="8.456748"><ele>303.0</ele><time>2026-04-12T09:10:06.168Z</time></trkpt><trkpt lat="45.6862731" lon="8.4567422"><ele>303.0</ele><time>2026-04-12T09:10:07.167Z</time></trkpt><trkpt lat="45.6862056" lon="8.4567416"><ele>303.0</ele><time>2026-04-12T09:10:08.155Z</time></trkpt><trkpt lat="45.6860341" lon="8.4567341"><ele>303.0</ele><time>2026-04-12T09:10:10.186Z</time></trkpt><trkpt lat="45.685932" lon="8.4567286"><ele>303.0</ele><time>2026-04-12T09:10:11.175Z</time></trkpt><trkpt lat="45.6858226" lon="8.4567174"><ele>303.0</ele><time>2026-04-12T09:10:12.167Z</time></trkpt><trkpt lat="45.6857121" lon="8.4567116"><ele>303.0</ele><time>2026-04-12T09:10:13.165Z</time></trkpt><trkpt lat="45.6855985" lon="8.4567093"><ele>303.0</ele><time>2026-04-12T09:10:14.181Z</time></trkpt><trkpt lat="45.6854828" lon="8.4566974"><ele>303.0</ele><time>2026-04-12T09:10:15.171Z</time></trkpt><trkpt lat="45.6853627" lon="8.4566869"><ele>302.5</ele><time>2026-04-12T09:10:16.208Z</time></trkpt><trkpt lat="45.6852378" lon="8.4566752"><ele>302.0</ele><time>2026-04-12T09:10:17.163Z</time></trkpt><trkpt lat="45.68511" lon="8.4566663"><ele>301.5</ele><time>2026-04-12T09:10:18.172Z</time></trkpt><trkpt lat="45.684983" lon="8.4566589"><ele>301.0</ele><time>2026-04-12T09:10:19.179Z</time></trkpt><trkpt lat="45.6848584" lon="8.4566482"><ele>301.0</ele><time>2026-04-12T09:10:20.17Z</time></trkpt><trkpt lat="45.6847387" lon="8.456643"><ele>301.0</ele><time>2026-04-12T09:10:21.176Z</time></trkpt><trkpt lat="45.6846292" lon="8.456636"><ele>301.0</ele><time>2026-04-12T09:10:22.171Z</time></trkpt><trkpt lat="45.6845254" lon="8.4566273"><ele>301.0</ele><time>2026-04-12T09:10:23.172Z</time></trkpt><trkpt lat="45.6844308" lon="8.4566168"><ele>301.0</ele><time>2026-04-12T09:10:24.179Z</time></trkpt><trkpt lat="45.6843436" lon="8.4566169"><ele>300.8</ele><time>2026-04-12T09:10:25.209Z</time></trkpt><trkpt lat="45.684262" lon="8.4566187"><ele>300.6</ele><time>2026-04-12T09:10:26.174Z</time></trkpt><trkpt lat="45.6841773" lon="8.4566314"><ele>300.4</ele><time>2026-04-12T09:10:27.171Z</time></trkpt><trkpt lat="45.6840895" lon="8.4566214"><ele>300.2</ele><time>2026-04-12T09:10:28.173Z</time></trkpt><trkpt lat="45.6839869" lon="8.4566157"><ele>300.0</ele><time>2026-04-12T09:10:29.187Z</time></trkpt><trkpt lat="45.6838744" lon="8.4566051"><ele>300.0</ele><time>2026-04-12T09:10:30.172Z</time></trkpt><trkpt lat="45.683753" lon="8.4565939"><ele>300.0</ele><time>2026-04-12T09:10:31.208Z</time></trkpt><trkpt lat="45.6836335" lon="8.4565811"><ele>300.0</ele><time>2026-04-12T09:10:32.167Z</time></trkpt><trkpt lat="45.6835155" lon="8.4565749"><ele>300.0</ele><time>2026-04-12T09:10:33.167Z</time></trkpt><trkpt lat="45.6833996" lon="8.4565672"><ele>300.0</ele><time>2026-04-12T09:10:34.184Z</time></trkpt><trkpt lat="45.68329" lon="8.4565593"><ele>300.0</ele><time>2026-04-12T09:10:35.169Z</time></trkpt><trkpt lat="45.6831884" lon="8.4565518"><ele>300.0</ele><time>2026-04-12T09:10:36.204Z</time></trkpt><trkpt lat="45.6830868" lon="8.4565473"><ele>300.0</ele><time>2026-04-12T09:10:37.168Z</time></trkpt><trkpt lat="45.682989" lon="8.4565442"><ele>300.0</ele><time>2026-04-12T09:10:38.175Z</time></trkpt><trkpt lat="45.6828854" lon="8.4565382"><ele>300.0</ele><time>2026-04-12T09:10:39.192Z</time></trkpt><trkpt lat="45.6827662" lon="8.456537"><ele>300.0</ele><time>2026-04-12T09:10:40.172Z</time></trkpt><trkpt lat="45.6826355" lon="8.456531"><ele>300.0</ele><time>2026-04-12T09:10:41.169Z</time></trkpt><trkpt lat="45.6824809" lon="8.456514"><ele>300.0</ele><time>2026-04-12T09:10:42.166Z</time></trkpt><trkpt lat="45.6823166" lon="8.4564967"><ele>300.25</ele><time>2026-04-12T09:10:43.169Z</time></trkpt><trkpt lat="45.6821622" lon="8.456483"><ele>300.5</ele><time>2026-04-12T09:10:44.212Z</time></trkpt><trkpt lat="45.6820178" lon="8.4564713"><ele>300.75</ele><time>2026-04-12T09:10:45.211Z</time></trkpt><trkpt lat="45.6818773" lon="8.4564613"><ele>301.0</ele><time>2026-04-12T09:10:46.209Z</time></trkpt><trkpt lat="45.6817365" lon="8.4564519"><ele>301.0</ele><time>2026-04-12T09:10:47.161Z</time></trkpt><trkpt lat="45.6815991" lon="8.4564384"><ele>301.0</ele><time>2026-04-12T09:10:48.173Z</time></trkpt><trkpt lat="45.6814575" lon="8.4564294"><ele>301.0</ele><time>2026-04-12T09:10:49.18Z</time></trkpt><trkpt lat="45.6813144" lon="8.4564204"><ele>301.0</ele><time>2026-04-12T09:10:50.171Z</time></trkpt><trkpt lat="45.6811723" lon="8.4564155"><ele>300.5</ele><time>2026-04-12T09:10:51.177Z</time></trkpt><trkpt lat="45.681027" lon="8.4564098"><ele>300.0</ele><time>2026-04-12T09:10:52.163Z</time></trkpt><trkpt lat="45.6808827" lon="8.4564012"><ele>299.5</ele><time>2026-04-12T09:10:53.167Z</time></trkpt><trkpt lat="45.6807363" lon="8.4563864"><ele>299.0</ele><time>2026-04-12T09:10:54.202Z</time></trkpt><trkpt lat="45.6805916" lon="8.4563746"><ele>299.0</ele><time>2026-04-12T09:10:55.205Z</time></trkpt><trkpt lat="45.6804453" lon="8.4563697"><ele>299.0</ele><time>2026-04-12T09:10:56.169Z</time></trkpt><trkpt lat="45.6802968" lon="8.4563585"><ele>299.0</ele><time>2026-04-12T09:10:57.159Z</time></trkpt><trkpt lat="45.680145" lon="8.4563446"><ele>299.0</ele><time>2026-04-12T09:10:58.165Z</time></trkpt><trkpt lat="45.6799827" lon="8.456336"><ele>298.6666666666667</ele><time>2026-04-12T09:10:59.209Z</time></trkpt><trkpt lat="45.679826" lon="8.4563213"><ele>298.3333333333333</ele><time>2026-04-12T09:11:00.205Z</time></trkpt><trkpt lat="45.6796766" lon="8.4563088"><ele>298.0</ele><time>2026-04-12T09:11:01.177Z</time></trkpt><trkpt lat="45.6795292" lon="8.4563031"><ele>298.0</ele><time>2026-04-12T09:11:02.16Z</time></trkpt><trkpt lat="45.6793877" lon="8.4562977"><ele>298.0</ele><time>2026-04-12T09:11:03.158Z</time></trkpt><trkpt lat="45.6792391" lon="8.4562912"><ele>298.0</ele><time>2026-04-12T09:11:04.205Z</time></trkpt><trkpt lat="45.6790876" lon="8.4562815"><ele>298.0</ele><time>2026-04-12T09:11:05.219Z</time></trkpt><trkpt lat="45.6789336" lon="8.4562672"><ele>297.66666666666663</ele><time>2026-04-12T09:11:06.17Z</time></trkpt><trkpt lat="45.6787801" lon="8.4562583"><ele>297.3333333333333</ele><time>2026-04-12T09:11:07.173Z</time></trkpt><trkpt lat="45.6786188" lon="8.4562407"><ele>297.0</ele><time>2026-04-12T09:11:08.172Z</time></trkpt><trkpt lat="45.6784576" lon="8.4562319"><ele>297.0</ele><time>2026-04-12T09:11:09.18Z</time></trkpt><trkpt lat="45.6782943" lon="8.4562196"><ele>297.0</ele><time>2026-04-12T09:11:10.172Z</time></trkpt><trkpt lat="45.6781286" lon="8.4562082"><ele>297.0</ele><time>2026-04-12T09:11:11.17Z</time></trkpt><trkpt lat="45.6779685" lon="8.4561975"><ele>297.0</ele><time>2026-04-12T09:11:12.17Z</time></trkpt><trkpt lat="45.6778014" lon="8.4561904"><ele>297.0</ele><time>2026-04-12T09:11:13.192Z</time></trkpt><trkpt lat="45.6776357" lon="8.4561832"><ele>297.0</ele><time>2026-04-12T09:11:14.208Z</time></trkpt><trkpt lat="45.6774702" lon="8.4561763"><ele>296.6666666666667</ele><time>2026-04-12T09:11:15.172Z</time></trkpt><trkpt lat="45.6773009" lon="8.4561578"><ele>296.33333333333337</ele><time>2026-04-12T09:11:16.192Z</time></trkpt><trkpt lat="45.6771287" lon="8.4561501"><ele>296.0</ele><time>2026-04-12T09:11:17.169Z</time></trkpt><trkpt lat="45.6769626" lon="8.4561428"><ele>296.0</ele><time>2026-04-12T09:11:18.173Z</time></trkpt><trkpt lat="45.6768027" lon="8.456131"><ele>296.0</ele><time>2026-04-12T09:11:19.164Z</time></trkpt><trkpt lat="45.6766441" lon="8.4561179"><ele>296.0</ele><time>2026-04-12T09:11:20.211Z</time></trkpt><trkpt lat="45.6764878" lon="8.4561064"><ele>296.0</ele><time>2026-04-12T09:11:21.171Z</time></trkpt><trkpt lat="45.6763338" lon="8.4560918"><ele>296.0</ele><time>2026-04-12T09:11:22.17Z</time></trkpt><trkpt lat="45.6761813" lon="8.4560787"><ele>296.0</ele><time>2026-04-12T09:11:23.176Z</time></trkpt><trkpt lat="45.6760291" lon="8.4560725"><ele>295.6666666666667</ele><time>2026-04-12T09:11:24.178Z</time></trkpt><trkpt lat="45.6758753" lon="8.4560624"><ele>295.3333333333333</ele><time>2026-04-12T09:11:25.175Z</time></trkpt><trkpt lat="45.6757243" lon="8.4560504"><ele>295.0</ele><time>2026-04-12T09:11:26.203Z</time></trkpt><trkpt lat="45.6755764" lon="8.45604"><ele>295.0</ele><time>2026-04-12T09:11:27.161Z</time></trkpt><trkpt lat="45.6754314" lon="8.4560325"><ele>295.0</ele><time>2026-04-12T09:11:28.173Z</time></trkpt><trkpt lat="45.6752903" lon="8.4560272"><ele>295.0</ele><time>2026-04-12T09:11:29.178Z</time></trkpt><trkpt lat="45.6751521" lon="8.4560204"><ele>295.0</ele><time>2026-04-12T09:11:30.199Z</time></trkpt><trkpt lat="45.6750163" lon="8.4560216"><ele>295.0</ele><time>2026-04-12T09:11:31.21Z</time></trkpt><trkpt lat="45.6748875" lon="8.4560109"><ele>295.0</ele><time>2026-04-12T09:11:32.167Z</time></trkpt><trkpt lat="45.6747661" lon="8.4559993"><ele>295.0</ele><time>2026-04-12T09:11:33.171Z</time></trkpt><trkpt lat="45.6746585" lon="8.4559854"><ele>295.0</ele><time>2026-04-12T09:11:34.2Z</time></trkpt><trkpt lat="45.6745689" lon="8.4559782"><ele>295.0</ele><time>2026-04-12T09:11:35.164Z</time></trkpt><trkpt lat="45.6745019" lon="8.4559746"><ele>295.0</ele><time>2026-04-12T09:11:36.174Z</time></trkpt><trkpt lat="45.6743964" lon="8.4559532"><ele>295.0</ele><time>2026-04-12T09:11:38.171Z</time></trkpt><trkpt lat="45.674275" lon="8.4559201"><ele>295.0</ele><time>2026-04-12T09:11:40.169Z</time></trkpt><trkpt lat="45.6742041" lon="8.4559073"><ele>295.0</ele><time>2026-04-12T09:11:41.168Z</time></trkpt><trkpt lat="45.674125" lon="8.4559147"><ele>295.0</ele><time>2026-04-12T09:11:42.164Z</time></trkpt><trkpt lat="45.6740353" lon="8.4559188"><ele>295.0</ele><time>2026-04-12T09:11:43.17Z</time></trkpt><trkpt lat="45.6739339" lon="8.4559202"><ele>295.0</ele><time>2026-04-12T09:11:44.205Z</time></trkpt><trkpt lat="45.6737976" lon="8.455914"><ele>295.0</ele><time>2026-04-12T09:11:45.167Z</time></trkpt><trkpt lat="45.6736183" lon="8.4559063"><ele>295.0</ele><time>2026-04-12T09:11:46.156Z</time></trkpt><trkpt lat="45.6734249" lon="8.4558935"><ele>295.0</ele><time>2026-04-12T09:11:47.159Z</time></trkpt><trkpt lat="45.6732116" lon="8.4558666"><ele>295.0</ele><time>2026-04-12T09:11:48.161Z</time></trkpt><trkpt lat="45.6729979" lon="8.45585"><ele>295.0</ele><time>2026-04-12T09:11:49.175Z</time></trkpt><trkpt lat="45.6727826" lon="8.455814"><ele>294.66666666666663</ele><time>2026-04-12T09:11:50.155Z</time></trkpt><trkpt lat="45.6725779" lon="8.4557441"><ele>294.3333333333333</ele><time>2026-04-12T09:11:51.168Z</time></trkpt><trkpt lat="45.672381" lon="8.4556575"><ele>294.0</ele><time>2026-04-12T09:11:52.174Z</time></trkpt><trkpt lat="45.6720126" lon="8.4554347"><ele>294.0</ele><time>2026-04-12T09:11:54.177Z</time></trkpt><trkpt lat="45.6718304" lon="8.4552955"><ele>294.0</ele><time>2026-04-12T09:11:55.171Z</time></trkpt><trkpt lat="45.6716474" lon="8.4551454"><ele>294.0</ele><time>2026-04-12T09:11:56.207Z</time></trkpt><trkpt lat="45.6714577" lon="8.454987"><ele>294.0</ele><time>2026-04-12T09:11:57.166Z</time></trkpt><trkpt lat="45.6712619" lon="8.4548259"><ele>294.0</ele><time>2026-04-12T09:11:58.167Z</time></trkpt><trkpt lat="45.6710587" lon="8.454661"><ele>294.5</ele><time>2026-04-12T09:11:59.213Z</time></trkpt><trkpt lat="45.6708522" lon="8.4544903"><ele>295.0</ele><time>2026-04-12T09:12:00.182Z</time></trkpt><trkpt lat="45.6706438" lon="8.4543208"><ele>295.0</ele><time>2026-04-12T09:12:01.175Z</time></trkpt><trkpt lat="45.6704314" lon="8.454152"><ele>295.0</ele><time>2026-04-12T09:12:02.16Z</time></trkpt><trkpt lat="45.6702153" lon="8.4539825"><ele>294.5</ele><time>2026-04-12T09:12:03.17Z</time></trkpt><trkpt lat="45.6699967" lon="8.4538082"><ele>294.0</ele><time>2026-04-12T09:12:04.206Z</time></trkpt><trkpt lat="45.6697811" lon="8.4536299"><ele>294.0</ele><time>2026-04-12T09:12:05.187Z</time></trkpt><trkpt lat="45.6695657" lon="8.4534555"><ele>294.0</ele><time>2026-04-12T09:12:06.21Z</time></trkpt><trkpt lat="45.6693552" lon="8.4532875"><ele>295.0</ele><time>2026-04-12T09:12:07.168Z</time></trkpt><trkpt lat="45.6691533" lon="8.4531234"><ele>296.0</ele><time>2026-04-12T09:12:08.175Z</time></trkpt><trkpt lat="45.6689625" lon="8.4529698"><ele>295.6666666666667</ele><time>2026-04-12T09:12:09.183Z</time></trkpt><trkpt lat="45.6687863" lon="8.4528274"><ele>295.3333333333333</ele><time>2026-04-12T09:12:10.176Z</time></trkpt><trkpt lat="45.6686277" lon="8.4526973"><ele>295.0</ele><time>2026-04-12T09:12:11.182Z</time></trkpt><trkpt lat="45.6684772" lon="8.4525625"><ele>295.66666666666663</ele><time>2026-04-12T09:12:12.173Z</time></trkpt><trkpt lat="45.66834" lon="8.4524113"><ele>296.3333333333333</ele><time>2026-04-12T09:12:13.174Z</time></trkpt><trkpt lat="45.6682183" lon="8.452246"><ele>297.0</ele><time>2026-04-12T09:12:14.18Z</time></trkpt><trkpt lat="45.6681292" lon="8.452048"><ele>297.6666666666667</ele><time>2026-04-12T09:12:15.182Z</time></trkpt><trkpt lat="45.6680665" lon="8.4518239"><ele>298.33333333333337</ele><time>2026-04-12T09:12:16.221Z</time></trkpt><trkpt lat="45.6680295" lon="8.4515761"><ele>299.0</ele><time>2026-04-12T09:12:17.178Z</time></trkpt><trkpt lat="45.6680244" lon="8.4513118"><ele>300.6666666666667</ele><time>2026-04-12T09:12:18.173Z</time></trkpt><trkpt lat="45.6680525" lon="8.4510457"><ele>302.3333333333333</ele><time>2026-04-12T09:12:19.167Z</time></trkpt><trkpt lat="45.6681159" lon="8.4507811"><ele>304.0</ele><time>2026-04-12T09:12:20.16Z</time></trkpt><trkpt lat="45.6682033" lon="8.4504995"><ele>307.0</ele><time>2026-04-12T09:12:21.155Z</time></trkpt><trkpt lat="45.6683148" lon="8.4501958"><ele>310.0</ele><time>2026-04-12T09:12:22.16Z</time></trkpt><trkpt lat="45.668432" lon="8.4498469"><ele>312.0</ele><time>2026-04-12T09:12:23.169Z</time></trkpt><trkpt lat="45.6685614" lon="8.4494653"><ele>314.0</ele><time>2026-04-12T09:12:24.156Z</time></trkpt><trkpt lat="45.6687046" lon="8.4490485"><ele>316.5</ele><time>2026-04-12T09:12:25.172Z</time></trkpt><trkpt lat="45.6688453" lon="8.4486303"><ele>319.0</ele><time>2026-04-12T09:12:26.17Z</time></trkpt><trkpt lat="45.6689858" lon="8.4482247"><ele>323.0</ele><time>2026-04-12T09:12:27.177Z</time></trkpt><trkpt lat="45.6691142" lon="8.447851"><ele>327.0</ele><time>2026-04-12T09:12:28.205Z</time></trkpt><trkpt lat="45.6692345" lon="8.4475082"><ele>327.0</ele><time>2026-04-12T09:12:29.167Z</time></trkpt><trkpt lat="45.6693489" lon="8.4471945"><ele>327.0</ele><time>2026-04-12T09:12:30.166Z</time></trkpt><trkpt lat="45.6694541" lon="8.4469074"><ele>327.0</ele><time>2026-04-12T09:12:31.179Z</time></trkpt><trkpt lat="45.6695425" lon="8.4466644"><ele>327.0</ele><time>2026-04-12T09:12:32.168Z</time></trkpt><trkpt lat="45.6696089" lon="8.4464468"><ele>327.0</ele><time>2026-04-12T09:12:33.182Z</time></trkpt><trkpt lat="45.6696472" lon="8.4462323"><ele>330.3333333333333</ele><time>2026-04-12T09:12:34.163Z</time></trkpt><trkpt lat="45.6696558" lon="8.4460164"><ele>333.66666666666663</ele><time>2026-04-12T09:12:35.207Z</time></trkpt><trkpt lat="45.66963" lon="8.4458033"><ele>337.0</ele><time>2026-04-12T09:12:36.158Z</time></trkpt><trkpt lat="45.6695717" lon="8.4455997"><ele>336.66666666666663</ele><time>2026-04-12T09:12:37.161Z</time></trkpt><trkpt lat="45.6694609" lon="8.4454168"><ele>336.3333333333333</ele><time>2026-04-12T09:12:38.171Z</time></trkpt><trkpt lat="45.6693272" lon="8.445258"><ele>336.0</ele><time>2026-04-12T09:12:39.174Z</time></trkpt><trkpt lat="45.669184" lon="8.4451501"><ele>336.0</ele><time>2026-04-12T09:12:40.209Z</time></trkpt><trkpt lat="45.6690225" lon="8.4451071"><ele>336.0</ele><time>2026-04-12T09:12:41.172Z</time></trkpt><trkpt lat="45.6688428" lon="8.4451035"><ele>336.0</ele><time>2026-04-12T09:12:42.172Z</time></trkpt><trkpt lat="45.668636" lon="8.4451272"><ele>335.5</ele><time>2026-04-12T09:12:43.167Z</time></trkpt><trkpt lat="45.6683998" lon="8.4451634"><ele>335.0</ele><time>2026-04-12T09:12:44.167Z</time></trkpt><trkpt lat="45.6681675" lon="8.4451964"><ele>335.0</ele><time>2026-04-12T09:12:45.201Z</time></trkpt><trkpt lat="45.6679582" lon="8.445224"><ele>335.0</ele><time>2026-04-12T09:12:46.173Z</time></trkpt><trkpt lat="45.6677601" lon="8.445252"><ele>335.0</ele><time>2026-04-12T09:12:47.172Z</time></trkpt><trkpt lat="45.6675821" lon="8.4452721"><ele>337.6666666666667</ele><time>2026-04-12T09:12:48.167Z</time></trkpt><trkpt lat="45.6674149" lon="8.4452848"><ele>340.3333333333333</ele><time>2026-04-12T09:12:49.173Z</time></trkpt><trkpt lat="45.6672575" lon="8.4452938"><ele>343.0</ele><time>2026-04-12T09:12:50.15Z</time></trkpt><trkpt lat="45.6670999" lon="8.4452822"><ele>343.0</ele><time>2026-04-12T09:12:51.153Z</time></trkpt><trkpt lat="45.6669493" lon="8.4452437"><ele>343.0</ele><time>2026-04-12T09:12:52.149Z</time></trkpt><trkpt lat="45.6668006" lon="8.4451748"><ele>343.0</ele><time>2026-04-12T09:12:53.151Z</time></trkpt><trkpt lat="45.6666605" lon="8.445082"><ele>344.0</ele><time>2026-04-12T09:12:54.152Z</time></trkpt><trkpt lat="45.66654" lon="8.444962"><ele>345.0</ele><time>2026-04-12T09:12:55.15Z</time></trkpt><trkpt lat="45.666434" lon="8.4448336"><ele>346.0</ele><time>2026-04-12T09:12:56.156Z</time></trkpt><trkpt lat="45.6663403" lon="8.4446875"><ele>347.0</ele><time>2026-04-12T09:12:57.154Z</time></trkpt><trkpt lat="45.666249" lon="8.4445409"><ele>347.0</ele><time>2026-04-12T09:12:58.155Z</time></trkpt><trkpt lat="45.6661515" lon="8.4443787"><ele>347.0</ele><time>2026-04-12T09:12:59.168Z</time></trkpt><trkpt lat="45.6660755" lon="8.4442592"><ele>347.0</ele><time>2026-04-12T09:13:00.163Z</time></trkpt><trkpt lat="45.6660048" lon="8.4441469"><ele>347.0</ele><time>2026-04-12T09:13:01.164Z</time></trkpt><trkpt lat="45.6659502" lon="8.444049"><ele>347.0</ele><time>2026-04-12T09:13:02.16Z</time></trkpt><trkpt lat="45.6659116" lon="8.4439644"><ele>347.0</ele><time>2026-04-12T09:13:03.167Z</time></trkpt><trkpt lat="45.6658702" lon="8.4437966"><ele>347.0</ele><time>2026-04-12T09:13:05.174Z</time></trkpt><trkpt lat="45.6658488" lon="8.4437112"><ele>347.0</ele><time>2026-04-12T09:13:06.17Z</time></trkpt><trkpt lat="45.6657476" lon="8.4435903"><ele>347.0</ele><time>2026-04-12T09:13:08.158Z</time></trkpt><trkpt lat="45.6656792" lon="8.4435165"><ele>347.0</ele><time>2026-04-12T09:13:09.175Z</time></trkpt><trkpt lat="45.6655998" lon="8.4434298"><ele>347.0</ele><time>2026-04-12T09:13:10.183Z</time></trkpt><trkpt lat="45.6655156" lon="8.4433048"><ele>347.0</ele><time>2026-04-12T09:13:11.17Z</time></trkpt><trkpt lat="45.6654302" lon="8.4431584"><ele>347.0</ele><time>2026-04-12T09:13:12.164Z</time></trkpt><trkpt lat="45.66533" lon="8.4429954"><ele>346.33333333333337</ele><time>2026-04-12T09:13:13.173Z</time></trkpt><trkpt lat="45.665212" lon="8.4428068"><ele>345.6666666666667</ele><time>2026-04-12T09:13:14.163Z</time></trkpt><trkpt lat="45.6650845" lon="8.4425985"><ele>345.0</ele><time>2026-04-12T09:13:15.172Z</time></trkpt><trkpt lat="45.6649491" lon="8.442379"><ele>345.0</ele><time>2026-04-12T09:13:16.184Z</time></trkpt><trkpt lat="45.6648036" lon="8.4421426"><ele>345.0</ele><time>2026-04-12T09:13:17.172Z</time></trkpt><trkpt lat="45.6646503" lon="8.4418905"><ele>345.0</ele><time>2026-04-12T09:13:18.167Z</time></trkpt><trkpt lat="45.6644954" lon="8.4416363"><ele>345.0</ele><time>2026-04-12T09:13:19.17Z</time></trkpt><trkpt lat="45.6643438" lon="8.4413976"><ele>346.0</ele><time>2026-04-12T09:13:20.166Z</time></trkpt><trkpt lat="45.6641977" lon="8.4411572"><ele>347.0</ele><time>2026-04-12T09:13:21.171Z</time></trkpt><trkpt lat="45.6640533" lon="8.4409158"><ele>348.0</ele><time>2026-04-12T09:13:22.169Z</time></trkpt><trkpt lat="45.6639091" lon="8.4406755"><ele>348.3333333333333</ele><time>2026-04-12T09:13:23.171Z</time></trkpt><trkpt lat="45.6637638" lon="8.4404414"><ele>348.66666666666663</ele><time>2026-04-12T09:13:24.17Z</time></trkpt><trkpt lat="45.6636229" lon="8.4402079"><ele>349.0</ele><time>2026-04-12T09:13:25.168Z</time></trkpt><trkpt lat="45.6634807" lon="8.4399689"><ele>349.0</ele><time>2026-04-12T09:13:26.172Z</time></trkpt><trkpt lat="45.6633372" lon="8.4397288"><ele>349.0</ele><time>2026-04-12T09:13:27.171Z</time></trkpt><trkpt lat="45.6631967" lon="8.4394835"><ele>349.0</ele><time>2026-04-12T09:13:28.168Z</time></trkpt><trkpt lat="45.6630604" lon="8.4392538"><ele>349.0</ele><time>2026-04-12T09:13:29.171Z</time></trkpt><trkpt lat="45.6629306" lon="8.4390354"><ele>349.0</ele><time>2026-04-12T09:13:30.171Z</time></trkpt><trkpt lat="45.6627973" lon="8.4388201"><ele>349.0</ele><time>2026-04-12T09:13:31.182Z</time></trkpt><trkpt lat="45.6626637" lon="8.4385972"><ele>349.0</ele><time>2026-04-12T09:13:32.157Z</time></trkpt><trkpt lat="45.6625292" lon="8.4383781"><ele>349.0</ele><time>2026-04-12T09:13:33.17Z</time></trkpt><trkpt lat="45.6623974" lon="8.4381609"><ele>349.0</ele><time>2026-04-12T09:13:34.169Z</time></trkpt><trkpt lat="45.6622656" lon="8.4379428"><ele>348.66666666666663</ele><time>2026-04-12T09:13:35.168Z</time></trkpt><trkpt lat="45.6621328" lon="8.4377242"><ele>348.3333333333333</ele><time>2026-04-12T09:13:36.168Z</time></trkpt><trkpt lat="45.6619991" lon="8.4375087"><ele>348.0</ele><time>2026-04-12T09:13:37.168Z</time></trkpt><trkpt lat="45.6618643" lon="8.4372901"><ele>347.3333333333333</ele><time>2026-04-12T09:13:38.165Z</time></trkpt><trkpt lat="45.6617314" lon="8.4370694"><ele>346.66666666666663</ele><time>2026-04-12T09:13:39.167Z</time></trkpt><trkpt lat="45.6615964" lon="8.4368545"><ele>346.0</ele><time>2026-04-12T09:13:40.173Z</time></trkpt><trkpt lat="45.6614583" lon="8.4366361"><ele>346.0</ele><time>2026-04-12T09:13:41.171Z</time></trkpt><trkpt lat="45.6613183" lon="8.4364089"><ele>346.0</ele><time>2026-04-12T09:13:42.166Z</time></trkpt><trkpt lat="45.6611655" lon="8.4361661"><ele>346.0</ele><time>2026-04-12T09:13:43.172Z</time></trkpt><trkpt lat="45.6609988" lon="8.4358935"><ele>346.0</ele><time>2026-04-12T09:13:44.172Z</time></trkpt><trkpt lat="45.6608138" lon="8.4355955"><ele>346.0</ele><time>2026-04-12T09:13:45.175Z</time></trkpt><trkpt lat="45.6606163" lon="8.4352756"><ele>345.0</ele><time>2026-04-12T09:13:46.17Z</time></trkpt><trkpt lat="45.6604148" lon="8.4349405"><ele>344.0</ele><time>2026-04-12T09:13:47.18Z</time></trkpt><trkpt lat="45.6602216" lon="8.4346039"><ele>344.0</ele><time>2026-04-12T09:13:48.177Z</time></trkpt><trkpt lat="45.6600283" lon="8.4342732"><ele>344.0</ele><time>2026-04-12T09:13:49.174Z</time></trkpt><trkpt lat="45.6598357" lon="8.433955"><ele>344.0</ele><time>2026-04-12T09:13:50.168Z</time></trkpt><trkpt lat="45.6596485" lon="8.433646"><ele>344.0</ele><time>2026-04-12T09:13:51.172Z</time></trkpt><trkpt lat="45.6594659" lon="8.4333516"><ele>344.0</ele><time>2026-04-12T09:13:52.166Z</time></trkpt><trkpt lat="45.6592897" lon="8.4330728"><ele>344.0</ele><time>2026-04-12T09:13:53.17Z</time></trkpt><trkpt lat="45.659123" lon="8.432807"><ele>344.0</ele><time>2026-04-12T09:13:54.166Z</time></trkpt><trkpt lat="45.6589668" lon="8.4325498"><ele>344.0</ele><time>2026-04-12T09:13:55.172Z</time></trkpt><trkpt lat="45.6588206" lon="8.4323016"><ele>343.6666666666667</ele><time>2026-04-12T09:13:56.173Z</time></trkpt><trkpt lat="45.6586883" lon="8.4320518"><ele>343.3333333333333</ele><time>2026-04-12T09:13:57.16Z</time></trkpt><trkpt lat="45.6585671" lon="8.4317785"><ele>343.0</ele><time>2026-04-12T09:13:58.176Z</time></trkpt><trkpt lat="45.6584575" lon="8.4314819"><ele>342.5</ele><time>2026-04-12T09:13:59.17Z</time></trkpt><trkpt lat="45.6583566" lon="8.4311702"><ele>342.0</ele><time>2026-04-12T09:14:00.17Z</time></trkpt><trkpt lat="45.6582587" lon="8.4308467"><ele>342.0</ele><time>2026-04-12T09:14:01.166Z</time></trkpt><trkpt lat="45.6581608" lon="8.4305148"><ele>342.0</ele><time>2026-04-12T09:14:02.172Z</time></trkpt><trkpt lat="45.6580627" lon="8.4301831"><ele>342.0</ele><time>2026-04-12T09:14:03.172Z</time></trkpt><trkpt lat="45.6579612" lon="8.4298513"><ele>342.0</ele><time>2026-04-12T09:14:04.172Z</time></trkpt><trkpt lat="45.657863" lon="8.4295158"><ele>341.5</ele><time>2026-04-12T09:14:05.169Z</time></trkpt><trkpt lat="45.6577669" lon="8.4291851"><ele>341.0</ele><time>2026-04-12T09:14:06.174Z</time></trkpt><trkpt lat="45.6576734" lon="8.4288576"><ele>342.0</ele><time>2026-04-12T09:14:07.173Z</time></trkpt><trkpt lat="45.6575802" lon="8.428538"><ele>343.0</ele><time>2026-04-12T09:14:08.174Z</time></trkpt><trkpt lat="45.6574904" lon="8.4282274"><ele>343.66666666666663</ele><time>2026-04-12T09:14:09.17Z</time></trkpt><trkpt lat="45.657403" lon="8.4279263"><ele>344.3333333333333</ele><time>2026-04-12T09:14:10.165Z</time></trkpt><trkpt lat="45.6573197" lon="8.4276329"><ele>345.0</ele><time>2026-04-12T09:14:11.169Z</time></trkpt><trkpt lat="45.6572345" lon="8.4273469"><ele>344.3333333333333</ele><time>2026-04-12T09:14:12.169Z</time></trkpt><trkpt lat="45.6571497" lon="8.4270647"><ele>343.66666666666663</ele><time>2026-04-12T09:14:13.172Z</time></trkpt><trkpt lat="45.6570684" lon="8.4267878"><ele>343.0</ele><time>2026-04-12T09:14:14.17Z</time></trkpt><trkpt lat="45.6569891" lon="8.4265152"><ele>342.3333333333333</ele><time>2026-04-12T09:14:15.17Z</time></trkpt><trkpt lat="45.6569104" lon="8.4262437"><ele>341.6666666666667</ele><time>2026-04-12T09:14:16.164Z</time></trkpt><trkpt lat="45.6568272" lon="8.4259741"><ele>341.0</ele><time>2026-04-12T09:14:17.168Z</time></trkpt><trkpt lat="45.656747" lon="8.4257049"><ele>341.33333333333337</ele><time>2026-04-12T09:14:18.167Z</time></trkpt><trkpt lat="45.6566658" lon="8.4254418"><ele>341.6666666666667</ele><time>2026-04-12T09:14:19.167Z</time></trkpt><trkpt lat="45.6565878" lon="8.4251739"><ele>342.0</ele><time>2026-04-12T09:14:20.165Z</time></trkpt><trkpt lat="45.6565064" lon="8.4249062"><ele>342.3333333333333</ele><time>2026-04-12T09:14:21.166Z</time></trkpt><trkpt lat="45.6564248" lon="8.4246372"><ele>342.66666666666663</ele><time>2026-04-12T09:14:22.169Z</time></trkpt><trkpt lat="45.6563443" lon="8.4243739"><ele>343.0</ele><time>2026-04-12T09:14:23.163Z</time></trkpt><trkpt lat="45.6562615" lon="8.4241148"><ele>343.0</ele><time>2026-04-12T09:14:24.176Z</time></trkpt><trkpt lat="45.6561809" lon="8.4238527"><ele>343.0</ele><time>2026-04-12T09:14:25.175Z</time></trkpt><trkpt lat="45.6561003" lon="8.4235921"><ele>343.0</ele><time>2026-04-12T09:14:26.167Z</time></trkpt><trkpt lat="45.6560232" lon="8.4233311"><ele>342.66666666666663</ele><time>2026-04-12T09:14:27.168Z</time></trkpt><trkpt lat="45.6559427" lon="8.4230664"><ele>342.3333333333333</ele><time>2026-04-12T09:14:28.188Z</time></trkpt><trkpt lat="45.655865" lon="8.4227944"><ele>342.0</ele><time>2026-04-12T09:14:29.17Z</time></trkpt><trkpt lat="45.6557878" lon="8.4225281"><ele>342.0</ele><time>2026-04-12T09:14:30.173Z</time></trkpt><trkpt lat="45.6557128" lon="8.4222743"><ele>342.0</ele><time>2026-04-12T09:14:31.173Z</time></trkpt><trkpt lat="45.6556374" lon="8.4220299"><ele>342.0</ele><time>2026-04-12T09:14:32.163Z</time></trkpt><trkpt lat="45.6555613" lon="8.4217835"><ele>342.0</ele><time>2026-04-12T09:14:33.168Z</time></trkpt><trkpt lat="45.6554878" lon="8.4215396"><ele>342.0</ele><time>2026-04-12T09:14:34.165Z</time></trkpt><trkpt lat="45.6554128" lon="8.4213021"><ele>342.0</ele><time>2026-04-12T09:14:35.163Z</time></trkpt><trkpt lat="45.6553399" lon="8.4210619"><ele>341.6666666666667</ele><time>2026-04-12T09:14:36.165Z</time></trkpt><trkpt lat="45.6552713" lon="8.4208191"><ele>341.33333333333337</ele><time>2026-04-12T09:14:37.168Z</time></trkpt><trkpt lat="45.655206" lon="8.4205764"><ele>341.0</ele><time>2026-04-12T09:14:38.17Z</time></trkpt><trkpt lat="45.6551391" lon="8.420338"><ele>341.0</ele><time>2026-04-12T09:14:39.162Z</time></trkpt><trkpt lat="45.6550708" lon="8.4200996"><ele>341.0</ele><time>2026-04-12T09:14:40.171Z</time></trkpt><trkpt lat="45.6550042" lon="8.4198603"><ele>341.0</ele><time>2026-04-12T09:14:41.175Z</time></trkpt><trkpt lat="45.6549369" lon="8.4196183"><ele>340.33333333333337</ele><time>2026-04-12T09:14:42.168Z</time></trkpt><trkpt lat="45.6548656" lon="8.419384"><ele>339.6666666666667</ele><time>2026-04-12T09:14:43.171Z</time></trkpt><trkpt lat="45.6547942" lon="8.4191491"><ele>339.0</ele><time>2026-04-12T09:14:44.171Z</time></trkpt><trkpt lat="45.6547227" lon="8.4189047"><ele>339.3333333333333</ele><time>2026-04-12T09:14:45.168Z</time></trkpt><trkpt lat="45.6546484" lon="8.4186532"><ele>339.66666666666663</ele><time>2026-04-12T09:14:46.161Z</time></trkpt><trkpt lat="45.6545728" lon="8.4184064"><ele>340.0</ele><time>2026-04-12T09:14:47.168Z</time></trkpt><trkpt lat="45.6544995" lon="8.4181465"><ele>339.66666666666663</ele><time>2026-04-12T09:14:48.172Z</time></trkpt><trkpt lat="45.6544271" lon="8.417894"><ele>339.3333333333333</ele><time>2026-04-12T09:14:49.159Z</time></trkpt><trkpt lat="45.6543546" lon="8.4176443"><ele>339.0</ele><time>2026-04-12T09:14:50.165Z</time></trkpt><trkpt lat="45.6542827" lon="8.4174019"><ele>339.0</ele><time>2026-04-12T09:14:51.156Z</time></trkpt><trkpt lat="45.6542098" lon="8.4171605"><ele>339.0</ele><time>2026-04-12T09:14:52.17Z</time></trkpt><trkpt lat="45.6541339" lon="8.4169191"><ele>339.0</ele><time>2026-04-12T09:14:53.161Z</time></trkpt><trkpt lat="45.6540597" lon="8.4166683"><ele>339.0</ele><time>2026-04-12T09:14:54.169Z</time></trkpt><trkpt lat="45.6539849" lon="8.4164208"><ele>339.0</ele><time>2026-04-12T09:14:55.171Z</time></trkpt><trkpt lat="45.6539121" lon="8.416174"><ele>339.0</ele><time>2026-04-12T09:14:56.168Z</time></trkpt><trkpt lat="45.6538413" lon="8.4159339"><ele>339.6666666666667</ele><time>2026-04-12T09:14:57.166Z</time></trkpt><trkpt lat="45.6537693" lon="8.4156971"><ele>340.33333333333337</ele><time>2026-04-12T09:14:58.17Z</time></trkpt><trkpt lat="45.6536999" lon="8.4154603"><ele>341.0</ele><time>2026-04-12T09:14:59.166Z</time></trkpt><trkpt lat="45.6536322" lon="8.4152204"><ele>340.33333333333337</ele><time>2026-04-12T09:15:00.171Z</time></trkpt><trkpt lat="45.6535689" lon="8.4149756"><ele>339.6666666666667</ele><time>2026-04-12T09:15:01.172Z</time></trkpt><trkpt lat="45.6535105" lon="8.4147174"><ele>339.0</ele><time>2026-04-12T09:15:02.165Z</time></trkpt><trkpt lat="45.6534619" lon="8.414434"><ele>339.0</ele><time>2026-04-12T09:15:03.167Z</time></trkpt><trkpt lat="45.6534287" lon="8.4141304"><ele>339.0</ele><time>2026-04-12T09:15:04.169Z</time></trkpt><trkpt lat="45.6534163" lon="8.4138318"><ele>339.0</ele><time>2026-04-12T09:15:05.166Z</time></trkpt><trkpt lat="45.6534219" lon="8.4135277"><ele>338.3333333333333</ele><time>2026-04-12T09:15:06.165Z</time></trkpt><trkpt lat="45.6534477" lon="8.4132192"><ele>337.66666666666663</ele><time>2026-04-12T09:15:07.169Z</time></trkpt><trkpt lat="45.6534933" lon="8.4129137"><ele>337.0</ele><time>2026-04-12T09:15:08.172Z</time></trkpt><trkpt lat="45.653554" lon="8.412606"><ele>335.0</ele><time>2026-04-12T09:15:09.168Z</time></trkpt><trkpt lat="45.6536216" lon="8.4122994"><ele>333.0</ele><time>2026-04-12T09:15:10.158Z</time></trkpt><trkpt lat="45.6536926" lon="8.4119975"><ele>331.0</ele><time>2026-04-12T09:15:11.169Z</time></trkpt><trkpt lat="45.6537632" lon="8.4117073"><ele>330.66666666666663</ele><time>2026-04-12T09:15:12.172Z</time></trkpt><trkpt lat="45.6538337" lon="8.4114151"><ele>330.3333333333333</ele><time>2026-04-12T09:15:13.18Z</time></trkpt><trkpt lat="45.6539008" lon="8.4111222"><ele>330.0</ele><time>2026-04-12T09:15:14.171Z</time></trkpt><trkpt lat="45.6539687" lon="8.4108338"><ele>329.6666666666667</ele><time>2026-04-12T09:15:15.163Z</time></trkpt><trkpt lat="45.6540363" lon="8.4105532"><ele>329.33333333333337</ele><time>2026-04-12T09:15:16.172Z</time></trkpt><trkpt lat="45.654102" lon="8.4102747"><ele>329.0</ele><time>2026-04-12T09:15:17.168Z</time></trkpt><trkpt lat="45.6541672" lon="8.4099966"><ele>329.6666666666667</ele><time>2026-04-12T09:15:18.166Z</time></trkpt><trkpt lat="45.6542311" lon="8.4097177"><ele>330.3333333333333</ele><time>2026-04-12T09:15:19.182Z</time></trkpt><trkpt lat="45.6542946" lon="8.4094422"><ele>331.0</ele><time>2026-04-12T09:15:20.177Z</time></trkpt><trkpt lat="45.6543497" lon="8.4091647"><ele>333.66666666666663</ele><time>2026-04-12T09:15:21.169Z</time></trkpt><trkpt lat="45.6543922" lon="8.4088837"><ele>336.3333333333333</ele><time>2026-04-12T09:15:22.171Z</time></trkpt><trkpt lat="45.6544178" lon="8.4086044"><ele>339.0</ele><time>2026-04-12T09:15:23.172Z</time></trkpt><trkpt lat="45.6544282" lon="8.408321"><ele>340.3333333333333</ele><time>2026-04-12T09:15:24.172Z</time></trkpt><trkpt lat="45.6544224" lon="8.4080496"><ele>341.66666666666663</ele><time>2026-04-12T09:15:25.171Z</time></trkpt><trkpt lat="45.6544042" lon="8.4077887"><ele>343.0</ele><time>2026-04-12T09:15:26.172Z</time></trkpt><trkpt lat="45.6543707" lon="8.4075449"><ele>343.66666666666663</ele><time>2026-04-12T09:15:27.173Z</time></trkpt><trkpt lat="45.65433" lon="8.4073154"><ele>344.3333333333333</ele><time>2026-04-12T09:15:28.172Z</time></trkpt><trkpt lat="45.654277" lon="8.4070976"><ele>345.0</ele><time>2026-04-12T09:15:29.17Z</time></trkpt><trkpt lat="45.654217" lon="8.4068996"><ele>345.25</ele><time>2026-04-12T09:15:30.174Z</time></trkpt><trkpt lat="45.6541502" lon="8.406715"><ele>345.5</ele><time>2026-04-12T09:15:31.168Z</time></trkpt><trkpt lat="45.6540754" lon="8.4065382"><ele>345.75</ele><time>2026-04-12T09:15:32.174Z</time></trkpt><trkpt lat="45.6539947" lon="8.4063689"><ele>346.0</ele><time>2026-04-12T09:15:33.169Z</time></trkpt><trkpt lat="45.6539073" lon="8.4062009"><ele>346.0</ele><time>2026-04-12T09:15:34.168Z</time></trkpt><trkpt lat="45.6538149" lon="8.4060344"><ele>346.0</ele><time>2026-04-12T09:15:35.172Z</time></trkpt><trkpt lat="45.6536181" lon="8.4056928"><ele>346.0</ele><time>2026-04-12T09:15:37.169Z</time></trkpt><trkpt lat="45.6535158" lon="8.4055227"><ele>346.0</ele><time>2026-04-12T09:15:38.169Z</time></trkpt><trkpt lat="45.6534157" lon="8.4053438"><ele>346.0</ele><time>2026-04-12T09:15:39.18Z</time></trkpt><trkpt lat="45.6533106" lon="8.4051724"><ele>345.66666666666663</ele><time>2026-04-12T09:15:40.176Z</time></trkpt><trkpt lat="45.6532027" lon="8.4049962"><ele>345.3333333333333</ele><time>2026-04-12T09:15:41.208Z</time></trkpt><trkpt lat="45.6530972" lon="8.4048134"><ele>345.0</ele><time>2026-04-12T09:15:42.167Z</time></trkpt><trkpt lat="45.6529881" lon="8.4046354"><ele>345.0</ele><time>2026-04-12T09:15:43.172Z</time></trkpt><trkpt lat="45.6528808" lon="8.4044618"><ele>345.0</ele><time>2026-04-12T09:15:44.175Z</time></trkpt><trkpt lat="45.6527706" lon="8.4042885"><ele>345.0</ele><time>2026-04-12T09:15:45.167Z</time></trkpt><trkpt lat="45.6526605" lon="8.4041103"><ele>345.3333333333333</ele><time>2026-04-12T09:15:46.172Z</time></trkpt><trkpt lat="45.6525503" lon="8.4039286"><ele>345.66666666666663</ele><time>2026-04-12T09:15:47.172Z</time></trkpt><trkpt lat="45.6524365" lon="8.4037474"><ele>346.0</ele><time>2026-04-12T09:15:48.17Z</time></trkpt><trkpt lat="45.6523209" lon="8.4035638"><ele>346.3333333333333</ele><time>2026-04-12T09:15:49.205Z</time></trkpt><trkpt lat="45.6521981" lon="8.4033828"><ele>346.6666666666667</ele><time>2026-04-12T09:15:50.183Z</time></trkpt><trkpt lat="45.6520792" lon="8.4031973"><ele>347.0</ele><time>2026-04-12T09:15:51.178Z</time></trkpt><trkpt lat="45.6519566" lon="8.4030064"><ele>344.6666666666667</ele><time>2026-04-12T09:15:52.169Z</time></trkpt><trkpt lat="45.6518345" lon="8.4028107"><ele>342.3333333333333</ele><time>2026-04-12T09:15:53.173Z</time></trkpt><trkpt lat="45.6517123" lon="8.4026135"><ele>340.0</ele><time>2026-04-12T09:15:54.181Z</time></trkpt><trkpt lat="45.6515842" lon="8.4024162"><ele>340.0</ele><time>2026-04-12T09:15:55.177Z</time></trkpt><trkpt lat="45.6514532" lon="8.4022131"><ele>340.0</ele><time>2026-04-12T09:15:56.179Z</time></trkpt><trkpt lat="45.6513239" lon="8.4020037"><ele>340.0</ele><time>2026-04-12T09:15:57.175Z</time></trkpt><trkpt lat="45.6511951" lon="8.4017899"><ele>340.0</ele><time>2026-04-12T09:15:58.182Z</time></trkpt><trkpt lat="45.6510631" lon="8.4015805"><ele>340.0</ele><time>2026-04-12T09:15:59.178Z</time></trkpt><trkpt lat="45.6509384" lon="8.4013722"><ele>340.0</ele><time>2026-04-12T09:16:00.2Z</time></trkpt><trkpt lat="45.6508101" lon="8.4011654"><ele>340.0</ele><time>2026-04-12T09:16:01.183Z</time></trkpt><trkpt lat="45.6506846" lon="8.4009567"><ele>340.0</ele><time>2026-04-12T09:16:02.168Z</time></trkpt><trkpt lat="45.65056" lon="8.4007485"><ele>340.0</ele><time>2026-04-12T09:16:03.167Z</time></trkpt><trkpt lat="45.6504348" lon="8.4005459"><ele>340.0</ele><time>2026-04-12T09:16:04.19Z</time></trkpt><trkpt lat="45.6503167" lon="8.4003485"><ele>340.0</ele><time>2026-04-12T09:16:05.168Z</time></trkpt><trkpt lat="45.6501997" lon="8.4001509"><ele>340.0</ele><time>2026-04-12T09:16:06.205Z</time></trkpt><trkpt lat="45.6500732" lon="8.3999471"><ele>338.66666666666663</ele><time>2026-04-12T09:16:07.166Z</time></trkpt><trkpt lat="45.6499357" lon="8.3997328"><ele>337.3333333333333</ele><time>2026-04-12T09:16:08.17Z</time></trkpt><trkpt lat="45.6497932" lon="8.399507"><ele>336.0</ele><time>2026-04-12T09:16:09.176Z</time></trkpt><trkpt lat="45.6496528" lon="8.3992772"><ele>336.0</ele><time>2026-04-12T09:16:10.203Z</time></trkpt><trkpt lat="45.6495205" lon="8.3990509"><ele>336.0</ele><time>2026-04-12T09:16:11.21Z</time></trkpt><trkpt lat="45.6493898" lon="8.398827"><ele>336.0</ele><time>2026-04-12T09:16:12.155Z</time></trkpt><trkpt lat="45.6492569" lon="8.3985991"><ele>335.6666666666667</ele><time>2026-04-12T09:16:13.172Z</time></trkpt><trkpt lat="45.6491194" lon="8.3983679"><ele>335.33333333333337</ele><time>2026-04-12T09:16:14.172Z</time></trkpt><trkpt lat="45.648981" lon="8.3981361"><ele>335.0</ele><time>2026-04-12T09:16:15.179Z</time></trkpt><trkpt lat="45.6488438" lon="8.3979147"><ele>335.0</ele><time>2026-04-12T09:16:16.167Z</time></trkpt><trkpt lat="45.6487075" lon="8.3976943"><ele>335.0</ele><time>2026-04-12T09:16:17.169Z</time></trkpt><trkpt lat="45.6485767" lon="8.3974685"><ele>335.0</ele><time>2026-04-12T09:16:18.155Z</time></trkpt><trkpt lat="45.6484486" lon="8.3972418"><ele>335.0</ele><time>2026-04-12T09:16:19.179Z</time></trkpt><trkpt lat="45.6483205" lon="8.3970168"><ele>335.0</ele><time>2026-04-12T09:16:20.17Z</time></trkpt><trkpt lat="45.6481897" lon="8.3967987"><ele>335.0</ele><time>2026-04-12T09:16:21.21Z</time></trkpt><trkpt lat="45.6480591" lon="8.3965824"><ele>335.0</ele><time>2026-04-12T09:16:22.175Z</time></trkpt><trkpt lat="45.6479256" lon="8.3963712"><ele>335.0</ele><time>2026-04-12T09:16:23.166Z</time></trkpt><trkpt lat="45.647795" lon="8.3961582"><ele>335.0</ele><time>2026-04-12T09:16:24.197Z</time></trkpt><trkpt lat="45.6476572" lon="8.3959443"><ele>334.33333333333337</ele><time>2026-04-12T09:16:25.177Z</time></trkpt><trkpt lat="45.6475246" lon="8.3957299"><ele>333.6666666666667</ele><time>2026-04-12T09:16:26.2Z</time></trkpt><trkpt lat="45.6473905" lon="8.3955152"><ele>333.0</ele><time>2026-04-12T09:16:27.169Z</time></trkpt><trkpt lat="45.6472548" lon="8.395305"><ele>333.0</ele><time>2026-04-12T09:16:28.174Z</time></trkpt><trkpt lat="45.6471244" lon="8.3950921"><ele>333.0</ele><time>2026-04-12T09:16:29.181Z</time></trkpt><trkpt lat="45.6469941" lon="8.3948738"><ele>333.0</ele><time>2026-04-12T09:16:30.176Z</time></trkpt><trkpt lat="45.6468633" lon="8.3946529"><ele>332.6666666666667</ele><time>2026-04-12T09:16:31.173Z</time></trkpt><trkpt lat="45.6467298" lon="8.3944287"><ele>332.33333333333337</ele><time>2026-04-12T09:16:32.168Z</time></trkpt><trkpt lat="45.6465988" lon="8.394213"><ele>332.0</ele><time>2026-04-12T09:16:33.169Z</time></trkpt><trkpt lat="45.6464711" lon="8.3939978"><ele>332.33333333333337</ele><time>2026-04-12T09:16:34.182Z</time></trkpt><trkpt lat="45.6463422" lon="8.3937818"><ele>332.6666666666667</ele><time>2026-04-12T09:16:35.171Z</time></trkpt><trkpt lat="45.6462126" lon="8.3935697"><ele>333.0</ele><time>2026-04-12T09:16:36.215Z</time></trkpt><trkpt lat="45.6460819" lon="8.3933586"><ele>333.6666666666667</ele><time>2026-04-12T09:16:37.173Z</time></trkpt><trkpt lat="45.6459521" lon="8.3931462"><ele>334.33333333333337</ele><time>2026-04-12T09:16:38.174Z</time></trkpt><trkpt lat="45.6458254" lon="8.3929379"><ele>335.0</ele><time>2026-04-12T09:16:39.171Z</time></trkpt><trkpt lat="45.645699" lon="8.392729"><ele>335.0</ele><time>2026-04-12T09:16:40.202Z</time></trkpt><trkpt lat="45.645575" lon="8.3925223"><ele>335.0</ele><time>2026-04-12T09:16:41.174Z</time></trkpt><trkpt lat="45.6454531" lon="8.3923147"><ele>335.0</ele><time>2026-04-12T09:16:42.169Z</time></trkpt><trkpt lat="45.6453291" lon="8.3921093"><ele>334.6666666666667</ele><time>2026-04-12T09:16:43.18Z</time></trkpt><trkpt lat="45.6452071" lon="8.3919072"><ele>334.3333333333333</ele><time>2026-04-12T09:16:44.186Z</time></trkpt><trkpt lat="45.6450908" lon="8.3917108"><ele>334.0</ele><time>2026-04-12T09:16:45.202Z</time></trkpt><trkpt lat="45.6449666" lon="8.3915196"><ele>333.66666666666663</ele><time>2026-04-12T09:16:46.18Z</time></trkpt><trkpt lat="45.6448443" lon="8.3913184"><ele>333.3333333333333</ele><time>2026-04-12T09:16:47.17Z</time></trkpt><trkpt lat="45.6447212" lon="8.3911159"><ele>333.0</ele><time>2026-04-12T09:16:48.171Z</time></trkpt><trkpt lat="45.6445985" lon="8.3909118"><ele>333.0</ele><time>2026-04-12T09:16:49.182Z</time></trkpt><trkpt lat="45.6444722" lon="8.3907103"><ele>333.0</ele><time>2026-04-12T09:16:50.207Z</time></trkpt><trkpt lat="45.6443493" lon="8.3905095"><ele>333.0</ele><time>2026-04-12T09:16:51.17Z</time></trkpt><trkpt lat="45.6442286" lon="8.3903108"><ele>333.6666666666667</ele><time>2026-04-12T09:16:52.16Z</time></trkpt><trkpt lat="45.6441135" lon="8.3901099"><ele>334.33333333333337</ele><time>2026-04-12T09:16:53.185Z</time></trkpt><trkpt lat="45.644003" lon="8.389919"><ele>335.0</ele><time>2026-04-12T09:16:54.172Z</time></trkpt><trkpt lat="45.6438989" lon="8.3897455"><ele>334.75</ele><time>2026-04-12T09:16:55.167Z</time></trkpt><trkpt lat="45.6438006" lon="8.3895782"><ele>334.5</ele><time>2026-04-12T09:16:56.171Z</time></trkpt><trkpt lat="45.6437076" lon="8.3894209"><ele>334.25</ele><time>2026-04-12T09:16:57.172Z</time></trkpt><trkpt lat="45.6436174" lon="8.3892769"><ele>334.0</ele><time>2026-04-12T09:16:58.177Z</time></trkpt><trkpt lat="45.6435383" lon="8.3891508"><ele>333.79999999999995</ele><time>2026-04-12T09:16:59.177Z</time></trkpt><trkpt lat="45.6434705" lon="8.3890249"><ele>333.59999999999997</ele><time>2026-04-12T09:17:00.171Z</time></trkpt><trkpt lat="45.6434176" lon="8.3889016"><ele>333.4</ele><time>2026-04-12T09:17:01.161Z</time></trkpt><trkpt lat="45.6433945" lon="8.3887645"><ele>333.2</ele><time>2026-04-12T09:17:02.174Z</time></trkpt><trkpt lat="45.6433912" lon="8.3886081"><ele>333.0</ele><time>2026-04-12T09:17:03.167Z</time></trkpt><trkpt lat="45.6433999" lon="8.3884584"><ele>333.0</ele><time>2026-04-12T09:17:04.181Z</time></trkpt><trkpt lat="45.64342" lon="8.3883196"><ele>333.0</ele><time>2026-04-12T09:17:05.173Z</time></trkpt><trkpt lat="45.6434733" lon="8.3881944"><ele>333.0</ele><time>2026-04-12T09:17:06.161Z</time></trkpt><trkpt lat="45.6435553" lon="8.3880713"><ele>333.0</ele><time>2026-04-12T09:17:07.17Z</time></trkpt><trkpt lat="45.6436706" lon="8.3879343"><ele>333.0</ele><time>2026-04-12T09:17:08.178Z</time></trkpt><trkpt lat="45.6438303" lon="8.3877929"><ele>333.0</ele><time>2026-04-12T09:17:09.209Z</time></trkpt><trkpt lat="45.6440247" lon="8.387635"><ele>333.0</ele><time>2026-04-12T09:17:10.179Z</time></trkpt><trkpt lat="45.6442437" lon="8.3874657"><ele>334.0</ele><time>2026-04-12T09:17:11.176Z</time></trkpt><trkpt lat="45.6444848" lon="8.3872976"><ele>335.0</ele><time>2026-04-12T09:17:12.174Z</time></trkpt><trkpt lat="45.6447412" lon="8.3871248"><ele>336.0</ele><time>2026-04-12T09:17:13.172Z</time></trkpt><trkpt lat="45.6450246" lon="8.3869443"><ele>337.0</ele><time>2026-04-12T09:17:14.216Z</time></trkpt><trkpt lat="45.6453032" lon="8.3867772"><ele>337.0</ele><time>2026-04-12T09:17:15.173Z</time></trkpt><trkpt lat="45.6455647" lon="8.3866364"><ele>337.0</ele><time>2026-04-12T09:17:16.17Z</time></trkpt><trkpt lat="45.645805" lon="8.386512"><ele>337.0</ele><time>2026-04-12T09:17:17.233Z</time></trkpt><trkpt lat="45.6460373" lon="8.3864045"><ele>337.0</ele><time>2026-04-12T09:17:18.203Z</time></trkpt><trkpt lat="45.6462589" lon="8.3863073"><ele>337.0</ele><time>2026-04-12T09:17:19.179Z</time></trkpt><trkpt lat="45.6464798" lon="8.3862154"><ele>337.0</ele><time>2026-04-12T09:17:20.169Z</time></trkpt><trkpt lat="45.6467016" lon="8.3861331"><ele>337.0</ele><time>2026-04-12T09:17:21.227Z</time></trkpt><trkpt lat="45.6469231" lon="8.386056"><ele>337.0</ele><time>2026-04-12T09:17:22.166Z</time></trkpt><trkpt lat="45.6471396" lon="8.3859849"><ele>336.66666666666663</ele><time>2026-04-12T09:17:23.171Z</time></trkpt><trkpt lat="45.6473525" lon="8.3859246"><ele>336.3333333333333</ele><time>2026-04-12T09:17:24.169Z</time></trkpt><trkpt lat="45.6475546" lon="8.3858728"><ele>336.0</ele><time>2026-04-12T09:17:25.175Z</time></trkpt><trkpt lat="45.6477468" lon="8.3858379"><ele>337.6666666666667</ele><time>2026-04-12T09:17:26.17Z</time></trkpt><trkpt lat="45.647929" lon="8.3858041"><ele>339.33333333333337</ele><time>2026-04-12T09:17:27.168Z</time></trkpt><trkpt lat="45.6481166" lon="8.385772"><ele>341.0</ele><time>2026-04-12T09:17:28.173Z</time></trkpt><trkpt lat="45.6483117" lon="8.3857455"><ele>341.0</ele><time>2026-04-12T09:17:29.153Z</time></trkpt><trkpt lat="45.6485006" lon="8.3857245"><ele>341.0</ele><time>2026-04-12T09:17:30.168Z</time></trkpt><trkpt lat="45.6486946" lon="8.3857098"><ele>341.0</ele><time>2026-04-12T09:17:31.164Z</time></trkpt><trkpt lat="45.6488912" lon="8.3856957"><ele>341.33333333333337</ele><time>2026-04-12T09:17:32.171Z</time></trkpt><trkpt lat="45.6490934" lon="8.3856897"><ele>341.6666666666667</ele><time>2026-04-12T09:17:33.204Z</time></trkpt><trkpt lat="45.6492991" lon="8.3856888"><ele>342.0</ele><time>2026-04-12T09:17:34.211Z</time></trkpt><trkpt lat="45.6495089" lon="8.385694"><ele>342.0</ele><time>2026-04-12T09:17:35.205Z</time></trkpt><trkpt lat="45.6497211" lon="8.3856985"><ele>342.0</ele><time>2026-04-12T09:17:36.176Z</time></trkpt><trkpt lat="45.6499334" lon="8.385701"><ele>342.0</ele><time>2026-04-12T09:17:37.172Z</time></trkpt><trkpt lat="45.6501443" lon="8.3857018"><ele>342.3333333333333</ele><time>2026-04-12T09:17:38.171Z</time></trkpt><trkpt lat="45.6503612" lon="8.3857023"><ele>342.66666666666663</ele><time>2026-04-12T09:17:39.179Z</time></trkpt><trkpt lat="45.650578" lon="8.3856991"><ele>343.0</ele><time>2026-04-12T09:17:40.179Z</time></trkpt><trkpt lat="45.650794" lon="8.3856844"><ele>311.0</ele><time>2026-04-12T09:17:41.169Z</time></trkpt><trkpt lat="45.6556358" lon="8.3817805"><ele>311.0</ele><time>2026-04-12T09:18:05.152Z</time></trkpt><trkpt lat="45.6557657" lon="8.3815487"><ele>311.0</ele><time>2026-04-12T09:18:06.179Z</time></trkpt><trkpt lat="45.6558852" lon="8.3812981"><ele>311.0</ele><time>2026-04-12T09:18:07.159Z</time></trkpt><trkpt lat="45.6559908" lon="8.3811119"><ele>309.33333333333337</ele><time>2026-04-12T09:18:08.175Z</time></trkpt><trkpt lat="45.6561042" lon="8.3808741"><ele>307.6666666666667</ele><time>2026-04-12T09:18:09.17Z</time></trkpt><trkpt lat="45.6562214" lon="8.380612"><ele>306.0</ele><time>2026-04-12T09:18:10.171Z</time></trkpt><trkpt lat="45.6563368" lon="8.3803546"><ele>304.6666666666667</ele><time>2026-04-12T09:18:11.175Z</time></trkpt><trkpt lat="45.6564514" lon="8.3800924"><ele>303.33333333333337</ele><time>2026-04-12T09:18:12.17Z</time></trkpt><trkpt lat="45.6565615" lon="8.3798344"><ele>302.0</ele><time>2026-04-12T09:18:13.169Z</time></trkpt><trkpt lat="45.6566718" lon="8.3795719"><ele>302.0</ele><time>2026-04-12T09:18:14.185Z</time></trkpt><trkpt lat="45.6567789" lon="8.3793107"><ele>302.0</ele><time>2026-04-12T09:18:15.217Z</time></trkpt><trkpt lat="45.6568912" lon="8.3790493"><ele>302.0</ele><time>2026-04-12T09:18:16.184Z</time></trkpt><trkpt lat="45.6570016" lon="8.3787859"><ele>301.6666666666667</ele><time>2026-04-12T09:18:17.179Z</time></trkpt><trkpt lat="45.6571127" lon="8.3785232"><ele>301.3333333333333</ele><time>2026-04-12T09:18:18.177Z</time></trkpt><trkpt lat="45.6572226" lon="8.3782616"><ele>301.0</ele><time>2026-04-12T09:18:19.176Z</time></trkpt><trkpt lat="45.6573362" lon="8.3779977"><ele>301.0</ele><time>2026-04-12T09:18:20.21Z</time></trkpt><trkpt lat="45.6574457" lon="8.3777368"><ele>301.0</ele><time>2026-04-12T09:18:21.167Z</time></trkpt><trkpt lat="45.657556" lon="8.3774737"><ele>301.0</ele><time>2026-04-12T09:18:22.174Z</time></trkpt><trkpt lat="45.6576641" lon="8.3772076"><ele>300.3333333333333</ele><time>2026-04-12T09:18:23.168Z</time></trkpt><trkpt lat="45.6577735" lon="8.3769378"><ele>299.6666666666667</ele><time>2026-04-12T09:18:24.173Z</time></trkpt><trkpt lat="45.6578847" lon="8.3766685"><ele>299.0</ele><time>2026-04-12T09:18:25.182Z</time></trkpt><trkpt lat="45.6579953" lon="8.3764034"><ele>299.0</ele><time>2026-04-12T09:18:26.211Z</time></trkpt><trkpt lat="45.6581058" lon="8.3761413"><ele>299.0</ele><time>2026-04-12T09:18:27.168Z</time></trkpt><trkpt lat="45.6582187" lon="8.3758736"><ele>299.0</ele><time>2026-04-12T09:18:28.169Z</time></trkpt><trkpt lat="45.6583367" lon="8.3755924"><ele>300.5</ele><time>2026-04-12T09:18:29.176Z</time></trkpt><trkpt lat="45.6584585" lon="8.3753144"><ele>302.0</ele><time>2026-04-12T09:18:30.173Z</time></trkpt><trkpt lat="45.6585938" lon="8.3749907"><ele>300.0</ele><time>2026-04-12T09:18:31.172Z</time></trkpt><trkpt lat="45.6587419" lon="8.3746273"><ele>298.0</ele><time>2026-04-12T09:18:32.177Z</time></trkpt><trkpt lat="45.6588999" lon="8.3742358"><ele>298.0</ele><time>2026-04-12T09:18:33.168Z</time></trkpt><trkpt lat="45.6590516" lon="8.3738694"><ele>298.0</ele><time>2026-04-12T09:18:34.153Z</time></trkpt><trkpt lat="45.6592048" lon="8.3735102"><ele>299.5</ele><time>2026-04-12T09:18:35.167Z</time></trkpt><trkpt lat="45.6593647" lon="8.3731587"><ele>301.0</ele><time>2026-04-12T09:18:36.202Z</time></trkpt><trkpt lat="45.659523" lon="8.3728131"><ele>301.0</ele><time>2026-04-12T09:18:37.169Z</time></trkpt><trkpt lat="45.6596814" lon="8.3724649"><ele>301.0</ele><time>2026-04-12T09:18:38.171Z</time></trkpt><trkpt lat="45.6598406" lon="8.3721223"><ele>301.0</ele><time>2026-04-12T09:18:39.183Z</time></trkpt><trkpt lat="45.6600047" lon="8.3717949"><ele>301.0</ele><time>2026-04-12T09:18:40.166Z</time></trkpt><trkpt lat="45.6601726" lon="8.3714831"><ele>301.0</ele><time>2026-04-12T09:18:41.172Z</time></trkpt><trkpt lat="45.6603413" lon="8.3711808"><ele>301.0</ele><time>2026-04-12T09:18:42.171Z</time></trkpt><trkpt lat="45.6605154" lon="8.3708772"><ele>301.0</ele><time>2026-04-12T09:18:43.177Z</time></trkpt><trkpt lat="45.6607001" lon="8.3705747"><ele>301.0</ele><time>2026-04-12T09:18:44.186Z</time></trkpt><trkpt lat="45.660891" lon="8.3702659"><ele>300.0</ele><time>2026-04-12T09:18:45.164Z</time></trkpt><trkpt lat="45.661081" lon="8.3699593"><ele>299.0</ele><time>2026-04-12T09:18:46.178Z</time></trkpt><trkpt lat="45.6612827" lon="8.3696541"><ele>296.0</ele><time>2026-04-12T09:18:47.169Z</time></trkpt><trkpt lat="45.6614969" lon="8.3693501"><ele>293.0</ele><time>2026-04-12T09:18:48.174Z</time></trkpt><trkpt lat="45.6617164" lon="8.3690457"><ele>293.5</ele><time>2026-04-12T09:18:49.171Z</time></trkpt><trkpt lat="45.6619452" lon="8.3687479"><ele>294.0</ele><time>2026-04-12T09:18:50.172Z</time></trkpt><trkpt lat="45.6621792" lon="8.368455"><ele>294.5</ele><time>2026-04-12T09:18:51.168Z</time></trkpt><trkpt lat="45.6624109" lon="8.3681535"><ele>295.0</ele><time>2026-04-12T09:18:52.17Z</time></trkpt><trkpt lat="45.6626311" lon="8.3678486"><ele>296.0</ele><time>2026-04-12T09:18:53.168Z</time></trkpt><trkpt lat="45.6628524" lon="8.3675618"><ele>297.0</ele><time>2026-04-12T09:18:54.177Z</time></trkpt><trkpt lat="45.663069" lon="8.367285"><ele>297.0</ele><time>2026-04-12T09:18:55.181Z</time></trkpt><trkpt lat="45.6632744" lon="8.3670043"><ele>297.0</ele><time>2026-04-12T09:18:56.166Z</time></trkpt><trkpt lat="45.6634877" lon="8.3667311"><ele>297.5</ele><time>2026-04-12T09:18:57.165Z</time></trkpt><trkpt lat="45.6636977" lon="8.3664589"><ele>298.0</ele><time>2026-04-12T09:18:58.173Z</time></trkpt><trkpt lat="45.6639084" lon="8.3661791"><ele>298.5</ele><time>2026-04-12T09:18:59.184Z</time></trkpt><trkpt lat="45.664117" lon="8.3659063"><ele>299.0</ele><time>2026-04-12T09:19:00.171Z</time></trkpt><trkpt lat="45.6643232" lon="8.3656401"><ele>299.5</ele><time>2026-04-12T09:19:01.177Z</time></trkpt><trkpt lat="45.664529" lon="8.3653685"><ele>300.0</ele><time>2026-04-12T09:19:02.172Z</time></trkpt><trkpt lat="45.664731" lon="8.3651001"><ele>300.0</ele><time>2026-04-12T09:19:03.175Z</time></trkpt><trkpt lat="45.6649245" lon="8.3648285"><ele>300.0</ele><time>2026-04-12T09:19:04.167Z</time></trkpt><trkpt lat="45.6651236" lon="8.3645554"><ele>300.0</ele><time>2026-04-12T09:19:05.174Z</time></trkpt><trkpt lat="45.665323" lon="8.3642939"><ele>300.0</ele><time>2026-04-12T09:19:06.167Z</time></trkpt><trkpt lat="45.6655196" lon="8.3640259"><ele>301.5</ele><time>2026-04-12T09:19:07.175Z</time></trkpt><trkpt lat="45.6657097" lon="8.3637767"><ele>303.0</ele><time>2026-04-12T09:19:08.162Z</time></trkpt><trkpt lat="45.6658935" lon="8.3635452"><ele>303.0</ele><time>2026-04-12T09:19:09.156Z</time></trkpt><trkpt lat="45.666064" lon="8.3633219"><ele>303.0</ele><time>2026-04-12T09:19:10.207Z</time></trkpt><trkpt lat="45.6662285" lon="8.363107"><ele>302.3333333333333</ele><time>2026-04-12T09:19:11.169Z</time></trkpt><trkpt lat="45.6663911" lon="8.3628936"><ele>301.66666666666663</ele><time>2026-04-12T09:19:12.169Z</time></trkpt><trkpt lat="45.6665545" lon="8.362681"><ele>301.0</ele><time>2026-04-12T09:19:13.174Z</time></trkpt><trkpt lat="45.6667159" lon="8.3624656"><ele>301.0</ele><time>2026-04-12T09:19:14.222Z</time></trkpt><trkpt lat="45.6668747" lon="8.3622552"><ele>301.0</ele><time>2026-04-12T09:19:15.168Z</time></trkpt><trkpt lat="45.6670335" lon="8.3620344"><ele>301.0</ele><time>2026-04-12T09:19:16.165Z</time></trkpt><trkpt lat="45.6671882" lon="8.3618122"><ele>301.0</ele><time>2026-04-12T09:19:17.167Z</time></trkpt><trkpt lat="45.6673394" lon="8.3615851"><ele>301.0</ele><time>2026-04-12T09:19:18.176Z</time></trkpt><trkpt lat="45.6674902" lon="8.3613521"><ele>301.0</ele><time>2026-04-12T09:19:19.179Z</time></trkpt><trkpt lat="45.6676357" lon="8.3611101"><ele>301.0</ele><time>2026-04-12T09:19:20.166Z</time></trkpt><trkpt lat="45.6677741" lon="8.3608619"><ele>301.0</ele><time>2026-04-12T09:19:21.176Z</time></trkpt><trkpt lat="45.6679083" lon="8.3606146"><ele>301.0</ele><time>2026-04-12T09:19:22.171Z</time></trkpt><trkpt lat="45.6680364" lon="8.36036"><ele>301.3333333333333</ele><time>2026-04-12T09:19:23.176Z</time></trkpt><trkpt lat="45.6681575" lon="8.3600972"><ele>301.6666666666667</ele><time>2026-04-12T09:19:24.177Z</time></trkpt><trkpt lat="45.6682735" lon="8.3598301"><ele>302.0</ele><time>2026-04-12T09:19:25.176Z</time></trkpt><trkpt lat="45.6683824" lon="8.3595644"><ele>302.33333333333337</ele><time>2026-04-12T09:19:26.211Z</time></trkpt><trkpt lat="45.6684864" lon="8.3592869"><ele>302.6666666666667</ele><time>2026-04-12T09:19:27.166Z</time></trkpt><trkpt lat="45.6685845" lon="8.359008"><ele>303.0</ele><time>2026-04-12T09:19:28.18Z</time></trkpt><trkpt lat="45.6686788" lon="8.3587271"><ele>303.3333333333333</ele><time>2026-04-12T09:19:29.178Z</time></trkpt><trkpt lat="45.6687747" lon="8.3584444"><ele>303.66666666666663</ele><time>2026-04-12T09:19:30.175Z</time></trkpt><trkpt lat="45.6688535" lon="8.3581501"><ele>304.0</ele><time>2026-04-12T09:19:31.181Z</time></trkpt><trkpt lat="45.6689317" lon="8.357852"><ele>304.0</ele><time>2026-04-12T09:19:32.167Z</time></trkpt><trkpt lat="45.6690031" lon="8.357549"><ele>304.0</ele><time>2026-04-12T09:19:33.177Z</time></trkpt><trkpt lat="45.6690677" lon="8.3572487"><ele>304.0</ele><time>2026-04-12T09:19:34.177Z</time></trkpt><trkpt lat="45.6691303" lon="8.356944"><ele>304.3333333333333</ele><time>2026-04-12T09:19:35.21Z</time></trkpt><trkpt lat="45.6691902" lon="8.356648"><ele>304.6666666666667</ele><time>2026-04-12T09:19:36.178Z</time></trkpt><trkpt lat="45.6692434" lon="8.3563554"><ele>305.0</ele><time>2026-04-12T09:19:37.175Z</time></trkpt><trkpt lat="45.669295" lon="8.3560707"><ele>305.0</ele><time>2026-04-12T09:19:38.177Z</time></trkpt><trkpt lat="45.6693449" lon="8.3557872"><ele>305.0</ele><time>2026-04-12T09:19:39.179Z</time></trkpt><trkpt lat="45.6693913" lon="8.3555134"><ele>305.0</ele><time>2026-04-12T09:19:40.173Z</time></trkpt><trkpt lat="45.6694365" lon="8.3552482"><ele>305.0</ele><time>2026-04-12T09:19:41.168Z</time></trkpt><trkpt lat="45.6694797" lon="8.3549962"><ele>305.0</ele><time>2026-04-12T09:19:42.166Z</time></trkpt><trkpt lat="45.6695218" lon="8.3547425"><ele>305.0</ele><time>2026-04-12T09:19:43.21Z</time></trkpt><trkpt lat="45.6695662" lon="8.3544871"><ele>305.0</ele><time>2026-04-12T09:19:44.18Z</time></trkpt><trkpt lat="45.669612" lon="8.3542327"><ele>305.0</ele><time>2026-04-12T09:19:45.208Z</time></trkpt><trkpt lat="45.6696521" lon="8.3539856"><ele>305.0</ele><time>2026-04-12T09:19:46.2Z</time></trkpt><trkpt lat="45.6696933" lon="8.3537537"><ele>304.6666666666667</ele><time>2026-04-12T09:19:47.164Z</time></trkpt><trkpt lat="45.6697258" lon="8.3535304"><ele>304.3333333333333</ele><time>2026-04-12T09:19:48.164Z</time></trkpt><trkpt lat="45.6697623" lon="8.3533213"><ele>304.0</ele><time>2026-04-12T09:19:49.213Z</time></trkpt><trkpt lat="45.6697961" lon="8.353126"><ele>304.5</ele><time>2026-04-12T09:19:50.17Z</time></trkpt><trkpt lat="45.6698259" lon="8.3529448"><ele>305.0</ele><time>2026-04-12T09:19:51.205Z</time></trkpt><trkpt lat="45.6698528" lon="8.3527741"><ele>305.5</ele><time>2026-04-12T09:19:52.165Z</time></trkpt><trkpt lat="45.6698808" lon="8.3526088"><ele>306.0</ele><time>2026-04-12T09:19:53.165Z</time></trkpt><trkpt lat="45.6699034" lon="8.3524634"><ele>306.0</ele><time>2026-04-12T09:19:54.206Z</time></trkpt><trkpt lat="45.6699257" lon="8.3523228"><ele>306.0</ele><time>2026-04-12T09:19:55.174Z</time></trkpt><trkpt lat="45.6699476" lon="8.3521938"><ele>306.0</ele><time>2026-04-12T09:19:56.165Z</time></trkpt><trkpt lat="45.6699709" lon="8.3520796"><ele>306.0</ele><time>2026-04-12T09:19:57.171Z</time></trkpt><trkpt lat="45.6699992" lon="8.351962"><ele>306.0</ele><time>2026-04-12T09:19:58.169Z</time></trkpt><trkpt lat="45.6700303" lon="8.3518413"><ele>306.0</ele><time>2026-04-12T09:19:59.164Z</time></trkpt><trkpt lat="45.6700677" lon="8.3517274"><ele>306.0</ele><time>2026-04-12T09:20:00.178Z</time></trkpt><trkpt lat="45.6701088" lon="8.3516166"><ele>306.0</ele><time>2026-04-12T09:20:01.175Z</time></trkpt><trkpt lat="45.6701535" lon="8.3515249"><ele>306.0</ele><time>2026-04-12T09:20:02.172Z</time></trkpt><trkpt lat="45.6702163" lon="8.3513866"><ele>306.0</ele><time>2026-04-12T09:20:04.216Z</time></trkpt><trkpt lat="45.6702609" lon="8.3513032"><ele>306.0</ele><time>2026-04-12T09:20:06.168Z</time></trkpt><trkpt lat="45.6703144" lon="8.3512058"><ele>306.1666666666667</ele><time>2026-04-12T09:20:09.181Z</time></trkpt><trkpt lat="45.6704051" lon="8.3511273"><ele>306.3333333333333</ele><time>2026-04-12T09:20:11.168Z</time></trkpt><trkpt lat="45.6705098" lon="8.3510365"><ele>306.5</ele><time>2026-04-12T09:20:13.174Z</time></trkpt><trkpt lat="45.6705578" lon="8.3509711"><ele>306.66666666666663</ele><time>2026-04-12T09:20:14.156Z</time></trkpt><trkpt lat="45.6706079" lon="8.3508931"><ele>306.8333333333333</ele><time>2026-04-12T09:20:15.174Z</time></trkpt><trkpt lat="45.670662" lon="8.3508094"><ele>307.0</ele><time>2026-04-12T09:20:16.168Z</time></trkpt><trkpt lat="45.6707195" lon="8.3507348"><ele>307.0</ele><time>2026-04-12T09:20:17.161Z</time></trkpt><trkpt lat="45.6707727" lon="8.3506689"><ele>307.0</ele><time>2026-04-12T09:20:18.174Z</time></trkpt><trkpt lat="45.6708221" lon="8.3506035"><ele>307.0</ele><time>2026-04-12T09:20:19.162Z</time></trkpt><trkpt lat="45.6708656" lon="8.3505322"><ele>307.0</ele><time>2026-04-12T09:20:20.182Z</time></trkpt><trkpt lat="45.670943" lon="8.3504066"><ele>307.0</ele><time>2026-04-12T09:20:22.178Z</time></trkpt><trkpt lat="45.6710193" lon="8.3502793"><ele>307.0</ele><time>2026-04-12T09:20:24.178Z</time></trkpt><trkpt lat="45.6710827" lon="8.3501722"><ele>307.16666666666663</ele><time>2026-04-12T09:20:26.169Z</time></trkpt><trkpt lat="45.6711618" lon="8.3500488"><ele>307.3333333333333</ele><time>2026-04-12T09:20:28.175Z</time></trkpt><trkpt lat="45.6712458" lon="8.3499217"><ele>307.5</ele><time>2026-04-12T09:20:30.224Z</time></trkpt><trkpt lat="45.6712943" lon="8.3498545"><ele>307.6666666666667</ele><time>2026-04-12T09:20:31.183Z</time></trkpt><trkpt lat="45.6713418" lon="8.3497845"><ele>307.83333333333337</ele><time>2026-04-12T09:20:32.168Z</time></trkpt><trkpt lat="45.6713876" lon="8.3497106"><ele>308.0</ele><time>2026-04-12T09:20:33.171Z</time></trkpt><trkpt lat="45.6714346" lon="8.3496366"><ele>308.0</ele><time>2026-04-12T09:20:34.207Z</time></trkpt><trkpt lat="45.6715251" lon="8.3495046"><ele>308.0</ele><time>2026-04-12T09:20:36.168Z</time></trkpt><trkpt lat="45.6715812" lon="8.3494216"><ele>308.0</ele><time>2026-04-12T09:20:37.169Z</time></trkpt><trkpt lat="45.6716544" lon="8.3493144"><ele>308.0</ele><time>2026-04-12T09:20:38.171Z</time></trkpt><trkpt lat="45.6717494" lon="8.349179"><ele>308.0</ele><time>2026-04-12T09:20:39.173Z</time></trkpt><trkpt lat="45.6718836" lon="8.3489808"><ele>308.0</ele><time>2026-04-12T09:20:40.172Z</time></trkpt><trkpt lat="45.6720391" lon="8.3487592"><ele>308.0</ele><time>2026-04-12T09:20:41.179Z</time></trkpt><trkpt lat="45.6721891" lon="8.348537"><ele>308.0</ele><time>2026-04-12T09:20:42.168Z</time></trkpt><trkpt lat="45.6723286" lon="8.3483445"><ele>308.0</ele><time>2026-04-12T09:20:43.174Z</time></trkpt><trkpt lat="45.6724466" lon="8.3481622"><ele>308.0</ele><time>2026-04-12T09:20:44.176Z</time></trkpt><trkpt lat="45.6725491" lon="8.3480033"><ele>308.0</ele><time>2026-04-12T09:20:45.206Z</time></trkpt><trkpt lat="45.6726436" lon="8.3478517"><ele>308.0</ele><time>2026-04-12T09:20:46.17Z</time></trkpt><trkpt lat="45.6727339" lon="8.3477024"><ele>308.0</ele><time>2026-04-12T09:20:47.179Z</time></trkpt><trkpt lat="45.6728237" lon="8.3475487"><ele>308.0</ele><time>2026-04-12T09:20:48.179Z</time></trkpt><trkpt lat="45.6729135" lon="8.3474001"><ele>308.0</ele><time>2026-04-12T09:20:49.166Z</time></trkpt><trkpt lat="45.6730059" lon="8.347254"><ele>308.5</ele><time>2026-04-12T09:20:50.174Z</time></trkpt><trkpt lat="45.6730922" lon="8.3471086"><ele>309.0</ele><time>2026-04-12T09:20:51.206Z</time></trkpt><trkpt lat="45.6731813" lon="8.3469679"><ele>309.5</ele><time>2026-04-12T09:20:52.172Z</time></trkpt><trkpt lat="45.6732687" lon="8.3468225"><ele>310.0</ele><time>2026-04-12T09:20:53.171Z</time></trkpt><trkpt lat="45.6733601" lon="8.3466658"><ele>310.0</ele><time>2026-04-12T09:20:54.173Z</time></trkpt><trkpt lat="45.6734434" lon="8.3465241"><ele>310.0</ele><time>2026-04-12T09:20:55.167Z</time></trkpt><trkpt lat="45.6735308" lon="8.3463703"><ele>310.0</ele><time>2026-04-12T09:20:56.174Z</time></trkpt><trkpt lat="45.6736197" lon="8.3462161"><ele>310.0</ele><time>2026-04-12T09:20:57.168Z</time></trkpt><trkpt lat="45.6737124" lon="8.3460579"><ele>310.25</ele><time>2026-04-12T09:20:58.163Z</time></trkpt><trkpt lat="45.6738022" lon="8.3459078"><ele>310.5</ele><time>2026-04-12T09:20:59.184Z</time></trkpt><trkpt lat="45.6738931" lon="8.3457566"><ele>310.75</ele><time>2026-04-12T09:21:00.172Z</time></trkpt><trkpt lat="45.6739835" lon="8.3456059"><ele>311.0</ele><time>2026-04-12T09:21:01.182Z</time></trkpt><trkpt lat="45.6740736" lon="8.3454541"><ele>311.0</ele><time>2026-04-12T09:21:02.166Z</time></trkpt><trkpt lat="45.6741642" lon="8.3452891"><ele>311.0</ele><time>2026-04-12T09:21:03.179Z</time></trkpt><trkpt lat="45.6742589" lon="8.3451353"><ele>311.0</ele><time>2026-04-12T09:21:04.183Z</time></trkpt><trkpt lat="45.6743575" lon="8.3449723"><ele>311.0</ele><time>2026-04-12T09:21:05.174Z</time></trkpt><trkpt lat="45.6744491" lon="8.3448103"><ele>311.0</ele><time>2026-04-12T09:21:06.169Z</time></trkpt><trkpt lat="45.6745381" lon="8.3446547"><ele>311.0</ele><time>2026-04-12T09:21:07.179Z</time></trkpt><trkpt lat="45.6746194" lon="8.344515"><ele>311.0</ele><time>2026-04-12T09:21:08.171Z</time></trkpt><trkpt lat="45.6747039" lon="8.3443822"><ele>311.0</ele><time>2026-04-12T09:21:09.203Z</time></trkpt><trkpt lat="45.6747887" lon="8.344249"><ele>311.0</ele><time>2026-04-12T09:21:10.212Z</time></trkpt><trkpt lat="45.6748816" lon="8.3441156"><ele>311.0</ele><time>2026-04-12T09:21:11.176Z</time></trkpt><trkpt lat="45.6749786" lon="8.3439759"><ele>311.0</ele><time>2026-04-12T09:21:12.171Z</time></trkpt><trkpt lat="45.6750874" lon="8.3438293"><ele>311.0</ele><time>2026-04-12T09:21:13.174Z</time></trkpt><trkpt lat="45.6752053" lon="8.3436863"><ele>312.0</ele><time>2026-04-12T09:21:14.207Z</time></trkpt><trkpt lat="45.6753288" lon="8.3435514"><ele>313.0</ele><time>2026-04-12T09:21:15.17Z</time></trkpt><trkpt lat="45.6754522" lon="8.3434312"><ele>314.0</ele><time>2026-04-12T09:21:16.175Z</time></trkpt><trkpt lat="45.6755773" lon="8.3433296"><ele>315.0</ele><time>2026-04-12T09:21:17.207Z</time></trkpt><trkpt lat="45.6756992" lon="8.3432335"><ele>315.0</ele><time>2026-04-12T09:21:18.22Z</time></trkpt><trkpt lat="45.675828" lon="8.3431311"><ele>315.0</ele><time>2026-04-12T09:21:19.187Z</time></trkpt><trkpt lat="45.6759582" lon="8.3430299"><ele>315.0</ele><time>2026-04-12T09:21:20.199Z</time></trkpt><trkpt lat="45.6760923" lon="8.3429263"><ele>315.0</ele><time>2026-04-12T09:21:21.187Z</time></trkpt><trkpt lat="45.67623" lon="8.3428129"><ele>314.6666666666667</ele><time>2026-04-12T09:21:22.163Z</time></trkpt><trkpt lat="45.6763854" lon="8.3426842"><ele>314.33333333333337</ele><time>2026-04-12T09:21:23.174Z</time></trkpt><trkpt lat="45.6765681" lon="8.3425303"><ele>314.0</ele><time>2026-04-12T09:21:24.198Z</time></trkpt><trkpt lat="45.6767708" lon="8.3423612"><ele>313.0</ele><time>2026-04-12T09:21:25.179Z</time></trkpt><trkpt lat="45.6769906" lon="8.3421834"><ele>312.0</ele><time>2026-04-12T09:21:26.174Z</time></trkpt><trkpt lat="45.6771978" lon="8.3420117"><ele>312.0</ele><time>2026-04-12T09:21:27.173Z</time></trkpt><trkpt lat="45.6774002" lon="8.3418499"><ele>312.0</ele><time>2026-04-12T09:21:28.179Z</time></trkpt><trkpt lat="45.6775911" lon="8.3417013"><ele>312.0</ele><time>2026-04-12T09:21:29.152Z</time></trkpt><trkpt lat="45.6777656" lon="8.3415636"><ele>312.0</ele><time>2026-04-12T09:21:30.153Z</time></trkpt><trkpt lat="45.6779235" lon="8.3414286"><ele>312.0</ele><time>2026-04-12T09:21:31.183Z</time></trkpt><trkpt lat="45.6780682" lon="8.3413012"><ele>312.0</ele><time>2026-04-12T09:21:32.175Z</time></trkpt><trkpt lat="45.6782013" lon="8.3411909"><ele>312.0</ele><time>2026-04-12T09:21:33.175Z</time></trkpt><trkpt lat="45.6783261" lon="8.3410875"><ele>312.0</ele><time>2026-04-12T09:21:34.172Z</time></trkpt><trkpt lat="45.678438" lon="8.3409901"><ele>312.0</ele><time>2026-04-12T09:21:35.176Z</time></trkpt><trkpt lat="45.6785432" lon="8.3409024"><ele>312.0</ele><time>2026-04-12T09:21:36.172Z</time></trkpt><trkpt lat="45.6786347" lon="8.3408232"><ele>312.5</ele><time>2026-04-12T09:21:37.167Z</time></trkpt><trkpt lat="45.6787165" lon="8.3407638"><ele>313.0</ele><time>2026-04-12T09:21:38.168Z</time></trkpt><trkpt lat="45.6787876" lon="8.3407056"><ele>313.5</ele><time>2026-04-12T09:21:39.17Z</time></trkpt><trkpt lat="45.6788494" lon="8.3406672"><ele>314.0</ele><time>2026-04-12T09:21:40.206Z</time></trkpt><trkpt lat="45.6789512" lon="8.3406316"><ele>314.5</ele><time>2026-04-12T09:21:42.167Z</time></trkpt><trkpt lat="45.6790321" lon="8.3406686"><ele>315.0</ele><time>2026-04-12T09:21:44.181Z</time></trkpt><trkpt lat="45.6791015" lon="8.340843"><ele>315.0</ele><time>2026-04-12T09:21:46.181Z</time></trkpt><trkpt lat="45.6791395" lon="8.3409769"><ele>315.0</ele><time>2026-04-12T09:21:47.163Z</time></trkpt><trkpt lat="45.6791864" lon="8.3411335"><ele>315.0</ele><time>2026-04-12T09:21:48.169Z</time></trkpt><trkpt lat="45.6792361" lon="8.341282"><ele>315.0</ele><time>2026-04-12T09:21:49.18Z</time></trkpt><trkpt lat="45.6792841" lon="8.3414282"><ele>315.0</ele><time>2026-04-12T09:21:50.173Z</time></trkpt><trkpt lat="45.679338" lon="8.3415592"><ele>315.25</ele><time>2026-04-12T09:21:51.171Z</time></trkpt><trkpt lat="45.6793871" lon="8.3416957"><ele>315.5</ele><time>2026-04-12T09:21:52.162Z</time></trkpt><trkpt lat="45.6794384" lon="8.3418452"><ele>315.75</ele><time>2026-04-12T09:21:53.173Z</time></trkpt><trkpt lat="45.6794918" lon="8.3420027"><ele>316.0</ele><time>2026-04-12T09:21:54.216Z</time></trkpt><trkpt lat="45.6795487" lon="8.3421721"><ele>316.75</ele><time>2026-04-12T09:21:55.217Z</time></trkpt><trkpt lat="45.679607" lon="8.3423261"><ele>317.5</ele><time>2026-04-12T09:21:56.166Z</time></trkpt><trkpt lat="45.6796615" lon="8.3424831"><ele>318.25</ele><time>2026-04-12T09:21:57.172Z</time></trkpt><trkpt lat="45.6797214" lon="8.3426492"><ele>319.0</ele><time>2026-04-12T09:21:58.15Z</time></trkpt><trkpt lat="45.6798006" lon="8.3428253"><ele>319.0</ele><time>2026-04-12T09:21:59.16Z</time></trkpt><trkpt lat="45.6798735" lon="8.3430248"><ele>319.0</ele><time>2026-04-12T09:22:00.155Z</time></trkpt><trkpt lat="45.6799483" lon="8.3432391"><ele>319.0</ele><time>2026-04-12T09:22:01.157Z</time></trkpt><trkpt lat="45.6800238" lon="8.3434468"><ele>318.66666666666663</ele><time>2026-04-12T09:22:02.156Z</time></trkpt><trkpt lat="45.6800979" lon="8.3436556"><ele>318.3333333333333</ele><time>2026-04-12T09:22:03.151Z</time></trkpt><trkpt lat="45.6801711" lon="8.3438621"><ele>318.0</ele><time>2026-04-12T09:22:04.161Z</time></trkpt><trkpt lat="45.680246" lon="8.3440699"><ele>318.6666666666667</ele><time>2026-04-12T09:22:05.158Z</time></trkpt><trkpt lat="45.680324" lon="8.3442809"><ele>319.33333333333337</ele><time>2026-04-12T09:22:06.158Z</time></trkpt><trkpt lat="45.6803942" lon="8.3444825"><ele>320.0</ele><time>2026-04-12T09:22:07.167Z</time></trkpt><trkpt lat="45.6804628" lon="8.3446748"><ele>320.33333333333337</ele><time>2026-04-12T09:22:08.155Z</time></trkpt><trkpt lat="45.6805399" lon="8.3448663"><ele>320.6666666666667</ele><time>2026-04-12T09:22:09.174Z</time></trkpt><trkpt lat="45.6806262" lon="8.3450666"><ele>321.0</ele><time>2026-04-12T09:22:10.19Z</time></trkpt><trkpt lat="45.6807138" lon="8.3452662"><ele>321.0</ele><time>2026-04-12T09:22:11.172Z</time></trkpt><trkpt lat="45.6807953" lon="8.345449"><ele>321.0</ele><time>2026-04-12T09:22:12.161Z</time></trkpt><trkpt lat="45.680872" lon="8.3456187"><ele>321.0</ele><time>2026-04-12T09:22:13.172Z</time></trkpt><trkpt lat="45.6809446" lon="8.3457735"><ele>321.0</ele><time>2026-04-12T09:22:14.172Z</time></trkpt><trkpt lat="45.6810111" lon="8.3459112"><ele>321.4</ele><time>2026-04-12T09:22:15.2Z</time></trkpt><trkpt lat="45.6810624" lon="8.3460286"><ele>321.8</ele><time>2026-04-12T09:22:16.168Z</time></trkpt><trkpt lat="45.6811074" lon="8.3461232"><ele>322.2</ele><time>2026-04-12T09:22:17.174Z</time></trkpt><trkpt lat="45.6811672" lon="8.3462576"><ele>322.59999999999997</ele><time>2026-04-12T09:22:19.172Z</time></trkpt><trkpt lat="45.6811964" lon="8.3463811"><ele>323.0</ele><time>2026-04-12T09:22:22.16Z</time></trkpt><trkpt lat="45.6812135" lon="8.3465557"><ele>323.59999999999997</ele><time>2026-04-12T09:22:24.165Z</time></trkpt><trkpt lat="45.6812241" lon="8.3466833"><ele>324.2</ele><time>2026-04-12T09:22:25.171Z</time></trkpt><trkpt lat="45.6812312" lon="8.3468369"><ele>324.8</ele><time>2026-04-12T09:22:26.169Z</time></trkpt><trkpt lat="45.6812406" lon="8.3469885"><ele>325.4</ele><time>2026-04-12T09:22:27.171Z</time></trkpt><trkpt lat="45.6812547" lon="8.3471448"><ele>326.0</ele><time>2026-04-12T09:22:28.17Z</time></trkpt><trkpt lat="45.6812839" lon="8.3473108"><ele>326.5</ele><time>2026-04-12T09:22:29.172Z</time></trkpt><trkpt lat="45.6813286" lon="8.3474909"><ele>327.0</ele><time>2026-04-12T09:22:30.173Z</time></trkpt><trkpt lat="45.6813666" lon="8.3476808"><ele>327.5</ele><time>2026-04-12T09:22:31.173Z</time></trkpt><trkpt lat="45.6814104" lon="8.3478595"><ele>328.0</ele><time>2026-04-12T09:22:32.167Z</time></trkpt><trkpt lat="45.6814466" lon="8.348038"><ele>327.0</ele><time>2026-04-12T09:22:33.167Z</time></trkpt><trkpt lat="45.6814803" lon="8.3482125"><ele>326.0</ele><time>2026-04-12T09:22:34.169Z</time></trkpt><trkpt lat="45.6815187" lon="8.3483871"><ele>325.0</ele><time>2026-04-12T09:22:35.172Z</time></trkpt><trkpt lat="45.681552" lon="8.3485593"><ele>324.0</ele><time>2026-04-12T09:22:36.162Z</time></trkpt><trkpt lat="45.681581" lon="8.348719"><ele>324.0</ele><time>2026-04-12T09:22:37.172Z</time></trkpt><trkpt lat="45.6816082" lon="8.3488695"><ele>324.0</ele><time>2026-04-12T09:22:38.176Z</time></trkpt><trkpt lat="45.6816328" lon="8.34901"><ele>324.0</ele><time>2026-04-12T09:22:39.18Z</time></trkpt><trkpt lat="45.6816574" lon="8.3491519"><ele>324.0</ele><time>2026-04-12T09:22:40.209Z</time></trkpt><trkpt lat="45.6816865" lon="8.3493004"><ele>324.0</ele><time>2026-04-12T09:22:41.181Z</time></trkpt><trkpt lat="45.6817188" lon="8.3494593"><ele>324.0</ele><time>2026-04-12T09:22:42.167Z</time></trkpt><trkpt lat="45.6817531" lon="8.3496241"><ele>324.0</ele><time>2026-04-12T09:22:43.178Z</time></trkpt><trkpt lat="45.6817905" lon="8.3497934"><ele>324.0</ele><time>2026-04-12T09:22:44.176Z</time></trkpt><trkpt lat="45.6818353" lon="8.3499694"><ele>324.0</ele><time>2026-04-12T09:22:45.204Z</time></trkpt><trkpt lat="45.6818747" lon="8.3501477"><ele>323.75</ele><time>2026-04-12T09:22:46.205Z</time></trkpt><trkpt lat="45.6819148" lon="8.3503309"><ele>323.5</ele><time>2026-04-12T09:22:47.176Z</time></trkpt><trkpt lat="45.6819528" lon="8.3505217"><ele>323.25</ele><time>2026-04-12T09:22:48.167Z</time></trkpt><trkpt lat="45.6819878" lon="8.3507218"><ele>323.0</ele><time>2026-04-12T09:22:49.206Z</time></trkpt><trkpt lat="45.682029" lon="8.3509346"><ele>324.33333333333337</ele><time>2026-04-12T09:22:50.185Z</time></trkpt><trkpt lat="45.6820745" lon="8.3511578"><ele>325.6666666666667</ele><time>2026-04-12T09:22:51.213Z</time></trkpt><trkpt lat="45.6821208" lon="8.3513796"><ele>327.0</ele><time>2026-04-12T09:22:52.172Z</time></trkpt><trkpt lat="45.6821632" lon="8.3515764"><ele>327.25</ele><time>2026-04-12T09:22:53.187Z</time></trkpt><trkpt lat="45.6821993" lon="8.3517495"><ele>327.5</ele><time>2026-04-12T09:22:54.181Z</time></trkpt><trkpt lat="45.6822303" lon="8.3519095"><ele>327.75</ele><time>2026-04-12T09:22:55.179Z</time></trkpt><trkpt lat="45.6822602" lon="8.3520627"><ele>328.0</ele><time>2026-04-12T09:22:56.168Z</time></trkpt><trkpt lat="45.6822855" lon="8.3522132"><ele>328.0</ele><time>2026-04-12T09:22:57.165Z</time></trkpt><trkpt lat="45.6823142" lon="8.3523696"><ele>328.0</ele><time>2026-04-12T09:22:58.171Z</time></trkpt><trkpt lat="45.6823535" lon="8.3525284"><ele>328.0</ele><time>2026-04-12T09:22:59.174Z</time></trkpt><trkpt lat="45.6824033" lon="8.3526919"><ele>328.0</ele><time>2026-04-12T09:23:00.167Z</time></trkpt><trkpt lat="45.6824846" lon="8.3528509"><ele>328.0</ele><time>2026-04-12T09:23:01.199Z</time></trkpt><trkpt lat="45.682591" lon="8.3529951"><ele>328.0</ele><time>2026-04-12T09:23:02.177Z</time></trkpt><trkpt lat="45.6827016" lon="8.3531324"><ele>328.0</ele><time>2026-04-12T09:23:03.171Z</time></trkpt><trkpt lat="45.6828285" lon="8.3532712"><ele>329.25</ele><time>2026-04-12T09:23:04.166Z</time></trkpt><trkpt lat="45.6829483" lon="8.3534113"><ele>330.5</ele><time>2026-04-12T09:23:05.171Z</time></trkpt><trkpt lat="45.6830617" lon="8.3535374"><ele>331.75</ele><time>2026-04-12T09:23:06.177Z</time></trkpt><trkpt lat="45.683167" lon="8.3536596"><ele>333.0</ele><time>2026-04-12T09:23:07.165Z</time></trkpt><trkpt lat="45.6832665" lon="8.3537748"><ele>332.5</ele><time>2026-04-12T09:23:08.175Z</time></trkpt><trkpt lat="45.683367" lon="8.3538849"><ele>332.0</ele><time>2026-04-12T09:23:09.167Z</time></trkpt><trkpt lat="45.6834669" lon="8.3539973"><ele>331.5</ele><time>2026-04-12T09:23:10.183Z</time></trkpt><trkpt lat="45.6835597" lon="8.3541128"><ele>331.0</ele><time>2026-04-12T09:23:11.18Z</time></trkpt><trkpt lat="45.6836507" lon="8.3542294"><ele>332.25</ele><time>2026-04-12T09:23:12.163Z</time></trkpt><trkpt lat="45.6837449" lon="8.3543432"><ele>333.5</ele><time>2026-04-12T09:23:13.206Z</time></trkpt><trkpt lat="45.6838385" lon="8.3544549"><ele>334.75</ele><time>2026-04-12T09:23:14.186Z</time></trkpt><trkpt lat="45.6839329" lon="8.3545681"><ele>336.0</ele><time>2026-04-12T09:23:15.172Z</time></trkpt><trkpt lat="45.6840214" lon="8.354681"><ele>335.25</ele><time>2026-04-12T09:23:16.17Z</time></trkpt><trkpt lat="45.6841105" lon="8.3547897"><ele>334.5</ele><time>2026-04-12T09:23:17.167Z</time></trkpt><trkpt lat="45.6842001" lon="8.3548939"><ele>333.75</ele><time>2026-04-12T09:23:18.174Z</time></trkpt><trkpt lat="45.684284" lon="8.3550021"><ele>333.0</ele><time>2026-04-12T09:23:19.181Z</time></trkpt><trkpt lat="45.6843517" lon="8.3551251"><ele>333.0</ele><time>2026-04-12T09:23:20.166Z</time></trkpt><trkpt lat="45.6843892" lon="8.3552664"><ele>333.0</ele><time>2026-04-12T09:23:21.18Z</time></trkpt><trkpt lat="45.684425" lon="8.355424"><ele>333.0</ele><time>2026-04-12T09:23:22.185Z</time></trkpt><trkpt lat="45.6844593" lon="8.355586"><ele>333.0</ele><time>2026-04-12T09:23:23.168Z</time></trkpt><trkpt lat="45.684496" lon="8.3557534"><ele>333.75</ele><time>2026-04-12T09:23:24.177Z</time></trkpt><trkpt lat="45.6845338" lon="8.3559357"><ele>334.5</ele><time>2026-04-12T09:23:25.176Z</time></trkpt><trkpt lat="45.6845664" lon="8.3561208"><ele>335.25</ele><time>2026-04-12T09:23:26.176Z</time></trkpt><trkpt lat="45.6845986" lon="8.356304"><ele>336.0</ele><time>2026-04-12T09:23:27.171Z</time></trkpt><trkpt lat="45.6846296" lon="8.3564777"><ele>336.4</ele><time>2026-04-12T09:23:28.169Z</time></trkpt><trkpt lat="45.6846585" lon="8.3566423"><ele>336.8</ele><time>2026-04-12T09:23:29.227Z</time></trkpt><trkpt lat="45.6846846" lon="8.3567962"><ele>337.2</ele><time>2026-04-12T09:23:30.204Z</time></trkpt><trkpt lat="45.6847103" lon="8.3569444"><ele>337.59999999999997</ele><time>2026-04-12T09:23:31.207Z</time></trkpt><trkpt lat="45.6847392" lon="8.3570857"><ele>338.0</ele><time>2026-04-12T09:23:32.167Z</time></trkpt><trkpt lat="45.6847656" lon="8.3572196"><ele>338.4</ele><time>2026-04-12T09:23:33.172Z</time></trkpt><trkpt lat="45.6847921" lon="8.3573474"><ele>338.79999999999995</ele><time>2026-04-12T09:23:34.201Z</time></trkpt><trkpt lat="45.6848133" lon="8.3574783"><ele>339.2</ele><time>2026-04-12T09:23:35.176Z</time></trkpt><trkpt lat="45.6848376" lon="8.3576067"><ele>339.6</ele><time>2026-04-12T09:23:36.166Z</time></trkpt><trkpt lat="45.6848569" lon="8.3577301"><ele>340.0</ele><time>2026-04-12T09:23:37.168Z</time></trkpt><trkpt lat="45.684873" lon="8.3578613"><ele>340.0</ele><time>2026-04-12T09:23:38.173Z</time></trkpt><trkpt lat="45.6848914" lon="8.3579992"><ele>340.0</ele><time>2026-04-12T09:23:39.17Z</time></trkpt><trkpt lat="45.6849205" lon="8.3581321"><ele>340.0</ele><time>2026-04-12T09:23:40.168Z</time></trkpt><trkpt lat="45.6849679" lon="8.3582661"><ele>340.0</ele><time>2026-04-12T09:23:41.204Z</time></trkpt><trkpt lat="45.6850464" lon="8.3583909"><ele>340.0</ele><time>2026-04-12T09:23:42.162Z</time></trkpt><trkpt lat="45.685145" lon="8.3585019"><ele>340.2</ele><time>2026-04-12T09:23:43.173Z</time></trkpt><trkpt lat="45.6852346" lon="8.3585972"><ele>340.4</ele><time>2026-04-12T09:23:44.206Z</time></trkpt><trkpt lat="45.68528" lon="8.3587126"><ele>340.6</ele><time>2026-04-12T09:23:45.205Z</time></trkpt><trkpt lat="45.6852981" lon="8.358838"><ele>340.8</ele><time>2026-04-12T09:23:46.17Z</time></trkpt><trkpt lat="45.6853193" lon="8.3589681"><ele>341.0</ele><time>2026-04-12T09:23:47.165Z</time></trkpt><trkpt lat="45.6853522" lon="8.3591416"><ele>342.5</ele><time>2026-04-12T09:23:48.177Z</time></trkpt><trkpt lat="45.6854053" lon="8.3592907"><ele>344.0</ele><time>2026-04-12T09:23:49.178Z</time></trkpt><trkpt lat="45.6854536" lon="8.3594682"><ele>345.5</ele><time>2026-04-12T09:23:50.189Z</time></trkpt><trkpt lat="45.6855254" lon="8.3596157"><ele>347.0</ele><time>2026-04-12T09:23:51.17Z</time></trkpt><trkpt lat="45.6856219" lon="8.3597377"><ele>347.5</ele><time>2026-04-12T09:23:52.171Z</time></trkpt><trkpt lat="45.6857329" lon="8.3598149"><ele>348.0</ele><time>2026-04-12T09:23:53.169Z</time></trkpt><trkpt lat="45.6858352" lon="8.3598846"><ele>348.5</ele><time>2026-04-12T09:23:54.214Z</time></trkpt><trkpt lat="45.6859335" lon="8.3599947"><ele>349.0</ele><time>2026-04-12T09:23:55.205Z</time></trkpt><trkpt lat="45.6859962" lon="8.3601149"><ele>349.0</ele><time>2026-04-12T09:23:56.174Z</time></trkpt><trkpt lat="45.6860327" lon="8.3602721"><ele>349.0</ele><time>2026-04-12T09:23:57.169Z</time></trkpt><trkpt lat="45.6860343" lon="8.3604622"><ele>349.0</ele><time>2026-04-12T09:23:58.173Z</time></trkpt><trkpt lat="45.6860262" lon="8.3606666"><ele>349.0</ele><time>2026-04-12T09:23:59.207Z</time></trkpt><trkpt lat="45.6860034" lon="8.3608839"><ele>350.25</ele><time>2026-04-12T09:24:00.21Z</time></trkpt><trkpt lat="45.6859725" lon="8.361074"><ele>351.5</ele><time>2026-04-12T09:24:01.171Z</time></trkpt><trkpt lat="45.6859351" lon="8.3612428"><ele>352.75</ele><time>2026-04-12T09:24:02.165Z</time></trkpt><trkpt lat="45.6858838" lon="8.3614049"><ele>354.0</ele><time>2026-04-12T09:24:03.171Z</time></trkpt><trkpt lat="45.6858191" lon="8.3615557"><ele>355.6</ele><time>2026-04-12T09:24:04.175Z</time></trkpt><trkpt lat="45.6857358" lon="8.3616822"><ele>357.2</ele><time>2026-04-12T09:24:05.19Z</time></trkpt><trkpt lat="45.6856512" lon="8.3617896"><ele>358.8</ele><time>2026-04-12T09:24:06.167Z</time></trkpt><trkpt lat="45.6855897" lon="8.3619064"><ele>360.40000000000003</ele><time>2026-04-12T09:24:07.166Z</time></trkpt><trkpt lat="45.6855488" lon="8.3620173"><ele>362.0</ele><time>2026-04-12T09:24:08.17Z</time></trkpt><trkpt lat="45.6855339" lon="8.3621181"><ele>362.0</ele><time>2026-04-12T09:24:09.176Z</time></trkpt><trkpt lat="45.6855699" lon="8.3622628"><ele>362.0</ele><time>2026-04-12T09:24:11.169Z</time></trkpt><trkpt lat="45.6857272" lon="8.3621656"><ele>362.0</ele><time>2026-04-12T09:24:13.168Z</time></trkpt><trkpt lat="45.6858074" lon="8.362083"><ele>362.0</ele><time>2026-04-12T09:24:14.205Z</time></trkpt><trkpt lat="45.6859394" lon="8.3619085"><ele>362.0</ele><time>2026-04-12T09:24:15.203Z</time></trkpt><trkpt lat="45.6860593" lon="8.3617835"><ele>362.0</ele><time>2026-04-12T09:24:16.183Z</time></trkpt><trkpt lat="45.6861662" lon="8.3616752"><ele>362.0</ele><time>2026-04-12T09:24:17.163Z</time></trkpt><trkpt lat="45.6862669" lon="8.3616016"><ele>362.0</ele><time>2026-04-12T09:24:18.177Z</time></trkpt><trkpt lat="45.6863498" lon="8.3615709"><ele>362.83333333333337</ele><time>2026-04-12T09:24:19.211Z</time></trkpt><trkpt lat="45.6864204" lon="8.3615718"><ele>363.6666666666667</ele><time>2026-04-12T09:24:20.169Z</time></trkpt><trkpt lat="45.6864791" lon="8.3616139"><ele>364.5</ele><time>2026-04-12T09:24:21.175Z</time></trkpt><trkpt lat="45.6864761" lon="8.3617342"><ele>365.3333333333333</ele><time>2026-04-12T09:24:23.178Z</time></trkpt><trkpt lat="45.6864195" lon="8.3618049"><ele>366.16666666666663</ele><time>2026-04-12T09:24:24.177Z</time></trkpt><trkpt lat="45.6863332" lon="8.361863"><ele>367.0</ele><time>2026-04-12T09:24:25.171Z</time></trkpt><trkpt lat="45.686246" lon="8.361944"><ele>367.0</ele><time>2026-04-12T09:24:26.174Z</time></trkpt><trkpt lat="45.6861702" lon="8.3620974"><ele>367.0</ele><time>2026-04-12T09:24:27.163Z</time></trkpt><trkpt lat="45.6861144" lon="8.3622664"><ele>367.0</ele><time>2026-04-12T09:24:28.177Z</time></trkpt><trkpt lat="45.6860589" lon="8.362494"><ele>367.0</ele><time>2026-04-12T09:24:29.188Z</time></trkpt><trkpt lat="45.6860278" lon="8.3627223"><ele>368.3333333333333</ele><time>2026-04-12T09:24:30.178Z</time></trkpt><trkpt lat="45.6860167" lon="8.3629245"><ele>369.6666666666667</ele><time>2026-04-12T09:24:31.164Z</time></trkpt><trkpt lat="45.686025" lon="8.363136"><ele>371.0</ele><time>2026-04-12T09:24:32.165Z</time></trkpt><trkpt lat="45.6860682" lon="8.3633754"><ele>379.6666666666667</ele><time>2026-04-12T09:24:33.176Z</time></trkpt><trkpt lat="45.6861365" lon="8.3636418"><ele>388.33333333333337</ele><time>2026-04-12T09:24:34.191Z</time></trkpt><trkpt lat="45.686159" lon="8.3639335"><ele>397.0</ele><time>2026-04-12T09:24:35.167Z</time></trkpt><trkpt lat="45.686192" lon="8.3641906"><ele>397.75</ele><time>2026-04-12T09:24:36.185Z</time></trkpt><trkpt lat="45.6862166" lon="8.3644153"><ele>398.5</ele><time>2026-04-12T09:24:37.166Z</time></trkpt><trkpt lat="45.6862376" lon="8.3646156"><ele>399.25</ele><time>2026-04-12T09:24:38.169Z</time></trkpt><trkpt lat="45.6862469" lon="8.3647978"><ele>400.0</ele><time>2026-04-12T09:24:39.199Z</time></trkpt><trkpt lat="45.6862496" lon="8.3649795"><ele>402.4</ele><time>2026-04-12T09:24:40.169Z</time></trkpt><trkpt lat="45.686237" lon="8.3651398"><ele>404.8</ele><time>2026-04-12T09:24:41.159Z</time></trkpt><trkpt lat="45.6862217" lon="8.3652949"><ele>407.20000000000005</ele><time>2026-04-12T09:24:42.159Z</time></trkpt><trkpt lat="45.6862008" lon="8.3654245"><ele>409.6</ele><time>2026-04-12T09:24:43.157Z</time></trkpt><trkpt lat="45.6861573" lon="8.365528"><ele>412.0</ele><time>2026-04-12T09:24:44.176Z</time></trkpt><trkpt lat="45.6861008" lon="8.3656295"><ele>411.0</ele><time>2026-04-12T09:24:45.16Z</time></trkpt><trkpt lat="45.6860358" lon="8.3656814"><ele>410.0</ele><time>2026-04-12T09:24:46.159Z</time></trkpt><trkpt lat="45.6859347" lon="8.3656766"><ele>409.0</ele><time>2026-04-12T09:24:47.162Z</time></trkpt><trkpt lat="45.6858294" lon="8.3656598"><ele>408.0</ele><time>2026-04-12T09:24:48.178Z</time></trkpt><trkpt lat="45.6856585" lon="8.3656045"><ele>404.59999999999997</ele><time>2026-04-12T09:24:49.165Z</time></trkpt><trkpt lat="45.6856032" lon="8.3654573"><ele>401.2</ele><time>2026-04-12T09:24:50.197Z</time></trkpt><trkpt lat="45.6855785" lon="8.3653061"><ele>397.8</ele><time>2026-04-12T09:24:51.212Z</time></trkpt><trkpt lat="45.6855452" lon="8.3651808"><ele>394.4</ele><time>2026-04-12T09:24:52.153Z</time></trkpt><trkpt lat="45.6855108" lon="8.3650454"><ele>391.0</ele><time>2026-04-12T09:24:53.157Z</time></trkpt><trkpt lat="45.685469" lon="8.3648509"><ele>391.0</ele><time>2026-04-12T09:24:54.209Z</time></trkpt><trkpt lat="45.6854001" lon="8.3647259"><ele>391.0</ele><time>2026-04-12T09:24:55.198Z</time></trkpt><trkpt lat="45.6853257" lon="8.3645861"><ele>391.0</ele><time>2026-04-12T09:24:56.159Z</time></trkpt><trkpt lat="45.6852177" lon="8.3644973"><ele>391.0</ele><time>2026-04-12T09:24:57.155Z</time></trkpt><trkpt lat="45.6850852" lon="8.364527"><ele>391.5</ele><time>2026-04-12T09:24:58.158Z</time></trkpt><trkpt lat="45.6849846" lon="8.364528"><ele>392.0</ele><time>2026-04-12T09:24:59.202Z</time></trkpt><trkpt lat="45.6848848" lon="8.3645377"><ele>392.5</ele><time>2026-04-12T09:25:00.185Z</time></trkpt><trkpt lat="45.6848152" lon="8.3646599"><ele>393.0</ele><time>2026-04-12T09:25:01.165Z</time></trkpt><trkpt lat="45.6846882" lon="8.3648386"><ele>395.0</ele><time>2026-04-12T09:25:02.158Z</time></trkpt><trkpt lat="45.6846147" lon="8.3649342"><ele>397.0</ele><time>2026-04-12T09:25:03.168Z</time></trkpt><trkpt lat="45.6845465" lon="8.3651115"><ele>399.0</ele><time>2026-04-12T09:25:05.199Z</time></trkpt><trkpt lat="45.6846179" lon="8.3652105"><ele>401.0</ele><time>2026-04-12T09:25:06.168Z</time></trkpt><trkpt lat="45.6846631" lon="8.3653414"><ele>403.0</ele><time>2026-04-12T09:25:07.157Z</time></trkpt><trkpt lat="45.6848233" lon="8.3654661"><ele>404.6666666666667</ele><time>2026-04-12T09:25:08.158Z</time></trkpt><trkpt lat="45.6849398" lon="8.3655792"><ele>406.33333333333337</ele><time>2026-04-12T09:25:09.211Z</time></trkpt><trkpt lat="45.6851107" lon="8.3656628"><ele>408.0</ele><time>2026-04-12T09:25:10.165Z</time></trkpt><trkpt lat="45.6852471" lon="8.3657037"><ele>408.0</ele><time>2026-04-12T09:25:11.163Z</time></trkpt><trkpt lat="45.6853621" lon="8.365745"><ele>408.0</ele><time>2026-04-12T09:25:12.16Z</time></trkpt><trkpt lat="45.6854593" lon="8.3657886"><ele>408.0</ele><time>2026-04-12T09:25:13.154Z</time></trkpt><trkpt lat="45.6855368" lon="8.3658575"><ele>408.0</ele><time>2026-04-12T09:25:14.16Z</time></trkpt><trkpt lat="45.6855869" lon="8.3659409"><ele>408.0</ele><time>2026-04-12T09:25:15.161Z</time></trkpt><trkpt lat="45.6855745" lon="8.3660368"><ele>408.0</ele><time>2026-04-12T09:25:16.175Z</time></trkpt><trkpt lat="45.6854778" lon="8.366195"><ele>408.0</ele><time>2026-04-12T09:25:18.176Z</time></trkpt><trkpt lat="45.6853506" lon="8.3662259"><ele>408.0</ele><time>2026-04-12T09:25:19.216Z</time></trkpt><trkpt lat="45.6852228" lon="8.3662407"><ele>408.0</ele><time>2026-04-12T09:25:20.171Z</time></trkpt><trkpt lat="45.6850884" lon="8.3662788"><ele>408.0</ele><time>2026-04-12T09:25:21.178Z</time></trkpt><trkpt lat="45.6849846" lon="8.3663463"><ele>408.0</ele><time>2026-04-12T09:25:22.167Z</time></trkpt><trkpt lat="45.6848761" lon="8.3664477"><ele>408.0</ele><time>2026-04-12T09:25:23.181Z</time></trkpt><trkpt lat="45.6847874" lon="8.3665864"><ele>408.0</ele><time>2026-04-12T09:25:24.166Z</time></trkpt><trkpt lat="45.6847199" lon="8.3667692"><ele>411.0</ele><time>2026-04-12T09:25:25.163Z</time></trkpt><trkpt lat="45.6846418" lon="8.3669092"><ele>414.0</ele><time>2026-04-12T09:25:26.173Z</time></trkpt><trkpt lat="45.6845614" lon="8.3670518"><ele>417.0</ele><time>2026-04-12T09:25:27.177Z</time></trkpt><trkpt lat="45.6844244" lon="8.36714"><ele>420.0</ele><time>2026-04-12T09:25:28.168Z</time></trkpt><trkpt lat="45.6843422" lon="8.3671634"><ele>421.2</ele><time>2026-04-12T09:25:29.171Z</time></trkpt><trkpt lat="45.6842622" lon="8.3672267"><ele>422.4</ele><time>2026-04-12T09:25:30.184Z</time></trkpt><trkpt lat="45.6842006" lon="8.3673319"><ele>423.6</ele><time>2026-04-12T09:25:31.171Z</time></trkpt><trkpt lat="45.6841746" lon="8.3674456"><ele>424.8</ele><time>2026-04-12T09:25:32.176Z</time></trkpt><trkpt lat="45.6842013" lon="8.3676021"><ele>426.0</ele><time>2026-04-12T09:25:33.172Z</time></trkpt><trkpt lat="45.6842292" lon="8.367749"><ele>426.0</ele><time>2026-04-12T09:25:34.178Z</time></trkpt><trkpt lat="45.68427" lon="8.3678824"><ele>426.0</ele><time>2026-04-12T09:25:35.166Z</time></trkpt><trkpt lat="45.6843274" lon="8.3679719"><ele>426.0</ele><time>2026-04-12T09:25:36.176Z</time></trkpt><trkpt lat="45.6843984" lon="8.3680173"><ele>426.0</ele><time>2026-04-12T09:25:37.166Z</time></trkpt><trkpt lat="45.6844873" lon="8.3680246"><ele>426.0</ele><time>2026-04-12T09:25:38.168Z</time></trkpt><trkpt lat="45.6846148" lon="8.3679317"><ele>426.0</ele><time>2026-04-12T09:25:39.172Z</time></trkpt><trkpt lat="45.6847627" lon="8.3678128"><ele>426.0</ele><time>2026-04-12T09:25:40.174Z</time></trkpt><trkpt lat="45.6849113" lon="8.36766"><ele>426.0</ele><time>2026-04-12T09:25:41.171Z</time></trkpt><trkpt lat="45.6850439" lon="8.3675152"><ele>426.0</ele><time>2026-04-12T09:25:42.173Z</time></trkpt><trkpt lat="45.6851747" lon="8.3673964"><ele>426.0</ele><time>2026-04-12T09:25:43.175Z</time></trkpt><trkpt lat="45.6853067" lon="8.3672986"><ele>426.0</ele><time>2026-04-12T09:25:44.174Z</time></trkpt><trkpt lat="45.6854362" lon="8.3672304"><ele>426.0</ele><time>2026-04-12T09:25:45.173Z</time></trkpt><trkpt lat="45.6855709" lon="8.367181"><ele>425.25</ele><time>2026-04-12T09:25:46.172Z</time></trkpt><trkpt lat="45.6856965" lon="8.3671627"><ele>424.5</ele><time>2026-04-12T09:25:47.167Z</time></trkpt><trkpt lat="45.6858124" lon="8.3671768"><ele>423.75</ele><time>2026-04-12T09:25:48.175Z</time></trkpt><trkpt lat="45.685928" lon="8.3672242"><ele>423.0</ele><time>2026-04-12T09:25:49.176Z</time></trkpt><trkpt lat="45.6860443" lon="8.3673112"><ele>428.25</ele><time>2026-04-12T09:25:50.2Z</time></trkpt><trkpt lat="45.6861466" lon="8.3674427"><ele>433.5</ele><time>2026-04-12T09:25:51.211Z</time></trkpt><trkpt lat="45.6862494" lon="8.3676043"><ele>438.75</ele><time>2026-04-12T09:25:52.166Z</time></trkpt><trkpt lat="45.686343" lon="8.3677629"><ele>444.0</ele><time>2026-04-12T09:25:53.176Z</time></trkpt><trkpt lat="45.6864335" lon="8.3678946"><ele>444.0</ele><time>2026-04-12T09:25:54.17Z</time></trkpt><trkpt lat="45.6865133" lon="8.368005"><ele>444.0</ele><time>2026-04-12T09:25:55.167Z</time></trkpt><trkpt lat="45.6866142" lon="8.3681008"><ele>444.0</ele><time>2026-04-12T09:25:56.17Z</time></trkpt><trkpt lat="45.6867152" lon="8.3681925"><ele>444.0</ele><time>2026-04-12T09:25:57.16Z</time></trkpt><trkpt lat="45.6868005" lon="8.3682768"><ele>445.4</ele><time>2026-04-12T09:25:58.178Z</time></trkpt><trkpt lat="45.6868527" lon="8.3683768"><ele>446.79999999999995</ele><time>2026-04-12T09:25:59.161Z</time></trkpt><trkpt lat="45.6868623" lon="8.3684789"><ele>448.20000000000005</ele><time>2026-04-12T09:26:00.178Z</time></trkpt><trkpt lat="45.6868689" lon="8.3685801"><ele>449.6</ele><time>2026-04-12T09:26:01.17Z</time></trkpt><trkpt lat="45.6867789" lon="8.368707"><ele>451.0</ele><time>2026-04-12T09:26:03.208Z</time></trkpt><trkpt lat="45.6866123" lon="8.3687585"><ele>451.0</ele><time>2026-04-12T09:26:04.178Z</time></trkpt><trkpt lat="45.6865355" lon="8.368858"><ele>451.0</ele><time>2026-04-12T09:26:05.169Z</time></trkpt><trkpt lat="45.6864821" lon="8.3689937"><ele>451.0</ele><time>2026-04-12T09:26:06.167Z</time></trkpt><trkpt lat="45.6864535" lon="8.3691552"><ele>451.0</ele><time>2026-04-12T09:26:07.179Z</time></trkpt><trkpt lat="45.6864086" lon="8.3693084"><ele>451.0</ele><time>2026-04-12T09:26:08.169Z</time></trkpt><trkpt lat="45.6863441" lon="8.3694245"><ele>452.5</ele><time>2026-04-12T09:26:09.171Z</time></trkpt><trkpt lat="45.6862579" lon="8.369523"><ele>454.0</ele><time>2026-04-12T09:26:10.208Z</time></trkpt><trkpt lat="45.6861781" lon="8.3696392"><ele>455.5</ele><time>2026-04-12T09:26:11.18Z</time></trkpt><trkpt lat="45.6861455" lon="8.3698088"><ele>457.0</ele><time>2026-04-12T09:26:12.168Z</time></trkpt><trkpt lat="45.6861378" lon="8.3699729"><ele>461.6666666666667</ele><time>2026-04-12T09:26:13.185Z</time></trkpt><trkpt lat="45.6861471" lon="8.370138"><ele>466.33333333333337</ele><time>2026-04-12T09:26:14.169Z</time></trkpt><trkpt lat="45.6862116" lon="8.3705134"><ele>471.0</ele><time>2026-04-12T09:26:16.182Z</time></trkpt><trkpt lat="45.6862424" lon="8.3706852"><ele>472.25</ele><time>2026-04-12T09:26:17.171Z</time></trkpt><trkpt lat="45.686272" lon="8.3708472"><ele>473.5</ele><time>2026-04-12T09:26:18.18Z</time></trkpt><trkpt lat="45.6862967" lon="8.370998"><ele>474.75</ele><time>2026-04-12T09:26:19.178Z</time></trkpt><trkpt lat="45.6863027" lon="8.3711685"><ele>476.0</ele><time>2026-04-12T09:26:20.165Z</time></trkpt><trkpt lat="45.6862487" lon="8.3713162"><ele>475.6</ele><time>2026-04-12T09:26:21.173Z</time></trkpt><trkpt lat="45.6862119" lon="8.3714679"><ele>475.20000000000005</ele><time>2026-04-12T09:26:22.168Z</time></trkpt><trkpt lat="45.6862038" lon="8.3716105"><ele>474.79999999999995</ele><time>2026-04-12T09:26:23.174Z</time></trkpt><trkpt lat="45.6862358" lon="8.3717449"><ele>474.4</ele><time>2026-04-12T09:26:24.219Z</time></trkpt><trkpt lat="45.6862829" lon="8.3718812"><ele>474.0</ele><time>2026-04-12T09:26:25.171Z</time></trkpt><trkpt lat="45.686291" lon="8.3720352"><ele>474.0</ele><time>2026-04-12T09:26:26.181Z</time></trkpt><trkpt lat="45.686272" lon="8.3721822"><ele>474.0</ele><time>2026-04-12T09:26:27.169Z</time></trkpt><trkpt lat="45.6862732" lon="8.3723187"><ele>474.0</ele><time>2026-04-12T09:26:28.173Z</time></trkpt><trkpt lat="45.6863159" lon="8.3724527"><ele>474.0</ele><time>2026-04-12T09:26:29.162Z</time></trkpt><trkpt lat="45.6863633" lon="8.3725808"><ele>474.0</ele><time>2026-04-12T09:26:30.179Z</time></trkpt><trkpt lat="45.6864192" lon="8.3727144"><ele>472.0</ele><time>2026-04-12T09:26:31.157Z</time></trkpt><trkpt lat="45.6864408" lon="8.3728415"><ele>470.0</ele><time>2026-04-12T09:26:32.164Z</time></trkpt><trkpt lat="45.6864279" lon="8.3729659"><ele>468.0</ele><time>2026-04-12T09:26:33.168Z</time></trkpt><trkpt lat="45.6863767" lon="8.373089"><ele>466.0</ele><time>2026-04-12T09:26:34.171Z</time></trkpt><trkpt lat="45.6863028" lon="8.3731863"><ele>464.0</ele><time>2026-04-12T09:26:35.174Z</time></trkpt><trkpt lat="45.6862219" lon="8.3732995"><ele>464.0</ele><time>2026-04-12T09:26:36.181Z</time></trkpt><trkpt lat="45.6861461" lon="8.3734316"><ele>464.0</ele><time>2026-04-12T09:26:37.173Z</time></trkpt><trkpt lat="45.6860891" lon="8.3735747"><ele>464.0</ele><time>2026-04-12T09:26:38.172Z</time></trkpt><trkpt lat="45.6860504" lon="8.3737129"><ele>464.0</ele><time>2026-04-12T09:26:39.205Z</time></trkpt><trkpt lat="45.6860292" lon="8.373869"><ele>463.79999999999995</ele><time>2026-04-12T09:26:40.179Z</time></trkpt><trkpt lat="45.6860605" lon="8.3739834"><ele>463.59999999999997</ele><time>2026-04-12T09:26:41.179Z</time></trkpt><trkpt lat="45.6860935" lon="8.3740963"><ele>463.4</ele><time>2026-04-12T09:26:42.172Z</time></trkpt><trkpt lat="45.6861726" lon="8.3741823"><ele>463.2</ele><time>2026-04-12T09:26:43.176Z</time></trkpt><trkpt lat="45.6863158" lon="8.3742052"><ele>463.0</ele><time>2026-04-12T09:26:44.204Z</time></trkpt><trkpt lat="45.6863974" lon="8.3742565"><ele>463.00000000000006</ele><time>2026-04-12T09:26:45.206Z</time></trkpt><trkpt lat="45.6864566" lon="8.3743438"><ele>463.0</ele><time>2026-04-12T09:26:46.177Z</time></trkpt><trkpt lat="45.686468" lon="8.3744757"><ele>463.0</ele><time>2026-04-12T09:26:47.172Z</time></trkpt><trkpt lat="45.6864791" lon="8.3745823"><ele>463.0</ele><time>2026-04-12T09:26:48.178Z</time></trkpt><trkpt lat="45.6864385" lon="8.37468"><ele>463.00000000000006</ele><time>2026-04-12T09:26:49.18Z</time></trkpt><trkpt lat="45.6863597" lon="8.3747633"><ele>463.0</ele><time>2026-04-12T09:26:50.178Z</time></trkpt><trkpt lat="45.6863039" lon="8.3748391"><ele>463.75</ele><time>2026-04-12T09:26:51.202Z</time></trkpt><trkpt lat="45.6861297" lon="8.3748525"><ele>464.5</ele><time>2026-04-12T09:26:52.168Z</time></trkpt><trkpt lat="45.6860257" lon="8.3748985"><ele>465.25</ele><time>2026-04-12T09:26:53.171Z</time></trkpt><trkpt lat="45.6859277" lon="8.3749543"><ele>466.0</ele><time>2026-04-12T09:26:54.19Z</time></trkpt><trkpt lat="45.6858673" lon="8.3750412"><ele>460.75</ele><time>2026-04-12T09:26:55.16Z</time></trkpt><trkpt lat="45.6858417" lon="8.3751575"><ele>455.5</ele><time>2026-04-12T09:26:56.154Z</time></trkpt><trkpt lat="45.6858365" lon="8.3752826"><ele>450.25</ele><time>2026-04-12T09:26:57.161Z</time></trkpt><trkpt lat="45.6859377" lon="8.3754457"><ele>445.0</ele><time>2026-04-12T09:26:58.153Z</time></trkpt><trkpt lat="45.6860489" lon="8.3756196"><ele>448.4</ele><time>2026-04-12T09:26:59.16Z</time></trkpt><trkpt lat="45.6861243" lon="8.3757736"><ele>451.8</ele><time>2026-04-12T09:27:00.176Z</time></trkpt><trkpt lat="45.6861758" lon="8.3759266"><ele>455.20000000000005</ele><time>2026-04-12T09:27:01.163Z</time></trkpt><trkpt lat="45.686208" lon="8.3760545"><ele>458.6</ele><time>2026-04-12T09:27:02.168Z</time></trkpt><trkpt lat="45.6862524" lon="8.3761531"><ele>462.0</ele><time>2026-04-12T09:27:03.154Z</time></trkpt><trkpt lat="45.6863161" lon="8.376239"><ele>462.0</ele><time>2026-04-12T09:27:04.217Z</time></trkpt><trkpt lat="45.6864164" lon="8.3763043"><ele>462.0</ele><time>2026-04-12T09:27:05.186Z</time></trkpt><trkpt lat="45.6865428" lon="8.376341"><ele>462.0</ele><time>2026-04-12T09:27:06.174Z</time></trkpt><trkpt lat="45.6866707" lon="8.376391"><ele>462.0</ele><time>2026-04-12T09:27:07.158Z</time></trkpt><trkpt lat="45.6867865" lon="8.3764686"><ele>462.75</ele><time>2026-04-12T09:27:08.166Z</time></trkpt><trkpt lat="45.6868929" lon="8.3765481"><ele>463.5</ele><time>2026-04-12T09:27:09.17Z</time></trkpt><trkpt lat="45.6870082" lon="8.3766464"><ele>464.25</ele><time>2026-04-12T09:27:10.185Z</time></trkpt><trkpt lat="45.6870538" lon="8.376827"><ele>465.0</ele><time>2026-04-12T09:27:11.171Z</time></trkpt><trkpt lat="45.687133" lon="8.3770292"><ele>464.5</ele><time>2026-04-12T09:27:12.172Z</time></trkpt><trkpt lat="45.6872238" lon="8.3772047"><ele>464.0</ele><time>2026-04-12T09:27:13.157Z</time></trkpt><trkpt lat="45.6873091" lon="8.377358"><ele>463.5</ele><time>2026-04-12T09:27:14.207Z</time></trkpt><trkpt lat="45.6873681" lon="8.3775216"><ele>463.0</ele><time>2026-04-12T09:27:15.19Z</time></trkpt><trkpt lat="45.687392" lon="8.3776714"><ele>463.0</ele><time>2026-04-12T09:27:16.164Z</time></trkpt><trkpt lat="45.687405" lon="8.3778208"><ele>463.0</ele><time>2026-04-12T09:27:17.176Z</time></trkpt><trkpt lat="45.6873772" lon="8.3779975"><ele>463.0</ele><time>2026-04-12T09:27:18.175Z</time></trkpt><trkpt lat="45.6873417" lon="8.3781537"><ele>463.0</ele><time>2026-04-12T09:27:19.175Z</time></trkpt><trkpt lat="45.6873113" lon="8.3783024"><ele>464.0</ele><time>2026-04-12T09:27:20.216Z</time></trkpt><trkpt lat="45.6873047" lon="8.3784539"><ele>465.0</ele><time>2026-04-12T09:27:21.17Z</time></trkpt><trkpt lat="45.6873248" lon="8.3785937"><ele>466.0</ele><time>2026-04-12T09:27:22.165Z</time></trkpt><trkpt lat="45.6873768" lon="8.3787279"><ele>467.0</ele><time>2026-04-12T09:27:23.164Z</time></trkpt><trkpt lat="45.6874951" lon="8.3788423"><ele>465.8</ele><time>2026-04-12T09:27:24.19Z</time></trkpt><trkpt lat="45.6876018" lon="8.3789199"><ele>464.6</ele><time>2026-04-12T09:27:25.166Z</time></trkpt><trkpt lat="45.6877044" lon="8.3789735"><ele>463.40000000000003</ele><time>2026-04-12T09:27:26.206Z</time></trkpt><trkpt lat="45.6877729" lon="8.3790562"><ele>462.20000000000005</ele><time>2026-04-12T09:27:27.174Z</time></trkpt><trkpt lat="45.6878084" lon="8.3791627"><ele>461.0</ele><time>2026-04-12T09:27:28.174Z</time></trkpt><trkpt lat="45.6878268" lon="8.3793077"><ele>464.0</ele><time>2026-04-12T09:27:29.182Z</time></trkpt><trkpt lat="45.6878236" lon="8.3794778"><ele>467.0</ele><time>2026-04-12T09:27:30.18Z</time></trkpt><trkpt lat="45.6878136" lon="8.3796741"><ele>470.0</ele><time>2026-04-12T09:27:31.171Z</time></trkpt><trkpt lat="45.6878058" lon="8.379864"><ele>473.0</ele><time>2026-04-12T09:27:32.172Z</time></trkpt><trkpt lat="45.6877994" lon="8.3800338"><ele>473.0</ele><time>2026-04-12T09:27:33.165Z</time></trkpt><trkpt lat="45.6877736" lon="8.3802042"><ele>473.0</ele><time>2026-04-12T09:27:34.19Z</time></trkpt><trkpt lat="45.687735" lon="8.3803778"><ele>473.0</ele><time>2026-04-12T09:27:35.181Z</time></trkpt><trkpt lat="45.6876898" lon="8.3805426"><ele>473.0</ele><time>2026-04-12T09:27:36.173Z</time></trkpt><trkpt lat="45.687652" lon="8.3806878"><ele>471.5</ele><time>2026-04-12T09:27:37.179Z</time></trkpt><trkpt lat="45.6876202" lon="8.3808268"><ele>470.0</ele><time>2026-04-12T09:27:38.169Z</time></trkpt><trkpt lat="45.6875962" lon="8.380972"><ele>468.5</ele><time>2026-04-12T09:27:39.179Z</time></trkpt><trkpt lat="45.6875813" lon="8.3812579"><ele>467.0</ele><time>2026-04-12T09:27:41.169Z</time></trkpt><trkpt lat="45.6875981" lon="8.3813932"><ele>465.6</ele><time>2026-04-12T09:27:42.163Z</time></trkpt><trkpt lat="45.6876302" lon="8.3815213"><ele>464.20000000000005</ele><time>2026-04-12T09:27:43.168Z</time></trkpt><trkpt lat="45.6876702" lon="8.3816419"><ele>462.8</ele><time>2026-04-12T09:27:44.169Z</time></trkpt><trkpt lat="45.6877164" lon="8.3817598"><ele>461.4</ele><time>2026-04-12T09:27:45.186Z</time></trkpt><trkpt lat="45.6877732" lon="8.3818581"><ele>460.0</ele><time>2026-04-12T09:27:46.209Z</time></trkpt><trkpt lat="45.6878437" lon="8.3819303"><ele>458.6</ele><time>2026-04-12T09:27:47.167Z</time></trkpt><trkpt lat="45.6879331" lon="8.3819578"><ele>457.2</ele><time>2026-04-12T09:27:48.174Z</time></trkpt><trkpt lat="45.6880338" lon="8.3819298"><ele>455.79999999999995</ele><time>2026-04-12T09:27:49.203Z</time></trkpt><trkpt lat="45.6881314" lon="8.3818342"><ele>454.4</ele><time>2026-04-12T09:27:50.216Z</time></trkpt><trkpt lat="45.6882357" lon="8.3817258"><ele>453.0</ele><time>2026-04-12T09:27:51.176Z</time></trkpt><trkpt lat="45.6883365" lon="8.3815432"><ele>453.0</ele><time>2026-04-12T09:27:52.171Z</time></trkpt><trkpt lat="45.6884348" lon="8.3814435"><ele>452.99999999999994</ele><time>2026-04-12T09:27:53.179Z</time></trkpt><trkpt lat="45.6885427" lon="8.3813873"><ele>452.99999999999994</ele><time>2026-04-12T09:27:54.176Z</time></trkpt><trkpt lat="45.6886419" lon="8.3813826"><ele>453.0</ele><time>2026-04-12T09:27:55.183Z</time></trkpt><trkpt lat="45.6887386" lon="8.3814469"><ele>453.0</ele><time>2026-04-12T09:27:56.162Z</time></trkpt><trkpt lat="45.6888032" lon="8.3815766"><ele>452.75</ele><time>2026-04-12T09:27:57.173Z</time></trkpt><trkpt lat="45.6888708" lon="8.3817354"><ele>452.5</ele><time>2026-04-12T09:27:58.175Z</time></trkpt><trkpt lat="45.6889119" lon="8.3818889"><ele>452.25</ele><time>2026-04-12T09:27:59.183Z</time></trkpt><trkpt lat="45.6889247" lon="8.3820497"><ele>452.0</ele><time>2026-04-12T09:28:00.178Z</time></trkpt><trkpt lat="45.6888849" lon="8.3822169"><ele>450.0</ele><time>2026-04-12T09:28:01.18Z</time></trkpt><trkpt lat="45.6888311" lon="8.3823909"><ele>448.0</ele><time>2026-04-12T09:28:02.163Z</time></trkpt><trkpt lat="45.6887323" lon="8.3825724"><ele>446.0</ele><time>2026-04-12T09:28:03.169Z</time></trkpt><trkpt lat="45.6885794" lon="8.3827794"><ele>446.0</ele><time>2026-04-12T09:28:04.181Z</time></trkpt><trkpt lat="45.6884694" lon="8.3829613"><ele>446.0</ele><time>2026-04-12T09:28:05.17Z</time></trkpt><trkpt lat="45.6883641" lon="8.3831278"><ele>446.0</ele><time>2026-04-12T09:28:06.161Z</time></trkpt><trkpt lat="45.6882647" lon="8.3832876"><ele>446.0</ele><time>2026-04-12T09:28:07.166Z</time></trkpt><trkpt lat="45.6881678" lon="8.3834408"><ele>446.0</ele><time>2026-04-12T09:28:08.16Z</time></trkpt><trkpt lat="45.6880919" lon="8.3835849"><ele>446.0</ele><time>2026-04-12T09:28:09.161Z</time></trkpt><trkpt lat="45.688" lon="8.3837439"><ele>446.0</ele><time>2026-04-12T09:28:10.165Z</time></trkpt><trkpt lat="45.6879208" lon="8.3839257"><ele>446.0</ele><time>2026-04-12T09:28:11.177Z</time></trkpt><trkpt lat="45.6878544" lon="8.3841505"><ele>446.0</ele><time>2026-04-12T09:28:12.174Z</time></trkpt><trkpt lat="45.6877948" lon="8.3844079"><ele>446.0</ele><time>2026-04-12T09:28:13.171Z</time></trkpt><trkpt lat="45.6877417" lon="8.3846734"><ele>440.66666666666663</ele><time>2026-04-12T09:28:14.168Z</time></trkpt><trkpt lat="45.6876895" lon="8.38493"><ele>435.33333333333337</ele><time>2026-04-12T09:28:15.173Z</time></trkpt><trkpt lat="45.687644" lon="8.3851727"><ele>430.0</ele><time>2026-04-12T09:28:16.174Z</time></trkpt><trkpt lat="45.6875993" lon="8.3854051"><ele>428.33333333333337</ele><time>2026-04-12T09:28:17.166Z</time></trkpt><trkpt lat="45.6875628" lon="8.3856288"><ele>426.66666666666663</ele><time>2026-04-12T09:28:18.174Z</time></trkpt><trkpt lat="45.6875276" lon="8.3858422"><ele>425.0</ele><time>2026-04-12T09:28:19.186Z</time></trkpt><trkpt lat="45.6874908" lon="8.3860491"><ele>425.0</ele><time>2026-04-12T09:28:20.175Z</time></trkpt><trkpt lat="45.6874536" lon="8.3862407"><ele>425.0</ele><time>2026-04-12T09:28:21.157Z</time></trkpt><trkpt lat="45.6874169" lon="8.38643"><ele>425.0</ele><time>2026-04-12T09:28:22.171Z</time></trkpt><trkpt lat="45.687378" lon="8.386615"><ele>425.0</ele><time>2026-04-12T09:28:23.182Z</time></trkpt><trkpt lat="45.687341" lon="8.3867856"><ele>425.0</ele><time>2026-04-12T09:28:24.212Z</time></trkpt><trkpt lat="45.6873095" lon="8.3869568"><ele>425.0</ele><time>2026-04-12T09:28:25.177Z</time></trkpt><trkpt lat="45.6872798" lon="8.3871316"><ele>425.0</ele><time>2026-04-12T09:28:26.203Z</time></trkpt><trkpt lat="45.6872645" lon="8.387317"><ele>425.0</ele><time>2026-04-12T09:28:27.163Z</time></trkpt><trkpt lat="45.6872592" lon="8.3875153"><ele>424.0</ele><time>2026-04-12T09:28:28.175Z</time></trkpt><trkpt lat="45.6872663" lon="8.3877202"><ele>423.0</ele><time>2026-04-12T09:28:29.177Z</time></trkpt><trkpt lat="45.6872786" lon="8.3879248"><ele>422.0</ele><time>2026-04-12T09:28:30.172Z</time></trkpt><trkpt lat="45.6873026" lon="8.388122"><ele>421.0</ele><time>2026-04-12T09:28:31.214Z</time></trkpt><trkpt lat="45.6873188" lon="8.3883056"><ele>419.4</ele><time>2026-04-12T09:28:32.174Z</time></trkpt><trkpt lat="45.6873271" lon="8.3884713"><ele>417.8</ele><time>2026-04-12T09:28:33.158Z</time></trkpt><trkpt lat="45.687316" lon="8.3886254"><ele>416.2</ele><time>2026-04-12T09:28:34.185Z</time></trkpt><trkpt lat="45.6872779" lon="8.3887654"><ele>414.59999999999997</ele><time>2026-04-12T09:28:35.206Z</time></trkpt><trkpt lat="45.6872186" lon="8.3888857"><ele>413.0</ele><time>2026-04-12T09:28:36.181Z</time></trkpt><trkpt lat="45.6871529" lon="8.3889953"><ele>412.79999999999995</ele><time>2026-04-12T09:28:37.17Z</time></trkpt><trkpt lat="45.6870837" lon="8.3891043"><ele>412.6</ele><time>2026-04-12T09:28:38.172Z</time></trkpt><trkpt lat="45.6870162" lon="8.3892156"><ele>412.4</ele><time>2026-04-12T09:28:39.215Z</time></trkpt><trkpt lat="45.6869508" lon="8.3893187"><ele>412.20000000000005</ele><time>2026-04-12T09:28:40.178Z</time></trkpt><trkpt lat="45.6868814" lon="8.3894151"><ele>412.0</ele><time>2026-04-12T09:28:41.213Z</time></trkpt><trkpt lat="45.6868202" lon="8.3895096"><ele>411.50000000000006</ele><time>2026-04-12T09:28:42.171Z</time></trkpt><trkpt lat="45.6867663" lon="8.3895916"><ele>411.0</ele><time>2026-04-12T09:28:43.168Z</time></trkpt><trkpt lat="45.6867188" lon="8.3896645"><ele>410.5</ele><time>2026-04-12T09:28:44.17Z</time></trkpt><trkpt lat="45.6866819" lon="8.3897394"><ele>410.0</ele><time>2026-04-12T09:28:45.173Z</time></trkpt><trkpt lat="45.6866477" lon="8.3898203"><ele>409.50000000000006</ele><time>2026-04-12T09:28:46.191Z</time></trkpt><trkpt lat="45.6866282" lon="8.3899086"><ele>409.0</ele><time>2026-04-12T09:28:47.157Z</time></trkpt><trkpt lat="45.6866134" lon="8.3900706"><ele>409.00000000000006</ele><time>2026-04-12T09:28:49.162Z</time></trkpt><trkpt lat="45.6866092" lon="8.3902189"><ele>409.0</ele><time>2026-04-12T09:28:51.17Z</time></trkpt><trkpt lat="45.6866091" lon="8.3903719"><ele>409.0</ele><time>2026-04-12T09:28:53.178Z</time></trkpt><trkpt lat="45.6866128" lon="8.3904689"><ele>409.0</ele><time>2026-04-12T09:28:54.181Z</time></trkpt><trkpt lat="45.6866232" lon="8.3905664"><ele>409.00000000000006</ele><time>2026-04-12T09:28:55.209Z</time></trkpt><trkpt lat="45.6866333" lon="8.39067"><ele>409.0</ele><time>2026-04-12T09:28:56.173Z</time></trkpt><trkpt lat="45.6866403" lon="8.3907796"><ele>409.33333333333337</ele><time>2026-04-12T09:28:57.171Z</time></trkpt><trkpt lat="45.6866469" lon="8.3908958"><ele>409.6666666666667</ele><time>2026-04-12T09:28:58.167Z</time></trkpt><trkpt lat="45.6866548" lon="8.3910092"><ele>410.0</ele><time>2026-04-12T09:28:59.187Z</time></trkpt><trkpt lat="45.6866618" lon="8.3911229"><ele>410.33333333333337</ele><time>2026-04-12T09:29:00.203Z</time></trkpt><trkpt lat="45.6866718" lon="8.3912193"><ele>410.6666666666667</ele><time>2026-04-12T09:29:01.182Z</time></trkpt><trkpt lat="45.6866796" lon="8.391313"><ele>411.0</ele><time>2026-04-12T09:29:02.167Z</time></trkpt><trkpt lat="45.6866909" lon="8.3914797"><ele>410.0</ele><time>2026-04-12T09:29:04.172Z</time></trkpt><trkpt lat="45.6867027" lon="8.3916221"><ele>409.0</ele><time>2026-04-12T09:29:06.17Z</time></trkpt><trkpt lat="45.6867174" lon="8.3917633"><ele>408.0</ele><time>2026-04-12T09:29:08.174Z</time></trkpt><trkpt lat="45.6867174" lon="8.3919017"><ele>407.0</ele><time>2026-04-12T09:29:10.174Z</time></trkpt><trkpt lat="45.6867179" lon="8.3920608"><ele>406.0</ele><time>2026-04-12T09:29:12.167Z</time></trkpt><trkpt lat="45.6867165" lon="8.3921712"><ele>404.50000000000006</ele><time>2026-04-12T09:29:13.171Z</time></trkpt><trkpt lat="45.6867102" lon="8.3922903"><ele>403.0</ele><time>2026-04-12T09:29:14.185Z</time></trkpt><trkpt lat="45.6866966" lon="8.3924089"><ele>401.5</ele><time>2026-04-12T09:29:15.173Z</time></trkpt><trkpt lat="45.686683" lon="8.3925176"><ele>400.0</ele><time>2026-04-12T09:29:16.207Z</time></trkpt><trkpt lat="45.6866637" lon="8.39262"><ele>398.50000000000006</ele><time>2026-04-12T09:29:17.167Z</time></trkpt><trkpt lat="45.6866462" lon="8.3927243"><ele>397.0</ele><time>2026-04-12T09:29:18.176Z</time></trkpt><trkpt lat="45.6866272" lon="8.3928176"><ele>397.00000000000006</ele><time>2026-04-12T09:29:19.218Z</time></trkpt><trkpt lat="45.6865966" lon="8.3929663"><ele>397.0</ele><time>2026-04-12T09:29:21.172Z</time></trkpt><trkpt lat="45.6865696" lon="8.3930637"><ele>397.0</ele><time>2026-04-12T09:29:23.164Z</time></trkpt><trkpt lat="45.6865411" lon="8.3931609"><ele>397.0</ele><time>2026-04-12T09:29:27.166Z</time></trkpt><trkpt lat="45.6864805" lon="8.3932188"><ele>397.00000000000006</ele><time>2026-04-12T09:34:58.159Z</time></trkpt><trkpt lat="45.6865293" lon="8.3931483"><ele>397.0</ele><time>2026-04-12T09:35:10.176Z</time></trkpt><trkpt lat="45.6865064" lon="8.3932546"><ele>396.83333333333337</ele><time>2026-04-12T09:45:47.174Z</time></trkpt><trkpt lat="45.6865024" lon="8.393356"><ele>396.6666666666667</ele><time>2026-04-12T09:45:49.163Z</time></trkpt><trkpt lat="45.6864927" lon="8.3934586"><ele>396.5</ele><time>2026-04-12T09:45:51.168Z</time></trkpt><trkpt lat="45.686476" lon="8.3935725"><ele>396.33333333333337</ele><time>2026-04-12T09:45:53.153Z</time></trkpt><trkpt lat="45.6864264" lon="8.3937079"><ele>396.1666666666667</ele><time>2026-04-12T09:45:55.165Z</time></trkpt><trkpt lat="45.6863618" lon="8.3938464"><ele>396.0</ele><time>2026-04-12T09:45:57.156Z</time></trkpt><trkpt lat="45.6862781" lon="8.3939918"><ele>395.75</ele><time>2026-04-12T09:45:59.157Z</time></trkpt><trkpt lat="45.6862184" lon="8.3940982"><ele>395.5</ele><time>2026-04-12T09:46:00.158Z</time></trkpt><trkpt lat="45.6861339" lon="8.3942207"><ele>395.25</ele><time>2026-04-12T09:46:01.168Z</time></trkpt><trkpt lat="45.6860362" lon="8.3943284"><ele>395.0</ele><time>2026-04-12T09:46:02.161Z</time></trkpt><trkpt lat="45.6858699" lon="8.3945267"><ele>394.8</ele><time>2026-04-12T09:46:04.167Z</time></trkpt><trkpt lat="45.6857926" lon="8.3946138"><ele>394.6</ele><time>2026-04-12T09:46:05.172Z</time></trkpt><trkpt lat="45.6857188" lon="8.3947001"><ele>394.4</ele><time>2026-04-12T09:46:06.204Z</time></trkpt><trkpt lat="45.6856376" lon="8.3947977"><ele>394.2</ele><time>2026-04-12T09:46:07.161Z</time></trkpt><trkpt lat="45.6855481" lon="8.3949055"><ele>394.0</ele><time>2026-04-12T09:46:08.166Z</time></trkpt><trkpt lat="45.6854603" lon="8.3950072"><ele>394.25</ele><time>2026-04-12T09:46:09.207Z</time></trkpt><trkpt lat="45.6853642" lon="8.3951136"><ele>394.5</ele><time>2026-04-12T09:46:10.197Z</time></trkpt><trkpt lat="45.6852679" lon="8.3952236"><ele>394.75</ele><time>2026-04-12T09:46:11.184Z</time></trkpt><trkpt lat="45.6851723" lon="8.3953401"><ele>395.0</ele><time>2026-04-12T09:46:12.162Z</time></trkpt><trkpt lat="45.6850656" lon="8.3954691"><ele>393.66666666666663</ele><time>2026-04-12T09:46:13.163Z</time></trkpt><trkpt lat="45.6849418" lon="8.3956216"><ele>392.33333333333337</ele><time>2026-04-12T09:46:14.168Z</time></trkpt><trkpt lat="45.6847946" lon="8.3957932"><ele>391.0</ele><time>2026-04-12T09:46:15.169Z</time></trkpt><trkpt lat="45.6846374" lon="8.3959782"><ele>391.0</ele><time>2026-04-12T09:46:16.186Z</time></trkpt><trkpt lat="45.6844933" lon="8.3961447"><ele>391.0</ele><time>2026-04-12T09:46:17.172Z</time></trkpt><trkpt lat="45.6843628" lon="8.396295"><ele>391.0</ele><time>2026-04-12T09:46:18.171Z</time></trkpt><trkpt lat="45.6842411" lon="8.3964411"><ele>391.0</ele><time>2026-04-12T09:46:19.179Z</time></trkpt><trkpt lat="45.6841464" lon="8.3965779"><ele>391.0</ele><time>2026-04-12T09:46:20.17Z</time></trkpt><trkpt lat="45.6840709" lon="8.3967162"><ele>391.0</ele><time>2026-04-12T09:46:21.168Z</time></trkpt><trkpt lat="45.6840108" lon="8.3968583"><ele>391.0</ele><time>2026-04-12T09:46:22.163Z</time></trkpt><trkpt lat="45.6839719" lon="8.396997"><ele>390.25</ele><time>2026-04-12T09:46:23.161Z</time></trkpt><trkpt lat="45.6839369" lon="8.397186"><ele>389.5</ele><time>2026-04-12T09:46:24.164Z</time></trkpt><trkpt lat="45.6839086" lon="8.3973998"><ele>388.75</ele><time>2026-04-12T09:46:25.167Z</time></trkpt><trkpt lat="45.6838857" lon="8.3976172"><ele>388.0</ele><time>2026-04-12T09:46:26.203Z</time></trkpt><trkpt lat="45.6838607" lon="8.3978605"><ele>387.33333333333337</ele><time>2026-04-12T09:46:27.17Z</time></trkpt><trkpt lat="45.6838367" lon="8.3981136"><ele>386.66666666666663</ele><time>2026-04-12T09:46:28.177Z</time></trkpt><trkpt lat="45.6838156" lon="8.3983481"><ele>386.0</ele><time>2026-04-12T09:46:29.173Z</time></trkpt><trkpt lat="45.6837926" lon="8.3985776"><ele>386.0</ele><time>2026-04-12T09:46:30.16Z</time></trkpt><trkpt lat="45.6837725" lon="8.3988056"><ele>386.0</ele><time>2026-04-12T09:46:31.177Z</time></trkpt><trkpt lat="45.6837495" lon="8.3990442"><ele>386.0</ele><time>2026-04-12T09:46:32.167Z</time></trkpt><trkpt lat="45.683724" lon="8.3992715"><ele>385.66666666666663</ele><time>2026-04-12T09:46:33.174Z</time></trkpt><trkpt lat="45.6836903" lon="8.3994863"><ele>385.33333333333337</ele><time>2026-04-12T09:46:34.17Z</time></trkpt><trkpt lat="45.6836439" lon="8.3996986"><ele>385.0</ele><time>2026-04-12T09:46:35.175Z</time></trkpt><trkpt lat="45.6835858" lon="8.3998964"><ele>385.0</ele><time>2026-04-12T09:46:36.176Z</time></trkpt><trkpt lat="45.6835139" lon="8.4000891"><ele>385.0</ele><time>2026-04-12T09:46:37.176Z</time></trkpt><trkpt lat="45.683431" lon="8.4002792"><ele>385.0</ele><time>2026-04-12T09:46:38.209Z</time></trkpt><trkpt lat="45.6833453" lon="8.4004575"><ele>383.33333333333337</ele><time>2026-04-12T09:46:39.189Z</time></trkpt><trkpt lat="45.6832572" lon="8.4006341"><ele>381.6666666666667</ele><time>2026-04-12T09:46:40.168Z</time></trkpt><trkpt lat="45.6831656" lon="8.400814"><ele>380.0</ele><time>2026-04-12T09:46:41.175Z</time></trkpt><trkpt lat="45.683076" lon="8.4009883"><ele>380.0</ele><time>2026-04-12T09:46:42.172Z</time></trkpt><trkpt lat="45.682992" lon="8.4011527"><ele>380.0</ele><time>2026-04-12T09:46:43.176Z</time></trkpt><trkpt lat="45.6829098" lon="8.4013133"><ele>380.0</ele><time>2026-04-12T09:46:44.224Z</time></trkpt><trkpt lat="45.6828287" lon="8.4014653"><ele>380.0</ele><time>2026-04-12T09:46:45.176Z</time></trkpt><trkpt lat="45.6827455" lon="8.4016191"><ele>380.5</ele><time>2026-04-12T09:46:46.222Z</time></trkpt><trkpt lat="45.6826609" lon="8.4017801"><ele>381.0</ele><time>2026-04-12T09:46:47.167Z</time></trkpt><trkpt lat="45.6825719" lon="8.4019495"><ele>381.5</ele><time>2026-04-12T09:46:48.176Z</time></trkpt><trkpt lat="45.6824881" lon="8.4021131"><ele>382.0</ele><time>2026-04-12T09:46:49.173Z</time></trkpt><trkpt lat="45.6823983" lon="8.4022844"><ele>382.0</ele><time>2026-04-12T09:46:50.217Z</time></trkpt><trkpt lat="45.6823069" lon="8.4024577"><ele>382.0</ele><time>2026-04-12T09:46:51.18Z</time></trkpt><trkpt lat="45.6822061" lon="8.4026358"><ele>382.0</ele><time>2026-04-12T09:46:52.165Z</time></trkpt><trkpt lat="45.6820898" lon="8.4028013"><ele>382.0</ele><time>2026-04-12T09:46:53.175Z</time></trkpt><trkpt lat="45.6819697" lon="8.4029437"><ele>382.0</ele><time>2026-04-12T09:46:54.184Z</time></trkpt><trkpt lat="45.6818305" lon="8.4030954"><ele>382.0</ele><time>2026-04-12T09:46:55.209Z</time></trkpt><trkpt lat="45.6816842" lon="8.4032427"><ele>383.3333333333333</ele><time>2026-04-12T09:46:56.175Z</time></trkpt><trkpt lat="45.6815322" lon="8.4033877"><ele>384.66666666666663</ele><time>2026-04-12T09:46:57.166Z</time></trkpt><trkpt lat="45.6813778" lon="8.4035404"><ele>386.0</ele><time>2026-04-12T09:46:58.171Z</time></trkpt><trkpt lat="45.6812241" lon="8.4036883"><ele>386.66666666666663</ele><time>2026-04-12T09:46:59.173Z</time></trkpt><trkpt lat="45.6810727" lon="8.4038334"><ele>387.33333333333337</ele><time>2026-04-12T09:47:00.212Z</time></trkpt><trkpt lat="45.6809229" lon="8.4039713"><ele>388.0</ele><time>2026-04-12T09:47:01.172Z</time></trkpt><trkpt lat="45.6807795" lon="8.4041175"><ele>388.0</ele><time>2026-04-12T09:47:02.177Z</time></trkpt><trkpt lat="45.6806332" lon="8.4042552"><ele>388.0</ele><time>2026-04-12T09:47:03.189Z</time></trkpt><trkpt lat="45.6804928" lon="8.4043802"><ele>388.0</ele><time>2026-04-12T09:47:04.17Z</time></trkpt><trkpt lat="45.6803624" lon="8.4044993"><ele>387.75</ele><time>2026-04-12T09:47:05.181Z</time></trkpt><trkpt lat="45.6802389" lon="8.4046136"><ele>387.5</ele><time>2026-04-12T09:47:06.181Z</time></trkpt><trkpt lat="45.6801214" lon="8.4047228"><ele>387.25</ele><time>2026-04-12T09:47:07.164Z</time></trkpt><trkpt lat="45.6800162" lon="8.4048321"><ele>387.0</ele><time>2026-04-12T09:47:08.16Z</time></trkpt><trkpt lat="45.6799291" lon="8.4049522"><ele>387.6</ele><time>2026-04-12T09:47:09.172Z</time></trkpt><trkpt lat="45.6798619" lon="8.4050905"><ele>388.20000000000005</ele><time>2026-04-12T09:47:10.173Z</time></trkpt><trkpt lat="45.6798064" lon="8.4052359"><ele>388.8</ele><time>2026-04-12T09:47:11.171Z</time></trkpt><trkpt lat="45.6797573" lon="8.4053706"><ele>389.4</ele><time>2026-04-12T09:47:12.171Z</time></trkpt><trkpt lat="45.6797037" lon="8.4054984"><ele>390.0</ele><time>2026-04-12T09:47:13.179Z</time></trkpt><trkpt lat="45.6796618" lon="8.4056094"><ele>390.0</ele><time>2026-04-12T09:47:14.18Z</time></trkpt><trkpt lat="45.6796226" lon="8.405714"><ele>390.0</ele><time>2026-04-12T09:47:15.211Z</time></trkpt><trkpt lat="45.6795859" lon="8.405809"><ele>390.0</ele><time>2026-04-12T09:47:16.212Z</time></trkpt><trkpt lat="45.6795544" lon="8.4059021"><ele>390.0</ele><time>2026-04-12T09:47:17.177Z</time></trkpt><trkpt lat="45.6795208" lon="8.4059839"><ele>390.0</ele><time>2026-04-12T09:47:18.177Z</time></trkpt><trkpt lat="45.6794973" lon="8.4060762"><ele>390.0</ele><time>2026-04-12T09:47:19.194Z</time></trkpt><trkpt lat="45.679472" lon="8.4061782"><ele>390.0</ele><time>2026-04-12T09:47:20.218Z</time></trkpt><trkpt lat="45.6794462" lon="8.406284"><ele>390.1666666666667</ele><time>2026-04-12T09:47:21.18Z</time></trkpt><trkpt lat="45.679413" lon="8.4063928"><ele>390.33333333333337</ele><time>2026-04-12T09:47:22.173Z</time></trkpt><trkpt lat="45.6793882" lon="8.4064994"><ele>390.5</ele><time>2026-04-12T09:47:23.175Z</time></trkpt><trkpt lat="45.6793659" lon="8.406603"><ele>390.6666666666667</ele><time>2026-04-12T09:47:24.183Z</time></trkpt><trkpt lat="45.6793464" lon="8.4067049"><ele>390.83333333333337</ele><time>2026-04-12T09:47:25.174Z</time></trkpt><trkpt lat="45.6793293" lon="8.4068083"><ele>391.0</ele><time>2026-04-12T09:47:26.176Z</time></trkpt><trkpt lat="45.6793177" lon="8.4069059"><ele>391.0</ele><time>2026-04-12T09:47:27.172Z</time></trkpt><trkpt lat="45.6793065" lon="8.4070692"><ele>391.0</ele><time>2026-04-12T09:47:29.184Z</time></trkpt><trkpt lat="45.6793102" lon="8.4072247"><ele>391.0</ele><time>2026-04-12T09:47:31.177Z</time></trkpt><trkpt lat="45.6793932" lon="8.407292"><ele>391.0</ele><time>2026-04-12T09:47:33.176Z</time></trkpt><trkpt lat="45.6794574" lon="8.4072782"><ele>391.0</ele><time>2026-04-12T09:47:34.188Z</time></trkpt><trkpt lat="45.6795216" lon="8.4072381"><ele>390.0</ele><time>2026-04-12T09:47:35.206Z</time></trkpt><trkpt lat="45.6796011" lon="8.4071936"><ele>389.0</ele><time>2026-04-12T09:47:36.174Z</time></trkpt><trkpt lat="45.6796864" lon="8.4071521"><ele>388.0</ele><time>2026-04-12T09:47:37.167Z</time></trkpt><trkpt lat="45.6797777" lon="8.4071122"><ele>387.0</ele><time>2026-04-12T09:47:38.174Z</time></trkpt><trkpt lat="45.6798697" lon="8.40709"><ele>386.0</ele><time>2026-04-12T09:47:39.184Z</time></trkpt><trkpt lat="45.6799605" lon="8.4070826"><ele>385.8</ele><time>2026-04-12T09:47:40.173Z</time></trkpt><trkpt lat="45.6800592" lon="8.4070843"><ele>385.6</ele><time>2026-04-12T09:47:41.208Z</time></trkpt><trkpt lat="45.680161" lon="8.4071022"><ele>385.4</ele><time>2026-04-12T09:47:42.182Z</time></trkpt><trkpt lat="45.6802663" lon="8.4071356"><ele>385.2</ele><time>2026-04-12T09:47:43.182Z</time></trkpt><trkpt lat="45.6803642" lon="8.4071733"><ele>385.0</ele><time>2026-04-12T09:47:44.18Z</time></trkpt><trkpt lat="45.6804593" lon="8.407231"><ele>383.2</ele><time>2026-04-12T09:47:45.21Z</time></trkpt><trkpt lat="45.6805515" lon="8.4072955"><ele>381.4</ele><time>2026-04-12T09:47:46.19Z</time></trkpt><trkpt lat="45.6806389" lon="8.4073673"><ele>379.6</ele><time>2026-04-12T09:47:47.175Z</time></trkpt><trkpt lat="45.6807245" lon="8.4074501"><ele>377.8</ele><time>2026-04-12T09:47:48.176Z</time></trkpt><trkpt lat="45.6808026" lon="8.4075537"><ele>376.0</ele><time>2026-04-12T09:47:49.19Z</time></trkpt><trkpt lat="45.680879" lon="8.407666"><ele>376.0</ele><time>2026-04-12T09:47:50.208Z</time></trkpt><trkpt lat="45.6809491" lon="8.4077996"><ele>376.0</ele><time>2026-04-12T09:47:51.182Z</time></trkpt><trkpt lat="45.6810168" lon="8.4079373"><ele>376.0</ele><time>2026-04-12T09:47:52.173Z</time></trkpt><trkpt lat="45.6810922" lon="8.4080738"><ele>376.0</ele><time>2026-04-12T09:47:53.17Z</time></trkpt><trkpt lat="45.6811632" lon="8.4082163"><ele>373.75</ele><time>2026-04-12T09:47:54.18Z</time></trkpt><trkpt lat="45.6812398" lon="8.4083685"><ele>371.5</ele><time>2026-04-12T09:47:55.193Z</time></trkpt><trkpt lat="45.6813256" lon="8.4085296"><ele>369.25</ele><time>2026-04-12T09:47:56.207Z</time></trkpt><trkpt lat="45.6814136" lon="8.4087042"><ele>367.0</ele><time>2026-04-12T09:47:57.176Z</time></trkpt><trkpt lat="45.6815033" lon="8.4088864"><ele>366.66666666666663</ele><time>2026-04-12T09:47:58.175Z</time></trkpt><trkpt lat="45.6815974" lon="8.4090758"><ele>366.3333333333333</ele><time>2026-04-12T09:47:59.189Z</time></trkpt><trkpt lat="45.6816885" lon="8.4092633"><ele>366.0</ele><time>2026-04-12T09:48:00.179Z</time></trkpt><trkpt lat="45.6817763" lon="8.4094448"><ele>366.0</ele><time>2026-04-12T09:48:01.219Z</time></trkpt><trkpt lat="45.6818613" lon="8.409615"><ele>366.0</ele><time>2026-04-12T09:48:02.172Z</time></trkpt><trkpt lat="45.6819483" lon="8.4097808"><ele>366.0</ele><time>2026-04-12T09:48:03.171Z</time></trkpt><trkpt lat="45.6820334" lon="8.4099445"><ele>366.0</ele><time>2026-04-12T09:48:04.189Z</time></trkpt><trkpt lat="45.6821183" lon="8.4101111"><ele>365.75</ele><time>2026-04-12T09:48:05.178Z</time></trkpt><trkpt lat="45.6822031" lon="8.4102795"><ele>365.5</ele><time>2026-04-12T09:48:06.166Z</time></trkpt><trkpt lat="45.6822907" lon="8.410441"><ele>365.25</ele><time>2026-04-12T09:48:07.18Z</time></trkpt><trkpt lat="45.6823824" lon="8.4106022"><ele>365.0</ele><time>2026-04-12T09:48:08.172Z</time></trkpt><trkpt lat="45.6824747" lon="8.410749"><ele>365.0</ele><time>2026-04-12T09:48:09.194Z</time></trkpt><trkpt lat="45.6825747" lon="8.4108852"><ele>365.0</ele><time>2026-04-12T09:48:10.175Z</time></trkpt><trkpt lat="45.682693" lon="8.4110017"><ele>365.0</ele><time>2026-04-12T09:48:11.179Z</time></trkpt><trkpt lat="45.6828092" lon="8.411108"><ele>365.0</ele><time>2026-04-12T09:48:12.185Z</time></trkpt><trkpt lat="45.6829467" lon="8.4112097"><ele>365.25</ele><time>2026-04-12T09:48:13.171Z</time></trkpt><trkpt lat="45.6830877" lon="8.4113068"><ele>365.5</ele><time>2026-04-12T09:48:14.18Z</time></trkpt><trkpt lat="45.6832163" lon="8.4113971"><ele>365.75</ele><time>2026-04-12T09:48:15.158Z</time></trkpt><trkpt lat="45.6833316" lon="8.4114789"><ele>366.0</ele><time>2026-04-12T09:48:16.174Z</time></trkpt><trkpt lat="45.6834389" lon="8.4115508"><ele>366.75</ele><time>2026-04-12T09:48:17.174Z</time></trkpt><trkpt lat="45.6835422" lon="8.4116236"><ele>367.5</ele><time>2026-04-12T09:48:18.184Z</time></trkpt><trkpt lat="45.683646" lon="8.4116928"><ele>368.25</ele><time>2026-04-12T09:48:19.173Z</time></trkpt><trkpt lat="45.6837412" lon="8.4117639"><ele>369.0</ele><time>2026-04-12T09:48:20.165Z</time></trkpt><trkpt lat="45.6838485" lon="8.4118359"><ele>370.0</ele><time>2026-04-12T09:48:21.171Z</time></trkpt><trkpt lat="45.6839513" lon="8.4119089"><ele>371.0</ele><time>2026-04-12T09:48:22.18Z</time></trkpt><trkpt lat="45.6840527" lon="8.4119826"><ele>372.0</ele><time>2026-04-12T09:48:23.177Z</time></trkpt><trkpt lat="45.6841577" lon="8.412057"><ele>373.0</ele><time>2026-04-12T09:48:24.174Z</time></trkpt><trkpt lat="45.6842628" lon="8.4121243"><ele>373.5</ele><time>2026-04-12T09:48:25.164Z</time></trkpt><trkpt lat="45.6843709" lon="8.412198"><ele>374.0</ele><time>2026-04-12T09:48:26.171Z</time></trkpt><trkpt lat="45.6844826" lon="8.4122679"><ele>374.5</ele><time>2026-04-12T09:48:27.173Z</time></trkpt><trkpt lat="45.6845962" lon="8.4123422"><ele>375.0</ele><time>2026-04-12T09:48:28.179Z</time></trkpt><trkpt lat="45.6847164" lon="8.4124201"><ele>376.25</ele><time>2026-04-12T09:48:29.169Z</time></trkpt><trkpt lat="45.6848411" lon="8.4124961"><ele>377.5</ele><time>2026-04-12T09:48:30.171Z</time></trkpt><trkpt lat="45.6849641" lon="8.4125801"><ele>378.75</ele><time>2026-04-12T09:48:31.174Z</time></trkpt><trkpt lat="45.6850872" lon="8.4126634"><ele>380.0</ele><time>2026-04-12T09:48:32.158Z</time></trkpt><trkpt lat="45.6852082" lon="8.4127436"><ele>380.5</ele><time>2026-04-12T09:48:33.154Z</time></trkpt><trkpt lat="45.6853223" lon="8.4128227"><ele>381.0</ele><time>2026-04-12T09:48:34.167Z</time></trkpt><trkpt lat="45.6854365" lon="8.4129034"><ele>381.5</ele><time>2026-04-12T09:48:35.155Z</time></trkpt><trkpt lat="45.685546" lon="8.4129762"><ele>382.0</ele><time>2026-04-12T09:48:36.174Z</time></trkpt><trkpt lat="45.6856547" lon="8.4130479"><ele>382.20000000000005</ele><time>2026-04-12T09:48:37.173Z</time></trkpt><trkpt lat="45.6857566" lon="8.4131217"><ele>382.4</ele><time>2026-04-12T09:48:38.183Z</time></trkpt><trkpt lat="45.6858587" lon="8.4131874"><ele>382.6</ele><time>2026-04-12T09:48:39.187Z</time></trkpt><trkpt lat="45.6859524" lon="8.4132621"><ele>382.79999999999995</ele><time>2026-04-12T09:48:40.162Z</time></trkpt><trkpt lat="45.6860487" lon="8.413337"><ele>383.0</ele><time>2026-04-12T09:48:41.176Z</time></trkpt><trkpt lat="45.6861457" lon="8.4134118"><ele>383.0</ele><time>2026-04-12T09:48:42.174Z</time></trkpt><trkpt lat="45.6862344" lon="8.4135019"><ele>383.0</ele><time>2026-04-12T09:48:43.18Z</time></trkpt><trkpt lat="45.6863126" lon="8.4136105"><ele>383.0</ele><time>2026-04-12T09:48:44.174Z</time></trkpt><trkpt lat="45.6863785" lon="8.4137318"><ele>383.0</ele><time>2026-04-12T09:48:45.172Z</time></trkpt><trkpt lat="45.6864171" lon="8.4138632"><ele>383.0</ele><time>2026-04-12T09:48:46.157Z</time></trkpt><trkpt lat="45.6864433" lon="8.4140056"><ele>382.5</ele><time>2026-04-12T09:48:47.162Z</time></trkpt><trkpt lat="45.6864539" lon="8.4141631"><ele>382.0</ele><time>2026-04-12T09:48:48.174Z</time></trkpt><trkpt lat="45.6864488" lon="8.4143281"><ele>381.5</ele><time>2026-04-12T09:48:49.171Z</time></trkpt><trkpt lat="45.6864437" lon="8.4144987"><ele>381.0</ele><time>2026-04-12T09:48:50.173Z</time></trkpt><trkpt lat="45.6864344" lon="8.4146752"><ele>379.25</ele><time>2026-04-12T09:48:51.173Z</time></trkpt><trkpt lat="45.6864202" lon="8.4148551"><ele>377.5</ele><time>2026-04-12T09:48:52.175Z</time></trkpt><trkpt lat="45.6864136" lon="8.4150363"><ele>375.75</ele><time>2026-04-12T09:48:53.174Z</time></trkpt><trkpt lat="45.686407" lon="8.4152226"><ele>374.0</ele><time>2026-04-12T09:48:54.161Z</time></trkpt><trkpt lat="45.6864023" lon="8.4154212"><ele>372.0</ele><time>2026-04-12T09:48:55.18Z</time></trkpt><trkpt lat="45.6863984" lon="8.4156339"><ele>370.0</ele><time>2026-04-12T09:48:56.178Z</time></trkpt><trkpt lat="45.6863918" lon="8.4158499"><ele>368.0</ele><time>2026-04-12T09:48:57.171Z</time></trkpt><trkpt lat="45.686388" lon="8.4160805"><ele>368.0</ele><time>2026-04-12T09:48:58.173Z</time></trkpt><trkpt lat="45.6863824" lon="8.4163115"><ele>368.0</ele><time>2026-04-12T09:48:59.185Z</time></trkpt><trkpt lat="45.6863782" lon="8.4165551"><ele>368.0</ele><time>2026-04-12T09:49:00.17Z</time></trkpt><trkpt lat="45.6863683" lon="8.4168097"><ele>367.6666666666667</ele><time>2026-04-12T09:49:01.184Z</time></trkpt><trkpt lat="45.6863583" lon="8.4170704"><ele>367.3333333333333</ele><time>2026-04-12T09:49:02.181Z</time></trkpt><trkpt lat="45.6863528" lon="8.417315"><ele>367.0</ele><time>2026-04-12T09:49:03.184Z</time></trkpt><trkpt lat="45.6863448" lon="8.4175532"><ele>368.3333333333333</ele><time>2026-04-12T09:49:04.184Z</time></trkpt><trkpt lat="45.6863393" lon="8.4177857"><ele>369.6666666666667</ele><time>2026-04-12T09:49:05.178Z</time></trkpt><trkpt lat="45.6863347" lon="8.4180173"><ele>371.0</ele><time>2026-04-12T09:49:06.209Z</time></trkpt><trkpt lat="45.6863314" lon="8.4182589"><ele>372.0</ele><time>2026-04-12T09:49:07.181Z</time></trkpt><trkpt lat="45.6863299" lon="8.4184909"><ele>373.0</ele><time>2026-04-12T09:49:08.17Z</time></trkpt><trkpt lat="45.6863274" lon="8.4187163"><ele>374.0</ele><time>2026-04-12T09:49:09.185Z</time></trkpt><trkpt lat="45.6863266" lon="8.4189312"><ele>374.0</ele><time>2026-04-12T09:49:10.179Z</time></trkpt><trkpt lat="45.6863249" lon="8.4191429"><ele>374.0</ele><time>2026-04-12T09:49:11.172Z</time></trkpt><trkpt lat="45.6863217" lon="8.419351"><ele>374.0</ele><time>2026-04-12T09:49:12.178Z</time></trkpt><trkpt lat="45.6863182" lon="8.4195526"><ele>374.0</ele><time>2026-04-12T09:49:13.171Z</time></trkpt><trkpt lat="45.6863151" lon="8.4197569"><ele>374.0</ele><time>2026-04-12T09:49:14.18Z</time></trkpt><trkpt lat="45.6863106" lon="8.4199672"><ele>374.0</ele><time>2026-04-12T09:49:15.213Z</time></trkpt><trkpt lat="45.6863127" lon="8.4201669"><ele>374.0</ele><time>2026-04-12T09:49:16.212Z</time></trkpt><trkpt lat="45.6863182" lon="8.4203689"><ele>374.0</ele><time>2026-04-12T09:49:17.177Z</time></trkpt><trkpt lat="45.6863252" lon="8.4205712"><ele>374.25</ele><time>2026-04-12T09:49:18.175Z</time></trkpt><trkpt lat="45.68634" lon="8.4207758"><ele>374.5</ele><time>2026-04-12T09:49:19.179Z</time></trkpt><trkpt lat="45.686362" lon="8.4209805"><ele>374.75</ele><time>2026-04-12T09:49:20.177Z</time></trkpt><trkpt lat="45.6863887" lon="8.421184"><ele>375.0</ele><time>2026-04-12T09:49:21.167Z</time></trkpt><trkpt lat="45.6864185" lon="8.421387"><ele>375.0</ele><time>2026-04-12T09:49:22.178Z</time></trkpt><trkpt lat="45.6864449" lon="8.4215957"><ele>375.0</ele><time>2026-04-12T09:49:23.173Z</time></trkpt><trkpt lat="45.6864766" lon="8.4218041"><ele>375.0</ele><time>2026-04-12T09:49:24.157Z</time></trkpt><trkpt lat="45.6865018" lon="8.4220145"><ele>375.0</ele><time>2026-04-12T09:49:25.177Z</time></trkpt><trkpt lat="45.6865314" lon="8.4222247"><ele>374.6666666666667</ele><time>2026-04-12T09:49:26.18Z</time></trkpt><trkpt lat="45.6865637" lon="8.4224363"><ele>374.33333333333337</ele><time>2026-04-12T09:49:27.177Z</time></trkpt><trkpt lat="45.686589" lon="8.4226537"><ele>374.0</ele><time>2026-04-12T09:49:28.177Z</time></trkpt><trkpt lat="45.6866186" lon="8.4228634"><ele>374.0</ele><time>2026-04-12T09:49:29.17Z</time></trkpt><trkpt lat="45.6866496" lon="8.4230841"><ele>374.0</ele><time>2026-04-12T09:49:30.174Z</time></trkpt><trkpt lat="45.6866722" lon="8.4233072"><ele>374.0</ele><time>2026-04-12T09:49:31.163Z</time></trkpt><trkpt lat="45.6866994" lon="8.4235272"><ele>374.0</ele><time>2026-04-12T09:49:32.172Z</time></trkpt><trkpt lat="45.6867219" lon="8.4237317"><ele>374.0</ele><time>2026-04-12T09:49:33.179Z</time></trkpt><trkpt lat="45.6867482" lon="8.4239348"><ele>374.0</ele><time>2026-04-12T09:49:34.213Z</time></trkpt><trkpt lat="45.6867735" lon="8.4241231"><ele>374.0</ele><time>2026-04-12T09:49:35.168Z</time></trkpt><trkpt lat="45.6868001" lon="8.4242938"><ele>374.0</ele><time>2026-04-12T09:49:36.165Z</time></trkpt><trkpt lat="45.6868283" lon="8.4244704"><ele>374.0</ele><time>2026-04-12T09:49:37.174Z</time></trkpt><trkpt lat="45.686854" lon="8.4246318"><ele>374.0</ele><time>2026-04-12T09:49:38.174Z</time></trkpt><trkpt lat="45.6868761" lon="8.4247991"><ele>374.0</ele><time>2026-04-12T09:49:39.186Z</time></trkpt><trkpt lat="45.6868998" lon="8.4249662"><ele>374.5</ele><time>2026-04-12T09:49:40.212Z</time></trkpt><trkpt lat="45.6869248" lon="8.4251304"><ele>375.0</ele><time>2026-04-12T09:49:41.209Z</time></trkpt><trkpt lat="45.6869618" lon="8.4252933"><ele>375.5</ele><time>2026-04-12T09:49:42.179Z</time></trkpt><trkpt lat="45.6870101" lon="8.4254545"><ele>376.0</ele><time>2026-04-12T09:49:43.169Z</time></trkpt><trkpt lat="45.6870666" lon="8.4256105"><ele>376.0</ele><time>2026-04-12T09:49:44.173Z</time></trkpt><trkpt lat="45.6871174" lon="8.4257661"><ele>376.0</ele><time>2026-04-12T09:49:45.173Z</time></trkpt><trkpt lat="45.6872409" lon="8.42608"><ele>376.0</ele><time>2026-04-12T09:49:47.175Z</time></trkpt><trkpt lat="45.6873042" lon="8.4262314"><ele>375.75</ele><time>2026-04-12T09:49:48.187Z</time></trkpt><trkpt lat="45.6873615" lon="8.426388"><ele>375.5</ele><time>2026-04-12T09:49:49.212Z</time></trkpt><trkpt lat="45.6874195" lon="8.4265378"><ele>375.25</ele><time>2026-04-12T09:49:50.214Z</time></trkpt><trkpt lat="45.687471" lon="8.426676"><ele>375.0</ele><time>2026-04-12T09:49:51.183Z</time></trkpt><trkpt lat="45.6875171" lon="8.4268075"><ele>375.0</ele><time>2026-04-12T09:49:52.177Z</time></trkpt><trkpt lat="45.6875598" lon="8.4269185"><ele>375.0</ele><time>2026-04-12T09:49:53.167Z</time></trkpt><trkpt lat="45.6875926" lon="8.4270066"><ele>375.0</ele><time>2026-04-12T09:49:54.203Z</time></trkpt><trkpt lat="45.687651" lon="8.4271546"><ele>375.0</ele><time>2026-04-12T09:49:56.199Z</time></trkpt><trkpt lat="45.6877031" lon="8.4272844"><ele>375.0</ele><time>2026-04-12T09:49:58.174Z</time></trkpt><trkpt lat="45.6877456" lon="8.4273959"><ele>375.3333333333333</ele><time>2026-04-12T09:50:00.208Z</time></trkpt><trkpt lat="45.6877514" lon="8.4274943"><ele>375.6666666666667</ele><time>2026-04-12T09:50:02.175Z</time></trkpt><trkpt lat="45.6876776" lon="8.4275837"><ele>376.0</ele><time>2026-04-12T09:50:04.2Z</time></trkpt><trkpt lat="45.6876079" lon="8.4276353"><ele>376.33333333333337</ele><time>2026-04-12T09:50:05.157Z</time></trkpt><trkpt lat="45.68752" lon="8.4276942"><ele>376.6666666666667</ele><time>2026-04-12T09:50:06.159Z</time></trkpt><trkpt lat="45.6874242" lon="8.4277609"><ele>377.0</ele><time>2026-04-12T09:50:07.175Z</time></trkpt><trkpt lat="45.6873248" lon="8.4278284"><ele>377.0</ele><time>2026-04-12T09:50:08.158Z</time></trkpt><trkpt lat="45.6872278" lon="8.4278997"><ele>377.0</ele><time>2026-04-12T09:50:09.174Z</time></trkpt><trkpt lat="45.6871299" lon="8.4279742"><ele>377.0</ele><time>2026-04-12T09:50:10.174Z</time></trkpt><trkpt lat="45.6870274" lon="8.4280508"><ele>377.0</ele><time>2026-04-12T09:50:11.174Z</time></trkpt><trkpt lat="45.6869281" lon="8.4281195"><ele>377.0</ele><time>2026-04-12T09:50:12.17Z</time></trkpt><trkpt lat="45.6868367" lon="8.4281865"><ele>376.40000000000003</ele><time>2026-04-12T09:50:13.179Z</time></trkpt><trkpt lat="45.6867528" lon="8.4282461"><ele>375.8</ele><time>2026-04-12T09:50:14.168Z</time></trkpt><trkpt lat="45.686673" lon="8.4283077"><ele>375.2</ele><time>2026-04-12T09:50:15.159Z</time></trkpt><trkpt lat="45.6865951" lon="8.4283696"><ele>374.6</ele><time>2026-04-12T09:50:16.175Z</time></trkpt><trkpt lat="45.6865089" lon="8.4284372"><ele>374.0</ele><time>2026-04-12T09:50:17.179Z</time></trkpt><trkpt lat="45.6864027" lon="8.4285251"><ele>374.0</ele><time>2026-04-12T09:50:18.178Z</time></trkpt><trkpt lat="45.6862744" lon="8.4286416"><ele>374.0</ele><time>2026-04-12T09:50:19.214Z</time></trkpt><trkpt lat="45.6861135" lon="8.4287621"><ele>374.0</ele><time>2026-04-12T09:50:20.175Z</time></trkpt><trkpt lat="45.6859367" lon="8.4288776"><ele>373.6666666666667</ele><time>2026-04-12T09:50:21.208Z</time></trkpt><trkpt lat="45.6857556" lon="8.4289987"><ele>373.3333333333333</ele><time>2026-04-12T09:50:22.176Z</time></trkpt><trkpt lat="45.6855712" lon="8.4291293"><ele>373.0</ele><time>2026-04-12T09:50:23.174Z</time></trkpt><trkpt lat="45.6853923" lon="8.4292569"><ele>372.66666666666663</ele><time>2026-04-12T09:50:24.189Z</time></trkpt><trkpt lat="45.6852188" lon="8.4293803"><ele>372.3333333333333</ele><time>2026-04-12T09:50:25.207Z</time></trkpt><trkpt lat="45.6850483" lon="8.4295053"><ele>372.0</ele><time>2026-04-12T09:50:26.18Z</time></trkpt><trkpt lat="45.6848861" lon="8.429623"><ele>371.6666666666667</ele><time>2026-04-12T09:50:27.178Z</time></trkpt><trkpt lat="45.6847308" lon="8.4297427"><ele>371.33333333333337</ele><time>2026-04-12T09:50:28.182Z</time></trkpt><trkpt lat="45.6845817" lon="8.4298492"><ele>371.0</ele><time>2026-04-12T09:50:29.184Z</time></trkpt><trkpt lat="45.6844359" lon="8.4299582"><ele>370.75</ele><time>2026-04-12T09:50:30.185Z</time></trkpt><trkpt lat="45.684299" lon="8.4300639"><ele>370.5</ele><time>2026-04-12T09:50:31.18Z</time></trkpt><trkpt lat="45.6841679" lon="8.4301679"><ele>370.25</ele><time>2026-04-12T09:50:32.177Z</time></trkpt><trkpt lat="45.6840425" lon="8.4302626"><ele>370.0</ele><time>2026-04-12T09:50:33.179Z</time></trkpt><trkpt lat="45.6839242" lon="8.4303316"><ele>370.0</ele><time>2026-04-12T09:50:34.179Z</time></trkpt><trkpt lat="45.6838105" lon="8.4304126"><ele>370.0</ele><time>2026-04-12T09:50:35.173Z</time></trkpt><trkpt lat="45.68369" lon="8.4305052"><ele>370.0</ele><time>2026-04-12T09:50:36.181Z</time></trkpt><trkpt lat="45.6835579" lon="8.430608"><ele>370.0</ele><time>2026-04-12T09:50:37.173Z</time></trkpt><trkpt lat="45.683426" lon="8.4307176"><ele>369.3333333333333</ele><time>2026-04-12T09:50:38.167Z</time></trkpt><trkpt lat="45.6832822" lon="8.4308224"><ele>368.6666666666667</ele><time>2026-04-12T09:50:39.176Z</time></trkpt><trkpt lat="45.6831355" lon="8.4309337"><ele>368.0</ele><time>2026-04-12T09:50:40.171Z</time></trkpt><trkpt lat="45.6829828" lon="8.4310454"><ele>368.0</ele><time>2026-04-12T09:50:41.182Z</time></trkpt><trkpt lat="45.682822" lon="8.4311629"><ele>368.0</ele><time>2026-04-12T09:50:42.171Z</time></trkpt><trkpt lat="45.6826379" lon="8.4312996"><ele>368.0</ele><time>2026-04-12T09:50:43.176Z</time></trkpt><trkpt lat="45.6824382" lon="8.4314468"><ele>368.0</ele><time>2026-04-12T09:50:44.205Z</time></trkpt><trkpt lat="45.6822486" lon="8.4315857"><ele>368.0</ele><time>2026-04-12T09:50:45.181Z</time></trkpt><trkpt lat="45.6820652" lon="8.4317187"><ele>368.0</ele><time>2026-04-12T09:50:46.179Z</time></trkpt><trkpt lat="45.6818891" lon="8.4318488"><ele>367.6666666666667</ele><time>2026-04-12T09:50:47.17Z</time></trkpt><trkpt lat="45.6817163" lon="8.4319783"><ele>367.3333333333333</ele><time>2026-04-12T09:50:48.183Z</time></trkpt><trkpt lat="45.6815466" lon="8.4321018"><ele>367.0</ele><time>2026-04-12T09:50:49.189Z</time></trkpt><trkpt lat="45.6813787" lon="8.432226"><ele>367.0</ele><time>2026-04-12T09:50:50.176Z</time></trkpt><trkpt lat="45.6812108" lon="8.4323527"><ele>367.0</ele><time>2026-04-12T09:50:51.18Z</time></trkpt><trkpt lat="45.6810378" lon="8.4324815"><ele>367.0</ele><time>2026-04-12T09:50:52.17Z</time></trkpt><trkpt lat="45.6808643" lon="8.4326083"><ele>366.0</ele><time>2026-04-12T09:50:53.176Z</time></trkpt><trkpt lat="45.6806921" lon="8.4327362"><ele>365.0</ele><time>2026-04-12T09:50:54.183Z</time></trkpt><trkpt lat="45.6805173" lon="8.4328669"><ele>364.0</ele><time>2026-04-12T09:50:55.212Z</time></trkpt><trkpt lat="45.6803397" lon="8.4329978"><ele>364.0</ele><time>2026-04-12T09:50:56.183Z</time></trkpt><trkpt lat="45.6801571" lon="8.4331323"><ele>364.0</ele><time>2026-04-12T09:50:57.171Z</time></trkpt><trkpt lat="45.679974" lon="8.4332739"><ele>364.0</ele><time>2026-04-12T09:50:58.18Z</time></trkpt><trkpt lat="45.6797851" lon="8.4334122"><ele>364.0</ele><time>2026-04-12T09:50:59.216Z</time></trkpt><trkpt lat="45.6795997" lon="8.4335517"><ele>364.0</ele><time>2026-04-12T09:51:00.169Z</time></trkpt><trkpt lat="45.6794166" lon="8.4336879"><ele>364.0</ele><time>2026-04-12T09:51:01.177Z</time></trkpt><trkpt lat="45.6792383" lon="8.4338218"><ele>363.66666666666663</ele><time>2026-04-12T09:51:02.158Z</time></trkpt><trkpt lat="45.6790621" lon="8.433954"><ele>363.3333333333333</ele><time>2026-04-12T09:51:03.177Z</time></trkpt><trkpt lat="45.6788757" lon="8.4340917"><ele>363.0</ele><time>2026-04-12T09:51:04.184Z</time></trkpt><trkpt lat="45.6786695" lon="8.4342447"><ele>363.0</ele><time>2026-04-12T09:51:05.155Z</time></trkpt><trkpt lat="45.6784499" lon="8.4344141"><ele>363.0</ele><time>2026-04-12T09:51:06.169Z</time></trkpt><trkpt lat="45.6782222" lon="8.4345918"><ele>362.5</ele><time>2026-04-12T09:51:07.177Z</time></trkpt><trkpt lat="45.677984" lon="8.4347738"><ele>362.0</ele><time>2026-04-12T09:51:08.181Z</time></trkpt><trkpt lat="45.6777446" lon="8.4349558"><ele>361.0</ele><time>2026-04-12T09:51:09.172Z</time></trkpt><trkpt lat="45.6774638" lon="8.4351659"><ele>360.0</ele><time>2026-04-12T09:51:10.166Z</time></trkpt><trkpt lat="45.6771743" lon="8.4353706"><ele>360.5</ele><time>2026-04-12T09:51:11.182Z</time></trkpt><trkpt lat="45.6768872" lon="8.4355699"><ele>361.0</ele><time>2026-04-12T09:51:12.169Z</time></trkpt><trkpt lat="45.6766187" lon="8.4357578"><ele>361.0</ele><time>2026-04-12T09:51:13.171Z</time></trkpt><trkpt lat="45.6763518" lon="8.4359519"><ele>361.0</ele><time>2026-04-12T09:51:14.178Z</time></trkpt><trkpt lat="45.6761019" lon="8.4361345"><ele>362.0</ele><time>2026-04-12T09:51:15.18Z</time></trkpt><trkpt lat="45.6758484" lon="8.4363172"><ele>363.0</ele><time>2026-04-12T09:51:16.184Z</time></trkpt><trkpt lat="45.6755912" lon="8.4365031"><ele>363.0</ele><time>2026-04-12T09:51:17.173Z</time></trkpt><trkpt lat="45.6753351" lon="8.4366903"><ele>363.0</ele><time>2026-04-12T09:51:18.178Z</time></trkpt><trkpt lat="45.675084" lon="8.4368765"><ele>362.5</ele><time>2026-04-12T09:51:19.184Z</time></trkpt><trkpt lat="45.6748399" lon="8.4370578"><ele>362.0</ele><time>2026-04-12T09:51:20.179Z</time></trkpt><trkpt lat="45.6746096" lon="8.4372291"><ele>360.5</ele><time>2026-04-12T09:51:21.182Z</time></trkpt><trkpt lat="45.6743981" lon="8.4373861"><ele>359.0</ele><time>2026-04-12T09:51:22.182Z</time></trkpt><trkpt lat="45.6741874" lon="8.4375427"><ele>359.0</ele><time>2026-04-12T09:51:23.182Z</time></trkpt><trkpt lat="45.6739715" lon="8.437702"><ele>359.0</ele><time>2026-04-12T09:51:24.181Z</time></trkpt><trkpt lat="45.6737526" lon="8.4378627"><ele>358.5</ele><time>2026-04-12T09:51:25.187Z</time></trkpt><trkpt lat="45.6735338" lon="8.4380271"><ele>358.0</ele><time>2026-04-12T09:51:26.182Z</time></trkpt><trkpt lat="45.673318" lon="8.4381901"><ele>358.0</ele><time>2026-04-12T09:51:27.183Z</time></trkpt><trkpt lat="45.6731127" lon="8.4383368"><ele>358.0</ele><time>2026-04-12T09:51:28.185Z</time></trkpt><trkpt lat="45.6729085" lon="8.4384899"><ele>357.66666666666663</ele><time>2026-04-12T09:51:29.188Z</time></trkpt><trkpt lat="45.672711" lon="8.4386364"><ele>357.3333333333333</ele><time>2026-04-12T09:51:30.185Z</time></trkpt><trkpt lat="45.6725208" lon="8.4387779"><ele>357.0</ele><time>2026-04-12T09:51:31.175Z</time></trkpt><trkpt lat="45.672336" lon="8.4389142"><ele>357.0</ele><time>2026-04-12T09:51:32.174Z</time></trkpt><trkpt lat="45.6721585" lon="8.4390446"><ele>357.0</ele><time>2026-04-12T09:51:33.182Z</time></trkpt><trkpt lat="45.6719888" lon="8.4391683"><ele>357.0</ele><time>2026-04-12T09:51:34.175Z</time></trkpt><trkpt lat="45.6718256" lon="8.4392864"><ele>356.0</ele><time>2026-04-12T09:51:35.172Z</time></trkpt><trkpt lat="45.6716676" lon="8.4394049"><ele>355.0</ele><time>2026-04-12T09:51:36.185Z</time></trkpt><trkpt lat="45.6715225" lon="8.4395066"><ele>354.0</ele><time>2026-04-12T09:51:37.164Z</time></trkpt><trkpt lat="45.6713754" lon="8.4396195"><ele>354.3333333333333</ele><time>2026-04-12T09:51:38.179Z</time></trkpt><trkpt lat="45.6712287" lon="8.4397259"><ele>354.66666666666663</ele><time>2026-04-12T09:51:39.168Z</time></trkpt><trkpt lat="45.6710895" lon="8.4398322"><ele>355.0</ele><time>2026-04-12T09:51:40.178Z</time></trkpt><trkpt lat="45.6709582" lon="8.4399393"><ele>355.25</ele><time>2026-04-12T09:51:41.167Z</time></trkpt><trkpt lat="45.670829" lon="8.4400298"><ele>355.5</ele><time>2026-04-12T09:51:42.173Z</time></trkpt><trkpt lat="45.6707027" lon="8.4401212"><ele>355.75</ele><time>2026-04-12T09:51:43.176Z</time></trkpt><trkpt lat="45.6705784" lon="8.4402109"><ele>356.0</ele><time>2026-04-12T09:51:44.217Z</time></trkpt><trkpt lat="45.6704577" lon="8.4403007"><ele>356.0</ele><time>2026-04-12T09:51:45.164Z</time></trkpt><trkpt lat="45.6703384" lon="8.4403946"><ele>356.0</ele><time>2026-04-12T09:51:46.175Z</time></trkpt><trkpt lat="45.6702202" lon="8.4404834"><ele>356.0</ele><time>2026-04-12T09:51:47.167Z</time></trkpt><trkpt lat="45.670102" lon="8.4405725"><ele>356.0</ele><time>2026-04-12T09:51:48.172Z</time></trkpt><trkpt lat="45.6699946" lon="8.4406556"><ele>355.0</ele><time>2026-04-12T09:51:49.217Z</time></trkpt><trkpt lat="45.66989" lon="8.4407361"><ele>354.0</ele><time>2026-04-12T09:51:50.17Z</time></trkpt><trkpt lat="45.669704" lon="8.4408784"><ele>353.0</ele><time>2026-04-12T09:51:52.168Z</time></trkpt><trkpt lat="45.6696136" lon="8.4409417"><ele>352.0</ele><time>2026-04-12T09:51:53.173Z</time></trkpt><trkpt lat="45.6695121" lon="8.4410128"><ele>352.25</ele><time>2026-04-12T09:51:54.207Z</time></trkpt><trkpt lat="45.6694087" lon="8.4410881"><ele>352.5</ele><time>2026-04-12T09:51:55.205Z</time></trkpt><trkpt lat="45.6692985" lon="8.4411721"><ele>352.75</ele><time>2026-04-12T09:51:56.179Z</time></trkpt><trkpt lat="45.6691802" lon="8.4412623"><ele>353.0</ele><time>2026-04-12T09:51:57.176Z</time></trkpt><trkpt lat="45.6690626" lon="8.4413509"><ele>352.33333333333337</ele><time>2026-04-12T09:51:58.174Z</time></trkpt><trkpt lat="45.6689382" lon="8.4414447"><ele>351.6666666666667</ele><time>2026-04-12T09:51:59.179Z</time></trkpt><trkpt lat="45.6688053" lon="8.4415469"><ele>351.0</ele><time>2026-04-12T09:52:00.176Z</time></trkpt><trkpt lat="45.6686551" lon="8.4416626"><ele>351.3333333333333</ele><time>2026-04-12T09:52:01.215Z</time></trkpt><trkpt lat="45.6685041" lon="8.441773"><ele>351.66666666666663</ele><time>2026-04-12T09:52:02.174Z</time></trkpt><trkpt lat="45.6683584" lon="8.4418784"><ele>352.0</ele><time>2026-04-12T09:52:03.172Z</time></trkpt><trkpt lat="45.6682208" lon="8.4419804"><ele>352.0</ele><time>2026-04-12T09:52:04.176Z</time></trkpt><trkpt lat="45.6680835" lon="8.4420825"><ele>352.0</ele><time>2026-04-12T09:52:05.176Z</time></trkpt><trkpt lat="45.667953" lon="8.442171"><ele>352.0</ele><time>2026-04-12T09:52:06.173Z</time></trkpt><trkpt lat="45.6678294" lon="8.4422637"><ele>352.0</ele><time>2026-04-12T09:52:07.175Z</time></trkpt><trkpt lat="45.6677112" lon="8.442346"><ele>351.25</ele><time>2026-04-12T09:52:08.177Z</time></trkpt><trkpt lat="45.6675992" lon="8.4424269"><ele>350.5</ele><time>2026-04-12T09:52:09.179Z</time></trkpt><trkpt lat="45.667494" lon="8.4425007"><ele>349.75</ele><time>2026-04-12T09:52:10.18Z</time></trkpt><trkpt lat="45.6673875" lon="8.4425809"><ele>349.0</ele><time>2026-04-12T09:52:11.185Z</time></trkpt><trkpt lat="45.6672784" lon="8.4426595"><ele>349.0</ele><time>2026-04-12T09:52:12.179Z</time></trkpt><trkpt lat="45.6671688" lon="8.4427371"><ele>349.0</ele><time>2026-04-12T09:52:13.173Z</time></trkpt><trkpt lat="45.6670632" lon="8.4428173"><ele>349.0</ele><time>2026-04-12T09:52:14.18Z</time></trkpt><trkpt lat="45.6669603" lon="8.4428927"><ele>349.0</ele><time>2026-04-12T09:52:15.179Z</time></trkpt><trkpt lat="45.666856" lon="8.4429705"><ele>348.79999999999995</ele><time>2026-04-12T09:52:16.178Z</time></trkpt><trkpt lat="45.6667536" lon="8.4430483"><ele>348.59999999999997</ele><time>2026-04-12T09:52:17.17Z</time></trkpt><trkpt lat="45.6666533" lon="8.4431261"><ele>348.4</ele><time>2026-04-12T09:52:18.181Z</time></trkpt><trkpt lat="45.666561" lon="8.4431919"><ele>348.2</ele><time>2026-04-12T09:52:19.221Z</time></trkpt><trkpt lat="45.666476" lon="8.4432508"><ele>348.0</ele><time>2026-04-12T09:52:20.175Z</time></trkpt><trkpt lat="45.666392" lon="8.443315"><ele>348.0</ele><time>2026-04-12T09:52:21.179Z</time></trkpt><trkpt lat="45.6663105" lon="8.44337"><ele>348.0</ele><time>2026-04-12T09:52:22.181Z</time></trkpt><trkpt lat="45.66623" lon="8.4434307"><ele>348.0</ele><time>2026-04-12T09:52:23.175Z</time></trkpt><trkpt lat="45.6661534" lon="8.4434877"><ele>348.0</ele><time>2026-04-12T09:52:24.18Z</time></trkpt><trkpt lat="45.6660885" lon="8.4435401"><ele>348.0</ele><time>2026-04-12T09:52:25.173Z</time></trkpt><trkpt lat="45.6659914" lon="8.4436099"><ele>347.79999999999995</ele><time>2026-04-12T09:52:27.179Z</time></trkpt><trkpt lat="45.665923" lon="8.443634"><ele>347.6</ele><time>2026-04-12T09:52:33.161Z</time></trkpt><trkpt lat="45.6658376" lon="8.4436397"><ele>347.4</ele><time>2026-04-12T09:52:35.173Z</time></trkpt><trkpt lat="45.6657662" lon="8.4437187"><ele>347.20000000000005</ele><time>2026-04-12T09:52:37.176Z</time></trkpt><trkpt lat="45.6657856" lon="8.4438285"><ele>347.0</ele><time>2026-04-12T09:52:39.161Z</time></trkpt><trkpt lat="45.6658765" lon="8.4439638"><ele>347.0</ele><time>2026-04-12T09:52:41.172Z</time></trkpt><trkpt lat="45.6659378" lon="8.444063"><ele>347.0</ele><time>2026-04-12T09:52:42.166Z</time></trkpt><trkpt lat="45.6659976" lon="8.4441668"><ele>347.0</ele><time>2026-04-12T09:52:43.174Z</time></trkpt><trkpt lat="45.6660524" lon="8.444268"><ele>347.0</ele><time>2026-04-12T09:52:44.178Z</time></trkpt><trkpt lat="45.666118" lon="8.4443806"><ele>347.0</ele><time>2026-04-12T09:52:45.172Z</time></trkpt><trkpt lat="45.6661909" lon="8.4444884"><ele>347.0</ele><time>2026-04-12T09:52:46.18Z</time></trkpt><trkpt lat="45.6662652" lon="8.4446"><ele>347.0</ele><time>2026-04-12T09:52:47.169Z</time></trkpt><trkpt lat="45.6663391" lon="8.4447135"><ele>347.0</ele><time>2026-04-12T09:52:48.169Z</time></trkpt><trkpt lat="45.6664174" lon="8.4448146"><ele>347.0</ele><time>2026-04-12T09:52:49.163Z</time></trkpt><trkpt lat="45.6664934" lon="8.4449183"><ele>347.0</ele><time>2026-04-12T09:52:50.207Z</time></trkpt><trkpt lat="45.6665838" lon="8.4450104"><ele>347.25</ele><time>2026-04-12T09:52:51.172Z</time></trkpt><trkpt lat="45.66668" lon="8.4450952"><ele>347.5</ele><time>2026-04-12T09:52:52.175Z</time></trkpt><trkpt lat="45.6667846" lon="8.4451704"><ele>347.75</ele><time>2026-04-12T09:52:53.18Z</time></trkpt><trkpt lat="45.6668983" lon="8.4452351"><ele>348.0</ele><time>2026-04-12T09:52:54.171Z</time></trkpt><trkpt lat="45.6670271" lon="8.4452793"><ele>346.3333333333333</ele><time>2026-04-12T09:52:55.175Z</time></trkpt><trkpt lat="45.6671784" lon="8.4452962"><ele>344.66666666666663</ele><time>2026-04-12T09:52:56.169Z</time></trkpt><trkpt lat="45.667364" lon="8.4452742"><ele>343.0</ele><time>2026-04-12T09:52:57.177Z</time></trkpt><trkpt lat="45.6675926" lon="8.4452438"><ele>339.0</ele><time>2026-04-12T09:52:58.171Z</time></trkpt><trkpt lat="45.6678333" lon="8.4452109"><ele>335.0</ele><time>2026-04-12T09:52:59.174Z</time></trkpt><trkpt lat="45.6680623" lon="8.4451846"><ele>335.0</ele><time>2026-04-12T09:53:00.184Z</time></trkpt><trkpt lat="45.6682766" lon="8.4451656"><ele>335.0</ele><time>2026-04-12T09:53:01.171Z</time></trkpt><trkpt lat="45.6684716" lon="8.4451554"><ele>335.0</ele><time>2026-04-12T09:53:02.171Z</time></trkpt><trkpt lat="45.6686502" lon="8.4451306"><ele>335.25</ele><time>2026-04-12T09:53:03.172Z</time></trkpt><trkpt lat="45.6688066" lon="8.4451055"><ele>335.5</ele><time>2026-04-12T09:53:04.181Z</time></trkpt><trkpt lat="45.6689473" lon="8.4450943"><ele>335.75</ele><time>2026-04-12T09:53:05.18Z</time></trkpt><trkpt lat="45.6690862" lon="8.445104"><ele>336.0</ele><time>2026-04-12T09:53:06.174Z</time></trkpt><trkpt lat="45.6692124" lon="8.4451572"><ele>336.0</ele><time>2026-04-12T09:53:07.185Z</time></trkpt><trkpt lat="45.6693309" lon="8.4452445"><ele>336.0</ele><time>2026-04-12T09:53:08.178Z</time></trkpt><trkpt lat="45.6694426" lon="8.4453683"><ele>336.0</ele><time>2026-04-12T09:53:09.178Z</time></trkpt><trkpt lat="45.6695365" lon="8.445528"><ele>336.0</ele><time>2026-04-12T09:53:10.174Z</time></trkpt><trkpt lat="45.6695999" lon="8.4457182"><ele>336.3333333333333</ele><time>2026-04-12T09:53:11.18Z</time></trkpt><trkpt lat="45.6696325" lon="8.4459217"><ele>336.66666666666663</ele><time>2026-04-12T09:53:12.173Z</time></trkpt><trkpt lat="45.6696381" lon="8.4461319"><ele>337.0</ele><time>2026-04-12T09:53:13.174Z</time></trkpt><trkpt lat="45.6696022" lon="8.4463576"><ele>335.66666666666663</ele><time>2026-04-12T09:53:14.178Z</time></trkpt><trkpt lat="45.6695287" lon="8.4466108"><ele>334.3333333333333</ele><time>2026-04-12T09:53:15.18Z</time></trkpt><trkpt lat="45.6694351" lon="8.4469076"><ele>333.0</ele><time>2026-04-12T09:53:16.181Z</time></trkpt><trkpt lat="45.6693163" lon="8.4472417"><ele>330.0</ele><time>2026-04-12T09:53:17.172Z</time></trkpt><trkpt lat="45.6691817" lon="8.4476144"><ele>327.0</ele><time>2026-04-12T09:53:18.179Z</time></trkpt><trkpt lat="45.6690422" lon="8.4480169"><ele>323.0</ele><time>2026-04-12T09:53:19.177Z</time></trkpt><trkpt lat="45.6689108" lon="8.4484045"><ele>319.0</ele><time>2026-04-12T09:53:20.171Z</time></trkpt><trkpt lat="45.6687794" lon="8.4487839"><ele>320.5</ele><time>2026-04-12T09:53:21.18Z</time></trkpt><trkpt lat="45.6686533" lon="8.4491468"><ele>322.0</ele><time>2026-04-12T09:53:22.185Z</time></trkpt><trkpt lat="45.6685332" lon="8.4494918"><ele>316.0</ele><time>2026-04-12T09:53:23.177Z</time></trkpt><trkpt lat="45.6684177" lon="8.4498118"><ele>310.0</ele><time>2026-04-12T09:53:24.17Z</time></trkpt><trkpt lat="45.6683127" lon="8.4501169"><ele>310.0</ele><time>2026-04-12T09:53:25.177Z</time></trkpt><trkpt lat="45.6682215" lon="8.4503868"><ele>310.0</ele><time>2026-04-12T09:53:26.18Z</time></trkpt><trkpt lat="45.6681422" lon="8.4506372"><ele>310.0</ele><time>2026-04-12T09:53:27.184Z</time></trkpt><trkpt lat="45.6680704" lon="8.4508787"><ele>308.0</ele><time>2026-04-12T09:53:28.171Z</time></trkpt><trkpt lat="45.6680284" lon="8.4511167"><ele>306.0</ele><time>2026-04-12T09:53:29.174Z</time></trkpt><trkpt lat="45.668018" lon="8.4513608"><ele>304.0</ele><time>2026-04-12T09:53:30.184Z</time></trkpt><trkpt lat="45.6680329" lon="8.4516113"><ele>302.3333333333333</ele><time>2026-04-12T09:53:31.169Z</time></trkpt><trkpt lat="45.6680842" lon="8.4518645"><ele>300.6666666666667</ele><time>2026-04-12T09:53:32.171Z</time></trkpt><trkpt lat="45.6681766" lon="8.4521062"><ele>299.0</ele><time>2026-04-12T09:53:33.177Z</time></trkpt><trkpt lat="45.668311" lon="8.4523268"><ele>298.0</ele><time>2026-04-12T09:53:34.175Z</time></trkpt><trkpt lat="45.6684876" lon="8.4525298"><ele>297.0</ele><time>2026-04-12T09:53:35.171Z</time></trkpt><trkpt lat="45.6686902" lon="8.4527132"><ele>296.5</ele><time>2026-04-12T09:53:36.179Z</time></trkpt><trkpt lat="45.6689019" lon="8.4528861"><ele>296.0</ele><time>2026-04-12T09:53:37.179Z</time></trkpt><trkpt lat="45.6691183" lon="8.4530648"><ele>296.0</ele><time>2026-04-12T09:53:38.171Z</time></trkpt><trkpt lat="45.6693398" lon="8.4532373"><ele>296.0</ele><time>2026-04-12T09:53:39.187Z</time></trkpt><trkpt lat="45.6695539" lon="8.4534145"><ele>295.0</ele><time>2026-04-12T09:53:40.208Z</time></trkpt><trkpt lat="45.6697546" lon="8.4535828"><ele>294.0</ele><time>2026-04-12T09:53:41.207Z</time></trkpt><trkpt lat="45.6699526" lon="8.453742"><ele>294.0</ele><time>2026-04-12T09:53:42.178Z</time></trkpt><trkpt lat="45.6701409" lon="8.4538948"><ele>294.0</ele><time>2026-04-12T09:53:43.173Z</time></trkpt><trkpt lat="45.6703179" lon="8.4540401"><ele>294.0</ele><time>2026-04-12T09:53:44.213Z</time></trkpt><trkpt lat="45.6704903" lon="8.4541776"><ele>294.3333333333333</ele><time>2026-04-12T09:53:45.176Z</time></trkpt><trkpt lat="45.6706608" lon="8.4543079"><ele>294.66666666666663</ele><time>2026-04-12T09:53:46.181Z</time></trkpt><trkpt lat="45.670828" lon="8.4544432"><ele>295.0</ele><time>2026-04-12T09:53:47.175Z</time></trkpt><trkpt lat="45.6709939" lon="8.4545757"><ele>294.66666666666663</ele><time>2026-04-12T09:53:48.173Z</time></trkpt><trkpt lat="45.6711577" lon="8.4547074"><ele>294.3333333333333</ele><time>2026-04-12T09:53:49.182Z</time></trkpt><trkpt lat="45.6713181" lon="8.4548353"><ele>294.0</ele><time>2026-04-12T09:53:50.178Z</time></trkpt><trkpt lat="45.6714748" lon="8.4549672"><ele>294.0</ele><time>2026-04-12T09:53:51.176Z</time></trkpt><trkpt lat="45.6716351" lon="8.455094"><ele>294.0</ele><time>2026-04-12T09:53:52.173Z</time></trkpt><trkpt lat="45.6717983" lon="8.4552193"><ele>294.0</ele><time>2026-04-12T09:53:53.18Z</time></trkpt><trkpt lat="45.6719627" lon="8.4553414"><ele>294.0</ele><time>2026-04-12T09:53:54.154Z</time></trkpt><trkpt lat="45.6721358" lon="8.4554581"><ele>294.0</ele><time>2026-04-12T09:53:55.158Z</time></trkpt><trkpt lat="45.672317" lon="8.455562"><ele>294.0</ele><time>2026-04-12T09:53:56.173Z</time></trkpt><trkpt lat="45.6724937" lon="8.4556514"><ele>294.0</ele><time>2026-04-12T09:53:57.171Z</time></trkpt><trkpt lat="45.67268" lon="8.4557248"><ele>294.0</ele><time>2026-04-12T09:53:58.175Z</time></trkpt><trkpt lat="45.6728709" lon="8.4557778"><ele>294.0</ele><time>2026-04-12T09:53:59.185Z</time></trkpt><trkpt lat="45.6730527" lon="8.4558129"><ele>294.3333333333333</ele><time>2026-04-12T09:54:00.198Z</time></trkpt><trkpt lat="45.6732274" lon="8.4558325"><ele>294.66666666666663</ele><time>2026-04-12T09:54:01.211Z</time></trkpt><trkpt lat="45.6733979" lon="8.4558514"><ele>295.0</ele><time>2026-04-12T09:54:02.175Z</time></trkpt><trkpt lat="45.6735499" lon="8.4558713"><ele>295.0</ele><time>2026-04-12T09:54:03.174Z</time></trkpt><trkpt lat="45.673686" lon="8.4558834"><ele>295.0</ele><time>2026-04-12T09:54:04.224Z</time></trkpt><trkpt lat="45.6738079" lon="8.4558994"><ele>295.0</ele><time>2026-04-12T09:54:05.17Z</time></trkpt><trkpt lat="45.6739187" lon="8.4559105"><ele>295.0</ele><time>2026-04-12T09:54:06.184Z</time></trkpt><trkpt lat="45.6740251" lon="8.455923"><ele>295.0</ele><time>2026-04-12T09:54:07.171Z</time></trkpt><trkpt lat="45.6741241" lon="8.4559431"><ele>295.0</ele><time>2026-04-12T09:54:08.176Z</time></trkpt><trkpt lat="45.6742152" lon="8.4559693"><ele>295.0</ele><time>2026-04-12T09:54:09.17Z</time></trkpt><trkpt lat="45.6743016" lon="8.4559729"><ele>295.0</ele><time>2026-04-12T09:54:10.189Z</time></trkpt><trkpt lat="45.6743919" lon="8.4559532"><ele>295.0</ele><time>2026-04-12T09:54:11.216Z</time></trkpt><trkpt lat="45.6744925" lon="8.455943"><ele>295.0</ele><time>2026-04-12T09:54:12.17Z</time></trkpt><trkpt lat="45.6746056" lon="8.4559376"><ele>295.0</ele><time>2026-04-12T09:54:13.169Z</time></trkpt><trkpt lat="45.6747239" lon="8.4559371"><ele>295.0</ele><time>2026-04-12T09:54:14.183Z</time></trkpt><trkpt lat="45.6748562" lon="8.4559409"><ele>295.0</ele><time>2026-04-12T09:54:15.175Z</time></trkpt><trkpt lat="45.6749864" lon="8.4559487"><ele>295.0</ele><time>2026-04-12T09:54:16.169Z</time></trkpt><trkpt lat="45.6751243" lon="8.455958"><ele>295.0</ele><time>2026-04-12T09:54:17.173Z</time></trkpt><trkpt lat="45.6752693" lon="8.4559808"><ele>295.0</ele><time>2026-04-12T09:54:18.174Z</time></trkpt><trkpt lat="45.6754045" lon="8.4559906"><ele>295.0</ele><time>2026-04-12T09:54:19.185Z</time></trkpt><trkpt lat="45.6755475" lon="8.4560073"><ele>295.0</ele><time>2026-04-12T09:54:20.209Z</time></trkpt><trkpt lat="45.6756913" lon="8.4560147"><ele>295.0</ele><time>2026-04-12T09:54:21.181Z</time></trkpt><trkpt lat="45.6758369" lon="8.4560225"><ele>295.0</ele><time>2026-04-12T09:54:22.18Z</time></trkpt><trkpt lat="45.6759939" lon="8.4560313"><ele>295.0</ele><time>2026-04-12T09:54:23.174Z</time></trkpt><trkpt lat="45.6761531" lon="8.4560417"><ele>295.3333333333333</ele><time>2026-04-12T09:54:24.187Z</time></trkpt><trkpt lat="45.6763223" lon="8.4560584"><ele>295.6666666666667</ele><time>2026-04-12T09:54:25.175Z</time></trkpt><trkpt lat="45.6764967" lon="8.4560684"><ele>296.0</ele><time>2026-04-12T09:54:26.178Z</time></trkpt><trkpt lat="45.6766629" lon="8.4560776"><ele>296.0</ele><time>2026-04-12T09:54:27.175Z</time></trkpt><trkpt lat="45.6768146" lon="8.4560904"><ele>296.0</ele><time>2026-04-12T09:54:28.178Z</time></trkpt><trkpt lat="45.6769587" lon="8.4561021"><ele>296.0</ele><time>2026-04-12T09:54:29.213Z</time></trkpt><trkpt lat="45.6770923" lon="8.4561093"><ele>296.0</ele><time>2026-04-12T09:54:30.224Z</time></trkpt><trkpt lat="45.6772255" lon="8.4561218"><ele>296.0</ele><time>2026-04-12T09:54:31.174Z</time></trkpt><trkpt lat="45.6773591" lon="8.4561313"><ele>296.0</ele><time>2026-04-12T09:54:32.176Z</time></trkpt><trkpt lat="45.6774911" lon="8.4561435"><ele>296.0</ele><time>2026-04-12T09:54:33.173Z</time></trkpt><trkpt lat="45.6776267" lon="8.4561552"><ele>296.0</ele><time>2026-04-12T09:54:34.214Z</time></trkpt><trkpt lat="45.6777593" lon="8.456165"><ele>296.25</ele><time>2026-04-12T09:54:35.207Z</time></trkpt><trkpt lat="45.6778966" lon="8.4561707"><ele>296.5</ele><time>2026-04-12T09:54:36.18Z</time></trkpt><trkpt lat="45.6780345" lon="8.4561769"><ele>296.75</ele><time>2026-04-12T09:54:37.173Z</time></trkpt><trkpt lat="45.6781822" lon="8.4561797"><ele>297.0</ele><time>2026-04-12T09:54:38.186Z</time></trkpt><trkpt lat="45.678329" lon="8.456182"><ele>297.0</ele><time>2026-04-12T09:54:39.214Z</time></trkpt><trkpt lat="45.678475" lon="8.456186"><ele>297.0</ele><time>2026-04-12T09:54:40.177Z</time></trkpt><trkpt lat="45.6786348" lon="8.4561924"><ele>297.0</ele><time>2026-04-12T09:54:41.185Z</time></trkpt><trkpt lat="45.6787895" lon="8.4561916"><ele>297.0</ele><time>2026-04-12T09:54:42.166Z</time></trkpt><trkpt lat="45.6789571" lon="8.4562026"><ele>297.0</ele><time>2026-04-12T09:54:43.179Z</time></trkpt><trkpt lat="45.6791329" lon="8.4562175"><ele>297.0</ele><time>2026-04-12T09:54:44.182Z</time></trkpt><trkpt lat="45.6793018" lon="8.4562287"><ele>298.3333333333333</ele><time>2026-04-12T09:54:45.215Z</time></trkpt><trkpt lat="45.6794655" lon="8.456242"><ele>299.66666666666663</ele><time>2026-04-12T09:54:46.214Z</time></trkpt><trkpt lat="45.6796248" lon="8.4562582"><ele>301.0</ele><time>2026-04-12T09:54:47.174Z</time></trkpt><trkpt lat="45.6797917" lon="8.4562723"><ele>301.0</ele><time>2026-04-12T09:54:48.185Z</time></trkpt><trkpt lat="45.67996" lon="8.4562858"><ele>301.0</ele><time>2026-04-12T09:54:49.187Z</time></trkpt><trkpt lat="45.680124" lon="8.4562997"><ele>301.0</ele><time>2026-04-12T09:54:50.172Z</time></trkpt><trkpt lat="45.6802918" lon="8.4563127"><ele>300.3333333333333</ele><time>2026-04-12T09:54:51.169Z</time></trkpt><trkpt lat="45.6804575" lon="8.4563212"><ele>299.6666666666667</ele><time>2026-04-12T09:54:52.169Z</time></trkpt><trkpt lat="45.680623" lon="8.4563337"><ele>299.0</ele><time>2026-04-12T09:54:53.175Z</time></trkpt><trkpt lat="45.6807948" lon="8.4563415"><ele>299.0</ele><time>2026-04-12T09:54:54.21Z</time></trkpt><trkpt lat="45.6809557" lon="8.4563518"><ele>299.0</ele><time>2026-04-12T09:54:55.181Z</time></trkpt><trkpt lat="45.6811139" lon="8.4563632"><ele>299.0</ele><time>2026-04-12T09:54:56.187Z</time></trkpt><trkpt lat="45.6812725" lon="8.4563779"><ele>299.6666666666667</ele><time>2026-04-12T09:54:57.167Z</time></trkpt><trkpt lat="45.6814276" lon="8.4563859"><ele>300.3333333333333</ele><time>2026-04-12T09:54:58.173Z</time></trkpt><trkpt lat="45.6815874" lon="8.4563941"><ele>301.0</ele><time>2026-04-12T09:54:59.178Z</time></trkpt><trkpt lat="45.681744" lon="8.4564065"><ele>301.0</ele><time>2026-04-12T09:55:00.179Z</time></trkpt><trkpt lat="45.6818998" lon="8.4564184"><ele>301.0</ele><time>2026-04-12T09:55:01.176Z</time></trkpt><trkpt lat="45.6820548" lon="8.4564266"><ele>301.0</ele><time>2026-04-12T09:55:02.172Z</time></trkpt><trkpt lat="45.6821985" lon="8.4564396"><ele>300.25</ele><time>2026-04-12T09:55:03.183Z</time></trkpt><trkpt lat="45.6823352" lon="8.4564476"><ele>299.5</ele><time>2026-04-12T09:55:04.172Z</time></trkpt><trkpt lat="45.6824677" lon="8.4564593"><ele>298.75</ele><time>2026-04-12T09:55:05.178Z</time></trkpt><trkpt lat="45.6825903" lon="8.4564636"><ele>298.0</ele><time>2026-04-12T09:55:06.175Z</time></trkpt><trkpt lat="45.6827057" lon="8.4564702"><ele>298.4</ele><time>2026-04-12T09:55:07.17Z</time></trkpt><trkpt lat="45.6828127" lon="8.4564778"><ele>298.8</ele><time>2026-04-12T09:55:08.176Z</time></trkpt><trkpt lat="45.6829139" lon="8.4564848"><ele>299.2</ele><time>2026-04-12T09:55:09.175Z</time></trkpt><trkpt lat="45.6830136" lon="8.4564908"><ele>299.6</ele><time>2026-04-12T09:55:10.213Z</time></trkpt><trkpt lat="45.6831044" lon="8.4565008"><ele>300.0</ele><time>2026-04-12T09:55:11.21Z</time></trkpt><trkpt lat="45.6831951" lon="8.4565075"><ele>300.0</ele><time>2026-04-12T09:55:12.169Z</time></trkpt><trkpt lat="45.683284" lon="8.4565164"><ele>300.0</ele><time>2026-04-12T09:55:13.177Z</time></trkpt><trkpt lat="45.6833771" lon="8.4565254"><ele>300.0</ele><time>2026-04-12T09:55:14.188Z</time></trkpt><trkpt lat="45.6834749" lon="8.4565337"><ele>300.0</ele><time>2026-04-12T09:55:15.179Z</time></trkpt><trkpt lat="45.6835961" lon="8.456543"><ele>300.0</ele><time>2026-04-12T09:55:16.178Z</time></trkpt><trkpt lat="45.6837133" lon="8.4565514"><ele>300.0</ele><time>2026-04-12T09:55:17.172Z</time></trkpt><trkpt lat="45.6838289" lon="8.4565584"><ele>300.0</ele><time>2026-04-12T09:55:18.179Z</time></trkpt><trkpt lat="45.6839355" lon="8.4565648"><ele>300.0</ele><time>2026-04-12T09:55:19.178Z</time></trkpt><trkpt lat="45.6840372" lon="8.4565705"><ele>300.0</ele><time>2026-04-12T09:55:20.173Z</time></trkpt><trkpt lat="45.6841306" lon="8.4565781"><ele>300.0</ele><time>2026-04-12T09:55:21.174Z</time></trkpt><trkpt lat="45.6842216" lon="8.456584"><ele>300.0</ele><time>2026-04-12T09:55:22.169Z</time></trkpt><trkpt lat="45.684305" lon="8.4565935"><ele>300.0</ele><time>2026-04-12T09:55:23.177Z</time></trkpt><trkpt lat="45.6843924" lon="8.4565994"><ele>300.0</ele><time>2026-04-12T09:55:24.187Z</time></trkpt><trkpt lat="45.684476" lon="8.4566039"><ele>300.0</ele><time>2026-04-12T09:55:25.177Z</time></trkpt><trkpt lat="45.6845951" lon="8.456612"><ele>300.0</ele><time>2026-04-12T09:55:26.182Z</time></trkpt><trkpt lat="45.6847178" lon="8.4566235"><ele>300.25</ele><time>2026-04-12T09:55:27.172Z</time></trkpt><trkpt lat="45.6848466" lon="8.4566341"><ele>300.5</ele><time>2026-04-12T09:55:28.178Z</time></trkpt><trkpt lat="45.6849794" lon="8.4566482"><ele>300.75</ele><time>2026-04-12T09:55:29.185Z</time></trkpt><trkpt lat="45.6851132" lon="8.4566564"><ele>301.0</ele><time>2026-04-12T09:55:30.21Z</time></trkpt><trkpt lat="45.6852868" lon="8.4566677"><ele>301.5</ele><time>2026-04-12T09:55:31.172Z</time></trkpt><trkpt lat="45.6854336" lon="8.4566752"><ele>302.0</ele><time>2026-04-12T09:55:32.176Z</time></trkpt><trkpt lat="45.6855695" lon="8.4566855"><ele>302.5</ele><time>2026-04-12T09:55:33.182Z</time></trkpt><trkpt lat="45.6856976" lon="8.4566919"><ele>303.0</ele><time>2026-04-12T09:55:34.173Z</time></trkpt><trkpt lat="45.6858179" lon="8.4567011"><ele>303.0</ele><time>2026-04-12T09:55:35.164Z</time></trkpt><trkpt lat="45.6859299" lon="8.4567148"><ele>303.0</ele><time>2026-04-12T09:55:36.21Z</time></trkpt><trkpt lat="45.6860344" lon="8.4567226"><ele>303.0</ele><time>2026-04-12T09:55:37.172Z</time></trkpt><trkpt lat="45.6861318" lon="8.4567267"><ele>303.0</ele><time>2026-04-12T09:55:38.172Z</time></trkpt><trkpt lat="45.686223" lon="8.4567349"><ele>303.0</ele><time>2026-04-12T09:55:39.193Z</time></trkpt><trkpt lat="45.6863022" lon="8.456738"><ele>303.0</ele><time>2026-04-12T09:55:40.205Z</time></trkpt><trkpt lat="45.6863748" lon="8.4567427"><ele>303.0</ele><time>2026-04-12T09:55:41.178Z</time></trkpt><trkpt lat="45.6864575" lon="8.4567463"><ele>303.0</ele><time>2026-04-12T09:55:42.168Z</time></trkpt><trkpt lat="45.6865573" lon="8.4567432"><ele>303.0</ele><time>2026-04-12T09:55:43.174Z</time></trkpt><trkpt lat="45.6866625" lon="8.4567496"><ele>303.0</ele><time>2026-04-12T09:55:44.171Z</time></trkpt><trkpt lat="45.6867652" lon="8.4567599"><ele>303.0</ele><time>2026-04-12T09:55:45.158Z</time></trkpt><trkpt lat="45.6868676" lon="8.4567654"><ele>303.0</ele><time>2026-04-12T09:55:46.168Z</time></trkpt><trkpt lat="45.6869799" lon="8.4567723"><ele>303.0</ele><time>2026-04-12T09:55:47.175Z</time></trkpt><trkpt lat="45.6870916" lon="8.4567775"><ele>303.0</ele><time>2026-04-12T09:55:48.165Z</time></trkpt><trkpt lat="45.6872104" lon="8.4567897"><ele>303.0</ele><time>2026-04-12T09:55:49.165Z</time></trkpt><trkpt lat="45.687332" lon="8.4568004"><ele>303.5</ele><time>2026-04-12T09:55:50.165Z</time></trkpt><trkpt lat="45.6874495" lon="8.4568049"><ele>304.0</ele><time>2026-04-12T09:55:51.178Z</time></trkpt><trkpt lat="45.6875789" lon="8.4568159"><ele>304.5</ele><time>2026-04-12T09:55:52.175Z</time></trkpt><trkpt lat="45.6877052" lon="8.4568251"><ele>305.0</ele><time>2026-04-12T09:55:53.173Z</time></trkpt><trkpt lat="45.6878323" lon="8.4568421"><ele>305.25</ele><time>2026-04-12T09:55:54.177Z</time></trkpt><trkpt lat="45.6879564" lon="8.4568491"><ele>305.5</ele><time>2026-04-12T09:55:55.21Z</time></trkpt><trkpt lat="45.6880812" lon="8.4568571"><ele>305.75</ele><time>2026-04-12T09:55:56.211Z</time></trkpt><trkpt lat="45.6881984" lon="8.4568732"><ele>306.0</ele><time>2026-04-12T09:55:57.177Z</time></trkpt><trkpt lat="45.688307" lon="8.456874"><ele>306.0</ele><time>2026-04-12T09:55:58.176Z</time></trkpt><trkpt lat="45.6884124" lon="8.4568754"><ele>306.0</ele><time>2026-04-12T09:55:59.177Z</time></trkpt><trkpt lat="45.6885073" lon="8.4568849"><ele>306.0</ele><time>2026-04-12T09:56:00.18Z</time></trkpt><trkpt lat="45.6885917" lon="8.4568903"><ele>306.0</ele><time>2026-04-12T09:56:01.172Z</time></trkpt><trkpt lat="45.6886705" lon="8.4569002"><ele>306.0</ele><time>2026-04-12T09:56:02.166Z</time></trkpt><trkpt lat="45.6887434" lon="8.4569022"><ele>306.0</ele><time>2026-04-12T09:56:03.18Z</time></trkpt><trkpt lat="45.6888084" lon="8.4568979"><ele>305.8</ele><time>2026-04-12T09:56:04.197Z</time></trkpt><trkpt lat="45.6889228" lon="8.4568939"><ele>305.6</ele><time>2026-04-12T09:56:06.161Z</time></trkpt><trkpt lat="45.6890499" lon="8.4569413"><ele>305.4</ele><time>2026-04-12T09:56:08.169Z</time></trkpt><trkpt lat="45.6890706" lon="8.4570469"><ele>305.2</ele><time>2026-04-12T09:56:09.159Z</time></trkpt><trkpt lat="45.6890691" lon="8.4571559"><ele>305.0</ele><time>2026-04-12T09:56:10.168Z</time></trkpt><trkpt lat="45.6890593" lon="8.4572541"><ele>304.6</ele><time>2026-04-12T09:56:11.17Z</time></trkpt><trkpt lat="45.6890292" lon="8.4573363"><ele>304.2</ele><time>2026-04-12T09:56:12.178Z</time></trkpt><trkpt lat="45.6889516" lon="8.4574731"><ele>303.8</ele><time>2026-04-12T09:56:14.171Z</time></trkpt><trkpt lat="45.6889542" lon="8.4576291"><ele>303.4</ele><time>2026-04-12T09:56:16.17Z</time></trkpt><trkpt lat="45.6890628" lon="8.4577267"><ele>303.0</ele><time>2026-04-12T09:56:18.177Z</time></trkpt><trkpt lat="45.6891304" lon="8.4578027"><ele>303.0</ele><time>2026-04-12T09:56:19.18Z</time></trkpt><trkpt lat="45.6891874" lon="8.4579184"><ele>303.0</ele><time>2026-04-12T09:56:20.213Z</time></trkpt><trkpt lat="45.6892331" lon="8.4580584"><ele>303.0</ele><time>2026-04-12T09:56:21.224Z</time></trkpt><trkpt lat="45.6892782" lon="8.458231"><ele>303.0</ele><time>2026-04-12T09:56:22.173Z</time></trkpt><trkpt lat="45.6893321" lon="8.4584302"><ele>302.75</ele><time>2026-04-12T09:56:23.174Z</time></trkpt><trkpt lat="45.689393" lon="8.4586163"><ele>302.5</ele><time>2026-04-12T09:56:24.191Z</time></trkpt><trkpt lat="45.6894462" lon="8.4587958"><ele>302.25</ele><time>2026-04-12T09:56:25.202Z</time></trkpt><trkpt lat="45.689489" lon="8.4589732"><ele>302.0</ele><time>2026-04-12T09:56:26.172Z</time></trkpt><trkpt lat="45.689529" lon="8.4591498"><ele>302.0</ele><time>2026-04-12T09:56:27.173Z</time></trkpt><trkpt lat="45.6895622" lon="8.4593369"><ele>302.0</ele><time>2026-04-12T09:56:28.171Z</time></trkpt><trkpt lat="45.6895842" lon="8.4595338"><ele>302.0</ele><time>2026-04-12T09:56:29.176Z</time></trkpt><trkpt lat="45.6896084" lon="8.4597382"><ele>302.0</ele><time>2026-04-12T09:56:30.178Z</time></trkpt><trkpt lat="45.6896351" lon="8.459942"><ele>302.0</ele><time>2026-04-12T09:56:31.174Z</time></trkpt><trkpt lat="45.689663" lon="8.4601588"><ele>302.0</ele><time>2026-04-12T09:56:32.173Z</time></trkpt><trkpt lat="45.6896917" lon="8.4603866"><ele>302.0</ele><time>2026-04-12T09:56:33.186Z</time></trkpt><trkpt lat="45.6897227" lon="8.460623"><ele>302.0</ele><time>2026-04-12T09:56:34.178Z</time></trkpt><trkpt lat="45.6897502" lon="8.4608548"><ele>302.0</ele><time>2026-04-12T09:56:35.176Z</time></trkpt><trkpt lat="45.689776" lon="8.4610769"><ele>302.0</ele><time>2026-04-12T09:56:36.185Z</time></trkpt><trkpt lat="45.6898019" lon="8.4612987"><ele>301.33333333333337</ele><time>2026-04-12T09:56:37.171Z</time></trkpt><trkpt lat="45.6898299" lon="8.461526"><ele>300.6666666666667</ele><time>2026-04-12T09:56:38.171Z</time></trkpt><trkpt lat="45.6898633" lon="8.4617597"><ele>300.0</ele><time>2026-04-12T09:56:39.209Z</time></trkpt><trkpt lat="45.6899103" lon="8.4619939"><ele>300.3333333333333</ele><time>2026-04-12T09:56:40.17Z</time></trkpt><trkpt lat="45.6899724" lon="8.4622489"><ele>300.66666666666663</ele><time>2026-04-12T09:56:41.21Z</time></trkpt><trkpt lat="45.6900543" lon="8.462505"><ele>301.0</ele><time>2026-04-12T09:56:42.172Z</time></trkpt><trkpt lat="45.6901452" lon="8.4627227"><ele>301.0</ele><time>2026-04-12T09:56:43.163Z</time></trkpt><trkpt lat="45.6902396" lon="8.4629222"><ele>301.0</ele><time>2026-04-12T09:56:44.203Z</time></trkpt><trkpt lat="45.6903426" lon="8.4631043"><ele>301.0</ele><time>2026-04-12T09:56:45.211Z</time></trkpt><trkpt lat="45.6904463" lon="8.4632598"><ele>301.25</ele><time>2026-04-12T09:56:46.199Z</time></trkpt><trkpt lat="45.6905523" lon="8.4633947"><ele>301.5</ele><time>2026-04-12T09:56:47.166Z</time></trkpt><trkpt lat="45.6906576" lon="8.4635237"><ele>301.75</ele><time>2026-04-12T09:56:48.208Z</time></trkpt><trkpt lat="45.6907565" lon="8.4636448"><ele>302.0</ele><time>2026-04-12T09:56:49.18Z</time></trkpt><trkpt lat="45.6908504" lon="8.4637616"><ele>302.2</ele><time>2026-04-12T09:56:50.176Z</time></trkpt><trkpt lat="45.6909381" lon="8.4638674"><ele>302.4</ele><time>2026-04-12T09:56:51.219Z</time></trkpt><trkpt lat="45.6910214" lon="8.4639683"><ele>302.6</ele><time>2026-04-12T09:56:52.164Z</time></trkpt><trkpt lat="45.6910946" lon="8.4640603"><ele>302.8</ele><time>2026-04-12T09:56:53.179Z</time></trkpt><trkpt lat="45.6911603" lon="8.4641347"><ele>303.0</ele><time>2026-04-12T09:56:54.179Z</time></trkpt><trkpt lat="45.6912178" lon="8.4641974"><ele>303.0</ele><time>2026-04-12T09:56:55.178Z</time></trkpt><trkpt lat="45.6913103" lon="8.4643073"><ele>303.0</ele><time>2026-04-12T09:56:57.169Z</time></trkpt><trkpt lat="45.6913751" lon="8.4643925"><ele>303.0</ele><time>2026-04-12T09:56:59.181Z</time></trkpt><trkpt lat="45.6914501" lon="8.4644602"><ele>303.0</ele><time>2026-04-12T09:57:01.215Z</time></trkpt><trkpt lat="45.6915186" lon="8.4645355"><ele>303.0</ele><time>2026-04-12T09:57:04.175Z</time></trkpt><trkpt lat="45.6915786" lon="8.4645933"><ele>303.0</ele><time>2026-04-12T09:57:07.164Z</time></trkpt><trkpt lat="45.6916449" lon="8.4646616"><ele>303.0</ele><time>2026-04-12T09:57:09.191Z</time></trkpt><trkpt lat="45.6917068" lon="8.4647464"><ele>303.0</ele><time>2026-04-12T09:57:11.165Z</time></trkpt><trkpt lat="45.6917431" lon="8.4648559"><ele>303.0</ele><time>2026-04-12T09:57:13.174Z</time></trkpt><trkpt lat="45.6917799" lon="8.4650033"><ele>303.0</ele><time>2026-04-12T09:57:15.213Z</time></trkpt><trkpt lat="45.6917926" lon="8.4651023"><ele>303.0</ele><time>2026-04-12T09:57:16.173Z</time></trkpt><trkpt lat="45.6917891" lon="8.4652028"><ele>303.0</ele><time>2026-04-12T09:57:17.174Z</time></trkpt><trkpt lat="45.6917832" lon="8.465311"><ele>303.0</ele><time>2026-04-12T09:57:18.175Z</time></trkpt><trkpt lat="45.6917645" lon="8.4654443"><ele>303.0</ele><time>2026-04-12T09:57:19.167Z</time></trkpt><trkpt lat="45.6917546" lon="8.4656088"><ele>303.0</ele><time>2026-04-12T09:57:20.213Z</time></trkpt><trkpt lat="45.6917743" lon="8.4657811"><ele>303.0</ele><time>2026-04-12T09:57:21.185Z</time></trkpt><trkpt lat="45.6918195" lon="8.465968"><ele>303.0</ele><time>2026-04-12T09:57:22.172Z</time></trkpt><trkpt lat="45.6918758" lon="8.46614"><ele>303.0</ele><time>2026-04-12T09:57:23.169Z</time></trkpt><trkpt lat="45.6919396" lon="8.4663026"><ele>303.0</ele><time>2026-04-12T09:57:24.182Z</time></trkpt><trkpt lat="45.6920072" lon="8.4664494"><ele>303.0</ele><time>2026-04-12T09:57:25.174Z</time></trkpt><trkpt lat="45.6920694" lon="8.4665917"><ele>303.2</ele><time>2026-04-12T09:57:26.176Z</time></trkpt><trkpt lat="45.6921237" lon="8.4667193"><ele>303.4</ele><time>2026-04-12T09:57:27.17Z</time></trkpt><trkpt lat="45.6921778" lon="8.4668444"><ele>303.59999999999997</ele><time>2026-04-12T09:57:28.178Z</time></trkpt><trkpt lat="45.69223" lon="8.4669642"><ele>303.8</ele><time>2026-04-12T09:57:29.214Z</time></trkpt><trkpt lat="45.6922847" lon="8.4670821"><ele>304.0</ele><time>2026-04-12T09:57:30.203Z</time></trkpt><trkpt lat="45.6923332" lon="8.4671968"><ele>304.2</ele><time>2026-04-12T09:57:31.176Z</time></trkpt><trkpt lat="45.6923827" lon="8.4673085"><ele>304.4</ele><time>2026-04-12T09:57:32.168Z</time></trkpt><trkpt lat="45.6924331" lon="8.4674193"><ele>304.6</ele><time>2026-04-12T09:57:33.174Z</time></trkpt><trkpt lat="45.692492" lon="8.4675308"><ele>304.8</ele><time>2026-04-12T09:57:34.186Z</time></trkpt><trkpt lat="45.6925438" lon="8.4676445"><ele>305.0</ele><time>2026-04-12T09:57:35.211Z</time></trkpt><trkpt lat="45.6925926" lon="8.4677551"><ele>305.0</ele><time>2026-04-12T09:57:36.212Z</time></trkpt><trkpt lat="45.6926414" lon="8.4678674"><ele>305.0</ele><time>2026-04-12T09:57:37.173Z</time></trkpt><trkpt lat="45.6926885" lon="8.4679764"><ele>305.0</ele><time>2026-04-12T09:57:38.184Z</time></trkpt><trkpt lat="45.6927343" lon="8.468088"><ele>305.0</ele><time>2026-04-12T09:57:39.182Z</time></trkpt><trkpt lat="45.6927798" lon="8.4681893"><ele>305.0</ele><time>2026-04-12T09:57:40.174Z</time></trkpt><trkpt lat="45.6928237" lon="8.4682908"><ele>305.0</ele><time>2026-04-12T09:57:41.18Z</time></trkpt><trkpt lat="45.6928629" lon="8.4683954"><ele>305.0</ele><time>2026-04-12T09:57:42.179Z</time></trkpt><trkpt lat="45.6929176" lon="8.4685064"><ele>305.0</ele><time>2026-04-12T09:57:44.166Z</time></trkpt><trkpt lat="45.692957" lon="8.4685838"><ele>305.0</ele><time>2026-04-12T09:57:53.167Z</time></trkpt><trkpt lat="45.6930492" lon="8.4687168"><ele>305.0</ele><time>2026-04-12T09:57:55.162Z</time></trkpt><trkpt lat="45.6930866" lon="8.4688215"><ele>305.0</ele><time>2026-04-12T09:57:56.182Z</time></trkpt><trkpt lat="45.693123" lon="8.4689144"><ele>305.0</ele><time>2026-04-12T09:57:57.168Z</time></trkpt><trkpt lat="45.6931493" lon="8.4690131"><ele>304.83333333333337</ele><time>2026-04-12T09:57:58.179Z</time></trkpt><trkpt lat="45.6931714" lon="8.469112"><ele>304.6666666666667</ele><time>2026-04-12T09:57:59.174Z</time></trkpt><trkpt lat="45.6931904" lon="8.4692063"><ele>304.5</ele><time>2026-04-12T09:58:00.175Z</time></trkpt><trkpt lat="45.6932228" lon="8.4692843"><ele>304.3333333333333</ele><time>2026-04-12T09:58:01.174Z</time></trkpt><trkpt lat="45.6932715" lon="8.4693449"><ele>304.16666666666663</ele><time>2026-04-12T09:58:02.174Z</time></trkpt><trkpt lat="45.6933457" lon="8.4694089"><ele>304.0</ele><time>2026-04-12T09:58:03.175Z</time></trkpt><trkpt lat="45.6934283" lon="8.4694802"><ele>304.0</ele><time>2026-04-12T09:58:04.165Z</time></trkpt><trkpt lat="45.6935161" lon="8.4695699"><ele>304.0</ele><time>2026-04-12T09:58:05.174Z</time></trkpt><trkpt lat="45.693605" lon="8.4696599"><ele>304.0</ele><time>2026-04-12T09:58:06.185Z</time></trkpt><trkpt lat="45.6937116" lon="8.4697456"><ele>304.0</ele><time>2026-04-12T09:58:07.175Z</time></trkpt><trkpt lat="45.6938176" lon="8.4698182"><ele>304.4</ele><time>2026-04-12T09:58:08.19Z</time></trkpt><trkpt lat="45.6939226" lon="8.4698822"><ele>304.79999999999995</ele><time>2026-04-12T09:58:09.183Z</time></trkpt><trkpt lat="45.6940274" lon="8.4699257"><ele>305.20000000000005</ele><time>2026-04-12T09:58:10.175Z</time></trkpt><trkpt lat="45.6941301" lon="8.4699615"><ele>305.6</ele><time>2026-04-12T09:58:11.185Z</time></trkpt><trkpt lat="45.6942341" lon="8.469985"><ele>306.0</ele><time>2026-04-12T09:58:12.176Z</time></trkpt><trkpt lat="45.6943415" lon="8.4699936"><ele>305.8</ele><time>2026-04-12T09:58:13.175Z</time></trkpt><trkpt lat="45.6944524" lon="8.4700062"><ele>305.6</ele><time>2026-04-12T09:58:14.198Z</time></trkpt><trkpt lat="45.6945612" lon="8.4700147"><ele>305.4</ele><time>2026-04-12T09:58:15.191Z</time></trkpt><trkpt lat="45.6946463" lon="8.4700127"><ele>305.2</ele><time>2026-04-12T09:58:16.187Z</time></trkpt><trkpt lat="45.6947351" lon="8.4700237"><ele>305.0</ele><time>2026-04-12T09:58:17.173Z</time></trkpt><trkpt lat="45.694819" lon="8.4700365"><ele>305.0</ele><time>2026-04-12T09:58:18.178Z</time></trkpt><trkpt lat="45.6949071" lon="8.470047"><ele>305.0</ele><time>2026-04-12T09:58:19.214Z</time></trkpt><trkpt lat="45.6950026" lon="8.470059"><ele>305.0</ele><time>2026-04-12T09:58:20.175Z</time></trkpt><trkpt lat="45.6951062" lon="8.4700691"><ele>305.0</ele><time>2026-04-12T09:58:21.212Z</time></trkpt><trkpt lat="45.6952122" lon="8.4700755"><ele>305.0</ele><time>2026-04-12T09:58:22.178Z</time></trkpt><trkpt lat="45.6953283" lon="8.4700828"><ele>305.75</ele><time>2026-04-12T09:58:23.178Z</time></trkpt><trkpt lat="45.6954368" lon="8.4700905"><ele>306.5</ele><time>2026-04-12T09:58:24.184Z</time></trkpt><trkpt lat="45.6955645" lon="8.470099"><ele>307.25</ele><time>2026-04-12T09:58:25.18Z</time></trkpt><trkpt lat="45.6957018" lon="8.4701135"><ele>308.0</ele><time>2026-04-12T09:58:26.174Z</time></trkpt><trkpt lat="45.6958339" lon="8.4701245"><ele>308.0</ele><time>2026-04-12T09:58:27.175Z</time></trkpt><trkpt lat="45.6959741" lon="8.4701363"><ele>308.0</ele><time>2026-04-12T09:58:28.177Z</time></trkpt><trkpt lat="45.6960749" lon="8.4701456"><ele>308.0</ele><time>2026-04-12T09:58:29.21Z</time></trkpt><trkpt lat="45.6961739" lon="8.47016"><ele>308.0</ele><time>2026-04-12T09:58:30.215Z</time></trkpt><trkpt lat="45.6962709" lon="8.470172"><ele>308.0</ele><time>2026-04-12T09:58:31.209Z</time></trkpt><trkpt lat="45.6963611" lon="8.470177"><ele>307.83333333333337</ele><time>2026-04-12T09:58:32.169Z</time></trkpt><trkpt lat="45.6964354" lon="8.4701828"><ele>307.6666666666667</ele><time>2026-04-12T09:58:33.177Z</time></trkpt><trkpt lat="45.6965044" lon="8.4701887"><ele>307.5</ele><time>2026-04-12T09:58:34.215Z</time></trkpt><trkpt lat="45.6965674" lon="8.4701911"><ele>307.3333333333333</ele><time>2026-04-12T09:58:35.17Z</time></trkpt><trkpt lat="45.696677" lon="8.4702058"><ele>307.16666666666663</ele><time>2026-04-12T09:58:37.18Z</time></trkpt><trkpt lat="45.6967647" lon="8.4703086"><ele>307.0</ele><time>2026-04-12T09:58:39.183Z</time></trkpt><trkpt lat="45.6967933" lon="8.4703922"><ele>307.0</ele><time>2026-04-12T09:58:40.182Z</time></trkpt><trkpt lat="45.6968396" lon="8.4705604"><ele>307.0</ele><time>2026-04-12T09:58:42.175Z</time></trkpt><trkpt lat="45.6968666" lon="8.4706428"><ele>307.0</ele><time>2026-04-12T09:58:43.172Z</time></trkpt><trkpt lat="45.696894" lon="8.4707262"><ele>307.0</ele><time>2026-04-12T09:58:44.177Z</time></trkpt><trkpt lat="45.6969335" lon="8.4708123"><ele>307.0</ele><time>2026-04-12T09:58:45.175Z</time></trkpt><trkpt lat="45.6969767" lon="8.4708871"><ele>307.0</ele><time>2026-04-12T09:58:46.178Z</time></trkpt><trkpt lat="45.6970433" lon="8.4708623"><ele>307.4</ele><time>2026-04-12T09:58:47.173Z</time></trkpt><trkpt lat="45.6971384" lon="8.4708438"><ele>307.79999999999995</ele><time>2026-04-12T09:58:48.173Z</time></trkpt><trkpt lat="45.6972338" lon="8.4707977"><ele>308.2</ele><time>2026-04-12T09:58:49.183Z</time></trkpt><trkpt lat="45.6973377" lon="8.4707465"><ele>308.59999999999997</ele><time>2026-04-12T09:58:50.205Z</time></trkpt><trkpt lat="45.6974665" lon="8.4706795"><ele>309.0</ele><time>2026-04-12T09:58:51.179Z</time></trkpt><trkpt lat="45.6975986" lon="8.4705982"><ele>309.0</ele><time>2026-04-12T09:58:52.173Z</time></trkpt><trkpt lat="45.6977189" lon="8.4705421"><ele>309.0</ele><time>2026-04-12T09:58:53.172Z</time></trkpt><trkpt lat="45.6978347" lon="8.470484"><ele>309.0</ele><time>2026-04-12T09:58:54.186Z</time></trkpt><trkpt lat="45.6979558" lon="8.4704254"><ele>309.0</ele><time>2026-04-12T09:58:55.173Z</time></trkpt><trkpt lat="45.6980749" lon="8.4703585"><ele>309.3333333333333</ele><time>2026-04-12T09:58:56.181Z</time></trkpt><trkpt lat="45.6981896" lon="8.4702967"><ele>309.66666666666663</ele><time>2026-04-12T09:58:57.175Z</time></trkpt><trkpt lat="45.6983991" lon="8.4701703"><ele>310.0</ele><time>2026-04-12T09:58:59.232Z</time></trkpt><trkpt lat="45.6984914" lon="8.4701163"><ele>310.0</ele><time>2026-04-12T09:59:00.182Z</time></trkpt><trkpt lat="45.6985832" lon="8.4700702"><ele>310.0</ele><time>2026-04-12T09:59:01.211Z</time></trkpt><trkpt lat="45.6986854" lon="8.4700222"><ele>310.0</ele><time>2026-04-12T09:59:02.187Z</time></trkpt><trkpt lat="45.698783" lon="8.4699686"><ele>310.0</ele><time>2026-04-12T09:59:03.165Z</time></trkpt><trkpt lat="45.698882" lon="8.4699113"><ele>310.0</ele><time>2026-04-12T09:59:04.186Z</time></trkpt><trkpt lat="45.6989848" lon="8.4698468"><ele>310.0</ele><time>2026-04-12T09:59:05.178Z</time></trkpt><trkpt lat="45.6990915" lon="8.4697819"><ele>310.0</ele><time>2026-04-12T09:59:06.178Z</time></trkpt><trkpt lat="45.6991996" lon="8.4697281"><ele>310.0</ele><time>2026-04-12T09:59:07.177Z</time></trkpt><trkpt lat="45.6993119" lon="8.4696719"><ele>310.0</ele><time>2026-04-12T09:59:08.169Z</time></trkpt><trkpt lat="45.6994154" lon="8.4696235"><ele>310.25</ele><time>2026-04-12T09:59:09.157Z</time></trkpt><trkpt lat="45.6995227" lon="8.4695765"><ele>310.5</ele><time>2026-04-12T09:59:10.159Z</time></trkpt><trkpt lat="45.6996376" lon="8.4695306"><ele>310.75</ele><time>2026-04-12T09:59:11.169Z</time></trkpt><trkpt lat="45.6997541" lon="8.4694824"><ele>311.0</ele><time>2026-04-12T09:59:12.174Z</time></trkpt><trkpt lat="45.6998731" lon="8.469442"><ele>311.0</ele><time>2026-04-12T09:59:13.169Z</time></trkpt><trkpt lat="45.6999915" lon="8.4693952"><ele>311.0</ele><time>2026-04-12T09:59:14.161Z</time></trkpt><trkpt lat="45.7001131" lon="8.4693594"><ele>311.0</ele><time>2026-04-12T09:59:15.171Z</time></trkpt><trkpt lat="45.7002393" lon="8.4693359"><ele>311.0</ele><time>2026-04-12T09:59:16.212Z</time></trkpt><trkpt lat="45.700363" lon="8.4693147"><ele>311.5</ele><time>2026-04-12T09:59:17.164Z</time></trkpt><trkpt lat="45.7004858" lon="8.4692948"><ele>312.0</ele><time>2026-04-12T09:59:18.17Z</time></trkpt><trkpt lat="45.700606" lon="8.4692697"><ele>312.5</ele><time>2026-04-12T09:59:19.179Z</time></trkpt><trkpt lat="45.7007094" lon="8.4692496"><ele>313.0</ele><time>2026-04-12T09:59:20.171Z</time></trkpt><trkpt lat="45.7008188" lon="8.4692259"><ele>313.0</ele><time>2026-04-12T09:59:21.174Z</time></trkpt><trkpt lat="45.7008975" lon="8.4692084"><ele>313.0</ele><time>2026-04-12T09:59:22.18Z</time></trkpt><trkpt lat="45.700984" lon="8.4692025"><ele>313.0</ele><time>2026-04-12T09:59:23.171Z</time></trkpt><trkpt lat="45.701078" lon="8.4691862"><ele>313.0</ele><time>2026-04-12T09:59:24.191Z</time></trkpt><trkpt lat="45.7011469" lon="8.4691917"><ele>313.0</ele><time>2026-04-12T09:59:25.205Z</time></trkpt><trkpt lat="45.7012276" lon="8.4691872"><ele>313.0</ele><time>2026-04-12T09:59:26.178Z</time></trkpt><trkpt lat="45.7013339" lon="8.4691652"><ele>313.0</ele><time>2026-04-12T09:59:28.184Z</time></trkpt><trkpt lat="45.7014418" lon="8.4691606"><ele>313.0</ele><time>2026-04-12T09:59:30.175Z</time></trkpt><trkpt lat="45.7015262" lon="8.4690603"><ele>313.0</ele><time>2026-04-12T09:59:32.177Z</time></trkpt><trkpt lat="45.701558" lon="8.4689699"><ele>313.0</ele><time>2026-04-12T09:59:33.178Z</time></trkpt><trkpt lat="45.7015908" lon="8.4688738"><ele>313.0</ele><time>2026-04-12T09:59:34.177Z</time></trkpt><trkpt lat="45.7016322" lon="8.4687696"><ele>313.0</ele><time>2026-04-12T09:59:35.163Z</time></trkpt><trkpt lat="45.7016758" lon="8.4686635"><ele>313.0</ele><time>2026-04-12T09:59:36.206Z</time></trkpt><trkpt lat="45.7017312" lon="8.4685514"><ele>313.0</ele><time>2026-04-12T09:59:37.181Z</time></trkpt><trkpt lat="45.7017928" lon="8.4684324"><ele>313.0</ele><time>2026-04-12T09:59:38.182Z</time></trkpt><trkpt lat="45.7018563" lon="8.4683154"><ele>313.0</ele><time>2026-04-12T09:59:39.21Z</time></trkpt><trkpt lat="45.7019234" lon="8.4682012"><ele>313.0</ele><time>2026-04-12T09:59:40.17Z</time></trkpt><trkpt lat="45.7019907" lon="8.4680828"><ele>313.0</ele><time>2026-04-12T09:59:41.168Z</time></trkpt><trkpt lat="45.7020574" lon="8.4679665"><ele>313.0</ele><time>2026-04-12T09:59:42.17Z</time></trkpt><trkpt lat="45.7021262" lon="8.4678588"><ele>313.0</ele><time>2026-04-12T09:59:43.185Z</time></trkpt><trkpt lat="45.7021908" lon="8.4677565"><ele>313.0</ele><time>2026-04-12T09:59:44.175Z</time></trkpt><trkpt lat="45.7022534" lon="8.4676558"><ele>313.0</ele><time>2026-04-12T09:59:45.16Z</time></trkpt><trkpt lat="45.7023086" lon="8.46755"><ele>313.0</ele><time>2026-04-12T09:59:46.176Z</time></trkpt><trkpt lat="45.7023574" lon="8.4674576"><ele>313.0</ele><time>2026-04-12T09:59:47.176Z</time></trkpt><trkpt lat="45.7024054" lon="8.4673758"><ele>313.0</ele><time>2026-04-12T09:59:48.174Z</time></trkpt><trkpt lat="45.7024481" lon="8.4672963"><ele>313.0</ele><time>2026-04-12T09:59:49.176Z</time></trkpt><trkpt lat="45.70253" lon="8.4671706"><ele>313.0</ele><time>2026-04-12T09:59:51.174Z</time></trkpt><trkpt lat="45.7026185" lon="8.467151"><ele>313.0</ele><time>2026-04-12T09:59:53.179Z</time></trkpt><trkpt lat="45.7026883" lon="8.4671775"><ele>313.5</ele><time>2026-04-12T09:59:54.185Z</time></trkpt><trkpt lat="45.7028194" lon="8.4672385"><ele>314.0</ele><time>2026-04-12T09:59:55.18Z</time></trkpt><trkpt lat="45.7029466" lon="8.4673214"><ele>314.5</ele><time>2026-04-12T09:59:56.18Z</time></trkpt><trkpt lat="45.7030927" lon="8.4674069"><ele>315.0</ele><time>2026-04-12T09:59:57.174Z</time></trkpt><trkpt lat="45.7032462" lon="8.4675067"><ele>315.0</ele><time>2026-04-12T09:59:58.174Z</time></trkpt><trkpt lat="45.7033904" lon="8.4676016"><ele>315.0</ele><time>2026-04-12T09:59:59.177Z</time></trkpt><trkpt lat="45.7035262" lon="8.4676928"><ele>315.0</ele><time>2026-04-12T10:00:00.182Z</time></trkpt><trkpt lat="45.7036567" lon="8.4677757"><ele>315.0</ele><time>2026-04-12T10:00:01.18Z</time></trkpt><trkpt lat="45.7037745" lon="8.467848"><ele>315.0</ele><time>2026-04-12T10:00:02.175Z</time></trkpt><trkpt lat="45.7038744" lon="8.4679107"><ele>315.0</ele><time>2026-04-12T10:00:03.184Z</time></trkpt><trkpt lat="45.7039621" lon="8.467966"><ele>315.0</ele><time>2026-04-12T10:00:04.179Z</time></trkpt><trkpt lat="45.7040295" lon="8.4680115"><ele>315.0</ele><time>2026-04-12T10:00:05.16Z</time></trkpt><trkpt lat="45.7041128" lon="8.4680698"><ele>315.0</ele><time>2026-04-12T10:00:06.179Z</time></trkpt><trkpt lat="45.7042069" lon="8.4681251"><ele>315.0</ele><time>2026-04-12T10:00:07.184Z</time></trkpt><trkpt lat="45.70429" lon="8.468176"><ele>315.0</ele><time>2026-04-12T10:00:08.179Z</time></trkpt><trkpt lat="45.7043685" lon="8.4682104"><ele>315.0</ele><time>2026-04-12T10:00:09.179Z</time></trkpt><trkpt lat="45.70446" lon="8.4682402"><ele>315.0</ele><time>2026-04-12T10:00:11.188Z</time></trkpt><trkpt lat="45.7045409" lon="8.468275"><ele>315.0</ele><time>2026-04-12T10:00:15.161Z</time></trkpt><trkpt lat="45.7046365" lon="8.4683179"><ele>315.0</ele><time>2026-04-12T10:00:17.166Z</time></trkpt><trkpt lat="45.7047369" lon="8.4683747"><ele>315.0</ele><time>2026-04-12T10:00:19.162Z</time></trkpt><trkpt lat="45.7048588" lon="8.4684907"><ele>315.0</ele><time>2026-04-12T10:00:21.173Z</time></trkpt><trkpt lat="45.7049381" lon="8.4685729"><ele>315.0</ele><time>2026-04-12T10:00:22.169Z</time></trkpt><trkpt lat="45.7050183" lon="8.4686344"><ele>315.0</ele><time>2026-04-12T10:00:23.175Z</time></trkpt><trkpt lat="45.7050992" lon="8.4686814"><ele>315.0</ele><time>2026-04-12T10:00:24.177Z</time></trkpt><trkpt lat="45.7051774" lon="8.4687281"><ele>315.0</ele><time>2026-04-12T10:00:25.173Z</time></trkpt><trkpt lat="45.7052533" lon="8.4687671"><ele>315.0</ele><time>2026-04-12T10:00:26.177Z</time></trkpt><trkpt lat="45.7053252" lon="8.4688187"><ele>315.0</ele><time>2026-04-12T10:00:27.17Z</time></trkpt><trkpt lat="45.7054083" lon="8.4688637"><ele>315.4</ele><time>2026-04-12T10:00:28.175Z</time></trkpt><trkpt lat="45.7054854" lon="8.468912"><ele>315.8</ele><time>2026-04-12T10:00:29.209Z</time></trkpt><trkpt lat="45.7055682" lon="8.468962"><ele>316.2</ele><time>2026-04-12T10:00:30.16Z</time></trkpt><trkpt lat="45.7056753" lon="8.4690155"><ele>316.6</ele><time>2026-04-12T10:00:31.203Z</time></trkpt><trkpt lat="45.7057829" lon="8.469077"><ele>317.0</ele><time>2026-04-12T10:00:32.169Z</time></trkpt><trkpt lat="45.7059074" lon="8.4691402"><ele>317.0</ele><time>2026-04-12T10:00:33.173Z</time></trkpt><trkpt lat="45.7060199" lon="8.4692044"><ele>317.0</ele><time>2026-04-12T10:00:34.186Z</time></trkpt><trkpt lat="45.7061309" lon="8.4692669"><ele>317.0</ele><time>2026-04-12T10:00:35.174Z</time></trkpt><trkpt lat="45.7062503" lon="8.4693266"><ele>317.0</ele><time>2026-04-12T10:00:36.184Z</time></trkpt><trkpt lat="45.7063692" lon="8.4693864"><ele>317.0</ele><time>2026-04-12T10:00:37.16Z</time></trkpt><trkpt lat="45.7064806" lon="8.4694394"><ele>317.0</ele><time>2026-04-12T10:00:38.171Z</time></trkpt><trkpt lat="45.7065939" lon="8.4694894"><ele>317.0</ele><time>2026-04-12T10:00:39.169Z</time></trkpt><trkpt lat="45.7067095" lon="8.4695382"><ele>317.0</ele><time>2026-04-12T10:00:40.178Z</time></trkpt><trkpt lat="45.7068285" lon="8.4695924"><ele>316.75</ele><time>2026-04-12T10:00:41.167Z</time></trkpt><trkpt lat="45.7069486" lon="8.4696438"><ele>316.5</ele><time>2026-04-12T10:00:42.178Z</time></trkpt><trkpt lat="45.7070672" lon="8.4696894"><ele>316.25</ele><time>2026-04-12T10:00:43.175Z</time></trkpt><trkpt lat="45.70718" lon="8.469733"><ele>316.0</ele><time>2026-04-12T10:00:44.178Z</time></trkpt><trkpt lat="45.7072858" lon="8.4697763"><ele>316.0</ele><time>2026-04-12T10:00:45.181Z</time></trkpt><trkpt lat="45.707391" lon="8.4698252"><ele>316.0</ele><time>2026-04-12T10:00:46.206Z</time></trkpt><trkpt lat="45.7074947" lon="8.4698778"><ele>316.0</ele><time>2026-04-12T10:00:47.172Z</time></trkpt><trkpt lat="45.7076016" lon="8.4699333"><ele>316.0</ele><time>2026-04-12T10:00:48.172Z</time></trkpt><trkpt lat="45.7077034" lon="8.4700041"><ele>316.0</ele><time>2026-04-12T10:00:49.171Z</time></trkpt><trkpt lat="45.7078072" lon="8.4700849"><ele>316.25</ele><time>2026-04-12T10:00:50.179Z</time></trkpt><trkpt lat="45.7079094" lon="8.47018"><ele>316.5</ele><time>2026-04-12T10:00:51.172Z</time></trkpt><trkpt lat="45.7080066" lon="8.4702783"><ele>316.75</ele><time>2026-04-12T10:00:52.165Z</time></trkpt><trkpt lat="45.7080935" lon="8.4703797"><ele>317.0</ele><time>2026-04-12T10:00:53.173Z</time></trkpt><trkpt lat="45.7081819" lon="8.4704751"><ele>317.0</ele><time>2026-04-12T10:00:54.171Z</time></trkpt><trkpt lat="45.708266" lon="8.4705671"><ele>317.0</ele><time>2026-04-12T10:00:55.172Z</time></trkpt><trkpt lat="45.7083454" lon="8.4706527"><ele>317.0</ele><time>2026-04-12T10:00:56.188Z</time></trkpt><trkpt lat="45.7084211" lon="8.4707282"><ele>317.0</ele><time>2026-04-12T10:00:57.175Z</time></trkpt><trkpt lat="45.7084945" lon="8.4707982"><ele>317.0</ele><time>2026-04-12T10:00:58.18Z</time></trkpt><trkpt lat="45.7085608" lon="8.4708703"><ele>316.8</ele><time>2026-04-12T10:00:59.218Z</time></trkpt><trkpt lat="45.7086262" lon="8.4709396"><ele>316.6</ele><time>2026-04-12T10:01:00.181Z</time></trkpt><trkpt lat="45.7087138" lon="8.4710246"><ele>316.40000000000003</ele><time>2026-04-12T10:01:01.215Z</time></trkpt><trkpt lat="45.7087975" lon="8.4711242"><ele>316.2</ele><time>2026-04-12T10:01:02.173Z</time></trkpt><trkpt lat="45.7088775" lon="8.4712221"><ele>316.0</ele><time>2026-04-12T10:01:03.187Z</time></trkpt><trkpt lat="45.7089573" lon="8.4713132"><ele>316.0</ele><time>2026-04-12T10:01:04.187Z</time></trkpt><trkpt lat="45.7090343" lon="8.4713856"><ele>316.0</ele><time>2026-04-12T10:01:05.158Z</time></trkpt><trkpt lat="45.7091069" lon="8.4714525"><ele>316.0</ele><time>2026-04-12T10:01:06.156Z</time></trkpt><trkpt lat="45.7091802" lon="8.4715319"><ele>316.0</ele><time>2026-04-12T10:01:07.156Z</time></trkpt><trkpt lat="45.7092482" lon="8.4716225"><ele>316.0</ele><time>2026-04-12T10:01:08.169Z</time></trkpt><trkpt lat="45.7093077" lon="8.4717175"><ele>316.0</ele><time>2026-04-12T10:01:09.174Z</time></trkpt><trkpt lat="45.7093839" lon="8.4718191"><ele>316.0</ele><time>2026-04-12T10:01:10.169Z</time></trkpt><trkpt lat="45.7094729" lon="8.4719215"><ele>316.0</ele><time>2026-04-12T10:01:11.162Z</time></trkpt><trkpt lat="45.7095754" lon="8.4720296"><ele>316.0</ele><time>2026-04-12T10:01:12.168Z</time></trkpt><trkpt lat="45.7096989" lon="8.4721552"><ele>316.66666666666663</ele><time>2026-04-12T10:01:13.189Z</time></trkpt><trkpt lat="45.7098321" lon="8.4722993"><ele>317.3333333333333</ele><time>2026-04-12T10:01:14.218Z</time></trkpt><trkpt lat="45.7099731" lon="8.4724645"><ele>318.0</ele><time>2026-04-12T10:01:15.177Z</time></trkpt><trkpt lat="45.7101238" lon="8.4726423"><ele>318.0</ele><time>2026-04-12T10:01:16.177Z</time></trkpt><trkpt lat="45.7102722" lon="8.4728265"><ele>318.0</ele><time>2026-04-12T10:01:17.172Z</time></trkpt><trkpt lat="45.7104153" lon="8.4730047"><ele>318.0</ele><time>2026-04-12T10:01:18.178Z</time></trkpt><trkpt lat="45.7105519" lon="8.4731712"><ele>318.0</ele><time>2026-04-12T10:01:19.184Z</time></trkpt><trkpt lat="45.7106816" lon="8.4733276"><ele>318.0</ele><time>2026-04-12T10:01:20.207Z</time></trkpt><trkpt lat="45.710805" lon="8.4734716"><ele>318.0</ele><time>2026-04-12T10:01:21.179Z</time></trkpt><trkpt lat="45.7109218" lon="8.473598"><ele>318.0</ele><time>2026-04-12T10:01:22.172Z</time></trkpt><trkpt lat="45.7110292" lon="8.4737134"><ele>318.0</ele><time>2026-04-12T10:01:23.175Z</time></trkpt><trkpt lat="45.7111257" lon="8.4738173"><ele>318.0</ele><time>2026-04-12T10:01:24.183Z</time></trkpt><trkpt lat="45.7112129" lon="8.4739119"><ele>318.0</ele><time>2026-04-12T10:01:25.174Z</time></trkpt><trkpt lat="45.7112919" lon="8.4739942"><ele>319.5</ele><time>2026-04-12T10:01:26.171Z</time></trkpt><trkpt lat="45.7113764" lon="8.4740874"><ele>321.0</ele><time>2026-04-12T10:01:27.17Z</time></trkpt><trkpt lat="45.71147" lon="8.4741975"><ele>322.5</ele><time>2026-04-12T10:01:28.158Z</time></trkpt><trkpt lat="45.7115828" lon="8.4743182"><ele>324.0</ele><time>2026-04-12T10:01:29.182Z</time></trkpt><trkpt lat="45.7117086" lon="8.4744545"><ele>325.0</ele><time>2026-04-12T10:01:30.204Z</time></trkpt><trkpt lat="45.7118404" lon="8.4746108"><ele>326.0</ele><time>2026-04-12T10:01:31.197Z</time></trkpt><trkpt lat="45.7119708" lon="8.4747814"><ele>327.0</ele><time>2026-04-12T10:01:32.176Z</time></trkpt><trkpt lat="45.712088" lon="8.4749693"><ele>327.0</ele><time>2026-04-12T10:01:33.179Z</time></trkpt><trkpt lat="45.71219" lon="8.4751806"><ele>327.0</ele><time>2026-04-12T10:01:34.162Z</time></trkpt><trkpt lat="45.7122868" lon="8.4754075"><ele>327.0</ele><time>2026-04-12T10:01:35.169Z</time></trkpt><trkpt lat="45.7123696" lon="8.4756476"><ele>328.0</ele><time>2026-04-12T10:01:36.209Z</time></trkpt><trkpt lat="45.7124508" lon="8.4758934"><ele>329.0</ele><time>2026-04-12T10:01:37.171Z</time></trkpt><trkpt lat="45.7125311" lon="8.4761514"><ele>330.0</ele><time>2026-04-12T10:01:38.176Z</time></trkpt><trkpt lat="45.712613" lon="8.4764281"><ele>331.0</ele><time>2026-04-12T10:01:39.172Z</time></trkpt><trkpt lat="45.7127039" lon="8.4767189"><ele>332.0</ele><time>2026-04-12T10:01:40.172Z</time></trkpt><trkpt lat="45.7128078" lon="8.477057"><ele>333.0</ele><time>2026-04-12T10:01:41.186Z</time></trkpt><trkpt lat="45.7129078" lon="8.4773614"><ele>334.0</ele><time>2026-04-12T10:01:42.179Z</time></trkpt><trkpt lat="45.7129986" lon="8.4776456"><ele>334.0</ele><time>2026-04-12T10:01:43.174Z</time></trkpt><trkpt lat="45.7130796" lon="8.477908"><ele>334.0</ele><time>2026-04-12T10:01:44.174Z</time></trkpt><trkpt lat="45.7131484" lon="8.478158"><ele>334.0</ele><time>2026-04-12T10:01:45.174Z</time></trkpt><trkpt lat="45.713221" lon="8.4783849"><ele>334.0</ele><time>2026-04-12T10:01:46.178Z</time></trkpt><trkpt lat="45.7132843" lon="8.478597"><ele>334.0</ele><time>2026-04-12T10:01:47.19Z</time></trkpt><trkpt lat="45.713345" lon="8.4788038"><ele>334.0</ele><time>2026-04-12T10:01:48.183Z</time></trkpt><trkpt lat="45.7134012" lon="8.4790092"><ele>334.0</ele><time>2026-04-12T10:01:49.182Z</time></trkpt><trkpt lat="45.7134528" lon="8.4791986"><ele>334.0</ele><time>2026-04-12T10:01:50.182Z</time></trkpt><trkpt lat="45.7134946" lon="8.4793782"><ele>334.0</ele><time>2026-04-12T10:01:51.213Z</time></trkpt><trkpt lat="45.7135266" lon="8.4795445"><ele>334.0</ele><time>2026-04-12T10:01:52.17Z</time></trkpt><trkpt lat="45.7135544" lon="8.4796962"><ele>333.4</ele><time>2026-04-12T10:01:53.177Z</time></trkpt><trkpt lat="45.7135765" lon="8.4798489"><ele>332.79999999999995</ele><time>2026-04-12T10:01:54.184Z</time></trkpt><trkpt lat="45.7135837" lon="8.4799912"><ele>332.20000000000005</ele><time>2026-04-12T10:01:55.205Z</time></trkpt><trkpt lat="45.7135821" lon="8.4801061"><ele>331.6</ele><time>2026-04-12T10:01:56.17Z</time></trkpt><trkpt lat="45.7135734" lon="8.4801976"><ele>331.0</ele><time>2026-04-12T10:01:57.176Z</time></trkpt><trkpt lat="45.7135475" lon="8.4803384"><ele>331.0</ele><time>2026-04-12T10:01:59.203Z</time></trkpt><trkpt lat="45.7135034" lon="8.4804689"><ele>331.0</ele><time>2026-04-12T10:02:01.173Z</time></trkpt><trkpt lat="45.7134639" lon="8.4805463"><ele>331.0</ele><time>2026-04-12T10:02:02.154Z</time></trkpt><trkpt lat="45.7134113" lon="8.4806384"><ele>331.0</ele><time>2026-04-12T10:02:03.174Z</time></trkpt><trkpt lat="45.7133498" lon="8.4807523"><ele>331.0</ele><time>2026-04-12T10:02:04.155Z</time></trkpt><trkpt lat="45.7132967" lon="8.4808899"><ele>331.0</ele><time>2026-04-12T10:02:05.216Z</time></trkpt><trkpt lat="45.7132644" lon="8.4810185"><ele>331.0</ele><time>2026-04-12T10:02:06.206Z</time></trkpt><trkpt lat="45.7132499" lon="8.481152"><ele>331.0</ele><time>2026-04-12T10:02:07.176Z</time></trkpt><trkpt lat="45.7132514" lon="8.4812873"><ele>331.0</ele><time>2026-04-12T10:02:08.177Z</time></trkpt><trkpt lat="45.7132678" lon="8.4814186"><ele>331.0</ele><time>2026-04-12T10:02:09.174Z</time></trkpt><trkpt lat="45.7132973" lon="8.4815487"><ele>331.20000000000005</ele><time>2026-04-12T10:02:10.174Z</time></trkpt><trkpt lat="45.7133485" lon="8.4816757"><ele>331.40000000000003</ele><time>2026-04-12T10:02:11.175Z</time></trkpt><trkpt lat="45.7134174" lon="8.4817783"><ele>331.6</ele><time>2026-04-12T10:02:12.16Z</time></trkpt><trkpt lat="45.7134933" lon="8.4818662"><ele>331.8</ele><time>2026-04-12T10:02:13.171Z</time></trkpt><trkpt lat="45.7135767" lon="8.4819371"><ele>332.0</ele><time>2026-04-12T10:02:14.203Z</time></trkpt><trkpt lat="45.7136693" lon="8.4820014"><ele>332.0</ele><time>2026-04-12T10:02:15.18Z</time></trkpt><trkpt lat="45.7137506" lon="8.4820489"><ele>332.0</ele><time>2026-04-12T10:02:16.182Z</time></trkpt><trkpt lat="45.7138335" lon="8.4821198"><ele>332.0</ele><time>2026-04-12T10:02:17.173Z</time></trkpt><trkpt lat="45.7139138" lon="8.4822145"><ele>332.0</ele><time>2026-04-12T10:02:18.178Z</time></trkpt><trkpt lat="45.7139873" lon="8.4823347"><ele>332.0</ele><time>2026-04-12T10:02:19.181Z</time></trkpt><trkpt lat="45.7140679" lon="8.4824885"><ele>331.6666666666667</ele><time>2026-04-12T10:02:20.213Z</time></trkpt><trkpt lat="45.7141611" lon="8.482677"><ele>331.3333333333333</ele><time>2026-04-12T10:02:21.181Z</time></trkpt><trkpt lat="45.7142572" lon="8.4828919"><ele>331.0</ele><time>2026-04-12T10:02:22.173Z</time></trkpt><trkpt lat="45.7143532" lon="8.4831144"><ele>331.3333333333333</ele><time>2026-04-12T10:02:23.183Z</time></trkpt><trkpt lat="45.7144677" lon="8.4833222"><ele>331.6666666666667</ele><time>2026-04-12T10:02:24.193Z</time></trkpt><trkpt lat="45.7145857" lon="8.4835106"><ele>332.0</ele><time>2026-04-12T10:02:25.186Z</time></trkpt><trkpt lat="45.7147153" lon="8.483677"><ele>332.0</ele><time>2026-04-12T10:02:26.178Z</time></trkpt><trkpt lat="45.7148513" lon="8.4838301"><ele>332.0</ele><time>2026-04-12T10:02:27.175Z</time></trkpt><trkpt lat="45.7149908" lon="8.4839753"><ele>332.0</ele><time>2026-04-12T10:02:28.181Z</time></trkpt><trkpt lat="45.7151216" lon="8.4841114"><ele>333.33333333333337</ele><time>2026-04-12T10:02:29.185Z</time></trkpt><trkpt lat="45.7152582" lon="8.4842387"><ele>334.6666666666667</ele><time>2026-04-12T10:02:30.211Z</time></trkpt><trkpt lat="45.7153902" lon="8.4843639"><ele>336.0</ele><time>2026-04-12T10:02:31.223Z</time></trkpt><trkpt lat="45.7155167" lon="8.4844946"><ele>335.3333333333333</ele><time>2026-04-12T10:02:32.176Z</time></trkpt><trkpt lat="45.7156501" lon="8.4846243"><ele>334.66666666666663</ele><time>2026-04-12T10:02:33.175Z</time></trkpt><trkpt lat="45.7157847" lon="8.484751"><ele>334.0</ele><time>2026-04-12T10:02:34.188Z</time></trkpt><trkpt lat="45.7159258" lon="8.4848831"><ele>334.0</ele><time>2026-04-12T10:02:35.178Z</time></trkpt><trkpt lat="45.7160693" lon="8.4850164"><ele>334.0</ele><time>2026-04-12T10:02:36.171Z</time></trkpt><trkpt lat="45.7162154" lon="8.4851573"><ele>334.0</ele><time>2026-04-12T10:02:37.167Z</time></trkpt><trkpt lat="45.716359" lon="8.4853064"><ele>333.3333333333333</ele><time>2026-04-12T10:02:38.177Z</time></trkpt><trkpt lat="45.7165044" lon="8.4854415"><ele>332.6666666666667</ele><time>2026-04-12T10:02:39.166Z</time></trkpt><trkpt lat="45.7166438" lon="8.4855839"><ele>332.0</ele><time>2026-04-12T10:02:40.176Z</time></trkpt><trkpt lat="45.7167899" lon="8.4857232"><ele>333.0</ele><time>2026-04-12T10:02:41.173Z</time></trkpt><trkpt lat="45.7169423" lon="8.4858671"><ele>334.0</ele><time>2026-04-12T10:02:42.178Z</time></trkpt><trkpt lat="45.7171125" lon="8.4860282"><ele>335.0</ele><time>2026-04-12T10:02:43.219Z</time></trkpt><trkpt lat="45.7172901" lon="8.4862117"><ele>335.0</ele><time>2026-04-12T10:02:44.206Z</time></trkpt><trkpt lat="45.7174715" lon="8.4864041"><ele>335.0</ele><time>2026-04-12T10:02:45.178Z</time></trkpt><trkpt lat="45.7176546" lon="8.4865941"><ele>336.0</ele><time>2026-04-12T10:02:46.173Z</time></trkpt><trkpt lat="45.7178355" lon="8.4867744"><ele>337.0</ele><time>2026-04-12T10:02:47.178Z</time></trkpt><trkpt lat="45.7180058" lon="8.4869471"><ele>338.0</ele><time>2026-04-12T10:02:48.175Z</time></trkpt><trkpt lat="45.7181691" lon="8.4871169"><ele>338.0</ele><time>2026-04-12T10:02:49.179Z</time></trkpt><trkpt lat="45.7183231" lon="8.4872753"><ele>338.0</ele><time>2026-04-12T10:02:50.178Z</time></trkpt><trkpt lat="45.7184833" lon="8.487435"><ele>338.0</ele><time>2026-04-12T10:02:51.181Z</time></trkpt><trkpt lat="45.7186503" lon="8.4875985"><ele>338.0</ele><time>2026-04-12T10:02:52.179Z</time></trkpt><trkpt lat="45.7188155" lon="8.4877662"><ele>338.0</ele><time>2026-04-12T10:02:53.183Z</time></trkpt><trkpt lat="45.7189654" lon="8.4879198"><ele>338.0</ele><time>2026-04-12T10:02:54.186Z</time></trkpt><trkpt lat="45.7190993" lon="8.4880588"><ele>338.0</ele><time>2026-04-12T10:02:55.227Z</time></trkpt><trkpt lat="45.7192276" lon="8.4881868"><ele>338.0</ele><time>2026-04-12T10:02:56.17Z</time></trkpt><trkpt lat="45.7193542" lon="8.4883057"><ele>338.0</ele><time>2026-04-12T10:02:57.176Z</time></trkpt><trkpt lat="45.7194685" lon="8.4884156"><ele>338.0</ele><time>2026-04-12T10:02:58.182Z</time></trkpt><trkpt lat="45.719576" lon="8.4885171"><ele>337.75</ele><time>2026-04-12T10:02:59.184Z</time></trkpt><trkpt lat="45.7196765" lon="8.4886154"><ele>337.5</ele><time>2026-04-12T10:03:00.208Z</time></trkpt><trkpt lat="45.7197694" lon="8.4887005"><ele>337.25</ele><time>2026-04-12T10:03:01.171Z</time></trkpt><trkpt lat="45.719859" lon="8.4887863"><ele>337.0</ele><time>2026-04-12T10:03:02.175Z</time></trkpt><trkpt lat="45.7199572" lon="8.4888818"><ele>337.0</ele><time>2026-04-12T10:03:03.181Z</time></trkpt><trkpt lat="45.7200429" lon="8.4889936"><ele>337.0</ele><time>2026-04-12T10:03:04.188Z</time></trkpt><trkpt lat="45.7201226" lon="8.4891054"><ele>337.0</ele><time>2026-04-12T10:03:05.192Z</time></trkpt><trkpt lat="45.7202117" lon="8.4892091"><ele>337.0</ele><time>2026-04-12T10:03:06.176Z</time></trkpt><trkpt lat="45.7203106" lon="8.4892836"><ele>337.0</ele><time>2026-04-12T10:03:07.178Z</time></trkpt><trkpt lat="45.7204362" lon="8.4893676"><ele>337.0</ele><time>2026-04-12T10:03:08.188Z</time></trkpt><trkpt lat="45.7205695" lon="8.4894815"><ele>337.0</ele><time>2026-04-12T10:03:09.172Z</time></trkpt><trkpt lat="45.7207125" lon="8.4896168"><ele>337.3333333333333</ele><time>2026-04-12T10:03:10.164Z</time></trkpt><trkpt lat="45.7208742" lon="8.4897698"><ele>337.6666666666667</ele><time>2026-04-12T10:03:11.179Z</time></trkpt><trkpt lat="45.7210407" lon="8.4899373"><ele>338.0</ele><time>2026-04-12T10:03:12.173Z</time></trkpt><trkpt lat="45.721196" lon="8.4900903"><ele>338.0</ele><time>2026-04-12T10:03:13.176Z</time></trkpt><trkpt lat="45.7213435" lon="8.4902302"><ele>338.0</ele><time>2026-04-12T10:03:14.172Z</time></trkpt><trkpt lat="45.7214978" lon="8.4903734"><ele>338.0</ele><time>2026-04-12T10:03:15.18Z</time></trkpt><trkpt lat="45.7216547" lon="8.490516"><ele>338.33333333333337</ele><time>2026-04-12T10:03:16.187Z</time></trkpt><trkpt lat="45.7218072" lon="8.4906672"><ele>338.6666666666667</ele><time>2026-04-12T10:03:17.175Z</time></trkpt><trkpt lat="45.7219511" lon="8.490814"><ele>339.0</ele><time>2026-04-12T10:03:18.174Z</time></trkpt><trkpt lat="45.7220937" lon="8.4909541"><ele>339.6666666666667</ele><time>2026-04-12T10:03:19.189Z</time></trkpt><trkpt lat="45.7222306" lon="8.4910892"><ele>340.33333333333337</ele><time>2026-04-12T10:03:20.176Z</time></trkpt><trkpt lat="45.722354" lon="8.4912223"><ele>341.0</ele><time>2026-04-12T10:03:21.178Z</time></trkpt><trkpt lat="45.7224769" lon="8.4913482"><ele>341.25</ele><time>2026-04-12T10:03:22.166Z</time></trkpt><trkpt lat="45.7225925" lon="8.4914669"><ele>341.5</ele><time>2026-04-12T10:03:23.178Z</time></trkpt><trkpt lat="45.7226974" lon="8.4915745"><ele>341.75</ele><time>2026-04-12T10:03:24.192Z</time></trkpt><trkpt lat="45.7228068" lon="8.4916776"><ele>342.0</ele><time>2026-04-12T10:03:25.184Z</time></trkpt><trkpt lat="45.7229095" lon="8.4917843"><ele>342.5</ele><time>2026-04-12T10:03:26.212Z</time></trkpt><trkpt lat="45.7230122" lon="8.491883"><ele>343.0</ele><time>2026-04-12T10:03:27.167Z</time></trkpt><trkpt lat="45.7231087" lon="8.4919831"><ele>343.5</ele><time>2026-04-12T10:03:28.193Z</time></trkpt><trkpt lat="45.7232063" lon="8.4920774"><ele>344.0</ele><time>2026-04-12T10:03:29.181Z</time></trkpt><trkpt lat="45.7233027" lon="8.4921651"><ele>344.0</ele><time>2026-04-12T10:03:30.219Z</time></trkpt><trkpt lat="45.7233851" lon="8.4922504"><ele>344.0</ele><time>2026-04-12T10:03:31.214Z</time></trkpt><trkpt lat="45.7234651" lon="8.4923231"><ele>344.0</ele><time>2026-04-12T10:03:32.188Z</time></trkpt><trkpt lat="45.7235429" lon="8.4923854"><ele>344.0</ele><time>2026-04-12T10:03:33.221Z</time></trkpt><trkpt lat="45.7236175" lon="8.4924475"><ele>344.0</ele><time>2026-04-12T10:03:34.197Z</time></trkpt><trkpt lat="45.7236896" lon="8.4925254"><ele>344.2</ele><time>2026-04-12T10:03:35.183Z</time></trkpt><trkpt lat="45.7237654" lon="8.4926212"><ele>344.4</ele><time>2026-04-12T10:03:36.181Z</time></trkpt><trkpt lat="45.7238458" lon="8.4927163"><ele>344.6</ele><time>2026-04-12T10:03:37.176Z</time></trkpt><trkpt lat="45.7239404" lon="8.4928126"><ele>344.8</ele><time>2026-04-12T10:03:38.172Z</time></trkpt><trkpt lat="45.7240372" lon="8.4929158"><ele>345.0</ele><time>2026-04-12T10:03:39.178Z</time></trkpt><trkpt lat="45.7241521" lon="8.4930325"><ele>345.6666666666667</ele><time>2026-04-12T10:03:40.174Z</time></trkpt><trkpt lat="45.7242808" lon="8.4931578"><ele>346.33333333333337</ele><time>2026-04-12T10:03:41.219Z</time></trkpt><trkpt lat="45.7244218" lon="8.493297"><ele>347.0</ele><time>2026-04-12T10:03:42.174Z</time></trkpt><trkpt lat="45.7245568" lon="8.4934351"><ele>347.6666666666667</ele><time>2026-04-12T10:03:43.178Z</time></trkpt><trkpt lat="45.7247069" lon="8.4935747"><ele>348.3333333333333</ele><time>2026-04-12T10:03:44.181Z</time></trkpt><trkpt lat="45.7248484" lon="8.4937107"><ele>349.0</ele><time>2026-04-12T10:03:45.174Z</time></trkpt><trkpt lat="45.7249955" lon="8.4938489"><ele>349.0</ele><time>2026-04-12T10:03:46.215Z</time></trkpt><trkpt lat="45.7251551" lon="8.4939933"><ele>349.0</ele><time>2026-04-12T10:03:47.181Z</time></trkpt><trkpt lat="45.7253237" lon="8.4941529"><ele>349.0</ele><time>2026-04-12T10:03:48.176Z</time></trkpt><trkpt lat="45.7255113" lon="8.4943413"><ele>349.0</ele><time>2026-04-12T10:03:49.176Z</time></trkpt><trkpt lat="45.7257248" lon="8.4945552"><ele>349.0</ele><time>2026-04-12T10:03:50.181Z</time></trkpt><trkpt lat="45.725946" lon="8.4947793"><ele>348.5</ele><time>2026-04-12T10:03:51.21Z</time></trkpt><trkpt lat="45.7261526" lon="8.4949955"><ele>348.0</ele><time>2026-04-12T10:03:52.179Z</time></trkpt><trkpt lat="45.726351" lon="8.495195"><ele>348.0</ele><time>2026-04-12T10:03:53.183Z</time></trkpt><trkpt lat="45.7265426" lon="8.4953861"><ele>348.0</ele><time>2026-04-12T10:03:54.186Z</time></trkpt><trkpt lat="45.7267292" lon="8.4955614"><ele>346.6666666666667</ele><time>2026-04-12T10:03:55.175Z</time></trkpt><trkpt lat="45.7269049" lon="8.4957195"><ele>345.33333333333337</ele><time>2026-04-12T10:03:56.212Z</time></trkpt><trkpt lat="45.7270684" lon="8.4958737"><ele>344.0</ele><time>2026-04-12T10:03:57.177Z</time></trkpt><trkpt lat="45.727235" lon="8.4960299"><ele>344.0</ele><time>2026-04-12T10:03:58.18Z</time></trkpt><trkpt lat="45.7273961" lon="8.4961967"><ele>344.0</ele><time>2026-04-12T10:03:59.172Z</time></trkpt><trkpt lat="45.7275694" lon="8.4963695"><ele>344.0</ele><time>2026-04-12T10:04:00.186Z</time></trkpt><trkpt lat="45.7277482" lon="8.4965536"><ele>344.0</ele><time>2026-04-12T10:04:01.19Z</time></trkpt><trkpt lat="45.7279261" lon="8.4967471"><ele>344.0</ele><time>2026-04-12T10:04:02.173Z</time></trkpt><trkpt lat="45.728115" lon="8.4969418"><ele>344.5</ele><time>2026-04-12T10:04:03.175Z</time></trkpt><trkpt lat="45.7283103" lon="8.4971325"><ele>345.0</ele><time>2026-04-12T10:04:04.184Z</time></trkpt><trkpt lat="45.7285098" lon="8.4973236"><ele>345.0</ele><time>2026-04-12T10:04:05.181Z</time></trkpt><trkpt lat="45.7287128" lon="8.4975237"><ele>345.0</ele><time>2026-04-12T10:04:06.208Z</time></trkpt><trkpt lat="45.7289341" lon="8.4977459"><ele>345.5</ele><time>2026-04-12T10:04:07.177Z</time></trkpt><trkpt lat="45.7291779" lon="8.4979973"><ele>346.0</ele><time>2026-04-12T10:04:08.178Z</time></trkpt><trkpt lat="45.7294547" lon="8.4982704"><ele>347.0</ele><time>2026-04-12T10:04:09.221Z</time></trkpt><trkpt lat="45.7297555" lon="8.4985677"><ele>348.0</ele><time>2026-04-12T10:04:10.195Z</time></trkpt><trkpt lat="45.7300809" lon="8.4988889"><ele>347.5</ele><time>2026-04-12T10:04:11.191Z</time></trkpt><trkpt lat="45.7304198" lon="8.4992258"><ele>347.0</ele><time>2026-04-12T10:04:12.177Z</time></trkpt><trkpt lat="45.7307846" lon="8.4995739"><ele>347.5</ele><time>2026-04-12T10:04:13.178Z</time></trkpt><trkpt lat="45.7311407" lon="8.49992"><ele>348.0</ele><time>2026-04-12T10:04:14.183Z</time></trkpt><trkpt lat="45.7314638" lon="8.500238"><ele>349.5</ele><time>2026-04-12T10:04:15.22Z</time></trkpt><trkpt lat="45.7317678" lon="8.5005284"><ele>351.0</ele><time>2026-04-12T10:04:16.175Z</time></trkpt><trkpt lat="45.732043" lon="8.5008026"><ele>352.5</ele><time>2026-04-12T10:04:17.183Z</time></trkpt><trkpt lat="45.7323033" lon="8.5010554"><ele>354.0</ele><time>2026-04-12T10:04:18.191Z</time></trkpt><trkpt lat="45.7325332" lon="8.5012969"><ele>354.5</ele><time>2026-04-12T10:04:19.188Z</time></trkpt><trkpt lat="45.7327418" lon="8.5015356"><ele>355.0</ele><time>2026-04-12T10:04:20.219Z</time></trkpt><trkpt lat="45.7329282" lon="8.5017736"><ele>355.0</ele><time>2026-04-12T10:04:21.185Z</time></trkpt><trkpt lat="45.7331073" lon="8.5020228"><ele>355.0</ele><time>2026-04-12T10:04:22.173Z</time></trkpt><trkpt lat="45.7332679" lon="8.5022692"><ele>355.66666666666663</ele><time>2026-04-12T10:04:23.184Z</time></trkpt><trkpt lat="45.7334263" lon="8.502509"><ele>356.3333333333333</ele><time>2026-04-12T10:04:24.182Z</time></trkpt><trkpt lat="45.7335702" lon="8.5027424"><ele>357.0</ele><time>2026-04-12T10:04:25.179Z</time></trkpt><trkpt lat="45.7337092" lon="8.5029626"><ele>359.3333333333333</ele><time>2026-04-12T10:04:26.185Z</time></trkpt><trkpt lat="45.7338461" lon="8.5031742"><ele>361.66666666666663</ele><time>2026-04-12T10:04:27.174Z</time></trkpt><trkpt lat="45.733982" lon="8.5033752"><ele>364.0</ele><time>2026-04-12T10:04:28.181Z</time></trkpt><trkpt lat="45.7341066" lon="8.5035668"><ele>364.66666666666663</ele><time>2026-04-12T10:04:29.186Z</time></trkpt><trkpt lat="45.7342286" lon="8.5037518"><ele>365.3333333333333</ele><time>2026-04-12T10:04:30.175Z</time></trkpt><trkpt lat="45.7343471" lon="8.5039368"><ele>366.0</ele><time>2026-04-12T10:04:31.176Z</time></trkpt><trkpt lat="45.7344669" lon="8.5041253"><ele>367.0</ele><time>2026-04-12T10:04:32.178Z</time></trkpt><trkpt lat="45.734593" lon="8.5043161"><ele>368.0</ele><time>2026-04-12T10:04:33.174Z</time></trkpt><trkpt lat="45.7347182" lon="8.5045134"><ele>369.0</ele><time>2026-04-12T10:04:34.183Z</time></trkpt><trkpt lat="45.7348434" lon="8.5047154"><ele>369.0</ele><time>2026-04-12T10:04:35.176Z</time></trkpt><trkpt lat="45.7349717" lon="8.5049206"><ele>369.0</ele><time>2026-04-12T10:04:36.176Z</time></trkpt><trkpt lat="45.7351056" lon="8.5051336"><ele>369.0</ele><time>2026-04-12T10:04:37.178Z</time></trkpt><trkpt lat="45.7352448" lon="8.5053513"><ele>370.0</ele><time>2026-04-12T10:04:38.176Z</time></trkpt><trkpt lat="45.7353826" lon="8.505568"><ele>371.0</ele><time>2026-04-12T10:04:39.185Z</time></trkpt><trkpt lat="45.7355293" lon="8.5057864"><ele>372.0</ele><time>2026-04-12T10:04:40.184Z</time></trkpt><trkpt lat="45.7356621" lon="8.5059942"><ele>372.0</ele><time>2026-04-12T10:04:41.175Z</time></trkpt><trkpt lat="45.735798" lon="8.5062104"><ele>372.0</ele><time>2026-04-12T10:04:42.171Z</time></trkpt><trkpt lat="45.7359445" lon="8.5064324"><ele>372.0</ele><time>2026-04-12T10:04:43.171Z</time></trkpt><trkpt lat="45.7360826" lon="8.506654"><ele>372.0</ele><time>2026-04-12T10:04:44.217Z</time></trkpt><trkpt lat="45.7362279" lon="8.5068659"><ele>372.0</ele><time>2026-04-12T10:04:45.179Z</time></trkpt><trkpt lat="45.7363653" lon="8.5070852"><ele>372.0</ele><time>2026-04-12T10:04:46.179Z</time></trkpt><trkpt lat="45.7365011" lon="8.5072959"><ele>370.0</ele><time>2026-04-12T10:04:47.177Z</time></trkpt><trkpt lat="45.7366278" lon="8.5075037"><ele>368.0</ele><time>2026-04-12T10:04:48.176Z</time></trkpt><trkpt lat="45.7367638" lon="8.5076975"><ele>366.0</ele><time>2026-04-12T10:04:49.184Z</time></trkpt><trkpt lat="45.7368981" lon="8.5078877"><ele>361.6666666666667</ele><time>2026-04-12T10:04:50.18Z</time></trkpt><trkpt lat="45.7370355" lon="8.5080766"><ele>357.33333333333337</ele><time>2026-04-12T10:04:51.174Z</time></trkpt><trkpt lat="45.7371631" lon="8.50827"><ele>353.0</ele><time>2026-04-12T10:04:52.166Z</time></trkpt><trkpt lat="45.7372953" lon="8.5084614"><ele>353.0</ele><time>2026-04-12T10:04:53.182Z</time></trkpt><trkpt lat="45.7374165" lon="8.5086509"><ele>353.0</ele><time>2026-04-12T10:04:54.188Z</time></trkpt><trkpt lat="45.7375312" lon="8.5088371"><ele>353.0</ele><time>2026-04-12T10:04:55.173Z</time></trkpt><trkpt lat="45.7376494" lon="8.5090055"><ele>352.0</ele><time>2026-04-12T10:04:56.18Z</time></trkpt><trkpt lat="45.7377728" lon="8.5091775"><ele>351.0</ele><time>2026-04-12T10:04:57.176Z</time></trkpt><trkpt lat="45.7378988" lon="8.5093582"><ele>350.0</ele><time>2026-04-12T10:04:58.177Z</time></trkpt><trkpt lat="45.7380248" lon="8.509538"><ele>348.6666666666667</ele><time>2026-04-12T10:04:59.221Z</time></trkpt><trkpt lat="45.738148" lon="8.5097119"><ele>347.3333333333333</ele><time>2026-04-12T10:05:00.183Z</time></trkpt><trkpt lat="45.7382698" lon="8.5098854"><ele>346.0</ele><time>2026-04-12T10:05:01.171Z</time></trkpt><trkpt lat="45.7383934" lon="8.5100526"><ele>346.0</ele><time>2026-04-12T10:05:02.18Z</time></trkpt><trkpt lat="45.738514" lon="8.5102226"><ele>346.0</ele><time>2026-04-12T10:05:03.181Z</time></trkpt><trkpt lat="45.7386387" lon="8.5103944"><ele>346.0</ele><time>2026-04-12T10:05:04.185Z</time></trkpt><trkpt lat="45.7387607" lon="8.5105692"><ele>343.3333333333333</ele><time>2026-04-12T10:05:05.183Z</time></trkpt><trkpt lat="45.7388821" lon="8.5107447"><ele>340.6666666666667</ele><time>2026-04-12T10:05:06.178Z</time></trkpt><trkpt lat="45.7390078" lon="8.5109189"><ele>338.0</ele><time>2026-04-12T10:05:07.176Z</time></trkpt><trkpt lat="45.7391363" lon="8.5110945"><ele>337.0</ele><time>2026-04-12T10:05:08.188Z</time></trkpt><trkpt lat="45.7392749" lon="8.5112627"><ele>336.0</ele><time>2026-04-12T10:05:09.169Z</time></trkpt><trkpt lat="45.7394212" lon="8.5114236"><ele>335.0</ele><time>2026-04-12T10:05:10.175Z</time></trkpt><trkpt lat="45.7395849" lon="8.5115768"><ele>334.33333333333337</ele><time>2026-04-12T10:05:11.178Z</time></trkpt><trkpt lat="45.739759" lon="8.5117252"><ele>333.6666666666667</ele><time>2026-04-12T10:05:12.172Z</time></trkpt><trkpt lat="45.7399335" lon="8.5118538"><ele>333.0</ele><time>2026-04-12T10:05:13.172Z</time></trkpt><trkpt lat="45.7401164" lon="8.5119645"><ele>332.0</ele><time>2026-04-12T10:05:14.217Z</time></trkpt><trkpt lat="45.740297" lon="8.5120697"><ele>331.0</ele><time>2026-04-12T10:05:15.21Z</time></trkpt><trkpt lat="45.7404754" lon="8.5121744"><ele>330.0</ele><time>2026-04-12T10:05:16.181Z</time></trkpt><trkpt lat="45.7406573" lon="8.5122812"><ele>329.0</ele><time>2026-04-12T10:05:17.178Z</time></trkpt><trkpt lat="45.7408291" lon="8.5123901"><ele>328.0</ele><time>2026-04-12T10:05:18.185Z</time></trkpt><trkpt lat="45.7410009" lon="8.5125217"><ele>327.0</ele><time>2026-04-12T10:05:19.189Z</time></trkpt><trkpt lat="45.7411654" lon="8.5126688"><ele>325.6666666666667</ele><time>2026-04-12T10:05:20.179Z</time></trkpt><trkpt lat="45.7413152" lon="8.5128331"><ele>324.33333333333337</ele><time>2026-04-12T10:05:21.211Z</time></trkpt><trkpt lat="45.7414588" lon="8.5130124"><ele>323.0</ele><time>2026-04-12T10:05:22.174Z</time></trkpt><trkpt lat="45.7415938" lon="8.5132038"><ele>321.6666666666667</ele><time>2026-04-12T10:05:23.186Z</time></trkpt><trkpt lat="45.7417209" lon="8.5134048"><ele>320.3333333333333</ele><time>2026-04-12T10:05:24.209Z</time></trkpt><trkpt lat="45.7418387" lon="8.5136162"><ele>319.0</ele><time>2026-04-12T10:05:25.177Z</time></trkpt><trkpt lat="45.7419436" lon="8.5138431"><ele>316.0</ele><time>2026-04-12T10:05:26.158Z</time></trkpt><trkpt lat="45.7420397" lon="8.5140858"><ele>313.0</ele><time>2026-04-12T10:05:27.178Z</time></trkpt><trkpt lat="45.742132" lon="8.5143373"><ele>310.0</ele><time>2026-04-12T10:05:28.177Z</time></trkpt><trkpt lat="45.7422203" lon="8.5145908"><ele>307.3333333333333</ele><time>2026-04-12T10:05:29.172Z</time></trkpt><trkpt lat="45.7423027" lon="8.5148495"><ele>304.6666666666667</ele><time>2026-04-12T10:05:30.167Z</time></trkpt><trkpt lat="45.7423869" lon="8.5151095"><ele>302.0</ele><time>2026-04-12T10:05:31.18Z</time></trkpt><trkpt lat="45.7424792" lon="8.5153676"><ele>301.33333333333337</ele><time>2026-04-12T10:05:32.171Z</time></trkpt><trkpt lat="45.7425691" lon="8.5156258"><ele>300.6666666666667</ele><time>2026-04-12T10:05:33.172Z</time></trkpt><trkpt lat="45.7426619" lon="8.5158859"><ele>300.0</ele><time>2026-04-12T10:05:34.18Z</time></trkpt><trkpt lat="45.7427548" lon="8.5161405"><ele>299.0</ele><time>2026-04-12T10:05:35.185Z</time></trkpt><trkpt lat="45.7428419" lon="8.5163917"><ele>298.0</ele><time>2026-04-12T10:05:36.18Z</time></trkpt><trkpt lat="45.7429267" lon="8.516633"><ele>297.0</ele><time>2026-04-12T10:05:37.178Z</time></trkpt><trkpt lat="45.7430118" lon="8.5168646"><ele>296.6666666666667</ele><time>2026-04-12T10:05:38.179Z</time></trkpt><trkpt lat="45.7430978" lon="8.5170836"><ele>296.33333333333337</ele><time>2026-04-12T10:05:39.175Z</time></trkpt><trkpt lat="45.743176" lon="8.5172986"><ele>296.0</ele><time>2026-04-12T10:05:40.176Z</time></trkpt><trkpt lat="45.7432556" lon="8.5174985"><ele>296.0</ele><time>2026-04-12T10:05:41.178Z</time></trkpt><trkpt lat="45.7433361" lon="8.5176955"><ele>296.0</ele><time>2026-04-12T10:05:42.175Z</time></trkpt><trkpt lat="45.7434184" lon="8.5178841"><ele>296.0</ele><time>2026-04-12T10:05:43.18Z</time></trkpt><trkpt lat="45.7435055" lon="8.5180664"><ele>296.0</ele><time>2026-04-12T10:05:44.18Z</time></trkpt><trkpt lat="45.7435936" lon="8.5182394"><ele>296.0</ele><time>2026-04-12T10:05:45.181Z</time></trkpt><trkpt lat="45.7436792" lon="8.5184109"><ele>296.0</ele><time>2026-04-12T10:05:46.178Z</time></trkpt><trkpt lat="45.743765" lon="8.5185739"><ele>296.0</ele><time>2026-04-12T10:05:47.178Z</time></trkpt><trkpt lat="45.7438499" lon="8.5187359"><ele>296.0</ele><time>2026-04-12T10:05:48.178Z</time></trkpt><trkpt lat="45.7439339" lon="8.5188974"><ele>296.0</ele><time>2026-04-12T10:05:49.183Z</time></trkpt><trkpt lat="45.7440173" lon="8.5190584"><ele>296.0</ele><time>2026-04-12T10:05:50.179Z</time></trkpt><trkpt lat="45.7441012" lon="8.5192174"><ele>296.0</ele><time>2026-04-12T10:05:51.178Z</time></trkpt><trkpt lat="45.7441853" lon="8.519379"><ele>296.0</ele><time>2026-04-12T10:05:52.176Z</time></trkpt><trkpt lat="45.7442725" lon="8.5195379"><ele>296.0</ele><time>2026-04-12T10:05:53.175Z</time></trkpt><trkpt lat="45.7443572" lon="8.5197005"><ele>296.0</ele><time>2026-04-12T10:05:54.178Z</time></trkpt><trkpt lat="45.7444361" lon="8.5198601"><ele>296.0</ele><time>2026-04-12T10:05:55.179Z</time></trkpt><trkpt lat="45.7445203" lon="8.5200168"><ele>296.0</ele><time>2026-04-12T10:05:56.182Z</time></trkpt><trkpt lat="45.7446033" lon="8.5201635"><ele>296.0</ele><time>2026-04-12T10:05:57.177Z</time></trkpt><trkpt lat="45.7446776" lon="8.5203087"><ele>296.0</ele><time>2026-04-12T10:05:58.18Z</time></trkpt><trkpt lat="45.7447519" lon="8.5204535"><ele>296.0</ele><time>2026-04-12T10:05:59.176Z</time></trkpt><trkpt lat="45.7448287" lon="8.5205949"><ele>295.75</ele><time>2026-04-12T10:06:00.184Z</time></trkpt><trkpt lat="45.7449013" lon="8.5207328"><ele>295.5</ele><time>2026-04-12T10:06:01.181Z</time></trkpt><trkpt lat="45.7449725" lon="8.520869"><ele>295.25</ele><time>2026-04-12T10:06:02.182Z</time></trkpt><trkpt lat="45.745043" lon="8.5210039"><ele>295.0</ele><time>2026-04-12T10:06:03.18Z</time></trkpt><trkpt lat="45.7451163" lon="8.5211419"><ele>295.0</ele><time>2026-04-12T10:06:04.186Z</time></trkpt><trkpt lat="45.7451904" lon="8.5212878"><ele>295.0</ele><time>2026-04-12T10:06:05.175Z</time></trkpt><trkpt lat="45.7452683" lon="8.5214347"><ele>295.0</ele><time>2026-04-12T10:06:06.18Z</time></trkpt><trkpt lat="45.7453488" lon="8.5215837"><ele>295.0</ele><time>2026-04-12T10:06:07.181Z</time></trkpt><trkpt lat="45.745425" lon="8.5217404"><ele>295.0</ele><time>2026-04-12T10:06:08.178Z</time></trkpt><trkpt lat="45.7455071" lon="8.5218897"><ele>295.0</ele><time>2026-04-12T10:06:09.166Z</time></trkpt><trkpt lat="45.7455864" lon="8.5220482"><ele>295.0</ele><time>2026-04-12T10:06:10.211Z</time></trkpt><trkpt lat="45.7456677" lon="8.5222035"><ele>295.0</ele><time>2026-04-12T10:06:11.182Z</time></trkpt><trkpt lat="45.745743" lon="8.5223588"><ele>295.0</ele><time>2026-04-12T10:06:12.181Z</time></trkpt><trkpt lat="45.7458167" lon="8.5225103"><ele>295.0</ele><time>2026-04-12T10:06:13.191Z</time></trkpt><trkpt lat="45.7458887" lon="8.5226534"><ele>295.0</ele><time>2026-04-12T10:06:14.208Z</time></trkpt><trkpt lat="45.7459578" lon="8.5227957"><ele>295.0</ele><time>2026-04-12T10:06:15.178Z</time></trkpt><trkpt lat="45.7460311" lon="8.5229333"><ele>294.75</ele><time>2026-04-12T10:06:16.212Z</time></trkpt><trkpt lat="45.7460998" lon="8.5230675"><ele>294.5</ele><time>2026-04-12T10:06:17.177Z</time></trkpt><trkpt lat="45.7461664" lon="8.5232101"><ele>294.25</ele><time>2026-04-12T10:06:18.182Z</time></trkpt><trkpt lat="45.7462323" lon="8.5233539"><ele>294.0</ele><time>2026-04-12T10:06:19.195Z</time></trkpt><trkpt lat="45.7463018" lon="8.5234976"><ele>294.0</ele><time>2026-04-12T10:06:20.182Z</time></trkpt><trkpt lat="45.7463722" lon="8.5236341"><ele>294.0</ele><time>2026-04-12T10:06:21.172Z</time></trkpt><trkpt lat="45.7464345" lon="8.5237684"><ele>294.0</ele><time>2026-04-12T10:06:22.175Z</time></trkpt><trkpt lat="45.7465008" lon="8.5238912"><ele>294.0</ele><time>2026-04-12T10:06:23.181Z</time></trkpt><trkpt lat="45.7465585" lon="8.5240098"><ele>294.0</ele><time>2026-04-12T10:06:24.202Z</time></trkpt><trkpt lat="45.7466171" lon="8.5241184"><ele>294.0</ele><time>2026-04-12T10:06:25.182Z</time></trkpt><trkpt lat="45.7466737" lon="8.524222"><ele>294.0</ele><time>2026-04-12T10:06:26.179Z</time></trkpt><trkpt lat="45.74673" lon="8.5243303"><ele>294.0</ele><time>2026-04-12T10:06:27.173Z</time></trkpt><trkpt lat="45.7467808" lon="8.5244287"><ele>294.0</ele><time>2026-04-12T10:06:28.182Z</time></trkpt><trkpt lat="45.7468261" lon="8.524512"><ele>294.0</ele><time>2026-04-12T10:06:29.217Z</time></trkpt><trkpt lat="45.7468941" lon="8.524625"><ele>294.0</ele><time>2026-04-12T10:06:31.186Z</time></trkpt><trkpt lat="45.7469324" lon="8.5247137"><ele>294.0</ele><time>2026-04-12T10:06:33.17Z</time></trkpt><trkpt lat="45.746955" lon="8.5248447"><ele>294.0</ele><time>2026-04-12T10:06:35.176Z</time></trkpt><trkpt lat="45.7469651" lon="8.5249969"><ele>294.0</ele><time>2026-04-12T10:06:37.176Z</time></trkpt><trkpt lat="45.7470498" lon="8.525119"><ele>294.0</ele><time>2026-04-12T10:06:39.183Z</time></trkpt><trkpt lat="45.7471096" lon="8.5251702"><ele>294.0</ele><time>2026-04-12T10:06:40.174Z</time></trkpt><trkpt lat="45.7471738" lon="8.5252366"><ele>294.0</ele><time>2026-04-12T10:06:41.178Z</time></trkpt><trkpt lat="45.7472307" lon="8.5253123"><ele>294.0</ele><time>2026-04-12T10:06:42.166Z</time></trkpt><trkpt lat="45.7472832" lon="8.5254089"><ele>294.0</ele><time>2026-04-12T10:06:43.176Z</time></trkpt><trkpt lat="45.7473366" lon="8.5255155"><ele>294.0</ele><time>2026-04-12T10:06:44.173Z</time></trkpt><trkpt lat="45.7473948" lon="8.5256218"><ele>294.0</ele><time>2026-04-12T10:06:45.18Z</time></trkpt><trkpt lat="45.7474563" lon="8.5257376"><ele>294.0</ele><time>2026-04-12T10:06:46.18Z</time></trkpt><trkpt lat="45.7475253" lon="8.5258653"><ele>294.0</ele><time>2026-04-12T10:06:47.187Z</time></trkpt><trkpt lat="45.7475955" lon="8.5259999"><ele>294.0</ele><time>2026-04-12T10:06:48.189Z</time></trkpt><trkpt lat="45.7476614" lon="8.5261283"><ele>294.0</ele><time>2026-04-12T10:06:49.177Z</time></trkpt><trkpt lat="45.7477268" lon="8.5262554"><ele>293.8</ele><time>2026-04-12T10:06:50.175Z</time></trkpt><trkpt lat="45.747791" lon="8.5263823"><ele>293.59999999999997</ele><time>2026-04-12T10:06:51.17Z</time></trkpt><trkpt lat="45.7478541" lon="8.5265091"><ele>293.4</ele><time>2026-04-12T10:06:52.172Z</time></trkpt><trkpt lat="45.7479217" lon="8.5266354"><ele>293.2</ele><time>2026-04-12T10:06:53.182Z</time></trkpt><trkpt lat="45.7479857" lon="8.5267637"><ele>293.0</ele><time>2026-04-12T10:06:54.183Z</time></trkpt><trkpt lat="45.748048" lon="8.5268947"><ele>293.0</ele><time>2026-04-12T10:06:55.176Z</time></trkpt><trkpt lat="45.7481142" lon="8.5270172"><ele>293.0</ele><time>2026-04-12T10:06:56.207Z</time></trkpt><trkpt lat="45.7481765" lon="8.5271453"><ele>293.0</ele><time>2026-04-12T10:06:57.179Z</time></trkpt><trkpt lat="45.7482417" lon="8.5272662"><ele>293.0</ele><time>2026-04-12T10:06:58.181Z</time></trkpt><trkpt lat="45.748301" lon="8.5273837"><ele>293.0</ele><time>2026-04-12T10:06:59.184Z</time></trkpt><trkpt lat="45.7483638" lon="8.5275007"><ele>293.0</ele><time>2026-04-12T10:07:00.183Z</time></trkpt><trkpt lat="45.7484278" lon="8.5276172"><ele>293.0</ele><time>2026-04-12T10:07:01.213Z</time></trkpt><trkpt lat="45.7484962" lon="8.5277365"><ele>293.0</ele><time>2026-04-12T10:07:02.185Z</time></trkpt><trkpt lat="45.7485641" lon="8.5278623"><ele>293.0</ele><time>2026-04-12T10:07:03.18Z</time></trkpt><trkpt lat="45.7486299" lon="8.5279822"><ele>293.0</ele><time>2026-04-12T10:07:04.185Z</time></trkpt><trkpt lat="45.7486907" lon="8.5281035"><ele>293.0</ele><time>2026-04-12T10:07:05.211Z</time></trkpt><trkpt lat="45.7487542" lon="8.5282127"><ele>293.0</ele><time>2026-04-12T10:07:06.207Z</time></trkpt><trkpt lat="45.7488118" lon="8.5283147"><ele>293.0</ele><time>2026-04-12T10:07:07.179Z</time></trkpt><trkpt lat="45.7488556" lon="8.5283939"><ele>293.0</ele><time>2026-04-12T10:07:08.177Z</time></trkpt><trkpt lat="45.7488948" lon="8.5284698"><ele>293.0</ele><time>2026-04-12T10:07:09.182Z</time></trkpt><trkpt lat="45.748935" lon="8.5285456"><ele>293.0</ele><time>2026-04-12T10:07:10.183Z</time></trkpt><trkpt lat="45.7489716" lon="8.5286217"><ele>292.99999999999994</ele><time>2026-04-12T10:07:11.223Z</time></trkpt><trkpt lat="45.7490086" lon="8.5286952"><ele>293.0</ele><time>2026-04-12T10:07:12.178Z</time></trkpt><trkpt lat="45.7490432" lon="8.5287723"><ele>293.0</ele><time>2026-04-12T10:07:13.163Z</time></trkpt><trkpt lat="45.7490789" lon="8.5288566"><ele>293.0</ele><time>2026-04-12T10:07:14.226Z</time></trkpt><trkpt lat="45.7491015" lon="8.5289637"><ele>293.0</ele><time>2026-04-12T10:07:15.219Z</time></trkpt><trkpt lat="45.7491213" lon="8.529074"><ele>292.99999999999994</ele><time>2026-04-12T10:07:16.22Z</time></trkpt><trkpt lat="45.7491453" lon="8.5291774"><ele>293.0</ele><time>2026-04-12T10:07:17.177Z</time></trkpt><trkpt lat="45.7491589" lon="8.5292756"><ele>294.1666666666667</ele><time>2026-04-12T10:07:18.183Z</time></trkpt><trkpt lat="45.7491658" lon="8.52938"><ele>295.33333333333337</ele><time>2026-04-12T10:07:19.208Z</time></trkpt><trkpt lat="45.7491743" lon="8.5294898"><ele>296.5</ele><time>2026-04-12T10:07:20.182Z</time></trkpt><trkpt lat="45.7491694" lon="8.5296111"><ele>297.6666666666667</ele><time>2026-04-12T10:07:21.211Z</time></trkpt><trkpt lat="45.7491539" lon="8.5297322"><ele>298.8333333333333</ele><time>2026-04-12T10:07:22.191Z</time></trkpt><trkpt lat="45.7491191" lon="8.52985"><ele>300.0</ele><time>2026-04-12T10:07:23.178Z</time></trkpt><trkpt lat="45.7490876" lon="8.5299627"><ele>300.0</ele><time>2026-04-12T10:07:24.22Z</time></trkpt><trkpt lat="45.7490552" lon="8.5300811"><ele>300.0</ele><time>2026-04-12T10:07:25.214Z</time></trkpt><trkpt lat="45.7490298" lon="8.5302009"><ele>300.0</ele><time>2026-04-12T10:07:26.194Z</time></trkpt><trkpt lat="45.7490022" lon="8.5303226"><ele>300.0</ele><time>2026-04-12T10:07:27.174Z</time></trkpt><trkpt lat="45.7489772" lon="8.5304508"><ele>300.0</ele><time>2026-04-12T10:07:28.185Z</time></trkpt><trkpt lat="45.7489724" lon="8.5305913"><ele>299.3333333333333</ele><time>2026-04-12T10:07:29.177Z</time></trkpt><trkpt lat="45.7489761" lon="8.5309144"><ele>298.66666666666663</ele><time>2026-04-12T10:07:31.182Z</time></trkpt><trkpt lat="45.7489876" lon="8.5310844"><ele>298.0</ele><time>2026-04-12T10:07:32.174Z</time></trkpt><trkpt lat="45.7489987" lon="8.5312661"><ele>299.0</ele><time>2026-04-12T10:07:33.185Z</time></trkpt><trkpt lat="45.749002" lon="8.5314516"><ele>300.0</ele><time>2026-04-12T10:07:34.188Z</time></trkpt><trkpt lat="45.7490035" lon="8.5316345"><ele>301.0</ele><time>2026-04-12T10:07:35.171Z</time></trkpt><trkpt lat="45.7490072" lon="8.531824"><ele>302.0</ele><time>2026-04-12T10:07:36.182Z</time></trkpt><trkpt lat="45.7490085" lon="8.5320201"><ele>301.6666666666667</ele><time>2026-04-12T10:07:37.18Z</time></trkpt><trkpt lat="45.7490079" lon="8.5322465"><ele>301.3333333333333</ele><time>2026-04-12T10:07:38.179Z</time></trkpt><trkpt lat="45.749025" lon="8.5325125"><ele>301.0</ele><time>2026-04-12T10:07:39.181Z</time></trkpt><trkpt lat="45.7490273" lon="8.5328269"><ele>298.0</ele><time>2026-04-12T10:07:40.172Z</time></trkpt><trkpt lat="45.7490169" lon="8.5331566"><ele>295.0</ele><time>2026-04-12T10:07:41.179Z</time></trkpt><trkpt lat="45.7490091" lon="8.5334942"><ele>295.0</ele><time>2026-04-12T10:07:42.175Z</time></trkpt><trkpt lat="45.7490104" lon="8.5338344"><ele>295.0</ele><time>2026-04-12T10:07:43.164Z</time></trkpt><trkpt lat="45.749002" lon="8.5341714"><ele>295.0</ele><time>2026-04-12T10:07:44.211Z</time></trkpt><trkpt lat="45.7489965" lon="8.534512"><ele>295.0</ele><time>2026-04-12T10:07:45.16Z</time></trkpt><trkpt lat="45.7489931" lon="8.5348422"><ele>293.66666666666663</ele><time>2026-04-12T10:07:46.165Z</time></trkpt><trkpt lat="45.7489862" lon="8.5351596"><ele>292.3333333333333</ele><time>2026-04-12T10:07:47.167Z</time></trkpt><trkpt lat="45.7489833" lon="8.5354729"><ele>291.0</ele><time>2026-04-12T10:07:48.17Z</time></trkpt><trkpt lat="45.7489813" lon="8.535776"><ele>290.0</ele><time>2026-04-12T10:07:49.18Z</time></trkpt><trkpt lat="45.7489771" lon="8.5360714"><ele>289.0</ele><time>2026-04-12T10:07:50.169Z</time></trkpt><trkpt lat="45.748971" lon="8.5363587"><ele>288.0</ele><time>2026-04-12T10:07:51.166Z</time></trkpt><trkpt lat="45.748968" lon="8.5366368"><ele>286.3333333333333</ele><time>2026-04-12T10:07:52.162Z</time></trkpt><trkpt lat="45.7489694" lon="8.5368985"><ele>284.66666666666663</ele><time>2026-04-12T10:07:53.172Z</time></trkpt><trkpt lat="45.7489692" lon="8.5371496"><ele>283.0</ele><time>2026-04-12T10:07:54.206Z</time></trkpt><trkpt lat="45.7489686" lon="8.5373949"><ele>280.66666666666663</ele><time>2026-04-12T10:07:55.172Z</time></trkpt><trkpt lat="45.7489719" lon="8.53763"><ele>278.3333333333333</ele><time>2026-04-12T10:07:56.176Z</time></trkpt><trkpt lat="45.7489709" lon="8.5378539"><ele>276.0</ele><time>2026-04-12T10:07:57.167Z</time></trkpt><trkpt lat="45.7489792" lon="8.5380757"><ele>274.0</ele><time>2026-04-12T10:07:58.17Z</time></trkpt><trkpt lat="45.7489901" lon="8.5382779"><ele>272.0</ele><time>2026-04-12T10:07:59.207Z</time></trkpt><trkpt lat="45.7490358" lon="8.5384655"><ele>270.0</ele><time>2026-04-12T10:08:00.166Z</time></trkpt><trkpt lat="45.7491172" lon="8.5385934"><ele>268.0</ele><time>2026-04-12T10:08:01.21Z</time></trkpt><trkpt lat="45.7492197" lon="8.5386832"><ele>265.75</ele><time>2026-04-12T10:08:02.164Z</time></trkpt><trkpt lat="45.7493379" lon="8.5387362"><ele>263.5</ele><time>2026-04-12T10:08:03.168Z</time></trkpt><trkpt lat="45.7494568" lon="8.5387252"><ele>261.25</ele><time>2026-04-12T10:08:04.202Z</time></trkpt><trkpt lat="45.7495867" lon="8.5387033"><ele>259.0</ele><time>2026-04-12T10:08:05.172Z</time></trkpt><trkpt lat="45.7497079" lon="8.5386033"><ele>259.0</ele><time>2026-04-12T10:08:06.177Z</time></trkpt><trkpt lat="45.7497844" lon="8.5383679"><ele>259.0</ele><time>2026-04-12T10:08:07.188Z</time></trkpt><trkpt lat="45.7498786" lon="8.5381022"><ele>259.0</ele><time>2026-04-12T10:08:08.21Z</time></trkpt><trkpt lat="45.7499624" lon="8.5378447"><ele>258.0</ele><time>2026-04-12T10:08:09.175Z</time></trkpt><trkpt lat="45.7500469" lon="8.5375923"><ele>257.0</ele><time>2026-04-12T10:08:10.184Z</time></trkpt><trkpt lat="45.750131" lon="8.5373742"><ele>256.0</ele><time>2026-04-12T10:08:11.184Z</time></trkpt><trkpt lat="45.7502317" lon="8.5371693"><ele>257.0</ele><time>2026-04-12T10:08:12.164Z</time></trkpt><trkpt lat="45.7503404" lon="8.5369972"><ele>258.0</ele><time>2026-04-12T10:08:13.174Z</time></trkpt><trkpt lat="45.7504795" lon="8.5368856"><ele>259.0</ele><time>2026-04-12T10:08:14.213Z</time></trkpt><trkpt lat="45.750621" lon="8.5368065"><ele>259.0</ele><time>2026-04-12T10:08:15.187Z</time></trkpt><trkpt lat="45.7507683" lon="8.5367648"><ele>259.0</ele><time>2026-04-12T10:08:16.181Z</time></trkpt><trkpt lat="45.7509276" lon="8.5367724"><ele>259.0</ele><time>2026-04-12T10:08:17.179Z</time></trkpt><trkpt lat="45.7510643" lon="8.53682"><ele>257.3333333333333</ele><time>2026-04-12T10:08:18.179Z</time></trkpt><trkpt lat="45.7511981" lon="8.5369236"><ele>255.66666666666669</ele><time>2026-04-12T10:08:19.176Z</time></trkpt><trkpt lat="45.7513137" lon="8.5370912"><ele>254.0</ele><time>2026-04-12T10:08:20.177Z</time></trkpt><trkpt lat="45.7513964" lon="8.537288"><ele>251.33333333333334</ele><time>2026-04-12T10:08:21.214Z</time></trkpt><trkpt lat="45.7514494" lon="8.5375241"><ele>248.66666666666669</ele><time>2026-04-12T10:08:22.172Z</time></trkpt><trkpt lat="45.7514743" lon="8.5377898"><ele>246.0</ele><time>2026-04-12T10:08:23.183Z</time></trkpt><trkpt lat="45.7515038" lon="8.5380649"><ele>241.66666666666669</ele><time>2026-04-12T10:08:24.188Z</time></trkpt><trkpt lat="45.7515518" lon="8.5383474"><ele>237.33333333333334</ele><time>2026-04-12T10:08:25.184Z</time></trkpt><trkpt lat="45.7516237" lon="8.5386149"><ele>233.0</ele><time>2026-04-12T10:08:26.177Z</time></trkpt><trkpt lat="45.7516933" lon="8.53889"><ele>232.66666666666669</ele><time>2026-04-12T10:08:27.18Z</time></trkpt><trkpt lat="45.7518218" lon="8.5391489"><ele>232.33333333333331</ele><time>2026-04-12T10:08:28.179Z</time></trkpt><trkpt lat="45.751944" lon="8.5394111"><ele>232.0</ele><time>2026-04-12T10:08:29.183Z</time></trkpt><trkpt lat="45.7520667" lon="8.5396808"><ele>230.33333333333331</ele><time>2026-04-12T10:08:30.216Z</time></trkpt><trkpt lat="45.7521909" lon="8.5399399"><ele>228.66666666666669</ele><time>2026-04-12T10:08:31.187Z</time></trkpt><trkpt lat="45.7523012" lon="8.5401883"><ele>227.0</ele><time>2026-04-12T10:08:32.168Z</time></trkpt><trkpt lat="45.7524038" lon="8.5404206"><ele>227.0</ele><time>2026-04-12T10:08:33.182Z</time></trkpt><trkpt lat="45.752504" lon="8.5406432"><ele>227.0</ele><time>2026-04-12T10:08:34.19Z</time></trkpt><trkpt lat="45.752602" lon="8.5408532"><ele>227.0</ele><time>2026-04-12T10:08:35.171Z</time></trkpt><trkpt lat="45.7527001" lon="8.5410692"><ele>226.33333333333334</ele><time>2026-04-12T10:08:36.178Z</time></trkpt><trkpt lat="45.7528021" lon="8.5412882"><ele>225.66666666666669</ele><time>2026-04-12T10:08:37.178Z</time></trkpt><trkpt lat="45.75291" lon="8.5414972"><ele>225.0</ele><time>2026-04-12T10:08:38.181Z</time></trkpt><trkpt lat="45.7530135" lon="8.5416984"><ele>225.0</ele><time>2026-04-12T10:08:39.181Z</time></trkpt><trkpt lat="45.7531165" lon="8.5418879"><ele>225.0</ele><time>2026-04-12T10:08:40.175Z</time></trkpt><trkpt lat="45.753218" lon="8.5420631"><ele>225.0</ele><time>2026-04-12T10:08:41.192Z</time></trkpt><trkpt lat="45.7533106" lon="8.5422416"><ele>225.0</ele><time>2026-04-12T10:08:42.172Z</time></trkpt><trkpt lat="45.7534114" lon="8.5424133"><ele>225.0</ele><time>2026-04-12T10:08:43.188Z</time></trkpt><trkpt lat="45.7535111" lon="8.5425795"><ele>225.0</ele><time>2026-04-12T10:08:44.185Z</time></trkpt><trkpt lat="45.7536129" lon="8.5427477"><ele>225.33333333333331</ele><time>2026-04-12T10:08:45.207Z</time></trkpt><trkpt lat="45.7537081" lon="8.5429208"><ele>225.66666666666666</ele><time>2026-04-12T10:08:46.207Z</time></trkpt><trkpt lat="45.7538058" lon="8.5430885"><ele>226.0</ele><time>2026-04-12T10:08:47.175Z</time></trkpt><trkpt lat="45.7538997" lon="8.5432515"><ele>226.0</ele><time>2026-04-12T10:08:48.175Z</time></trkpt><trkpt lat="45.7539876" lon="8.5434065"><ele>226.0</ele><time>2026-04-12T10:08:49.183Z</time></trkpt><trkpt lat="45.7540715" lon="8.5435511"><ele>226.0</ele><time>2026-04-12T10:08:50.171Z</time></trkpt><trkpt lat="45.7541542" lon="8.5436944"><ele>226.0</ele><time>2026-04-12T10:08:51.175Z</time></trkpt><trkpt lat="45.7542303" lon="8.5438265"><ele>225.33333333333331</ele><time>2026-04-12T10:08:52.175Z</time></trkpt><trkpt lat="45.7542938" lon="8.5439452"><ele>224.66666666666666</ele><time>2026-04-12T10:08:53.181Z</time></trkpt><trkpt lat="45.7543467" lon="8.5440538"><ele>224.0</ele><time>2026-04-12T10:08:54.182Z</time></trkpt><trkpt lat="45.7543916" lon="8.5441475"><ele>223.33333333333331</ele><time>2026-04-12T10:08:55.169Z</time></trkpt><trkpt lat="45.7544211" lon="8.5442291"><ele>222.66666666666666</ele><time>2026-04-12T10:08:56.165Z</time></trkpt><trkpt lat="45.7544574" lon="8.544344"><ele>222.0</ele><time>2026-04-12T10:08:58.178Z</time></trkpt><trkpt lat="45.7544926" lon="8.5444723"><ele>221.66666666666666</ele><time>2026-04-12T10:09:00.185Z</time></trkpt><trkpt lat="45.7545171" lon="8.5445939"><ele>221.33333333333331</ele><time>2026-04-12T10:09:02.176Z</time></trkpt><trkpt lat="45.754523" lon="8.5446932"><ele>221.0</ele><time>2026-04-12T10:09:04.218Z</time></trkpt><trkpt lat="45.7545182" lon="8.5447959"><ele>220.66666666666666</ele><time>2026-04-12T10:09:06.173Z</time></trkpt><trkpt lat="45.7545018" lon="8.5449019"><ele>220.33333333333331</ele><time>2026-04-12T10:09:08.175Z</time></trkpt><trkpt lat="45.7545173" lon="8.5450541"><ele>220.0</ele><time>2026-04-12T10:09:10.176Z</time></trkpt><trkpt lat="45.7545403" lon="8.5452329"><ele>220.0</ele><time>2026-04-12T10:09:12.177Z</time></trkpt><trkpt lat="45.7545492" lon="8.5453639"><ele>220.0</ele><time>2026-04-12T10:09:13.185Z</time></trkpt><trkpt lat="45.7545412" lon="8.5455145"><ele>220.0</ele><time>2026-04-12T10:09:14.183Z</time></trkpt><trkpt lat="45.7545202" lon="8.545693"><ele>220.0</ele><time>2026-04-12T10:09:15.175Z</time></trkpt><trkpt lat="45.754498" lon="8.5458999"><ele>219.5</ele><time>2026-04-12T10:09:16.175Z</time></trkpt><trkpt lat="45.7544743" lon="8.5461194"><ele>219.0</ele><time>2026-04-12T10:09:17.177Z</time></trkpt><trkpt lat="45.7544545" lon="8.5463154"><ele>218.5</ele><time>2026-04-12T10:09:18.176Z</time></trkpt><trkpt lat="45.7544383" lon="8.5464946"><ele>218.0</ele><time>2026-04-12T10:09:19.18Z</time></trkpt><trkpt lat="45.7544248" lon="8.5466575"><ele>217.8</ele><time>2026-04-12T10:09:20.17Z</time></trkpt><trkpt lat="45.7544175" lon="8.5468219"><ele>217.60000000000002</ele><time>2026-04-12T10:09:21.185Z</time></trkpt><trkpt lat="45.7544198" lon="8.5469745"><ele>217.39999999999998</ele><time>2026-04-12T10:09:22.184Z</time></trkpt><trkpt lat="45.7544316" lon="8.5471032"><ele>217.2</ele><time>2026-04-12T10:09:23.171Z</time></trkpt><trkpt lat="45.7544456" lon="8.547211"><ele>217.0</ele><time>2026-04-12T10:09:24.216Z</time></trkpt><trkpt lat="45.7544559" lon="8.5473049"><ele>217.0</ele><time>2026-04-12T10:09:25.18Z</time></trkpt><trkpt lat="45.7544634" lon="8.5474358"><ele>217.0</ele><time>2026-04-12T10:09:27.17Z</time></trkpt><trkpt lat="45.7544623" lon="8.5475783"><ele>217.0</ele><time>2026-04-12T10:09:29.161Z</time></trkpt><trkpt lat="45.7544902" lon="8.5477199"><ele>217.0</ele><time>2026-04-12T10:09:31.173Z</time></trkpt><trkpt lat="45.7545604" lon="8.5478685"><ele>217.0</ele><time>2026-04-12T10:09:33.177Z</time></trkpt><trkpt lat="45.7546053" lon="8.5480315"><ele>217.0</ele><time>2026-04-12T10:09:35.201Z</time></trkpt><trkpt lat="45.7546318" lon="8.5481351"><ele>217.0</ele><time>2026-04-12T10:09:36.169Z</time></trkpt><trkpt lat="45.7546686" lon="8.5482779"><ele>217.0</ele><time>2026-04-12T10:09:37.171Z</time></trkpt><trkpt lat="45.7547033" lon="8.5484411"><ele>217.0</ele><time>2026-04-12T10:09:38.171Z</time></trkpt><trkpt lat="45.7547401" lon="8.5486059"><ele>217.0</ele><time>2026-04-12T10:09:39.186Z</time></trkpt><trkpt lat="45.7547696" lon="8.548764"><ele>216.8</ele><time>2026-04-12T10:09:40.163Z</time></trkpt><trkpt lat="45.7547954" lon="8.5489075"><ele>216.6</ele><time>2026-04-12T10:09:41.176Z</time></trkpt><trkpt lat="45.7548199" lon="8.5490482"><ele>216.40000000000003</ele><time>2026-04-12T10:09:42.168Z</time></trkpt><trkpt lat="45.7548472" lon="8.549181"><ele>216.20000000000002</ele><time>2026-04-12T10:09:43.175Z</time></trkpt><trkpt lat="45.7548737" lon="8.5493017"><ele>216.0</ele><time>2026-04-12T10:09:44.18Z</time></trkpt><trkpt lat="45.7548983" lon="8.5494133"><ele>216.0</ele><time>2026-04-12T10:09:45.164Z</time></trkpt><trkpt lat="45.7549283" lon="8.549512"><ele>216.00000000000003</ele><time>2026-04-12T10:09:46.178Z</time></trkpt><trkpt lat="45.7549577" lon="8.5496252"><ele>216.00000000000003</ele><time>2026-04-12T10:09:47.174Z</time></trkpt><trkpt lat="45.7549913" lon="8.5497763"><ele>216.0</ele><time>2026-04-12T10:09:48.181Z</time></trkpt><trkpt lat="45.7550347" lon="8.5499632"><ele>216.0</ele><time>2026-04-12T10:09:49.182Z</time></trkpt><trkpt lat="45.7550903" lon="8.5501814"><ele>215.33333333333331</ele><time>2026-04-12T10:09:50.167Z</time></trkpt><trkpt lat="45.7551485" lon="8.5504192"><ele>214.66666666666666</ele><time>2026-04-12T10:09:51.228Z</time></trkpt><trkpt lat="45.7552125" lon="8.5506389"><ele>214.0</ele><time>2026-04-12T10:09:52.181Z</time></trkpt><trkpt lat="45.7552723" lon="8.5508411"><ele>214.0</ele><time>2026-04-12T10:09:53.179Z</time></trkpt><trkpt lat="45.7553256" lon="8.5510269"><ele>214.0</ele><time>2026-04-12T10:09:54.195Z</time></trkpt><trkpt lat="45.7553813" lon="8.5511992"><ele>214.0</ele><time>2026-04-12T10:09:55.177Z</time></trkpt><trkpt lat="45.7554312" lon="8.5513535"><ele>214.0</ele><time>2026-04-12T10:09:56.165Z</time></trkpt><trkpt lat="45.7554726" lon="8.5514953"><ele>213.79999999999998</ele><time>2026-04-12T10:09:57.178Z</time></trkpt><trkpt lat="45.7555191" lon="8.5516363"><ele>213.59999999999997</ele><time>2026-04-12T10:09:58.181Z</time></trkpt><trkpt lat="45.7555699" lon="8.5517783"><ele>213.4</ele><time>2026-04-12T10:09:59.171Z</time></trkpt><trkpt lat="45.7556191" lon="8.5519158"><ele>213.2</ele><time>2026-04-12T10:10:00.174Z</time></trkpt><trkpt lat="45.7556598" lon="8.5520562"><ele>213.0</ele><time>2026-04-12T10:10:01.175Z</time></trkpt><trkpt lat="45.7557062" lon="8.5521977"><ele>212.83333333333334</ele><time>2026-04-12T10:10:02.171Z</time></trkpt><trkpt lat="45.7557496" lon="8.5523301"><ele>212.66666666666669</ele><time>2026-04-12T10:10:03.179Z</time></trkpt><trkpt lat="45.7557841" lon="8.5524561"><ele>212.5</ele><time>2026-04-12T10:10:04.184Z</time></trkpt><trkpt lat="45.7558104" lon="8.5525837"><ele>212.33333333333334</ele><time>2026-04-12T10:10:05.184Z</time></trkpt><trkpt lat="45.7558332" lon="8.5526999"><ele>212.16666666666669</ele><time>2026-04-12T10:10:06.186Z</time></trkpt><trkpt lat="45.7558493" lon="8.5527977"><ele>212.0</ele><time>2026-04-12T10:10:07.171Z</time></trkpt><trkpt lat="45.7558616" lon="8.5528993"><ele>212.00000000000003</ele><time>2026-04-12T10:10:08.174Z</time></trkpt><trkpt lat="45.7558763" lon="8.5529901"><ele>212.0</ele><time>2026-04-12T10:10:09.17Z</time></trkpt><trkpt lat="45.7558908" lon="8.5530964"><ele>212.0</ele><time>2026-04-12T10:10:10.175Z</time></trkpt><trkpt lat="45.755913" lon="8.5532268"><ele>212.0</ele><time>2026-04-12T10:10:11.225Z</time></trkpt><trkpt lat="45.7559331" lon="8.5533633"><ele>212.00000000000003</ele><time>2026-04-12T10:10:12.177Z</time></trkpt><trkpt lat="45.7559571" lon="8.5534937"><ele>212.0</ele><time>2026-04-12T10:10:13.174Z</time></trkpt><trkpt lat="45.7559935" lon="8.5536269"><ele>212.0</ele><time>2026-04-12T10:10:14.193Z</time></trkpt><trkpt lat="45.7560514" lon="8.5537654"><ele>212.0</ele><time>2026-04-12T10:10:15.176Z</time></trkpt><trkpt lat="45.75613" lon="8.5539008"><ele>212.0</ele><time>2026-04-12T10:10:16.19Z</time></trkpt><trkpt lat="45.756221" lon="8.5540121"><ele>212.0</ele><time>2026-04-12T10:10:17.171Z</time></trkpt><trkpt lat="45.7563343" lon="8.5540962"><ele>212.0</ele><time>2026-04-12T10:10:18.173Z</time></trkpt><trkpt lat="45.7564369" lon="8.554158"><ele>212.0</ele><time>2026-04-12T10:10:19.174Z</time></trkpt><trkpt lat="45.7565661" lon="8.5541906"><ele>212.0</ele><time>2026-04-12T10:10:20.198Z</time></trkpt><trkpt lat="45.7566993" lon="8.5542207"><ele>212.0</ele><time>2026-04-12T10:10:21.217Z</time></trkpt><trkpt lat="45.7568237" lon="8.5542483"><ele>211.39999999999998</ele><time>2026-04-12T10:10:22.187Z</time></trkpt><trkpt lat="45.7569389" lon="8.5542824"><ele>210.79999999999998</ele><time>2026-04-12T10:10:23.172Z</time></trkpt><trkpt lat="45.7570492" lon="8.5543062"><ele>210.2</ele><time>2026-04-12T10:10:24.189Z</time></trkpt><trkpt lat="45.7571522" lon="8.5543356"><ele>209.6</ele><time>2026-04-12T10:10:25.182Z</time></trkpt><trkpt lat="45.7572547" lon="8.5543707"><ele>209.0</ele><time>2026-04-12T10:10:26.172Z</time></trkpt><trkpt lat="45.7573409" lon="8.5544239"><ele>209.0</ele><time>2026-04-12T10:10:27.169Z</time></trkpt><trkpt lat="45.7574222" lon="8.5544955"><ele>209.0</ele><time>2026-04-12T10:10:28.181Z</time></trkpt><trkpt lat="45.7574897" lon="8.5545768"><ele>209.0</ele><time>2026-04-12T10:10:29.193Z</time></trkpt><trkpt lat="45.7575523" lon="8.5546696"><ele>209.0</ele><time>2026-04-12T10:10:30.177Z</time></trkpt><trkpt lat="45.7576104" lon="8.5547689"><ele>209.0</ele><time>2026-04-12T10:10:31.184Z</time></trkpt><trkpt lat="45.7576553" lon="8.5548747"><ele>209.00000000000003</ele><time>2026-04-12T10:10:32.178Z</time></trkpt><trkpt lat="45.7576866" lon="8.5549809"><ele>209.0</ele><time>2026-04-12T10:10:33.18Z</time></trkpt><trkpt lat="45.7577193" lon="8.5550855"><ele>209.0</ele><time>2026-04-12T10:10:34.19Z</time></trkpt><trkpt lat="45.757742" lon="8.5551733"><ele>209.0</ele><time>2026-04-12T10:10:35.177Z</time></trkpt><trkpt lat="45.7577663" lon="8.5552945"><ele>209.00000000000003</ele><time>2026-04-12T10:10:37.183Z</time></trkpt><trkpt lat="45.7577658" lon="8.5553949"><ele>209.0</ele><time>2026-04-12T10:10:41.224Z</time></trkpt><trkpt lat="45.7577163" lon="8.5554865"><ele>209.00000000000003</ele><time>2026-04-12T10:10:44.187Z</time></trkpt><trkpt lat="45.7576703" lon="8.555574"><ele>209.0</ele><time>2026-04-12T10:10:46.194Z</time></trkpt><trkpt lat="45.7576317" lon="8.5556508"><ele>209.0</ele><time>2026-04-12T10:10:48.177Z</time></trkpt><trkpt lat="45.7575942" lon="8.5557234"><ele>209.0</ele><time>2026-04-12T10:10:50.188Z</time></trkpt><trkpt lat="45.7575368" lon="8.5558225"><ele>209.00000000000003</ele><time>2026-04-12T10:10:53.175Z</time></trkpt><trkpt lat="45.7574726" lon="8.5559191"><ele>209.0</ele><time>2026-04-12T10:10:56.178Z</time></trkpt><trkpt lat="45.7574217" lon="8.5560003"><ele>209.00000000000003</ele><time>2026-04-12T10:10:59.165Z</time></trkpt><trkpt lat="45.7573521" lon="8.5560964"><ele>209.0</ele><time>2026-04-12T10:11:02.176Z</time></trkpt><trkpt lat="45.7573017" lon="8.5561738"><ele>209.0</ele><time>2026-04-12T10:11:04.183Z</time></trkpt><trkpt lat="45.7572355" lon="8.5562719"><ele>209.0</ele><time>2026-04-12T10:11:06.18Z</time></trkpt><trkpt lat="45.7571605" lon="8.5563824"><ele>209.00000000000003</ele><time>2026-04-12T10:11:08.177Z</time></trkpt><trkpt lat="45.7571022" lon="8.5564412"><ele>209.0</ele><time>2026-04-12T10:11:10.174Z</time></trkpt><trkpt lat="45.7570484" lon="8.5565118"><ele>208.66666666666669</ele><time>2026-04-12T10:11:14.185Z</time></trkpt><trkpt lat="45.7570061" lon="8.5566171"><ele>208.33333333333334</ele><time>2026-04-12T10:11:31.164Z</time></trkpt><trkpt lat="45.7569534" lon="8.5566977"><ele>208.0</ele><time>2026-04-12T10:11:33.166Z</time></trkpt><trkpt lat="45.7569144" lon="8.556778"><ele>207.66666666666669</ele><time>2026-04-12T10:11:35.18Z</time></trkpt><trkpt lat="45.7568637" lon="8.5568673"><ele>207.33333333333334</ele><time>2026-04-12T10:11:37.178Z</time></trkpt><trkpt lat="45.7568143" lon="8.5569612"><ele>207.0</ele><time>2026-04-12T10:11:39.177Z</time></trkpt><trkpt lat="45.756764" lon="8.5570458"><ele>206.8</ele><time>2026-04-12T10:11:41.176Z</time></trkpt><trkpt lat="45.7567107" lon="8.5571497"><ele>206.6</ele><time>2026-04-12T10:11:43.179Z</time></trkpt><trkpt lat="45.7566443" lon="8.5572522"><ele>206.4</ele><time>2026-04-12T10:11:45.177Z</time></trkpt><trkpt lat="45.7565338" lon="8.5572913"><ele>206.20000000000002</ele><time>2026-04-12T10:11:47.182Z</time></trkpt><trkpt lat="45.7564517" lon="8.5572888"><ele>206.0</ele><time>2026-04-12T10:11:48.171Z</time></trkpt><trkpt lat="45.7563634" lon="8.5572875"><ele>206.0</ele><time>2026-04-12T10:11:49.176Z</time></trkpt><trkpt lat="45.7562755" lon="8.5573141"><ele>206.0</ele><time>2026-04-12T10:11:50.183Z</time></trkpt><trkpt lat="45.7561755" lon="8.5573154"><ele>206.0</ele><time>2026-04-12T10:11:51.177Z</time></trkpt><trkpt lat="45.7560713" lon="8.5573275"><ele>206.0</ele><time>2026-04-12T10:11:52.177Z</time></trkpt><trkpt lat="45.7559595" lon="8.5573483"><ele>206.0</ele><time>2026-04-12T10:11:53.174Z</time></trkpt><trkpt lat="45.7558428" lon="8.5573715"><ele>206.0</ele><time>2026-04-12T10:11:54.179Z</time></trkpt><trkpt lat="45.7557247" lon="8.557383"><ele>206.0</ele><time>2026-04-12T10:11:55.173Z</time></trkpt><trkpt lat="45.7556127" lon="8.5574234"><ele>206.0</ele><time>2026-04-12T10:11:56.201Z</time></trkpt><trkpt lat="45.7555025" lon="8.5574566"><ele>206.0</ele><time>2026-04-12T10:11:57.179Z</time></trkpt><trkpt lat="45.7553966" lon="8.557493"><ele>206.0</ele><time>2026-04-12T10:11:58.185Z</time></trkpt><trkpt lat="45.7552888" lon="8.557534"><ele>206.0</ele><time>2026-04-12T10:11:59.174Z</time></trkpt><trkpt lat="45.7551842" lon="8.5575823"><ele>206.0</ele><time>2026-04-12T10:12:00.176Z</time></trkpt><trkpt lat="45.7550803" lon="8.5576372"><ele>206.0</ele><time>2026-04-12T10:12:01.174Z</time></trkpt><trkpt lat="45.7549777" lon="8.5576948"><ele>206.0</ele><time>2026-04-12T10:12:02.183Z</time></trkpt><trkpt lat="45.7548919" lon="8.5577523"><ele>205.75</ele><time>2026-04-12T10:12:03.18Z</time></trkpt><trkpt lat="45.7548241" lon="8.5578058"><ele>205.5</ele><time>2026-04-12T10:12:04.176Z</time></trkpt><trkpt lat="45.7547295" lon="8.5578702"><ele>205.25</ele><time>2026-04-12T10:12:06.179Z</time></trkpt><trkpt lat="45.7546488" lon="8.5579196"><ele>205.0</ele><time>2026-04-12T10:12:08.179Z</time></trkpt><trkpt lat="45.7544896" lon="8.5580448"><ele>205.0</ele><time>2026-04-12T10:12:10.194Z</time></trkpt><trkpt lat="45.7543791" lon="8.558119"><ele>205.0</ele><time>2026-04-12T10:12:11.176Z</time></trkpt><trkpt lat="45.7542509" lon="8.5582162"><ele>205.0</ele><time>2026-04-12T10:12:12.18Z</time></trkpt><trkpt lat="45.7541362" lon="8.5583107"><ele>205.0</ele><time>2026-04-12T10:12:13.175Z</time></trkpt><trkpt lat="45.7540191" lon="8.5583977"><ele>204.75</ele><time>2026-04-12T10:12:14.191Z</time></trkpt><trkpt lat="45.7539024" lon="8.5584914"><ele>204.5</ele><time>2026-04-12T10:12:15.175Z</time></trkpt><trkpt lat="45.753785" lon="8.5585874"><ele>204.25</ele><time>2026-04-12T10:12:16.176Z</time></trkpt><trkpt lat="45.7536636" lon="8.558684"><ele>204.0</ele><time>2026-04-12T10:12:17.179Z</time></trkpt><trkpt lat="45.7535532" lon="8.5587787"><ele>204.2</ele><time>2026-04-12T10:12:18.182Z</time></trkpt><trkpt lat="45.7534513" lon="8.5588619"><ele>204.39999999999998</ele><time>2026-04-12T10:12:19.178Z</time></trkpt><trkpt lat="45.7533571" lon="8.5589314"><ele>204.6</ele><time>2026-04-12T10:12:20.178Z</time></trkpt><trkpt lat="45.7532668" lon="8.5589961"><ele>204.8</ele><time>2026-04-12T10:12:21.174Z</time></trkpt><trkpt lat="45.7531835" lon="8.5590383"><ele>205.0</ele><time>2026-04-12T10:12:22.173Z</time></trkpt><trkpt lat="45.7531035" lon="8.559067"><ele>204.99999999999997</ele><time>2026-04-12T10:12:23.177Z</time></trkpt><trkpt lat="45.7530212" lon="8.5590776"><ele>205.0</ele><time>2026-04-12T10:12:24.179Z</time></trkpt><trkpt lat="45.7529469" lon="8.559087"><ele>205.0</ele><time>2026-04-12T10:12:25.194Z</time></trkpt><trkpt lat="45.7528853" lon="8.5591307"><ele>205.0</ele><time>2026-04-12T10:12:26.185Z</time></trkpt><trkpt lat="45.7528377" lon="8.5592151"><ele>204.99999999999997</ele><time>2026-04-12T10:12:27.186Z</time></trkpt><trkpt lat="45.7528037" lon="8.5593169"><ele>205.0</ele><time>2026-04-12T10:12:28.177Z</time></trkpt><trkpt lat="45.7527331" lon="8.5594151"><ele>205.0</ele><time>2026-04-12T10:12:29.187Z</time></trkpt><trkpt lat="45.7526351" lon="8.5595107"><ele>205.0</ele><time>2026-04-12T10:12:30.176Z</time></trkpt><trkpt lat="45.7525275" lon="8.5596011"><ele>205.0</ele><time>2026-04-12T10:12:31.172Z</time></trkpt><trkpt lat="45.7524161" lon="8.5596848"><ele>205.0</ele><time>2026-04-12T10:12:32.178Z</time></trkpt><trkpt lat="45.7523128" lon="8.5597523"><ele>204.8</ele><time>2026-04-12T10:12:33.179Z</time></trkpt><trkpt lat="45.7522094" lon="8.5598338"><ele>204.6</ele><time>2026-04-12T10:12:34.186Z</time></trkpt><trkpt lat="45.752111" lon="8.5599189"><ele>204.39999999999998</ele><time>2026-04-12T10:12:35.178Z</time></trkpt><trkpt lat="45.7520149" lon="8.5600028"><ele>204.2</ele><time>2026-04-12T10:12:36.18Z</time></trkpt><trkpt lat="45.7519269" lon="8.5600675"><ele>204.0</ele><time>2026-04-12T10:12:37.177Z</time></trkpt><trkpt lat="45.7518441" lon="8.5601248"><ele>204.0</ele><time>2026-04-12T10:12:38.177Z</time></trkpt><trkpt lat="45.7517755" lon="8.5601873"><ele>204.0</ele><time>2026-04-12T10:12:39.175Z</time></trkpt><trkpt lat="45.7517097" lon="8.560242"><ele>204.0</ele><time>2026-04-12T10:12:40.175Z</time></trkpt><trkpt lat="45.7516426" lon="8.5603034"><ele>204.0</ele><time>2026-04-12T10:12:41.178Z</time></trkpt><trkpt lat="45.7515823" lon="8.5603584"><ele>204.0</ele><time>2026-04-12T10:12:42.173Z</time></trkpt><trkpt lat="45.7515132" lon="8.5604122"><ele>204.0</ele><time>2026-04-12T10:12:43.177Z</time></trkpt><trkpt lat="45.751442" lon="8.5604676"><ele>203.83333333333334</ele><time>2026-04-12T10:12:44.184Z</time></trkpt><trkpt lat="45.7513662" lon="8.5605155"><ele>203.66666666666669</ele><time>2026-04-12T10:12:45.178Z</time></trkpt><trkpt lat="45.7512948" lon="8.5605792"><ele>203.5</ele><time>2026-04-12T10:12:46.175Z</time></trkpt><trkpt lat="45.751219" lon="8.5606379"><ele>203.33333333333334</ele><time>2026-04-12T10:12:47.188Z</time></trkpt><trkpt lat="45.751143" lon="8.5606948"><ele>203.16666666666669</ele><time>2026-04-12T10:12:48.178Z</time></trkpt><trkpt lat="45.7510628" lon="8.5607692"><ele>203.0</ele><time>2026-04-12T10:12:49.178Z</time></trkpt><trkpt lat="45.7509776" lon="8.5608374"><ele>202.60000000000002</ele><time>2026-04-12T10:12:50.176Z</time></trkpt><trkpt lat="45.7508962" lon="8.5609076"><ele>202.20000000000002</ele><time>2026-04-12T10:12:51.174Z</time></trkpt><trkpt lat="45.7508069" lon="8.5609711"><ele>201.8</ele><time>2026-04-12T10:12:52.177Z</time></trkpt><trkpt lat="45.7507146" lon="8.5610359"><ele>201.4</ele><time>2026-04-12T10:12:53.178Z</time></trkpt><trkpt lat="45.7506245" lon="8.5611089"><ele>201.0</ele><time>2026-04-12T10:12:54.178Z</time></trkpt><trkpt lat="45.750536" lon="8.5611855"><ele>201.20000000000002</ele><time>2026-04-12T10:12:55.189Z</time></trkpt><trkpt lat="45.7504492" lon="8.5612589"><ele>201.4</ele><time>2026-04-12T10:12:56.193Z</time></trkpt><trkpt lat="45.7503649" lon="8.5613252"><ele>201.6</ele><time>2026-04-12T10:12:57.176Z</time></trkpt><trkpt lat="45.7502819" lon="8.5613875"><ele>201.8</ele><time>2026-04-12T10:12:58.177Z</time></trkpt><trkpt lat="45.7501888" lon="8.5614526"><ele>202.0</ele><time>2026-04-12T10:12:59.18Z</time></trkpt><trkpt lat="45.750096" lon="8.5615261"><ele>202.0</ele><time>2026-04-12T10:13:00.177Z</time></trkpt><trkpt lat="45.7500047" lon="8.5616051"><ele>202.0</ele><time>2026-04-12T10:13:01.178Z</time></trkpt><trkpt lat="45.7499114" lon="8.5616819"><ele>202.0</ele><time>2026-04-12T10:13:02.184Z</time></trkpt><trkpt lat="45.7498248" lon="8.5617511"><ele>202.0</ele><time>2026-04-12T10:13:03.188Z</time></trkpt><trkpt lat="45.7497476" lon="8.5618173"><ele>202.0</ele><time>2026-04-12T10:13:04.174Z</time></trkpt><trkpt lat="45.7496768" lon="8.5618758"><ele>201.99999999999997</ele><time>2026-04-12T10:13:05.181Z</time></trkpt><trkpt lat="45.7496074" lon="8.5619317"><ele>202.0</ele><time>2026-04-12T10:13:06.181Z</time></trkpt><trkpt lat="45.7495448" lon="8.5619731"><ele>202.0</ele><time>2026-04-12T10:13:07.176Z</time></trkpt><trkpt lat="45.7494795" lon="8.5620219"><ele>202.0</ele><time>2026-04-12T10:13:08.186Z</time></trkpt><trkpt lat="45.7494113" lon="8.5620813"><ele>201.99999999999997</ele><time>2026-04-12T10:13:09.182Z</time></trkpt><trkpt lat="45.7493322" lon="8.5621413"><ele>202.0</ele><time>2026-04-12T10:13:10.182Z</time></trkpt><trkpt lat="45.7492472" lon="8.5622046"><ele>202.0</ele><time>2026-04-12T10:13:11.177Z</time></trkpt><trkpt lat="45.749158" lon="8.5622763"><ele>202.0</ele><time>2026-04-12T10:13:12.179Z</time></trkpt><trkpt lat="45.7490628" lon="8.5623436"><ele>202.0</ele><time>2026-04-12T10:13:13.19Z</time></trkpt><trkpt lat="45.7489726" lon="8.5624173"><ele>202.0</ele><time>2026-04-12T10:13:14.177Z</time></trkpt><trkpt lat="45.7488804" lon="8.5624885"><ele>202.0</ele><time>2026-04-12T10:13:15.177Z</time></trkpt><trkpt lat="45.7487845" lon="8.5625668"><ele>202.0</ele><time>2026-04-12T10:13:16.177Z</time></trkpt><trkpt lat="45.7486843" lon="8.5626389"><ele>202.0</ele><time>2026-04-12T10:13:17.179Z</time></trkpt><trkpt lat="45.7485879" lon="8.5627177"><ele>202.0</ele><time>2026-04-12T10:13:18.176Z</time></trkpt><trkpt lat="45.7484867" lon="8.5628032"><ele>202.0</ele><time>2026-04-12T10:13:19.177Z</time></trkpt><trkpt lat="45.7483856" lon="8.5628719"><ele>201.75</ele><time>2026-04-12T10:13:20.185Z</time></trkpt><trkpt lat="45.7482783" lon="8.5629502"><ele>201.5</ele><time>2026-04-12T10:13:21.179Z</time></trkpt><trkpt lat="45.7481715" lon="8.5630288"><ele>201.25</ele><time>2026-04-12T10:13:22.177Z</time></trkpt><trkpt lat="45.7480667" lon="8.5631084"><ele>201.0</ele><time>2026-04-12T10:13:23.179Z</time></trkpt><trkpt lat="45.7479658" lon="8.5631878"><ele>201.0</ele><time>2026-04-12T10:13:24.183Z</time></trkpt><trkpt lat="45.7478647" lon="8.5632715"><ele>201.0</ele><time>2026-04-12T10:13:25.18Z</time></trkpt><trkpt lat="45.7477692" lon="8.5633526"><ele>201.0</ele><time>2026-04-12T10:13:26.179Z</time></trkpt><trkpt lat="45.7476758" lon="8.5634271"><ele>201.0</ele><time>2026-04-12T10:13:27.177Z</time></trkpt><trkpt lat="45.7475916" lon="8.5634972"><ele>201.0</ele><time>2026-04-12T10:13:28.177Z</time></trkpt><trkpt lat="45.7475111" lon="8.5635726"><ele>201.0</ele><time>2026-04-12T10:13:29.182Z</time></trkpt><trkpt lat="45.747436" lon="8.5636641"><ele>201.0</ele><time>2026-04-12T10:13:30.179Z</time></trkpt><trkpt lat="45.7473712" lon="8.5637761"><ele>201.0</ele><time>2026-04-12T10:13:31.182Z</time></trkpt><trkpt lat="45.7473099" lon="8.5638911"><ele>201.0</ele><time>2026-04-12T10:13:32.173Z</time></trkpt><trkpt lat="45.7472633" lon="8.563989"><ele>201.0</ele><time>2026-04-12T10:13:33.179Z</time></trkpt><trkpt lat="45.7472123" lon="8.5641029"><ele>201.0</ele><time>2026-04-12T10:13:34.177Z</time></trkpt><trkpt lat="45.7471383" lon="8.5642327"><ele>201.0</ele><time>2026-04-12T10:13:36.182Z</time></trkpt><trkpt lat="45.7470725" lon="8.5643728"><ele>201.0</ele><time>2026-04-12T10:13:38.188Z</time></trkpt><trkpt lat="45.7470361" lon="8.5644558"><ele>201.0</ele><time>2026-04-12T10:13:48.177Z</time></trkpt><trkpt lat="45.7469575" lon="8.5645304"><ele>201.0</ele><time>2026-04-12T10:13:50.187Z</time></trkpt><trkpt lat="45.7468792" lon="8.5645767"><ele>200.8</ele><time>2026-04-12T10:13:51.179Z</time></trkpt><trkpt lat="45.7467993" lon="8.5646054"><ele>200.60000000000002</ele><time>2026-04-12T10:13:52.173Z</time></trkpt><trkpt lat="45.7467146" lon="8.5646316"><ele>200.4</ele><time>2026-04-12T10:13:53.184Z</time></trkpt><trkpt lat="45.7466254" lon="8.5646463"><ele>200.2</ele><time>2026-04-12T10:13:54.179Z</time></trkpt><trkpt lat="45.7465179" lon="8.5646639"><ele>200.0</ele><time>2026-04-12T10:13:55.181Z</time></trkpt><trkpt lat="45.7463899" lon="8.5646864"><ele>200.0</ele><time>2026-04-12T10:13:56.175Z</time></trkpt><trkpt lat="45.7462594" lon="8.5647104"><ele>200.0</ele><time>2026-04-12T10:13:57.18Z</time></trkpt><trkpt lat="45.7461393" lon="8.5647447"><ele>200.0</ele><time>2026-04-12T10:13:58.178Z</time></trkpt><trkpt lat="45.7460249" lon="8.5647933"><ele>200.0</ele><time>2026-04-12T10:13:59.177Z</time></trkpt><trkpt lat="45.7459114" lon="8.564861"><ele>200.25</ele><time>2026-04-12T10:14:00.176Z</time></trkpt><trkpt lat="45.7457916" lon="8.5649419"><ele>200.5</ele><time>2026-04-12T10:14:01.177Z</time></trkpt><trkpt lat="45.7456721" lon="8.5650402"><ele>200.75</ele><time>2026-04-12T10:14:02.182Z</time></trkpt><trkpt lat="45.7455463" lon="8.5651497"><ele>201.0</ele><time>2026-04-12T10:14:03.181Z</time></trkpt><trkpt lat="45.7454016" lon="8.5652737"><ele>201.33333333333331</ele><time>2026-04-12T10:14:04.177Z</time></trkpt><trkpt lat="45.7452605" lon="8.5653835"><ele>201.66666666666666</ele><time>2026-04-12T10:14:05.178Z</time></trkpt><trkpt lat="45.7451271" lon="8.5654816"><ele>202.0</ele><time>2026-04-12T10:14:06.176Z</time></trkpt><trkpt lat="45.7450049" lon="8.5655767"><ele>202.0</ele><time>2026-04-12T10:14:07.179Z</time></trkpt><trkpt lat="45.7448886" lon="8.5656678"><ele>202.0</ele><time>2026-04-12T10:14:08.18Z</time></trkpt><trkpt lat="45.744775" lon="8.5657582"><ele>202.0</ele><time>2026-04-12T10:14:09.171Z</time></trkpt><trkpt lat="45.7446597" lon="8.5658464"><ele>202.0</ele><time>2026-04-12T10:14:10.179Z</time></trkpt><trkpt lat="45.744548" lon="8.5659282"><ele>202.0</ele><time>2026-04-12T10:14:11.174Z</time></trkpt><trkpt lat="45.7444374" lon="8.5660154"><ele>202.0</ele><time>2026-04-12T10:14:12.175Z</time></trkpt><trkpt lat="45.744326" lon="8.5661011"><ele>202.0</ele><time>2026-04-12T10:14:13.172Z</time></trkpt><trkpt lat="45.7442138" lon="8.5661882"><ele>202.0</ele><time>2026-04-12T10:14:14.176Z</time></trkpt><trkpt lat="45.7441055" lon="8.56628"><ele>202.0</ele><time>2026-04-12T10:14:15.175Z</time></trkpt><trkpt lat="45.7439946" lon="8.5663736"><ele>202.0</ele><time>2026-04-12T10:14:16.181Z</time></trkpt><trkpt lat="45.7438789" lon="8.5664684"><ele>202.0</ele><time>2026-04-12T10:14:17.181Z</time></trkpt><trkpt lat="45.7437606" lon="8.5665669"><ele>202.0</ele><time>2026-04-12T10:14:18.179Z</time></trkpt><trkpt lat="45.7436416" lon="8.5666656"><ele>202.0</ele><time>2026-04-12T10:14:19.178Z</time></trkpt><trkpt lat="45.7435238" lon="8.566769"><ele>202.0</ele><time>2026-04-12T10:14:20.18Z</time></trkpt><trkpt lat="45.7432888" lon="8.56695"><ele>202.0</ele><time>2026-04-12T10:14:22.18Z</time></trkpt><trkpt lat="45.7431622" lon="8.5670556"><ele>202.0</ele><time>2026-04-12T10:14:23.18Z</time></trkpt><trkpt lat="45.7430251" lon="8.5671617"><ele>202.0</ele><time>2026-04-12T10:14:24.19Z</time></trkpt><trkpt lat="45.7428857" lon="8.5672703"><ele>202.0</ele><time>2026-04-12T10:14:25.205Z</time></trkpt><trkpt lat="45.7427474" lon="8.567375"><ele>203.0</ele><time>2026-04-12T10:14:26.213Z</time></trkpt><trkpt lat="45.7426036" lon="8.5674909"><ele>204.0</ele><time>2026-04-12T10:14:27.18Z</time></trkpt><trkpt lat="45.7424482" lon="8.5676137"><ele>205.0</ele><time>2026-04-12T10:14:28.18Z</time></trkpt><trkpt lat="45.7422896" lon="8.5677399"><ele>205.0</ele><time>2026-04-12T10:14:29.183Z</time></trkpt><trkpt lat="45.7421308" lon="8.5678644"><ele>205.0</ele><time>2026-04-12T10:14:30.177Z</time></trkpt><trkpt lat="45.7419716" lon="8.5679854"><ele>205.0</ele><time>2026-04-12T10:14:31.175Z</time></trkpt><trkpt lat="45.7418151" lon="8.568105"><ele>205.0</ele><time>2026-04-12T10:14:32.185Z</time></trkpt><trkpt lat="45.7416658" lon="8.5682205"><ele>205.0</ele><time>2026-04-12T10:14:33.18Z</time></trkpt><trkpt lat="45.7415129" lon="8.5683356"><ele>205.0</ele><time>2026-04-12T10:14:34.176Z</time></trkpt><trkpt lat="45.7413671" lon="8.5684482"><ele>205.0</ele><time>2026-04-12T10:14:35.19Z</time></trkpt><trkpt lat="45.7412218" lon="8.5685607"><ele>205.0</ele><time>2026-04-12T10:14:36.216Z</time></trkpt><trkpt lat="45.7410836" lon="8.5686702"><ele>205.0</ele><time>2026-04-12T10:14:37.179Z</time></trkpt><trkpt lat="45.7409508" lon="8.5687647"><ele>205.0</ele><time>2026-04-12T10:14:38.179Z</time></trkpt><trkpt lat="45.7408156" lon="8.568868"><ele>205.0</ele><time>2026-04-12T10:14:39.216Z</time></trkpt><trkpt lat="45.7406937" lon="8.5689639"><ele>205.0</ele><time>2026-04-12T10:14:40.183Z</time></trkpt><trkpt lat="45.7405632" lon="8.5690689"><ele>205.0</ele><time>2026-04-12T10:14:41.182Z</time></trkpt><trkpt lat="45.7404241" lon="8.5691845"><ele>205.0</ele><time>2026-04-12T10:14:42.181Z</time></trkpt><trkpt lat="45.7402659" lon="8.5693243"><ele>205.0</ele><time>2026-04-12T10:14:43.174Z</time></trkpt><trkpt lat="45.7400869" lon="8.5694649"><ele>205.0</ele><time>2026-04-12T10:14:44.181Z</time></trkpt><trkpt lat="45.7399077" lon="8.5696043"><ele>206.0</ele><time>2026-04-12T10:14:45.185Z</time></trkpt><trkpt lat="45.7397356" lon="8.5697395"><ele>207.0</ele><time>2026-04-12T10:14:46.174Z</time></trkpt><trkpt lat="45.7395726" lon="8.569868"><ele>208.0</ele><time>2026-04-12T10:14:47.18Z</time></trkpt><trkpt lat="45.7394208" lon="8.569986"><ele>207.66666666666666</ele><time>2026-04-12T10:14:48.177Z</time></trkpt><trkpt lat="45.7392778" lon="8.5700976"><ele>207.33333333333331</ele><time>2026-04-12T10:14:49.193Z</time></trkpt><trkpt lat="45.7391435" lon="8.5702076"><ele>207.0</ele><time>2026-04-12T10:14:50.183Z</time></trkpt><trkpt lat="45.7390042" lon="8.5703196"><ele>207.66666666666669</ele><time>2026-04-12T10:14:51.218Z</time></trkpt><trkpt lat="45.7388611" lon="8.5704357"><ele>208.33333333333334</ele><time>2026-04-12T10:14:52.176Z</time></trkpt><trkpt lat="45.7387194" lon="8.5705477"><ele>209.0</ele><time>2026-04-12T10:14:53.181Z</time></trkpt><trkpt lat="45.7385813" lon="8.5706577"><ele>208.33333333333334</ele><time>2026-04-12T10:14:54.201Z</time></trkpt><trkpt lat="45.738443" lon="8.570762"><ele>207.66666666666669</ele><time>2026-04-12T10:14:55.174Z</time></trkpt><trkpt lat="45.7383087" lon="8.5708693"><ele>207.0</ele><time>2026-04-12T10:14:56.22Z</time></trkpt><trkpt lat="45.7381807" lon="8.5709759"><ele>207.0</ele><time>2026-04-12T10:14:57.179Z</time></trkpt><trkpt lat="45.7380551" lon="8.5710802"><ele>207.0</ele><time>2026-04-12T10:14:58.177Z</time></trkpt><trkpt lat="45.7379323" lon="8.5711791"><ele>207.0</ele><time>2026-04-12T10:14:59.185Z</time></trkpt><trkpt lat="45.7378071" lon="8.5712785"><ele>207.0</ele><time>2026-04-12T10:15:00.183Z</time></trkpt><trkpt lat="45.7376801" lon="8.5713854"><ele>207.33333333333331</ele><time>2026-04-12T10:15:01.181Z</time></trkpt><trkpt lat="45.7375517" lon="8.5714914"><ele>207.66666666666666</ele><time>2026-04-12T10:15:02.18Z</time></trkpt><trkpt lat="45.7374195" lon="8.5715951"><ele>208.0</ele><time>2026-04-12T10:15:03.188Z</time></trkpt><trkpt lat="45.7372874" lon="8.5717008"><ele>208.0</ele><time>2026-04-12T10:15:04.178Z</time></trkpt><trkpt lat="45.7371566" lon="8.5718045"><ele>208.0</ele><time>2026-04-12T10:15:05.171Z</time></trkpt><trkpt lat="45.7370252" lon="8.5719151"><ele>208.0</ele><time>2026-04-12T10:15:06.185Z</time></trkpt><trkpt lat="45.7368924" lon="8.5720231"><ele>207.75</ele><time>2026-04-12T10:15:07.178Z</time></trkpt><trkpt lat="45.7367604" lon="8.5721239"><ele>207.5</ele><time>2026-04-12T10:15:08.179Z</time></trkpt><trkpt lat="45.7366286" lon="8.5722252"><ele>207.25</ele><time>2026-04-12T10:15:09.192Z</time></trkpt><trkpt lat="45.7365011" lon="8.5723213"><ele>207.0</ele><time>2026-04-12T10:15:10.183Z</time></trkpt><trkpt lat="45.736381" lon="8.5724182"><ele>207.0</ele><time>2026-04-12T10:15:11.198Z</time></trkpt><trkpt lat="45.7362593" lon="8.5725048"><ele>207.0</ele><time>2026-04-12T10:15:12.175Z</time></trkpt><trkpt lat="45.7361489" lon="8.572587"><ele>207.0</ele><time>2026-04-12T10:15:13.176Z</time></trkpt><trkpt lat="45.736042" lon="8.5726725"><ele>207.0</ele><time>2026-04-12T10:15:14.181Z</time></trkpt><trkpt lat="45.7359387" lon="8.5727569"><ele>207.2</ele><time>2026-04-12T10:15:15.177Z</time></trkpt><trkpt lat="45.7358364" lon="8.5728328"><ele>207.39999999999998</ele><time>2026-04-12T10:15:16.176Z</time></trkpt><trkpt lat="45.7357332" lon="8.5729117"><ele>207.60000000000002</ele><time>2026-04-12T10:15:17.18Z</time></trkpt><trkpt lat="45.7356368" lon="8.5729918"><ele>207.8</ele><time>2026-04-12T10:15:18.188Z</time></trkpt><trkpt lat="45.7355454" lon="8.5730605"><ele>208.0</ele><time>2026-04-12T10:15:19.202Z</time></trkpt><trkpt lat="45.735463" lon="8.5731245"><ele>207.99999999999997</ele><time>2026-04-12T10:15:20.208Z</time></trkpt><trkpt lat="45.7353831" lon="8.5731856"><ele>208.0</ele><time>2026-04-12T10:15:21.206Z</time></trkpt><trkpt lat="45.7353026" lon="8.5732467"><ele>208.0</ele><time>2026-04-12T10:15:22.178Z</time></trkpt><trkpt lat="45.7352281" lon="8.5733096"><ele>208.0</ele><time>2026-04-12T10:15:23.176Z</time></trkpt><trkpt lat="45.7351639" lon="8.5733752"><ele>207.99999999999997</ele><time>2026-04-12T10:15:24.186Z</time></trkpt><trkpt lat="45.7351083" lon="8.5734437"><ele>208.0</ele><time>2026-04-12T10:15:25.215Z</time></trkpt><trkpt lat="45.7350642" lon="8.573516"><ele>208.0</ele><time>2026-04-12T10:15:26.173Z</time></trkpt><trkpt lat="45.7349932" lon="8.5736268"><ele>208.0</ele><time>2026-04-12T10:15:28.179Z</time></trkpt><trkpt lat="45.7348954" lon="8.5737071"><ele>208.0</ele><time>2026-04-12T10:15:30.215Z</time></trkpt><trkpt lat="45.7347822" lon="8.5737253"><ele>208.0</ele><time>2026-04-12T10:15:32.174Z</time></trkpt><trkpt lat="45.7346582" lon="8.57378"><ele>207.8</ele><time>2026-04-12T10:15:34.187Z</time></trkpt><trkpt lat="45.7345911" lon="8.5738275"><ele>207.60000000000002</ele><time>2026-04-12T10:15:35.176Z</time></trkpt><trkpt lat="45.7345177" lon="8.5738891"><ele>207.39999999999998</ele><time>2026-04-12T10:15:36.177Z</time></trkpt><trkpt lat="45.7344355" lon="8.5739499"><ele>207.2</ele><time>2026-04-12T10:15:37.172Z</time></trkpt><trkpt lat="45.7343348" lon="8.5740345"><ele>207.0</ele><time>2026-04-12T10:15:38.218Z</time></trkpt><trkpt lat="45.734223" lon="8.5741302"><ele>206.8</ele><time>2026-04-12T10:15:39.186Z</time></trkpt><trkpt lat="45.7341165" lon="8.5742174"><ele>206.6</ele><time>2026-04-12T10:15:40.213Z</time></trkpt><trkpt lat="45.734019" lon="8.5742958"><ele>206.4</ele><time>2026-04-12T10:15:41.181Z</time></trkpt><trkpt lat="45.7339354" lon="8.5743634"><ele>206.20000000000002</ele><time>2026-04-12T10:15:42.18Z</time></trkpt><trkpt lat="45.7338492" lon="8.574427"><ele>206.0</ele><time>2026-04-12T10:15:43.171Z</time></trkpt><trkpt lat="45.7337554" lon="8.5745043"><ele>205.8</ele><time>2026-04-12T10:15:44.19Z</time></trkpt><trkpt lat="45.7336673" lon="8.5745728"><ele>205.60000000000002</ele><time>2026-04-12T10:15:45.185Z</time></trkpt><trkpt lat="45.7335807" lon="8.5746376"><ele>205.4</ele><time>2026-04-12T10:15:46.171Z</time></trkpt><trkpt lat="45.7334966" lon="8.574707"><ele>205.2</ele><time>2026-04-12T10:15:47.182Z</time></trkpt><trkpt lat="45.7334181" lon="8.574778"><ele>205.0</ele><time>2026-04-12T10:15:48.177Z</time></trkpt><trkpt lat="45.7333325" lon="8.5748397"><ele>205.0</ele><time>2026-04-12T10:15:49.217Z</time></trkpt><trkpt lat="45.7332441" lon="8.5749064"><ele>205.0</ele><time>2026-04-12T10:15:50.183Z</time></trkpt><trkpt lat="45.7331518" lon="8.5749741"><ele>205.0</ele><time>2026-04-12T10:15:51.174Z</time></trkpt><trkpt lat="45.7330544" lon="8.5750469"><ele>205.0</ele><time>2026-04-12T10:15:52.171Z</time></trkpt><trkpt lat="45.7329493" lon="8.5751279"><ele>205.0</ele><time>2026-04-12T10:15:53.177Z</time></trkpt><trkpt lat="45.7328306" lon="8.5752181"><ele>205.25</ele><time>2026-04-12T10:15:54.215Z</time></trkpt><trkpt lat="45.7326942" lon="8.5753223"><ele>205.5</ele><time>2026-04-12T10:15:55.22Z</time></trkpt><trkpt lat="45.7325624" lon="8.5754198"><ele>205.75</ele><time>2026-04-12T10:15:56.179Z</time></trkpt><trkpt lat="45.7324338" lon="8.5755164"><ele>206.0</ele><time>2026-04-12T10:15:57.179Z</time></trkpt><trkpt lat="45.7322876" lon="8.5756312"><ele>205.33333333333334</ele><time>2026-04-12T10:15:58.176Z</time></trkpt><trkpt lat="45.7321153" lon="8.5757699"><ele>204.66666666666669</ele><time>2026-04-12T10:15:59.211Z</time></trkpt><trkpt lat="45.731953" lon="8.575903"><ele>204.0</ele><time>2026-04-12T10:16:00.183Z</time></trkpt><trkpt lat="45.7318039" lon="8.5760237"><ele>203.75</ele><time>2026-04-12T10:16:01.21Z</time></trkpt><trkpt lat="45.7316616" lon="8.5761337"><ele>203.5</ele><time>2026-04-12T10:16:02.177Z</time></trkpt><trkpt lat="45.7315321" lon="8.5762315"><ele>203.25</ele><time>2026-04-12T10:16:03.179Z</time></trkpt><trkpt lat="45.7314146" lon="8.5763214"><ele>203.0</ele><time>2026-04-12T10:16:04.191Z</time></trkpt><trkpt lat="45.7313105" lon="8.5764038"><ele>202.8</ele><time>2026-04-12T10:16:05.211Z</time></trkpt><trkpt lat="45.731213" lon="8.5764816"><ele>202.60000000000002</ele><time>2026-04-12T10:16:06.175Z</time></trkpt><trkpt lat="45.7311224" lon="8.5765535"><ele>202.39999999999998</ele><time>2026-04-12T10:16:07.18Z</time></trkpt><trkpt lat="45.7310389" lon="8.5766165"><ele>202.2</ele><time>2026-04-12T10:16:08.182Z</time></trkpt><trkpt lat="45.7309631" lon="8.5766752"><ele>202.0</ele><time>2026-04-12T10:16:09.172Z</time></trkpt><trkpt lat="45.7308965" lon="8.5767247"><ele>202.0</ele><time>2026-04-12T10:16:10.167Z</time></trkpt><trkpt lat="45.7307893" lon="8.5767829"><ele>202.0</ele><time>2026-04-12T10:16:12.169Z</time></trkpt><trkpt lat="45.7306993" lon="8.5767818"><ele>202.0</ele><time>2026-04-12T10:16:14.178Z</time></trkpt><trkpt lat="45.7306078" lon="8.5767629"><ele>202.0</ele><time>2026-04-12T10:16:16.183Z</time></trkpt><trkpt lat="45.7305082" lon="8.5768232"><ele>202.0</ele><time>2026-04-12T10:16:18.179Z</time></trkpt><trkpt lat="45.7304563" lon="8.5769525"><ele>202.0</ele><time>2026-04-12T10:16:20.181Z</time></trkpt><trkpt lat="45.7303849" lon="8.5770919"><ele>202.0</ele><time>2026-04-12T10:16:22.18Z</time></trkpt><trkpt lat="45.7303195" lon="8.5771672"><ele>202.0</ele><time>2026-04-12T10:16:23.183Z</time></trkpt><trkpt lat="45.7302382" lon="8.5772443"><ele>202.0</ele><time>2026-04-12T10:16:24.183Z</time></trkpt><trkpt lat="45.7301349" lon="8.5773353"><ele>202.0</ele><time>2026-04-12T10:16:25.177Z</time></trkpt><trkpt lat="45.7300218" lon="8.5774267"><ele>202.5</ele><time>2026-04-12T10:16:26.178Z</time></trkpt><trkpt lat="45.7299086" lon="8.5775219"><ele>203.0</ele><time>2026-04-12T10:16:27.186Z</time></trkpt><trkpt lat="45.7297872" lon="8.5776157"><ele>203.5</ele><time>2026-04-12T10:16:28.175Z</time></trkpt><trkpt lat="45.7296676" lon="8.5777073"><ele>204.0</ele><time>2026-04-12T10:16:29.181Z</time></trkpt><trkpt lat="45.7295507" lon="8.5777983"><ele>204.0</ele><time>2026-04-12T10:16:30.182Z</time></trkpt><trkpt lat="45.7294271" lon="8.5778975"><ele>204.0</ele><time>2026-04-12T10:16:31.175Z</time></trkpt><trkpt lat="45.7293055" lon="8.5779868"><ele>204.0</ele><time>2026-04-12T10:16:32.181Z</time></trkpt><trkpt lat="45.7291846" lon="8.5780844"><ele>204.0</ele><time>2026-04-12T10:16:33.181Z</time></trkpt><trkpt lat="45.7290625" lon="8.5781815"><ele>204.0</ele><time>2026-04-12T10:16:34.188Z</time></trkpt><trkpt lat="45.7289453" lon="8.5782731"><ele>204.0</ele><time>2026-04-12T10:16:35.225Z</time></trkpt><trkpt lat="45.7288316" lon="8.5783674"><ele>204.0</ele><time>2026-04-12T10:16:36.195Z</time></trkpt><trkpt lat="45.728721" lon="8.5784562"><ele>204.0</ele><time>2026-04-12T10:16:37.176Z</time></trkpt><trkpt lat="45.7286141" lon="8.5785376"><ele>204.0</ele><time>2026-04-12T10:16:38.184Z</time></trkpt><trkpt lat="45.7285128" lon="8.5786262"><ele>204.0</ele><time>2026-04-12T10:16:39.186Z</time></trkpt><trkpt lat="45.7284132" lon="8.5787076"><ele>204.0</ele><time>2026-04-12T10:16:40.179Z</time></trkpt><trkpt lat="45.7283199" lon="8.5787921"><ele>204.0</ele><time>2026-04-12T10:16:41.17Z</time></trkpt><trkpt lat="45.7282341" lon="8.5788664"><ele>204.0</ele><time>2026-04-12T10:16:42.18Z</time></trkpt><trkpt lat="45.7281527" lon="8.5789381"><ele>203.79999999999998</ele><time>2026-04-12T10:16:43.177Z</time></trkpt><trkpt lat="45.7280716" lon="8.5790052"><ele>203.6</ele><time>2026-04-12T10:16:44.166Z</time></trkpt><trkpt lat="45.7279963" lon="8.5790657"><ele>203.4</ele><time>2026-04-12T10:16:45.217Z</time></trkpt><trkpt lat="45.7279383" lon="8.5791159"><ele>203.2</ele><time>2026-04-12T10:16:46.174Z</time></trkpt><trkpt lat="45.7278398" lon="8.5792037"><ele>203.0</ele><time>2026-04-12T10:16:48.177Z</time></trkpt><trkpt lat="45.7277411" lon="8.5792912"><ele>202.8</ele><time>2026-04-12T10:16:50.177Z</time></trkpt><trkpt lat="45.727623" lon="8.5793569"><ele>202.60000000000002</ele><time>2026-04-12T10:16:52.176Z</time></trkpt><trkpt lat="45.7275524" lon="8.5794027"><ele>202.39999999999998</ele><time>2026-04-12T10:16:53.182Z</time></trkpt><trkpt lat="45.7274778" lon="8.5794645"><ele>202.2</ele><time>2026-04-12T10:16:54.173Z</time></trkpt><trkpt lat="45.7273881" lon="8.5795355"><ele>202.0</ele><time>2026-04-12T10:16:55.185Z</time></trkpt><trkpt lat="45.727294" lon="8.5796064"><ele>202.0</ele><time>2026-04-12T10:16:56.176Z</time></trkpt><trkpt lat="45.7272061" lon="8.5796684"><ele>202.0</ele><time>2026-04-12T10:16:57.183Z</time></trkpt><trkpt lat="45.727122" lon="8.5797311"><ele>202.0</ele><time>2026-04-12T10:16:58.178Z</time></trkpt><trkpt lat="45.7270432" lon="8.5797962"><ele>202.0</ele><time>2026-04-12T10:16:59.175Z</time></trkpt><trkpt lat="45.7269628" lon="8.5798573"><ele>202.0</ele><time>2026-04-12T10:17:00.174Z</time></trkpt><trkpt lat="45.7268807" lon="8.5799184"><ele>202.0</ele><time>2026-04-12T10:17:01.178Z</time></trkpt><trkpt lat="45.7267876" lon="8.5799929"><ele>202.0</ele><time>2026-04-12T10:17:02.183Z</time></trkpt><trkpt lat="45.7266938" lon="8.5800652"><ele>202.0</ele><time>2026-04-12T10:17:03.173Z</time></trkpt><trkpt lat="45.7265922" lon="8.5801524"><ele>202.0</ele><time>2026-04-12T10:17:04.182Z</time></trkpt><trkpt lat="45.7264857" lon="8.5802459"><ele>201.66666666666666</ele><time>2026-04-12T10:17:05.188Z</time></trkpt><trkpt lat="45.7263486" lon="8.5803577"><ele>201.33333333333331</ele><time>2026-04-12T10:17:06.172Z</time></trkpt><trkpt lat="45.726219" lon="8.5804589"><ele>201.0</ele><time>2026-04-12T10:17:07.178Z</time></trkpt><trkpt lat="45.7260926" lon="8.5805589"><ele>201.5</ele><time>2026-04-12T10:17:08.179Z</time></trkpt><trkpt lat="45.7259716" lon="8.5806544"><ele>202.0</ele><time>2026-04-12T10:17:09.195Z</time></trkpt><trkpt lat="45.725854" lon="8.580747"><ele>202.5</ele><time>2026-04-12T10:17:10.217Z</time></trkpt><trkpt lat="45.7257286" lon="8.58084"><ele>203.0</ele><time>2026-04-12T10:17:11.182Z</time></trkpt><trkpt lat="45.7256091" lon="8.5809445"><ele>203.0</ele><time>2026-04-12T10:17:12.177Z</time></trkpt><trkpt lat="45.7254893" lon="8.5810347"><ele>203.0</ele><time>2026-04-12T10:17:13.177Z</time></trkpt><trkpt lat="45.7253727" lon="8.5811296"><ele>203.0</ele><time>2026-04-12T10:17:14.194Z</time></trkpt><trkpt lat="45.7252572" lon="8.5812169"><ele>203.0</ele><time>2026-04-12T10:17:15.183Z</time></trkpt><trkpt lat="45.7251353" lon="8.5813063"><ele>202.5</ele><time>2026-04-12T10:17:16.209Z</time></trkpt><trkpt lat="45.7250207" lon="8.5813976"><ele>202.0</ele><time>2026-04-12T10:17:17.177Z</time></trkpt><trkpt lat="45.7249108" lon="8.5814839"><ele>201.5</ele><time>2026-04-12T10:17:18.166Z</time></trkpt><trkpt lat="45.7247968" lon="8.5815733"><ele>201.0</ele><time>2026-04-12T10:17:19.18Z</time></trkpt><trkpt lat="45.7246827" lon="8.5816641"><ele>201.0</ele><time>2026-04-12T10:17:20.175Z</time></trkpt><trkpt lat="45.7245599" lon="8.5817548"><ele>201.0</ele><time>2026-04-12T10:17:21.19Z</time></trkpt><trkpt lat="45.724438" lon="8.5818392"><ele>201.0</ele><time>2026-04-12T10:17:22.179Z</time></trkpt><trkpt lat="45.7243159" lon="8.5819273"><ele>201.0</ele><time>2026-04-12T10:17:23.175Z</time></trkpt><trkpt lat="45.7242003" lon="8.5820179"><ele>200.75</ele><time>2026-04-12T10:17:24.191Z</time></trkpt><trkpt lat="45.7240831" lon="8.5821101"><ele>200.5</ele><time>2026-04-12T10:17:25.191Z</time></trkpt><trkpt lat="45.7239661" lon="8.5822047"><ele>200.25</ele><time>2026-04-12T10:17:26.186Z</time></trkpt><trkpt lat="45.7238433" lon="8.5823063"><ele>200.0</ele><time>2026-04-12T10:17:27.17Z</time></trkpt><trkpt lat="45.7237068" lon="8.5824134"><ele>200.0</ele><time>2026-04-12T10:17:28.179Z</time></trkpt><trkpt lat="45.7235686" lon="8.582523"><ele>200.0</ele><time>2026-04-12T10:17:29.214Z</time></trkpt><trkpt lat="45.7234385" lon="8.5826254"><ele>200.0</ele><time>2026-04-12T10:17:30.174Z</time></trkpt><trkpt lat="45.7233192" lon="8.5827227"><ele>200.0</ele><time>2026-04-12T10:17:31.219Z</time></trkpt><trkpt lat="45.7232091" lon="8.582813"><ele>200.5</ele><time>2026-04-12T10:17:32.188Z</time></trkpt><trkpt lat="45.7231026" lon="8.5828981"><ele>201.0</ele><time>2026-04-12T10:17:33.175Z</time></trkpt><trkpt lat="45.7229875" lon="8.5829935"><ele>201.5</ele><time>2026-04-12T10:17:34.214Z</time></trkpt><trkpt lat="45.7228679" lon="8.5830888"><ele>202.0</ele><time>2026-04-12T10:17:35.228Z</time></trkpt><trkpt lat="45.7227465" lon="8.5831878"><ele>202.33333333333331</ele><time>2026-04-12T10:17:36.188Z</time></trkpt><trkpt lat="45.7226187" lon="8.5832873"><ele>202.66666666666669</ele><time>2026-04-12T10:17:37.181Z</time></trkpt><trkpt lat="45.7224848" lon="8.5833932"><ele>203.0</ele><time>2026-04-12T10:17:38.184Z</time></trkpt><trkpt lat="45.7223468" lon="8.5834998"><ele>203.0</ele><time>2026-04-12T10:17:39.217Z</time></trkpt><trkpt lat="45.7222122" lon="8.5836055"><ele>203.0</ele><time>2026-04-12T10:17:40.182Z</time></trkpt><trkpt lat="45.7220746" lon="8.5837104"><ele>203.0</ele><time>2026-04-12T10:17:41.176Z</time></trkpt><trkpt lat="45.7219368" lon="8.5838194"><ele>202.33333333333334</ele><time>2026-04-12T10:17:42.176Z</time></trkpt><trkpt lat="45.7218006" lon="8.5839308"><ele>201.66666666666669</ele><time>2026-04-12T10:17:43.183Z</time></trkpt><trkpt lat="45.7216659" lon="8.5840398"><ele>201.0</ele><time>2026-04-12T10:17:44.189Z</time></trkpt><trkpt lat="45.7215303" lon="8.5841486"><ele>201.0</ele><time>2026-04-12T10:17:45.215Z</time></trkpt><trkpt lat="45.7213956" lon="8.5842676"><ele>201.0</ele><time>2026-04-12T10:17:46.168Z</time></trkpt><trkpt lat="45.7212639" lon="8.584379"><ele>201.0</ele><time>2026-04-12T10:17:47.178Z</time></trkpt><trkpt lat="45.7211403" lon="8.5844898"><ele>201.25</ele><time>2026-04-12T10:17:48.189Z</time></trkpt><trkpt lat="45.7210199" lon="8.5845979"><ele>201.5</ele><time>2026-04-12T10:17:49.185Z</time></trkpt><trkpt lat="45.7209044" lon="8.5847012"><ele>201.75</ele><time>2026-04-12T10:17:50.18Z</time></trkpt><trkpt lat="45.7207998" lon="8.5847916"><ele>202.0</ele><time>2026-04-12T10:17:51.176Z</time></trkpt><trkpt lat="45.7207055" lon="8.5848767"><ele>202.0</ele><time>2026-04-12T10:17:52.175Z</time></trkpt><trkpt lat="45.7206117" lon="8.5849609"><ele>202.0</ele><time>2026-04-12T10:17:53.168Z</time></trkpt><trkpt lat="45.7205161" lon="8.5850471"><ele>202.0</ele><time>2026-04-12T10:17:54.213Z</time></trkpt><trkpt lat="45.7204254" lon="8.5851344"><ele>202.0</ele><time>2026-04-12T10:17:55.183Z</time></trkpt><trkpt lat="45.7203363" lon="8.5852269"><ele>202.0</ele><time>2026-04-12T10:17:56.181Z</time></trkpt><trkpt lat="45.7202491" lon="8.585331"><ele>201.99999999999997</ele><time>2026-04-12T10:17:57.171Z</time></trkpt><trkpt lat="45.7201757" lon="8.5854226"><ele>202.0</ele><time>2026-04-12T10:17:58.173Z</time></trkpt><trkpt lat="45.720112" lon="8.5855073"><ele>202.0</ele><time>2026-04-12T10:17:59.21Z</time></trkpt><trkpt lat="45.7200491" lon="8.5855924"><ele>202.0</ele><time>2026-04-12T10:18:00.168Z</time></trkpt><trkpt lat="45.7199847" lon="8.5856627"><ele>201.99999999999997</ele><time>2026-04-12T10:18:01.181Z</time></trkpt><trkpt lat="45.7199072" lon="8.5857352"><ele>202.0</ele><time>2026-04-12T10:18:02.178Z</time></trkpt><trkpt lat="45.7198249" lon="8.5858023"><ele>201.99999999999997</ele><time>2026-04-12T10:18:03.181Z</time></trkpt><trkpt lat="45.7197598" lon="8.5858807"><ele>202.0</ele><time>2026-04-12T10:18:04.192Z</time></trkpt><trkpt lat="45.719722" lon="8.5859555"><ele>202.0</ele><time>2026-04-12T10:18:05.217Z</time></trkpt><trkpt lat="45.7197038" lon="8.5860632"><ele>202.0</ele><time>2026-04-12T10:18:06.173Z</time></trkpt><trkpt lat="45.7197217" lon="8.5861628"><ele>201.99999999999997</ele><time>2026-04-12T10:18:07.183Z</time></trkpt><trkpt lat="45.7197672" lon="8.5862826"><ele>202.0</ele><time>2026-04-12T10:18:08.18Z</time></trkpt><trkpt lat="45.7198233" lon="8.586427"><ele>202.33333333333331</ele><time>2026-04-12T10:18:09.182Z</time></trkpt><trkpt lat="45.71986" lon="8.5866406"><ele>202.66666666666669</ele><time>2026-04-12T10:18:10.178Z</time></trkpt><trkpt lat="45.7198886" lon="8.5868966"><ele>203.0</ele><time>2026-04-12T10:18:11.184Z</time></trkpt><trkpt lat="45.7198985" lon="8.587148"><ele>203.33333333333334</ele><time>2026-04-12T10:18:12.169Z</time></trkpt><trkpt lat="45.7198992" lon="8.5873935"><ele>203.66666666666669</ele><time>2026-04-12T10:18:13.18Z</time></trkpt><trkpt lat="45.719888" lon="8.5876422"><ele>204.0</ele><time>2026-04-12T10:18:14.191Z</time></trkpt><trkpt lat="45.7198705" lon="8.5878913"><ele>204.0</ele><time>2026-04-12T10:18:15.178Z</time></trkpt><trkpt lat="45.7198512" lon="8.5881372"><ele>204.0</ele><time>2026-04-12T10:18:16.178Z</time></trkpt><trkpt lat="45.7198319" lon="8.588381"><ele>204.0</ele><time>2026-04-12T10:18:17.175Z</time></trkpt><trkpt lat="45.719814" lon="8.5886267"><ele>204.0</ele><time>2026-04-12T10:18:18.181Z</time></trkpt><trkpt lat="45.7197959" lon="8.5888702"><ele>204.0</ele><time>2026-04-12T10:18:19.185Z</time></trkpt><trkpt lat="45.7197812" lon="8.5890955"><ele>204.0</ele><time>2026-04-12T10:18:20.182Z</time></trkpt><trkpt lat="45.7197637" lon="8.5893235"><ele>204.25</ele><time>2026-04-12T10:18:21.177Z</time></trkpt><trkpt lat="45.7197444" lon="8.589525"><ele>204.5</ele><time>2026-04-12T10:18:22.185Z</time></trkpt><trkpt lat="45.719725" lon="8.5897205"><ele>204.75</ele><time>2026-04-12T10:18:23.178Z</time></trkpt><trkpt lat="45.7197076" lon="8.5898996"><ele>205.0</ele><time>2026-04-12T10:18:24.178Z</time></trkpt><trkpt lat="45.7196849" lon="8.590064"><ele>204.99999999999997</ele><time>2026-04-12T10:18:25.178Z</time></trkpt><trkpt lat="45.7196636" lon="8.5902029"><ele>205.0</ele><time>2026-04-12T10:18:26.182Z</time></trkpt><trkpt lat="45.7196421" lon="8.5903178"><ele>205.0</ele><time>2026-04-12T10:18:27.178Z</time></trkpt><trkpt lat="45.7196017" lon="8.5904556"><ele>205.0</ele><time>2026-04-12T10:18:29.19Z</time></trkpt><trkpt lat="45.7195409" lon="8.5905604"><ele>204.99999999999997</ele><time>2026-04-12T10:18:31.179Z</time></trkpt><trkpt lat="45.7194907" lon="8.5906215"><ele>205.0</ele><time>2026-04-12T10:18:32.186Z</time></trkpt><trkpt lat="45.7194215" lon="8.5906994"><ele>205.0</ele><time>2026-04-12T10:18:33.176Z</time></trkpt><trkpt lat="45.7193371" lon="8.5907903"><ele>205.0</ele><time>2026-04-12T10:18:34.182Z</time></trkpt><trkpt lat="45.7192273" lon="8.5908668"><ele>205.0</ele><time>2026-04-12T10:18:35.176Z</time></trkpt><trkpt lat="45.7190801" lon="8.5909074"><ele>205.0</ele><time>2026-04-12T10:18:36.193Z</time></trkpt><trkpt lat="45.7189227" lon="8.5909424"><ele>205.0</ele><time>2026-04-12T10:18:37.18Z</time></trkpt><trkpt lat="45.7187798" lon="8.5909692"><ele>205.0</ele><time>2026-04-12T10:18:38.186Z</time></trkpt><trkpt lat="45.7186413" lon="8.5909934"><ele>205.0</ele><time>2026-04-12T10:18:39.186Z</time></trkpt><trkpt lat="45.7185015" lon="8.5910186"><ele>205.0</ele><time>2026-04-12T10:18:40.222Z</time></trkpt><trkpt lat="45.7183678" lon="8.5910492"><ele>205.25</ele><time>2026-04-12T10:18:41.176Z</time></trkpt><trkpt lat="45.71823" lon="8.5910857"><ele>205.5</ele><time>2026-04-12T10:18:42.174Z</time></trkpt><trkpt lat="45.7180895" lon="8.5911201"><ele>205.75</ele><time>2026-04-12T10:18:43.177Z</time></trkpt><trkpt lat="45.7179468" lon="8.5911596"><ele>206.0</ele><time>2026-04-12T10:18:44.18Z</time></trkpt><trkpt lat="45.717805" lon="8.5911979"><ele>207.25</ele><time>2026-04-12T10:18:45.176Z</time></trkpt><trkpt lat="45.7176625" lon="8.5912364"><ele>208.5</ele><time>2026-04-12T10:18:46.214Z</time></trkpt><trkpt lat="45.7175236" lon="8.5912743"><ele>209.75</ele><time>2026-04-12T10:18:47.185Z</time></trkpt><trkpt lat="45.7173884" lon="8.5913114"><ele>211.0</ele><time>2026-04-12T10:18:48.186Z</time></trkpt><trkpt lat="45.7172531" lon="8.5913468"><ele>211.0</ele><time>2026-04-12T10:18:49.192Z</time></trkpt><trkpt lat="45.7171159" lon="8.5913847"><ele>211.0</ele><time>2026-04-12T10:18:50.19Z</time></trkpt><trkpt lat="45.7169784" lon="8.5914241"><ele>211.0</ele><time>2026-04-12T10:18:51.214Z</time></trkpt><trkpt lat="45.7168437" lon="8.5914561"><ele>211.0</ele><time>2026-04-12T10:18:52.175Z</time></trkpt><trkpt lat="45.7167121" lon="8.5914914"><ele>210.25</ele><time>2026-04-12T10:18:53.172Z</time></trkpt><trkpt lat="45.7165742" lon="8.5915274"><ele>209.5</ele><time>2026-04-12T10:18:54.188Z</time></trkpt><trkpt lat="45.7164364" lon="8.5915617"><ele>208.75</ele><time>2026-04-12T10:18:55.181Z</time></trkpt><trkpt lat="45.7162985" lon="8.5916015"><ele>208.0</ele><time>2026-04-12T10:18:56.219Z</time></trkpt><trkpt lat="45.7161595" lon="8.5916268"><ele>208.25</ele><time>2026-04-12T10:18:57.177Z</time></trkpt><trkpt lat="45.7160251" lon="8.5916659"><ele>208.5</ele><time>2026-04-12T10:18:58.174Z</time></trkpt><trkpt lat="45.715888" lon="8.5917025"><ele>208.75</ele><time>2026-04-12T10:18:59.177Z</time></trkpt><trkpt lat="45.7157496" lon="8.5917424"><ele>209.0</ele><time>2026-04-12T10:19:00.175Z</time></trkpt><trkpt lat="45.7156114" lon="8.591783"><ele>209.0</ele><time>2026-04-12T10:19:01.171Z</time></trkpt><trkpt lat="45.7154736" lon="8.5918181"><ele>209.0</ele><time>2026-04-12T10:19:02.163Z</time></trkpt><trkpt lat="45.7153349" lon="8.5918563"><ele>209.0</ele><time>2026-04-12T10:19:03.179Z</time></trkpt><trkpt lat="45.7152" lon="8.5918871"><ele>209.0</ele><time>2026-04-12T10:19:04.166Z</time></trkpt><trkpt lat="45.7150613" lon="8.5919115"><ele>209.5</ele><time>2026-04-12T10:19:05.178Z</time></trkpt><trkpt lat="45.7149205" lon="8.5919214"><ele>210.0</ele><time>2026-04-12T10:19:06.181Z</time></trkpt><trkpt lat="45.7147809" lon="8.5919221"><ele>210.5</ele><time>2026-04-12T10:19:07.182Z</time></trkpt><trkpt lat="45.714641" lon="8.5919126"><ele>211.0</ele><time>2026-04-12T10:19:08.172Z</time></trkpt><trkpt lat="45.7145005" lon="8.5918945"><ele>211.0</ele><time>2026-04-12T10:19:09.174Z</time></trkpt><trkpt lat="45.71436" lon="8.5918649"><ele>211.0</ele><time>2026-04-12T10:19:10.179Z</time></trkpt><trkpt lat="45.7142179" lon="8.5918262"><ele>211.0</ele><time>2026-04-12T10:19:11.177Z</time></trkpt><trkpt lat="45.7140773" lon="8.5917831"><ele>211.0</ele><time>2026-04-12T10:19:12.18Z</time></trkpt><trkpt lat="45.7139351" lon="8.5917343"><ele>211.0</ele><time>2026-04-12T10:19:13.18Z</time></trkpt><trkpt lat="45.7138" lon="8.5916737"><ele>211.0</ele><time>2026-04-12T10:19:14.18Z</time></trkpt><trkpt lat="45.7136619" lon="8.5916079"><ele>211.0</ele><time>2026-04-12T10:19:15.191Z</time></trkpt><trkpt lat="45.7135215" lon="8.5915492"><ele>211.0</ele><time>2026-04-12T10:19:16.219Z</time></trkpt><trkpt lat="45.7133789" lon="8.5914931"><ele>210.75</ele><time>2026-04-12T10:19:17.175Z</time></trkpt><trkpt lat="45.7132343" lon="8.5914332"><ele>210.5</ele><time>2026-04-12T10:19:18.184Z</time></trkpt><trkpt lat="45.7130949" lon="8.5913762"><ele>210.25</ele><time>2026-04-12T10:19:19.182Z</time></trkpt><trkpt lat="45.7129582" lon="8.5913163"><ele>210.0</ele><time>2026-04-12T10:19:20.22Z</time></trkpt><trkpt lat="45.7128175" lon="8.5912592"><ele>210.0</ele><time>2026-04-12T10:19:21.215Z</time></trkpt><trkpt lat="45.7126771" lon="8.5912021"><ele>210.0</ele><time>2026-04-12T10:19:22.176Z</time></trkpt><trkpt lat="45.7125395" lon="8.5911445"><ele>210.0</ele><time>2026-04-12T10:19:23.179Z</time></trkpt><trkpt lat="45.712398" lon="8.5910848"><ele>210.0</ele><time>2026-04-12T10:19:24.195Z</time></trkpt><trkpt lat="45.7122587" lon="8.591025"><ele>210.75</ele><time>2026-04-12T10:19:25.174Z</time></trkpt><trkpt lat="45.7121221" lon="8.5909685"><ele>211.5</ele><time>2026-04-12T10:19:26.183Z</time></trkpt><trkpt lat="45.7119826" lon="8.5909161"><ele>212.25</ele><time>2026-04-12T10:19:27.179Z</time></trkpt><trkpt lat="45.7118475" lon="8.5908558"><ele>213.0</ele><time>2026-04-12T10:19:28.182Z</time></trkpt><trkpt lat="45.7117105" lon="8.5907961"><ele>214.25</ele><time>2026-04-12T10:19:29.179Z</time></trkpt><trkpt lat="45.7115763" lon="8.5907391"><ele>215.5</ele><time>2026-04-12T10:19:30.177Z</time></trkpt><trkpt lat="45.711441" lon="8.590685"><ele>216.75</ele><time>2026-04-12T10:19:31.178Z</time></trkpt><trkpt lat="45.7113051" lon="8.5906317"><ele>218.0</ele><time>2026-04-12T10:19:32.187Z</time></trkpt><trkpt lat="45.7111635" lon="8.5905746"><ele>218.33333333333334</ele><time>2026-04-12T10:19:33.179Z</time></trkpt><trkpt lat="45.7110176" lon="8.5905111"><ele>218.66666666666669</ele><time>2026-04-12T10:19:34.188Z</time></trkpt><trkpt lat="45.7108702" lon="8.5904363"><ele>219.0</ele><time>2026-04-12T10:19:35.19Z</time></trkpt><trkpt lat="45.7107176" lon="8.5903465"><ele>218.66666666666669</ele><time>2026-04-12T10:19:36.179Z</time></trkpt><trkpt lat="45.7105597" lon="8.5902251"><ele>218.33333333333334</ele><time>2026-04-12T10:19:37.178Z</time></trkpt><trkpt lat="45.7103918" lon="8.5900773"><ele>218.0</ele><time>2026-04-12T10:19:38.17Z</time></trkpt><trkpt lat="45.7102282" lon="8.589931"><ele>218.0</ele><time>2026-04-12T10:19:39.22Z</time></trkpt><trkpt lat="45.7100786" lon="8.5897947"><ele>218.0</ele><time>2026-04-12T10:19:40.186Z</time></trkpt><trkpt lat="45.7099293" lon="8.5896593"><ele>218.0</ele><time>2026-04-12T10:19:41.18Z</time></trkpt><trkpt lat="45.7097705" lon="8.5895208"><ele>219.33333333333334</ele><time>2026-04-12T10:19:42.174Z</time></trkpt><trkpt lat="45.7096076" lon="8.5893758"><ele>220.66666666666669</ele><time>2026-04-12T10:19:43.184Z</time></trkpt><trkpt lat="45.7094321" lon="8.5892296"><ele>222.0</ele><time>2026-04-12T10:19:44.193Z</time></trkpt><trkpt lat="45.7092555" lon="8.589072"><ele>223.0</ele><time>2026-04-12T10:19:45.181Z</time></trkpt><trkpt lat="45.7090787" lon="8.5889175"><ele>224.0</ele><time>2026-04-12T10:19:46.22Z</time></trkpt><trkpt lat="45.7089051" lon="8.5887596"><ele>225.0</ele><time>2026-04-12T10:19:47.179Z</time></trkpt><trkpt lat="45.7087357" lon="8.5885944"><ele>227.0</ele><time>2026-04-12T10:19:48.188Z</time></trkpt><trkpt lat="45.708558" lon="8.5884387"><ele>229.0</ele><time>2026-04-12T10:19:49.177Z</time></trkpt><trkpt lat="45.7083877" lon="8.5882857"><ele>231.0</ele><time>2026-04-12T10:19:50.179Z</time></trkpt><trkpt lat="45.7082192" lon="8.5881356"><ele>231.0</ele><time>2026-04-12T10:19:51.192Z</time></trkpt><trkpt lat="45.7080508" lon="8.5879907"><ele>231.0</ele><time>2026-04-12T10:19:52.178Z</time></trkpt><trkpt lat="45.7078851" lon="8.5878524"><ele>231.0</ele><time>2026-04-12T10:19:53.174Z</time></trkpt><trkpt lat="45.7077105" lon="8.5877371"><ele>233.0</ele><time>2026-04-12T10:19:54.213Z</time></trkpt><trkpt lat="45.7075304" lon="8.5876433"><ele>235.0</ele><time>2026-04-12T10:19:55.209Z</time></trkpt><trkpt lat="45.7073446" lon="8.5875788"><ele>237.0</ele><time>2026-04-12T10:19:56.179Z</time></trkpt><trkpt lat="45.7071533" lon="8.5875293"><ele>237.0</ele><time>2026-04-12T10:19:57.175Z</time></trkpt><trkpt lat="45.7069657" lon="8.5874907"><ele>237.0</ele><time>2026-04-12T10:19:58.18Z</time></trkpt><trkpt lat="45.7067808" lon="8.5874543"><ele>237.0</ele><time>2026-04-12T10:19:59.188Z</time></trkpt><trkpt lat="45.7065906" lon="8.5874207"><ele>235.0</ele><time>2026-04-12T10:20:00.18Z</time></trkpt><trkpt lat="45.7063974" lon="8.5873875"><ele>233.0</ele><time>2026-04-12T10:20:01.175Z</time></trkpt><trkpt lat="45.7062084" lon="8.5873539"><ele>231.0</ele><time>2026-04-12T10:20:02.167Z</time></trkpt><trkpt lat="45.7060217" lon="8.5873175"><ele>231.0</ele><time>2026-04-12T10:20:03.183Z</time></trkpt><trkpt lat="45.7058454" lon="8.5872836"><ele>231.0</ele><time>2026-04-12T10:20:04.212Z</time></trkpt><trkpt lat="45.7056749" lon="8.5872497"><ele>231.0</ele><time>2026-04-12T10:20:05.225Z</time></trkpt><trkpt lat="45.705507" lon="8.5872186"><ele>231.0</ele><time>2026-04-12T10:20:06.213Z</time></trkpt><trkpt lat="45.7053645" lon="8.5872015"><ele>231.0</ele><time>2026-04-12T10:20:07.177Z</time></trkpt><trkpt lat="45.7052228" lon="8.587179"><ele>231.0</ele><time>2026-04-12T10:20:08.162Z</time></trkpt><trkpt lat="45.7050895" lon="8.5871547"><ele>231.0</ele><time>2026-04-12T10:20:09.214Z</time></trkpt><trkpt lat="45.7049722" lon="8.5871294"><ele>231.0</ele><time>2026-04-12T10:20:10.188Z</time></trkpt><trkpt lat="45.7048362" lon="8.5871288"><ele>231.0</ele><time>2026-04-12T10:20:11.215Z</time></trkpt><trkpt lat="45.7046928" lon="8.5871493"><ele>231.0</ele><time>2026-04-12T10:20:12.18Z</time></trkpt><trkpt lat="45.704558" lon="8.5872104"><ele>231.0</ele><time>2026-04-12T10:20:13.19Z</time></trkpt><trkpt lat="45.7044361" lon="8.5873069"><ele>231.33333333333331</ele><time>2026-04-12T10:20:14.178Z</time></trkpt><trkpt lat="45.7043283" lon="8.5874442"><ele>231.66666666666666</ele><time>2026-04-12T10:20:15.178Z</time></trkpt><trkpt lat="45.7042346" lon="8.587614"><ele>232.0</ele><time>2026-04-12T10:20:16.22Z</time></trkpt><trkpt lat="45.7041446" lon="8.5878086"><ele>232.66666666666666</ele><time>2026-04-12T10:20:17.187Z</time></trkpt><trkpt lat="45.7040444" lon="8.5880003"><ele>233.33333333333331</ele><time>2026-04-12T10:20:18.18Z</time></trkpt><trkpt lat="45.7039147" lon="8.588192"><ele>234.0</ele><time>2026-04-12T10:20:19.187Z</time></trkpt><trkpt lat="45.7037519" lon="8.5883968"><ele>237.0</ele><time>2026-04-12T10:20:20.176Z</time></trkpt><trkpt lat="45.7035788" lon="8.5885991"><ele>240.0</ele><time>2026-04-12T10:20:21.198Z</time></trkpt><trkpt lat="45.7033867" lon="8.5888099"><ele>240.5</ele><time>2026-04-12T10:20:22.176Z</time></trkpt><trkpt lat="45.7031665" lon="8.5890342"><ele>241.0</ele><time>2026-04-12T10:20:23.179Z</time></trkpt><trkpt lat="45.7029644" lon="8.5892544"><ele>241.0</ele><time>2026-04-12T10:20:24.184Z</time></trkpt><trkpt lat="45.7027626" lon="8.5894754"><ele>241.0</ele><time>2026-04-12T10:20:25.182Z</time></trkpt><trkpt lat="45.7025824" lon="8.5896889"><ele>243.33333333333331</ele><time>2026-04-12T10:20:26.219Z</time></trkpt><trkpt lat="45.7024275" lon="8.5898994"><ele>245.66666666666669</ele><time>2026-04-12T10:20:27.179Z</time></trkpt><trkpt lat="45.7022912" lon="8.590109"><ele>248.0</ele><time>2026-04-12T10:20:28.178Z</time></trkpt><trkpt lat="45.7021726" lon="8.590307"><ele>247.0</ele><time>2026-04-12T10:20:29.222Z</time></trkpt><trkpt lat="45.7020826" lon="8.5904923"><ele>246.0</ele><time>2026-04-12T10:20:30.191Z</time></trkpt><trkpt lat="45.7020131" lon="8.5906831"><ele>245.0</ele><time>2026-04-12T10:20:31.182Z</time></trkpt><trkpt lat="45.7019615" lon="8.5908521"><ele>244.0</ele><time>2026-04-12T10:20:32.185Z</time></trkpt><trkpt lat="45.7019191" lon="8.5909788"><ele>245.39999999999998</ele><time>2026-04-12T10:20:33.182Z</time></trkpt><trkpt lat="45.7018704" lon="8.5911125"><ele>246.79999999999998</ele><time>2026-04-12T10:20:34.188Z</time></trkpt><trkpt lat="45.7018323" lon="8.5912364"><ele>248.20000000000002</ele><time>2026-04-12T10:20:35.181Z</time></trkpt><trkpt lat="45.7018114" lon="8.5913486"><ele>249.60000000000002</ele><time>2026-04-12T10:20:36.187Z</time></trkpt><trkpt lat="45.7018177" lon="8.5914675"><ele>251.0</ele><time>2026-04-12T10:20:37.179Z</time></trkpt><trkpt lat="45.7018537" lon="8.5915805"><ele>249.0</ele><time>2026-04-12T10:20:38.183Z</time></trkpt><trkpt lat="45.7019258" lon="8.5916906"><ele>247.0</ele><time>2026-04-12T10:20:39.193Z</time></trkpt><trkpt lat="45.7020151" lon="8.5917879"><ele>245.0</ele><time>2026-04-12T10:20:40.21Z</time></trkpt><trkpt lat="45.7020987" lon="8.5918991"><ele>243.0</ele><time>2026-04-12T10:20:41.178Z</time></trkpt><trkpt lat="45.702175" lon="8.5920581"><ele>243.0</ele><time>2026-04-12T10:20:42.174Z</time></trkpt><trkpt lat="45.7022351" lon="8.5922647"><ele>243.0</ele><time>2026-04-12T10:20:43.22Z</time></trkpt><trkpt lat="45.7022907" lon="8.5924993"><ele>243.0</ele><time>2026-04-12T10:20:44.197Z</time></trkpt><trkpt lat="45.7023407" lon="8.5927554"><ele>243.66666666666669</ele><time>2026-04-12T10:20:45.188Z</time></trkpt><trkpt lat="45.702369" lon="8.5930142"><ele>244.33333333333334</ele><time>2026-04-12T10:20:46.163Z</time></trkpt><trkpt lat="45.7023854" lon="8.5932701"><ele>245.0</ele><time>2026-04-12T10:20:47.176Z</time></trkpt><trkpt lat="45.7023948" lon="8.5935065"><ele>245.0</ele><time>2026-04-12T10:20:48.18Z</time></trkpt><trkpt lat="45.7023925" lon="8.5937288"><ele>245.0</ele><time>2026-04-12T10:20:49.179Z</time></trkpt><trkpt lat="45.7023817" lon="8.5939378"><ele>245.0</ele><time>2026-04-12T10:20:50.218Z</time></trkpt><trkpt lat="45.7023633" lon="8.5941452"><ele>245.0</ele><time>2026-04-12T10:20:51.185Z</time></trkpt><trkpt lat="45.7023421" lon="8.5943417"><ele>244.75</ele><time>2026-04-12T10:20:52.172Z</time></trkpt><trkpt lat="45.702316" lon="8.594527"><ele>244.5</ele><time>2026-04-12T10:20:53.182Z</time></trkpt><trkpt lat="45.7022814" lon="8.5947077"><ele>244.25</ele><time>2026-04-12T10:20:54.184Z</time></trkpt><trkpt lat="45.702247" lon="8.5948661"><ele>244.0</ele><time>2026-04-12T10:20:55.218Z</time></trkpt><trkpt lat="45.7021992" lon="8.5950425"><ele>244.0</ele><time>2026-04-12T10:20:56.216Z</time></trkpt><trkpt lat="45.7021419" lon="8.5952459"><ele>244.0</ele><time>2026-04-12T10:20:57.177Z</time></trkpt><trkpt lat="45.7020708" lon="8.595477"><ele>244.0</ele><time>2026-04-12T10:20:58.179Z</time></trkpt><trkpt lat="45.7019858" lon="8.5957352"><ele>245.5</ele><time>2026-04-12T10:20:59.186Z</time></trkpt><trkpt lat="45.7018828" lon="8.5960376"><ele>247.0</ele><time>2026-04-12T10:21:00.195Z</time></trkpt><trkpt lat="45.701749" lon="8.5963737"><ele>247.0</ele><time>2026-04-12T10:21:01.187Z</time></trkpt><trkpt lat="45.7015999" lon="8.5967449"><ele>247.0</ele><time>2026-04-12T10:21:02.173Z</time></trkpt><trkpt lat="45.7014418" lon="8.597157"><ele>245.0</ele><time>2026-04-12T10:21:03.177Z</time></trkpt><trkpt lat="45.7012783" lon="8.5975865"><ele>243.0</ele><time>2026-04-12T10:21:04.19Z</time></trkpt><trkpt lat="45.7011144" lon="8.5980352"><ele>243.5</ele><time>2026-04-12T10:21:05.182Z</time></trkpt><trkpt lat="45.7009561" lon="8.5984943"><ele>244.0</ele><time>2026-04-12T10:21:06.182Z</time></trkpt><trkpt lat="45.7008036" lon="8.5990085"><ele>242.0</ele><time>2026-04-12T10:21:07.184Z</time></trkpt><trkpt lat="45.7006611" lon="8.5995164"><ele>240.0</ele><time>2026-04-12T10:21:08.178Z</time></trkpt><trkpt lat="45.7005332" lon="8.6000383"><ele>240.5</ele><time>2026-04-12T10:21:09.178Z</time></trkpt><trkpt lat="45.7004149" lon="8.6005416"><ele>241.0</ele><time>2026-04-12T10:21:10.179Z</time></trkpt><trkpt lat="45.7003076" lon="8.6010004"><ele>241.0</ele><time>2026-04-12T10:21:11.211Z</time></trkpt><trkpt lat="45.7001982" lon="8.6014405"><ele>241.0</ele><time>2026-04-12T10:21:12.175Z</time></trkpt><trkpt lat="45.7000757" lon="8.6018678"><ele>241.5</ele><time>2026-04-12T10:21:13.186Z</time></trkpt><trkpt lat="45.6999463" lon="8.602281"><ele>242.0</ele><time>2026-04-12T10:21:14.177Z</time></trkpt><trkpt lat="45.699799" lon="8.6026956"><ele>243.0</ele><time>2026-04-12T10:21:15.179Z</time></trkpt><trkpt lat="45.6996371" lon="8.603118"><ele>244.0</ele><time>2026-04-12T10:21:16.217Z</time></trkpt><trkpt lat="45.6994742" lon="8.6035333"><ele>247.0</ele><time>2026-04-12T10:21:17.171Z</time></trkpt><trkpt lat="45.6993106" lon="8.6039355"><ele>250.0</ele><time>2026-04-12T10:21:18.175Z</time></trkpt><trkpt lat="45.699148" lon="8.6043195"><ele>249.5</ele><time>2026-04-12T10:21:19.173Z</time></trkpt><trkpt lat="45.6989835" lon="8.6046861"><ele>249.0</ele><time>2026-04-12T10:21:20.177Z</time></trkpt><trkpt lat="45.6988132" lon="8.6050358"><ele>249.5</ele><time>2026-04-12T10:21:21.18Z</time></trkpt><trkpt lat="45.6986338" lon="8.6053657"><ele>250.0</ele><time>2026-04-12T10:21:22.181Z</time></trkpt><trkpt lat="45.6984471" lon="8.6056853"><ele>251.0</ele><time>2026-04-12T10:21:23.19Z</time></trkpt><trkpt lat="45.6982575" lon="8.6059873"><ele>252.0</ele><time>2026-04-12T10:21:24.183Z</time></trkpt><trkpt lat="45.698066" lon="8.6062655"><ele>252.5</ele><time>2026-04-12T10:21:25.18Z</time></trkpt><trkpt lat="45.697884" lon="8.6065129"><ele>253.0</ele><time>2026-04-12T10:21:26.175Z</time></trkpt><trkpt lat="45.6977092" lon="8.6067384"><ele>252.33333333333331</ele><time>2026-04-12T10:21:27.179Z</time></trkpt><trkpt lat="45.6975555" lon="8.6069276"><ele>251.66666666666669</ele><time>2026-04-12T10:21:28.185Z</time></trkpt><trkpt lat="45.6974138" lon="8.6070942"><ele>251.0</ele><time>2026-04-12T10:21:29.219Z</time></trkpt><trkpt lat="45.6972922" lon="8.6072265"><ele>251.0</ele><time>2026-04-12T10:21:30.17Z</time></trkpt><trkpt lat="45.6971829" lon="8.6073351"><ele>251.00000000000003</ele><time>2026-04-12T10:21:31.184Z</time></trkpt><trkpt lat="45.697092" lon="8.6074192"><ele>251.00000000000003</ele><time>2026-04-12T10:21:32.19Z</time></trkpt><trkpt lat="45.6970048" lon="8.6074788"><ele>251.0</ele><time>2026-04-12T10:21:33.178Z</time></trkpt><trkpt lat="45.6969187" lon="8.6075132"><ele>251.0</ele><time>2026-04-12T10:21:34.18Z</time></trkpt><trkpt lat="45.6968234" lon="8.6075217"><ele>251.0</ele><time>2026-04-12T10:21:35.215Z</time></trkpt><trkpt lat="45.69672" lon="8.6075138"><ele>251.00000000000003</ele><time>2026-04-12T10:21:36.216Z</time></trkpt><trkpt lat="45.696624" lon="8.6075412"><ele>251.00000000000003</ele><time>2026-04-12T10:21:37.178Z</time></trkpt><trkpt lat="45.6965411" lon="8.607608"><ele>251.0</ele><time>2026-04-12T10:21:38.178Z</time></trkpt><trkpt lat="45.6964709" lon="8.6077183"><ele>251.0</ele><time>2026-04-12T10:21:39.186Z</time></trkpt><trkpt lat="45.6964114" lon="8.6078532"><ele>251.0</ele><time>2026-04-12T10:21:40.179Z</time></trkpt><trkpt lat="45.6963291" lon="8.6079861"><ele>251.0</ele><time>2026-04-12T10:21:41.212Z</time></trkpt><trkpt lat="45.6962209" lon="8.6081118"><ele>251.0</ele><time>2026-04-12T10:21:42.181Z</time></trkpt><trkpt lat="45.6960741" lon="8.6082648"><ele>251.0</ele><time>2026-04-12T10:21:43.18Z</time></trkpt><trkpt lat="45.695916" lon="8.6084011"><ele>251.0</ele><time>2026-04-12T10:21:44.188Z</time></trkpt><trkpt lat="45.6956719" lon="8.6085816"><ele>251.0</ele><time>2026-04-12T10:21:45.191Z</time></trkpt><trkpt lat="45.6954187" lon="8.6087444"><ele>251.0</ele><time>2026-04-12T10:21:46.191Z</time></trkpt><trkpt lat="45.6951713" lon="8.6089056"><ele>251.0</ele><time>2026-04-12T10:21:47.183Z</time></trkpt><trkpt lat="45.6949412" lon="8.6090669"><ele>251.0</ele><time>2026-04-12T10:21:48.18Z</time></trkpt><trkpt lat="45.6947302" lon="8.6092223"><ele>251.0</ele><time>2026-04-12T10:21:49.176Z</time></trkpt><trkpt lat="45.6945311" lon="8.6093705"><ele>251.0</ele><time>2026-04-12T10:21:50.17Z</time></trkpt><trkpt lat="45.6943489" lon="8.6095002"><ele>251.0</ele><time>2026-04-12T10:21:51.192Z</time></trkpt><trkpt lat="45.6941818" lon="8.6096239"><ele>251.0</ele><time>2026-04-12T10:21:52.17Z</time></trkpt><trkpt lat="45.6940271" lon="8.6097426"><ele>251.0</ele><time>2026-04-12T10:21:53.179Z</time></trkpt><trkpt lat="45.6938789" lon="8.6098503"><ele>251.0</ele><time>2026-04-12T10:21:54.192Z</time></trkpt><trkpt lat="45.6937429" lon="8.6099525"><ele>251.0</ele><time>2026-04-12T10:21:55.189Z</time></trkpt><trkpt lat="45.6936124" lon="8.6100522"><ele>251.5</ele><time>2026-04-12T10:21:56.179Z</time></trkpt><trkpt lat="45.69349" lon="8.610146"><ele>252.0</ele><time>2026-04-12T10:21:57.179Z</time></trkpt><trkpt lat="45.6933789" lon="8.6102259"><ele>252.5</ele><time>2026-04-12T10:21:58.219Z</time></trkpt><trkpt lat="45.6932696" lon="8.6102831"><ele>253.0</ele><time>2026-04-12T10:21:59.174Z</time></trkpt><trkpt lat="45.693164" lon="8.6102914"><ele>253.0</ele><time>2026-04-12T10:22:00.218Z</time></trkpt><trkpt lat="45.6930621" lon="8.6102968"><ele>253.0</ele><time>2026-04-12T10:22:01.222Z</time></trkpt><trkpt lat="45.6929725" lon="8.6103435"><ele>253.0</ele><time>2026-04-12T10:22:02.177Z</time></trkpt><trkpt lat="45.6928997" lon="8.6104285"><ele>253.0</ele><time>2026-04-12T10:22:03.18Z</time></trkpt><trkpt lat="45.692845" lon="8.6105601"><ele>253.0</ele><time>2026-04-12T10:22:04.216Z</time></trkpt><trkpt lat="45.6927987" lon="8.6107301"><ele>251.66666666666666</ele><time>2026-04-12T10:22:05.182Z</time></trkpt><trkpt lat="45.6927281" lon="8.6109202"><ele>250.33333333333331</ele><time>2026-04-12T10:22:06.178Z</time></trkpt><trkpt lat="45.6926246" lon="8.6111305"><ele>249.0</ele><time>2026-04-12T10:22:07.179Z</time></trkpt><trkpt lat="45.6924924" lon="8.6113766"><ele>248.5</ele><time>2026-04-12T10:22:08.177Z</time></trkpt><trkpt lat="45.6923481" lon="8.6116413"><ele>248.0</ele><time>2026-04-12T10:22:09.224Z</time></trkpt><trkpt lat="45.6921991" lon="8.6119495"><ele>248.5</ele><time>2026-04-12T10:22:10.184Z</time></trkpt><trkpt lat="45.692053" lon="8.6122701"><ele>249.0</ele><time>2026-04-12T10:22:11.187Z</time></trkpt><trkpt lat="45.691921" lon="8.6125687"><ele>249.5</ele><time>2026-04-12T10:22:12.173Z</time></trkpt><trkpt lat="45.6917865" lon="8.6128812"><ele>250.0</ele><time>2026-04-12T10:22:13.19Z</time></trkpt><trkpt lat="45.6916445" lon="8.6132111"><ele>250.0</ele><time>2026-04-12T10:22:14.194Z</time></trkpt><trkpt lat="45.6914998" lon="8.6135414"><ele>250.0</ele><time>2026-04-12T10:22:15.21Z</time></trkpt><trkpt lat="45.6913494" lon="8.6138806"><ele>250.0</ele><time>2026-04-12T10:22:16.216Z</time></trkpt><trkpt lat="45.6912033" lon="8.6142098"><ele>250.0</ele><time>2026-04-12T10:22:17.171Z</time></trkpt><trkpt lat="45.6910679" lon="8.6145258"><ele>252.0</ele><time>2026-04-12T10:22:18.185Z</time></trkpt><trkpt lat="45.690938" lon="8.6148308"><ele>254.0</ele><time>2026-04-12T10:22:19.187Z</time></trkpt><trkpt lat="45.6908082" lon="8.6151241"><ele>254.5</ele><time>2026-04-12T10:22:20.224Z</time></trkpt><trkpt lat="45.6906741" lon="8.6153999"><ele>255.0</ele><time>2026-04-12T10:22:21.214Z</time></trkpt><trkpt lat="45.6905232" lon="8.6156699"><ele>255.0</ele><time>2026-04-12T10:22:22.175Z</time></trkpt><trkpt lat="45.6903509" lon="8.6159374"><ele>255.0</ele><time>2026-04-12T10:22:23.18Z</time></trkpt><trkpt lat="45.6901579" lon="8.6161887"><ele>261.5</ele><time>2026-04-12T10:22:24.166Z</time></trkpt><trkpt lat="45.6899474" lon="8.616408"><ele>268.0</ele><time>2026-04-12T10:22:25.182Z</time></trkpt><trkpt lat="45.6897184" lon="8.6165972"><ele>268.0</ele><time>2026-04-12T10:22:26.188Z</time></trkpt><trkpt lat="45.6894884" lon="8.6167692"><ele>268.0</ele><time>2026-04-12T10:22:27.168Z</time></trkpt><trkpt lat="45.6892479" lon="8.6169245"><ele>280.0</ele><time>2026-04-12T10:22:28.179Z</time></trkpt><trkpt lat="45.6890092" lon="8.6170424"><ele>292.0</ele><time>2026-04-12T10:22:29.178Z</time></trkpt><trkpt lat="45.6887797" lon="8.617171"><ele>294.0</ele><time>2026-04-12T10:22:30.184Z</time></trkpt><trkpt lat="45.6885055" lon="8.6171806"><ele>296.0</ele><time>2026-04-12T10:22:31.18Z</time></trkpt><trkpt lat="45.6882367" lon="8.6170268"><ele>298.0</ele><time>2026-04-12T10:22:32.184Z</time></trkpt><trkpt lat="45.6879713" lon="8.6168883"><ele>300.0</ele><time>2026-04-12T10:22:33.184Z</time></trkpt><trkpt lat="45.6877049" lon="8.6167557"><ele>300.0</ele><time>2026-04-12T10:22:34.227Z</time></trkpt><trkpt lat="45.6874348" lon="8.6166"><ele>300.0</ele><time>2026-04-12T10:22:35.183Z</time></trkpt><trkpt lat="45.6871866" lon="8.6164011"><ele>300.0</ele><time>2026-04-12T10:22:36.188Z</time></trkpt><trkpt lat="45.6869627" lon="8.6162109"><ele>300.0</ele><time>2026-04-12T10:22:37.171Z</time></trkpt><trkpt lat="45.6867358" lon="8.6160313"><ele>300.0</ele><time>2026-04-12T10:22:38.182Z</time></trkpt><trkpt lat="45.6865096" lon="8.6158504"><ele>300.0</ele><time>2026-04-12T10:22:39.186Z</time></trkpt><trkpt lat="45.6862582" lon="8.6156821"><ele>298.0</ele><time>2026-04-12T10:22:40.182Z</time></trkpt><trkpt lat="45.6859938" lon="8.6155421"><ele>296.0</ele><time>2026-04-12T10:22:41.214Z</time></trkpt><trkpt lat="45.6857064" lon="8.6154504"><ele>296.0</ele><time>2026-04-12T10:22:42.188Z</time></trkpt><trkpt lat="45.6854104" lon="8.6153914"><ele>296.0</ele><time>2026-04-12T10:22:43.181Z</time></trkpt><trkpt lat="45.6850942" lon="8.615374"><ele>296.0</ele><time>2026-04-12T10:22:44.216Z</time></trkpt><trkpt lat="45.6847669" lon="8.6153863"><ele>296.0</ele><time>2026-04-12T10:22:45.179Z</time></trkpt><trkpt lat="45.6844428" lon="8.6154215"><ele>295.5</ele><time>2026-04-12T10:22:46.215Z</time></trkpt><trkpt lat="45.6841277" lon="8.6154521"><ele>295.0</ele><time>2026-04-12T10:22:47.179Z</time></trkpt><trkpt lat="45.6838294" lon="8.6154872"><ele>293.0</ele><time>2026-04-12T10:22:48.185Z</time></trkpt><trkpt lat="45.6835376" lon="8.6155152"><ele>291.0</ele><time>2026-04-12T10:22:49.218Z</time></trkpt><trkpt lat="45.6832595" lon="8.6155362"><ele>291.0</ele><time>2026-04-12T10:22:50.218Z</time></trkpt><trkpt lat="45.6829959" lon="8.6155491"><ele>291.0</ele><time>2026-04-12T10:22:51.186Z</time></trkpt><trkpt lat="45.6827246" lon="8.6155533"><ele>288.0</ele><time>2026-04-12T10:22:52.178Z</time></trkpt><trkpt lat="45.6824503" lon="8.6155447"><ele>285.0</ele><time>2026-04-12T10:22:53.179Z</time></trkpt><trkpt lat="45.6821724" lon="8.6155081"><ele>285.5</ele><time>2026-04-12T10:22:54.186Z</time></trkpt><trkpt lat="45.6818891" lon="8.6154422"><ele>286.0</ele><time>2026-04-12T10:22:55.181Z</time></trkpt><trkpt lat="45.6816095" lon="8.6153527"><ele>285.5</ele><time>2026-04-12T10:22:56.218Z</time></trkpt><trkpt lat="45.681325" lon="8.6152389"><ele>285.0</ele><time>2026-04-12T10:22:57.185Z</time></trkpt><trkpt lat="45.6810508" lon="8.6150965"><ele>285.0</ele><time>2026-04-12T10:22:58.183Z</time></trkpt><trkpt lat="45.6807853" lon="8.6149376"><ele>285.0</ele><time>2026-04-12T10:22:59.195Z</time></trkpt><trkpt lat="45.6805244" lon="8.6147614"><ele>285.0</ele><time>2026-04-12T10:23:00.181Z</time></trkpt><trkpt lat="45.6802761" lon="8.6145286"><ele>285.0</ele><time>2026-04-12T10:23:01.184Z</time></trkpt><trkpt lat="45.6800421" lon="8.6142937"><ele>282.5</ele><time>2026-04-12T10:23:02.176Z</time></trkpt><trkpt lat="45.6798135" lon="8.614044"><ele>280.0</ele><time>2026-04-12T10:23:03.193Z</time></trkpt><trkpt lat="45.6795895" lon="8.6137694"><ele>283.5</ele><time>2026-04-12T10:23:04.222Z</time></trkpt><trkpt lat="45.6793619" lon="8.6134726"><ele>287.0</ele><time>2026-04-12T10:23:05.182Z</time></trkpt><trkpt lat="45.6791167" lon="8.6131568"><ele>287.0</ele><time>2026-04-12T10:23:06.206Z</time></trkpt><trkpt lat="45.678885" lon="8.6128485"><ele>287.0</ele><time>2026-04-12T10:23:07.177Z</time></trkpt><trkpt lat="45.6786718" lon="8.6125671"><ele>287.5</ele><time>2026-04-12T10:23:08.18Z</time></trkpt><trkpt lat="45.6784835" lon="8.6123074"><ele>288.0</ele><time>2026-04-12T10:23:09.186Z</time></trkpt><trkpt lat="45.6783107" lon="8.6120753"><ele>289.0</ele><time>2026-04-12T10:23:10.189Z</time></trkpt><trkpt lat="45.6781491" lon="8.6118584"><ele>290.0</ele><time>2026-04-12T10:23:11.187Z</time></trkpt><trkpt lat="45.6779979" lon="8.6116573"><ele>291.0</ele><time>2026-04-12T10:23:12.172Z</time></trkpt><trkpt lat="45.6778558" lon="8.6114655"><ele>289.6666666666667</ele><time>2026-04-12T10:23:13.176Z</time></trkpt><trkpt lat="45.6777104" lon="8.6112717"><ele>288.33333333333337</ele><time>2026-04-12T10:23:14.171Z</time></trkpt><trkpt lat="45.6775689" lon="8.6110839"><ele>287.0</ele><time>2026-04-12T10:23:15.176Z</time></trkpt><trkpt lat="45.6774381" lon="8.6109092"><ele>287.0</ele><time>2026-04-12T10:23:16.174Z</time></trkpt><trkpt lat="45.6773179" lon="8.6107559"><ele>287.0</ele><time>2026-04-12T10:23:17.181Z</time></trkpt><trkpt lat="45.6772078" lon="8.6106118"><ele>287.0</ele><time>2026-04-12T10:23:18.189Z</time></trkpt><trkpt lat="45.6771204" lon="8.610495"><ele>287.0</ele><time>2026-04-12T10:23:19.186Z</time></trkpt><trkpt lat="45.6770499" lon="8.6104018"><ele>287.33333333333337</ele><time>2026-04-12T10:23:20.19Z</time></trkpt><trkpt lat="45.6769979" lon="8.6103239"><ele>287.6666666666667</ele><time>2026-04-12T10:23:21.19Z</time></trkpt><trkpt lat="45.6769432" lon="8.6102151"><ele>288.0</ele><time>2026-04-12T10:23:23.216Z</time></trkpt><trkpt lat="45.6769074" lon="8.6101221"><ele>288.3333333333333</ele><time>2026-04-12T10:23:26.186Z</time></trkpt><trkpt lat="45.6768969" lon="8.6100315"><ele>288.66666666666663</ele><time>2026-04-12T10:23:42.208Z</time></trkpt><trkpt lat="45.6768716" lon="8.6099335"><ele>289.0</ele><time>2026-04-12T10:23:43.195Z</time></trkpt><trkpt lat="45.6768395" lon="8.6098287"><ele>291.0</ele><time>2026-04-12T10:23:44.181Z</time></trkpt><trkpt lat="45.676795" lon="8.6097226"><ele>293.0</ele><time>2026-04-12T10:23:45.178Z</time></trkpt><trkpt lat="45.6767332" lon="8.6096458"><ele>295.0</ele><time>2026-04-12T10:23:46.18Z</time></trkpt><trkpt lat="45.6766607" lon="8.6096141"><ele>297.0</ele><time>2026-04-12T10:23:47.178Z</time></trkpt><trkpt lat="45.6765854" lon="8.6096227"><ele>299.0</ele><time>2026-04-12T10:23:48.174Z</time></trkpt><trkpt lat="45.6765143" lon="8.6096668"><ele>301.0</ele><time>2026-04-12T10:23:49.177Z</time></trkpt><trkpt lat="45.6764614" lon="8.6097449"><ele>301.0</ele><time>2026-04-12T10:23:50.22Z</time></trkpt><trkpt lat="45.6764214" lon="8.6098473"><ele>301.0</ele><time>2026-04-12T10:23:51.214Z</time></trkpt><trkpt lat="45.6763813" lon="8.6099655"><ele>301.0</ele><time>2026-04-12T10:23:52.175Z</time></trkpt><trkpt lat="45.6763281" lon="8.610091"><ele>301.0</ele><time>2026-04-12T10:23:53.181Z</time></trkpt><trkpt lat="45.6762554" lon="8.6102015"><ele>301.0</ele><time>2026-04-12T10:23:54.177Z</time></trkpt><trkpt lat="45.6761698" lon="8.6102998"><ele>301.0</ele><time>2026-04-12T10:23:55.176Z</time></trkpt><trkpt lat="45.6760749" lon="8.6103966"><ele>301.0</ele><time>2026-04-12T10:23:56.178Z</time></trkpt><trkpt lat="45.6759727" lon="8.6104977"><ele>301.0</ele><time>2026-04-12T10:23:57.179Z</time></trkpt><trkpt lat="45.6758623" lon="8.61061"><ele>301.0</ele><time>2026-04-12T10:23:58.214Z</time></trkpt><trkpt lat="45.6757535" lon="8.6107302"><ele>301.0</ele><time>2026-04-12T10:23:59.19Z</time></trkpt><trkpt lat="45.6756486" lon="8.6108649"><ele>301.0</ele><time>2026-04-12T10:24:00.222Z</time></trkpt><trkpt lat="45.6755416" lon="8.6110133"><ele>301.0</ele><time>2026-04-12T10:24:01.216Z</time></trkpt><trkpt lat="45.6754266" lon="8.6111667"><ele>301.0</ele><time>2026-04-12T10:24:02.174Z</time></trkpt><trkpt lat="45.6753035" lon="8.611336"><ele>301.66666666666663</ele><time>2026-04-12T10:24:03.177Z</time></trkpt><trkpt lat="45.6751685" lon="8.6115199"><ele>302.3333333333333</ele><time>2026-04-12T10:24:04.224Z</time></trkpt><trkpt lat="45.6750245" lon="8.6117074"><ele>303.0</ele><time>2026-04-12T10:24:05.189Z</time></trkpt><trkpt lat="45.6748755" lon="8.6119004"><ele>302.6666666666667</ele><time>2026-04-12T10:24:06.217Z</time></trkpt><trkpt lat="45.674735" lon="8.6120695"><ele>302.33333333333337</ele><time>2026-04-12T10:24:07.178Z</time></trkpt><trkpt lat="45.6745948" lon="8.6122525"><ele>302.0</ele><time>2026-04-12T10:24:08.182Z</time></trkpt><trkpt lat="45.6744557" lon="8.6124352"><ele>302.33333333333337</ele><time>2026-04-12T10:24:09.223Z</time></trkpt><trkpt lat="45.6743157" lon="8.6126236"><ele>302.6666666666667</ele><time>2026-04-12T10:24:10.186Z</time></trkpt><trkpt lat="45.6741739" lon="8.612811"><ele>303.0</ele><time>2026-04-12T10:24:11.176Z</time></trkpt><trkpt lat="45.6740286" lon="8.6130012"><ele>303.0</ele><time>2026-04-12T10:24:12.173Z</time></trkpt><trkpt lat="45.6738836" lon="8.6131943"><ele>303.0</ele><time>2026-04-12T10:24:13.178Z</time></trkpt><trkpt lat="45.6737373" lon="8.613379"><ele>303.0</ele><time>2026-04-12T10:24:14.22Z</time></trkpt><trkpt lat="45.673585" lon="8.6135629"><ele>303.3333333333333</ele><time>2026-04-12T10:24:15.208Z</time></trkpt><trkpt lat="45.6734295" lon="8.613748"><ele>303.66666666666663</ele><time>2026-04-12T10:24:16.222Z</time></trkpt><trkpt lat="45.6732735" lon="8.6139315"><ele>304.0</ele><time>2026-04-12T10:24:17.181Z</time></trkpt><trkpt lat="45.6731262" lon="8.6140983"><ele>304.0</ele><time>2026-04-12T10:24:18.183Z</time></trkpt><trkpt lat="45.6729854" lon="8.6142511"><ele>304.0</ele><time>2026-04-12T10:24:19.191Z</time></trkpt><trkpt lat="45.6728546" lon="8.6143909"><ele>304.0</ele><time>2026-04-12T10:24:20.19Z</time></trkpt><trkpt lat="45.6727318" lon="8.6145208"><ele>304.5</ele><time>2026-04-12T10:24:21.212Z</time></trkpt><trkpt lat="45.6726164" lon="8.6146444"><ele>305.0</ele><time>2026-04-12T10:24:22.177Z</time></trkpt><trkpt lat="45.6725085" lon="8.6147572"><ele>305.5</ele><time>2026-04-12T10:24:23.18Z</time></trkpt><trkpt lat="45.6724025" lon="8.614867"><ele>306.0</ele><time>2026-04-12T10:24:24.188Z</time></trkpt><trkpt lat="45.6723019" lon="8.6149596"><ele>306.0</ele><time>2026-04-12T10:24:25.188Z</time></trkpt><trkpt lat="45.6722089" lon="8.6150238"><ele>306.0</ele><time>2026-04-12T10:24:26.191Z</time></trkpt><trkpt lat="45.6721317" lon="8.6150649"><ele>306.0</ele><time>2026-04-12T10:24:27.175Z</time></trkpt><trkpt lat="45.6720228" lon="8.6151"><ele>306.0</ele><time>2026-04-12T10:24:29.207Z</time></trkpt><trkpt lat="45.6719585" lon="8.6151121"><ele>306.0</ele><time>2026-04-12T10:24:30.181Z</time></trkpt><trkpt lat="45.6718828" lon="8.6151282"><ele>306.0</ele><time>2026-04-12T10:24:31.166Z</time></trkpt><trkpt lat="45.6718136" lon="8.6151703"><ele>305.8333333333333</ele><time>2026-04-12T10:24:32.181Z</time></trkpt><trkpt lat="45.6717619" lon="8.6152394"><ele>305.6666666666667</ele><time>2026-04-12T10:24:33.184Z</time></trkpt><trkpt lat="45.6717212" lon="8.6153257"><ele>305.5</ele><time>2026-04-12T10:24:34.223Z</time></trkpt><trkpt lat="45.6716809" lon="8.6154377"><ele>305.33333333333337</ele><time>2026-04-12T10:24:35.179Z</time></trkpt><trkpt lat="45.6716358" lon="8.6155339"><ele>305.1666666666667</ele><time>2026-04-12T10:24:36.178Z</time></trkpt><trkpt lat="45.6715815" lon="8.6156288"><ele>305.0</ele><time>2026-04-12T10:24:37.18Z</time></trkpt><trkpt lat="45.6715139" lon="8.615713"><ele>305.5</ele><time>2026-04-12T10:24:38.181Z</time></trkpt><trkpt lat="45.6714316" lon="8.6158071"><ele>306.0</ele><time>2026-04-12T10:24:39.182Z</time></trkpt><trkpt lat="45.6713341" lon="8.6159063"><ele>306.5</ele><time>2026-04-12T10:24:40.175Z</time></trkpt><trkpt lat="45.6712298" lon="8.6160141"><ele>307.0</ele><time>2026-04-12T10:24:41.18Z</time></trkpt><trkpt lat="45.671096" lon="8.6161279"><ele>306.66666666666663</ele><time>2026-04-12T10:24:42.181Z</time></trkpt><trkpt lat="45.6709424" lon="8.6162362"><ele>306.3333333333333</ele><time>2026-04-12T10:24:43.184Z</time></trkpt><trkpt lat="45.6707736" lon="8.6163501"><ele>306.0</ele><time>2026-04-12T10:24:44.177Z</time></trkpt><trkpt lat="45.670584" lon="8.6164723"><ele>306.0</ele><time>2026-04-12T10:24:45.191Z</time></trkpt><trkpt lat="45.6703622" lon="8.6166255"><ele>306.0</ele><time>2026-04-12T10:24:46.177Z</time></trkpt><trkpt lat="45.6701307" lon="8.6167967"><ele>306.0</ele><time>2026-04-12T10:24:47.179Z</time></trkpt><trkpt lat="45.6699079" lon="8.6169615"><ele>306.0</ele><time>2026-04-12T10:24:48.175Z</time></trkpt><trkpt lat="45.6696994" lon="8.617107"><ele>306.0</ele><time>2026-04-12T10:24:49.177Z</time></trkpt><trkpt lat="45.6694975" lon="8.6172373"><ele>306.0</ele><time>2026-04-12T10:24:50.18Z</time></trkpt><trkpt lat="45.6693039" lon="8.6173367"><ele>306.0</ele><time>2026-04-12T10:24:51.18Z</time></trkpt><trkpt lat="45.6691293" lon="8.6174034"><ele>305.75</ele><time>2026-04-12T10:24:52.183Z</time></trkpt><trkpt lat="45.6689806" lon="8.6174324"><ele>305.5</ele><time>2026-04-12T10:24:53.182Z</time></trkpt><trkpt lat="45.6688471" lon="8.6174429"><ele>305.25</ele><time>2026-04-12T10:24:54.179Z</time></trkpt><trkpt lat="45.6687217" lon="8.6174132"><ele>305.0</ele><time>2026-04-12T10:24:55.181Z</time></trkpt><trkpt lat="45.6686024" lon="8.6173665"><ele>303.8</ele><time>2026-04-12T10:24:56.182Z</time></trkpt><trkpt lat="45.6685008" lon="8.6173476"><ele>302.6</ele><time>2026-04-12T10:24:57.183Z</time></trkpt><trkpt lat="45.6684174" lon="8.6173887"><ele>301.4</ele><time>2026-04-12T10:24:58.176Z</time></trkpt><trkpt lat="45.6683476" lon="8.6174717"><ele>300.2</ele><time>2026-04-12T10:24:59.175Z</time></trkpt><trkpt lat="45.6683035" lon="8.617585"><ele>299.0</ele><time>2026-04-12T10:25:00.176Z</time></trkpt><trkpt lat="45.6682633" lon="8.6177249"><ele>299.25</ele><time>2026-04-12T10:25:01.177Z</time></trkpt><trkpt lat="45.6681887" lon="8.6178425"><ele>299.5</ele><time>2026-04-12T10:25:02.176Z</time></trkpt><trkpt lat="45.668082" lon="8.617938"><ele>299.75</ele><time>2026-04-12T10:25:03.174Z</time></trkpt><trkpt lat="45.6679392" lon="8.6180105"><ele>300.0</ele><time>2026-04-12T10:25:04.178Z</time></trkpt><trkpt lat="45.6677708" lon="8.618059"><ele>300.0</ele><time>2026-04-12T10:25:05.166Z</time></trkpt><trkpt lat="45.667563" lon="8.6180887"><ele>300.0</ele><time>2026-04-12T10:25:06.174Z</time></trkpt><trkpt lat="45.6673164" lon="8.6181124"><ele>300.0</ele><time>2026-04-12T10:25:07.174Z</time></trkpt><trkpt lat="45.667049" lon="8.6181334"><ele>300.0</ele><time>2026-04-12T10:25:08.161Z</time></trkpt><trkpt lat="45.6668038" lon="8.6181588"><ele>297.5</ele><time>2026-04-12T10:25:09.158Z</time></trkpt><trkpt lat="45.6665676" lon="8.6181833"><ele>295.0</ele><time>2026-04-12T10:25:10.165Z</time></trkpt><trkpt lat="45.6663443" lon="8.6182092"><ele>295.0</ele><time>2026-04-12T10:25:11.162Z</time></trkpt><trkpt lat="45.6661336" lon="8.6182337"><ele>295.0</ele><time>2026-04-12T10:25:12.161Z</time></trkpt><trkpt lat="45.6659254" lon="8.6182607"><ele>295.0</ele><time>2026-04-12T10:25:13.161Z</time></trkpt><trkpt lat="45.6657546" lon="8.61828"><ele>294.66666666666663</ele><time>2026-04-12T10:25:14.163Z</time></trkpt><trkpt lat="45.6655869" lon="8.6183023"><ele>294.3333333333333</ele><time>2026-04-12T10:25:15.176Z</time></trkpt><trkpt lat="45.6654282" lon="8.6183182"><ele>294.0</ele><time>2026-04-12T10:25:16.181Z</time></trkpt><trkpt lat="45.6652781" lon="8.6183363"><ele>294.5</ele><time>2026-04-12T10:25:17.175Z</time></trkpt><trkpt lat="45.6651425" lon="8.6183459"><ele>295.0</ele><time>2026-04-12T10:25:18.179Z</time></trkpt><trkpt lat="45.6650127" lon="8.6183539"><ele>295.5</ele><time>2026-04-12T10:25:19.172Z</time></trkpt><trkpt lat="45.6648942" lon="8.6183591"><ele>296.0</ele><time>2026-04-12T10:25:20.169Z</time></trkpt><trkpt lat="45.6647838" lon="8.6183648"><ele>296.0</ele><time>2026-04-12T10:25:21.17Z</time></trkpt><trkpt lat="45.6646787" lon="8.6183375"><ele>296.0</ele><time>2026-04-12T10:25:22.177Z</time></trkpt><trkpt lat="45.6645776" lon="8.6182984"><ele>296.0</ele><time>2026-04-12T10:25:23.178Z</time></trkpt><trkpt lat="45.6644756" lon="8.618291"><ele>296.0</ele><time>2026-04-12T10:25:24.183Z</time></trkpt><trkpt lat="45.6643727" lon="8.6183228"><ele>296.0</ele><time>2026-04-12T10:25:25.177Z</time></trkpt><trkpt lat="45.6642692" lon="8.6183926"><ele>295.75</ele><time>2026-04-12T10:25:26.194Z</time></trkpt><trkpt lat="45.6641561" lon="8.6184461"><ele>295.5</ele><time>2026-04-12T10:25:27.177Z</time></trkpt><trkpt lat="45.6640326" lon="8.6184723"><ele>295.25</ele><time>2026-04-12T10:25:28.179Z</time></trkpt><trkpt lat="45.6639046" lon="8.6184793"><ele>295.0</ele><time>2026-04-12T10:25:29.22Z</time></trkpt><trkpt lat="45.6637672" lon="8.6184821"><ele>295.0</ele><time>2026-04-12T10:25:30.189Z</time></trkpt><trkpt lat="45.6636277" lon="8.6184965"><ele>295.0</ele><time>2026-04-12T10:25:31.175Z</time></trkpt><trkpt lat="45.663485" lon="8.6185083"><ele>295.0</ele><time>2026-04-12T10:25:32.168Z</time></trkpt><trkpt lat="45.6633413" lon="8.6185194"><ele>295.0</ele><time>2026-04-12T10:25:33.179Z</time></trkpt><trkpt lat="45.6631923" lon="8.6185282"><ele>295.0</ele><time>2026-04-12T10:25:34.18Z</time></trkpt><trkpt lat="45.6630455" lon="8.6185381"><ele>295.0</ele><time>2026-04-12T10:25:35.177Z</time></trkpt><trkpt lat="45.6628973" lon="8.618551"><ele>295.0</ele><time>2026-04-12T10:25:36.181Z</time></trkpt><trkpt lat="45.6627498" lon="8.6185694"><ele>295.0</ele><time>2026-04-12T10:25:37.167Z</time></trkpt><trkpt lat="45.6626043" lon="8.6185781"><ele>295.0</ele><time>2026-04-12T10:25:38.181Z</time></trkpt><trkpt lat="45.6624646" lon="8.6185947"><ele>295.0</ele><time>2026-04-12T10:25:39.173Z</time></trkpt><trkpt lat="45.6623228" lon="8.618604"><ele>295.0</ele><time>2026-04-12T10:25:40.177Z</time></trkpt><trkpt lat="45.6621761" lon="8.6186197"><ele>295.0</ele><time>2026-04-12T10:25:41.195Z</time></trkpt><trkpt lat="45.6620217" lon="8.6186357"><ele>293.3333333333333</ele><time>2026-04-12T10:25:42.171Z</time></trkpt><trkpt lat="45.6618453" lon="8.6186532"><ele>291.6666666666667</ele><time>2026-04-12T10:25:43.184Z</time></trkpt><trkpt lat="45.6616524" lon="8.6186779"><ele>290.0</ele><time>2026-04-12T10:25:44.215Z</time></trkpt><trkpt lat="45.6614342" lon="8.6186995"><ele>290.0</ele><time>2026-04-12T10:25:45.214Z</time></trkpt><trkpt lat="45.6611804" lon="8.618725"><ele>290.0</ele><time>2026-04-12T10:25:46.225Z</time></trkpt><trkpt lat="45.6609378" lon="8.6187501"><ele>292.0</ele><time>2026-04-12T10:25:47.173Z</time></trkpt><trkpt lat="45.6607146" lon="8.618767"><ele>294.0</ele><time>2026-04-12T10:25:48.176Z</time></trkpt><trkpt lat="45.6605014" lon="8.6187806"><ele>296.0</ele><time>2026-04-12T10:25:49.217Z</time></trkpt><trkpt lat="45.6602933" lon="8.6188017"><ele>296.33333333333337</ele><time>2026-04-12T10:25:50.177Z</time></trkpt><trkpt lat="45.6600797" lon="8.6188203"><ele>296.6666666666667</ele><time>2026-04-12T10:25:51.213Z</time></trkpt><trkpt lat="45.6598792" lon="8.6188373"><ele>297.0</ele><time>2026-04-12T10:25:52.178Z</time></trkpt><trkpt lat="45.6596876" lon="8.6188554"><ele>297.0</ele><time>2026-04-12T10:25:53.182Z</time></trkpt><trkpt lat="45.659499" lon="8.618872"><ele>297.0</ele><time>2026-04-12T10:25:54.221Z</time></trkpt><trkpt lat="45.6593153" lon="8.6188931"><ele>297.0</ele><time>2026-04-12T10:25:55.217Z</time></trkpt><trkpt lat="45.6591334" lon="8.6189078"><ele>296.6666666666667</ele><time>2026-04-12T10:25:56.178Z</time></trkpt><trkpt lat="45.6589461" lon="8.6189216"><ele>296.33333333333337</ele><time>2026-04-12T10:25:57.176Z</time></trkpt><trkpt lat="45.6587593" lon="8.618923"><ele>296.0</ele><time>2026-04-12T10:25:58.175Z</time></trkpt><trkpt lat="45.6585683" lon="8.6189201"><ele>295.6666666666667</ele><time>2026-04-12T10:25:59.187Z</time></trkpt><trkpt lat="45.6583685" lon="8.6189118"><ele>295.3333333333333</ele><time>2026-04-12T10:26:00.183Z</time></trkpt><trkpt lat="45.6581581" lon="8.6188972"><ele>295.0</ele><time>2026-04-12T10:26:01.185Z</time></trkpt><trkpt lat="45.6579411" lon="8.6188724"><ele>294.0</ele><time>2026-04-12T10:26:02.17Z</time></trkpt><trkpt lat="45.657717" lon="8.6188449"><ele>293.0</ele><time>2026-04-12T10:26:03.174Z</time></trkpt><trkpt lat="45.6574823" lon="8.6188136"><ele>293.0</ele><time>2026-04-12T10:26:04.19Z</time></trkpt><trkpt lat="45.6572267" lon="8.6187849"><ele>293.0</ele><time>2026-04-12T10:26:05.178Z</time></trkpt><trkpt lat="45.6569407" lon="8.6187512"><ele>292.5</ele><time>2026-04-12T10:26:06.176Z</time></trkpt><trkpt lat="45.6566278" lon="8.6187113"><ele>292.0</ele><time>2026-04-12T10:26:07.18Z</time></trkpt><trkpt lat="45.6563141" lon="8.6186696"><ele>293.0</ele><time>2026-04-12T10:26:08.173Z</time></trkpt><trkpt lat="45.6560085" lon="8.6186282"><ele>294.0</ele><time>2026-04-12T10:26:09.219Z</time></trkpt><trkpt lat="45.6557176" lon="8.6185893"><ele>294.0</ele><time>2026-04-12T10:26:10.183Z</time></trkpt><trkpt lat="45.655446" lon="8.6185556"><ele>294.0</ele><time>2026-04-12T10:26:11.181Z</time></trkpt><trkpt lat="45.655184" lon="8.6185187"><ele>294.0</ele><time>2026-04-12T10:26:12.17Z</time></trkpt><trkpt lat="45.6549318" lon="8.6184836"><ele>294.0</ele><time>2026-04-12T10:26:13.176Z</time></trkpt><trkpt lat="45.6546866" lon="8.61845"><ele>293.5</ele><time>2026-04-12T10:26:14.177Z</time></trkpt><trkpt lat="45.6544442" lon="8.6184324"><ele>293.0</ele><time>2026-04-12T10:26:15.185Z</time></trkpt><trkpt lat="45.6542164" lon="8.6184397"><ele>293.0</ele><time>2026-04-12T10:26:16.179Z</time></trkpt><trkpt lat="45.6539864" lon="8.6184536"><ele>293.0</ele><time>2026-04-12T10:26:17.182Z</time></trkpt><trkpt lat="45.6537673" lon="8.6184842"><ele>292.0</ele><time>2026-04-12T10:26:18.183Z</time></trkpt><trkpt lat="45.6535624" lon="8.6185161"><ele>291.0</ele><time>2026-04-12T10:26:19.166Z</time></trkpt><trkpt lat="45.6533704" lon="8.6185497"><ele>290.0</ele><time>2026-04-12T10:26:20.215Z</time></trkpt><trkpt lat="45.6531849" lon="8.6185825"><ele>290.0</ele><time>2026-04-12T10:26:21.218Z</time></trkpt><trkpt lat="45.6530146" lon="8.6186175"><ele>290.0</ele><time>2026-04-12T10:26:22.174Z</time></trkpt><trkpt lat="45.6528581" lon="8.6186427"><ele>290.0</ele><time>2026-04-12T10:26:23.187Z</time></trkpt><trkpt lat="45.6527176" lon="8.6186442"><ele>290.5</ele><time>2026-04-12T10:26:24.193Z</time></trkpt><trkpt lat="45.6525925" lon="8.6186133"><ele>291.0</ele><time>2026-04-12T10:26:25.221Z</time></trkpt><trkpt lat="45.6524848" lon="8.6185452"><ele>291.5</ele><time>2026-04-12T10:26:26.217Z</time></trkpt><trkpt lat="45.6523881" lon="8.6184393"><ele>292.0</ele><time>2026-04-12T10:26:27.177Z</time></trkpt><trkpt lat="45.6522947" lon="8.6183456"><ele>292.0</ele><time>2026-04-12T10:26:28.182Z</time></trkpt><trkpt lat="45.6521943" lon="8.6182974"><ele>292.0</ele><time>2026-04-12T10:26:29.216Z</time></trkpt><trkpt lat="45.6520898" lon="8.6182956"><ele>292.0</ele><time>2026-04-12T10:26:30.215Z</time></trkpt><trkpt lat="45.6520034" lon="8.6183437"><ele>292.0</ele><time>2026-04-12T10:26:31.184Z</time></trkpt><trkpt lat="45.6519097" lon="8.6184383"><ele>292.0</ele><time>2026-04-12T10:26:32.173Z</time></trkpt><trkpt lat="45.6517916" lon="8.6185505"><ele>291.66666666666663</ele><time>2026-04-12T10:26:33.182Z</time></trkpt><trkpt lat="45.6516223" lon="8.618634"><ele>291.3333333333333</ele><time>2026-04-12T10:26:34.194Z</time></trkpt><trkpt lat="45.6514212" lon="8.6186802"><ele>291.0</ele><time>2026-04-12T10:26:35.218Z</time></trkpt><trkpt lat="45.6511973" lon="8.618725"><ele>288.6666666666667</ele><time>2026-04-12T10:26:36.19Z</time></trkpt><trkpt lat="45.6509983" lon="8.6187552"><ele>286.33333333333337</ele><time>2026-04-12T10:26:37.161Z</time></trkpt><trkpt lat="45.6507916" lon="8.6187787"><ele>284.0</ele><time>2026-04-12T10:26:38.167Z</time></trkpt><trkpt lat="45.6505851" lon="8.6188015"><ele>284.0</ele><time>2026-04-12T10:26:39.18Z</time></trkpt><trkpt lat="45.6503834" lon="8.6188248"><ele>284.0</ele><time>2026-04-12T10:26:40.21Z</time></trkpt><trkpt lat="45.6501664" lon="8.6188498"><ele>284.0</ele><time>2026-04-12T10:26:41.182Z</time></trkpt><trkpt lat="45.6499384" lon="8.6188721"><ele>284.33333333333337</ele><time>2026-04-12T10:26:42.175Z</time></trkpt><trkpt lat="45.6497127" lon="8.6188913"><ele>284.6666666666667</ele><time>2026-04-12T10:26:43.175Z</time></trkpt><trkpt lat="45.6494937" lon="8.6189099"><ele>285.0</ele><time>2026-04-12T10:26:44.19Z</time></trkpt><trkpt lat="45.6492792" lon="8.6189377"><ele>285.0</ele><time>2026-04-12T10:26:45.18Z</time></trkpt><trkpt lat="45.6490689" lon="8.6189803"><ele>285.0</ele><time>2026-04-12T10:26:46.194Z</time></trkpt><trkpt lat="45.6488659" lon="8.6190375"><ele>285.0</ele><time>2026-04-12T10:26:47.175Z</time></trkpt><trkpt lat="45.648669" lon="8.6191079"><ele>284.0</ele><time>2026-04-12T10:26:48.182Z</time></trkpt><trkpt lat="45.6484826" lon="8.6191831"><ele>283.0</ele><time>2026-04-12T10:26:49.175Z</time></trkpt><trkpt lat="45.6482979" lon="8.619265"><ele>282.0</ele><time>2026-04-12T10:26:50.221Z</time></trkpt><trkpt lat="45.6481188" lon="8.6193511"><ele>282.0</ele><time>2026-04-12T10:26:51.178Z</time></trkpt><trkpt lat="45.6479383" lon="8.6194309"><ele>282.0</ele><time>2026-04-12T10:26:52.183Z</time></trkpt><trkpt lat="45.6477542" lon="8.6195228"><ele>282.0</ele><time>2026-04-12T10:26:53.179Z</time></trkpt><trkpt lat="45.6475709" lon="8.6196158"><ele>283.0</ele><time>2026-04-12T10:26:54.183Z</time></trkpt><trkpt lat="45.6473842" lon="8.619708"><ele>284.0</ele><time>2026-04-12T10:26:55.212Z</time></trkpt><trkpt lat="45.6471913" lon="8.6198023"><ele>285.0</ele><time>2026-04-12T10:26:56.178Z</time></trkpt><trkpt lat="45.647006" lon="8.6198875"><ele>285.0</ele><time>2026-04-12T10:26:57.179Z</time></trkpt><trkpt lat="45.6468257" lon="8.61997"><ele>285.0</ele><time>2026-04-12T10:26:58.178Z</time></trkpt><trkpt lat="45.646646" lon="8.6200511"><ele>285.0</ele><time>2026-04-12T10:26:59.182Z</time></trkpt><trkpt lat="45.6464649" lon="8.6201308"><ele>285.0</ele><time>2026-04-12T10:27:00.208Z</time></trkpt><trkpt lat="45.64629" lon="8.6202193"><ele>285.0</ele><time>2026-04-12T10:27:01.182Z</time></trkpt><trkpt lat="45.6461171" lon="8.6203054"><ele>285.0</ele><time>2026-04-12T10:27:02.185Z</time></trkpt><trkpt lat="45.6459466" lon="8.6203928"><ele>284.3333333333333</ele><time>2026-04-12T10:27:03.176Z</time></trkpt><trkpt lat="45.6457787" lon="8.6204767"><ele>283.66666666666663</ele><time>2026-04-12T10:27:04.182Z</time></trkpt><trkpt lat="45.645614" lon="8.6205586"><ele>283.0</ele><time>2026-04-12T10:27:05.176Z</time></trkpt><trkpt lat="45.6454515" lon="8.6206333"><ele>283.0</ele><time>2026-04-12T10:27:06.21Z</time></trkpt><trkpt lat="45.6452958" lon="8.6207062"><ele>283.0</ele><time>2026-04-12T10:27:07.172Z</time></trkpt><trkpt lat="45.64515" lon="8.6207732"><ele>283.0</ele><time>2026-04-12T10:27:08.183Z</time></trkpt><trkpt lat="45.6450105" lon="8.6208366"><ele>282.0</ele><time>2026-04-12T10:27:09.181Z</time></trkpt><trkpt lat="45.6448738" lon="8.620893"><ele>281.0</ele><time>2026-04-12T10:27:10.195Z</time></trkpt><trkpt lat="45.6447442" lon="8.6209413"><ele>280.0</ele><time>2026-04-12T10:27:11.175Z</time></trkpt><trkpt lat="45.6446216" lon="8.6209778"><ele>279.0</ele><time>2026-04-12T10:27:12.174Z</time></trkpt><trkpt lat="45.6445051" lon="8.6210163"><ele>278.59999999999997</ele><time>2026-04-12T10:27:13.18Z</time></trkpt><trkpt lat="45.6443888" lon="8.6210458"><ele>278.2</ele><time>2026-04-12T10:27:14.218Z</time></trkpt><trkpt lat="45.6442808" lon="8.6210643"><ele>277.79999999999995</ele><time>2026-04-12T10:27:15.187Z</time></trkpt><trkpt lat="45.644177" lon="8.6210727"><ele>277.4</ele><time>2026-04-12T10:27:16.18Z</time></trkpt><trkpt lat="45.6440788" lon="8.6210631"><ele>277.0</ele><time>2026-04-12T10:27:17.172Z</time></trkpt><trkpt lat="45.6439891" lon="8.6210195"><ele>277.0</ele><time>2026-04-12T10:27:18.179Z</time></trkpt><trkpt lat="45.6439135" lon="8.6209581"><ele>277.0</ele><time>2026-04-12T10:27:19.178Z</time></trkpt><trkpt lat="45.6438309" lon="8.6209079"><ele>277.0</ele><time>2026-04-12T10:27:20.182Z</time></trkpt><trkpt lat="45.6437456" lon="8.6208942"><ele>277.0</ele><time>2026-04-12T10:27:21.163Z</time></trkpt><trkpt lat="45.6436549" lon="8.6209235"><ele>277.0</ele><time>2026-04-12T10:27:22.17Z</time></trkpt><trkpt lat="45.6435649" lon="8.6209902"><ele>276.5</ele><time>2026-04-12T10:27:23.179Z</time></trkpt><trkpt lat="45.6434741" lon="8.6210995"><ele>276.0</ele><time>2026-04-12T10:27:24.172Z</time></trkpt><trkpt lat="45.6433713" lon="8.6211955"><ele>275.5</ele><time>2026-04-12T10:27:25.177Z</time></trkpt><trkpt lat="45.6432352" lon="8.6212729"><ele>275.0</ele><time>2026-04-12T10:27:26.189Z</time></trkpt><trkpt lat="45.6430615" lon="8.6213388"><ele>274.6666666666667</ele><time>2026-04-12T10:27:27.179Z</time></trkpt><trkpt lat="45.6428623" lon="8.6213881"><ele>274.3333333333333</ele><time>2026-04-12T10:27:28.189Z</time></trkpt><trkpt lat="45.6426349" lon="8.6214189"><ele>274.0</ele><time>2026-04-12T10:27:29.183Z</time></trkpt><trkpt lat="45.6424085" lon="8.6214582"><ele>274.0</ele><time>2026-04-12T10:27:30.182Z</time></trkpt><trkpt lat="45.6421924" lon="8.6214919"><ele>274.0</ele><time>2026-04-12T10:27:31.194Z</time></trkpt><trkpt lat="45.6419933" lon="8.6215249"><ele>274.0</ele><time>2026-04-12T10:27:32.179Z</time></trkpt><trkpt lat="45.641798" lon="8.6215523"><ele>274.0</ele><time>2026-04-12T10:27:33.219Z</time></trkpt><trkpt lat="45.6415956" lon="8.6215846"><ele>274.0</ele><time>2026-04-12T10:27:34.179Z</time></trkpt><trkpt lat="45.6413773" lon="8.621624"><ele>274.0</ele><time>2026-04-12T10:27:35.172Z</time></trkpt><trkpt lat="45.6408725" lon="8.6216939"><ele>273.0</ele><time>2026-04-12T10:27:37.188Z</time></trkpt><trkpt lat="45.6405546" lon="8.6217374"><ele>272.0</ele><time>2026-04-12T10:27:38.184Z</time></trkpt><trkpt lat="45.6402037" lon="8.6217874"><ele>270.0</ele><time>2026-04-12T10:27:39.199Z</time></trkpt><trkpt lat="45.6398409" lon="8.6218439"><ele>268.0</ele><time>2026-04-12T10:27:40.178Z</time></trkpt><trkpt lat="45.6394494" lon="8.6218989"><ele>267.5</ele><time>2026-04-12T10:27:41.187Z</time></trkpt><trkpt lat="45.6390752" lon="8.6219548"><ele>267.0</ele><time>2026-04-12T10:27:42.163Z</time></trkpt><trkpt lat="45.6387237" lon="8.6220137"><ele>268.0</ele><time>2026-04-12T10:27:43.171Z</time></trkpt><trkpt lat="45.6383993" lon="8.6220701"><ele>269.0</ele><time>2026-04-12T10:27:44.174Z</time></trkpt><trkpt lat="45.638087" lon="8.6221216"><ele>268.5</ele><time>2026-04-12T10:27:45.177Z</time></trkpt><trkpt lat="45.637787" lon="8.6221693"><ele>268.0</ele><time>2026-04-12T10:27:46.178Z</time></trkpt><trkpt lat="45.6375013" lon="8.6222227"><ele>268.0</ele><time>2026-04-12T10:27:47.185Z</time></trkpt><trkpt lat="45.6372166" lon="8.622279"><ele>268.0</ele><time>2026-04-12T10:27:48.178Z</time></trkpt><trkpt lat="45.6369431" lon="8.6223246"><ele>265.5</ele><time>2026-04-12T10:27:49.192Z</time></trkpt><trkpt lat="45.6366838" lon="8.6223707"><ele>263.0</ele><time>2026-04-12T10:27:50.171Z</time></trkpt><trkpt lat="45.6364391" lon="8.6224085"><ele>263.0</ele><time>2026-04-12T10:27:51.22Z</time></trkpt><trkpt lat="45.6362047" lon="8.6224391"><ele>263.0</ele><time>2026-04-12T10:27:52.175Z</time></trkpt><trkpt lat="45.6359857" lon="8.622476"><ele>262.0</ele><time>2026-04-12T10:27:53.182Z</time></trkpt><trkpt lat="45.6357686" lon="8.6225168"><ele>261.0</ele><time>2026-04-12T10:27:54.173Z</time></trkpt><trkpt lat="45.6355505" lon="8.6225487"><ele>260.0</ele><time>2026-04-12T10:27:55.179Z</time></trkpt><trkpt lat="45.6353378" lon="8.6225856"><ele>259.6666666666667</ele><time>2026-04-12T10:27:56.189Z</time></trkpt><trkpt lat="45.6351287" lon="8.6226118"><ele>259.3333333333333</ele><time>2026-04-12T10:27:57.165Z</time></trkpt><trkpt lat="45.6349249" lon="8.6226435"><ele>259.0</ele><time>2026-04-12T10:27:58.178Z</time></trkpt><trkpt lat="45.6347243" lon="8.622678"><ele>259.0</ele><time>2026-04-12T10:27:59.227Z</time></trkpt><trkpt lat="45.6345255" lon="8.6227127"><ele>259.0</ele><time>2026-04-12T10:28:00.18Z</time></trkpt><trkpt lat="45.6343276" lon="8.6227519"><ele>259.0</ele><time>2026-04-12T10:28:01.179Z</time></trkpt><trkpt lat="45.6341247" lon="8.6227852"><ele>259.0</ele><time>2026-04-12T10:28:02.177Z</time></trkpt><trkpt lat="45.6339232" lon="8.6228152"><ele>259.0</ele><time>2026-04-12T10:28:03.219Z</time></trkpt><trkpt lat="45.6337184" lon="8.6228474"><ele>259.0</ele><time>2026-04-12T10:28:04.179Z</time></trkpt><trkpt lat="45.6335201" lon="8.6228744"><ele>259.0</ele><time>2026-04-12T10:28:05.177Z</time></trkpt><trkpt lat="45.6333228" lon="8.6229065"><ele>259.0</ele><time>2026-04-12T10:28:06.176Z</time></trkpt><trkpt lat="45.6331257" lon="8.6229424"><ele>259.0</ele><time>2026-04-12T10:28:07.17Z</time></trkpt><trkpt lat="45.6329293" lon="8.6229765"><ele>257.66666666666663</ele><time>2026-04-12T10:28:08.174Z</time></trkpt><trkpt lat="45.6327301" lon="8.6230087"><ele>256.3333333333333</ele><time>2026-04-12T10:28:09.21Z</time></trkpt><trkpt lat="45.6325322" lon="8.6230442"><ele>255.0</ele><time>2026-04-12T10:28:10.218Z</time></trkpt><trkpt lat="45.6323364" lon="8.6230764"><ele>255.0</ele><time>2026-04-12T10:28:11.184Z</time></trkpt><trkpt lat="45.6321504" lon="8.6231006"><ele>255.0</ele><time>2026-04-12T10:28:12.18Z</time></trkpt><trkpt lat="45.6319683" lon="8.6231293"><ele>255.0</ele><time>2026-04-12T10:28:13.181Z</time></trkpt><trkpt lat="45.6317924" lon="8.6231571"><ele>254.33333333333331</ele><time>2026-04-12T10:28:14.192Z</time></trkpt><trkpt lat="45.631619" lon="8.6231893"><ele>253.66666666666666</ele><time>2026-04-12T10:28:15.172Z</time></trkpt><trkpt lat="45.6314455" lon="8.6232148"><ele>253.0</ele><time>2026-04-12T10:28:16.192Z</time></trkpt><trkpt lat="45.6312752" lon="8.6232512"><ele>253.66666666666666</ele><time>2026-04-12T10:28:17.176Z</time></trkpt><trkpt lat="45.6311007" lon="8.6232866"><ele>254.33333333333331</ele><time>2026-04-12T10:28:18.185Z</time></trkpt><trkpt lat="45.6309249" lon="8.6233136"><ele>255.0</ele><time>2026-04-12T10:28:19.219Z</time></trkpt><trkpt lat="45.6307473" lon="8.6233417"><ele>255.0</ele><time>2026-04-12T10:28:20.23Z</time></trkpt><trkpt lat="45.6305693" lon="8.6233687"><ele>255.0</ele><time>2026-04-12T10:28:21.185Z</time></trkpt><trkpt lat="45.6303926" lon="8.6234022"><ele>255.0</ele><time>2026-04-12T10:28:22.178Z</time></trkpt><trkpt lat="45.6302194" lon="8.6234319"><ele>255.66666666666669</ele><time>2026-04-12T10:28:23.173Z</time></trkpt><trkpt lat="45.6300435" lon="8.6234568"><ele>256.33333333333337</ele><time>2026-04-12T10:28:24.184Z</time></trkpt><trkpt lat="45.6298683" lon="8.6234891"><ele>257.0</ele><time>2026-04-12T10:28:25.178Z</time></trkpt><trkpt lat="45.6296876" lon="8.6235194"><ele>257.0</ele><time>2026-04-12T10:28:26.215Z</time></trkpt><trkpt lat="45.6295054" lon="8.6235443"><ele>257.0</ele><time>2026-04-12T10:28:27.185Z</time></trkpt><trkpt lat="45.6293196" lon="8.6235719"><ele>257.0</ele><time>2026-04-12T10:28:28.177Z</time></trkpt><trkpt lat="45.6291305" lon="8.6235981"><ele>256.33333333333337</ele><time>2026-04-12T10:28:29.211Z</time></trkpt><trkpt lat="45.6289438" lon="8.6236282"><ele>255.66666666666669</ele><time>2026-04-12T10:28:30.186Z</time></trkpt><trkpt lat="45.6287586" lon="8.6236587"><ele>255.0</ele><time>2026-04-12T10:28:31.213Z</time></trkpt><trkpt lat="45.6285717" lon="8.6236834"><ele>254.0</ele><time>2026-04-12T10:28:32.178Z</time></trkpt><trkpt lat="45.6283847" lon="8.623708"><ele>253.0</ele><time>2026-04-12T10:28:33.169Z</time></trkpt><trkpt lat="45.6281958" lon="8.6237355"><ele>252.0</ele><time>2026-04-12T10:28:34.188Z</time></trkpt><trkpt lat="45.6280051" lon="8.6237587"><ele>252.0</ele><time>2026-04-12T10:28:35.214Z</time></trkpt><trkpt lat="45.6278131" lon="8.6237891"><ele>252.0</ele><time>2026-04-12T10:28:36.231Z</time></trkpt><trkpt lat="45.6276131" lon="8.623824"><ele>252.0</ele><time>2026-04-12T10:28:37.173Z</time></trkpt><trkpt lat="45.6274034" lon="8.6238668"><ele>252.0</ele><time>2026-04-12T10:28:38.184Z</time></trkpt><trkpt lat="45.6271845" lon="8.6239061"><ele>252.0</ele><time>2026-04-12T10:28:39.185Z</time></trkpt><trkpt lat="45.6269721" lon="8.6239515"><ele>252.0</ele><time>2026-04-12T10:28:40.172Z</time></trkpt><trkpt lat="45.6267596" lon="8.6239951"><ele>252.0</ele><time>2026-04-12T10:28:41.175Z</time></trkpt><trkpt lat="45.6265537" lon="8.6240248"><ele>252.0</ele><time>2026-04-12T10:28:42.171Z</time></trkpt><trkpt lat="45.6263495" lon="8.6240556"><ele>252.0</ele><time>2026-04-12T10:28:43.175Z</time></trkpt><trkpt lat="45.6261516" lon="8.6240831"><ele>252.0</ele><time>2026-04-12T10:28:44.224Z</time></trkpt><trkpt lat="45.6259521" lon="8.6241084"><ele>252.0</ele><time>2026-04-12T10:28:45.192Z</time></trkpt><trkpt lat="45.6257555" lon="8.6241356"><ele>252.0</ele><time>2026-04-12T10:28:46.212Z</time></trkpt><trkpt lat="45.6255606" lon="8.6241643"><ele>252.0</ele><time>2026-04-12T10:28:47.177Z</time></trkpt><trkpt lat="45.6253685" lon="8.6241958"><ele>252.0</ele><time>2026-04-12T10:28:48.18Z</time></trkpt><trkpt lat="45.6251834" lon="8.6242289"><ele>252.0</ele><time>2026-04-12T10:28:49.19Z</time></trkpt><trkpt lat="45.6250035" lon="8.624267"><ele>251.66666666666669</ele><time>2026-04-12T10:28:50.178Z</time></trkpt><trkpt lat="45.6248307" lon="8.6242996"><ele>251.33333333333334</ele><time>2026-04-12T10:28:51.187Z</time></trkpt><trkpt lat="45.6246594" lon="8.6243375"><ele>251.0</ele><time>2026-04-12T10:28:52.169Z</time></trkpt><trkpt lat="45.6244909" lon="8.6243849"><ele>251.33333333333334</ele><time>2026-04-12T10:28:53.181Z</time></trkpt><trkpt lat="45.6243204" lon="8.624437"><ele>251.66666666666669</ele><time>2026-04-12T10:28:54.178Z</time></trkpt><trkpt lat="45.6241526" lon="8.6244908"><ele>252.0</ele><time>2026-04-12T10:28:55.186Z</time></trkpt><trkpt lat="45.6239863" lon="8.624552"><ele>252.0</ele><time>2026-04-12T10:28:56.177Z</time></trkpt><trkpt lat="45.6238193" lon="8.6246141"><ele>252.0</ele><time>2026-04-12T10:28:57.175Z</time></trkpt><trkpt lat="45.6236466" lon="8.6246874"><ele>252.0</ele><time>2026-04-12T10:28:58.182Z</time></trkpt><trkpt lat="45.6234709" lon="8.6247738"><ele>253.0</ele><time>2026-04-12T10:28:59.221Z</time></trkpt><trkpt lat="45.6232923" lon="8.6248666"><ele>254.0</ele><time>2026-04-12T10:29:00.183Z</time></trkpt><trkpt lat="45.6231089" lon="8.6249648"><ele>255.0</ele><time>2026-04-12T10:29:01.218Z</time></trkpt><trkpt lat="45.6229237" lon="8.6250711"><ele>255.0</ele><time>2026-04-12T10:29:02.18Z</time></trkpt><trkpt lat="45.6227424" lon="8.6251783"><ele>255.0</ele><time>2026-04-12T10:29:03.174Z</time></trkpt><trkpt lat="45.6225591" lon="8.625289"><ele>255.0</ele><time>2026-04-12T10:29:04.181Z</time></trkpt><trkpt lat="45.6223784" lon="8.6254084"><ele>254.33333333333331</ele><time>2026-04-12T10:29:05.18Z</time></trkpt><trkpt lat="45.6221978" lon="8.6255286"><ele>253.66666666666666</ele><time>2026-04-12T10:29:06.215Z</time></trkpt><trkpt lat="45.6220139" lon="8.6256683"><ele>253.0</ele><time>2026-04-12T10:29:07.178Z</time></trkpt><trkpt lat="45.621833" lon="8.6258148"><ele>253.66666666666666</ele><time>2026-04-12T10:29:08.18Z</time></trkpt><trkpt lat="45.6216594" lon="8.6259749"><ele>254.33333333333331</ele><time>2026-04-12T10:29:09.185Z</time></trkpt><trkpt lat="45.6214838" lon="8.6261393"><ele>255.0</ele><time>2026-04-12T10:29:10.221Z</time></trkpt><trkpt lat="45.6213112" lon="8.6263024"><ele>256.0</ele><time>2026-04-12T10:29:11.193Z</time></trkpt><trkpt lat="45.6211413" lon="8.6264684"><ele>257.0</ele><time>2026-04-12T10:29:12.18Z</time></trkpt><trkpt lat="45.6209725" lon="8.6266419"><ele>258.0</ele><time>2026-04-12T10:29:13.181Z</time></trkpt><trkpt lat="45.6208117" lon="8.6268201"><ele>256.3333333333333</ele><time>2026-04-12T10:29:14.19Z</time></trkpt><trkpt lat="45.6206533" lon="8.6269996"><ele>254.66666666666666</ele><time>2026-04-12T10:29:15.18Z</time></trkpt><trkpt lat="45.6204936" lon="8.627181"><ele>253.0</ele><time>2026-04-12T10:29:16.192Z</time></trkpt><trkpt lat="45.6203349" lon="8.6273708"><ele>253.0</ele><time>2026-04-12T10:29:17.179Z</time></trkpt><trkpt lat="45.620175" lon="8.6275527"><ele>253.0</ele><time>2026-04-12T10:29:18.179Z</time></trkpt><trkpt lat="45.6200189" lon="8.6277439"><ele>253.0</ele><time>2026-04-12T10:29:19.186Z</time></trkpt><trkpt lat="45.6198578" lon="8.6279377"><ele>253.0</ele><time>2026-04-12T10:29:20.179Z</time></trkpt><trkpt lat="45.6197015" lon="8.6281303"><ele>253.0</ele><time>2026-04-12T10:29:21.202Z</time></trkpt><trkpt lat="45.6195473" lon="8.628313"><ele>253.0</ele><time>2026-04-12T10:29:22.171Z</time></trkpt><trkpt lat="45.6193943" lon="8.6284867"><ele>253.0</ele><time>2026-04-12T10:29:23.174Z</time></trkpt><trkpt lat="45.6192414" lon="8.6286699"><ele>253.0</ele><time>2026-04-12T10:29:24.172Z</time></trkpt><trkpt lat="45.6190921" lon="8.6288455"><ele>253.0</ele><time>2026-04-12T10:29:25.177Z</time></trkpt><trkpt lat="45.6189481" lon="8.6290143"><ele>253.0</ele><time>2026-04-12T10:29:26.195Z</time></trkpt><trkpt lat="45.6188025" lon="8.6291847"><ele>253.0</ele><time>2026-04-12T10:29:27.169Z</time></trkpt><trkpt lat="45.6186645" lon="8.6293615"><ele>253.0</ele><time>2026-04-12T10:29:28.169Z</time></trkpt><trkpt lat="45.6185246" lon="8.6295294"><ele>253.66666666666666</ele><time>2026-04-12T10:29:29.174Z</time></trkpt><trkpt lat="45.6183798" lon="8.6297009"><ele>254.33333333333331</ele><time>2026-04-12T10:29:30.18Z</time></trkpt><trkpt lat="45.6182329" lon="8.6298838"><ele>255.0</ele><time>2026-04-12T10:29:31.175Z</time></trkpt><trkpt lat="45.6180845" lon="8.6300626"><ele>255.0</ele><time>2026-04-12T10:29:32.17Z</time></trkpt><trkpt lat="45.6179366" lon="8.6302438"><ele>255.0</ele><time>2026-04-12T10:29:33.169Z</time></trkpt><trkpt lat="45.617796" lon="8.6304094"><ele>255.0</ele><time>2026-04-12T10:29:34.19Z</time></trkpt><trkpt lat="45.6176518" lon="8.6305823"><ele>253.66666666666669</ele><time>2026-04-12T10:29:35.21Z</time></trkpt><trkpt lat="45.6175077" lon="8.6307603"><ele>252.33333333333334</ele><time>2026-04-12T10:29:36.163Z</time></trkpt><trkpt lat="45.6173631" lon="8.6309308"><ele>251.0</ele><time>2026-04-12T10:29:37.163Z</time></trkpt><trkpt lat="45.6172183" lon="8.6311027"><ele>250.66666666666669</ele><time>2026-04-12T10:29:38.166Z</time></trkpt><trkpt lat="45.6170775" lon="8.6312746"><ele>250.33333333333331</ele><time>2026-04-12T10:29:39.195Z</time></trkpt><trkpt lat="45.6169357" lon="8.6314454"><ele>250.0</ele><time>2026-04-12T10:29:40.172Z</time></trkpt><trkpt lat="45.6167902" lon="8.6316108"><ele>250.0</ele><time>2026-04-12T10:29:41.173Z</time></trkpt><trkpt lat="45.6166478" lon="8.6317828"><ele>250.0</ele><time>2026-04-12T10:29:42.172Z</time></trkpt><trkpt lat="45.6165052" lon="8.6319533"><ele>250.0</ele><time>2026-04-12T10:29:43.163Z</time></trkpt><trkpt lat="45.6163608" lon="8.6321267"><ele>248.66666666666666</ele><time>2026-04-12T10:29:44.205Z</time></trkpt><trkpt lat="45.6162141" lon="8.632302"><ele>247.33333333333331</ele><time>2026-04-12T10:29:45.185Z</time></trkpt><trkpt lat="45.6160667" lon="8.6324775"><ele>246.0</ele><time>2026-04-12T10:29:46.2Z</time></trkpt><trkpt lat="45.6159215" lon="8.6326507"><ele>246.0</ele><time>2026-04-12T10:29:47.176Z</time></trkpt><trkpt lat="45.6157775" lon="8.6328214"><ele>246.0</ele><time>2026-04-12T10:29:48.171Z</time></trkpt><trkpt lat="45.6156349" lon="8.6329874"><ele>246.0</ele><time>2026-04-12T10:29:49.186Z</time></trkpt><trkpt lat="45.6154919" lon="8.6331622"><ele>246.0</ele><time>2026-04-12T10:29:50.213Z</time></trkpt><trkpt lat="45.6153509" lon="8.6333334"><ele>246.0</ele><time>2026-04-12T10:29:51.21Z</time></trkpt><trkpt lat="45.6152087" lon="8.6335055"><ele>246.0</ele><time>2026-04-12T10:29:52.17Z</time></trkpt><trkpt lat="45.6150658" lon="8.633674"><ele>245.66666666666669</ele><time>2026-04-12T10:29:53.171Z</time></trkpt><trkpt lat="45.6149259" lon="8.6338422"><ele>245.33333333333334</ele><time>2026-04-12T10:29:54.189Z</time></trkpt><trkpt lat="45.6147877" lon="8.6340065"><ele>245.0</ele><time>2026-04-12T10:29:55.197Z</time></trkpt><trkpt lat="45.6146503" lon="8.6341679"><ele>245.0</ele><time>2026-04-12T10:29:56.184Z</time></trkpt><trkpt lat="45.6145206" lon="8.6343127"><ele>245.0</ele><time>2026-04-12T10:29:57.177Z</time></trkpt><trkpt lat="45.6143978" lon="8.6344567"><ele>245.0</ele><time>2026-04-12T10:29:58.181Z</time></trkpt><trkpt lat="45.6142722" lon="8.6345957"><ele>245.0</ele><time>2026-04-12T10:29:59.193Z</time></trkpt><trkpt lat="45.61415" lon="8.634735"><ele>245.0</ele><time>2026-04-12T10:30:00.222Z</time></trkpt><trkpt lat="45.614039" lon="8.6348622"><ele>245.0</ele><time>2026-04-12T10:30:01.177Z</time></trkpt><trkpt lat="45.6139301" lon="8.6349813"><ele>245.0</ele><time>2026-04-12T10:30:02.172Z</time></trkpt><trkpt lat="45.6138295" lon="8.6350901"><ele>245.0</ele><time>2026-04-12T10:30:03.181Z</time></trkpt><trkpt lat="45.6137305" lon="8.6351651"><ele>245.0</ele><time>2026-04-12T10:30:04.188Z</time></trkpt><trkpt lat="45.6136279" lon="8.6351929"><ele>245.0</ele><time>2026-04-12T10:30:05.18Z</time></trkpt><trkpt lat="45.613527" lon="8.6351708"><ele>245.0</ele><time>2026-04-12T10:30:06.178Z</time></trkpt><trkpt lat="45.6134331" lon="8.6350886"><ele>245.0</ele><time>2026-04-12T10:30:07.173Z</time></trkpt><trkpt lat="45.6133464" lon="8.6350028"><ele>245.2</ele><time>2026-04-12T10:30:08.181Z</time></trkpt><trkpt lat="45.6132539" lon="8.634971"><ele>245.4</ele><time>2026-04-12T10:30:09.218Z</time></trkpt><trkpt lat="45.613158" lon="8.6349803"><ele>245.60000000000002</ele><time>2026-04-12T10:30:10.186Z</time></trkpt><trkpt lat="45.6130597" lon="8.6350322"><ele>245.8</ele><time>2026-04-12T10:30:11.187Z</time></trkpt><trkpt lat="45.6129707" lon="8.6350935"><ele>246.0</ele><time>2026-04-12T10:30:12.178Z</time></trkpt><trkpt lat="45.6128892" lon="8.6352326"><ele>245.25</ele><time>2026-04-12T10:30:13.185Z</time></trkpt><trkpt lat="45.6127968" lon="8.6353792"><ele>244.5</ele><time>2026-04-12T10:30:14.16Z</time></trkpt><trkpt lat="45.6127069" lon="8.6355122"><ele>243.75</ele><time>2026-04-12T10:30:15.202Z</time></trkpt><trkpt lat="45.6126225" lon="8.6356407"><ele>243.0</ele><time>2026-04-12T10:30:16.182Z</time></trkpt><trkpt lat="45.6125525" lon="8.6357361"><ele>243.0</ele><time>2026-04-12T10:30:17.178Z</time></trkpt><trkpt lat="45.6124923" lon="8.6358244"><ele>243.0</ele><time>2026-04-12T10:30:18.186Z</time></trkpt><trkpt lat="45.612432" lon="8.6359098"><ele>243.0</ele><time>2026-04-12T10:30:19.179Z</time></trkpt><trkpt lat="45.6123737" lon="8.635987"><ele>243.0</ele><time>2026-04-12T10:30:20.201Z</time></trkpt><trkpt lat="45.6123239" lon="8.636055"><ele>243.0</ele><time>2026-04-12T10:30:21.185Z</time></trkpt><trkpt lat="45.6122725" lon="8.6361297"><ele>243.0</ele><time>2026-04-12T10:30:22.178Z</time></trkpt><trkpt lat="45.6122269" lon="8.6362001"><ele>243.4</ele><time>2026-04-12T10:30:23.187Z</time></trkpt><trkpt lat="45.6121456" lon="8.6363281"><ele>243.8</ele><time>2026-04-12T10:30:25.182Z</time></trkpt><trkpt lat="45.6120722" lon="8.6364255"><ele>244.2</ele><time>2026-04-12T10:30:27.184Z</time></trkpt><trkpt lat="45.6120152" lon="8.6364757"><ele>244.6</ele><time>2026-04-12T10:30:29.184Z</time></trkpt><trkpt lat="45.6119364" lon="8.6365343"><ele>245.0</ele><time>2026-04-12T10:30:45.208Z</time></trkpt><trkpt lat="45.6118251" lon="8.6365649"><ele>245.0</ele><time>2026-04-12T10:30:47.179Z</time></trkpt><trkpt lat="45.6117047" lon="8.636577"><ele>245.0</ele><time>2026-04-12T10:30:48.177Z</time></trkpt><trkpt lat="45.6115355" lon="8.6365798"><ele>245.0</ele><time>2026-04-12T10:30:49.169Z</time></trkpt><trkpt lat="45.6113685" lon="8.6365839"><ele>245.0</ele><time>2026-04-12T10:30:50.178Z</time></trkpt><trkpt lat="45.611167" lon="8.636589"><ele>245.0</ele><time>2026-04-12T10:30:51.175Z</time></trkpt><trkpt lat="45.6109674" lon="8.6365891"><ele>245.0</ele><time>2026-04-12T10:30:52.179Z</time></trkpt><trkpt lat="45.6106121" lon="8.6365928"><ele>244.75</ele><time>2026-04-12T10:30:54.186Z</time></trkpt><trkpt lat="45.6104582" lon="8.636589"><ele>244.5</ele><time>2026-04-12T10:30:55.181Z</time></trkpt><trkpt lat="45.6103113" lon="8.636585"><ele>244.25</ele><time>2026-04-12T10:30:56.216Z</time></trkpt><trkpt lat="45.6101646" lon="8.6365825"><ele>244.0</ele><time>2026-04-12T10:30:57.182Z</time></trkpt><trkpt lat="45.6100135" lon="8.6365834"><ele>244.25</ele><time>2026-04-12T10:30:58.179Z</time></trkpt><trkpt lat="45.6098633" lon="8.6365845"><ele>244.5</ele><time>2026-04-12T10:30:59.179Z</time></trkpt><trkpt lat="45.6097188" lon="8.6365796"><ele>244.75</ele><time>2026-04-12T10:31:00.168Z</time></trkpt><trkpt lat="45.6095794" lon="8.6365798"><ele>245.0</ele><time>2026-04-12T10:31:01.172Z</time></trkpt><trkpt lat="45.6094437" lon="8.6365816"><ele>245.0</ele><time>2026-04-12T10:31:02.176Z</time></trkpt><trkpt lat="45.6093129" lon="8.6365837"><ele>245.0</ele><time>2026-04-12T10:31:03.179Z</time></trkpt><trkpt lat="45.6091935" lon="8.6365837"><ele>245.0</ele><time>2026-04-12T10:31:04.207Z</time></trkpt><trkpt lat="45.6090822" lon="8.63659"><ele>245.0</ele><time>2026-04-12T10:31:05.19Z</time></trkpt><trkpt lat="45.6089715" lon="8.6365909"><ele>245.0</ele><time>2026-04-12T10:31:06.181Z</time></trkpt><trkpt lat="45.6088621" lon="8.6365912"><ele>245.0</ele><time>2026-04-12T10:31:07.168Z</time></trkpt><trkpt lat="45.6087546" lon="8.6365917"><ele>245.0</ele><time>2026-04-12T10:31:08.177Z</time></trkpt><trkpt lat="45.6086525" lon="8.6365842"><ele>245.0</ele><time>2026-04-12T10:31:09.219Z</time></trkpt><trkpt lat="45.6085495" lon="8.6365824"><ele>245.0</ele><time>2026-04-12T10:31:10.182Z</time></trkpt><trkpt lat="45.6084454" lon="8.6365835"><ele>244.8</ele><time>2026-04-12T10:31:11.213Z</time></trkpt><trkpt lat="45.6083407" lon="8.6365851"><ele>244.6</ele><time>2026-04-12T10:31:12.179Z</time></trkpt><trkpt lat="45.608233" lon="8.6365824"><ele>244.39999999999998</ele><time>2026-04-12T10:31:13.182Z</time></trkpt><trkpt lat="45.6081227" lon="8.6365766"><ele>244.2</ele><time>2026-04-12T10:31:14.212Z</time></trkpt><trkpt lat="45.6080128" lon="8.6365845"><ele>244.0</ele><time>2026-04-12T10:31:15.182Z</time></trkpt><trkpt lat="45.6078999" lon="8.6365867"><ele>244.0</ele><time>2026-04-12T10:31:16.218Z</time></trkpt><trkpt lat="45.6077899" lon="8.6365883"><ele>243.99999999999997</ele><time>2026-04-12T10:31:17.177Z</time></trkpt><trkpt lat="45.6076835" lon="8.6365921"><ele>243.99999999999997</ele><time>2026-04-12T10:31:18.187Z</time></trkpt><trkpt lat="45.6075921" lon="8.636594"><ele>244.0</ele><time>2026-04-12T10:31:19.221Z</time></trkpt><trkpt lat="45.6075145" lon="8.6365966"><ele>244.0</ele><time>2026-04-12T10:31:20.181Z</time></trkpt><trkpt lat="45.6074492" lon="8.6365971"><ele>243.99999999999997</ele><time>2026-04-12T10:31:21.224Z</time></trkpt><trkpt lat="45.607379" lon="8.6365967"><ele>244.0</ele><time>2026-04-12T10:31:22.185Z</time></trkpt><trkpt lat="45.6073051" lon="8.6365971"><ele>244.0</ele><time>2026-04-12T10:31:23.18Z</time></trkpt><trkpt lat="45.6072178" lon="8.6365963"><ele>244.0</ele><time>2026-04-12T10:31:24.199Z</time></trkpt><trkpt lat="45.6071235" lon="8.636595"><ele>243.99999999999997</ele><time>2026-04-12T10:31:25.185Z</time></trkpt><trkpt lat="45.607025" lon="8.6365959"><ele>244.0</ele><time>2026-04-12T10:31:26.216Z</time></trkpt><trkpt lat="45.6069226" lon="8.6365885"><ele>243.5</ele><time>2026-04-12T10:31:27.182Z</time></trkpt><trkpt lat="45.6068187" lon="8.6365849"><ele>243.0</ele><time>2026-04-12T10:31:28.181Z</time></trkpt><trkpt lat="45.6067057" lon="8.6365874"><ele>242.5</ele><time>2026-04-12T10:31:29.235Z</time></trkpt><trkpt lat="45.6065808" lon="8.6365867"><ele>242.0</ele><time>2026-04-12T10:31:30.188Z</time></trkpt><trkpt lat="45.606454" lon="8.6365841"><ele>242.0</ele><time>2026-04-12T10:31:31.178Z</time></trkpt><trkpt lat="45.6063292" lon="8.6365841"><ele>242.0</ele><time>2026-04-12T10:31:32.182Z</time></trkpt><trkpt lat="45.6062009" lon="8.6365899"><ele>242.0</ele><time>2026-04-12T10:31:33.179Z</time></trkpt><trkpt lat="45.6060758" lon="8.6365897"><ele>242.0</ele><time>2026-04-12T10:31:34.175Z</time></trkpt><trkpt lat="45.6059515" lon="8.6365911"><ele>242.25</ele><time>2026-04-12T10:31:35.188Z</time></trkpt><trkpt lat="45.6058284" lon="8.6365945"><ele>242.5</ele><time>2026-04-12T10:31:36.209Z</time></trkpt><trkpt lat="45.6057" lon="8.6365969"><ele>242.75</ele><time>2026-04-12T10:31:37.18Z</time></trkpt><trkpt lat="45.6055682" lon="8.6366002"><ele>243.0</ele><time>2026-04-12T10:31:38.177Z</time></trkpt><trkpt lat="45.6054373" lon="8.6366"><ele>243.0</ele><time>2026-04-12T10:31:39.186Z</time></trkpt><trkpt lat="45.6052993" lon="8.6366014"><ele>243.0</ele><time>2026-04-12T10:31:40.22Z</time></trkpt><trkpt lat="45.6051629" lon="8.6365969"><ele>243.0</ele><time>2026-04-12T10:31:41.21Z</time></trkpt><trkpt lat="45.605025" lon="8.6366007"><ele>243.0</ele><time>2026-04-12T10:31:42.178Z</time></trkpt><trkpt lat="45.6048984" lon="8.6366046"><ele>243.0</ele><time>2026-04-12T10:31:43.182Z</time></trkpt><trkpt lat="45.6047764" lon="8.6366078"><ele>243.0</ele><time>2026-04-12T10:31:44.19Z</time></trkpt><trkpt lat="45.6046685" lon="8.6366105"><ele>243.0</ele><time>2026-04-12T10:31:45.223Z</time></trkpt><trkpt lat="45.6045636" lon="8.6366126"><ele>243.0</ele><time>2026-04-12T10:31:46.194Z</time></trkpt><trkpt lat="45.6044616" lon="8.6366104"><ele>243.0</ele><time>2026-04-12T10:31:47.181Z</time></trkpt><trkpt lat="45.6043414" lon="8.6366095"><ele>242.75</ele><time>2026-04-12T10:31:48.177Z</time></trkpt><trkpt lat="45.6042156" lon="8.6366092"><ele>242.5</ele><time>2026-04-12T10:31:49.178Z</time></trkpt><trkpt lat="45.6040958" lon="8.6366125"><ele>242.25</ele><time>2026-04-12T10:31:50.173Z</time></trkpt><trkpt lat="45.6039783" lon="8.6366152"><ele>242.0</ele><time>2026-04-12T10:31:51.18Z</time></trkpt><trkpt lat="45.6038564" lon="8.636619"><ele>242.0</ele><time>2026-04-12T10:31:52.181Z</time></trkpt><trkpt lat="45.6037404" lon="8.6366142"><ele>242.0</ele><time>2026-04-12T10:31:53.179Z</time></trkpt><trkpt lat="45.6036223" lon="8.6366142"><ele>242.0</ele><time>2026-04-12T10:31:54.181Z</time></trkpt><trkpt lat="45.603517" lon="8.636611"><ele>242.0</ele><time>2026-04-12T10:31:55.179Z</time></trkpt><trkpt lat="45.6034155" lon="8.6366133"><ele>242.0</ele><time>2026-04-12T10:31:56.172Z</time></trkpt><trkpt lat="45.6033191" lon="8.6366121"><ele>241.83333333333334</ele><time>2026-04-12T10:31:57.178Z</time></trkpt><trkpt lat="45.6032287" lon="8.6366142"><ele>241.66666666666669</ele><time>2026-04-12T10:31:58.176Z</time></trkpt><trkpt lat="45.6031499" lon="8.6366152"><ele>241.5</ele><time>2026-04-12T10:31:59.175Z</time></trkpt><trkpt lat="45.6030745" lon="8.6366173"><ele>241.33333333333331</ele><time>2026-04-12T10:32:00.18Z</time></trkpt><trkpt lat="45.6030094" lon="8.6366163"><ele>241.16666666666666</ele><time>2026-04-12T10:32:01.192Z</time></trkpt><trkpt lat="45.6029038" lon="8.6365987"><ele>241.0</ele><time>2026-04-12T10:32:03.182Z</time></trkpt><trkpt lat="45.6028271" lon="8.636585"><ele>240.8</ele><time>2026-04-12T10:32:05.176Z</time></trkpt><trkpt lat="45.6027621" lon="8.636586"><ele>240.60000000000002</ele><time>2026-04-12T10:32:08.213Z</time></trkpt><trkpt lat="45.602673" lon="8.63668"><ele>240.4</ele><time>2026-04-12T10:32:29.182Z</time></trkpt><trkpt lat="45.6025091" lon="8.6366847"><ele>240.2</ele><time>2026-04-12T10:32:32.182Z</time></trkpt><trkpt lat="45.6024086" lon="8.636681"><ele>240.0</ele><time>2026-04-12T10:32:33.176Z</time></trkpt><trkpt lat="45.6023019" lon="8.636679"><ele>240.0</ele><time>2026-04-12T10:32:34.174Z</time></trkpt><trkpt lat="45.6021821" lon="8.6366782"><ele>240.0</ele><time>2026-04-12T10:32:35.182Z</time></trkpt><trkpt lat="45.6019963" lon="8.6366727"><ele>240.0</ele><time>2026-04-12T10:32:36.192Z</time></trkpt><trkpt lat="45.6018184" lon="8.6366678"><ele>239.66666666666669</ele><time>2026-04-12T10:32:37.187Z</time></trkpt><trkpt lat="45.60164" lon="8.6366616"><ele>239.33333333333334</ele><time>2026-04-12T10:32:38.177Z</time></trkpt><trkpt lat="45.6014624" lon="8.6366598"><ele>239.0</ele><time>2026-04-12T10:32:39.175Z</time></trkpt><trkpt lat="45.6012982" lon="8.6366661"><ele>239.0</ele><time>2026-04-12T10:32:40.184Z</time></trkpt><trkpt lat="45.6011442" lon="8.636665"><ele>239.0</ele><time>2026-04-12T10:32:41.18Z</time></trkpt><trkpt lat="45.6009982" lon="8.6366684"><ele>239.0</ele><time>2026-04-12T10:32:42.18Z</time></trkpt><trkpt lat="45.6008507" lon="8.6366719"><ele>239.0</ele><time>2026-04-12T10:32:43.169Z</time></trkpt><trkpt lat="45.6007311" lon="8.6366642"><ele>239.0</ele><time>2026-04-12T10:32:44.223Z</time></trkpt><trkpt lat="45.6006168" lon="8.636656"><ele>238.99999999999997</ele><time>2026-04-12T10:32:45.182Z</time></trkpt><trkpt lat="45.6004948" lon="8.6366559"><ele>238.99999999999997</ele><time>2026-04-12T10:32:46.193Z</time></trkpt><trkpt lat="45.600384" lon="8.636651"><ele>239.0</ele><time>2026-04-12T10:32:47.178Z</time></trkpt><trkpt lat="45.6002854" lon="8.6366441"><ele>239.0</ele><time>2026-04-12T10:32:48.169Z</time></trkpt><trkpt lat="45.600198" lon="8.6366368"><ele>239.16666666666669</ele><time>2026-04-12T10:32:49.173Z</time></trkpt><trkpt lat="45.6001179" lon="8.6366395"><ele>239.33333333333334</ele><time>2026-04-12T10:32:50.176Z</time></trkpt><trkpt lat="45.6000454" lon="8.6366369"><ele>239.5</ele><time>2026-04-12T10:32:51.179Z</time></trkpt><trkpt lat="45.59998" lon="8.6366358"><ele>239.66666666666669</ele><time>2026-04-12T10:32:52.174Z</time></trkpt><trkpt lat="45.5998676" lon="8.6366363"><ele>239.83333333333334</ele><time>2026-04-12T10:32:54.19Z</time></trkpt><trkpt lat="45.5997766" lon="8.6365835"><ele>240.0</ele><time>2026-04-12T10:32:56.182Z</time></trkpt><trkpt lat="45.599707" lon="8.636455"><ele>240.0</ele><time>2026-04-12T10:32:58.179Z</time></trkpt><trkpt lat="45.599691" lon="8.6363575"><ele>240.0</ele><time>2026-04-12T10:32:59.181Z</time></trkpt><trkpt lat="45.599679" lon="8.6362508"><ele>240.0</ele><time>2026-04-12T10:33:00.166Z</time></trkpt><trkpt lat="45.5996627" lon="8.6361334"><ele>240.0</ele><time>2026-04-12T10:33:01.186Z</time></trkpt><trkpt lat="45.5996475" lon="8.6360032"><ele>240.0</ele><time>2026-04-12T10:33:02.169Z</time></trkpt><trkpt lat="45.5996308" lon="8.6358745"><ele>240.0</ele><time>2026-04-12T10:33:03.178Z</time></trkpt><trkpt lat="45.5996125" lon="8.6357481"><ele>240.2</ele><time>2026-04-12T10:33:04.183Z</time></trkpt><trkpt lat="45.5995937" lon="8.6356101"><ele>240.4</ele><time>2026-04-12T10:33:05.178Z</time></trkpt><trkpt lat="45.5995734" lon="8.6354762"><ele>240.60000000000002</ele><time>2026-04-12T10:33:06.178Z</time></trkpt><trkpt lat="45.5995569" lon="8.6353491"><ele>240.8</ele><time>2026-04-12T10:33:07.179Z</time></trkpt><trkpt lat="45.5995248" lon="8.6352228"><ele>241.0</ele><time>2026-04-12T10:33:08.174Z</time></trkpt><trkpt lat="45.5994295" lon="8.6349904"><ele>240.20000000000002</ele><time>2026-04-12T10:33:10.175Z</time></trkpt><trkpt lat="45.5993604" lon="8.634887"><ele>239.40000000000003</ele><time>2026-04-12T10:33:11.192Z</time></trkpt><trkpt lat="45.5992913" lon="8.6347839"><ele>238.6</ele><time>2026-04-12T10:33:12.163Z</time></trkpt><trkpt lat="45.5992225" lon="8.6346734"><ele>237.8</ele><time>2026-04-12T10:33:13.183Z</time></trkpt><trkpt lat="45.5991462" lon="8.6345691"><ele>237.0</ele><time>2026-04-12T10:33:14.226Z</time></trkpt><trkpt lat="45.5990696" lon="8.6344515"><ele>236.75</ele><time>2026-04-12T10:33:15.226Z</time></trkpt><trkpt lat="45.5989919" lon="8.6343379"><ele>236.5</ele><time>2026-04-12T10:33:16.19Z</time></trkpt><trkpt lat="45.5989072" lon="8.6342202"><ele>236.25</ele><time>2026-04-12T10:33:17.176Z</time></trkpt><trkpt lat="45.5988282" lon="8.6340999"><ele>236.0</ele><time>2026-04-12T10:33:18.184Z</time></trkpt><trkpt lat="45.5987553" lon="8.6339897"><ele>236.0</ele><time>2026-04-12T10:33:19.196Z</time></trkpt><trkpt lat="45.598683" lon="8.6338821"><ele>236.00000000000003</ele><time>2026-04-12T10:33:20.18Z</time></trkpt><trkpt lat="45.5986127" lon="8.6337822"><ele>236.00000000000003</ele><time>2026-04-12T10:33:21.186Z</time></trkpt><trkpt lat="45.5985378" lon="8.6336832"><ele>236.0</ele><time>2026-04-12T10:33:22.176Z</time></trkpt><trkpt lat="45.5984757" lon="8.6335718"><ele>236.0</ele><time>2026-04-12T10:33:23.181Z</time></trkpt><trkpt lat="45.5984116" lon="8.6334613"><ele>236.16666666666669</ele><time>2026-04-12T10:33:24.188Z</time></trkpt><trkpt lat="45.5983514" lon="8.6333759"><ele>236.33333333333334</ele><time>2026-04-12T10:33:25.175Z</time></trkpt><trkpt lat="45.5982856" lon="8.6333035"><ele>236.5</ele><time>2026-04-12T10:33:26.184Z</time></trkpt><trkpt lat="45.5982138" lon="8.6332566"><ele>236.66666666666669</ele><time>2026-04-12T10:33:27.179Z</time></trkpt><trkpt lat="45.5981287" lon="8.633241"><ele>236.83333333333334</ele><time>2026-04-12T10:33:28.178Z</time></trkpt><trkpt lat="45.5980378" lon="8.6332436"><ele>237.0</ele><time>2026-04-12T10:33:29.218Z</time></trkpt><trkpt lat="45.5979419" lon="8.6332513"><ele>237.0</ele><time>2026-04-12T10:33:30.218Z</time></trkpt><trkpt lat="45.5978443" lon="8.6332701"><ele>237.0</ele><time>2026-04-12T10:33:31.183Z</time></trkpt><trkpt lat="45.5977485" lon="8.6333192"><ele>237.0</ele><time>2026-04-12T10:33:32.182Z</time></trkpt><trkpt lat="45.5976568" lon="8.6333808"><ele>237.0</ele><time>2026-04-12T10:33:33.18Z</time></trkpt><trkpt lat="45.5975674" lon="8.6334469"><ele>237.0</ele><time>2026-04-12T10:33:34.187Z</time></trkpt><trkpt lat="45.5974942" lon="8.6335043"><ele>237.2</ele><time>2026-04-12T10:33:35.212Z</time></trkpt><trkpt lat="45.5974215" lon="8.6335606"><ele>237.39999999999998</ele><time>2026-04-12T10:33:36.183Z</time></trkpt><trkpt lat="45.5973477" lon="8.6336268"><ele>237.60000000000002</ele><time>2026-04-12T10:33:37.178Z</time></trkpt><trkpt lat="45.5972607" lon="8.6336982"><ele>237.8</ele><time>2026-04-12T10:33:38.177Z</time></trkpt><trkpt lat="45.5971667" lon="8.6337783"><ele>238.0</ele><time>2026-04-12T10:33:39.175Z</time></trkpt><trkpt lat="45.5970681" lon="8.6338612"><ele>237.60000000000002</ele><time>2026-04-12T10:33:40.178Z</time></trkpt><trkpt lat="45.5969662" lon="8.6339484"><ele>237.20000000000002</ele><time>2026-04-12T10:33:41.183Z</time></trkpt><trkpt lat="45.5968739" lon="8.6340259"><ele>236.8</ele><time>2026-04-12T10:33:42.185Z</time></trkpt><trkpt lat="45.5967842" lon="8.6341113"><ele>236.4</ele><time>2026-04-12T10:33:43.185Z</time></trkpt><trkpt lat="45.5966997" lon="8.6341799"><ele>236.0</ele><time>2026-04-12T10:33:44.173Z</time></trkpt><trkpt lat="45.5966223" lon="8.6342295"><ele>236.0</ele><time>2026-04-12T10:33:45.181Z</time></trkpt><trkpt lat="45.5965506" lon="8.6342603"><ele>236.0</ele><time>2026-04-12T10:33:46.177Z</time></trkpt><trkpt lat="45.5964855" lon="8.6342741"><ele>236.0</ele><time>2026-04-12T10:33:47.176Z</time></trkpt><trkpt lat="45.5964237" lon="8.634311"><ele>236.0</ele><time>2026-04-12T10:33:48.174Z</time></trkpt><trkpt lat="45.596366" lon="8.634365"><ele>236.0</ele><time>2026-04-12T10:33:49.17Z</time></trkpt><trkpt lat="45.5963073" lon="8.6344037"><ele>236.0</ele><time>2026-04-12T10:33:50.202Z</time></trkpt><trkpt lat="45.5962277" lon="8.6344095"><ele>236.0</ele><time>2026-04-12T10:33:51.168Z</time></trkpt><trkpt lat="45.5961338" lon="8.6344141"><ele>235.4</ele><time>2026-04-12T10:33:52.178Z</time></trkpt><trkpt lat="45.5960402" lon="8.6344234"><ele>234.8</ele><time>2026-04-12T10:33:53.181Z</time></trkpt><trkpt lat="45.5959359" lon="8.6344246"><ele>234.20000000000002</ele><time>2026-04-12T10:33:54.19Z</time></trkpt><trkpt lat="45.5958273" lon="8.6344314"><ele>233.60000000000002</ele><time>2026-04-12T10:33:55.182Z</time></trkpt><trkpt lat="45.5957246" lon="8.6344298"><ele>233.0</ele><time>2026-04-12T10:33:56.22Z</time></trkpt><trkpt lat="45.5956345" lon="8.6344278"><ele>233.0</ele><time>2026-04-12T10:33:57.179Z</time></trkpt><trkpt lat="45.5955086" lon="8.6344289"><ele>233.0</ele><time>2026-04-12T10:33:59.214Z</time></trkpt><trkpt lat="45.5954126" lon="8.6344222"><ele>233.0</ele><time>2026-04-12T10:34:01.231Z</time></trkpt><trkpt lat="45.5953165" lon="8.6344341"><ele>233.0</ele><time>2026-04-12T10:34:03.177Z</time></trkpt><trkpt lat="45.5952666" lon="8.6345429"><ele>233.0</ele><time>2026-04-12T10:34:05.171Z</time></trkpt><trkpt lat="45.5952515" lon="8.634639"><ele>232.8</ele><time>2026-04-12T10:34:06.177Z</time></trkpt><trkpt lat="45.5952236" lon="8.6347429"><ele>232.60000000000002</ele><time>2026-04-12T10:34:07.187Z</time></trkpt><trkpt lat="45.5951799" lon="8.6348446"><ele>232.39999999999998</ele><time>2026-04-12T10:34:08.179Z</time></trkpt><trkpt lat="45.5951267" lon="8.6349522"><ele>232.2</ele><time>2026-04-12T10:34:09.177Z</time></trkpt><trkpt lat="45.5950709" lon="8.6350704"><ele>232.0</ele><time>2026-04-12T10:34:10.211Z</time></trkpt><trkpt lat="45.5950176" lon="8.6351912"><ele>232.0</ele><time>2026-04-12T10:34:11.167Z</time></trkpt><trkpt lat="45.5949741" lon="8.6353232"><ele>232.0</ele><time>2026-04-12T10:34:12.18Z</time></trkpt><trkpt lat="45.5949421" lon="8.6354879"><ele>232.0</ele><time>2026-04-12T10:34:13.184Z</time></trkpt><trkpt lat="45.5949177" lon="8.6356823"><ele>232.0</ele><time>2026-04-12T10:34:14.185Z</time></trkpt><trkpt lat="45.5948979" lon="8.6358844"><ele>232.0</ele><time>2026-04-12T10:34:15.22Z</time></trkpt><trkpt lat="45.5948812" lon="8.6360774"><ele>232.0</ele><time>2026-04-12T10:34:16.221Z</time></trkpt><trkpt lat="45.5948641" lon="8.636259"><ele>232.0</ele><time>2026-04-12T10:34:17.179Z</time></trkpt><trkpt lat="45.5948286" lon="8.6364296"><ele>232.0</ele><time>2026-04-12T10:34:18.179Z</time></trkpt><trkpt lat="45.5947501" lon="8.636595"><ele>232.25</ele><time>2026-04-12T10:34:19.182Z</time></trkpt><trkpt lat="45.5946491" lon="8.6367593"><ele>232.5</ele><time>2026-04-12T10:34:20.191Z</time></trkpt><trkpt lat="45.5945557" lon="8.6369211"><ele>232.75</ele><time>2026-04-12T10:34:21.217Z</time></trkpt><trkpt lat="45.5944773" lon="8.6370818"><ele>233.0</ele><time>2026-04-12T10:34:22.177Z</time></trkpt><trkpt lat="45.5944266" lon="8.6372456"><ele>231.5</ele><time>2026-04-12T10:34:23.18Z</time></trkpt><trkpt lat="45.5943882" lon="8.6374045"><ele>230.0</ele><time>2026-04-12T10:34:24.192Z</time></trkpt><trkpt lat="45.5943487" lon="8.6375541"><ele>228.5</ele><time>2026-04-12T10:34:25.211Z</time></trkpt><trkpt lat="45.5942765" lon="8.6376958"><ele>227.0</ele><time>2026-04-12T10:34:26.165Z</time></trkpt><trkpt lat="45.5941839" lon="8.6377958"><ele>224.75</ele><time>2026-04-12T10:34:27.174Z</time></trkpt><trkpt lat="45.5940646" lon="8.6378802"><ele>222.5</ele><time>2026-04-12T10:34:28.165Z</time></trkpt><trkpt lat="45.5939259" lon="8.6379492"><ele>220.25</ele><time>2026-04-12T10:34:29.18Z</time></trkpt><trkpt lat="45.5937755" lon="8.6380028"><ele>218.0</ele><time>2026-04-12T10:34:30.177Z</time></trkpt><trkpt lat="45.5936249" lon="8.6380535"><ele>218.0</ele><time>2026-04-12T10:34:31.203Z</time></trkpt><trkpt lat="45.5934889" lon="8.6380976"><ele>218.0</ele><time>2026-04-12T10:34:32.175Z</time></trkpt><trkpt lat="45.5933561" lon="8.6381448"><ele>218.0</ele><time>2026-04-12T10:34:33.222Z</time></trkpt><trkpt lat="45.5932272" lon="8.6381893"><ele>218.0</ele><time>2026-04-12T10:34:34.186Z</time></trkpt><trkpt lat="45.5931124" lon="8.6382245"><ele>218.0</ele><time>2026-04-12T10:34:35.22Z</time></trkpt><trkpt lat="45.5929964" lon="8.638263"><ele>218.0</ele><time>2026-04-12T10:34:36.217Z</time></trkpt><trkpt lat="45.5928872" lon="8.6383059"><ele>218.0</ele><time>2026-04-12T10:34:37.179Z</time></trkpt><trkpt lat="45.5927736" lon="8.6383435"><ele>218.0</ele><time>2026-04-12T10:34:38.174Z</time></trkpt><trkpt lat="45.5925911" lon="8.6384156"><ele>217.8</ele><time>2026-04-12T10:34:40.198Z</time></trkpt><trkpt lat="45.5925213" lon="8.6384724"><ele>217.60000000000002</ele><time>2026-04-12T10:34:41.184Z</time></trkpt><trkpt lat="45.5924886" lon="8.6386227"><ele>217.39999999999998</ele><time>2026-04-12T10:34:43.176Z</time></trkpt><trkpt lat="45.5925612" lon="8.6387503"><ele>217.2</ele><time>2026-04-12T10:34:45.18Z</time></trkpt><trkpt lat="45.5926563" lon="8.6388337"><ele>217.0</ele><time>2026-04-12T10:34:47.188Z</time></trkpt><trkpt lat="45.5927455" lon="8.6389557"><ele>216.6</ele><time>2026-04-12T10:34:49.22Z</time></trkpt><trkpt lat="45.5928189" lon="8.6392033"><ele>216.2</ele><time>2026-04-12T10:34:52.184Z</time></trkpt><trkpt lat="45.5928384" lon="8.6393082"><ele>215.8</ele><time>2026-04-12T10:34:53.182Z</time></trkpt><trkpt lat="45.5928619" lon="8.6394253"><ele>215.4</ele><time>2026-04-12T10:34:54.194Z</time></trkpt><trkpt lat="45.5928848" lon="8.6395563"><ele>215.0</ele><time>2026-04-12T10:34:55.221Z</time></trkpt><trkpt lat="45.592906" lon="8.6396936"><ele>215.00000000000003</ele><time>2026-04-12T10:34:56.179Z</time></trkpt><trkpt lat="45.5929254" lon="8.63982"><ele>215.0</ele><time>2026-04-12T10:34:57.18Z</time></trkpt><trkpt lat="45.5929415" lon="8.6399351"><ele>215.0</ele><time>2026-04-12T10:34:58.181Z</time></trkpt><trkpt lat="45.5929565" lon="8.6400374"><ele>215.0</ele><time>2026-04-12T10:34:59.187Z</time></trkpt><trkpt lat="45.5929658" lon="8.6401319"><ele>215.00000000000003</ele><time>2026-04-12T10:35:00.187Z</time></trkpt><trkpt lat="45.5929447" lon="8.6403002"><ele>215.0</ele><time>2026-04-12T10:35:02.16Z</time></trkpt><trkpt lat="45.5929656" lon="8.6404434"><ele>214.28571428571428</ele><time>2026-04-12T10:35:04.215Z</time></trkpt><trkpt lat="45.5930084" lon="8.6405172"><ele>213.57142857142858</ele><time>2026-04-12T10:35:05.215Z</time></trkpt><trkpt lat="45.5930519" lon="8.6406003"><ele>212.85714285714286</ele><time>2026-04-12T10:35:06.179Z</time></trkpt><trkpt lat="45.5930797" lon="8.6406841"><ele>212.14285714285714</ele><time>2026-04-12T10:35:07.177Z</time></trkpt><trkpt lat="45.593103" lon="8.640779"><ele>211.42857142857144</ele><time>2026-04-12T10:35:08.192Z</time></trkpt><trkpt lat="45.5931228" lon="8.6408802"><ele>210.71428571428572</ele><time>2026-04-12T10:35:09.186Z</time></trkpt><trkpt lat="45.5931411" lon="8.6409832"><ele>210.0</ele><time>2026-04-12T10:35:10.224Z</time></trkpt><trkpt lat="45.593158" lon="8.6410719"><ele>209.66666666666666</ele><time>2026-04-12T10:35:11.216Z</time></trkpt><trkpt lat="45.5931796" lon="8.6412362"><ele>209.33333333333331</ele><time>2026-04-12T10:35:13.182Z</time></trkpt><trkpt lat="45.5931952" lon="8.6413237"><ele>209.0</ele><time>2026-04-12T10:35:14.188Z</time></trkpt><trkpt lat="45.5932139" lon="8.6414358"><ele>208.66666666666666</ele><time>2026-04-12T10:35:15.189Z</time></trkpt><trkpt lat="45.593234" lon="8.641552"><ele>208.33333333333331</ele><time>2026-04-12T10:35:16.221Z</time></trkpt><trkpt lat="45.5932532" lon="8.6416713"><ele>208.0</ele><time>2026-04-12T10:35:17.181Z</time></trkpt><trkpt lat="45.5932679" lon="8.6418"><ele>208.0</ele><time>2026-04-12T10:35:18.218Z</time></trkpt><trkpt lat="45.5932902" lon="8.6419401"><ele>208.0</ele><time>2026-04-12T10:35:19.186Z</time></trkpt><trkpt lat="45.5933153" lon="8.6420914"><ele>208.0</ele><time>2026-04-12T10:35:20.183Z</time></trkpt><trkpt lat="45.5933382" lon="8.6422335"><ele>208.0</ele><time>2026-04-12T10:35:21.186Z</time></trkpt><trkpt lat="45.5933606" lon="8.642376"><ele>208.0</ele><time>2026-04-12T10:35:22.173Z</time></trkpt><trkpt lat="45.5933803" lon="8.6425251"><ele>207.60000000000002</ele><time>2026-04-12T10:35:23.181Z</time></trkpt><trkpt lat="45.5934061" lon="8.6426696"><ele>207.20000000000002</ele><time>2026-04-12T10:35:24.189Z</time></trkpt><trkpt lat="45.5934295" lon="8.6428275"><ele>206.8</ele><time>2026-04-12T10:35:25.183Z</time></trkpt><trkpt lat="45.5934563" lon="8.642985"><ele>206.4</ele><time>2026-04-12T10:35:26.192Z</time></trkpt><trkpt lat="45.5934853" lon="8.6431451"><ele>206.0</ele><time>2026-04-12T10:35:27.173Z</time></trkpt><trkpt lat="45.5935137" lon="8.6433094"><ele>205.5</ele><time>2026-04-12T10:35:28.178Z</time></trkpt><trkpt lat="45.593533" lon="8.6434774"><ele>205.0</ele><time>2026-04-12T10:35:29.185Z</time></trkpt><trkpt lat="45.5935502" lon="8.6436429"><ele>204.5</ele><time>2026-04-12T10:35:30.181Z</time></trkpt><trkpt lat="45.5935611" lon="8.6438044"><ele>204.0</ele><time>2026-04-12T10:35:31.185Z</time></trkpt><trkpt lat="45.5935549" lon="8.6439722"><ele>204.0</ele><time>2026-04-12T10:35:32.177Z</time></trkpt><trkpt lat="45.5935368" lon="8.6441332"><ele>204.0</ele><time>2026-04-12T10:35:33.178Z</time></trkpt><trkpt lat="45.5935133" lon="8.6442958"><ele>204.0</ele><time>2026-04-12T10:35:34.188Z</time></trkpt><trkpt lat="45.5934836" lon="8.6444737"><ele>204.0</ele><time>2026-04-12T10:35:35.176Z</time></trkpt><trkpt lat="45.5934589" lon="8.6446547"><ele>204.25</ele><time>2026-04-12T10:35:36.166Z</time></trkpt><trkpt lat="45.5934271" lon="8.6448258"><ele>204.5</ele><time>2026-04-12T10:35:37.185Z</time></trkpt><trkpt lat="45.5934087" lon="8.6449762"><ele>204.75</ele><time>2026-04-12T10:35:38.178Z</time></trkpt><trkpt lat="45.5933811" lon="8.6451358"><ele>205.0</ele><time>2026-04-12T10:35:39.171Z</time></trkpt><trkpt lat="45.593355" lon="8.6452924"><ele>204.5</ele><time>2026-04-12T10:35:40.179Z</time></trkpt><trkpt lat="45.5933269" lon="8.6454594"><ele>204.0</ele><time>2026-04-12T10:35:41.181Z</time></trkpt><trkpt lat="45.5932968" lon="8.6456217"><ele>203.5</ele><time>2026-04-12T10:35:42.176Z</time></trkpt><trkpt lat="45.5932639" lon="8.6457963"><ele>203.0</ele><time>2026-04-12T10:35:43.182Z</time></trkpt><trkpt lat="45.5932284" lon="8.6459861"><ele>203.0</ele><time>2026-04-12T10:35:44.188Z</time></trkpt><trkpt lat="45.5931944" lon="8.6461731"><ele>203.0</ele><time>2026-04-12T10:35:45.186Z</time></trkpt><trkpt lat="45.5931625" lon="8.6463651"><ele>203.0</ele><time>2026-04-12T10:35:46.184Z</time></trkpt><trkpt lat="45.5931287" lon="8.6465648"><ele>203.0</ele><time>2026-04-12T10:35:47.184Z</time></trkpt><trkpt lat="45.5930932" lon="8.6467622"><ele>202.75</ele><time>2026-04-12T10:35:48.185Z</time></trkpt><trkpt lat="45.593059" lon="8.6469655"><ele>202.5</ele><time>2026-04-12T10:35:49.173Z</time></trkpt><trkpt lat="45.5930237" lon="8.6471685"><ele>202.25</ele><time>2026-04-12T10:35:50.178Z</time></trkpt><trkpt lat="45.5929913" lon="8.6473738"><ele>202.0</ele><time>2026-04-12T10:35:51.184Z</time></trkpt><trkpt lat="45.5929549" lon="8.6475726"><ele>202.0</ele><time>2026-04-12T10:35:52.175Z</time></trkpt><trkpt lat="45.592923" lon="8.6477693"><ele>202.0</ele><time>2026-04-12T10:35:53.181Z</time></trkpt><trkpt lat="45.5928925" lon="8.6479682"><ele>202.0</ele><time>2026-04-12T10:35:54.181Z</time></trkpt><trkpt lat="45.5928595" lon="8.648179"><ele>202.0</ele><time>2026-04-12T10:35:55.173Z</time></trkpt><trkpt lat="45.5928255" lon="8.6483974"><ele>202.33333333333331</ele><time>2026-04-12T10:35:56.176Z</time></trkpt><trkpt lat="45.5927879" lon="8.6486102"><ele>202.66666666666669</ele><time>2026-04-12T10:35:57.177Z</time></trkpt><trkpt lat="45.5927527" lon="8.648828"><ele>203.0</ele><time>2026-04-12T10:35:58.175Z</time></trkpt><trkpt lat="45.592719" lon="8.6490449"><ele>203.0</ele><time>2026-04-12T10:35:59.182Z</time></trkpt><trkpt lat="45.5926818" lon="8.6492631"><ele>203.0</ele><time>2026-04-12T10:36:00.183Z</time></trkpt><trkpt lat="45.5926464" lon="8.6495001"><ele>203.0</ele><time>2026-04-12T10:36:01.177Z</time></trkpt><trkpt lat="45.592602" lon="8.6497565"><ele>203.0</ele><time>2026-04-12T10:36:02.185Z</time></trkpt><trkpt lat="45.5925556" lon="8.6500221"><ele>203.0</ele><time>2026-04-12T10:36:03.166Z</time></trkpt><trkpt lat="45.5925061" lon="8.6502882"><ele>203.0</ele><time>2026-04-12T10:36:04.176Z</time></trkpt><trkpt lat="45.5924558" lon="8.6505496"><ele>202.66666666666669</ele><time>2026-04-12T10:36:05.221Z</time></trkpt><trkpt lat="45.5924113" lon="8.6508122"><ele>202.33333333333331</ele><time>2026-04-12T10:36:06.177Z</time></trkpt><trkpt lat="45.5923652" lon="8.651088"><ele>202.0</ele><time>2026-04-12T10:36:07.183Z</time></trkpt><trkpt lat="45.5923201" lon="8.651366"><ele>201.66666666666666</ele><time>2026-04-12T10:36:08.164Z</time></trkpt><trkpt lat="45.5922725" lon="8.6516458"><ele>201.33333333333331</ele><time>2026-04-12T10:36:09.183Z</time></trkpt><trkpt lat="45.5922279" lon="8.6519168"><ele>201.0</ele><time>2026-04-12T10:36:10.183Z</time></trkpt><trkpt lat="45.5921847" lon="8.6521852"><ele>201.0</ele><time>2026-04-12T10:36:11.176Z</time></trkpt><trkpt lat="45.5921425" lon="8.6524369"><ele>201.0</ele><time>2026-04-12T10:36:12.166Z</time></trkpt><trkpt lat="45.5920961" lon="8.6526768"><ele>201.0</ele><time>2026-04-12T10:36:13.182Z</time></trkpt><trkpt lat="45.5920458" lon="8.6529105"><ele>201.33333333333331</ele><time>2026-04-12T10:36:14.184Z</time></trkpt><trkpt lat="45.5919939" lon="8.6531378"><ele>201.66666666666666</ele><time>2026-04-12T10:36:15.181Z</time></trkpt><trkpt lat="45.5919401" lon="8.6533653"><ele>202.0</ele><time>2026-04-12T10:36:16.183Z</time></trkpt><trkpt lat="45.5918968" lon="8.653592"><ele>202.0</ele><time>2026-04-12T10:36:17.189Z</time></trkpt><trkpt lat="45.5918645" lon="8.6538106"><ele>202.0</ele><time>2026-04-12T10:36:18.184Z</time></trkpt><trkpt lat="45.5918538" lon="8.6540056"><ele>202.0</ele><time>2026-04-12T10:36:19.217Z</time></trkpt><trkpt lat="45.5918455" lon="8.6541915"><ele>202.0</ele><time>2026-04-12T10:36:20.18Z</time></trkpt><trkpt lat="45.5918438" lon="8.6543615"><ele>202.0</ele><time>2026-04-12T10:36:21.175Z</time></trkpt><trkpt lat="45.5918421" lon="8.6545154"><ele>202.0</ele><time>2026-04-12T10:36:22.181Z</time></trkpt><trkpt lat="45.5918444" lon="8.6546451"><ele>202.0</ele><time>2026-04-12T10:36:23.187Z</time></trkpt><trkpt lat="45.5918465" lon="8.6547538"><ele>202.0</ele><time>2026-04-12T10:36:24.189Z</time></trkpt><trkpt lat="45.5918534" lon="8.6549173"><ele>202.0</ele><time>2026-04-12T10:36:26.228Z</time></trkpt><trkpt lat="45.5918521" lon="8.6550403"><ele>202.0</ele><time>2026-04-12T10:36:28.187Z</time></trkpt><trkpt lat="45.5918478" lon="8.6551524"><ele>202.0</ele><time>2026-04-12T10:36:30.219Z</time></trkpt><trkpt lat="45.5918423" lon="8.655282"><ele>202.0</ele><time>2026-04-12T10:36:32.189Z</time></trkpt><trkpt lat="45.5918263" lon="8.6554616"><ele>202.0</ele><time>2026-04-12T10:36:34.186Z</time></trkpt><trkpt lat="45.5918233" lon="8.6555924"><ele>202.0</ele><time>2026-04-12T10:36:35.188Z</time></trkpt><trkpt lat="45.5918172" lon="8.6557802"><ele>202.33333333333331</ele><time>2026-04-12T10:36:36.211Z</time></trkpt><trkpt lat="45.5918063" lon="8.6560109"><ele>202.66666666666669</ele><time>2026-04-12T10:36:37.184Z</time></trkpt><trkpt lat="45.5917708" lon="8.6562908"><ele>203.0</ele><time>2026-04-12T10:36:38.18Z</time></trkpt><trkpt lat="45.5917236" lon="8.6566062"><ele>203.5</ele><time>2026-04-12T10:36:39.164Z</time></trkpt><trkpt lat="45.5916768" lon="8.6569613"><ele>204.0</ele><time>2026-04-12T10:36:40.216Z</time></trkpt><trkpt lat="45.5916214" lon="8.6573187"><ele>204.0</ele><time>2026-04-12T10:36:41.181Z</time></trkpt><trkpt lat="45.5915918" lon="8.6576724"><ele>204.0</ele><time>2026-04-12T10:36:42.178Z</time></trkpt><trkpt lat="45.5915565" lon="8.6580096"><ele>204.0</ele><time>2026-04-12T10:36:43.174Z</time></trkpt><trkpt lat="45.5915356" lon="8.6583216"><ele>204.0</ele><time>2026-04-12T10:36:44.175Z</time></trkpt><trkpt lat="45.5915188" lon="8.6586451"><ele>204.0</ele><time>2026-04-12T10:36:45.177Z</time></trkpt><trkpt lat="45.5915045" lon="8.6589579"><ele>203.0</ele><time>2026-04-12T10:36:46.179Z</time></trkpt><trkpt lat="45.5914938" lon="8.6592689"><ele>202.0</ele><time>2026-04-12T10:36:47.184Z</time></trkpt><trkpt lat="45.5914837" lon="8.6595772"><ele>201.0</ele><time>2026-04-12T10:36:48.179Z</time></trkpt><trkpt lat="45.5914764" lon="8.6598747"><ele>198.0</ele><time>2026-04-12T10:36:49.182Z</time></trkpt><trkpt lat="45.5914739" lon="8.6601511"><ele>195.0</ele><time>2026-04-12T10:36:50.181Z</time></trkpt><trkpt lat="45.5914706" lon="8.6604219"><ele>192.0</ele><time>2026-04-12T10:36:51.177Z</time></trkpt><trkpt lat="45.5914649" lon="8.6607018"><ele>190.0</ele><time>2026-04-12T10:36:52.179Z</time></trkpt><trkpt lat="45.5914681" lon="8.6609893"><ele>188.0</ele><time>2026-04-12T10:36:53.171Z</time></trkpt><trkpt lat="45.5915008" lon="8.6615892"><ele>188.0</ele><time>2026-04-12T10:36:55.186Z</time></trkpt><trkpt lat="45.5915301" lon="8.6619127"><ele>188.0</ele><time>2026-04-12T10:36:56.182Z</time></trkpt><trkpt lat="45.5915646" lon="8.662212"><ele>188.0</ele><time>2026-04-12T10:36:57.177Z</time></trkpt><trkpt lat="45.5916032" lon="8.6624822"><ele>188.0</ele><time>2026-04-12T10:36:58.181Z</time></trkpt><trkpt lat="45.59164" lon="8.66273"><ele>188.0</ele><time>2026-04-12T10:36:59.186Z</time></trkpt><trkpt lat="45.5916771" lon="8.6629691"><ele>188.0</ele><time>2026-04-12T10:37:00.183Z</time></trkpt><trkpt lat="45.5917158" lon="8.6631928"><ele>188.0</ele><time>2026-04-12T10:37:01.177Z</time></trkpt><trkpt lat="45.5917534" lon="8.6634048"><ele>188.0</ele><time>2026-04-12T10:37:02.177Z</time></trkpt><trkpt lat="45.5917914" lon="8.6636001"><ele>188.0</ele><time>2026-04-12T10:37:03.187Z</time></trkpt><trkpt lat="45.5918288" lon="8.6637762"><ele>188.0</ele><time>2026-04-12T10:37:04.193Z</time></trkpt><trkpt lat="45.5918625" lon="8.6639417"><ele>188.0</ele><time>2026-04-12T10:37:05.179Z</time></trkpt><trkpt lat="45.5918668" lon="8.6641011"><ele>188.0</ele><time>2026-04-12T10:37:06.197Z</time></trkpt><trkpt lat="45.5918534" lon="8.6642429"><ele>188.0</ele><time>2026-04-12T10:37:07.177Z</time></trkpt><trkpt lat="45.5918315" lon="8.6643715"><ele>188.0</ele><time>2026-04-12T10:37:08.184Z</time></trkpt><trkpt lat="45.5918354" lon="8.6645066"><ele>188.0</ele><time>2026-04-12T10:37:09.218Z</time></trkpt><trkpt lat="45.5918699" lon="8.6646217"><ele>188.0</ele><time>2026-04-12T10:37:10.208Z</time></trkpt><trkpt lat="45.5919281" lon="8.6647452"><ele>188.0</ele><time>2026-04-12T10:37:11.194Z</time></trkpt><trkpt lat="45.5919692" lon="8.6648989"><ele>188.0</ele><time>2026-04-12T10:37:12.178Z</time></trkpt><trkpt lat="45.5919925" lon="8.66509"><ele>188.0</ele><time>2026-04-12T10:37:13.187Z</time></trkpt><trkpt lat="45.5920027" lon="8.6653021"><ele>188.33333333333331</ele><time>2026-04-12T10:37:14.182Z</time></trkpt><trkpt lat="45.5920082" lon="8.6655417"><ele>188.66666666666666</ele><time>2026-04-12T10:37:15.187Z</time></trkpt><trkpt lat="45.5920087" lon="8.6657986"><ele>189.0</ele><time>2026-04-12T10:37:16.19Z</time></trkpt><trkpt lat="45.5920177" lon="8.666054"><ele>188.33333333333334</ele><time>2026-04-12T10:37:17.19Z</time></trkpt><trkpt lat="45.592015" lon="8.6663298"><ele>187.66666666666669</ele><time>2026-04-12T10:37:18.17Z</time></trkpt><trkpt lat="45.59201" lon="8.6666182"><ele>187.0</ele><time>2026-04-12T10:37:19.189Z</time></trkpt><trkpt lat="45.5920081" lon="8.6669104"><ele>187.0</ele><time>2026-04-12T10:37:20.18Z</time></trkpt><trkpt lat="45.5920039" lon="8.6672062"><ele>187.0</ele><time>2026-04-12T10:37:21.215Z</time></trkpt><trkpt lat="45.5919908" lon="8.6675178"><ele>187.0</ele><time>2026-04-12T10:37:22.178Z</time></trkpt><trkpt lat="45.5919649" lon="8.6678314"><ele>187.0</ele><time>2026-04-12T10:37:23.181Z</time></trkpt><trkpt lat="45.5919299" lon="8.6681409"><ele>187.0</ele><time>2026-04-12T10:37:24.202Z</time></trkpt><trkpt lat="45.5918908" lon="8.6684459"><ele>187.0</ele><time>2026-04-12T10:37:25.179Z</time></trkpt><trkpt lat="45.5918455" lon="8.6687531"><ele>187.33333333333334</ele><time>2026-04-12T10:37:26.181Z</time></trkpt><trkpt lat="45.5918027" lon="8.6690587"><ele>187.66666666666666</ele><time>2026-04-12T10:37:27.174Z</time></trkpt><trkpt lat="45.5917585" lon="8.6693644"><ele>188.0</ele><time>2026-04-12T10:37:28.178Z</time></trkpt><trkpt lat="45.5917121" lon="8.6696658"><ele>188.0</ele><time>2026-04-12T10:37:29.185Z</time></trkpt><trkpt lat="45.5916701" lon="8.6699789"><ele>188.0</ele><time>2026-04-12T10:37:30.219Z</time></trkpt><trkpt lat="45.5916255" lon="8.6702842"><ele>188.0</ele><time>2026-04-12T10:37:31.195Z</time></trkpt><trkpt lat="45.5915828" lon="8.6705997"><ele>187.66666666666666</ele><time>2026-04-12T10:37:32.178Z</time></trkpt><trkpt lat="45.5915401" lon="8.6709081"><ele>187.33333333333334</ele><time>2026-04-12T10:37:33.184Z</time></trkpt><trkpt lat="45.591499" lon="8.671207"><ele>187.0</ele><time>2026-04-12T10:37:34.221Z</time></trkpt><trkpt lat="45.5914561" lon="8.671502"><ele>186.33333333333334</ele><time>2026-04-12T10:37:35.18Z</time></trkpt><trkpt lat="45.5914144" lon="8.6717889"><ele>185.66666666666666</ele><time>2026-04-12T10:37:36.187Z</time></trkpt><trkpt lat="45.5913702" lon="8.672075"><ele>185.0</ele><time>2026-04-12T10:37:37.172Z</time></trkpt><trkpt lat="45.5913282" lon="8.6723559"><ele>183.5</ele><time>2026-04-12T10:37:38.183Z</time></trkpt><trkpt lat="45.5912876" lon="8.6726592"><ele>182.0</ele><time>2026-04-12T10:37:39.174Z</time></trkpt><trkpt lat="45.5912431" lon="8.6730155"><ele>182.0</ele><time>2026-04-12T10:37:40.182Z</time></trkpt><trkpt lat="45.5911973" lon="8.6733602"><ele>182.0</ele><time>2026-04-12T10:37:41.185Z</time></trkpt><trkpt lat="45.5911531" lon="8.6736741"><ele>184.0</ele><time>2026-04-12T10:37:42.181Z</time></trkpt><trkpt lat="45.5911165" lon="8.6739587"><ele>186.0</ele><time>2026-04-12T10:37:43.221Z</time></trkpt><trkpt lat="45.5910705" lon="8.6742403"><ele>188.0</ele><time>2026-04-12T10:37:44.181Z</time></trkpt><trkpt lat="45.5910195" lon="8.6744859"><ele>188.0</ele><time>2026-04-12T10:37:45.183Z</time></trkpt><trkpt lat="45.5909629" lon="8.6746684"><ele>188.0</ele><time>2026-04-12T10:37:46.176Z</time></trkpt><trkpt lat="45.5908814" lon="8.6748461"><ele>188.0</ele><time>2026-04-12T10:37:47.182Z</time></trkpt><trkpt lat="45.5907719" lon="8.6750212"><ele>188.0</ele><time>2026-04-12T10:37:48.175Z</time></trkpt><trkpt lat="45.5906476" lon="8.6751943"><ele>188.0</ele><time>2026-04-12T10:37:49.171Z</time></trkpt><trkpt lat="45.5904879" lon="8.6753739"><ele>188.0</ele><time>2026-04-12T10:37:50.175Z</time></trkpt><trkpt lat="45.5902638" lon="8.6755533"><ele>188.33333333333331</ele><time>2026-04-12T10:37:51.19Z</time></trkpt><trkpt lat="45.5900748" lon="8.6757222"><ele>188.66666666666666</ele><time>2026-04-12T10:37:52.183Z</time></trkpt><trkpt lat="45.5898991" lon="8.6758799"><ele>189.0</ele><time>2026-04-12T10:37:53.186Z</time></trkpt><trkpt lat="45.5897373" lon="8.6760343"><ele>187.33333333333334</ele><time>2026-04-12T10:37:54.217Z</time></trkpt><trkpt lat="45.5895821" lon="8.6761739"><ele>185.66666666666669</ele><time>2026-04-12T10:37:55.175Z</time></trkpt><trkpt lat="45.5894398" lon="8.6763084"><ele>184.0</ele><time>2026-04-12T10:37:56.171Z</time></trkpt><trkpt lat="45.5893018" lon="8.6764246"><ele>183.33333333333334</ele><time>2026-04-12T10:37:57.171Z</time></trkpt><trkpt lat="45.589167" lon="8.6765398"><ele>182.66666666666666</ele><time>2026-04-12T10:37:58.175Z</time></trkpt><trkpt lat="45.5890425" lon="8.6766496"><ele>182.0</ele><time>2026-04-12T10:37:59.183Z</time></trkpt><trkpt lat="45.5889132" lon="8.6767586"><ele>182.0</ele><time>2026-04-12T10:38:00.222Z</time></trkpt><trkpt lat="45.5887877" lon="8.6768687"><ele>182.0</ele><time>2026-04-12T10:38:01.219Z</time></trkpt><trkpt lat="45.5886642" lon="8.6769781"><ele>182.0</ele><time>2026-04-12T10:38:02.175Z</time></trkpt><trkpt lat="45.58855" lon="8.6770873"><ele>182.0</ele><time>2026-04-12T10:38:03.18Z</time></trkpt><trkpt lat="45.588455" lon="8.6772025"><ele>180.0</ele><time>2026-04-12T10:38:04.186Z</time></trkpt><trkpt lat="45.5883738" lon="8.6773522"><ele>178.0</ele><time>2026-04-12T10:38:05.188Z</time></trkpt><trkpt lat="45.58833" lon="8.6775013"><ele>176.0</ele><time>2026-04-12T10:38:06.189Z</time></trkpt><trkpt lat="45.5883122" lon="8.6776631"><ele>174.0</ele><time>2026-04-12T10:38:07.174Z</time></trkpt><trkpt lat="45.5883251" lon="8.6778365"><ele>173.25</ele><time>2026-04-12T10:38:08.185Z</time></trkpt><trkpt lat="45.5883725" lon="8.6779899"><ele>172.5</ele><time>2026-04-12T10:38:09.174Z</time></trkpt><trkpt lat="45.5884497" lon="8.678142"><ele>171.75</ele><time>2026-04-12T10:38:10.186Z</time></trkpt><trkpt lat="45.5885594" lon="8.6782683"><ele>171.0</ele><time>2026-04-12T10:38:11.18Z</time></trkpt><trkpt lat="45.5886939" lon="8.6783661"><ele>171.0</ele><time>2026-04-12T10:38:12.175Z</time></trkpt><trkpt lat="45.5888425" lon="8.6784539"><ele>171.0</ele><time>2026-04-12T10:38:13.185Z</time></trkpt><trkpt lat="45.5890041" lon="8.6785395"><ele>171.0</ele><time>2026-04-12T10:38:14.177Z</time></trkpt><trkpt lat="45.5891667" lon="8.6786229"><ele>171.33333333333334</ele><time>2026-04-12T10:38:15.179Z</time></trkpt><trkpt lat="45.5893289" lon="8.6787101"><ele>171.66666666666669</ele><time>2026-04-12T10:38:16.18Z</time></trkpt><trkpt lat="45.5894887" lon="8.6787991"><ele>172.0</ele><time>2026-04-12T10:38:17.179Z</time></trkpt><trkpt lat="45.5896585" lon="8.6788805"><ele>172.0</ele><time>2026-04-12T10:38:18.18Z</time></trkpt><trkpt lat="45.5898246" lon="8.678965"><ele>172.0</ele><time>2026-04-12T10:38:19.193Z</time></trkpt><trkpt lat="45.5899939" lon="8.6790467"><ele>172.0</ele><time>2026-04-12T10:38:20.228Z</time></trkpt><trkpt lat="45.5901653" lon="8.6791295"><ele>172.0</ele><time>2026-04-12T10:38:21.179Z</time></trkpt><trkpt lat="45.5903303" lon="8.679214"><ele>172.0</ele><time>2026-04-12T10:38:22.176Z</time></trkpt><trkpt lat="45.5904933" lon="8.6792926"><ele>172.0</ele><time>2026-04-12T10:38:23.187Z</time></trkpt><trkpt lat="45.5906541" lon="8.6793702"><ele>171.33333333333334</ele><time>2026-04-12T10:38:24.181Z</time></trkpt><trkpt lat="45.5908124" lon="8.6794465"><ele>170.66666666666666</ele><time>2026-04-12T10:38:25.22Z</time></trkpt><trkpt lat="45.5909719" lon="8.6795064"><ele>170.0</ele><time>2026-04-12T10:38:26.184Z</time></trkpt><trkpt lat="45.591137" lon="8.6795482"><ele>167.66666666666666</ele><time>2026-04-12T10:38:27.188Z</time></trkpt><trkpt lat="45.5913087" lon="8.6795713"><ele>165.33333333333334</ele><time>2026-04-12T10:38:28.175Z</time></trkpt><trkpt lat="45.591481" lon="8.679564"><ele>163.0</ele><time>2026-04-12T10:38:29.19Z</time></trkpt><trkpt lat="45.5916557" lon="8.6795306"><ele>163.0</ele><time>2026-04-12T10:38:30.184Z</time></trkpt><trkpt lat="45.5918246" lon="8.6794715"><ele>163.0</ele><time>2026-04-12T10:38:31.187Z</time></trkpt><trkpt lat="45.5919919" lon="8.6793985"><ele>163.0</ele><time>2026-04-12T10:38:32.18Z</time></trkpt><trkpt lat="45.5921447" lon="8.6793349"><ele>162.33333333333334</ele><time>2026-04-12T10:38:33.182Z</time></trkpt><trkpt lat="45.5922921" lon="8.6792802"><ele>161.66666666666666</ele><time>2026-04-12T10:38:34.194Z</time></trkpt><trkpt lat="45.5924404" lon="8.6792473"><ele>161.0</ele><time>2026-04-12T10:38:35.18Z</time></trkpt><trkpt lat="45.5925886" lon="8.6792413"><ele>161.0</ele><time>2026-04-12T10:38:36.184Z</time></trkpt><trkpt lat="45.5927428" lon="8.6792741"><ele>161.0</ele><time>2026-04-12T10:38:37.178Z</time></trkpt><trkpt lat="45.5928882" lon="8.6793484"><ele>161.0</ele><time>2026-04-12T10:38:38.188Z</time></trkpt><trkpt lat="45.5930205" lon="8.6794699"><ele>159.33333333333331</ele><time>2026-04-12T10:38:39.204Z</time></trkpt><trkpt lat="45.5931431" lon="8.6796378"><ele>157.66666666666666</ele><time>2026-04-12T10:38:40.17Z</time></trkpt><trkpt lat="45.5932303" lon="8.6798504"><ele>156.0</ele><time>2026-04-12T10:38:41.196Z</time></trkpt><trkpt lat="45.5932963" lon="8.6800882"><ele>155.33333333333334</ele><time>2026-04-12T10:38:42.179Z</time></trkpt><trkpt lat="45.5933321" lon="8.680328"><ele>154.66666666666669</ele><time>2026-04-12T10:38:43.186Z</time></trkpt><trkpt lat="45.5933606" lon="8.6805729"><ele>154.0</ele><time>2026-04-12T10:38:44.195Z</time></trkpt><trkpt lat="45.5933829" lon="8.6808154"><ele>154.0</ele><time>2026-04-12T10:38:45.23Z</time></trkpt><trkpt lat="45.5934098" lon="8.6810637"><ele>154.0</ele><time>2026-04-12T10:38:46.224Z</time></trkpt><trkpt lat="45.5934354" lon="8.6813136"><ele>154.0</ele><time>2026-04-12T10:38:47.175Z</time></trkpt><trkpt lat="45.5934648" lon="8.6815644"><ele>153.66666666666669</ele><time>2026-04-12T10:38:48.186Z</time></trkpt><trkpt lat="45.593495" lon="8.6818217"><ele>153.33333333333334</ele><time>2026-04-12T10:38:49.193Z</time></trkpt><trkpt lat="45.5935254" lon="8.6820788"><ele>153.0</ele><time>2026-04-12T10:38:50.192Z</time></trkpt><trkpt lat="45.5935522" lon="8.6823407"><ele>153.0</ele><time>2026-04-12T10:38:51.224Z</time></trkpt><trkpt lat="45.5935845" lon="8.6826003"><ele>153.0</ele><time>2026-04-12T10:38:52.184Z</time></trkpt><trkpt lat="45.5936175" lon="8.6828726"><ele>153.0</ele><time>2026-04-12T10:38:53.188Z</time></trkpt><trkpt lat="45.5936508" lon="8.683144"><ele>153.33333333333334</ele><time>2026-04-12T10:38:54.194Z</time></trkpt><trkpt lat="45.5936802" lon="8.6834206"><ele>153.66666666666669</ele><time>2026-04-12T10:38:55.232Z</time></trkpt><trkpt lat="45.5937146" lon="8.6836951"><ele>154.0</ele><time>2026-04-12T10:38:56.179Z</time></trkpt><trkpt lat="45.5937463" lon="8.6839736"><ele>154.0</ele><time>2026-04-12T10:38:57.183Z</time></trkpt><trkpt lat="45.5937795" lon="8.6842534"><ele>154.0</ele><time>2026-04-12T10:38:58.18Z</time></trkpt><trkpt lat="45.5938132" lon="8.6845417"><ele>154.0</ele><time>2026-04-12T10:38:59.225Z</time></trkpt><trkpt lat="45.5938457" lon="8.6848358"><ele>154.0</ele><time>2026-04-12T10:39:00.219Z</time></trkpt><trkpt lat="45.5938808" lon="8.6851307"><ele>154.0</ele><time>2026-04-12T10:39:01.225Z</time></trkpt><trkpt lat="45.593917" lon="8.685425"><ele>154.0</ele><time>2026-04-12T10:39:02.18Z</time></trkpt><trkpt lat="45.5939521" lon="8.6857155"><ele>154.0</ele><time>2026-04-12T10:39:03.19Z</time></trkpt><trkpt lat="45.5939822" lon="8.6860081"><ele>154.0</ele><time>2026-04-12T10:39:04.197Z</time></trkpt><trkpt lat="45.5940154" lon="8.6863002"><ele>154.0</ele><time>2026-04-12T10:39:05.182Z</time></trkpt><trkpt lat="45.594055" lon="8.6865975"><ele>154.33333333333334</ele><time>2026-04-12T10:39:06.219Z</time></trkpt><trkpt lat="45.5940936" lon="8.686886"><ele>154.66666666666666</ele><time>2026-04-12T10:39:07.184Z</time></trkpt><trkpt lat="45.5941318" lon="8.6871682"><ele>155.0</ele><time>2026-04-12T10:39:08.183Z</time></trkpt><trkpt lat="45.594168" lon="8.6874509"><ele>155.0</ele><time>2026-04-12T10:39:09.218Z</time></trkpt><trkpt lat="45.5942013" lon="8.6877311"><ele>155.0</ele><time>2026-04-12T10:39:10.225Z</time></trkpt><trkpt lat="45.5942137" lon="8.6880145"><ele>155.0</ele><time>2026-04-12T10:39:11.179Z</time></trkpt><trkpt lat="45.5942045" lon="8.6883006"><ele>155.0</ele><time>2026-04-12T10:39:12.184Z</time></trkpt><trkpt lat="45.5941686" lon="8.688576"><ele>155.0</ele><time>2026-04-12T10:39:13.188Z</time></trkpt><trkpt lat="45.5941092" lon="8.6888551"><ele>155.0</ele><time>2026-04-12T10:39:14.183Z</time></trkpt><trkpt lat="45.5940227" lon="8.6891191"><ele>155.0</ele><time>2026-04-12T10:39:15.219Z</time></trkpt><trkpt lat="45.5939148" lon="8.6893508"><ele>155.0</ele><time>2026-04-12T10:39:16.19Z</time></trkpt><trkpt lat="45.5937897" lon="8.6895763"><ele>155.0</ele><time>2026-04-12T10:39:17.181Z</time></trkpt><trkpt lat="45.5936615" lon="8.6898011"><ele>155.0</ele><time>2026-04-12T10:39:18.179Z</time></trkpt><trkpt lat="45.5935333" lon="8.6900257"><ele>155.0</ele><time>2026-04-12T10:39:19.193Z</time></trkpt><trkpt lat="45.5934129" lon="8.6902396"><ele>155.0</ele><time>2026-04-12T10:39:20.177Z</time></trkpt><trkpt lat="45.5932887" lon="8.6904662"><ele>155.0</ele><time>2026-04-12T10:39:21.222Z</time></trkpt><trkpt lat="45.5931682" lon="8.6906848"><ele>155.0</ele><time>2026-04-12T10:39:22.183Z</time></trkpt><trkpt lat="45.5930431" lon="8.6909127"><ele>155.0</ele><time>2026-04-12T10:39:23.184Z</time></trkpt><trkpt lat="45.5929104" lon="8.6911508"><ele>155.33333333333331</ele><time>2026-04-12T10:39:24.185Z</time></trkpt><trkpt lat="45.5927731" lon="8.6913872"><ele>155.66666666666666</ele><time>2026-04-12T10:39:25.18Z</time></trkpt><trkpt lat="45.5926325" lon="8.6916144"><ele>156.0</ele><time>2026-04-12T10:39:26.222Z</time></trkpt><trkpt lat="45.5924886" lon="8.6918572"><ele>156.0</ele><time>2026-04-12T10:39:27.177Z</time></trkpt><trkpt lat="45.5923462" lon="8.6921026"><ele>156.0</ele><time>2026-04-12T10:39:28.184Z</time></trkpt><trkpt lat="45.5922102" lon="8.6923361"><ele>156.0</ele><time>2026-04-12T10:39:29.194Z</time></trkpt><trkpt lat="45.5920765" lon="8.6925731"><ele>156.33333333333334</ele><time>2026-04-12T10:39:30.183Z</time></trkpt><trkpt lat="45.5919448" lon="8.6928057"><ele>156.66666666666669</ele><time>2026-04-12T10:39:31.222Z</time></trkpt><trkpt lat="45.5918129" lon="8.6930353"><ele>157.0</ele><time>2026-04-12T10:39:32.177Z</time></trkpt><trkpt lat="45.5916854" lon="8.6932655"><ele>157.0</ele><time>2026-04-12T10:39:33.183Z</time></trkpt><trkpt lat="45.5915658" lon="8.6935099"><ele>157.0</ele><time>2026-04-12T10:39:34.19Z</time></trkpt><trkpt lat="45.5914571" lon="8.6937602"><ele>157.0</ele><time>2026-04-12T10:39:35.222Z</time></trkpt><trkpt lat="45.5913575" lon="8.6940279"><ele>156.66666666666669</ele><time>2026-04-12T10:39:36.201Z</time></trkpt><trkpt lat="45.5912728" lon="8.6943097"><ele>156.33333333333334</ele><time>2026-04-12T10:39:37.178Z</time></trkpt><trkpt lat="45.5911965" lon="8.6945926"><ele>156.0</ele><time>2026-04-12T10:39:38.182Z</time></trkpt><trkpt lat="45.5911236" lon="8.6948766"><ele>156.0</ele><time>2026-04-12T10:39:39.198Z</time></trkpt><trkpt lat="45.5910483" lon="8.6951645"><ele>156.0</ele><time>2026-04-12T10:39:40.183Z</time></trkpt><trkpt lat="45.5909727" lon="8.695457"><ele>156.0</ele><time>2026-04-12T10:39:41.179Z</time></trkpt><trkpt lat="45.5908984" lon="8.6957505"><ele>156.0</ele><time>2026-04-12T10:39:42.178Z</time></trkpt><trkpt lat="45.5908197" lon="8.6960456"><ele>156.0</ele><time>2026-04-12T10:39:43.181Z</time></trkpt><trkpt lat="45.590744" lon="8.696338"><ele>156.0</ele><time>2026-04-12T10:39:44.2Z</time></trkpt><trkpt lat="45.5906668" lon="8.6966392"><ele>155.33333333333334</ele><time>2026-04-12T10:39:45.182Z</time></trkpt><trkpt lat="45.5905881" lon="8.69694"><ele>154.66666666666669</ele><time>2026-04-12T10:39:46.175Z</time></trkpt><trkpt lat="45.5905128" lon="8.6972377"><ele>154.0</ele><time>2026-04-12T10:39:47.178Z</time></trkpt><trkpt lat="45.5903583" lon="8.6978311"><ele>155.0</ele><time>2026-04-12T10:39:49.213Z</time></trkpt><trkpt lat="45.5902802" lon="8.6981305"><ele>156.0</ele><time>2026-04-12T10:39:50.23Z</time></trkpt><trkpt lat="45.5901998" lon="8.698435"><ele>155.66666666666666</ele><time>2026-04-12T10:39:51.204Z</time></trkpt><trkpt lat="45.5901223" lon="8.698734"><ele>155.33333333333331</ele><time>2026-04-12T10:39:52.177Z</time></trkpt><trkpt lat="45.5900443" lon="8.6990289"><ele>155.0</ele><time>2026-04-12T10:39:53.177Z</time></trkpt><trkpt lat="45.589967" lon="8.6993157"><ele>155.0</ele><time>2026-04-12T10:39:54.196Z</time></trkpt><trkpt lat="45.5898949" lon="8.6995847"><ele>155.0</ele><time>2026-04-12T10:39:55.215Z</time></trkpt><trkpt lat="45.5898276" lon="8.699843"><ele>155.0</ele><time>2026-04-12T10:39:56.185Z</time></trkpt><trkpt lat="45.5897734" lon="8.7001103"><ele>155.0</ele><time>2026-04-12T10:39:57.182Z</time></trkpt><trkpt lat="45.5897319" lon="8.7003749"><ele>155.0</ele><time>2026-04-12T10:39:58.186Z</time></trkpt><trkpt lat="45.589705" lon="8.7006218"><ele>155.0</ele><time>2026-04-12T10:39:59.192Z</time></trkpt><trkpt lat="45.5896839" lon="8.7008648"><ele>155.5</ele><time>2026-04-12T10:40:00.217Z</time></trkpt><trkpt lat="45.5896684" lon="8.7010891"><ele>156.0</ele><time>2026-04-12T10:40:01.221Z</time></trkpt><trkpt lat="45.5896569" lon="8.7013004"><ele>156.5</ele><time>2026-04-12T10:40:02.178Z</time></trkpt><trkpt lat="45.5896511" lon="8.701497"><ele>157.0</ele><time>2026-04-12T10:40:03.181Z</time></trkpt><trkpt lat="45.5896423" lon="8.7017135"><ele>156.66666666666669</ele><time>2026-04-12T10:40:04.215Z</time></trkpt><trkpt lat="45.5896328" lon="8.7019338"><ele>156.33333333333334</ele><time>2026-04-12T10:40:05.177Z</time></trkpt><trkpt lat="45.5896202" lon="8.7021501"><ele>156.0</ele><time>2026-04-12T10:40:06.209Z</time></trkpt><trkpt lat="45.5896051" lon="8.7023717"><ele>156.0</ele><time>2026-04-12T10:40:07.184Z</time></trkpt><trkpt lat="45.5895937" lon="8.7026014"><ele>156.0</ele><time>2026-04-12T10:40:08.192Z</time></trkpt><trkpt lat="45.5895891" lon="8.7028403"><ele>156.0</ele><time>2026-04-12T10:40:09.194Z</time></trkpt><trkpt lat="45.5895742" lon="8.7030868"><ele>155.0</ele><time>2026-04-12T10:40:10.176Z</time></trkpt><trkpt lat="45.5895713" lon="8.7033368"><ele>154.0</ele><time>2026-04-12T10:40:11.181Z</time></trkpt><trkpt lat="45.5895625" lon="8.7035981"><ele>153.0</ele><time>2026-04-12T10:40:12.179Z</time></trkpt><trkpt lat="45.589546" lon="8.7038587"><ele>152.0</ele><time>2026-04-12T10:40:13.183Z</time></trkpt><trkpt lat="45.5895431" lon="8.7041169"><ele>151.0</ele><time>2026-04-12T10:40:14.185Z</time></trkpt><trkpt lat="45.5895243" lon="8.7044035"><ele>150.0</ele><time>2026-04-12T10:40:15.181Z</time></trkpt><trkpt lat="45.5894942" lon="8.7046908"><ele>150.0</ele><time>2026-04-12T10:40:16.213Z</time></trkpt><trkpt lat="45.5894811" lon="8.7049139"><ele>150.0</ele><time>2026-04-12T10:40:17.176Z</time></trkpt><trkpt lat="45.5894607" lon="8.7051801"><ele>150.0</ele><time>2026-04-12T10:40:18.183Z</time></trkpt><trkpt lat="45.5894545" lon="8.705415"><ele>151.0</ele><time>2026-04-12T10:40:19.18Z</time></trkpt><trkpt lat="45.5894321" lon="8.7056327"><ele>152.0</ele><time>2026-04-12T10:40:20.184Z</time></trkpt><trkpt lat="45.5894202" lon="8.7057976"><ele>153.0</ele><time>2026-04-12T10:40:21.177Z</time></trkpt><trkpt lat="45.5893844" lon="8.7059755"><ele>154.0</ele><time>2026-04-12T10:40:22.181Z</time></trkpt><trkpt lat="45.5893201" lon="8.7061354"><ele>155.25</ele><time>2026-04-12T10:40:23.189Z</time></trkpt><trkpt lat="45.5892256" lon="8.7062825"><ele>156.5</ele><time>2026-04-12T10:40:24.17Z</time></trkpt><trkpt lat="45.5891047" lon="8.7063978"><ele>157.75</ele><time>2026-04-12T10:40:25.173Z</time></trkpt><trkpt lat="45.5889682" lon="8.7064699"><ele>159.0</ele><time>2026-04-12T10:40:26.182Z</time></trkpt><trkpt lat="45.5888108" lon="8.7064953"><ele>160.0</ele><time>2026-04-12T10:40:27.178Z</time></trkpt><trkpt lat="45.5886337" lon="8.7064698"><ele>161.0</ele><time>2026-04-12T10:40:28.19Z</time></trkpt><trkpt lat="45.5884377" lon="8.7063912"><ele>162.0</ele><time>2026-04-12T10:40:29.181Z</time></trkpt><trkpt lat="45.5882194" lon="8.706262"><ele>162.0</ele><time>2026-04-12T10:40:30.174Z</time></trkpt><trkpt lat="45.5880166" lon="8.7061312"><ele>162.0</ele><time>2026-04-12T10:40:31.182Z</time></trkpt><trkpt lat="45.587831" lon="8.7060181"><ele>162.0</ele><time>2026-04-12T10:40:32.174Z</time></trkpt><trkpt lat="45.5876588" lon="8.70593"><ele>160.33333333333334</ele><time>2026-04-12T10:40:33.181Z</time></trkpt><trkpt lat="45.5874907" lon="8.7058824"><ele>158.66666666666669</ele><time>2026-04-12T10:40:34.191Z</time></trkpt><trkpt lat="45.5873259" lon="8.7058814"><ele>157.0</ele><time>2026-04-12T10:40:35.189Z</time></trkpt><trkpt lat="45.5871617" lon="8.7059264"><ele>156.33333333333334</ele><time>2026-04-12T10:40:36.177Z</time></trkpt><trkpt lat="45.5870067" lon="8.7060104"><ele>155.66666666666666</ele><time>2026-04-12T10:40:37.178Z</time></trkpt><trkpt lat="45.5868666" lon="8.7061334"><ele>155.0</ele><time>2026-04-12T10:40:38.193Z</time></trkpt><trkpt lat="45.5867493" lon="8.7062974"><ele>157.33333333333331</ele><time>2026-04-12T10:40:39.183Z</time></trkpt><trkpt lat="45.5866521" lon="8.7064968"><ele>159.66666666666666</ele><time>2026-04-12T10:40:40.178Z</time></trkpt><trkpt lat="45.5865689" lon="8.7067104"><ele>162.0</ele><time>2026-04-12T10:40:41.217Z</time></trkpt><trkpt lat="45.586486" lon="8.7069209"><ele>164.0</ele><time>2026-04-12T10:40:42.182Z</time></trkpt><trkpt lat="45.5863789" lon="8.7070961"><ele>166.0</ele><time>2026-04-12T10:40:43.181Z</time></trkpt><trkpt lat="45.5862445" lon="8.7072442"><ele>168.0</ele><time>2026-04-12T10:40:44.223Z</time></trkpt><trkpt lat="45.5860826" lon="8.7073506"><ele>168.0</ele><time>2026-04-12T10:40:45.182Z</time></trkpt><trkpt lat="45.5859007" lon="8.7074403"><ele>168.0</ele><time>2026-04-12T10:40:46.223Z</time></trkpt><trkpt lat="45.5856483" lon="8.7074624"><ele>168.0</ele><time>2026-04-12T10:40:47.186Z</time></trkpt><trkpt lat="45.585387" lon="8.7074873"><ele>170.5</ele><time>2026-04-12T10:40:48.182Z</time></trkpt><trkpt lat="45.5851083" lon="8.7074898"><ele>173.0</ele><time>2026-04-12T10:40:49.205Z</time></trkpt><trkpt lat="45.5848208" lon="8.7074657"><ele>173.0</ele><time>2026-04-12T10:40:50.174Z</time></trkpt><trkpt lat="45.5845324" lon="8.7074125"><ele>173.0</ele><time>2026-04-12T10:40:51.215Z</time></trkpt><trkpt lat="45.5842474" lon="8.7073456"><ele>173.0</ele><time>2026-04-12T10:40:52.175Z</time></trkpt><trkpt lat="45.5839851" lon="8.7072816"><ele>173.0</ele><time>2026-04-12T10:40:53.186Z</time></trkpt><trkpt lat="45.5837542" lon="8.7072228"><ele>175.33333333333331</ele><time>2026-04-12T10:40:54.184Z</time></trkpt><trkpt lat="45.583529" lon="8.7071745"><ele>177.66666666666666</ele><time>2026-04-12T10:40:55.161Z</time></trkpt><trkpt lat="45.5833259" lon="8.7071316"><ele>180.0</ele><time>2026-04-12T10:40:56.165Z</time></trkpt><trkpt lat="45.583136" lon="8.7070916"><ele>180.0</ele><time>2026-04-12T10:40:57.179Z</time></trkpt><trkpt lat="45.5829464" lon="8.7070686"><ele>180.0</ele><time>2026-04-12T10:40:58.174Z</time></trkpt><trkpt lat="45.5827622" lon="8.7071018"><ele>180.0</ele><time>2026-04-12T10:40:59.161Z</time></trkpt><trkpt lat="45.5825768" lon="8.7071704"><ele>178.66666666666666</ele><time>2026-04-12T10:41:00.203Z</time></trkpt><trkpt lat="45.5823792" lon="8.7072751"><ele>177.33333333333331</ele><time>2026-04-12T10:41:01.235Z</time></trkpt><trkpt lat="45.5821817" lon="8.7074116"><ele>176.0</ele><time>2026-04-12T10:41:02.177Z</time></trkpt><trkpt lat="45.581999" lon="8.7075811"><ele>176.33333333333331</ele><time>2026-04-12T10:41:03.181Z</time></trkpt><trkpt lat="45.5818341" lon="8.7077804"><ele>176.66666666666666</ele><time>2026-04-12T10:41:04.199Z</time></trkpt><trkpt lat="45.5816946" lon="8.7080101"><ele>177.0</ele><time>2026-04-12T10:41:05.194Z</time></trkpt><trkpt lat="45.5815858" lon="8.7082575"><ele>177.0</ele><time>2026-04-12T10:41:06.177Z</time></trkpt><trkpt lat="45.58148" lon="8.7085102"><ele>177.0</ele><time>2026-04-12T10:41:07.185Z</time></trkpt><trkpt lat="45.5813642" lon="8.7087451"><ele>177.0</ele><time>2026-04-12T10:41:08.187Z</time></trkpt><trkpt lat="45.5812341" lon="8.7089324"><ele>175.33333333333334</ele><time>2026-04-12T10:41:09.189Z</time></trkpt><trkpt lat="45.5811023" lon="8.7091156"><ele>173.66666666666669</ele><time>2026-04-12T10:41:10.228Z</time></trkpt><trkpt lat="45.5809522" lon="8.7093142"><ele>172.0</ele><time>2026-04-12T10:41:11.188Z</time></trkpt><trkpt lat="45.5808031" lon="8.7095083"><ele>171.33333333333334</ele><time>2026-04-12T10:41:12.182Z</time></trkpt><trkpt lat="45.5806442" lon="8.7097059"><ele>170.66666666666666</ele><time>2026-04-12T10:41:13.182Z</time></trkpt><trkpt lat="45.5804772" lon="8.7099089"><ele>170.0</ele><time>2026-04-12T10:41:14.177Z</time></trkpt><trkpt lat="45.5803028" lon="8.7101419"><ele>176.5</ele><time>2026-04-12T10:41:15.179Z</time></trkpt><trkpt lat="45.5801083" lon="8.7103883"><ele>183.0</ele><time>2026-04-12T10:41:16.18Z</time></trkpt><trkpt lat="45.5798988" lon="8.7106295"><ele>183.0</ele><time>2026-04-12T10:41:17.18Z</time></trkpt><trkpt lat="45.5796842" lon="8.7108574"><ele>183.0</ele><time>2026-04-12T10:41:18.221Z</time></trkpt><trkpt lat="45.5794673" lon="8.7110926"><ele>184.0</ele><time>2026-04-12T10:41:19.215Z</time></trkpt><trkpt lat="45.5792463" lon="8.7113034"><ele>185.0</ele><time>2026-04-12T10:41:20.19Z</time></trkpt><trkpt lat="45.5790235" lon="8.7114956"><ele>185.0</ele><time>2026-04-12T10:41:21.18Z</time></trkpt><trkpt lat="45.5787954" lon="8.7116697"><ele>185.0</ele><time>2026-04-12T10:41:22.191Z</time></trkpt><trkpt lat="45.578572" lon="8.7118189"><ele>186.33333333333331</ele><time>2026-04-12T10:41:23.179Z</time></trkpt><trkpt lat="45.5783608" lon="8.71194"><ele>187.66666666666666</ele><time>2026-04-12T10:41:24.185Z</time></trkpt><trkpt lat="45.578164" lon="8.7120343"><ele>189.0</ele><time>2026-04-12T10:41:25.184Z</time></trkpt><trkpt lat="45.5779808" lon="8.712112"><ele>188.0</ele><time>2026-04-12T10:41:26.176Z</time></trkpt><trkpt lat="45.5778026" lon="8.7121819"><ele>187.0</ele><time>2026-04-12T10:41:27.171Z</time></trkpt><trkpt lat="45.5776342" lon="8.7122758"><ele>186.0</ele><time>2026-04-12T10:41:28.178Z</time></trkpt><trkpt lat="45.5774853" lon="8.7123976"><ele>186.0</ele><time>2026-04-12T10:41:29.185Z</time></trkpt><trkpt lat="45.5773713" lon="8.7125474"><ele>186.0</ele><time>2026-04-12T10:41:30.18Z</time></trkpt><trkpt lat="45.5772922" lon="8.7127208"><ele>186.0</ele><time>2026-04-12T10:41:31.218Z</time></trkpt><trkpt lat="45.5772472" lon="8.7129134"><ele>186.0</ele><time>2026-04-12T10:41:32.181Z</time></trkpt><trkpt lat="45.5772235" lon="8.7131496"><ele>187.33333333333334</ele><time>2026-04-12T10:41:33.184Z</time></trkpt><trkpt lat="45.5772189" lon="8.7134092"><ele>188.66666666666669</ele><time>2026-04-12T10:41:34.217Z</time></trkpt><trkpt lat="45.5772292" lon="8.7136976"><ele>190.0</ele><time>2026-04-12T10:41:35.186Z</time></trkpt><trkpt lat="45.5772523" lon="8.7139867"><ele>191.0</ele><time>2026-04-12T10:41:36.192Z</time></trkpt><trkpt lat="45.5773012" lon="8.7142595"><ele>192.0</ele><time>2026-04-12T10:41:37.182Z</time></trkpt><trkpt lat="45.5773787" lon="8.7145085"><ele>193.0</ele><time>2026-04-12T10:41:38.186Z</time></trkpt><trkpt lat="45.5775008" lon="8.7147489"><ele>189.5</ele><time>2026-04-12T10:41:39.235Z</time></trkpt><trkpt lat="45.5776604" lon="8.7149922"><ele>186.0</ele><time>2026-04-12T10:41:40.21Z</time></trkpt><trkpt lat="45.5778415" lon="8.7152597"><ele>187.66666666666666</ele><time>2026-04-12T10:41:41.184Z</time></trkpt><trkpt lat="45.5779979" lon="8.7155031"><ele>189.33333333333331</ele><time>2026-04-12T10:41:42.176Z</time></trkpt><trkpt lat="45.5781373" lon="8.7157404"><ele>191.0</ele><time>2026-04-12T10:41:43.171Z</time></trkpt><trkpt lat="45.5782673" lon="8.7159484"><ele>190.0</ele><time>2026-04-12T10:41:44.186Z</time></trkpt><trkpt lat="45.5783889" lon="8.7161455"><ele>189.0</ele><time>2026-04-12T10:41:45.184Z</time></trkpt><trkpt lat="45.5785039" lon="8.7163276"><ele>188.0</ele><time>2026-04-12T10:41:46.181Z</time></trkpt><trkpt lat="45.5786086" lon="8.7164757"><ele>189.60000000000002</ele><time>2026-04-12T10:41:47.171Z</time></trkpt><trkpt lat="45.5786946" lon="8.7166109"><ele>191.20000000000002</ele><time>2026-04-12T10:41:48.183Z</time></trkpt><trkpt lat="45.5787581" lon="8.7167237"><ele>192.8</ele><time>2026-04-12T10:41:49.188Z</time></trkpt><trkpt lat="45.5788192" lon="8.7168062"><ele>194.4</ele><time>2026-04-12T10:41:50.193Z</time></trkpt><trkpt lat="45.578868" lon="8.716941"><ele>196.0</ele><time>2026-04-12T10:41:52.181Z</time></trkpt><trkpt lat="45.5788891" lon="8.7170733"><ele>196.0</ele><time>2026-04-12T10:41:54.219Z</time></trkpt><trkpt lat="45.5788969" lon="8.7171656"><ele>196.0</ele><time>2026-04-12T10:41:55.223Z</time></trkpt><trkpt lat="45.5788984" lon="8.7172638"><ele>196.0</ele><time>2026-04-12T10:41:56.196Z</time></trkpt><trkpt lat="45.5789148" lon="8.717365"><ele>196.0</ele><time>2026-04-12T10:41:57.179Z</time></trkpt><trkpt lat="45.5789486" lon="8.7174619"><ele>196.0</ele><time>2026-04-12T10:41:58.187Z</time></trkpt><trkpt lat="45.5789993" lon="8.7175367"><ele>196.0</ele><time>2026-04-12T10:41:59.2Z</time></trkpt><trkpt lat="45.5790613" lon="8.717582"><ele>196.0</ele><time>2026-04-12T10:42:00.186Z</time></trkpt><trkpt lat="45.5791262" lon="8.7176111"><ele>196.0</ele><time>2026-04-12T10:42:01.186Z</time></trkpt><trkpt lat="45.5791942" lon="8.7176462"><ele>196.0</ele><time>2026-04-12T10:42:02.196Z</time></trkpt><trkpt lat="45.5792521" lon="8.7176836"><ele>196.0</ele><time>2026-04-12T10:42:03.184Z</time></trkpt><trkpt lat="45.5793112" lon="8.7177413"><ele>196.0</ele><time>2026-04-12T10:42:04.221Z</time></trkpt><trkpt lat="45.5793641" lon="8.717816"><ele>196.0</ele><time>2026-04-12T10:42:05.181Z</time></trkpt><trkpt lat="45.579419" lon="8.7178999"><ele>196.0</ele><time>2026-04-12T10:42:06.178Z</time></trkpt><trkpt lat="45.5794775" lon="8.7179827"><ele>196.0</ele><time>2026-04-12T10:42:07.184Z</time></trkpt><trkpt lat="45.5795348" lon="8.718067"><ele>195.99999999999997</ele><time>2026-04-12T10:42:08.182Z</time></trkpt><trkpt lat="45.5795895" lon="8.7181489"><ele>196.0</ele><time>2026-04-12T10:42:09.196Z</time></trkpt><trkpt lat="45.5796395" lon="8.7182326"><ele>196.0</ele><time>2026-04-12T10:42:10.222Z</time></trkpt><trkpt lat="45.5796881" lon="8.7183123"><ele>196.0</ele><time>2026-04-12T10:42:11.197Z</time></trkpt><trkpt lat="45.579734" lon="8.7183952"><ele>195.99999999999997</ele><time>2026-04-12T10:42:12.182Z</time></trkpt><trkpt lat="45.579788" lon="8.7184705"><ele>196.0</ele><time>2026-04-12T10:42:13.185Z</time></trkpt><trkpt lat="45.5798417" lon="8.7185471"><ele>195.85714285714286</ele><time>2026-04-12T10:42:14.195Z</time></trkpt><trkpt lat="45.57989" lon="8.7186221"><ele>195.71428571428572</ele><time>2026-04-12T10:42:15.201Z</time></trkpt><trkpt lat="45.5799381" lon="8.7186988"><ele>195.57142857142856</ele><time>2026-04-12T10:42:16.22Z</time></trkpt><trkpt lat="45.5799868" lon="8.7187731"><ele>195.42857142857144</ele><time>2026-04-12T10:42:17.182Z</time></trkpt><trkpt lat="45.580034" lon="8.7188467"><ele>195.28571428571428</ele><time>2026-04-12T10:42:18.183Z</time></trkpt><trkpt lat="45.580084" lon="8.7189215"><ele>195.14285714285714</ele><time>2026-04-12T10:42:19.224Z</time></trkpt><trkpt lat="45.5801331" lon="8.7189939"><ele>195.0</ele><time>2026-04-12T10:42:20.225Z</time></trkpt><trkpt lat="45.580183" lon="8.7190643"><ele>195.0</ele><time>2026-04-12T10:42:21.213Z</time></trkpt><trkpt lat="45.5802316" lon="8.7191383"><ele>195.0</ele><time>2026-04-12T10:42:22.179Z</time></trkpt><trkpt lat="45.5802808" lon="8.719213"><ele>195.0</ele><time>2026-04-12T10:42:23.184Z</time></trkpt><trkpt lat="45.5803456" lon="8.7193067"><ele>195.0</ele><time>2026-04-12T10:42:24.192Z</time></trkpt><trkpt lat="45.5804252" lon="8.7194333"><ele>195.0</ele><time>2026-04-12T10:42:25.231Z</time></trkpt><trkpt lat="45.580521" lon="8.7195732"><ele>195.33333333333331</ele><time>2026-04-12T10:42:26.195Z</time></trkpt><trkpt lat="45.5806254" lon="8.7197324"><ele>195.66666666666666</ele><time>2026-04-12T10:42:27.183Z</time></trkpt><trkpt lat="45.5807348" lon="8.7199046"><ele>196.0</ele><time>2026-04-12T10:42:28.192Z</time></trkpt><trkpt lat="45.5808473" lon="8.7200811"><ele>196.0</ele><time>2026-04-12T10:42:29.228Z</time></trkpt><trkpt lat="45.5809642" lon="8.7202628"><ele>196.0</ele><time>2026-04-12T10:42:30.222Z</time></trkpt><trkpt lat="45.5810831" lon="8.7204431"><ele>196.0</ele><time>2026-04-12T10:42:31.222Z</time></trkpt><trkpt lat="45.5812072" lon="8.7206327"><ele>195.66666666666666</ele><time>2026-04-12T10:42:32.177Z</time></trkpt><trkpt lat="45.5813302" lon="8.7208251"><ele>195.33333333333331</ele><time>2026-04-12T10:42:33.185Z</time></trkpt><trkpt lat="45.5814476" lon="8.7210114"><ele>195.0</ele><time>2026-04-12T10:42:34.221Z</time></trkpt><trkpt lat="45.5815675" lon="8.7212032"><ele>195.0</ele><time>2026-04-12T10:42:35.179Z</time></trkpt><trkpt lat="45.5816907" lon="8.7213971"><ele>195.0</ele><time>2026-04-12T10:42:36.168Z</time></trkpt><trkpt lat="45.5818076" lon="8.7215875"><ele>195.0</ele><time>2026-04-12T10:42:37.18Z</time></trkpt><trkpt lat="45.5819265" lon="8.721778"><ele>196.33333333333331</ele><time>2026-04-12T10:42:38.187Z</time></trkpt><trkpt lat="45.5820466" lon="8.7219585"><ele>197.66666666666666</ele><time>2026-04-12T10:42:39.185Z</time></trkpt><trkpt lat="45.5821622" lon="8.7221366"><ele>199.0</ele><time>2026-04-12T10:42:40.172Z</time></trkpt><trkpt lat="45.5822722" lon="8.7223108"><ele>199.0</ele><time>2026-04-12T10:42:41.182Z</time></trkpt><trkpt lat="45.582388" lon="8.722487"><ele>199.0</ele><time>2026-04-12T10:42:42.182Z</time></trkpt><trkpt lat="45.5824957" lon="8.7226583"><ele>199.0</ele><time>2026-04-12T10:42:43.184Z</time></trkpt><trkpt lat="45.5826049" lon="8.7228277"><ele>199.0</ele><time>2026-04-12T10:42:44.182Z</time></trkpt><trkpt lat="45.5827145" lon="8.7230024"><ele>199.0</ele><time>2026-04-12T10:42:45.179Z</time></trkpt><trkpt lat="45.5828252" lon="8.7231669"><ele>199.0</ele><time>2026-04-12T10:42:46.184Z</time></trkpt><trkpt lat="45.582923" lon="8.7233278"><ele>199.0</ele><time>2026-04-12T10:42:47.187Z</time></trkpt><trkpt lat="45.5830208" lon="8.7234807"><ele>199.0</ele><time>2026-04-12T10:42:48.179Z</time></trkpt><trkpt lat="45.5831137" lon="8.7236253"><ele>199.0</ele><time>2026-04-12T10:42:49.181Z</time></trkpt><trkpt lat="45.5832042" lon="8.7237743"><ele>199.0</ele><time>2026-04-12T10:42:50.184Z</time></trkpt><trkpt lat="45.5832957" lon="8.7239148"><ele>199.25</ele><time>2026-04-12T10:42:51.181Z</time></trkpt><trkpt lat="45.5833824" lon="8.724055"><ele>199.5</ele><time>2026-04-12T10:42:52.191Z</time></trkpt><trkpt lat="45.5834647" lon="8.7241873"><ele>199.75</ele><time>2026-04-12T10:42:53.183Z</time></trkpt><trkpt lat="45.5835455" lon="8.7242987"><ele>200.0</ele><time>2026-04-12T10:42:54.186Z</time></trkpt><trkpt lat="45.5836148" lon="8.7244208"><ele>200.33333333333334</ele><time>2026-04-12T10:42:55.185Z</time></trkpt><trkpt lat="45.5836793" lon="8.7245267"><ele>200.66666666666669</ele><time>2026-04-12T10:42:56.182Z</time></trkpt><trkpt lat="45.5837351" lon="8.724623"><ele>201.0</ele><time>2026-04-12T10:42:57.183Z</time></trkpt><trkpt lat="45.5837839" lon="8.724699"><ele>201.33333333333331</ele><time>2026-04-12T10:42:58.181Z</time></trkpt><trkpt lat="45.5838539" lon="8.7248086"><ele>201.66666666666666</ele><time>2026-04-12T10:43:00.184Z</time></trkpt><trkpt lat="45.5839083" lon="8.7248888"><ele>202.0</ele><time>2026-04-12T10:43:02.179Z</time></trkpt><trkpt lat="45.5839539" lon="8.7249633"><ele>201.16666666666666</ele><time>2026-04-12T10:43:04.184Z</time></trkpt><trkpt lat="45.5839842" lon="8.7250618"><ele>200.33333333333331</ele><time>2026-04-12T10:43:06.217Z</time></trkpt><trkpt lat="45.5839817" lon="8.7251626"><ele>199.5</ele><time>2026-04-12T10:43:07.184Z</time></trkpt><trkpt lat="45.5839634" lon="8.7252948"><ele>198.66666666666669</ele><time>2026-04-12T10:43:08.182Z</time></trkpt><trkpt lat="45.5839433" lon="8.7254259"><ele>197.83333333333334</ele><time>2026-04-12T10:43:09.178Z</time></trkpt><trkpt lat="45.5839175" lon="8.7255506"><ele>197.0</ele><time>2026-04-12T10:43:10.172Z</time></trkpt><trkpt lat="45.5838773" lon="8.7256867"><ele>196.0</ele><time>2026-04-12T10:43:11.173Z</time></trkpt><trkpt lat="45.5838178" lon="8.7258505"><ele>195.0</ele><time>2026-04-12T10:43:12.18Z</time></trkpt><trkpt lat="45.5837295" lon="8.7260386"><ele>194.0</ele><time>2026-04-12T10:43:13.181Z</time></trkpt><trkpt lat="45.5836024" lon="8.7262528"><ele>194.0</ele><time>2026-04-12T10:43:14.177Z</time></trkpt><trkpt lat="45.5834358" lon="8.7264944"><ele>194.0</ele><time>2026-04-12T10:43:15.184Z</time></trkpt><trkpt lat="45.5832524" lon="8.726749"><ele>195.0</ele><time>2026-04-12T10:43:16.184Z</time></trkpt><trkpt lat="45.5830548" lon="8.727028"><ele>196.0</ele><time>2026-04-12T10:43:17.171Z</time></trkpt><trkpt lat="45.5828658" lon="8.7272759"><ele>196.5</ele><time>2026-04-12T10:43:18.224Z</time></trkpt><trkpt lat="45.5826816" lon="8.727508"><ele>197.0</ele><time>2026-04-12T10:43:19.212Z</time></trkpt><trkpt lat="45.5824925" lon="8.7277035"><ele>198.5</ele><time>2026-04-12T10:43:20.22Z</time></trkpt><trkpt lat="45.582297" lon="8.7278734"><ele>200.0</ele><time>2026-04-12T10:43:21.196Z</time></trkpt><trkpt lat="45.5820949" lon="8.7280184"><ele>198.0</ele><time>2026-04-12T10:43:22.187Z</time></trkpt><trkpt lat="45.5818889" lon="8.7281665"><ele>196.0</ele><time>2026-04-12T10:43:23.183Z</time></trkpt><trkpt lat="45.5816395" lon="8.7283114"><ele>196.0</ele><time>2026-04-12T10:43:24.189Z</time></trkpt><trkpt lat="45.58136" lon="8.7284965"><ele>196.0</ele><time>2026-04-12T10:43:25.177Z</time></trkpt><trkpt lat="45.5810792" lon="8.7286945"><ele>199.0</ele><time>2026-04-12T10:43:26.186Z</time></trkpt><trkpt lat="45.5808035" lon="8.7288955"><ele>202.0</ele><time>2026-04-12T10:43:27.184Z</time></trkpt><trkpt lat="45.5805413" lon="8.7291065"><ele>202.0</ele><time>2026-04-12T10:43:28.181Z</time></trkpt><trkpt lat="45.580294" lon="8.729335"><ele>202.0</ele><time>2026-04-12T10:43:29.188Z</time></trkpt><trkpt lat="45.5800582" lon="8.7295761"><ele>200.5</ele><time>2026-04-12T10:43:30.217Z</time></trkpt><trkpt lat="45.5798321" lon="8.7298305"><ele>199.0</ele><time>2026-04-12T10:43:31.218Z</time></trkpt><trkpt lat="45.5796178" lon="8.7300904"><ele>197.5</ele><time>2026-04-12T10:43:32.179Z</time></trkpt><trkpt lat="45.5794108" lon="8.7303653"><ele>196.0</ele><time>2026-04-12T10:43:33.198Z</time></trkpt><trkpt lat="45.5792013" lon="8.7306437"><ele>196.0</ele><time>2026-04-12T10:43:34.186Z</time></trkpt><trkpt lat="45.5789977" lon="8.7309187"><ele>196.0</ele><time>2026-04-12T10:43:35.217Z</time></trkpt><trkpt lat="45.5787946" lon="8.7311944"><ele>198.0</ele><time>2026-04-12T10:43:36.221Z</time></trkpt><trkpt lat="45.5753765" lon="8.7360599"><ele>194.5</ele><time>2026-04-12T10:43:52.171Z</time></trkpt><trkpt lat="45.5751437" lon="8.7363841"><ele>191.0</ele><time>2026-04-12T10:43:53.17Z</time></trkpt><trkpt lat="45.5749027" lon="8.7367185"><ele>191.5</ele><time>2026-04-12T10:43:54.17Z</time></trkpt><trkpt lat="45.5746768" lon="8.737033"><ele>192.0</ele><time>2026-04-12T10:43:55.181Z</time></trkpt><trkpt lat="45.5744521" lon="8.7373476"><ele>192.0</ele><time>2026-04-12T10:43:56.182Z</time></trkpt><trkpt lat="45.5742299" lon="8.737658"><ele>192.0</ele><time>2026-04-12T10:43:57.172Z</time></trkpt><trkpt lat="45.574013" lon="8.73797"><ele>194.0</ele><time>2026-04-12T10:43:58.175Z</time></trkpt><trkpt lat="45.5737986" lon="8.7382739"><ele>196.0</ele><time>2026-04-12T10:43:59.18Z</time></trkpt><trkpt lat="45.5735848" lon="8.7385721"><ele>196.0</ele><time>2026-04-12T10:44:00.193Z</time></trkpt><trkpt lat="45.5733706" lon="8.7388716"><ele>196.0</ele><time>2026-04-12T10:44:01.222Z</time></trkpt><trkpt lat="45.5731571" lon="8.7391701"><ele>199.0</ele><time>2026-04-12T10:44:02.179Z</time></trkpt><trkpt lat="45.5723389" lon="8.7405501"><ele>199.0</ele><time>2026-04-12T10:44:06.195Z</time></trkpt><trkpt lat="45.5721364" lon="8.7408967"><ele>199.0</ele><time>2026-04-12T10:44:07.177Z</time></trkpt><trkpt lat="45.5719386" lon="8.7413124"><ele>198.5</ele><time>2026-04-12T10:44:08.185Z</time></trkpt><trkpt lat="45.571768" lon="8.7417176"><ele>198.0</ele><time>2026-04-12T10:44:09.214Z</time></trkpt><trkpt lat="45.5716145" lon="8.7421453"><ele>198.0</ele><time>2026-04-12T10:44:10.181Z</time></trkpt><trkpt lat="45.5714776" lon="8.742581"><ele>198.0</ele><time>2026-04-12T10:44:11.189Z</time></trkpt><trkpt lat="45.5713326" lon="8.7430231"><ele>197.5</ele><time>2026-04-12T10:44:12.181Z</time></trkpt><trkpt lat="45.5711892" lon="8.7434664"><ele>197.0</ele><time>2026-04-12T10:44:13.215Z</time></trkpt><trkpt lat="45.5711097" lon="8.743976"><ele>198.5</ele><time>2026-04-12T10:44:14.176Z</time></trkpt><trkpt lat="45.5711067" lon="8.7445648"><ele>200.0</ele><time>2026-04-12T10:44:15.175Z</time></trkpt><trkpt lat="45.5710642" lon="8.7450583"><ele>199.0</ele><time>2026-04-12T10:44:16.223Z</time></trkpt><trkpt lat="45.5710558" lon="8.7455398"><ele>198.0</ele><time>2026-04-12T10:44:17.222Z</time></trkpt><trkpt lat="45.5710699" lon="8.7460322"><ele>198.0</ele><time>2026-04-12T10:44:18.187Z</time></trkpt><trkpt lat="45.571109" lon="8.7465258"><ele>198.0</ele><time>2026-04-12T10:44:19.197Z</time></trkpt><trkpt lat="45.5711675" lon="8.7470196"><ele>198.0</ele><time>2026-04-12T10:44:20.184Z</time></trkpt><trkpt lat="45.5712365" lon="8.7475221"><ele>198.0</ele><time>2026-04-12T10:44:21.182Z</time></trkpt><trkpt lat="45.5713312" lon="8.7480165"><ele>198.0</ele><time>2026-04-12T10:44:22.208Z</time></trkpt><trkpt lat="45.5714379" lon="8.7484974"><ele>198.0</ele><time>2026-04-12T10:44:23.222Z</time></trkpt><trkpt lat="45.5715498" lon="8.748967"><ele>196.5</ele><time>2026-04-12T10:44:24.184Z</time></trkpt><trkpt lat="45.5716575" lon="8.7494188"><ele>195.0</ele><time>2026-04-12T10:44:25.175Z</time></trkpt><trkpt lat="45.5717701" lon="8.7498583"><ele>193.5</ele><time>2026-04-12T10:44:26.184Z</time></trkpt><trkpt lat="45.5718844" lon="8.7502834"><ele>192.0</ele><time>2026-04-12T10:44:27.188Z</time></trkpt><trkpt lat="45.5719957" lon="8.7507003"><ele>192.0</ele><time>2026-04-12T10:44:28.201Z</time></trkpt><trkpt lat="45.5721096" lon="8.7511079"><ele>192.0</ele><time>2026-04-12T10:44:29.184Z</time></trkpt><trkpt lat="45.5722114" lon="8.7515182"><ele>191.0</ele><time>2026-04-12T10:44:30.181Z</time></trkpt><trkpt lat="45.5723141" lon="8.7519251"><ele>190.0</ele><time>2026-04-12T10:44:31.181Z</time></trkpt><trkpt lat="45.572404" lon="8.7523353"><ele>189.5</ele><time>2026-04-12T10:44:32.212Z</time></trkpt><trkpt lat="45.5724907" lon="8.7527432"><ele>189.0</ele><time>2026-04-12T10:44:33.191Z</time></trkpt><trkpt lat="45.5725761" lon="8.7531444"><ele>190.5</ele><time>2026-04-12T10:44:34.217Z</time></trkpt><trkpt lat="45.5726551" lon="8.7535447"><ele>192.0</ele><time>2026-04-12T10:44:35.18Z</time></trkpt><trkpt lat="45.5727328" lon="8.7539422"><ele>192.0</ele><time>2026-04-12T10:44:36.186Z</time></trkpt><trkpt lat="45.5728062" lon="8.7543404"><ele>192.0</ele><time>2026-04-12T10:44:37.192Z</time></trkpt><trkpt lat="45.5728696" lon="8.7547402"><ele>192.5</ele><time>2026-04-12T10:44:38.178Z</time></trkpt><trkpt lat="45.5729349" lon="8.7551385"><ele>193.0</ele><time>2026-04-12T10:44:39.181Z</time></trkpt><trkpt lat="45.5729954" lon="8.7555423"><ele>193.0</ele><time>2026-04-12T10:44:40.181Z</time></trkpt><trkpt lat="45.5730532" lon="8.7559431"><ele>193.0</ele><time>2026-04-12T10:44:41.194Z</time></trkpt><trkpt lat="45.5731092" lon="8.7563482"><ele>193.0</ele><time>2026-04-12T10:44:42.223Z</time></trkpt><trkpt lat="45.5731635" lon="8.7567521"><ele>193.0</ele><time>2026-04-12T10:44:43.226Z</time></trkpt><trkpt lat="45.573216" lon="8.7571571"><ele>193.0</ele><time>2026-04-12T10:44:44.219Z</time></trkpt><trkpt lat="45.5732693" lon="8.7575593"><ele>193.0</ele><time>2026-04-12T10:44:45.182Z</time></trkpt><trkpt lat="45.5733205" lon="8.7579566"><ele>192.5</ele><time>2026-04-12T10:44:46.182Z</time></trkpt><trkpt lat="45.5733732" lon="8.758349"><ele>192.0</ele><time>2026-04-12T10:44:47.193Z</time></trkpt><trkpt lat="45.5734264" lon="8.7587422"><ele>191.5</ele><time>2026-04-12T10:44:48.184Z</time></trkpt><trkpt lat="45.5734796" lon="8.7591405"><ele>191.0</ele><time>2026-04-12T10:44:49.18Z</time></trkpt><trkpt lat="45.5735322" lon="8.759534"><ele>192.0</ele><time>2026-04-12T10:44:50.182Z</time></trkpt><trkpt lat="45.5735834" lon="8.7599288"><ele>193.0</ele><time>2026-04-12T10:44:51.178Z</time></trkpt><trkpt lat="45.5736371" lon="8.7603215"><ele>193.5</ele><time>2026-04-12T10:44:52.175Z</time></trkpt><trkpt lat="45.57369" lon="8.7607116"><ele>194.0</ele><time>2026-04-12T10:44:53.198Z</time></trkpt><trkpt lat="45.5737408" lon="8.7610963"><ele>195.5</ele><time>2026-04-12T10:44:54.183Z</time></trkpt><trkpt lat="45.5737931" lon="8.7614746"><ele>197.0</ele><time>2026-04-12T10:44:55.178Z</time></trkpt><trkpt lat="45.5738425" lon="8.7618559"><ele>196.0</ele><time>2026-04-12T10:44:56.188Z</time></trkpt><trkpt lat="45.5738925" lon="8.7622349"><ele>195.0</ele><time>2026-04-12T10:44:57.174Z</time></trkpt><trkpt lat="45.5739369" lon="8.7626249"><ele>194.0</ele><time>2026-04-12T10:44:58.224Z</time></trkpt><trkpt lat="45.573986" lon="8.7630125"><ele>193.0</ele><time>2026-04-12T10:44:59.184Z</time></trkpt><trkpt lat="45.5740351" lon="8.7633941"><ele>192.5</ele><time>2026-04-12T10:45:00.182Z</time></trkpt><trkpt lat="45.5740834" lon="8.7637819"><ele>192.0</ele><time>2026-04-12T10:45:01.186Z</time></trkpt><trkpt lat="45.5741184" lon="8.7641711"><ele>194.5</ele><time>2026-04-12T10:45:02.181Z</time></trkpt><trkpt lat="45.5741426" lon="8.7645751"><ele>197.0</ele><time>2026-04-12T10:45:03.188Z</time></trkpt><trkpt lat="45.5741627" lon="8.7649725"><ele>198.5</ele><time>2026-04-12T10:45:04.182Z</time></trkpt><trkpt lat="45.5741762" lon="8.7653715"><ele>200.0</ele><time>2026-04-12T10:45:05.183Z</time></trkpt><trkpt lat="45.5741786" lon="8.7657657"><ele>201.0</ele><time>2026-04-12T10:45:06.182Z</time></trkpt><trkpt lat="45.5741774" lon="8.7661607"><ele>202.0</ele><time>2026-04-12T10:45:07.187Z</time></trkpt><trkpt lat="45.5741583" lon="8.7665561"><ele>202.5</ele><time>2026-04-12T10:45:08.177Z</time></trkpt><trkpt lat="45.5741262" lon="8.7669484"><ele>203.0</ele><time>2026-04-12T10:45:09.182Z</time></trkpt><trkpt lat="45.5740852" lon="8.767334"><ele>201.5</ele><time>2026-04-12T10:45:10.177Z</time></trkpt><trkpt lat="45.5740354" lon="8.7677139"><ele>200.0</ele><time>2026-04-12T10:45:11.18Z</time></trkpt><trkpt lat="45.5739732" lon="8.7680945"><ele>200.0</ele><time>2026-04-12T10:45:12.189Z</time></trkpt><trkpt lat="45.573893" lon="8.7684657"><ele>200.0</ele><time>2026-04-12T10:45:13.184Z</time></trkpt><trkpt lat="45.573802" lon="8.7688303"><ele>199.5</ele><time>2026-04-12T10:45:14.18Z</time></trkpt><trkpt lat="45.5737" lon="8.7691895"><ele>199.0</ele><time>2026-04-12T10:45:15.185Z</time></trkpt><trkpt lat="45.573585" lon="8.7695487"><ele>199.0</ele><time>2026-04-12T10:45:16.187Z</time></trkpt><trkpt lat="45.5734595" lon="8.7699075"><ele>199.0</ele><time>2026-04-12T10:45:17.191Z</time></trkpt><trkpt lat="45.5733204" lon="8.770265"><ele>199.0</ele><time>2026-04-12T10:45:18.188Z</time></trkpt><trkpt lat="45.5731856" lon="8.7706203"><ele>199.0</ele><time>2026-04-12T10:45:19.22Z</time></trkpt><trkpt lat="45.5730417" lon="8.770975"><ele>198.0</ele><time>2026-04-12T10:45:20.174Z</time></trkpt><trkpt lat="45.5728942" lon="8.7713253"><ele>197.0</ele><time>2026-04-12T10:45:21.189Z</time></trkpt><trkpt lat="45.5703439" lon="8.7740038"><ele>197.0</ele><time>2026-04-12T10:45:31.18Z</time></trkpt><trkpt lat="45.570053" lon="8.7743024"><ele>197.0</ele><time>2026-04-12T10:45:32.191Z</time></trkpt><trkpt lat="45.5698119" lon="8.7744816"><ele>197.0</ele><time>2026-04-12T10:45:33.19Z</time></trkpt><trkpt lat="45.5695881" lon="8.7746594"><ele>197.0</ele><time>2026-04-12T10:45:34.181Z</time></trkpt><trkpt lat="45.5693946" lon="8.7747879"><ele>197.0</ele><time>2026-04-12T10:45:35.178Z</time></trkpt><trkpt lat="45.569192" lon="8.7749477"><ele>197.0</ele><time>2026-04-12T10:45:36.18Z</time></trkpt><trkpt lat="45.5690015" lon="8.7751019"><ele>196.33333333333334</ele><time>2026-04-12T10:45:37.177Z</time></trkpt><trkpt lat="45.5688108" lon="8.7752509"><ele>195.66666666666669</ele><time>2026-04-12T10:45:38.184Z</time></trkpt><trkpt lat="45.5686243" lon="8.7753973"><ele>195.0</ele><time>2026-04-12T10:45:39.173Z</time></trkpt><trkpt lat="45.5684423" lon="8.7755447"><ele>195.0</ele><time>2026-04-12T10:45:40.186Z</time></trkpt><trkpt lat="45.568265" lon="8.7756862"><ele>195.0</ele><time>2026-04-12T10:45:41.21Z</time></trkpt><trkpt lat="45.5680838" lon="8.7758324"><ele>195.0</ele><time>2026-04-12T10:45:42.186Z</time></trkpt><trkpt lat="45.5679031" lon="8.7759742"><ele>195.33333333333331</ele><time>2026-04-12T10:45:43.179Z</time></trkpt><trkpt lat="45.5677183" lon="8.7761168"><ele>195.66666666666666</ele><time>2026-04-12T10:45:44.179Z</time></trkpt><trkpt lat="45.5675328" lon="8.7762595"><ele>196.0</ele><time>2026-04-12T10:45:45.179Z</time></trkpt><trkpt lat="45.5673491" lon="8.7764075"><ele>196.0</ele><time>2026-04-12T10:45:46.179Z</time></trkpt><trkpt lat="45.5671703" lon="8.7765518"><ele>196.0</ele><time>2026-04-12T10:45:47.178Z</time></trkpt><trkpt lat="45.5669927" lon="8.7766981"><ele>196.0</ele><time>2026-04-12T10:45:48.221Z</time></trkpt><trkpt lat="45.5668166" lon="8.7768488"><ele>195.66666666666666</ele><time>2026-04-12T10:45:49.211Z</time></trkpt><trkpt lat="45.5666429" lon="8.7770033"><ele>195.33333333333331</ele><time>2026-04-12T10:45:50.224Z</time></trkpt><trkpt lat="45.5664723" lon="8.7771612"><ele>195.0</ele><time>2026-04-12T10:45:51.184Z</time></trkpt><trkpt lat="45.5663062" lon="8.777327"><ele>195.33333333333331</ele><time>2026-04-12T10:45:52.177Z</time></trkpt><trkpt lat="45.5661413" lon="8.7774929"><ele>195.66666666666666</ele><time>2026-04-12T10:45:53.177Z</time></trkpt><trkpt lat="45.5659789" lon="8.777665"><ele>196.0</ele><time>2026-04-12T10:45:54.217Z</time></trkpt><trkpt lat="45.5658173" lon="8.7778418"><ele>195.33333333333331</ele><time>2026-04-12T10:45:55.186Z</time></trkpt><trkpt lat="45.5656551" lon="8.7780248"><ele>194.66666666666669</ele><time>2026-04-12T10:45:56.173Z</time></trkpt><trkpt lat="45.565494" lon="8.7782042"><ele>194.0</ele><time>2026-04-12T10:45:57.179Z</time></trkpt><trkpt lat="45.5653349" lon="8.7783868"><ele>189.0</ele><time>2026-04-12T10:45:58.177Z</time></trkpt><trkpt lat="45.5639024" lon="8.7805831"><ele>189.0</ele><time>2026-04-12T10:46:08.182Z</time></trkpt><trkpt lat="45.5637725" lon="8.7808014"><ele>189.0</ele><time>2026-04-12T10:46:09.187Z</time></trkpt><trkpt lat="45.5636407" lon="8.7810468"><ele>189.0</ele><time>2026-04-12T10:46:10.224Z</time></trkpt><trkpt lat="45.5635061" lon="8.7812668"><ele>188.0</ele><time>2026-04-12T10:46:11.217Z</time></trkpt><trkpt lat="45.563388" lon="8.7814831"><ele>187.0</ele><time>2026-04-12T10:46:12.187Z</time></trkpt><trkpt lat="45.5632783" lon="8.781683"><ele>186.0</ele><time>2026-04-12T10:46:13.177Z</time></trkpt><trkpt lat="45.5631864" lon="8.7818766"><ele>186.0</ele><time>2026-04-12T10:46:14.183Z</time></trkpt><trkpt lat="45.5630163" lon="8.7822105"><ele>186.0</ele><time>2026-04-12T10:46:16.181Z</time></trkpt><trkpt lat="45.5629454" lon="8.7823512"><ele>186.0</ele><time>2026-04-12T10:46:17.182Z</time></trkpt><trkpt lat="45.5628806" lon="8.7824802"><ele>185.75</ele><time>2026-04-12T10:46:18.189Z</time></trkpt><trkpt lat="45.5628176" lon="8.7826029"><ele>185.5</ele><time>2026-04-12T10:46:19.181Z</time></trkpt><trkpt lat="45.5627413" lon="8.7827151"><ele>185.25</ele><time>2026-04-12T10:46:20.181Z</time></trkpt><trkpt lat="45.562655" lon="8.7828515"><ele>185.0</ele><time>2026-04-12T10:46:21.222Z</time></trkpt><trkpt lat="45.5625884" lon="8.7829844"><ele>186.2</ele><time>2026-04-12T10:46:22.17Z</time></trkpt><trkpt lat="45.5625369" lon="8.7831437"><ele>187.4</ele><time>2026-04-12T10:46:23.182Z</time></trkpt><trkpt lat="45.5625163" lon="8.7832844"><ele>188.60000000000002</ele><time>2026-04-12T10:46:24.186Z</time></trkpt><trkpt lat="45.5625149" lon="8.7834185"><ele>189.8</ele><time>2026-04-12T10:46:25.18Z</time></trkpt><trkpt lat="45.5625462" lon="8.7835762"><ele>191.0</ele><time>2026-04-12T10:46:26.189Z</time></trkpt><trkpt lat="45.5626009" lon="8.7837266"><ele>191.0</ele><time>2026-04-12T10:46:27.169Z</time></trkpt><trkpt lat="45.5626771" lon="8.7838478"><ele>191.0</ele><time>2026-04-12T10:46:28.184Z</time></trkpt><trkpt lat="45.5627756" lon="8.7839301"><ele>191.0</ele><time>2026-04-12T10:46:29.184Z</time></trkpt><trkpt lat="45.5628933" lon="8.7839779"><ele>191.0</ele><time>2026-04-12T10:46:30.182Z</time></trkpt><trkpt lat="45.5630073" lon="8.7839777"><ele>190.5</ele><time>2026-04-12T10:46:31.186Z</time></trkpt><trkpt lat="45.5631289" lon="8.7839269"><ele>190.0</ele><time>2026-04-12T10:46:32.176Z</time></trkpt><trkpt lat="45.5632409" lon="8.7838524"><ele>189.5</ele><time>2026-04-12T10:46:33.179Z</time></trkpt><trkpt lat="45.5633522" lon="8.7838016"><ele>189.0</ele><time>2026-04-12T10:46:34.188Z</time></trkpt><trkpt lat="45.5634766" lon="8.7838074"><ele>189.0</ele><time>2026-04-12T10:46:35.178Z</time></trkpt><trkpt lat="45.5636157" lon="8.7838538"><ele>189.0</ele><time>2026-04-12T10:46:36.187Z</time></trkpt><trkpt lat="45.5637523" lon="8.7838809"><ele>189.0</ele><time>2026-04-12T10:46:37.183Z</time></trkpt><trkpt lat="45.5638733" lon="8.7838606"><ele>189.0</ele><time>2026-04-12T10:46:38.186Z</time></trkpt><trkpt lat="45.5639803" lon="8.7838098"><ele>189.0</ele><time>2026-04-12T10:46:39.184Z</time></trkpt><trkpt lat="45.5640713" lon="8.7837667"><ele>189.0</ele><time>2026-04-12T10:46:40.179Z</time></trkpt><trkpt lat="45.564164" lon="8.7837478"><ele>189.0</ele><time>2026-04-12T10:46:41.183Z</time></trkpt><trkpt lat="45.5642486" lon="8.7837568"><ele>189.0</ele><time>2026-04-12T10:46:42.186Z</time></trkpt><trkpt lat="45.5643292" lon="8.7837789"><ele>189.0</ele><time>2026-04-12T10:46:43.183Z</time></trkpt><trkpt lat="45.5644034" lon="8.7838445"><ele>189.0</ele><time>2026-04-12T10:46:44.194Z</time></trkpt><trkpt lat="45.5644663" lon="8.7839477"><ele>189.0</ele><time>2026-04-12T10:46:45.181Z</time></trkpt><trkpt lat="45.5645074" lon="8.7840978"><ele>189.0</ele><time>2026-04-12T10:46:46.184Z</time></trkpt><trkpt lat="45.5645338" lon="8.7842842"><ele>189.0</ele><time>2026-04-12T10:46:47.218Z</time></trkpt><trkpt lat="45.5645464" lon="8.7845168"><ele>189.0</ele><time>2026-04-12T10:46:48.22Z</time></trkpt><trkpt lat="45.5645582" lon="8.7847907"><ele>190.5</ele><time>2026-04-12T10:46:49.18Z</time></trkpt><trkpt lat="45.5645867" lon="8.7851095"><ele>192.0</ele><time>2026-04-12T10:46:50.177Z</time></trkpt><trkpt lat="45.5646378" lon="8.7854958"><ele>193.0</ele><time>2026-04-12T10:46:51.176Z</time></trkpt><trkpt lat="45.5646942" lon="8.7858827"><ele>194.0</ele><time>2026-04-12T10:46:52.18Z</time></trkpt><trkpt lat="45.5647508" lon="8.7862688"><ele>194.5</ele><time>2026-04-12T10:46:53.196Z</time></trkpt><trkpt lat="45.5648073" lon="8.7866253"><ele>195.0</ele><time>2026-04-12T10:46:54.171Z</time></trkpt><trkpt lat="45.5648632" lon="8.7869648"><ele>195.0</ele><time>2026-04-12T10:46:55.182Z</time></trkpt><trkpt lat="45.5649273" lon="8.7873004"><ele>195.0</ele><time>2026-04-12T10:46:56.164Z</time></trkpt><trkpt lat="45.5650132" lon="8.787614"><ele>194.0</ele><time>2026-04-12T10:46:57.181Z</time></trkpt><trkpt lat="45.5651184" lon="8.7879124"><ele>193.0</ele><time>2026-04-12T10:46:58.182Z</time></trkpt><trkpt lat="45.5652478" lon="8.7881889"><ele>194.0</ele><time>2026-04-12T10:46:59.187Z</time></trkpt><trkpt lat="45.5653958" lon="8.7884481"><ele>195.0</ele><time>2026-04-12T10:47:00.193Z</time></trkpt><trkpt lat="45.5655615" lon="8.7886755"><ele>196.0</ele><time>2026-04-12T10:47:01.182Z</time></trkpt><trkpt lat="45.5657411" lon="8.7888723"><ele>197.0</ele><time>2026-04-12T10:47:02.22Z</time></trkpt><trkpt lat="45.565935" lon="8.7890304"><ele>197.0</ele><time>2026-04-12T10:47:03.226Z</time></trkpt><trkpt lat="45.5661353" lon="8.7891712"><ele>197.0</ele><time>2026-04-12T10:47:04.179Z</time></trkpt><trkpt lat="45.5663226" lon="8.7893069"><ele>197.0</ele><time>2026-04-12T10:47:05.196Z</time></trkpt><trkpt lat="45.5665006" lon="8.7894303"><ele>195.66666666666669</ele><time>2026-04-12T10:47:06.183Z</time></trkpt><trkpt lat="45.5666792" lon="8.7895556"><ele>194.33333333333331</ele><time>2026-04-12T10:47:07.222Z</time></trkpt><trkpt lat="45.5668552" lon="8.7896957"><ele>193.0</ele><time>2026-04-12T10:47:08.187Z</time></trkpt><trkpt lat="45.5670311" lon="8.7898621"><ele>193.0</ele><time>2026-04-12T10:47:09.188Z</time></trkpt><trkpt lat="45.5671971" lon="8.7900539"><ele>193.0</ele><time>2026-04-12T10:47:10.182Z</time></trkpt><trkpt lat="45.5673503" lon="8.7902661"><ele>193.0</ele><time>2026-04-12T10:47:11.194Z</time></trkpt><trkpt lat="45.5674988" lon="8.7904993"><ele>192.66666666666666</ele><time>2026-04-12T10:47:12.19Z</time></trkpt><trkpt lat="45.5676472" lon="8.7907378"><ele>192.33333333333331</ele><time>2026-04-12T10:47:13.183Z</time></trkpt><trkpt lat="45.5677986" lon="8.7909766"><ele>192.0</ele><time>2026-04-12T10:47:14.184Z</time></trkpt><trkpt lat="45.5679474" lon="8.7912022"><ele>192.0</ele><time>2026-04-12T10:47:15.189Z</time></trkpt><trkpt lat="45.568091" lon="8.7914185"><ele>192.0</ele><time>2026-04-12T10:47:16.187Z</time></trkpt><trkpt lat="45.5682261" lon="8.7916312"><ele>192.0</ele><time>2026-04-12T10:47:17.223Z</time></trkpt><trkpt lat="45.5683594" lon="8.7918304"><ele>192.33333333333331</ele><time>2026-04-12T10:47:18.222Z</time></trkpt><trkpt lat="45.5684994" lon="8.7920109"><ele>192.66666666666666</ele><time>2026-04-12T10:47:19.18Z</time></trkpt><trkpt lat="45.5686422" lon="8.7921648"><ele>193.0</ele><time>2026-04-12T10:47:20.185Z</time></trkpt><trkpt lat="45.568782" lon="8.7922974"><ele>193.0</ele><time>2026-04-12T10:47:21.198Z</time></trkpt><trkpt lat="45.5689243" lon="8.7924147"><ele>193.0</ele><time>2026-04-12T10:47:22.182Z</time></trkpt><trkpt lat="45.5690717" lon="8.7925193"><ele>193.0</ele><time>2026-04-12T10:47:23.191Z</time></trkpt><trkpt lat="45.5692265" lon="8.7926171"><ele>193.0</ele><time>2026-04-12T10:47:24.181Z</time></trkpt><trkpt lat="45.5693827" lon="8.7927013"><ele>193.0</ele><time>2026-04-12T10:47:25.18Z</time></trkpt><trkpt lat="45.5695351" lon="8.7927649"><ele>193.0</ele><time>2026-04-12T10:47:26.174Z</time></trkpt><trkpt lat="45.5696858" lon="8.7928111"><ele>193.5</ele><time>2026-04-12T10:47:27.183Z</time></trkpt><trkpt lat="45.5698353" lon="8.7928464"><ele>194.0</ele><time>2026-04-12T10:47:28.179Z</time></trkpt><trkpt lat="45.5699804" lon="8.7928742"><ele>194.5</ele><time>2026-04-12T10:47:29.169Z</time></trkpt><trkpt lat="45.5701167" lon="8.7928992"><ele>195.0</ele><time>2026-04-12T10:47:30.181Z</time></trkpt><trkpt lat="45.5702418" lon="8.7929191"><ele>195.0</ele><time>2026-04-12T10:47:31.177Z</time></trkpt><trkpt lat="45.5703505" lon="8.7929385"><ele>195.0</ele><time>2026-04-12T10:47:32.179Z</time></trkpt><trkpt lat="45.5704425" lon="8.7929641"><ele>195.0</ele><time>2026-04-12T10:47:33.182Z</time></trkpt><trkpt lat="45.5705172" lon="8.7929886"><ele>195.0</ele><time>2026-04-12T10:47:34.178Z</time></trkpt><trkpt lat="45.5705817" lon="8.7930305"><ele>195.0</ele><time>2026-04-12T10:47:35.189Z</time></trkpt><trkpt lat="45.5706314" lon="8.7931039"><ele>195.0</ele><time>2026-04-12T10:47:36.218Z</time></trkpt><trkpt lat="45.5706732" lon="8.7932199"><ele>195.33333333333331</ele><time>2026-04-12T10:47:37.223Z</time></trkpt><trkpt lat="45.5707097" lon="8.7933746"><ele>195.66666666666666</ele><time>2026-04-12T10:47:38.182Z</time></trkpt><trkpt lat="45.5707197" lon="8.7935952"><ele>196.0</ele><time>2026-04-12T10:47:39.176Z</time></trkpt><trkpt lat="45.570724" lon="8.7938746"><ele>195.0</ele><time>2026-04-12T10:47:40.184Z</time></trkpt><trkpt lat="45.5707188" lon="8.7942093"><ele>194.0</ele><time>2026-04-12T10:47:41.186Z</time></trkpt><trkpt lat="45.5707056" lon="8.7945573"><ele>193.0</ele><time>2026-04-12T10:47:42.214Z</time></trkpt><trkpt lat="45.5707014" lon="8.7949147"><ele>192.0</ele><time>2026-04-12T10:47:43.179Z</time></trkpt><trkpt lat="45.5706977" lon="8.7953044"><ele>192.0</ele><time>2026-04-12T10:47:44.177Z</time></trkpt><trkpt lat="45.5706943" lon="8.7957133"><ele>192.0</ele><time>2026-04-12T10:47:45.181Z</time></trkpt><trkpt lat="45.5706918" lon="8.7961224"><ele>192.0</ele><time>2026-04-12T10:47:46.192Z</time></trkpt><trkpt lat="45.5706926" lon="8.7965265"><ele>192.0</ele><time>2026-04-12T10:47:47.182Z</time></trkpt><trkpt lat="45.5706883" lon="8.7969335"><ele>192.0</ele><time>2026-04-12T10:47:48.185Z</time></trkpt><trkpt lat="45.5706848" lon="8.7973314"><ele>192.0</ele><time>2026-04-12T10:47:49.176Z</time></trkpt><trkpt lat="45.5706782" lon="8.7977203"><ele>192.0</ele><time>2026-04-12T10:47:50.178Z</time></trkpt><trkpt lat="45.5706708" lon="8.7980992"><ele>192.0</ele><time>2026-04-12T10:47:51.219Z</time></trkpt><trkpt lat="45.5706558" lon="8.798469"><ele>193.0</ele><time>2026-04-12T10:47:52.186Z</time></trkpt><trkpt lat="45.5706402" lon="8.7988258"><ele>194.0</ele><time>2026-04-12T10:47:53.224Z</time></trkpt><trkpt lat="45.5706254" lon="8.799173"><ele>193.66666666666669</ele><time>2026-04-12T10:47:54.176Z</time></trkpt><trkpt lat="45.5706101" lon="8.799505"><ele>193.33333333333331</ele><time>2026-04-12T10:47:55.223Z</time></trkpt><trkpt lat="45.5705961" lon="8.7998094"><ele>193.0</ele><time>2026-04-12T10:47:56.219Z</time></trkpt><trkpt lat="45.5705877" lon="8.8000961"><ele>193.66666666666666</ele><time>2026-04-12T10:47:57.189Z</time></trkpt><trkpt lat="45.5705809" lon="8.8003612"><ele>194.33333333333331</ele><time>2026-04-12T10:47:58.173Z</time></trkpt><trkpt lat="45.5705778" lon="8.8006058"><ele>195.0</ele><time>2026-04-12T10:47:59.179Z</time></trkpt><trkpt lat="45.5705714" lon="8.8008128"><ele>195.0</ele><time>2026-04-12T10:48:00.169Z</time></trkpt><trkpt lat="45.570556" lon="8.8009882"><ele>195.0</ele><time>2026-04-12T10:48:01.184Z</time></trkpt><trkpt lat="45.5705119" lon="8.8011339"><ele>195.0</ele><time>2026-04-12T10:48:02.187Z</time></trkpt><trkpt lat="45.5704521" lon="8.8012677"><ele>195.0</ele><time>2026-04-12T10:48:03.22Z</time></trkpt><trkpt lat="45.5704144" lon="8.8013919"><ele>195.0</ele><time>2026-04-12T10:48:04.177Z</time></trkpt><trkpt lat="45.5704053" lon="8.8015234"><ele>194.75</ele><time>2026-04-12T10:48:05.181Z</time></trkpt><trkpt lat="45.5704347" lon="8.8016814"><ele>194.5</ele><time>2026-04-12T10:48:06.192Z</time></trkpt><trkpt lat="45.5704988" lon="8.8018478"><ele>194.25</ele><time>2026-04-12T10:48:07.194Z</time></trkpt><trkpt lat="45.5705412" lon="8.8020519"><ele>194.0</ele><time>2026-04-12T10:48:08.171Z</time></trkpt><trkpt lat="45.57056" lon="8.8023022"><ele>194.0</ele><time>2026-04-12T10:48:09.177Z</time></trkpt><trkpt lat="45.5705602" lon="8.8026065"><ele>194.0</ele><time>2026-04-12T10:48:10.181Z</time></trkpt><trkpt lat="45.5705487" lon="8.8029241"><ele>194.0</ele><time>2026-04-12T10:48:11.188Z</time></trkpt><trkpt lat="45.570537" lon="8.8032625"><ele>194.0</ele><time>2026-04-12T10:48:12.195Z</time></trkpt><trkpt lat="45.5705273" lon="8.8036186"><ele>194.0</ele><time>2026-04-12T10:48:13.222Z</time></trkpt><trkpt lat="45.5705291" lon="8.8039862"><ele>193.0</ele><time>2026-04-12T10:48:14.179Z</time></trkpt><trkpt lat="45.5705291" lon="8.804381"><ele>192.0</ele><time>2026-04-12T10:48:15.188Z</time></trkpt><trkpt lat="45.5705212" lon="8.8047622"><ele>192.0</ele><time>2026-04-12T10:48:16.19Z</time></trkpt><trkpt lat="45.5705158" lon="8.8051167"><ele>192.0</ele><time>2026-04-12T10:48:17.205Z</time></trkpt><trkpt lat="45.5705054" lon="8.8054535"><ele>192.5</ele><time>2026-04-12T10:48:18.191Z</time></trkpt><trkpt lat="45.570503" lon="8.8057874"><ele>193.0</ele><time>2026-04-12T10:48:19.178Z</time></trkpt><trkpt lat="45.5704979" lon="8.8061345"><ele>192.0</ele><time>2026-04-12T10:48:20.184Z</time></trkpt><trkpt lat="45.5704974" lon="8.8064735"><ele>191.0</ele><time>2026-04-12T10:48:21.215Z</time></trkpt><trkpt lat="45.5704968" lon="8.8067978"><ele>191.0</ele><time>2026-04-12T10:48:22.223Z</time></trkpt><trkpt lat="45.5704949" lon="8.8071357"><ele>191.0</ele><time>2026-04-12T10:48:23.179Z</time></trkpt><trkpt lat="45.57049" lon="8.8074766"><ele>191.5</ele><time>2026-04-12T10:48:24.175Z</time></trkpt><trkpt lat="45.5704812" lon="8.8078052"><ele>192.0</ele><time>2026-04-12T10:48:25.181Z</time></trkpt><trkpt lat="45.5704749" lon="8.8081267"><ele>192.0</ele><time>2026-04-12T10:48:26.192Z</time></trkpt><trkpt lat="45.5704715" lon="8.80843"><ele>192.0</ele><time>2026-04-12T10:48:27.222Z</time></trkpt><trkpt lat="45.5704684" lon="8.8087135"><ele>192.0</ele><time>2026-04-12T10:48:28.197Z</time></trkpt><trkpt lat="45.5704663" lon="8.8089706"><ele>192.25</ele><time>2026-04-12T10:48:29.168Z</time></trkpt><trkpt lat="45.570464" lon="8.809198"><ele>192.5</ele><time>2026-04-12T10:48:30.179Z</time></trkpt><trkpt lat="45.5704586" lon="8.8093949"><ele>192.75</ele><time>2026-04-12T10:48:31.195Z</time></trkpt><trkpt lat="45.5704527" lon="8.8095489"><ele>193.0</ele><time>2026-04-12T10:48:32.163Z</time></trkpt><trkpt lat="45.5704468" lon="8.8096651"><ele>192.99999999999997</ele><time>2026-04-12T10:48:33.182Z</time></trkpt><trkpt lat="45.5704349" lon="8.8097655"><ele>193.0</ele><time>2026-04-12T10:48:34.178Z</time></trkpt><trkpt lat="45.5704155" lon="8.8098727"><ele>193.0</ele><time>2026-04-12T10:48:35.183Z</time></trkpt><trkpt lat="45.5703707" lon="8.8099797"><ele>193.0</ele><time>2026-04-12T10:48:36.181Z</time></trkpt><trkpt lat="45.5703147" lon="8.8100859"><ele>192.99999999999997</ele><time>2026-04-12T10:48:37.193Z</time></trkpt><trkpt lat="45.5702664" lon="8.8102157"><ele>193.0</ele><time>2026-04-12T10:48:38.187Z</time></trkpt><trkpt lat="45.5702231" lon="8.810351"><ele>192.33333333333331</ele><time>2026-04-12T10:48:39.181Z</time></trkpt><trkpt lat="45.570158" lon="8.8104971"><ele>191.66666666666666</ele><time>2026-04-12T10:48:40.175Z</time></trkpt><trkpt lat="45.570057" lon="8.8106474"><ele>191.0</ele><time>2026-04-12T10:48:41.184Z</time></trkpt><trkpt lat="45.5699171" lon="8.8108278"><ele>191.0</ele><time>2026-04-12T10:48:42.183Z</time></trkpt><trkpt lat="45.5697384" lon="8.8110315"><ele>191.0</ele><time>2026-04-12T10:48:43.181Z</time></trkpt><trkpt lat="45.5695634" lon="8.8112604"><ele>193.5</ele><time>2026-04-12T10:48:44.186Z</time></trkpt><trkpt lat="45.5693896" lon="8.8115235"><ele>196.0</ele><time>2026-04-12T10:48:45.197Z</time></trkpt><trkpt lat="45.569231" lon="8.8117988"><ele>194.0</ele><time>2026-04-12T10:48:46.187Z</time></trkpt><trkpt lat="45.5690835" lon="8.8121076"><ele>192.0</ele><time>2026-04-12T10:48:47.184Z</time></trkpt><trkpt lat="45.5689469" lon="8.8124317"><ele>191.0</ele><time>2026-04-12T10:48:48.182Z</time></trkpt><trkpt lat="45.56883" lon="8.8127681"><ele>190.0</ele><time>2026-04-12T10:48:49.196Z</time></trkpt><trkpt lat="45.5687353" lon="8.813114"><ele>190.5</ele><time>2026-04-12T10:48:50.186Z</time></trkpt><trkpt lat="45.5686594" lon="8.8134555"><ele>191.0</ele><time>2026-04-12T10:48:51.191Z</time></trkpt><trkpt lat="45.5686098" lon="8.8137755"><ele>189.66666666666666</ele><time>2026-04-12T10:48:52.187Z</time></trkpt><trkpt lat="45.56858" lon="8.8140735"><ele>188.33333333333334</ele><time>2026-04-12T10:48:53.187Z</time></trkpt><trkpt lat="45.5685621" lon="8.814373"><ele>187.0</ele><time>2026-04-12T10:48:54.182Z</time></trkpt><trkpt lat="45.568555" lon="8.8146554"><ele>187.0</ele><time>2026-04-12T10:48:55.186Z</time></trkpt><trkpt lat="45.5685541" lon="8.814919"><ele>187.0</ele><time>2026-04-12T10:48:56.183Z</time></trkpt><trkpt lat="45.5685629" lon="8.8151614"><ele>187.0</ele><time>2026-04-12T10:48:57.218Z</time></trkpt><trkpt lat="45.5685769" lon="8.8153839"><ele>187.5</ele><time>2026-04-12T10:48:58.186Z</time></trkpt><trkpt lat="45.5685732" lon="8.8155861"><ele>188.0</ele><time>2026-04-12T10:48:59.176Z</time></trkpt><trkpt lat="45.5685507" lon="8.8157661"><ele>188.5</ele><time>2026-04-12T10:49:00.179Z</time></trkpt><trkpt lat="45.5685116" lon="8.8159284"><ele>189.0</ele><time>2026-04-12T10:49:01.199Z</time></trkpt><trkpt lat="45.5684822" lon="8.816071"><ele>189.2</ele><time>2026-04-12T10:49:02.211Z</time></trkpt><trkpt lat="45.5684823" lon="8.8162014"><ele>189.39999999999998</ele><time>2026-04-12T10:49:03.217Z</time></trkpt><trkpt lat="45.5685086" lon="8.816331"><ele>189.6</ele><time>2026-04-12T10:49:04.183Z</time></trkpt><trkpt lat="45.568567" lon="8.8164557"><ele>189.8</ele><time>2026-04-12T10:49:05.183Z</time></trkpt><trkpt lat="45.5686213" lon="8.8165895"><ele>190.0</ele><time>2026-04-12T10:49:06.191Z</time></trkpt><trkpt lat="45.5686582" lon="8.8167687"><ele>190.0</ele><time>2026-04-12T10:49:07.187Z</time></trkpt><trkpt lat="45.5686732" lon="8.817253"><ele>190.0</ele><time>2026-04-12T10:49:09.177Z</time></trkpt><trkpt lat="45.5686589" lon="8.8175522"><ele>189.66666666666669</ele><time>2026-04-12T10:49:10.185Z</time></trkpt><trkpt lat="45.5686567" lon="8.8178562"><ele>189.33333333333334</ele><time>2026-04-12T10:49:11.184Z</time></trkpt><trkpt lat="45.5686696" lon="8.8181937"><ele>189.0</ele><time>2026-04-12T10:49:12.182Z</time></trkpt><trkpt lat="45.568707" lon="8.8185679"><ele>190.0</ele><time>2026-04-12T10:49:13.184Z</time></trkpt><trkpt lat="45.5687686" lon="8.8189626"><ele>191.0</ele><time>2026-04-12T10:49:14.181Z</time></trkpt><trkpt lat="45.5688522" lon="8.8193445"><ele>191.0</ele><time>2026-04-12T10:49:15.191Z</time></trkpt><trkpt lat="45.5689592" lon="8.8197052"><ele>191.0</ele><time>2026-04-12T10:49:16.219Z</time></trkpt><trkpt lat="45.569086" lon="8.8200667"><ele>189.5</ele><time>2026-04-12T10:49:17.226Z</time></trkpt><trkpt lat="45.569234" lon="8.8204231"><ele>188.0</ele><time>2026-04-12T10:49:18.179Z</time></trkpt><trkpt lat="45.5694071" lon="8.8207786"><ele>189.0</ele><time>2026-04-12T10:49:19.18Z</time></trkpt><trkpt lat="45.5695875" lon="8.8211001"><ele>190.0</ele><time>2026-04-12T10:49:20.181Z</time></trkpt><trkpt lat="45.569772" lon="8.8213991"><ele>190.0</ele><time>2026-04-12T10:49:21.225Z</time></trkpt><trkpt lat="45.5699471" lon="8.8216761"><ele>190.0</ele><time>2026-04-12T10:49:22.174Z</time></trkpt><trkpt lat="45.5701256" lon="8.8219452"><ele>191.5</ele><time>2026-04-12T10:49:23.186Z</time></trkpt><trkpt lat="45.5702938" lon="8.8222287"><ele>193.0</ele><time>2026-04-12T10:49:24.178Z</time></trkpt><trkpt lat="45.5704482" lon="8.8225262"><ele>192.0</ele><time>2026-04-12T10:49:25.188Z</time></trkpt><trkpt lat="45.5705834" lon="8.8228238"><ele>191.0</ele><time>2026-04-12T10:49:26.177Z</time></trkpt><trkpt lat="45.5707081" lon="8.8231342"><ele>191.0</ele><time>2026-04-12T10:49:27.181Z</time></trkpt><trkpt lat="45.5708151" lon="8.8234591"><ele>191.0</ele><time>2026-04-12T10:49:28.19Z</time></trkpt><trkpt lat="45.5708979" lon="8.8237745"><ele>192.0</ele><time>2026-04-12T10:49:29.174Z</time></trkpt><trkpt lat="45.5709609" lon="8.824071"><ele>193.0</ele><time>2026-04-12T10:49:30.18Z</time></trkpt><trkpt lat="45.5710102" lon="8.8243401"><ele>194.0</ele><time>2026-04-12T10:49:31.215Z</time></trkpt><trkpt lat="45.5710381" lon="8.8245766"><ele>194.0</ele><time>2026-04-12T10:49:32.168Z</time></trkpt><trkpt lat="45.5710504" lon="8.8247677"><ele>194.0</ele><time>2026-04-12T10:49:33.221Z</time></trkpt><trkpt lat="45.5710458" lon="8.8249361"><ele>194.0</ele><time>2026-04-12T10:49:34.184Z</time></trkpt><trkpt lat="45.5710158" lon="8.8250818"><ele>194.0</ele><time>2026-04-12T10:49:35.182Z</time></trkpt><trkpt lat="45.5709737" lon="8.8252097"><ele>194.0</ele><time>2026-04-12T10:49:36.2Z</time></trkpt><trkpt lat="45.570956" lon="8.8253384"><ele>194.0</ele><time>2026-04-12T10:49:37.192Z</time></trkpt><trkpt lat="45.5709691" lon="8.8254712"><ele>194.0</ele><time>2026-04-12T10:49:38.195Z</time></trkpt><trkpt lat="45.5710207" lon="8.8256283"><ele>194.0</ele><time>2026-04-12T10:49:39.18Z</time></trkpt><trkpt lat="45.5710827" lon="8.825771"><ele>194.0</ele><time>2026-04-12T10:49:40.191Z</time></trkpt><trkpt lat="45.5711312" lon="8.8259635"><ele>194.33333333333334</ele><time>2026-04-12T10:49:41.219Z</time></trkpt><trkpt lat="45.5711634" lon="8.8262059"><ele>194.66666666666669</ele><time>2026-04-12T10:49:42.217Z</time></trkpt><trkpt lat="45.5711904" lon="8.8264981"><ele>195.0</ele><time>2026-04-12T10:49:43.222Z</time></trkpt><trkpt lat="45.5712199" lon="8.8268573"><ele>196.5</ele><time>2026-04-12T10:49:44.185Z</time></trkpt><trkpt lat="45.5712515" lon="8.8272632"><ele>198.0</ele><time>2026-04-12T10:49:45.178Z</time></trkpt><trkpt lat="45.5712867" lon="8.8276986"><ele>199.0</ele><time>2026-04-12T10:49:46.179Z</time></trkpt><trkpt lat="45.5713306" lon="8.8282008"><ele>200.0</ele><time>2026-04-12T10:49:47.183Z</time></trkpt><trkpt lat="45.5713768" lon="8.8287181"><ele>200.0</ele><time>2026-04-12T10:49:48.182Z</time></trkpt><trkpt lat="45.5714326" lon="8.8292747"><ele>200.0</ele><time>2026-04-12T10:49:49.179Z</time></trkpt><trkpt lat="45.5715" lon="8.8298417"><ele>200.5</ele><time>2026-04-12T10:49:50.186Z</time></trkpt><trkpt lat="45.5715826" lon="8.8304326"><ele>201.0</ele><time>2026-04-12T10:49:51.222Z</time></trkpt><trkpt lat="45.571667" lon="8.8310101"><ele>202.0</ele><time>2026-04-12T10:49:52.183Z</time></trkpt><trkpt lat="45.5717444" lon="8.8315292"><ele>203.0</ele><time>2026-04-12T10:49:53.182Z</time></trkpt><trkpt lat="45.5718192" lon="8.8320104"><ele>203.0</ele><time>2026-04-12T10:49:54.179Z</time></trkpt><trkpt lat="45.5718863" lon="8.8324532"><ele>203.0</ele><time>2026-04-12T10:49:55.179Z</time></trkpt><trkpt lat="45.571946" lon="8.8328634"><ele>203.0</ele><time>2026-04-12T10:49:56.176Z</time></trkpt><trkpt lat="45.5719993" lon="8.8332383"><ele>203.0</ele><time>2026-04-12T10:49:57.223Z</time></trkpt><trkpt lat="45.5720526" lon="8.8335829"><ele>202.33333333333334</ele><time>2026-04-12T10:49:58.191Z</time></trkpt><trkpt lat="45.5721048" lon="8.8339039"><ele>201.66666666666669</ele><time>2026-04-12T10:49:59.175Z</time></trkpt><trkpt lat="45.5721505" lon="8.8341973"><ele>201.0</ele><time>2026-04-12T10:50:00.18Z</time></trkpt><trkpt lat="45.5721927" lon="8.8344683"><ele>201.0</ele><time>2026-04-12T10:50:01.182Z</time></trkpt><trkpt lat="45.5722325" lon="8.8347155"><ele>201.0</ele><time>2026-04-12T10:50:02.192Z</time></trkpt><trkpt lat="45.572274" lon="8.8349439"><ele>201.0</ele><time>2026-04-12T10:50:03.18Z</time></trkpt><trkpt lat="45.5723081" lon="8.8351337"><ele>200.5</ele><time>2026-04-12T10:50:04.186Z</time></trkpt><trkpt lat="45.5723242" lon="8.8353187"><ele>200.0</ele><time>2026-04-12T10:50:05.179Z</time></trkpt><trkpt lat="45.5723078" lon="8.83548"><ele>199.5</ele><time>2026-04-12T10:50:06.175Z</time></trkpt><trkpt lat="45.5722635" lon="8.8356178"><ele>199.0</ele><time>2026-04-12T10:50:07.191Z</time></trkpt><trkpt lat="45.5722056" lon="8.8357348"><ele>199.0</ele><time>2026-04-12T10:50:08.189Z</time></trkpt><trkpt lat="45.5721748" lon="8.8358404"><ele>199.0</ele><time>2026-04-12T10:50:09.179Z</time></trkpt><trkpt lat="45.5721783" lon="8.8359427"><ele>199.0</ele><time>2026-04-12T10:50:10.177Z</time></trkpt><trkpt lat="45.5722048" lon="8.8360368"><ele>199.0</ele><time>2026-04-12T10:50:11.181Z</time></trkpt><trkpt lat="45.5723845" lon="8.8361065"><ele>199.0</ele><time>2026-04-12T10:50:14.182Z</time></trkpt><trkpt lat="45.5724438" lon="8.8360717"><ele>198.99999999999997</ele><time>2026-04-12T10:50:15.182Z</time></trkpt><trkpt lat="45.5725079" lon="8.8360245"><ele>199.0</ele><time>2026-04-12T10:50:16.167Z</time></trkpt><trkpt lat="45.5725796" lon="8.8359887"><ele>199.0</ele><time>2026-04-12T10:50:17.181Z</time></trkpt><trkpt lat="45.5726485" lon="8.8359599"><ele>199.0</ele><time>2026-04-12T10:50:18.182Z</time></trkpt><trkpt lat="45.5727237" lon="8.8359433"><ele>198.99999999999997</ele><time>2026-04-12T10:50:19.183Z</time></trkpt><trkpt lat="45.5728028" lon="8.8359352"><ele>199.0</ele><time>2026-04-12T10:50:20.18Z</time></trkpt><trkpt lat="45.5728925" lon="8.8359248"><ele>198.5</ele><time>2026-04-12T10:50:21.2Z</time></trkpt><trkpt lat="45.5729948" lon="8.8359099"><ele>198.0</ele><time>2026-04-12T10:50:22.177Z</time></trkpt><trkpt lat="45.5731024" lon="8.8358879"><ele>197.5</ele><time>2026-04-12T10:50:23.181Z</time></trkpt><trkpt lat="45.5733053" lon="8.8358503"><ele>197.0</ele><time>2026-04-12T10:50:24.175Z</time></trkpt><trkpt lat="45.573511" lon="8.8358069"><ele>197.0</ele><time>2026-04-12T10:50:25.189Z</time></trkpt><trkpt lat="45.5737243" lon="8.8357658"><ele>197.0</ele><time>2026-04-12T10:50:26.176Z</time></trkpt><trkpt lat="45.573921" lon="8.835716"><ele>197.0</ele><time>2026-04-12T10:50:27.175Z</time></trkpt><trkpt lat="45.5741269" lon="8.8356598"><ele>197.0</ele><time>2026-04-12T10:50:28.181Z</time></trkpt><trkpt lat="45.5743419" lon="8.8355936"><ele>197.0</ele><time>2026-04-12T10:50:29.186Z</time></trkpt><trkpt lat="45.5745682" lon="8.8355096"><ele>197.5</ele><time>2026-04-12T10:50:30.186Z</time></trkpt><trkpt lat="45.5747895" lon="8.8354102"><ele>198.0</ele><time>2026-04-12T10:50:31.224Z</time></trkpt><trkpt lat="45.5750136" lon="8.8353294"><ele>198.0</ele><time>2026-04-12T10:50:32.184Z</time></trkpt><trkpt lat="45.5752403" lon="8.8352626"><ele>198.0</ele><time>2026-04-12T10:50:33.184Z</time></trkpt><trkpt lat="45.5754661" lon="8.8352106"><ele>198.0</ele><time>2026-04-12T10:50:34.177Z</time></trkpt><trkpt lat="45.5756876" lon="8.8351546"><ele>198.0</ele><time>2026-04-12T10:50:35.185Z</time></trkpt><trkpt lat="45.5759304" lon="8.8351028"><ele>197.5</ele><time>2026-04-12T10:50:36.177Z</time></trkpt><trkpt lat="45.5762053" lon="8.8350504"><ele>197.0</ele><time>2026-04-12T10:50:37.178Z</time></trkpt><trkpt lat="45.5765051" lon="8.8349949"><ele>197.0</ele><time>2026-04-12T10:50:38.189Z</time></trkpt><trkpt lat="45.576783" lon="8.8349359"><ele>197.0</ele><time>2026-04-12T10:50:39.18Z</time></trkpt><trkpt lat="45.5770536" lon="8.8348942"><ele>198.0</ele><time>2026-04-12T10:50:40.184Z</time></trkpt><trkpt lat="45.5773081" lon="8.8348626"><ele>199.0</ele><time>2026-04-12T10:50:41.185Z</time></trkpt><trkpt lat="45.5775588" lon="8.8348311"><ele>199.0</ele><time>2026-04-12T10:50:42.184Z</time></trkpt><trkpt lat="45.5777864" lon="8.8348038"><ele>199.0</ele><time>2026-04-12T10:50:43.175Z</time></trkpt><trkpt lat="45.5779975" lon="8.8347903"><ele>199.0</ele><time>2026-04-12T10:50:44.178Z</time></trkpt><trkpt lat="45.5781975" lon="8.8347788"><ele>200.0</ele><time>2026-04-12T10:50:45.175Z</time></trkpt><trkpt lat="45.578381" lon="8.8347677"><ele>201.0</ele><time>2026-04-12T10:50:46.221Z</time></trkpt><trkpt lat="45.5785496" lon="8.8347567"><ele>202.0</ele><time>2026-04-12T10:50:47.228Z</time></trkpt><trkpt lat="45.5787044" lon="8.8347475"><ele>202.0</ele><time>2026-04-12T10:50:48.191Z</time></trkpt><trkpt lat="45.5788473" lon="8.8347297"><ele>202.0</ele><time>2026-04-12T10:50:49.184Z</time></trkpt><trkpt lat="45.578979" lon="8.8347147"><ele>202.0</ele><time>2026-04-12T10:50:50.188Z</time></trkpt><trkpt lat="45.5791083" lon="8.8346884"><ele>202.0</ele><time>2026-04-12T10:50:51.187Z</time></trkpt><trkpt lat="45.5792149" lon="8.8346919"><ele>201.99999999999997</ele><time>2026-04-12T10:50:52.182Z</time></trkpt><trkpt lat="45.5793184" lon="8.8346875"><ele>202.0</ele><time>2026-04-12T10:50:53.221Z</time></trkpt><trkpt lat="45.579412" lon="8.8346901"><ele>202.0</ele><time>2026-04-12T10:50:54.18Z</time></trkpt><trkpt lat="45.5794911" lon="8.834695"><ele>202.0</ele><time>2026-04-12T10:50:55.183Z</time></trkpt><trkpt lat="45.5795924" lon="8.8347208"><ele>201.99999999999997</ele><time>2026-04-12T10:50:57.217Z</time></trkpt><trkpt lat="45.5796412" lon="8.8347793"><ele>202.0</ele><time>2026-04-12T10:51:00.181Z</time></trkpt><trkpt lat="45.5797263" lon="8.8348953"><ele>202.0</ele><time>2026-04-12T10:51:11.169Z</time></trkpt><trkpt lat="45.5797891" lon="8.8349718"><ele>202.0</ele><time>2026-04-12T10:51:12.169Z</time></trkpt><trkpt lat="45.5798671" lon="8.8350689"><ele>202.0</ele><time>2026-04-12T10:51:13.199Z</time></trkpt><trkpt lat="45.5799404" lon="8.8351686"><ele>202.0</ele><time>2026-04-12T10:51:14.183Z</time></trkpt><trkpt lat="45.5800093" lon="8.8352954"><ele>202.0</ele><time>2026-04-12T10:51:15.184Z</time></trkpt><trkpt lat="45.5800763" lon="8.8354387"><ele>202.0</ele><time>2026-04-12T10:51:16.174Z</time></trkpt><trkpt lat="45.5801467" lon="8.8355943"><ele>202.0</ele><time>2026-04-12T10:51:17.178Z</time></trkpt><trkpt lat="45.5802101" lon="8.8357635"><ele>202.0</ele><time>2026-04-12T10:51:18.166Z</time></trkpt><trkpt lat="45.580275" lon="8.8359513"><ele>202.0</ele><time>2026-04-12T10:51:19.173Z</time></trkpt><trkpt lat="45.5803489" lon="8.8361533"><ele>202.33333333333331</ele><time>2026-04-12T10:51:20.17Z</time></trkpt><trkpt lat="45.5804324" lon="8.836391"><ele>202.66666666666669</ele><time>2026-04-12T10:51:21.216Z</time></trkpt><trkpt lat="45.5805246" lon="8.8366674"><ele>203.0</ele><time>2026-04-12T10:51:22.175Z</time></trkpt><trkpt lat="45.5806319" lon="8.8369905"><ele>203.33333333333334</ele><time>2026-04-12T10:51:23.175Z</time></trkpt><trkpt lat="45.5807304" lon="8.8372787"><ele>203.66666666666669</ele><time>2026-04-12T10:51:24.17Z</time></trkpt><trkpt lat="45.5808216" lon="8.8375418"><ele>204.0</ele><time>2026-04-12T10:51:25.167Z</time></trkpt><trkpt lat="45.5809034" lon="8.8377812"><ele>203.33333333333331</ele><time>2026-04-12T10:51:26.169Z</time></trkpt><trkpt lat="45.5809775" lon="8.838008"><ele>202.66666666666666</ele><time>2026-04-12T10:51:27.17Z</time></trkpt><trkpt lat="45.5810505" lon="8.8382312"><ele>202.0</ele><time>2026-04-12T10:51:28.167Z</time></trkpt><trkpt lat="45.5811243" lon="8.8384518"><ele>201.66666666666666</ele><time>2026-04-12T10:51:29.17Z</time></trkpt><trkpt lat="45.5811997" lon="8.8386645"><ele>201.33333333333331</ele><time>2026-04-12T10:51:30.176Z</time></trkpt><trkpt lat="45.5812701" lon="8.838874"><ele>201.0</ele><time>2026-04-12T10:51:31.208Z</time></trkpt><trkpt lat="45.5813416" lon="8.8390753"><ele>201.0</ele><time>2026-04-12T10:51:32.176Z</time></trkpt><trkpt lat="45.5814162" lon="8.839267"><ele>201.0</ele><time>2026-04-12T10:51:33.171Z</time></trkpt><trkpt lat="45.5814928" lon="8.8394613"><ele>201.0</ele><time>2026-04-12T10:51:34.173Z</time></trkpt><trkpt lat="45.5815692" lon="8.839655"><ele>200.66666666666669</ele><time>2026-04-12T10:51:35.17Z</time></trkpt><trkpt lat="45.5816447" lon="8.8398475"><ele>200.33333333333334</ele><time>2026-04-12T10:51:36.218Z</time></trkpt><trkpt lat="45.5817208" lon="8.8400392"><ele>200.0</ele><time>2026-04-12T10:51:37.195Z</time></trkpt><trkpt lat="45.5817969" lon="8.8402225"><ele>200.5</ele><time>2026-04-12T10:51:38.183Z</time></trkpt><trkpt lat="45.5818676" lon="8.8403881"><ele>201.0</ele><time>2026-04-12T10:51:39.179Z</time></trkpt><trkpt lat="45.5819351" lon="8.8405397"><ele>201.5</ele><time>2026-04-12T10:51:40.185Z</time></trkpt><trkpt lat="45.5819979" lon="8.840681"><ele>202.0</ele><time>2026-04-12T10:51:41.194Z</time></trkpt><trkpt lat="45.5820516" lon="8.8408164"><ele>202.25</ele><time>2026-04-12T10:51:42.22Z</time></trkpt><trkpt lat="45.5821102" lon="8.8409682"><ele>202.5</ele><time>2026-04-12T10:51:43.198Z</time></trkpt><trkpt lat="45.5821754" lon="8.8411364"><ele>202.75</ele><time>2026-04-12T10:51:44.18Z</time></trkpt><trkpt lat="45.5822461" lon="8.8412917"><ele>203.0</ele><time>2026-04-12T10:51:45.186Z</time></trkpt><trkpt lat="45.5823101" lon="8.8414568"><ele>203.0</ele><time>2026-04-12T10:51:46.174Z</time></trkpt><trkpt lat="45.5823807" lon="8.8416121"><ele>203.0</ele><time>2026-04-12T10:51:47.188Z</time></trkpt><trkpt lat="45.5824412" lon="8.8417672"><ele>203.0</ele><time>2026-04-12T10:51:48.192Z</time></trkpt><trkpt lat="45.5824978" lon="8.841905"><ele>203.0</ele><time>2026-04-12T10:51:49.181Z</time></trkpt><trkpt lat="45.5825483" lon="8.8420325"><ele>203.00000000000003</ele><time>2026-04-12T10:51:50.184Z</time></trkpt><trkpt lat="45.5825966" lon="8.8421473"><ele>203.0</ele><time>2026-04-12T10:51:51.194Z</time></trkpt><trkpt lat="45.5826384" lon="8.8422669"><ele>203.0</ele><time>2026-04-12T10:51:52.217Z</time></trkpt><trkpt lat="45.5826882" lon="8.842369"><ele>203.0</ele><time>2026-04-12T10:51:53.196Z</time></trkpt><trkpt lat="45.5827334" lon="8.8424718"><ele>203.00000000000003</ele><time>2026-04-12T10:51:54.179Z</time></trkpt><trkpt lat="45.5827649" lon="8.8425564"><ele>203.0</ele><time>2026-04-12T10:51:55.177Z</time></trkpt><trkpt lat="45.5828015" lon="8.8426531"><ele>203.2</ele><time>2026-04-12T10:51:57.215Z</time></trkpt><trkpt lat="45.5828252" lon="8.8427789"><ele>203.4</ele><time>2026-04-12T10:51:59.183Z</time></trkpt><trkpt lat="45.5828484" lon="8.8429494"><ele>203.6</ele><time>2026-04-12T10:52:01.17Z</time></trkpt><trkpt lat="45.5828507" lon="8.8430579"><ele>203.79999999999998</ele><time>2026-04-12T10:52:02.176Z</time></trkpt><trkpt lat="45.5828428" lon="8.8431922"><ele>204.0</ele><time>2026-04-12T10:52:03.186Z</time></trkpt><trkpt lat="45.5828229" lon="8.8433587"><ele>204.33333333333331</ele><time>2026-04-12T10:52:04.179Z</time></trkpt><trkpt lat="45.582799" lon="8.8435788"><ele>204.66666666666666</ele><time>2026-04-12T10:52:05.178Z</time></trkpt><trkpt lat="45.5827745" lon="8.8438235"><ele>205.0</ele><time>2026-04-12T10:52:06.183Z</time></trkpt><trkpt lat="45.5827479" lon="8.8440566"><ele>205.0</ele><time>2026-04-12T10:52:07.186Z</time></trkpt><trkpt lat="45.5827205" lon="8.8442764"><ele>205.0</ele><time>2026-04-12T10:52:08.199Z</time></trkpt><trkpt lat="45.5826893" lon="8.8444872"><ele>205.0</ele><time>2026-04-12T10:52:09.183Z</time></trkpt><trkpt lat="45.5826608" lon="8.8446942"><ele>205.0</ele><time>2026-04-12T10:52:10.186Z</time></trkpt><trkpt lat="45.5826349" lon="8.8449122"><ele>205.0</ele><time>2026-04-12T10:52:11.192Z</time></trkpt><trkpt lat="45.5826115" lon="8.8451273"><ele>205.0</ele><time>2026-04-12T10:52:12.219Z</time></trkpt><trkpt lat="45.5825893" lon="8.8453653"><ele>205.33333333333331</ele><time>2026-04-12T10:52:13.225Z</time></trkpt><trkpt lat="45.5825614" lon="8.8456239"><ele>205.66666666666669</ele><time>2026-04-12T10:52:14.191Z</time></trkpt><trkpt lat="45.5825185" lon="8.8459168"><ele>206.0</ele><time>2026-04-12T10:52:15.185Z</time></trkpt><trkpt lat="45.5824701" lon="8.8462553"><ele>206.0</ele><time>2026-04-12T10:52:16.205Z</time></trkpt><trkpt lat="45.5824293" lon="8.8465708"><ele>206.0</ele><time>2026-04-12T10:52:17.216Z</time></trkpt><trkpt lat="45.5823894" lon="8.8468601"><ele>206.0</ele><time>2026-04-12T10:52:18.171Z</time></trkpt><trkpt lat="45.5823516" lon="8.8471377"><ele>206.0</ele><time>2026-04-12T10:52:19.182Z</time></trkpt><trkpt lat="45.5823204" lon="8.8474096"><ele>206.0</ele><time>2026-04-12T10:52:20.187Z</time></trkpt><trkpt lat="45.5822886" lon="8.8476859"><ele>206.0</ele><time>2026-04-12T10:52:21.181Z</time></trkpt><trkpt lat="45.5822496" lon="8.8479668"><ele>206.0</ele><time>2026-04-12T10:52:22.229Z</time></trkpt><trkpt lat="45.5822181" lon="8.8482501"><ele>206.0</ele><time>2026-04-12T10:52:23.218Z</time></trkpt><trkpt lat="45.5821864" lon="8.8485315"><ele>206.0</ele><time>2026-04-12T10:52:24.188Z</time></trkpt><trkpt lat="45.5821561" lon="8.8488029"><ele>206.0</ele><time>2026-04-12T10:52:25.182Z</time></trkpt><trkpt lat="45.5821215" lon="8.8490811"><ele>206.0</ele><time>2026-04-12T10:52:26.189Z</time></trkpt><trkpt lat="45.5820903" lon="8.8493588"><ele>206.0</ele><time>2026-04-12T10:52:27.185Z</time></trkpt><trkpt lat="45.582054" lon="8.8496367"><ele>206.0</ele><time>2026-04-12T10:52:28.213Z</time></trkpt><trkpt lat="45.5820224" lon="8.8499018"><ele>206.0</ele><time>2026-04-12T10:52:29.173Z</time></trkpt><trkpt lat="45.5819905" lon="8.8501726"><ele>206.0</ele><time>2026-04-12T10:52:30.185Z</time></trkpt><trkpt lat="45.5819576" lon="8.8504411"><ele>206.0</ele><time>2026-04-12T10:52:31.195Z</time></trkpt><trkpt lat="45.5819304" lon="8.8507061"><ele>206.0</ele><time>2026-04-12T10:52:32.185Z</time></trkpt><trkpt lat="45.5818944" lon="8.8509706"><ele>206.0</ele><time>2026-04-12T10:52:33.19Z</time></trkpt><trkpt lat="45.5818658" lon="8.8512189"><ele>206.0</ele><time>2026-04-12T10:52:34.18Z</time></trkpt><trkpt lat="45.581837" lon="8.8514646"><ele>206.0</ele><time>2026-04-12T10:52:35.193Z</time></trkpt><trkpt lat="45.581809" lon="8.8517083"><ele>206.0</ele><time>2026-04-12T10:52:36.189Z</time></trkpt><trkpt lat="45.5817829" lon="8.851949"><ele>206.66666666666669</ele><time>2026-04-12T10:52:37.188Z</time></trkpt><trkpt lat="45.5817549" lon="8.8522005"><ele>207.33333333333331</ele><time>2026-04-12T10:52:38.219Z</time></trkpt><trkpt lat="45.5817239" lon="8.8524697"><ele>208.0</ele><time>2026-04-12T10:52:39.184Z</time></trkpt><trkpt lat="45.5816924" lon="8.8527558"><ele>208.0</ele><time>2026-04-12T10:52:40.184Z</time></trkpt><trkpt lat="45.58166" lon="8.853062"><ele>208.0</ele><time>2026-04-12T10:52:41.193Z</time></trkpt><trkpt lat="45.5816215" lon="8.8533664"><ele>208.0</ele><time>2026-04-12T10:52:42.193Z</time></trkpt><trkpt lat="45.5815864" lon="8.8536664"><ele>207.66666666666666</ele><time>2026-04-12T10:52:43.217Z</time></trkpt><trkpt lat="45.5815507" lon="8.8539641"><ele>207.33333333333331</ele><time>2026-04-12T10:52:44.182Z</time></trkpt><trkpt lat="45.5815177" lon="8.8542557"><ele>207.0</ele><time>2026-04-12T10:52:45.188Z</time></trkpt><trkpt lat="45.5814807" lon="8.8545418"><ele>207.0</ele><time>2026-04-12T10:52:46.204Z</time></trkpt><trkpt lat="45.581446" lon="8.8548336"><ele>207.0</ele><time>2026-04-12T10:52:47.189Z</time></trkpt><trkpt lat="45.5814124" lon="8.8551092"><ele>207.0</ele><time>2026-04-12T10:52:48.187Z</time></trkpt><trkpt lat="45.5813748" lon="8.8553878"><ele>207.0</ele><time>2026-04-12T10:52:49.183Z</time></trkpt><trkpt lat="45.5813352" lon="8.8557144"><ele>207.0</ele><time>2026-04-12T10:52:50.187Z</time></trkpt><trkpt lat="45.5812913" lon="8.8560569"><ele>207.0</ele><time>2026-04-12T10:52:51.185Z</time></trkpt><trkpt lat="45.5812499" lon="8.8563683"><ele>207.0</ele><time>2026-04-12T10:52:52.195Z</time></trkpt><trkpt lat="45.5812142" lon="8.8566517"><ele>207.0</ele><time>2026-04-12T10:52:53.191Z</time></trkpt><trkpt lat="45.5811817" lon="8.8569085"><ele>206.75</ele><time>2026-04-12T10:52:54.176Z</time></trkpt><trkpt lat="45.581157" lon="8.8571387"><ele>206.5</ele><time>2026-04-12T10:52:55.186Z</time></trkpt><trkpt lat="45.5811274" lon="8.8573325"><ele>206.25</ele><time>2026-04-12T10:52:56.2Z</time></trkpt><trkpt lat="45.5810964" lon="8.8574928"><ele>206.0</ele><time>2026-04-12T10:52:57.181Z</time></trkpt><trkpt lat="45.5810742" lon="8.8576202"><ele>206.00000000000003</ele><time>2026-04-12T10:52:58.182Z</time></trkpt><trkpt lat="45.5810459" lon="8.8577584"><ele>206.0</ele><time>2026-04-12T10:53:00.18Z</time></trkpt><trkpt lat="45.5810267" lon="8.8578449"><ele>206.0</ele><time>2026-04-12T10:53:02.222Z</time></trkpt><trkpt lat="45.5809984" lon="8.8579825"><ele>206.0</ele><time>2026-04-12T10:53:04.182Z</time></trkpt><trkpt lat="45.5809983" lon="8.8580742"><ele>206.00000000000003</ele><time>2026-04-12T10:53:05.177Z</time></trkpt><trkpt lat="45.5809993" lon="8.8581802"><ele>206.0</ele><time>2026-04-12T10:53:06.21Z</time></trkpt><trkpt lat="45.5809945" lon="8.8582951"><ele>206.0</ele><time>2026-04-12T10:53:07.193Z</time></trkpt><trkpt lat="45.5809858" lon="8.8584308"><ele>206.0</ele><time>2026-04-12T10:53:08.2Z</time></trkpt><trkpt lat="45.5809645" lon="8.8585897"><ele>206.0</ele><time>2026-04-12T10:53:09.174Z</time></trkpt><trkpt lat="45.5809442" lon="8.8587754"><ele>206.0</ele><time>2026-04-12T10:53:10.179Z</time></trkpt><trkpt lat="45.580916" lon="8.8589677"><ele>206.0</ele><time>2026-04-12T10:53:11.224Z</time></trkpt><trkpt lat="45.5808914" lon="8.8591591"><ele>206.0</ele><time>2026-04-12T10:53:12.219Z</time></trkpt><trkpt lat="45.5808681" lon="8.8593562"><ele>206.0</ele><time>2026-04-12T10:53:13.186Z</time></trkpt><trkpt lat="45.5808483" lon="8.8595583"><ele>206.0</ele><time>2026-04-12T10:53:14.181Z</time></trkpt><trkpt lat="45.5808219" lon="8.8597711"><ele>205.33333333333334</ele><time>2026-04-12T10:53:15.18Z</time></trkpt><trkpt lat="45.5807957" lon="8.8599883"><ele>204.66666666666669</ele><time>2026-04-12T10:53:16.19Z</time></trkpt><trkpt lat="45.580767" lon="8.8602132"><ele>204.0</ele><time>2026-04-12T10:53:17.232Z</time></trkpt><trkpt lat="45.5807399" lon="8.860446"><ele>204.0</ele><time>2026-04-12T10:53:18.197Z</time></trkpt><trkpt lat="45.5807083" lon="8.8606829"><ele>204.0</ele><time>2026-04-12T10:53:19.188Z</time></trkpt><trkpt lat="45.5806799" lon="8.8609207"><ele>204.0</ele><time>2026-04-12T10:53:20.186Z</time></trkpt><trkpt lat="45.5806497" lon="8.8611542"><ele>204.0</ele><time>2026-04-12T10:53:21.171Z</time></trkpt><trkpt lat="45.580619" lon="8.8613932"><ele>204.0</ele><time>2026-04-12T10:53:22.176Z</time></trkpt><trkpt lat="45.5805932" lon="8.8616282"><ele>204.0</ele><time>2026-04-12T10:53:23.168Z</time></trkpt><trkpt lat="45.5805626" lon="8.8618796"><ele>204.0</ele><time>2026-04-12T10:53:24.175Z</time></trkpt><trkpt lat="45.5805326" lon="8.8621394"><ele>204.0</ele><time>2026-04-12T10:53:25.165Z</time></trkpt><trkpt lat="45.5804939" lon="8.8623997"><ele>204.0</ele><time>2026-04-12T10:53:26.173Z</time></trkpt><trkpt lat="45.5804612" lon="8.8626604"><ele>204.0</ele><time>2026-04-12T10:53:27.175Z</time></trkpt><trkpt lat="45.5804261" lon="8.8629295"><ele>204.0</ele><time>2026-04-12T10:53:28.167Z</time></trkpt><trkpt lat="45.5803968" lon="8.8632252"><ele>204.0</ele><time>2026-04-12T10:53:29.174Z</time></trkpt><trkpt lat="45.5803621" lon="8.8635725"><ele>204.5</ele><time>2026-04-12T10:53:30.18Z</time></trkpt><trkpt lat="45.5803118" lon="8.8639677"><ele>205.0</ele><time>2026-04-12T10:53:31.171Z</time></trkpt><trkpt lat="45.580251" lon="8.8643735"><ele>205.0</ele><time>2026-04-12T10:53:32.219Z</time></trkpt><trkpt lat="45.5801876" lon="8.8648597"><ele>205.0</ele><time>2026-04-12T10:53:33.165Z</time></trkpt><trkpt lat="45.5801331" lon="8.8652923"><ele>205.0</ele><time>2026-04-12T10:53:34.177Z</time></trkpt><trkpt lat="45.5800817" lon="8.8656891"><ele>205.0</ele><time>2026-04-12T10:53:35.189Z</time></trkpt><trkpt lat="45.5800358" lon="8.8660636"><ele>205.5</ele><time>2026-04-12T10:53:36.217Z</time></trkpt><trkpt lat="45.5799904" lon="8.8664243"><ele>206.0</ele><time>2026-04-12T10:53:37.179Z</time></trkpt><trkpt lat="45.5799548" lon="8.8667849"><ele>206.0</ele><time>2026-04-12T10:53:38.188Z</time></trkpt><trkpt lat="45.5799388" lon="8.8671275"><ele>206.0</ele><time>2026-04-12T10:53:39.178Z</time></trkpt><trkpt lat="45.5799523" lon="8.8674426"><ele>206.0</ele><time>2026-04-12T10:53:40.182Z</time></trkpt><trkpt lat="45.5799847" lon="8.8677433"><ele>206.0</ele><time>2026-04-12T10:53:41.172Z</time></trkpt><trkpt lat="45.5800577" lon="8.8680704"><ele>206.0</ele><time>2026-04-12T10:53:42.184Z</time></trkpt><trkpt lat="45.5801388" lon="8.8683726"><ele>206.0</ele><time>2026-04-12T10:53:43.214Z</time></trkpt><trkpt lat="45.5802248" lon="8.8686531"><ele>206.0</ele><time>2026-04-12T10:53:44.179Z</time></trkpt><trkpt lat="45.5803032" lon="8.8689043"><ele>205.66666666666669</ele><time>2026-04-12T10:53:45.179Z</time></trkpt><trkpt lat="45.5803811" lon="8.8691403"><ele>205.33333333333331</ele><time>2026-04-12T10:53:46.19Z</time></trkpt><trkpt lat="45.5804418" lon="8.8693476"><ele>205.0</ele><time>2026-04-12T10:53:47.195Z</time></trkpt><trkpt lat="45.5804846" lon="8.8695414"><ele>205.0</ele><time>2026-04-12T10:53:48.197Z</time></trkpt><trkpt lat="45.5804932" lon="8.8697222"><ele>205.0</ele><time>2026-04-12T10:53:49.181Z</time></trkpt><trkpt lat="45.5805238" lon="8.8698726"><ele>205.0</ele><time>2026-04-12T10:53:50.181Z</time></trkpt><trkpt lat="45.5805875" lon="8.8699967"><ele>205.0</ele><time>2026-04-12T10:53:51.189Z</time></trkpt><trkpt lat="45.5806613" lon="8.8701489"><ele>205.0</ele><time>2026-04-12T10:53:52.222Z</time></trkpt><trkpt lat="45.5807561" lon="8.8703211"><ele>205.0</ele><time>2026-04-12T10:53:53.192Z</time></trkpt><trkpt lat="45.5808416" lon="8.8705519"><ele>205.0</ele><time>2026-04-12T10:53:54.186Z</time></trkpt><trkpt lat="45.5809474" lon="8.8708794"><ele>205.5</ele><time>2026-04-12T10:53:55.18Z</time></trkpt><trkpt lat="45.5810566" lon="8.8712345"><ele>206.0</ele><time>2026-04-12T10:53:56.175Z</time></trkpt><trkpt lat="45.5811645" lon="8.8715532"><ele>206.33333333333334</ele><time>2026-04-12T10:53:57.189Z</time></trkpt><trkpt lat="45.5812593" lon="8.8718511"><ele>206.66666666666669</ele><time>2026-04-12T10:53:58.185Z</time></trkpt><trkpt lat="45.5813558" lon="8.8721189"><ele>207.0</ele><time>2026-04-12T10:53:59.19Z</time></trkpt><trkpt lat="45.5814475" lon="8.8723796"><ele>206.33333333333331</ele><time>2026-04-12T10:54:00.182Z</time></trkpt><trkpt lat="45.5815304" lon="8.8726266"><ele>205.66666666666666</ele><time>2026-04-12T10:54:01.196Z</time></trkpt><trkpt lat="45.5816137" lon="8.872871"><ele>205.0</ele><time>2026-04-12T10:54:02.22Z</time></trkpt><trkpt lat="45.5816927" lon="8.8731164"><ele>205.0</ele><time>2026-04-12T10:54:03.2Z</time></trkpt><trkpt lat="45.5817673" lon="8.8733527"><ele>205.0</ele><time>2026-04-12T10:54:04.176Z</time></trkpt><trkpt lat="45.5818408" lon="8.8735808"><ele>205.0</ele><time>2026-04-12T10:54:05.186Z</time></trkpt><trkpt lat="45.5819164" lon="8.8738059"><ele>205.66666666666666</ele><time>2026-04-12T10:54:06.228Z</time></trkpt><trkpt lat="45.581992" lon="8.8740264"><ele>206.33333333333331</ele><time>2026-04-12T10:54:07.191Z</time></trkpt><trkpt lat="45.5820605" lon="8.8742516"><ele>207.0</ele><time>2026-04-12T10:54:08.187Z</time></trkpt><trkpt lat="45.5821293" lon="8.8744768"><ele>207.33333333333331</ele><time>2026-04-12T10:54:09.179Z</time></trkpt><trkpt lat="45.5822013" lon="8.8746947"><ele>207.66666666666666</ele><time>2026-04-12T10:54:10.186Z</time></trkpt><trkpt lat="45.5822712" lon="8.8749003"><ele>208.0</ele><time>2026-04-12T10:54:11.198Z</time></trkpt><trkpt lat="45.5823343" lon="8.8751126"><ele>208.0</ele><time>2026-04-12T10:54:12.188Z</time></trkpt><trkpt lat="45.5824019" lon="8.8753152"><ele>208.0</ele><time>2026-04-12T10:54:13.229Z</time></trkpt><trkpt lat="45.5824746" lon="8.8755227"><ele>208.0</ele><time>2026-04-12T10:54:14.183Z</time></trkpt><trkpt lat="45.5825464" lon="8.8757235"><ele>208.0</ele><time>2026-04-12T10:54:15.19Z</time></trkpt><trkpt lat="45.5826192" lon="8.8759094"><ele>208.0</ele><time>2026-04-12T10:54:16.19Z</time></trkpt><trkpt lat="45.5826844" lon="8.8761045"><ele>208.0</ele><time>2026-04-12T10:54:17.222Z</time></trkpt><trkpt lat="45.5827487" lon="8.8762979"><ele>207.33333333333331</ele><time>2026-04-12T10:54:18.223Z</time></trkpt><trkpt lat="45.5828132" lon="8.8764881"><ele>206.66666666666669</ele><time>2026-04-12T10:54:19.177Z</time></trkpt><trkpt lat="45.5828853" lon="8.876679"><ele>206.0</ele><time>2026-04-12T10:54:20.188Z</time></trkpt><trkpt lat="45.5829533" lon="8.8768711"><ele>205.66666666666669</ele><time>2026-04-12T10:54:21.191Z</time></trkpt><trkpt lat="45.5830248" lon="8.8770673"><ele>205.33333333333331</ele><time>2026-04-12T10:54:22.198Z</time></trkpt><trkpt lat="45.5830985" lon="8.8772524"><ele>205.0</ele><time>2026-04-12T10:54:23.207Z</time></trkpt><trkpt lat="45.5831686" lon="8.8774451"><ele>205.5</ele><time>2026-04-12T10:54:24.183Z</time></trkpt><trkpt lat="45.5832393" lon="8.8776364"><ele>206.0</ele><time>2026-04-12T10:54:25.182Z</time></trkpt><trkpt lat="45.5833086" lon="8.8778232"><ele>206.5</ele><time>2026-04-12T10:54:26.202Z</time></trkpt><trkpt lat="45.5833756" lon="8.8780117"><ele>207.0</ele><time>2026-04-12T10:54:27.194Z</time></trkpt><trkpt lat="45.5834425" lon="8.8782046"><ele>207.0</ele><time>2026-04-12T10:54:28.226Z</time></trkpt><trkpt lat="45.5835109" lon="8.8783948"><ele>207.0</ele><time>2026-04-12T10:54:29.18Z</time></trkpt><trkpt lat="45.5835804" lon="8.8785853"><ele>207.0</ele><time>2026-04-12T10:54:30.191Z</time></trkpt><trkpt lat="45.5836517" lon="8.8787832"><ele>207.0</ele><time>2026-04-12T10:54:31.201Z</time></trkpt><trkpt lat="45.5837242" lon="8.878981"><ele>207.0</ele><time>2026-04-12T10:54:32.182Z</time></trkpt><trkpt lat="45.5837988" lon="8.8791812"><ele>207.0</ele><time>2026-04-12T10:54:33.185Z</time></trkpt><trkpt lat="45.5838663" lon="8.8793899"><ele>206.33333333333331</ele><time>2026-04-12T10:54:34.177Z</time></trkpt><trkpt lat="45.5839342" lon="8.8795945"><ele>205.66666666666666</ele><time>2026-04-12T10:54:35.181Z</time></trkpt><trkpt lat="45.5840028" lon="8.879807"><ele>205.0</ele><time>2026-04-12T10:54:36.215Z</time></trkpt><trkpt lat="45.5840716" lon="8.8800224"><ele>205.33333333333331</ele><time>2026-04-12T10:54:37.174Z</time></trkpt><trkpt lat="45.5841476" lon="8.8802355"><ele>205.66666666666669</ele><time>2026-04-12T10:54:38.183Z</time></trkpt><trkpt lat="45.5842245" lon="8.8804587"><ele>206.0</ele><time>2026-04-12T10:54:39.182Z</time></trkpt><trkpt lat="45.5843021" lon="8.8806828"><ele>206.0</ele><time>2026-04-12T10:54:40.181Z</time></trkpt><trkpt lat="45.5843762" lon="8.880906"><ele>206.0</ele><time>2026-04-12T10:54:41.221Z</time></trkpt><trkpt lat="45.5844521" lon="8.8811289"><ele>206.0</ele><time>2026-04-12T10:54:42.206Z</time></trkpt><trkpt lat="45.5845255" lon="8.8813501"><ele>205.66666666666669</ele><time>2026-04-12T10:54:43.216Z</time></trkpt><trkpt lat="45.5845998" lon="8.8815655"><ele>205.33333333333331</ele><time>2026-04-12T10:54:44.181Z</time></trkpt><trkpt lat="45.5846722" lon="8.8817799"><ele>205.0</ele><time>2026-04-12T10:54:45.182Z</time></trkpt><trkpt lat="45.5847411" lon="8.8819923"><ele>204.66666666666666</ele><time>2026-04-12T10:54:46.182Z</time></trkpt><trkpt lat="45.5848161" lon="8.8822036"><ele>204.33333333333331</ele><time>2026-04-12T10:54:47.176Z</time></trkpt><trkpt lat="45.5848892" lon="8.8824257"><ele>204.0</ele><time>2026-04-12T10:54:48.179Z</time></trkpt><trkpt lat="45.5849679" lon="8.8826546"><ele>204.66666666666669</ele><time>2026-04-12T10:54:49.185Z</time></trkpt><trkpt lat="45.5850469" lon="8.882889"><ele>205.33333333333334</ele><time>2026-04-12T10:54:50.179Z</time></trkpt><trkpt lat="45.5851308" lon="8.8831439"><ele>206.0</ele><time>2026-04-12T10:54:51.222Z</time></trkpt><trkpt lat="45.585224" lon="8.8834298"><ele>205.66666666666669</ele><time>2026-04-12T10:54:52.183Z</time></trkpt><trkpt lat="45.5853151" lon="8.8837073"><ele>205.33333333333331</ele><time>2026-04-12T10:54:53.232Z</time></trkpt><trkpt lat="45.5854004" lon="8.8839697"><ele>205.0</ele><time>2026-04-12T10:54:54.181Z</time></trkpt><trkpt lat="45.5854843" lon="8.8842176"><ele>204.66666666666666</ele><time>2026-04-12T10:54:55.185Z</time></trkpt><trkpt lat="45.5855621" lon="8.8844505"><ele>204.33333333333331</ele><time>2026-04-12T10:54:56.231Z</time></trkpt><trkpt lat="45.5856366" lon="8.8846771"><ele>204.0</ele><time>2026-04-12T10:54:57.194Z</time></trkpt><trkpt lat="45.5857054" lon="8.8848905"><ele>204.0</ele><time>2026-04-12T10:54:58.232Z</time></trkpt><trkpt lat="45.5857705" lon="8.8850929"><ele>204.0</ele><time>2026-04-12T10:54:59.178Z</time></trkpt><trkpt lat="45.5858332" lon="8.8852832"><ele>204.0</ele><time>2026-04-12T10:55:00.193Z</time></trkpt><trkpt lat="45.5858916" lon="8.8854628"><ele>204.0</ele><time>2026-04-12T10:55:01.216Z</time></trkpt><trkpt lat="45.5859466" lon="8.8856261"><ele>204.39999999999998</ele><time>2026-04-12T10:55:02.2Z</time></trkpt><trkpt lat="45.5859951" lon="8.8857767"><ele>204.8</ele><time>2026-04-12T10:55:03.194Z</time></trkpt><trkpt lat="45.5860324" lon="8.8859249"><ele>205.2</ele><time>2026-04-12T10:55:04.186Z</time></trkpt><trkpt lat="45.5860375" lon="8.8860821"><ele>205.60000000000002</ele><time>2026-04-12T10:55:05.184Z</time></trkpt><trkpt lat="45.5860566" lon="8.8862275"><ele>206.0</ele><time>2026-04-12T10:55:06.19Z</time></trkpt><trkpt lat="45.5860991" lon="8.8863727"><ele>206.0</ele><time>2026-04-12T10:55:07.201Z</time></trkpt><trkpt lat="45.5861795" lon="8.8865329"><ele>206.0</ele><time>2026-04-12T10:55:08.19Z</time></trkpt><trkpt lat="45.5862683" lon="8.886743"><ele>206.0</ele><time>2026-04-12T10:55:09.185Z</time></trkpt><trkpt lat="45.5863555" lon="8.886991"><ele>206.66666666666669</ele><time>2026-04-12T10:55:10.186Z</time></trkpt><trkpt lat="45.5864306" lon="8.8872163"><ele>207.33333333333331</ele><time>2026-04-12T10:55:11.195Z</time></trkpt><trkpt lat="45.5865028" lon="8.8874319"><ele>208.0</ele><time>2026-04-12T10:55:12.22Z</time></trkpt><trkpt lat="45.5865665" lon="8.8876347"><ele>208.5</ele><time>2026-04-12T10:55:13.23Z</time></trkpt><trkpt lat="45.5866252" lon="8.8878271"><ele>209.0</ele><time>2026-04-12T10:55:14.181Z</time></trkpt><trkpt lat="45.5866819" lon="8.888013"><ele>209.5</ele><time>2026-04-12T10:55:15.187Z</time></trkpt><trkpt lat="45.5867387" lon="8.8881923"><ele>210.0</ele><time>2026-04-12T10:55:16.227Z</time></trkpt><trkpt lat="45.5867909" lon="8.8883566"><ele>209.8</ele><time>2026-04-12T10:55:17.201Z</time></trkpt><trkpt lat="45.5868384" lon="8.8885114"><ele>209.6</ele><time>2026-04-12T10:55:18.227Z</time></trkpt><trkpt lat="45.586883" lon="8.8886575"><ele>209.39999999999998</ele><time>2026-04-12T10:55:19.186Z</time></trkpt><trkpt lat="45.5869237" lon="8.8887932"><ele>209.2</ele><time>2026-04-12T10:55:20.177Z</time></trkpt><trkpt lat="45.586958" lon="8.8889184"><ele>209.0</ele><time>2026-04-12T10:55:21.196Z</time></trkpt><trkpt lat="45.5869889" lon="8.8890341"><ele>208.79999999999998</ele><time>2026-04-12T10:55:22.2Z</time></trkpt><trkpt lat="45.5870216" lon="8.889143"><ele>208.6</ele><time>2026-04-12T10:55:23.215Z</time></trkpt><trkpt lat="45.5870627" lon="8.8892578"><ele>208.4</ele><time>2026-04-12T10:55:24.19Z</time></trkpt><trkpt lat="45.5871143" lon="8.8893802"><ele>208.2</ele><time>2026-04-12T10:55:25.188Z</time></trkpt><trkpt lat="45.5871679" lon="8.8895069"><ele>208.0</ele><time>2026-04-12T10:55:26.197Z</time></trkpt><trkpt lat="45.5872177" lon="8.8896497"><ele>208.0</ele><time>2026-04-12T10:55:27.188Z</time></trkpt><trkpt lat="45.5872682" lon="8.889799"><ele>208.0</ele><time>2026-04-12T10:55:28.183Z</time></trkpt><trkpt lat="45.5873245" lon="8.8899399"><ele>208.0</ele><time>2026-04-12T10:55:29.18Z</time></trkpt><trkpt lat="45.5873895" lon="8.8900967"><ele>208.0</ele><time>2026-04-12T10:55:30.187Z</time></trkpt><trkpt lat="45.5874515" lon="8.8902735"><ele>208.0</ele><time>2026-04-12T10:55:31.216Z</time></trkpt><trkpt lat="45.587511" lon="8.8904484"><ele>208.0</ele><time>2026-04-12T10:55:32.224Z</time></trkpt><trkpt lat="45.5875683" lon="8.8906177"><ele>208.0</ele><time>2026-04-12T10:55:33.212Z</time></trkpt><trkpt lat="45.5876236" lon="8.8907878"><ele>208.0</ele><time>2026-04-12T10:55:34.185Z</time></trkpt><trkpt lat="45.587675" lon="8.8909589"><ele>208.0</ele><time>2026-04-12T10:55:35.184Z</time></trkpt><trkpt lat="45.5877294" lon="8.8911238"><ele>208.0</ele><time>2026-04-12T10:55:36.235Z</time></trkpt><trkpt lat="45.5877826" lon="8.8912827"><ele>208.0</ele><time>2026-04-12T10:55:37.221Z</time></trkpt><trkpt lat="45.5878333" lon="8.8914351"><ele>208.0</ele><time>2026-04-12T10:55:38.192Z</time></trkpt><trkpt lat="45.5878777" lon="8.8915714"><ele>207.83333333333331</ele><time>2026-04-12T10:55:39.182Z</time></trkpt><trkpt lat="45.5879188" lon="8.8916972"><ele>207.66666666666666</ele><time>2026-04-12T10:55:40.19Z</time></trkpt><trkpt lat="45.5879618" lon="8.8918101"><ele>207.5</ele><time>2026-04-12T10:55:41.191Z</time></trkpt><trkpt lat="45.5879953" lon="8.891919"><ele>207.33333333333331</ele><time>2026-04-12T10:55:42.187Z</time></trkpt><trkpt lat="45.5880285" lon="8.8920071"><ele>207.16666666666666</ele><time>2026-04-12T10:55:43.196Z</time></trkpt><trkpt lat="45.5880573" lon="8.8920905"><ele>207.0</ele><time>2026-04-12T10:55:44.189Z</time></trkpt><trkpt lat="45.5880858" lon="8.8921763"><ele>206.83333333333334</ele><time>2026-04-12T10:55:45.181Z</time></trkpt><trkpt lat="45.5881184" lon="8.8922809"><ele>206.66666666666669</ele><time>2026-04-12T10:55:46.197Z</time></trkpt><trkpt lat="45.588148" lon="8.8923762"><ele>206.5</ele><time>2026-04-12T10:55:47.195Z</time></trkpt><trkpt lat="45.5881762" lon="8.8924805"><ele>206.33333333333334</ele><time>2026-04-12T10:55:48.184Z</time></trkpt><trkpt lat="45.5882015" lon="8.8925743"><ele>206.16666666666669</ele><time>2026-04-12T10:55:49.177Z</time></trkpt><trkpt lat="45.5882287" lon="8.8926744"><ele>206.0</ele><time>2026-04-12T10:55:50.192Z</time></trkpt><trkpt lat="45.5882601" lon="8.892782"><ele>206.4</ele><time>2026-04-12T10:55:51.196Z</time></trkpt><trkpt lat="45.5882925" lon="8.8928904"><ele>206.8</ele><time>2026-04-12T10:55:52.227Z</time></trkpt><trkpt lat="45.5883331" lon="8.8930091"><ele>207.20000000000002</ele><time>2026-04-12T10:55:53.223Z</time></trkpt><trkpt lat="45.5883756" lon="8.8931311"><ele>207.60000000000002</ele><time>2026-04-12T10:55:54.19Z</time></trkpt><trkpt lat="45.5884266" lon="8.8932632"><ele>208.0</ele><time>2026-04-12T10:55:55.182Z</time></trkpt><trkpt lat="45.5884724" lon="8.893401"><ele>208.25</ele><time>2026-04-12T10:55:56.175Z</time></trkpt><trkpt lat="45.5885263" lon="8.8935464"><ele>208.5</ele><time>2026-04-12T10:55:57.199Z</time></trkpt><trkpt lat="45.5885968" lon="8.8937303"><ele>208.75</ele><time>2026-04-12T10:55:58.193Z</time></trkpt><trkpt lat="45.5886654" lon="8.8939327"><ele>209.0</ele><time>2026-04-12T10:55:59.179Z</time></trkpt><trkpt lat="45.5887201" lon="8.8941408"><ele>209.0</ele><time>2026-04-12T10:56:00.178Z</time></trkpt><trkpt lat="45.588784" lon="8.8943595"><ele>209.0</ele><time>2026-04-12T10:56:01.189Z</time></trkpt><trkpt lat="45.5888551" lon="8.8945869"><ele>209.0</ele><time>2026-04-12T10:56:02.217Z</time></trkpt><trkpt lat="45.5889272" lon="8.8948088"><ele>209.0</ele><time>2026-04-12T10:56:03.213Z</time></trkpt><trkpt lat="45.5889942" lon="8.8950208"><ele>209.0</ele><time>2026-04-12T10:56:04.189Z</time></trkpt><trkpt lat="45.5890594" lon="8.8952236"><ele>209.0</ele><time>2026-04-12T10:56:05.18Z</time></trkpt><trkpt lat="45.5891234" lon="8.8954246"><ele>209.33333333333334</ele><time>2026-04-12T10:56:06.217Z</time></trkpt><trkpt lat="45.5891885" lon="8.8956218"><ele>209.66666666666669</ele><time>2026-04-12T10:56:07.197Z</time></trkpt><trkpt lat="45.5892478" lon="8.8958182"><ele>210.0</ele><time>2026-04-12T10:56:08.186Z</time></trkpt><trkpt lat="45.5893151" lon="8.8960226"><ele>210.0</ele><time>2026-04-12T10:56:09.18Z</time></trkpt><trkpt lat="45.5893892" lon="8.8962341"><ele>210.0</ele><time>2026-04-12T10:56:10.188Z</time></trkpt><trkpt lat="45.5894592" lon="8.8964368"><ele>210.0</ele><time>2026-04-12T10:56:11.203Z</time></trkpt><trkpt lat="45.589523" lon="8.8966343"><ele>209.66666666666669</ele><time>2026-04-12T10:56:12.222Z</time></trkpt><trkpt lat="45.5895886" lon="8.8968283"><ele>209.33333333333334</ele><time>2026-04-12T10:56:13.18Z</time></trkpt><trkpt lat="45.5896581" lon="8.897023"><ele>209.0</ele><time>2026-04-12T10:56:14.186Z</time></trkpt><trkpt lat="45.589726" lon="8.8972151"><ele>209.0</ele><time>2026-04-12T10:56:15.187Z</time></trkpt><trkpt lat="45.5897909" lon="8.8974014"><ele>209.0</ele><time>2026-04-12T10:56:16.194Z</time></trkpt><trkpt lat="45.5898522" lon="8.8975872"><ele>209.0</ele><time>2026-04-12T10:56:17.187Z</time></trkpt><trkpt lat="45.5899081" lon="8.8977609"><ele>209.0</ele><time>2026-04-12T10:56:18.225Z</time></trkpt><trkpt lat="45.5899599" lon="8.8979255"><ele>209.0</ele><time>2026-04-12T10:56:19.177Z</time></trkpt><trkpt lat="45.5900094" lon="8.8980839"><ele>209.0</ele><time>2026-04-12T10:56:20.183Z</time></trkpt><trkpt lat="45.5900648" lon="8.8982338"><ele>209.0</ele><time>2026-04-12T10:56:21.203Z</time></trkpt><trkpt lat="45.5901231" lon="8.8983866"><ele>209.0</ele><time>2026-04-12T10:56:22.188Z</time></trkpt><trkpt lat="45.5901764" lon="8.8985451"><ele>209.0</ele><time>2026-04-12T10:56:23.191Z</time></trkpt><trkpt lat="45.5902249" lon="8.8986945"><ele>209.0</ele><time>2026-04-12T10:56:24.182Z</time></trkpt><trkpt lat="45.5902806" lon="8.8988268"><ele>209.0</ele><time>2026-04-12T10:56:25.188Z</time></trkpt><trkpt lat="45.5903325" lon="8.8989569"><ele>209.0</ele><time>2026-04-12T10:56:26.19Z</time></trkpt><trkpt lat="45.5903695" lon="8.8990797"><ele>209.0</ele><time>2026-04-12T10:56:27.222Z</time></trkpt><trkpt lat="45.5904099" lon="8.8991911"><ele>208.85714285714286</ele><time>2026-04-12T10:56:28.194Z</time></trkpt><trkpt lat="45.5904438" lon="8.8992949"><ele>208.71428571428572</ele><time>2026-04-12T10:56:29.175Z</time></trkpt><trkpt lat="45.5904727" lon="8.8993967"><ele>208.57142857142856</ele><time>2026-04-12T10:56:30.186Z</time></trkpt><trkpt lat="45.5905024" lon="8.8994824"><ele>208.42857142857144</ele><time>2026-04-12T10:56:31.203Z</time></trkpt><trkpt lat="45.5905291" lon="8.8995738"><ele>208.2857142857143</ele><time>2026-04-12T10:56:32.176Z</time></trkpt><trkpt lat="45.5905593" lon="8.8996743"><ele>208.14285714285714</ele><time>2026-04-12T10:56:33.165Z</time></trkpt><trkpt lat="45.5905856" lon="8.8997706"><ele>208.0</ele><time>2026-04-12T10:56:34.183Z</time></trkpt><trkpt lat="45.5906069" lon="8.8998599"><ele>208.0</ele><time>2026-04-12T10:56:35.179Z</time></trkpt><trkpt lat="45.5906368" lon="8.9000146"><ele>208.0</ele><time>2026-04-12T10:56:37.171Z</time></trkpt><trkpt lat="45.5906323" lon="8.9001601"><ele>208.0</ele><time>2026-04-12T10:56:39.178Z</time></trkpt><trkpt lat="45.5906219" lon="8.9003338"><ele>208.0</ele><time>2026-04-12T10:56:41.231Z</time></trkpt><trkpt lat="45.5907012" lon="8.9004683"><ele>207.99999999999997</ele><time>2026-04-12T10:56:43.216Z</time></trkpt><trkpt lat="45.5907587" lon="8.900511"><ele>208.0</ele><time>2026-04-12T10:56:44.182Z</time></trkpt><trkpt lat="45.5908153" lon="8.9005613"><ele>208.0</ele><time>2026-04-12T10:56:45.188Z</time></trkpt><trkpt lat="45.5908684" lon="8.9006279"><ele>208.0</ele><time>2026-04-12T10:56:46.224Z</time></trkpt><trkpt lat="45.5909102" lon="8.9007195"><ele>207.99999999999997</ele><time>2026-04-12T10:56:47.216Z</time></trkpt><trkpt lat="45.5909509" lon="8.9008216"><ele>208.0</ele><time>2026-04-12T10:56:48.191Z</time></trkpt><trkpt lat="45.5910004" lon="8.9009384"><ele>208.0</ele><time>2026-04-12T10:56:49.187Z</time></trkpt><trkpt lat="45.5910564" lon="8.9010938"><ele>208.0</ele><time>2026-04-12T10:56:50.195Z</time></trkpt><trkpt lat="45.5911134" lon="8.901243"><ele>208.0</ele><time>2026-04-12T10:56:51.219Z</time></trkpt><trkpt lat="45.5911666" lon="8.9014046"><ele>208.0</ele><time>2026-04-12T10:56:52.232Z</time></trkpt><trkpt lat="45.5912221" lon="8.9015561"><ele>208.4</ele><time>2026-04-12T10:56:53.184Z</time></trkpt><trkpt lat="45.5912626" lon="8.901704"><ele>208.8</ele><time>2026-04-12T10:56:54.182Z</time></trkpt><trkpt lat="45.5913003" lon="8.9018536"><ele>209.2</ele><time>2026-04-12T10:56:55.182Z</time></trkpt><trkpt lat="45.5913456" lon="8.9019899"><ele>209.6</ele><time>2026-04-12T10:56:56.19Z</time></trkpt><trkpt lat="45.5914034" lon="8.9021264"><ele>210.0</ele><time>2026-04-12T10:56:57.18Z</time></trkpt><trkpt lat="45.5914664" lon="8.9022974"><ele>210.25</ele><time>2026-04-12T10:56:58.225Z</time></trkpt><trkpt lat="45.5915259" lon="8.9024617"><ele>210.5</ele><time>2026-04-12T10:56:59.182Z</time></trkpt><trkpt lat="45.5915793" lon="8.902621"><ele>210.75</ele><time>2026-04-12T10:57:00.198Z</time></trkpt><trkpt lat="45.5916419" lon="8.902766"><ele>211.0</ele><time>2026-04-12T10:57:01.178Z</time></trkpt><trkpt lat="45.5916928" lon="8.902914"><ele>211.16666666666666</ele><time>2026-04-12T10:57:02.189Z</time></trkpt><trkpt lat="45.5917352" lon="8.9030449"><ele>211.33333333333331</ele><time>2026-04-12T10:57:03.226Z</time></trkpt><trkpt lat="45.5917767" lon="8.903167"><ele>211.5</ele><time>2026-04-12T10:57:04.184Z</time></trkpt><trkpt lat="45.5918146" lon="8.9032821"><ele>211.66666666666669</ele><time>2026-04-12T10:57:05.199Z</time></trkpt><trkpt lat="45.5918545" lon="8.9033793"><ele>211.83333333333334</ele><time>2026-04-12T10:57:06.188Z</time></trkpt><trkpt lat="45.5918849" lon="8.9034815"><ele>212.0</ele><time>2026-04-12T10:57:07.179Z</time></trkpt><trkpt lat="45.5919268" lon="8.9035796"><ele>212.00000000000003</ele><time>2026-04-12T10:57:08.181Z</time></trkpt><trkpt lat="45.5919669" lon="8.9036891"><ele>212.0</ele><time>2026-04-12T10:57:09.174Z</time></trkpt><trkpt lat="45.5920068" lon="8.9037914"><ele>212.0</ele><time>2026-04-12T10:57:10.188Z</time></trkpt><trkpt lat="45.5920436" lon="8.9038995"><ele>212.0</ele><time>2026-04-12T10:57:11.177Z</time></trkpt><trkpt lat="45.5920799" lon="8.9039976"><ele>212.00000000000003</ele><time>2026-04-12T10:57:12.179Z</time></trkpt><trkpt lat="45.5921154" lon="8.9041077"><ele>212.0</ele><time>2026-04-12T10:57:13.189Z</time></trkpt><trkpt lat="45.5921546" lon="8.9042277"><ele>212.0</ele><time>2026-04-12T10:57:14.184Z</time></trkpt><trkpt lat="45.5921943" lon="8.9043535"><ele>212.0</ele><time>2026-04-12T10:57:15.226Z</time></trkpt><trkpt lat="45.5922305" lon="8.9044843"><ele>212.0</ele><time>2026-04-12T10:57:16.185Z</time></trkpt><trkpt lat="45.5922746" lon="8.9046027"><ele>212.0</ele><time>2026-04-12T10:57:17.227Z</time></trkpt><trkpt lat="45.5923107" lon="8.9047192"><ele>212.0</ele><time>2026-04-12T10:57:18.186Z</time></trkpt><trkpt lat="45.592351" lon="8.9048405"><ele>212.0</ele><time>2026-04-12T10:57:19.184Z</time></trkpt><trkpt lat="45.5923868" lon="8.9049585"><ele>212.0</ele><time>2026-04-12T10:57:20.186Z</time></trkpt><trkpt lat="45.5924279" lon="8.9050831"><ele>212.0</ele><time>2026-04-12T10:57:21.197Z</time></trkpt><trkpt lat="45.5924703" lon="8.9052061"><ele>212.0</ele><time>2026-04-12T10:57:22.19Z</time></trkpt><trkpt lat="45.5925113" lon="8.9053298"><ele>212.0</ele><time>2026-04-12T10:57:23.221Z</time></trkpt><trkpt lat="45.5925499" lon="8.9054524"><ele>212.00000000000003</ele><time>2026-04-12T10:57:24.185Z</time></trkpt><trkpt lat="45.5925888" lon="8.9055689"><ele>212.0</ele><time>2026-04-12T10:57:25.192Z</time></trkpt><trkpt lat="45.592623" lon="8.905688"><ele>212.0</ele><time>2026-04-12T10:57:26.227Z</time></trkpt><trkpt lat="45.59266" lon="8.9058009"><ele>212.0</ele><time>2026-04-12T10:57:27.187Z</time></trkpt><trkpt lat="45.5926947" lon="8.9059109"><ele>212.00000000000003</ele><time>2026-04-12T10:57:28.195Z</time></trkpt><trkpt lat="45.5927276" lon="8.9060156"><ele>212.0</ele><time>2026-04-12T10:57:29.184Z</time></trkpt><trkpt lat="45.592757" lon="8.9061126"><ele>212.00000000000003</ele><time>2026-04-12T10:57:30.184Z</time></trkpt><trkpt lat="45.5928173" lon="8.9062719"><ele>212.0</ele><time>2026-04-12T10:57:32.226Z</time></trkpt><trkpt lat="45.592853" lon="8.9063538"><ele>212.0</ele><time>2026-04-12T10:57:33.227Z</time></trkpt><trkpt lat="45.5928785" lon="8.9064361"><ele>212.0</ele><time>2026-04-12T10:57:34.192Z</time></trkpt><trkpt lat="45.5929365" lon="8.9065967"><ele>212.00000000000003</ele><time>2026-04-12T10:57:36.2Z</time></trkpt><trkpt lat="45.5929676" lon="8.9066793"><ele>212.0</ele><time>2026-04-12T10:57:37.187Z</time></trkpt><trkpt lat="45.5929929" lon="8.9067663"><ele>211.8</ele><time>2026-04-12T10:57:38.187Z</time></trkpt><trkpt lat="45.5930211" lon="8.9068495"><ele>211.6</ele><time>2026-04-12T10:57:39.19Z</time></trkpt><trkpt lat="45.5930637" lon="8.9069958"><ele>211.4</ele><time>2026-04-12T10:57:41.18Z</time></trkpt><trkpt lat="45.5931193" lon="8.9071516"><ele>211.20000000000002</ele><time>2026-04-12T10:57:43.188Z</time></trkpt><trkpt lat="45.5931681" lon="8.9072993"><ele>211.0</ele><time>2026-04-12T10:57:45.185Z</time></trkpt><trkpt lat="45.5932187" lon="8.9074306"><ele>210.99999999999997</ele><time>2026-04-12T10:57:47.185Z</time></trkpt><trkpt lat="45.5932421" lon="8.9075281"><ele>211.0</ele><time>2026-04-12T10:57:49.184Z</time></trkpt><trkpt lat="45.5932581" lon="8.9076563"><ele>211.0</ele><time>2026-04-12T10:58:09.182Z</time></trkpt><trkpt lat="45.5933147" lon="8.9078105"><ele>211.0</ele><time>2026-04-12T10:58:11.185Z</time></trkpt><trkpt lat="45.5933438" lon="8.9079098"><ele>210.99999999999997</ele><time>2026-04-12T10:58:12.182Z</time></trkpt><trkpt lat="45.5933736" lon="8.9080082"><ele>211.0</ele><time>2026-04-12T10:58:13.182Z</time></trkpt><trkpt lat="45.5934053" lon="8.908118"><ele>211.0</ele><time>2026-04-12T10:58:14.248Z</time></trkpt><trkpt lat="45.5934497" lon="8.9082301"><ele>211.0</ele><time>2026-04-12T10:58:15.199Z</time></trkpt><trkpt lat="45.5934972" lon="8.9083459"><ele>211.0</ele><time>2026-04-12T10:58:16.183Z</time></trkpt><trkpt lat="45.5935507" lon="8.9084593"><ele>211.0</ele><time>2026-04-12T10:58:17.182Z</time></trkpt><trkpt lat="45.5936011" lon="8.9085739"><ele>211.0</ele><time>2026-04-12T10:58:18.173Z</time></trkpt><trkpt lat="45.5936739" lon="8.9086747"><ele>211.0</ele><time>2026-04-12T10:58:19.189Z</time></trkpt><trkpt lat="45.5937593" lon="8.9087673"><ele>211.0</ele><time>2026-04-12T10:58:20.177Z</time></trkpt><trkpt lat="45.5938581" lon="8.9088717"><ele>211.0</ele><time>2026-04-12T10:58:21.224Z</time></trkpt><trkpt lat="45.5939331" lon="8.9090347"><ele>211.0</ele><time>2026-04-12T10:58:22.198Z</time></trkpt><trkpt lat="45.5940288" lon="8.9092607"><ele>211.0</ele><time>2026-04-12T10:58:23.213Z</time></trkpt><trkpt lat="45.5941241" lon="8.9095081"><ele>211.0</ele><time>2026-04-12T10:58:24.179Z</time></trkpt><trkpt lat="45.5942404" lon="8.9098038"><ele>211.0</ele><time>2026-04-12T10:58:25.195Z</time></trkpt><trkpt lat="45.5943359" lon="8.9100555"><ele>211.33333333333331</ele><time>2026-04-12T10:58:26.193Z</time></trkpt><trkpt lat="45.5944345" lon="8.9102933"><ele>211.66666666666669</ele><time>2026-04-12T10:58:27.217Z</time></trkpt><trkpt lat="45.5945204" lon="8.9105245"><ele>212.0</ele><time>2026-04-12T10:58:28.223Z</time></trkpt><trkpt lat="45.5945768" lon="8.9107066"><ele>211.6</ele><time>2026-04-12T10:58:29.185Z</time></trkpt><trkpt lat="45.5946294" lon="8.9108734"><ele>211.2</ele><time>2026-04-12T10:58:30.185Z</time></trkpt><trkpt lat="45.5946873" lon="8.9110209"><ele>210.8</ele><time>2026-04-12T10:58:31.204Z</time></trkpt><trkpt lat="45.5947342" lon="8.9111462"><ele>210.4</ele><time>2026-04-12T10:58:32.2Z</time></trkpt><trkpt lat="45.594773" lon="8.9112445"><ele>210.0</ele><time>2026-04-12T10:58:33.23Z</time></trkpt><trkpt lat="45.5948031" lon="8.9113419"><ele>210.0</ele><time>2026-04-12T10:58:34.186Z</time></trkpt><trkpt lat="45.5947971" lon="8.911441"><ele>210.0</ele><time>2026-04-12T10:58:35.188Z</time></trkpt><trkpt lat="45.5947716" lon="8.9115243"><ele>210.0</ele><time>2026-04-12T10:58:36.199Z</time></trkpt><trkpt lat="45.5947233" lon="8.9115934"><ele>210.0</ele><time>2026-04-12T10:58:37.188Z</time></trkpt><trkpt lat="45.5946574" lon="8.9116582"><ele>210.0</ele><time>2026-04-12T10:58:38.223Z</time></trkpt><trkpt lat="45.5945994" lon="8.9117267"><ele>210.0</ele><time>2026-04-12T10:58:39.18Z</time></trkpt><trkpt lat="45.5945577" lon="8.9118224"><ele>210.0</ele><time>2026-04-12T10:58:40.189Z</time></trkpt><trkpt lat="45.5945418" lon="8.9119259"><ele>210.16666666666666</ele><time>2026-04-12T10:58:41.186Z</time></trkpt><trkpt lat="45.5945299" lon="8.9120265"><ele>210.33333333333331</ele><time>2026-04-12T10:58:42.196Z</time></trkpt><trkpt lat="45.5945503" lon="8.9121298"><ele>210.5</ele><time>2026-04-12T10:58:43.167Z</time></trkpt><trkpt lat="45.5945818" lon="8.9122144"><ele>210.66666666666666</ele><time>2026-04-12T10:58:44.195Z</time></trkpt><trkpt lat="45.5946199" lon="8.912295"><ele>210.83333333333331</ele><time>2026-04-12T10:58:45.185Z</time></trkpt><trkpt lat="45.5947111" lon="8.9123982"><ele>211.0</ele><time>2026-04-12T10:58:47.225Z</time></trkpt><trkpt lat="45.5948135" lon="8.9124814"><ele>211.0</ele><time>2026-04-12T10:58:49.188Z</time></trkpt><trkpt lat="45.5948787" lon="8.9125241"><ele>211.0</ele><time>2026-04-12T10:58:50.186Z</time></trkpt><trkpt lat="45.594937" lon="8.9125717"><ele>211.0</ele><time>2026-04-12T10:58:51.209Z</time></trkpt><trkpt lat="45.5949846" lon="8.9126396"><ele>211.0</ele><time>2026-04-12T10:58:52.185Z</time></trkpt><trkpt lat="45.5950379" lon="8.9127109"><ele>211.0</ele><time>2026-04-12T10:58:53.225Z</time></trkpt><trkpt lat="45.59507" lon="8.9128011"><ele>211.0</ele><time>2026-04-12T10:58:54.18Z</time></trkpt><trkpt lat="45.5951021" lon="8.912899"><ele>211.0</ele><time>2026-04-12T10:58:55.175Z</time></trkpt><trkpt lat="45.5951298" lon="8.9129942"><ele>210.66666666666666</ele><time>2026-04-12T10:58:56.198Z</time></trkpt><trkpt lat="45.5951665" lon="8.9130904"><ele>210.33333333333331</ele><time>2026-04-12T10:58:57.202Z</time></trkpt><trkpt lat="45.5952092" lon="8.9131864"><ele>210.0</ele><time>2026-04-12T10:58:58.19Z</time></trkpt><trkpt lat="45.5952457" lon="8.9132818"><ele>209.66666666666669</ele><time>2026-04-12T10:58:59.191Z</time></trkpt><trkpt lat="45.5952823" lon="8.9133753"><ele>209.33333333333334</ele><time>2026-04-12T10:59:00.187Z</time></trkpt><trkpt lat="45.5953216" lon="8.9134657"><ele>209.0</ele><time>2026-04-12T10:59:01.236Z</time></trkpt><trkpt lat="45.5953576" lon="8.9135539"><ele>209.0</ele><time>2026-04-12T10:59:02.235Z</time></trkpt><trkpt lat="45.5953949" lon="8.9136441"><ele>209.0</ele><time>2026-04-12T10:59:03.232Z</time></trkpt><trkpt lat="45.5954275" lon="8.9137359"><ele>209.0</ele><time>2026-04-12T10:59:04.198Z</time></trkpt><trkpt lat="45.5954602" lon="8.9138304"><ele>209.0</ele><time>2026-04-12T10:59:05.188Z</time></trkpt><trkpt lat="45.5954877" lon="8.9139226"><ele>209.0</ele><time>2026-04-12T10:59:06.194Z</time></trkpt><trkpt lat="45.5955159" lon="8.914017"><ele>209.0</ele><time>2026-04-12T10:59:07.213Z</time></trkpt><trkpt lat="45.5955462" lon="8.9141083"><ele>209.0</ele><time>2026-04-12T10:59:08.192Z</time></trkpt><trkpt lat="45.595574" lon="8.9141997"><ele>208.33333333333334</ele><time>2026-04-12T10:59:09.182Z</time></trkpt><trkpt lat="45.5956003" lon="8.914292"><ele>207.66666666666669</ele><time>2026-04-12T10:59:10.169Z</time></trkpt><trkpt lat="45.5956388" lon="8.9143725"><ele>207.0</ele><time>2026-04-12T10:59:11.219Z</time></trkpt><trkpt lat="45.5956664" lon="8.9144562"><ele>206.33333333333331</ele><time>2026-04-12T10:59:12.229Z</time></trkpt><trkpt lat="45.595724" lon="8.9146064"><ele>205.66666666666666</ele><time>2026-04-12T10:59:14.176Z</time></trkpt><trkpt lat="45.5957804" lon="8.9147554"><ele>205.0</ele><time>2026-04-12T10:59:16.18Z</time></trkpt><trkpt lat="45.595824" lon="8.9148952"><ele>204.99999999999997</ele><time>2026-04-12T10:59:18.179Z</time></trkpt><trkpt lat="45.5958608" lon="8.9149862"><ele>205.0</ele><time>2026-04-12T10:59:20.188Z</time></trkpt><trkpt lat="45.595892" lon="8.9150727"><ele>205.0</ele><time>2026-04-12T10:59:24.189Z</time></trkpt><trkpt lat="45.595938" lon="8.9151776"><ele>205.0</ele><time>2026-04-12T10:59:26.187Z</time></trkpt><trkpt lat="45.5959638" lon="8.9152684"><ele>204.99999999999997</ele><time>2026-04-12T10:59:27.188Z</time></trkpt><trkpt lat="45.595996" lon="8.9153602"><ele>205.0</ele><time>2026-04-12T10:59:28.183Z</time></trkpt><trkpt lat="45.5960463" lon="8.915508"><ele>205.0</ele><time>2026-04-12T10:59:30.191Z</time></trkpt><trkpt lat="45.5960861" lon="8.9156321"><ele>205.0</ele><time>2026-04-12T10:59:32.222Z</time></trkpt><trkpt lat="45.5961103" lon="8.9157159"><ele>205.0</ele><time>2026-04-12T10:59:34.171Z</time></trkpt><trkpt lat="45.5961491" lon="8.9158518"><ele>205.0</ele><time>2026-04-12T10:59:37.169Z</time></trkpt><trkpt lat="45.5962112" lon="8.9159972"><ele>205.0</ele><time>2026-04-12T10:59:39.185Z</time></trkpt><trkpt lat="45.5962506" lon="8.9161004"><ele>205.16666666666666</ele><time>2026-04-12T10:59:40.21Z</time></trkpt><trkpt lat="45.5962817" lon="8.9161929"><ele>205.33333333333331</ele><time>2026-04-12T10:59:41.214Z</time></trkpt><trkpt lat="45.5963141" lon="8.9162709"><ele>205.5</ele><time>2026-04-12T10:59:42.197Z</time></trkpt><trkpt lat="45.5963708" lon="8.916418"><ele>205.66666666666669</ele><time>2026-04-12T10:59:44.181Z</time></trkpt><trkpt lat="45.5963981" lon="8.9164992"><ele>205.83333333333334</ele><time>2026-04-12T10:59:45.184Z</time></trkpt><trkpt lat="45.5964327" lon="8.9165847"><ele>206.0</ele><time>2026-04-12T10:59:46.223Z</time></trkpt><trkpt lat="45.596471" lon="8.916708"><ele>206.20000000000002</ele><time>2026-04-12T10:59:47.183Z</time></trkpt><trkpt lat="45.5965662" lon="8.9169639"><ele>206.4</ele><time>2026-04-12T10:59:49.185Z</time></trkpt><trkpt lat="45.5966072" lon="8.9170679"><ele>206.6</ele><time>2026-04-12T10:59:50.181Z</time></trkpt><trkpt lat="45.5966452" lon="8.9171623"><ele>206.8</ele><time>2026-04-12T10:59:51.197Z</time></trkpt><trkpt lat="45.5966735" lon="8.9172586"><ele>207.0</ele><time>2026-04-12T10:59:52.191Z</time></trkpt><trkpt lat="45.5967073" lon="8.9173482"><ele>207.0</ele><time>2026-04-12T10:59:53.185Z</time></trkpt><trkpt lat="45.5967326" lon="8.9174852"><ele>207.0</ele><time>2026-04-12T10:59:54.19Z</time></trkpt><trkpt lat="45.5967725" lon="8.9175962"><ele>207.0</ele><time>2026-04-12T10:59:55.179Z</time></trkpt><trkpt lat="45.5968056" lon="8.917706"><ele>207.0</ele><time>2026-04-12T10:59:56.2Z</time></trkpt><trkpt lat="45.5968309" lon="8.9178359"><ele>207.0</ele><time>2026-04-12T10:59:58.23Z</time></trkpt><trkpt lat="45.5968392" lon="8.9179292"><ele>207.0</ele><time>2026-04-12T11:00:00.182Z</time></trkpt><trkpt lat="45.5968251" lon="8.9180702"><ele>206.6</ele><time>2026-04-12T11:00:03.195Z</time></trkpt><trkpt lat="45.5967878" lon="8.9181972"><ele>206.2</ele><time>2026-04-12T11:00:05.179Z</time></trkpt><trkpt lat="45.5968038" lon="8.9183427"><ele>205.8</ele><time>2026-04-12T11:00:07.203Z</time></trkpt><trkpt lat="45.5968671" lon="8.9184551"><ele>205.4</ele><time>2026-04-12T11:00:09.18Z</time></trkpt><trkpt lat="45.5969339" lon="8.918552"><ele>205.0</ele><time>2026-04-12T11:00:11.193Z</time></trkpt><trkpt lat="45.596983" lon="8.9186576"><ele>204.99999999999997</ele><time>2026-04-12T11:00:13.22Z</time></trkpt><trkpt lat="45.5970341" lon="8.9187726"><ele>205.0</ele><time>2026-04-12T11:00:15.182Z</time></trkpt><trkpt lat="45.5970835" lon="8.9189374"><ele>205.0</ele><time>2026-04-12T11:00:17.22Z</time></trkpt><trkpt lat="45.5971135" lon="8.9190271"><ele>205.0</ele><time>2026-04-12T11:00:18.192Z</time></trkpt><trkpt lat="45.5971436" lon="8.9191207"><ele>204.99999999999997</ele><time>2026-04-12T11:00:19.187Z</time></trkpt><trkpt lat="45.5971746" lon="8.91921"><ele>205.0</ele><time>2026-04-12T11:00:20.186Z</time></trkpt><trkpt lat="45.5972119" lon="8.9193485"><ele>205.2</ele><time>2026-04-12T11:00:22.207Z</time></trkpt><trkpt lat="45.5972492" lon="8.9194657"><ele>205.4</ele><time>2026-04-12T11:00:24.178Z</time></trkpt><trkpt lat="45.5972848" lon="8.9195805"><ele>205.60000000000002</ele><time>2026-04-12T11:00:26.175Z</time></trkpt><trkpt lat="45.5973272" lon="8.9197094"><ele>205.8</ele><time>2026-04-12T11:00:28.164Z</time></trkpt><trkpt lat="45.597374" lon="8.9198611"><ele>206.0</ele><time>2026-04-12T11:00:30.188Z</time></trkpt><trkpt lat="45.5973999" lon="8.919948"><ele>205.99999999999997</ele><time>2026-04-12T11:00:31.191Z</time></trkpt><trkpt lat="45.597426" lon="8.9200485"><ele>206.0</ele><time>2026-04-12T11:00:32.188Z</time></trkpt><trkpt lat="45.5974536" lon="8.9201524"><ele>206.0</ele><time>2026-04-12T11:00:33.202Z</time></trkpt><trkpt lat="45.5974794" lon="8.920252"><ele>206.0</ele><time>2026-04-12T11:00:34.189Z</time></trkpt><trkpt lat="45.5975075" lon="8.9203444"><ele>206.0</ele><time>2026-04-12T11:00:35.185Z</time></trkpt><trkpt lat="45.5975326" lon="8.9204338"><ele>205.99999999999997</ele><time>2026-04-12T11:00:36.195Z</time></trkpt><trkpt lat="45.5975578" lon="8.9205224"><ele>206.0</ele><time>2026-04-12T11:00:37.195Z</time></trkpt><trkpt lat="45.5976014" lon="8.9206629"><ele>205.7142857142857</ele><time>2026-04-12T11:00:39.182Z</time></trkpt><trkpt lat="45.597629" lon="8.9207777"><ele>205.42857142857142</ele><time>2026-04-12T11:00:41.219Z</time></trkpt><trkpt lat="45.5976454" lon="8.9208789"><ele>205.14285714285714</ele><time>2026-04-12T11:00:44.187Z</time></trkpt><trkpt lat="45.5976467" lon="8.9209706"><ele>204.85714285714283</ele><time>2026-04-12T11:00:51.17Z</time></trkpt><trkpt lat="45.5976263" lon="8.9210722"><ele>204.57142857142858</ele><time>2026-04-12T11:00:56.174Z</time></trkpt><trkpt lat="45.597624" lon="8.9211918"><ele>204.28571428571428</ele><time>2026-04-12T11:00:58.174Z</time></trkpt><trkpt lat="45.5976822" lon="8.9212475"><ele>204.0</ele><time>2026-04-12T11:01:00.179Z</time></trkpt><trkpt lat="45.5977538" lon="8.9211918"><ele>203.83333333333334</ele><time>2026-04-12T11:01:02.179Z</time></trkpt><trkpt lat="45.5978216" lon="8.9211058"><ele>203.66666666666669</ele><time>2026-04-12T11:01:03.182Z</time></trkpt><trkpt lat="45.5978885" lon="8.9210201"><ele>203.5</ele><time>2026-04-12T11:01:04.181Z</time></trkpt><trkpt lat="45.597948" lon="8.920941"><ele>203.33333333333334</ele><time>2026-04-12T11:01:05.183Z</time></trkpt><trkpt lat="45.5980014" lon="8.920872"><ele>203.16666666666669</ele><time>2026-04-12T11:01:06.182Z</time></trkpt><trkpt lat="45.5980326" lon="8.9207922"><ele>203.0</ele><time>2026-04-12T11:01:07.173Z</time></trkpt><trkpt lat="45.5981219" lon="8.9208334"><ele>203.0</ele><time>2026-04-12T11:01:09.185Z</time></trkpt><trkpt lat="45.5982295" lon="8.9209482"><ele>203.0</ele><time>2026-04-12T11:01:11.189Z</time></trkpt><trkpt lat="45.5983244" lon="8.9211485"><ele>203.0</ele><time>2026-04-12T11:01:12.183Z</time></trkpt><trkpt lat="45.5984212" lon="8.9213363"><ele>203.0</ele><time>2026-04-12T11:01:13.184Z</time></trkpt><trkpt lat="45.5985514" lon="8.9216005"><ele>203.0</ele><time>2026-04-12T11:01:14.184Z</time></trkpt><trkpt lat="45.5986553" lon="8.921821"><ele>203.0</ele><time>2026-04-12T11:01:15.189Z</time></trkpt><trkpt lat="45.5987378" lon="8.9219677"><ele>203.8</ele><time>2026-04-12T11:01:16.189Z</time></trkpt><trkpt lat="45.5987893" lon="8.9220784"><ele>204.60000000000002</ele><time>2026-04-12T11:01:17.181Z</time></trkpt><trkpt lat="45.598833" lon="8.9221644"><ele>205.39999999999998</ele><time>2026-04-12T11:01:18.182Z</time></trkpt><trkpt lat="45.5989371" lon="8.9221988"><ele>206.2</ele><time>2026-04-12T11:01:20.178Z</time></trkpt><trkpt lat="45.5990365" lon="8.9221169"><ele>207.0</ele><time>2026-04-12T11:01:22.228Z</time></trkpt><trkpt lat="45.5991485" lon="8.9220965"><ele>207.0</ele><time>2026-04-12T11:01:24.179Z</time></trkpt><trkpt lat="45.59922" lon="8.9222352"><ele>207.0</ele><time>2026-04-12T11:01:26.182Z</time></trkpt><trkpt lat="45.5992594" lon="8.922331"><ele>207.0</ele><time>2026-04-12T11:01:27.185Z</time></trkpt><trkpt lat="45.5992998" lon="8.9224177"><ele>207.0</ele><time>2026-04-12T11:01:28.183Z</time></trkpt><trkpt lat="45.5993422" lon="8.9225012"><ele>207.0</ele><time>2026-04-12T11:01:29.186Z</time></trkpt><trkpt lat="45.5994202" lon="8.9226467"><ele>207.00000000000003</ele><time>2026-04-12T11:01:31.228Z</time></trkpt><trkpt lat="45.5994547" lon="8.9227221"><ele>207.0</ele><time>2026-04-12T11:01:32.195Z</time></trkpt><trkpt lat="45.5994927" lon="8.9228008"><ele>207.0</ele><time>2026-04-12T11:01:33.185Z</time></trkpt><trkpt lat="45.5995371" lon="8.9228698"><ele>207.0</ele><time>2026-04-12T11:01:34.184Z</time></trkpt><trkpt lat="45.5995706" lon="8.9229461"><ele>207.0</ele><time>2026-04-12T11:01:35.193Z</time></trkpt><trkpt lat="45.5996381" lon="8.9230878"><ele>207.00000000000003</ele><time>2026-04-12T11:01:37.219Z</time></trkpt><trkpt lat="45.5996792" lon="8.9231595"><ele>207.0</ele><time>2026-04-12T11:01:38.19Z</time></trkpt><trkpt lat="45.5997215" lon="8.9232362"><ele>207.0</ele><time>2026-04-12T11:01:39.181Z</time></trkpt><trkpt lat="45.5997681" lon="8.9233334"><ele>207.0</ele><time>2026-04-12T11:01:40.186Z</time></trkpt><trkpt lat="45.5998296" lon="8.9234593"><ele>207.0</ele><time>2026-04-12T11:01:42.22Z</time></trkpt><trkpt lat="45.5999055" lon="8.9235153"><ele>207.0</ele><time>2026-04-12T11:01:47.194Z</time></trkpt><trkpt lat="45.599993" lon="8.9234538"><ele>207.0</ele><time>2026-04-12T11:01:49.175Z</time></trkpt><trkpt lat="45.6000793" lon="8.9233694"><ele>207.16666666666666</ele><time>2026-04-12T11:01:51.222Z</time></trkpt><trkpt lat="45.6001671" lon="8.9232988"><ele>207.33333333333331</ele><time>2026-04-12T11:01:53.225Z</time></trkpt><trkpt lat="45.600259" lon="8.9232234"><ele>207.5</ele><time>2026-04-12T11:01:55.19Z</time></trkpt><trkpt lat="45.6003345" lon="8.9231719"><ele>207.66666666666666</ele><time>2026-04-12T11:01:57.217Z</time></trkpt><trkpt lat="45.6003969" lon="8.9231232"><ele>207.83333333333331</ele><time>2026-04-12T11:02:01.188Z</time></trkpt><trkpt lat="45.600453" lon="8.9231876"><ele>208.0</ele><time>2026-04-12T11:02:04.176Z</time></trkpt><trkpt lat="45.6004829" lon="8.9232846"><ele>208.33333333333331</ele><time>2026-04-12T11:02:06.173Z</time></trkpt><trkpt lat="45.6005234" lon="8.9234056"><ele>208.66666666666666</ele><time>2026-04-12T11:02:08.184Z</time></trkpt><trkpt lat="45.6005656" lon="8.9234757"><ele>209.0</ele><time>2026-04-12T11:02:09.185Z</time></trkpt><trkpt lat="45.6005997" lon="8.9235567"><ele>209.33333333333331</ele><time>2026-04-12T11:02:10.186Z</time></trkpt><trkpt lat="45.600649" lon="8.9236291"><ele>209.66666666666666</ele><time>2026-04-12T11:02:11.224Z</time></trkpt><trkpt lat="45.6007077" lon="8.9237054"><ele>210.0</ele><time>2026-04-12T11:02:12.18Z</time></trkpt><trkpt lat="45.6007732" lon="8.9237612"><ele>210.0</ele><time>2026-04-12T11:02:13.187Z</time></trkpt><trkpt lat="45.6008332" lon="8.9238221"><ele>210.0</ele><time>2026-04-12T11:02:14.18Z</time></trkpt><trkpt lat="45.6008961" lon="8.9239042"><ele>210.0</ele><time>2026-04-12T11:02:15.19Z</time></trkpt><trkpt lat="45.6009626" lon="8.9240509"><ele>210.0</ele><time>2026-04-12T11:02:16.192Z</time></trkpt><trkpt lat="45.6010449" lon="8.9242265"><ele>210.0</ele><time>2026-04-12T11:02:17.178Z</time></trkpt><trkpt lat="45.6011342" lon="8.9244266"><ele>208.33333333333331</ele><time>2026-04-12T11:02:18.188Z</time></trkpt><trkpt lat="45.6012462" lon="8.9246599"><ele>206.66666666666666</ele><time>2026-04-12T11:02:19.18Z</time></trkpt><trkpt lat="45.6013285" lon="8.9248605"><ele>205.0</ele><time>2026-04-12T11:02:20.194Z</time></trkpt><trkpt lat="45.6014065" lon="8.9250319"><ele>205.2</ele><time>2026-04-12T11:02:21.195Z</time></trkpt><trkpt lat="45.6014722" lon="8.9251888"><ele>205.4</ele><time>2026-04-12T11:02:22.218Z</time></trkpt><trkpt lat="45.6015232" lon="8.9253082"><ele>205.60000000000002</ele><time>2026-04-12T11:02:23.184Z</time></trkpt><trkpt lat="45.6015562" lon="8.9253995"><ele>205.8</ele><time>2026-04-12T11:02:24.187Z</time></trkpt><trkpt lat="45.6015601" lon="8.9255668"><ele>206.0</ele><time>2026-04-12T11:02:26.19Z</time></trkpt><trkpt lat="45.6015084" lon="8.9256612"><ele>206.0</ele><time>2026-04-12T11:02:28.191Z</time></trkpt><trkpt lat="45.6014031" lon="8.9257399"><ele>206.0</ele><time>2026-04-12T11:02:30.191Z</time></trkpt><trkpt lat="45.6013032" lon="8.9258206"><ele>206.0</ele><time>2026-04-12T11:02:32.186Z</time></trkpt><trkpt lat="45.6012138" lon="8.9258863"><ele>206.0</ele><time>2026-04-12T11:02:34.19Z</time></trkpt><trkpt lat="45.601109" lon="8.9259584"><ele>206.16666666666669</ele><time>2026-04-12T11:02:36.191Z</time></trkpt><trkpt lat="45.6010148" lon="8.9260323"><ele>206.33333333333334</ele><time>2026-04-12T11:02:38.191Z</time></trkpt><trkpt lat="45.6009421" lon="8.9260921"><ele>206.5</ele><time>2026-04-12T11:02:40.194Z</time></trkpt><trkpt lat="45.6008746" lon="8.9261427"><ele>206.66666666666669</ele><time>2026-04-12T11:02:43.215Z</time></trkpt><trkpt lat="45.6008069" lon="8.9261718"><ele>206.83333333333334</ele><time>2026-04-12T11:02:47.189Z</time></trkpt><trkpt lat="45.6007413" lon="8.9262537"><ele>207.0</ele><time>2026-04-12T11:03:27.225Z</time></trkpt><trkpt lat="45.6007101" lon="8.9263573"><ele>207.0</ele><time>2026-04-12T11:03:34.185Z</time></trkpt></trkseg></trk></gpx>